<?xml version="1.0" encoding="UTF-8"?>
<gpx version="1.1" creator="https://www.youtrack.es" xsi:schemaLocation="http://www.topografix.com/GPX/1/1 http://www.topografix.com/GPX/1/1/gpx.xsd http://www.garmin.com/xmlschemas/GpxExtensions/v3 http://www.garmin.com/xmlschemas/GpxExtensionsv3.xsd http://www.garmin.com/xmlschemas/TrackPointExtension/v1 http://www.garmin.com/xmlschemas/TrackPointExtensionv1.xsd" xmlns:gpxtpx="http://www.garmin.com/xmlschemas/TrackPointExtension/v1" xmlns:gpxx="http://www.garmin.com/xmlschemas/GpxExtensions/v3" xmlns:xsi="http://www.w3.org/2001/XMLSchema-instance">
  <metadata>
    <link href="https://www.youtrack.es">
      <text>YouTrack.es</text>
    </link>
    <time>2026-05-08T02:56:16Z</time>
  </metadata>
  <trk>
    <src>https://www.youtrack.es</src>
    <link href="https://www.youtrack.es/ruta/2248-beto">
      <text>YouTrack.es</text>
    </link>
    <trkseg>
      <trkpt lat="-24.7313920" lon="-53.7509760">
        <ele>569.7</ele>
        <time>2018-09-14T16:16:45Z</time>
      </trkpt>
      <trkpt lat="-24.7314050" lon="-53.7509810">
        <ele>569.8</ele>
        <time>2018-09-14T16:16:46Z</time>
      </trkpt>
      <trkpt lat="-24.7314150" lon="-53.7509850">
        <ele>569.8</ele>
        <time>2018-09-14T16:16:47Z</time>
      </trkpt>
      <trkpt lat="-24.7314170" lon="-53.7509870">
        <ele>569.8</ele>
        <time>2018-09-14T16:16:48Z</time>
      </trkpt>
      <trkpt lat="-24.7314240" lon="-53.7509880">
        <ele>569.8</ele>
        <time>2018-09-14T16:16:49Z</time>
      </trkpt>
      <trkpt lat="-24.7314190" lon="-53.7509800">
        <ele>569.8</ele>
        <time>2018-09-14T16:16:50Z</time>
      </trkpt>
      <trkpt lat="-24.7314060" lon="-53.7509690">
        <ele>569.8</ele>
        <time>2018-09-14T16:16:51Z</time>
      </trkpt>
      <trkpt lat="-24.7314120" lon="-53.7509710">
        <ele>569.8</ele>
        <time>2018-09-14T16:16:52Z</time>
      </trkpt>
      <trkpt lat="-24.7313920" lon="-53.7509430">
        <ele>569.6</ele>
        <time>2018-09-14T16:16:53Z</time>
      </trkpt>
      <trkpt lat="-24.7314080" lon="-53.7509560">
        <ele>569.8</ele>
        <time>2018-09-14T16:16:54Z</time>
      </trkpt>
      <trkpt lat="-24.7313810" lon="-53.7509340">
        <ele>569.6</ele>
        <time>2018-09-14T16:16:55Z</time>
      </trkpt>
      <trkpt lat="-24.7313660" lon="-53.7509870">
        <ele>569.7</ele>
        <time>2018-09-14T16:17:24Z</time>
      </trkpt>
      <trkpt lat="-24.7312090" lon="-53.7508110">
        <ele>570.9</ele>
        <time>2018-09-14T16:17:25Z</time>
      </trkpt>
      <trkpt lat="-24.7311910" lon="-53.7507710">
        <ele>571.2</ele>
        <time>2018-09-14T16:17:26Z</time>
      </trkpt>
      <trkpt lat="-24.7310650" lon="-53.7506260">
        <ele>572.8</ele>
        <time>2018-09-14T16:17:38Z</time>
      </trkpt>
      <trkpt lat="-24.7310590" lon="-53.7506220">
        <ele>572.8</ele>
        <time>2018-09-14T16:17:39Z</time>
      </trkpt>
      <trkpt lat="-24.7310540" lon="-53.7506040">
        <ele>574.0</ele>
        <time>2018-09-14T16:17:40Z</time>
      </trkpt>
      <trkpt lat="-24.7310410" lon="-53.7505900">
        <ele>574.0</ele>
        <time>2018-09-14T16:17:41Z</time>
      </trkpt>
      <trkpt lat="-24.7310470" lon="-53.7505590">
        <ele>574.0</ele>
        <time>2018-09-14T16:17:42Z</time>
      </trkpt>
      <trkpt lat="-24.7310460" lon="-53.7505420">
        <ele>574.0</ele>
        <time>2018-09-14T16:17:43Z</time>
      </trkpt>
      <trkpt lat="-24.7310400" lon="-53.7505360">
        <ele>574.0</ele>
        <time>2018-09-14T16:17:44Z</time>
      </trkpt>
      <trkpt lat="-24.7310410" lon="-53.7505140">
        <ele>574.0</ele>
        <time>2018-09-14T16:17:45Z</time>
      </trkpt>
      <trkpt lat="-24.7310480" lon="-53.7504770">
        <ele>574.0</ele>
        <time>2018-09-14T16:17:46Z</time>
      </trkpt>
      <trkpt lat="-24.7310370" lon="-53.7504650">
        <ele>574.0</ele>
        <time>2018-09-14T16:17:47Z</time>
      </trkpt>
      <trkpt lat="-24.7310250" lon="-53.7504500">
        <ele>574.0</ele>
        <time>2018-09-14T16:17:48Z</time>
      </trkpt>
      <trkpt lat="-24.7310090" lon="-53.7504430">
        <ele>574.0</ele>
        <time>2018-09-14T16:17:49Z</time>
      </trkpt>
      <trkpt lat="-24.7309910" lon="-53.7504450">
        <ele>574.0</ele>
        <time>2018-09-14T16:17:50Z</time>
      </trkpt>
      <trkpt lat="-24.7309780" lon="-53.7504240">
        <ele>574.0</ele>
        <time>2018-09-14T16:17:51Z</time>
      </trkpt>
      <trkpt lat="-24.7309730" lon="-53.7504050">
        <ele>574.0</ele>
        <time>2018-09-14T16:17:52Z</time>
      </trkpt>
      <trkpt lat="-24.7309590" lon="-53.7503930">
        <ele>574.1</ele>
        <time>2018-09-14T16:17:53Z</time>
      </trkpt>
      <trkpt lat="-24.7309580" lon="-53.7503630">
        <ele>574.1</ele>
        <time>2018-09-14T16:17:54Z</time>
      </trkpt>
      <trkpt lat="-24.7309560" lon="-53.7503310">
        <ele>574.1</ele>
        <time>2018-09-14T16:17:55Z</time>
      </trkpt>
      <trkpt lat="-24.7309610" lon="-53.7502920">
        <ele>574.1</ele>
        <time>2018-09-14T16:17:56Z</time>
      </trkpt>
      <trkpt lat="-24.7309630" lon="-53.7502550">
        <ele>574.1</ele>
        <time>2018-09-14T16:17:57Z</time>
      </trkpt>
      <trkpt lat="-24.7309600" lon="-53.7502270">
        <ele>574.1</ele>
        <time>2018-09-14T16:17:58Z</time>
      </trkpt>
      <trkpt lat="-24.7309580" lon="-53.7501970">
        <ele>574.1</ele>
        <time>2018-09-14T16:17:59Z</time>
      </trkpt>
      <trkpt lat="-24.7309590" lon="-53.7501580">
        <ele>574.1</ele>
        <time>2018-09-14T16:18:00Z</time>
      </trkpt>
      <trkpt lat="-24.7309570" lon="-53.7501260">
        <ele>574.0</ele>
        <time>2018-09-14T16:18:01Z</time>
      </trkpt>
      <trkpt lat="-24.7309520" lon="-53.7500960">
        <ele>574.0</ele>
        <time>2018-09-14T16:18:02Z</time>
      </trkpt>
      <trkpt lat="-24.7309520" lon="-53.7500780">
        <ele>574.0</ele>
        <time>2018-09-14T16:18:03Z</time>
      </trkpt>
      <trkpt lat="-24.7309500" lon="-53.7500590">
        <ele>574.0</ele>
        <time>2018-09-14T16:18:04Z</time>
      </trkpt>
      <trkpt lat="-24.7309510" lon="-53.7500430">
        <ele>574.0</ele>
        <time>2018-09-14T16:18:05Z</time>
      </trkpt>
      <trkpt lat="-24.7309550" lon="-53.7500260">
        <ele>574.0</ele>
        <time>2018-09-14T16:18:06Z</time>
      </trkpt>
      <trkpt lat="-24.7309510" lon="-53.7500280">
        <ele>574.0</ele>
        <time>2018-09-14T16:18:07Z</time>
      </trkpt>
      <trkpt lat="-24.7309550" lon="-53.7500260">
        <ele>574.0</ele>
        <time>2018-09-14T16:18:08Z</time>
      </trkpt>
      <trkpt lat="-24.7309560" lon="-53.7500110">
        <ele>574.0</ele>
        <time>2018-09-14T16:18:15Z</time>
      </trkpt>
      <trkpt lat="-24.7309570" lon="-53.7499980">
        <ele>574.0</ele>
        <time>2018-09-14T16:18:16Z</time>
      </trkpt>
      <trkpt lat="-24.7309510" lon="-53.7499850">
        <ele>574.0</ele>
        <time>2018-09-14T16:18:17Z</time>
      </trkpt>
      <trkpt lat="-24.7309460" lon="-53.7499670">
        <ele>574.0</ele>
        <time>2018-09-14T16:18:18Z</time>
      </trkpt>
      <trkpt lat="-24.7309480" lon="-53.7499410">
        <ele>574.0</ele>
        <time>2018-09-14T16:18:19Z</time>
      </trkpt>
      <trkpt lat="-24.7309440" lon="-53.7499250">
        <ele>574.0</ele>
        <time>2018-09-14T16:18:20Z</time>
      </trkpt>
      <trkpt lat="-24.7309390" lon="-53.7499150">
        <ele>574.0</ele>
        <time>2018-09-14T16:18:21Z</time>
      </trkpt>
      <trkpt lat="-24.7309390" lon="-53.7498910">
        <ele>574.0</ele>
        <time>2018-09-14T16:18:22Z</time>
      </trkpt>
      <trkpt lat="-24.7309350" lon="-53.7498730">
        <ele>574.0</ele>
        <time>2018-09-14T16:18:23Z</time>
      </trkpt>
      <trkpt lat="-24.7309270" lon="-53.7498590">
        <ele>574.0</ele>
        <time>2018-09-14T16:18:24Z</time>
      </trkpt>
      <trkpt lat="-24.7309260" lon="-53.7498390">
        <ele>574.0</ele>
        <time>2018-09-14T16:18:25Z</time>
      </trkpt>
      <trkpt lat="-24.7309220" lon="-53.7498100">
        <ele>574.0</ele>
        <time>2018-09-14T16:18:26Z</time>
      </trkpt>
      <trkpt lat="-24.7309210" lon="-53.7497800">
        <ele>574.0</ele>
        <time>2018-09-14T16:18:27Z</time>
      </trkpt>
      <trkpt lat="-24.7309210" lon="-53.7497490">
        <ele>574.0</ele>
        <time>2018-09-14T16:18:28Z</time>
      </trkpt>
      <trkpt lat="-24.7309170" lon="-53.7497160">
        <ele>574.0</ele>
        <time>2018-09-14T16:18:29Z</time>
      </trkpt>
      <trkpt lat="-24.7309190" lon="-53.7496770">
        <ele>573.6</ele>
        <time>2018-09-14T16:18:30Z</time>
      </trkpt>
      <trkpt lat="-24.7309170" lon="-53.7496380">
        <ele>573.5</ele>
        <time>2018-09-14T16:18:31Z</time>
      </trkpt>
      <trkpt lat="-24.7309130" lon="-53.7496010">
        <ele>573.4</ele>
        <time>2018-09-14T16:18:32Z</time>
      </trkpt>
      <trkpt lat="-24.7309090" lon="-53.7495640">
        <ele>573.3</ele>
        <time>2018-09-14T16:18:33Z</time>
      </trkpt>
      <trkpt lat="-24.7309070" lon="-53.7495230">
        <ele>573.1</ele>
        <time>2018-09-14T16:18:34Z</time>
      </trkpt>
      <trkpt lat="-24.7309110" lon="-53.7494760">
        <ele>573.0</ele>
        <time>2018-09-14T16:18:35Z</time>
      </trkpt>
      <trkpt lat="-24.7309090" lon="-53.7494320">
        <ele>572.7</ele>
        <time>2018-09-14T16:18:36Z</time>
      </trkpt>
      <trkpt lat="-24.7309060" lon="-53.7493910">
        <ele>572.3</ele>
        <time>2018-09-14T16:18:37Z</time>
      </trkpt>
      <trkpt lat="-24.7308990" lon="-53.7493560">
        <ele>571.9</ele>
        <time>2018-09-14T16:18:38Z</time>
      </trkpt>
      <trkpt lat="-24.7309010" lon="-53.7493160">
        <ele>571.6</ele>
        <time>2018-09-14T16:18:39Z</time>
      </trkpt>
      <trkpt lat="-24.7309020" lon="-53.7492740">
        <ele>571.1</ele>
        <time>2018-09-14T16:18:40Z</time>
      </trkpt>
      <trkpt lat="-24.7309030" lon="-53.7492280">
        <ele>570.7</ele>
        <time>2018-09-14T16:18:41Z</time>
      </trkpt>
      <trkpt lat="-24.7308970" lon="-53.7491810">
        <ele>570.5</ele>
        <time>2018-09-14T16:18:42Z</time>
      </trkpt>
      <trkpt lat="-24.7308930" lon="-53.7491350">
        <ele>570.4</ele>
        <time>2018-09-14T16:18:43Z</time>
      </trkpt>
      <trkpt lat="-24.7308930" lon="-53.7490890">
        <ele>570.2</ele>
        <time>2018-09-14T16:18:44Z</time>
      </trkpt>
      <trkpt lat="-24.7308900" lon="-53.7490470">
        <ele>570.0</ele>
        <time>2018-09-14T16:18:45Z</time>
      </trkpt>
      <trkpt lat="-24.7308850" lon="-53.7489980">
        <ele>569.7</ele>
        <time>2018-09-14T16:18:46Z</time>
      </trkpt>
      <trkpt lat="-24.7308670" lon="-53.7489540">
        <ele>569.5</ele>
        <time>2018-09-14T16:18:47Z</time>
      </trkpt>
      <trkpt lat="-24.7308440" lon="-53.7489130">
        <ele>569.4</ele>
        <time>2018-09-14T16:18:48Z</time>
      </trkpt>
      <trkpt lat="-24.7308050" lon="-53.7488900">
        <ele>569.2</ele>
        <time>2018-09-14T16:18:49Z</time>
      </trkpt>
      <trkpt lat="-24.7307690" lon="-53.7488780">
        <ele>569.7</ele>
        <time>2018-09-14T16:18:50Z</time>
      </trkpt>
      <trkpt lat="-24.7307270" lon="-53.7488820">
        <ele>570.2</ele>
        <time>2018-09-14T16:18:51Z</time>
      </trkpt>
      <trkpt lat="-24.7306920" lon="-53.7488770">
        <ele>570.7</ele>
        <time>2018-09-14T16:18:52Z</time>
      </trkpt>
      <trkpt lat="-24.7306570" lon="-53.7488770">
        <ele>571.2</ele>
        <time>2018-09-14T16:18:53Z</time>
      </trkpt>
      <trkpt lat="-24.7306280" lon="-53.7488680">
        <ele>571.6</ele>
        <time>2018-09-14T16:18:54Z</time>
      </trkpt>
      <trkpt lat="-24.7306030" lon="-53.7488610">
        <ele>571.9</ele>
        <time>2018-09-14T16:18:55Z</time>
      </trkpt>
      <trkpt lat="-24.7305760" lon="-53.7488640">
        <ele>572.1</ele>
        <time>2018-09-14T16:18:56Z</time>
      </trkpt>
      <trkpt lat="-24.7305540" lon="-53.7488610">
        <ele>572.2</ele>
        <time>2018-09-14T16:18:57Z</time>
      </trkpt>
      <trkpt lat="-24.7305420" lon="-53.7488500">
        <ele>572.3</ele>
        <time>2018-09-14T16:18:58Z</time>
      </trkpt>
      <trkpt lat="-24.7305050" lon="-53.7488610">
        <ele>572.5</ele>
        <time>2018-09-14T16:18:59Z</time>
      </trkpt>
      <trkpt lat="-24.7304700" lon="-53.7488620">
        <ele>572.6</ele>
        <time>2018-09-14T16:19:00Z</time>
      </trkpt>
      <trkpt lat="-24.7304410" lon="-53.7488560">
        <ele>572.8</ele>
        <time>2018-09-14T16:19:01Z</time>
      </trkpt>
      <trkpt lat="-24.7304080" lon="-53.7488520">
        <ele>572.9</ele>
        <time>2018-09-14T16:19:02Z</time>
      </trkpt>
      <trkpt lat="-24.7303690" lon="-53.7488640">
        <ele>573.0</ele>
        <time>2018-09-14T16:19:03Z</time>
      </trkpt>
      <trkpt lat="-24.7303530" lon="-53.7488500">
        <ele>573.1</ele>
        <time>2018-09-14T16:19:04Z</time>
      </trkpt>
      <trkpt lat="-24.7303240" lon="-53.7488460">
        <ele>573.1</ele>
        <time>2018-09-14T16:19:05Z</time>
      </trkpt>
      <trkpt lat="-24.7303080" lon="-53.7488420">
        <ele>573.2</ele>
        <time>2018-09-14T16:19:06Z</time>
      </trkpt>
      <trkpt lat="-24.7302720" lon="-53.7488470">
        <ele>573.3</ele>
        <time>2018-09-14T16:19:07Z</time>
      </trkpt>
      <trkpt lat="-24.7302290" lon="-53.7488510">
        <ele>573.4</ele>
        <time>2018-09-14T16:19:08Z</time>
      </trkpt>
      <trkpt lat="-24.7301980" lon="-53.7488440">
        <ele>573.5</ele>
        <time>2018-09-14T16:19:09Z</time>
      </trkpt>
      <trkpt lat="-24.7301720" lon="-53.7488350">
        <ele>573.5</ele>
        <time>2018-09-14T16:19:10Z</time>
      </trkpt>
      <trkpt lat="-24.7301410" lon="-53.7488290">
        <ele>573.6</ele>
        <time>2018-09-14T16:19:11Z</time>
      </trkpt>
      <trkpt lat="-24.7301110" lon="-53.7488250">
        <ele>573.6</ele>
        <time>2018-09-14T16:19:12Z</time>
      </trkpt>
      <trkpt lat="-24.7300720" lon="-53.7488260">
        <ele>573.7</ele>
        <time>2018-09-14T16:19:13Z</time>
      </trkpt>
      <trkpt lat="-24.7300410" lon="-53.7488290">
        <ele>573.7</ele>
        <time>2018-09-14T16:19:14Z</time>
      </trkpt>
      <trkpt lat="-24.7300050" lon="-53.7488240">
        <ele>573.8</ele>
        <time>2018-09-14T16:19:15Z</time>
      </trkpt>
      <trkpt lat="-24.7299670" lon="-53.7488230">
        <ele>573.8</ele>
        <time>2018-09-14T16:19:16Z</time>
      </trkpt>
      <trkpt lat="-24.7299360" lon="-53.7488150">
        <ele>573.9</ele>
        <time>2018-09-14T16:19:17Z</time>
      </trkpt>
      <trkpt lat="-24.7299100" lon="-53.7488020">
        <ele>573.9</ele>
        <time>2018-09-14T16:19:18Z</time>
      </trkpt>
      <trkpt lat="-24.7298760" lon="-53.7488000">
        <ele>574.0</ele>
        <time>2018-09-14T16:19:19Z</time>
      </trkpt>
      <trkpt lat="-24.7298390" lon="-53.7488000">
        <ele>574.0</ele>
        <time>2018-09-14T16:19:20Z</time>
      </trkpt>
      <trkpt lat="-24.7297990" lon="-53.7488080">
        <ele>574.0</ele>
        <time>2018-09-14T16:19:21Z</time>
      </trkpt>
      <trkpt lat="-24.7297580" lon="-53.7488220">
        <ele>574.1</ele>
        <time>2018-09-14T16:19:22Z</time>
      </trkpt>
      <trkpt lat="-24.7297280" lon="-53.7488190">
        <ele>574.1</ele>
        <time>2018-09-14T16:19:23Z</time>
      </trkpt>
      <trkpt lat="-24.7296930" lon="-53.7488270">
        <ele>574.1</ele>
        <time>2018-09-14T16:19:24Z</time>
      </trkpt>
      <trkpt lat="-24.7296740" lon="-53.7488100">
        <ele>574.2</ele>
        <time>2018-09-14T16:19:25Z</time>
      </trkpt>
      <trkpt lat="-24.7296500" lon="-53.7488030">
        <ele>574.2</ele>
        <time>2018-09-14T16:19:26Z</time>
      </trkpt>
      <trkpt lat="-24.7296190" lon="-53.7488040">
        <ele>574.2</ele>
        <time>2018-09-14T16:19:27Z</time>
      </trkpt>
      <trkpt lat="-24.7295840" lon="-53.7488160">
        <ele>574.3</ele>
        <time>2018-09-14T16:19:28Z</time>
      </trkpt>
      <trkpt lat="-24.7295610" lon="-53.7488110">
        <ele>574.3</ele>
        <time>2018-09-14T16:19:29Z</time>
      </trkpt>
      <trkpt lat="-24.7295260" lon="-53.7488100">
        <ele>574.4</ele>
        <time>2018-09-14T16:19:30Z</time>
      </trkpt>
      <trkpt lat="-24.7294980" lon="-53.7488010">
        <ele>574.4</ele>
        <time>2018-09-14T16:19:31Z</time>
      </trkpt>
      <trkpt lat="-24.7294660" lon="-53.7487930">
        <ele>574.5</ele>
        <time>2018-09-14T16:19:32Z</time>
      </trkpt>
      <trkpt lat="-24.7294300" lon="-53.7487930">
        <ele>574.5</ele>
        <time>2018-09-14T16:19:33Z</time>
      </trkpt>
      <trkpt lat="-24.7293940" lon="-53.7487990">
        <ele>574.6</ele>
        <time>2018-09-14T16:19:34Z</time>
      </trkpt>
      <trkpt lat="-24.7293940" lon="-53.7487990">
        <ele>574.6</ele>
        <time>2018-09-14T16:19:35Z</time>
      </trkpt>
      <trkpt lat="-24.7293600" lon="-53.7488050">
        <ele>574.6</ele>
        <time>2018-09-14T16:19:36Z</time>
      </trkpt>
      <trkpt lat="-24.7293110" lon="-53.7487900">
        <ele>574.7</ele>
        <time>2018-09-14T16:19:37Z</time>
      </trkpt>
      <trkpt lat="-24.7292810" lon="-53.7487930">
        <ele>574.8</ele>
        <time>2018-09-14T16:19:38Z</time>
      </trkpt>
      <trkpt lat="-24.7292810" lon="-53.7487930">
        <ele>574.8</ele>
        <time>2018-09-14T16:19:39Z</time>
      </trkpt>
      <trkpt lat="-24.7292490" lon="-53.7487870">
        <ele>574.8</ele>
        <time>2018-09-14T16:19:40Z</time>
      </trkpt>
      <trkpt lat="-24.7292160" lon="-53.7487940">
        <ele>574.9</ele>
        <time>2018-09-14T16:19:41Z</time>
      </trkpt>
      <trkpt lat="-24.7291870" lon="-53.7487970">
        <ele>575.0</ele>
        <time>2018-09-14T16:19:42Z</time>
      </trkpt>
      <trkpt lat="-24.7291500" lon="-53.7487980">
        <ele>575.0</ele>
        <time>2018-09-14T16:19:43Z</time>
      </trkpt>
      <trkpt lat="-24.7291180" lon="-53.7487950">
        <ele>575.1</ele>
        <time>2018-09-14T16:19:44Z</time>
      </trkpt>
      <trkpt lat="-24.7290840" lon="-53.7487930">
        <ele>575.2</ele>
        <time>2018-09-14T16:19:45Z</time>
      </trkpt>
      <trkpt lat="-24.7290520" lon="-53.7487860">
        <ele>575.3</ele>
        <time>2018-09-14T16:19:46Z</time>
      </trkpt>
      <trkpt lat="-24.7290180" lon="-53.7487800">
        <ele>575.4</ele>
        <time>2018-09-14T16:19:47Z</time>
      </trkpt>
      <trkpt lat="-24.7289840" lon="-53.7487710">
        <ele>575.5</ele>
        <time>2018-09-14T16:19:48Z</time>
      </trkpt>
      <trkpt lat="-24.7289470" lon="-53.7487660">
        <ele>575.5</ele>
        <time>2018-09-14T16:19:49Z</time>
      </trkpt>
      <trkpt lat="-24.7289140" lon="-53.7487460">
        <ele>575.6</ele>
        <time>2018-09-14T16:19:50Z</time>
      </trkpt>
      <trkpt lat="-24.7288820" lon="-53.7487160">
        <ele>575.7</ele>
        <time>2018-09-14T16:19:51Z</time>
      </trkpt>
      <trkpt lat="-24.7288690" lon="-53.7486790">
        <ele>575.8</ele>
        <time>2018-09-14T16:19:52Z</time>
      </trkpt>
      <trkpt lat="-24.7288590" lon="-53.7486370">
        <ele>575.5</ele>
        <time>2018-09-14T16:19:53Z</time>
      </trkpt>
      <trkpt lat="-24.7288520" lon="-53.7485910">
        <ele>575.4</ele>
        <time>2018-09-14T16:19:54Z</time>
      </trkpt>
      <trkpt lat="-24.7288460" lon="-53.7485430">
        <ele>575.2</ele>
        <time>2018-09-14T16:19:55Z</time>
      </trkpt>
      <trkpt lat="-24.7288430" lon="-53.7484880">
        <ele>575.1</ele>
        <time>2018-09-14T16:19:56Z</time>
      </trkpt>
      <trkpt lat="-24.7288390" lon="-53.7484330">
        <ele>574.9</ele>
        <time>2018-09-14T16:19:57Z</time>
      </trkpt>
      <trkpt lat="-24.7288350" lon="-53.7483760">
        <ele>574.7</ele>
        <time>2018-09-14T16:19:58Z</time>
      </trkpt>
      <trkpt lat="-24.7288310" lon="-53.7483180">
        <ele>574.5</ele>
        <time>2018-09-14T16:19:59Z</time>
      </trkpt>
      <trkpt lat="-24.7288310" lon="-53.7482520">
        <ele>574.3</ele>
        <time>2018-09-14T16:20:00Z</time>
      </trkpt>
      <trkpt lat="-24.7288290" lon="-53.7481830">
        <ele>574.2</ele>
        <time>2018-09-14T16:20:01Z</time>
      </trkpt>
      <trkpt lat="-24.7288250" lon="-53.7481140">
        <ele>574.0</ele>
        <time>2018-09-14T16:20:02Z</time>
      </trkpt>
      <trkpt lat="-24.7288240" lon="-53.7480380">
        <ele>573.9</ele>
        <time>2018-09-14T16:20:03Z</time>
      </trkpt>
      <trkpt lat="-24.7288170" lon="-53.7479690">
        <ele>573.5</ele>
        <time>2018-09-14T16:20:04Z</time>
      </trkpt>
      <trkpt lat="-24.7288080" lon="-53.7478960">
        <ele>573.4</ele>
        <time>2018-09-14T16:20:05Z</time>
      </trkpt>
      <trkpt lat="-24.7288050" lon="-53.7478170">
        <ele>573.2</ele>
        <time>2018-09-14T16:20:06Z</time>
      </trkpt>
      <trkpt lat="-24.7288030" lon="-53.7477370">
        <ele>573.0</ele>
        <time>2018-09-14T16:20:07Z</time>
      </trkpt>
      <trkpt lat="-24.7287990" lon="-53.7476590">
        <ele>572.4</ele>
        <time>2018-09-14T16:20:08Z</time>
      </trkpt>
      <trkpt lat="-24.7287980" lon="-53.7475810">
        <ele>571.8</ele>
        <time>2018-09-14T16:20:09Z</time>
      </trkpt>
      <trkpt lat="-24.7288010" lon="-53.7474990">
        <ele>571.3</ele>
        <time>2018-09-14T16:20:10Z</time>
      </trkpt>
      <trkpt lat="-24.7288040" lon="-53.7474160">
        <ele>570.9</ele>
        <time>2018-09-14T16:20:11Z</time>
      </trkpt>
      <trkpt lat="-24.7288030" lon="-53.7473360">
        <ele>570.6</ele>
        <time>2018-09-14T16:20:12Z</time>
      </trkpt>
      <trkpt lat="-24.7288020" lon="-53.7472580">
        <ele>570.3</ele>
        <time>2018-09-14T16:20:13Z</time>
      </trkpt>
      <trkpt lat="-24.7287990" lon="-53.7471880">
        <ele>570.0</ele>
        <time>2018-09-14T16:20:14Z</time>
      </trkpt>
      <trkpt lat="-24.7287930" lon="-53.7471230">
        <ele>569.8</ele>
        <time>2018-09-14T16:20:15Z</time>
      </trkpt>
      <trkpt lat="-24.7287850" lon="-53.7470640">
        <ele>569.5</ele>
        <time>2018-09-14T16:20:16Z</time>
      </trkpt>
      <trkpt lat="-24.7287770" lon="-53.7470100">
        <ele>569.2</ele>
        <time>2018-09-14T16:20:17Z</time>
      </trkpt>
      <trkpt lat="-24.7287650" lon="-53.7469690">
        <ele>569.0</ele>
        <time>2018-09-14T16:20:18Z</time>
      </trkpt>
      <trkpt lat="-24.7287560" lon="-53.7469390">
        <ele>568.9</ele>
        <time>2018-09-14T16:20:19Z</time>
      </trkpt>
      <trkpt lat="-24.7287440" lon="-53.7469150">
        <ele>568.7</ele>
        <time>2018-09-14T16:20:20Z</time>
      </trkpt>
      <trkpt lat="-24.7287240" lon="-53.7469000">
        <ele>568.6</ele>
        <time>2018-09-14T16:20:21Z</time>
      </trkpt>
      <trkpt lat="-24.7287000" lon="-53.7468890">
        <ele>568.5</ele>
        <time>2018-09-14T16:20:22Z</time>
      </trkpt>
      <trkpt lat="-24.7286650" lon="-53.7468840">
        <ele>568.2</ele>
        <time>2018-09-14T16:20:23Z</time>
      </trkpt>
      <trkpt lat="-24.7286330" lon="-53.7468810">
        <ele>568.3</ele>
        <time>2018-09-14T16:20:24Z</time>
      </trkpt>
      <trkpt lat="-24.7285960" lon="-53.7468770">
        <ele>568.4</ele>
        <time>2018-09-14T16:20:25Z</time>
      </trkpt>
      <trkpt lat="-24.7285650" lon="-53.7468700">
        <ele>568.4</ele>
        <time>2018-09-14T16:20:26Z</time>
      </trkpt>
      <trkpt lat="-24.7285380" lon="-53.7468500">
        <ele>568.5</ele>
        <time>2018-09-14T16:20:27Z</time>
      </trkpt>
      <trkpt lat="-24.7285080" lon="-53.7468360">
        <ele>568.6</ele>
        <time>2018-09-14T16:20:28Z</time>
      </trkpt>
      <trkpt lat="-24.7284700" lon="-53.7468200">
        <ele>568.7</ele>
        <time>2018-09-14T16:20:29Z</time>
      </trkpt>
      <trkpt lat="-24.7284280" lon="-53.7468100">
        <ele>568.7</ele>
        <time>2018-09-14T16:20:30Z</time>
      </trkpt>
      <trkpt lat="-24.7283750" lon="-53.7468250">
        <ele>568.8</ele>
        <time>2018-09-14T16:20:31Z</time>
      </trkpt>
      <trkpt lat="-24.7283380" lon="-53.7468180">
        <ele>568.9</ele>
        <time>2018-09-14T16:20:32Z</time>
      </trkpt>
      <trkpt lat="-24.7283040" lon="-53.7468050">
        <ele>569.0</ele>
        <time>2018-09-14T16:20:33Z</time>
      </trkpt>
      <trkpt lat="-24.7282550" lon="-53.7468090">
        <ele>569.1</ele>
        <time>2018-09-14T16:20:34Z</time>
      </trkpt>
      <trkpt lat="-24.7282100" lon="-53.7468070">
        <ele>569.2</ele>
        <time>2018-09-14T16:20:35Z</time>
      </trkpt>
      <trkpt lat="-24.7281590" lon="-53.7468220">
        <ele>569.3</ele>
        <time>2018-09-14T16:20:36Z</time>
      </trkpt>
      <trkpt lat="-24.7281220" lon="-53.7468120">
        <ele>569.3</ele>
        <time>2018-09-14T16:20:37Z</time>
      </trkpt>
      <trkpt lat="-24.7280770" lon="-53.7468170">
        <ele>569.4</ele>
        <time>2018-09-14T16:20:38Z</time>
      </trkpt>
      <trkpt lat="-24.7280370" lon="-53.7468140">
        <ele>569.5</ele>
        <time>2018-09-14T16:20:39Z</time>
      </trkpt>
      <trkpt lat="-24.7279930" lon="-53.7468160">
        <ele>569.5</ele>
        <time>2018-09-14T16:20:40Z</time>
      </trkpt>
      <trkpt lat="-24.7279580" lon="-53.7468150">
        <ele>569.6</ele>
        <time>2018-09-14T16:20:41Z</time>
      </trkpt>
      <trkpt lat="-24.7279180" lon="-53.7468290">
        <ele>569.7</ele>
        <time>2018-09-14T16:20:42Z</time>
      </trkpt>
      <trkpt lat="-24.7278820" lon="-53.7468400">
        <ele>569.7</ele>
        <time>2018-09-14T16:20:43Z</time>
      </trkpt>
      <trkpt lat="-24.7278520" lon="-53.7468400">
        <ele>569.8</ele>
        <time>2018-09-14T16:20:44Z</time>
      </trkpt>
      <trkpt lat="-24.7278270" lon="-53.7468180">
        <ele>569.8</ele>
        <time>2018-09-14T16:20:45Z</time>
      </trkpt>
      <trkpt lat="-24.7277900" lon="-53.7468110">
        <ele>569.9</ele>
        <time>2018-09-14T16:20:46Z</time>
      </trkpt>
      <trkpt lat="-24.7277390" lon="-53.7468210">
        <ele>570.0</ele>
        <time>2018-09-14T16:20:47Z</time>
      </trkpt>
      <trkpt lat="-24.7277100" lon="-53.7468030">
        <ele>570.0</ele>
        <time>2018-09-14T16:20:48Z</time>
      </trkpt>
      <trkpt lat="-24.7276720" lon="-53.7467980">
        <ele>570.1</ele>
        <time>2018-09-14T16:20:49Z</time>
      </trkpt>
      <trkpt lat="-24.7276380" lon="-53.7467860">
        <ele>570.1</ele>
        <time>2018-09-14T16:20:50Z</time>
      </trkpt>
      <trkpt lat="-24.7276280" lon="-53.7467430">
        <ele>570.2</ele>
        <time>2018-09-14T16:20:51Z</time>
      </trkpt>
      <trkpt lat="-24.7276230" lon="-53.7467030">
        <ele>570.3</ele>
        <time>2018-09-14T16:20:52Z</time>
      </trkpt>
      <trkpt lat="-24.7276200" lon="-53.7466540">
        <ele>570.4</ele>
        <time>2018-09-14T16:20:53Z</time>
      </trkpt>
      <trkpt lat="-24.7276180" lon="-53.7465970">
        <ele>570.2</ele>
        <time>2018-09-14T16:20:54Z</time>
      </trkpt>
      <trkpt lat="-24.7276170" lon="-53.7465450">
        <ele>569.8</ele>
        <time>2018-09-14T16:20:55Z</time>
      </trkpt>
      <trkpt lat="-24.7276130" lon="-53.7464970">
        <ele>569.4</ele>
        <time>2018-09-14T16:20:56Z</time>
      </trkpt>
      <trkpt lat="-24.7276140" lon="-53.7464410">
        <ele>568.9</ele>
        <time>2018-09-14T16:20:57Z</time>
      </trkpt>
      <trkpt lat="-24.7276120" lon="-53.7463800">
        <ele>568.5</ele>
        <time>2018-09-14T16:20:58Z</time>
      </trkpt>
      <trkpt lat="-24.7276150" lon="-53.7462330">
        <ele>567.9</ele>
        <time>2018-09-14T16:20:59Z</time>
      </trkpt>
      <trkpt lat="-24.7276190" lon="-53.7461660">
        <ele>567.6</ele>
        <time>2018-09-14T16:21:01Z</time>
      </trkpt>
      <trkpt lat="-24.7276190" lon="-53.7460980">
        <ele>567.5</ele>
        <time>2018-09-14T16:21:02Z</time>
      </trkpt>
      <trkpt lat="-24.7276260" lon="-53.7460260">
        <ele>567.3</ele>
        <time>2018-09-14T16:21:03Z</time>
      </trkpt>
      <trkpt lat="-24.7276170" lon="-53.7459450">
        <ele>567.2</ele>
        <time>2018-09-14T16:21:04Z</time>
      </trkpt>
      <trkpt lat="-24.7276040" lon="-53.7458750">
        <ele>566.2</ele>
        <time>2018-09-14T16:21:05Z</time>
      </trkpt>
      <trkpt lat="-24.7275840" lon="-53.7458100">
        <ele>565.4</ele>
        <time>2018-09-14T16:21:06Z</time>
      </trkpt>
      <trkpt lat="-24.7275530" lon="-53.7457640">
        <ele>564.8</ele>
        <time>2018-09-14T16:21:07Z</time>
      </trkpt>
      <trkpt lat="-24.7274300" lon="-53.7457440">
        <ele>563.0</ele>
        <time>2018-09-14T16:21:08Z</time>
      </trkpt>
      <trkpt lat="-24.7273740" lon="-53.7457820">
        <ele>563.0</ele>
        <time>2018-09-14T16:21:09Z</time>
      </trkpt>
      <trkpt lat="-24.7273160" lon="-53.7458370">
        <ele>563.0</ele>
        <time>2018-09-14T16:21:10Z</time>
      </trkpt>
      <trkpt lat="-24.7272620" lon="-53.7458890">
        <ele>562.9</ele>
        <time>2018-09-14T16:21:11Z</time>
      </trkpt>
      <trkpt lat="-24.7272070" lon="-53.7459260">
        <ele>562.8</ele>
        <time>2018-09-14T16:21:12Z</time>
      </trkpt>
      <trkpt lat="-24.7270940" lon="-53.7459810">
        <ele>562.7</ele>
        <time>2018-09-14T16:21:14Z</time>
      </trkpt>
      <trkpt lat="-24.7270440" lon="-53.7459960">
        <ele>562.7</ele>
        <time>2018-09-14T16:21:15Z</time>
      </trkpt>
      <trkpt lat="-24.7269840" lon="-53.7460180">
        <ele>562.6</ele>
        <time>2018-09-14T16:21:16Z</time>
      </trkpt>
      <trkpt lat="-24.7269260" lon="-53.7460390">
        <ele>562.6</ele>
        <time>2018-09-14T16:21:17Z</time>
      </trkpt>
      <trkpt lat="-24.7268640" lon="-53.7460640">
        <ele>562.5</ele>
        <time>2018-09-14T16:21:18Z</time>
      </trkpt>
      <trkpt lat="-24.7268080" lon="-53.7460810">
        <ele>562.4</ele>
        <time>2018-09-14T16:21:19Z</time>
      </trkpt>
      <trkpt lat="-24.7267440" lon="-53.7461010">
        <ele>562.2</ele>
        <time>2018-09-14T16:21:20Z</time>
      </trkpt>
      <trkpt lat="-24.7266840" lon="-53.7461160">
        <ele>562.1</ele>
        <time>2018-09-14T16:21:21Z</time>
      </trkpt>
      <trkpt lat="-24.7266240" lon="-53.7461290">
        <ele>561.9</ele>
        <time>2018-09-14T16:21:22Z</time>
      </trkpt>
      <trkpt lat="-24.7265650" lon="-53.7461440">
        <ele>561.8</ele>
        <time>2018-09-14T16:21:23Z</time>
      </trkpt>
      <trkpt lat="-24.7265060" lon="-53.7461510">
        <ele>561.6</ele>
        <time>2018-09-14T16:21:24Z</time>
      </trkpt>
      <trkpt lat="-24.7264380" lon="-53.7461820">
        <ele>561.4</ele>
        <time>2018-09-14T16:21:25Z</time>
      </trkpt>
      <trkpt lat="-24.7263760" lon="-53.7462020">
        <ele>561.3</ele>
        <time>2018-09-14T16:21:26Z</time>
      </trkpt>
      <trkpt lat="-24.7263190" lon="-53.7462120">
        <ele>561.2</ele>
        <time>2018-09-14T16:21:27Z</time>
      </trkpt>
      <trkpt lat="-24.7262590" lon="-53.7462220">
        <ele>560.9</ele>
        <time>2018-09-14T16:21:28Z</time>
      </trkpt>
      <trkpt lat="-24.7262040" lon="-53.7462320">
        <ele>560.6</ele>
        <time>2018-09-14T16:21:29Z</time>
      </trkpt>
      <trkpt lat="-24.7261520" lon="-53.7462360">
        <ele>560.4</ele>
        <time>2018-09-14T16:21:30Z</time>
      </trkpt>
      <trkpt lat="-24.7260970" lon="-53.7462420">
        <ele>560.1</ele>
        <time>2018-09-14T16:21:31Z</time>
      </trkpt>
      <trkpt lat="-24.7260420" lon="-53.7462540">
        <ele>559.9</ele>
        <time>2018-09-14T16:21:32Z</time>
      </trkpt>
      <trkpt lat="-24.7259890" lon="-53.7462630">
        <ele>559.7</ele>
        <time>2018-09-14T16:21:33Z</time>
      </trkpt>
      <trkpt lat="-24.7259390" lon="-53.7462720">
        <ele>559.6</ele>
        <time>2018-09-14T16:21:34Z</time>
      </trkpt>
      <trkpt lat="-24.7258870" lon="-53.7462840">
        <ele>559.5</ele>
        <time>2018-09-14T16:21:35Z</time>
      </trkpt>
      <trkpt lat="-24.7258380" lon="-53.7462940">
        <ele>559.4</ele>
        <time>2018-09-14T16:21:36Z</time>
      </trkpt>
      <trkpt lat="-24.7257920" lon="-53.7463000">
        <ele>559.3</ele>
        <time>2018-09-14T16:21:37Z</time>
      </trkpt>
      <trkpt lat="-24.7257480" lon="-53.7463070">
        <ele>559.3</ele>
        <time>2018-09-14T16:21:38Z</time>
      </trkpt>
      <trkpt lat="-24.7257020" lon="-53.7463160">
        <ele>559.2</ele>
        <time>2018-09-14T16:21:39Z</time>
      </trkpt>
      <trkpt lat="-24.7256600" lon="-53.7463220">
        <ele>559.1</ele>
        <time>2018-09-14T16:21:40Z</time>
      </trkpt>
      <trkpt lat="-24.7256200" lon="-53.7463270">
        <ele>559.1</ele>
        <time>2018-09-14T16:21:41Z</time>
      </trkpt>
      <trkpt lat="-24.7255750" lon="-53.7463350">
        <ele>559.0</ele>
        <time>2018-09-14T16:21:42Z</time>
      </trkpt>
      <trkpt lat="-24.7255340" lon="-53.7463410">
        <ele>559.0</ele>
        <time>2018-09-14T16:21:43Z</time>
      </trkpt>
      <trkpt lat="-24.7254890" lon="-53.7463540">
        <ele>559.0</ele>
        <time>2018-09-14T16:21:44Z</time>
      </trkpt>
      <trkpt lat="-24.7254450" lon="-53.7463660">
        <ele>558.9</ele>
        <time>2018-09-14T16:21:45Z</time>
      </trkpt>
      <trkpt lat="-24.7254020" lon="-53.7463740">
        <ele>558.8</ele>
        <time>2018-09-14T16:21:46Z</time>
      </trkpt>
      <trkpt lat="-24.7253600" lon="-53.7463800">
        <ele>558.7</ele>
        <time>2018-09-14T16:21:47Z</time>
      </trkpt>
      <trkpt lat="-24.7253180" lon="-53.7463860">
        <ele>558.6</ele>
        <time>2018-09-14T16:21:48Z</time>
      </trkpt>
      <trkpt lat="-24.7252730" lon="-53.7463970">
        <ele>558.5</ele>
        <time>2018-09-14T16:21:49Z</time>
      </trkpt>
      <trkpt lat="-24.7252310" lon="-53.7464000">
        <ele>558.4</ele>
        <time>2018-09-14T16:21:50Z</time>
      </trkpt>
      <trkpt lat="-24.7251850" lon="-53.7464110">
        <ele>558.6</ele>
        <time>2018-09-14T16:21:51Z</time>
      </trkpt>
      <trkpt lat="-24.7251400" lon="-53.7464170">
        <ele>558.8</ele>
        <time>2018-09-14T16:21:52Z</time>
      </trkpt>
      <trkpt lat="-24.7250910" lon="-53.7464310">
        <ele>558.8</ele>
        <time>2018-09-14T16:21:53Z</time>
      </trkpt>
      <trkpt lat="-24.7250410" lon="-53.7464490">
        <ele>558.7</ele>
        <time>2018-09-14T16:21:54Z</time>
      </trkpt>
      <trkpt lat="-24.7249990" lon="-53.7464480">
        <ele>558.7</ele>
        <time>2018-09-14T16:21:55Z</time>
      </trkpt>
      <trkpt lat="-24.7249560" lon="-53.7464450">
        <ele>558.6</ele>
        <time>2018-09-14T16:21:56Z</time>
      </trkpt>
      <trkpt lat="-24.7249050" lon="-53.7464490">
        <ele>558.6</ele>
        <time>2018-09-14T16:21:57Z</time>
      </trkpt>
      <trkpt lat="-24.7248510" lon="-53.7464710">
        <ele>558.5</ele>
        <time>2018-09-14T16:21:58Z</time>
      </trkpt>
      <trkpt lat="-24.7248050" lon="-53.7464730">
        <ele>558.4</ele>
        <time>2018-09-14T16:21:59Z</time>
      </trkpt>
      <trkpt lat="-24.7247590" lon="-53.7464770">
        <ele>558.4</ele>
        <time>2018-09-14T16:22:00Z</time>
      </trkpt>
      <trkpt lat="-24.7247080" lon="-53.7464880">
        <ele>558.3</ele>
        <time>2018-09-14T16:22:01Z</time>
      </trkpt>
      <trkpt lat="-24.7246590" lon="-53.7464930">
        <ele>558.3</ele>
        <time>2018-09-14T16:22:02Z</time>
      </trkpt>
      <trkpt lat="-24.7246080" lon="-53.7465050">
        <ele>558.2</ele>
        <time>2018-09-14T16:22:03Z</time>
      </trkpt>
      <trkpt lat="-24.7245570" lon="-53.7465160">
        <ele>558.2</ele>
        <time>2018-09-14T16:22:04Z</time>
      </trkpt>
      <trkpt lat="-24.7245070" lon="-53.7465260">
        <ele>558.1</ele>
        <time>2018-09-14T16:22:05Z</time>
      </trkpt>
      <trkpt lat="-24.7244580" lon="-53.7465350">
        <ele>558.0</ele>
        <time>2018-09-14T16:22:06Z</time>
      </trkpt>
      <trkpt lat="-24.7244040" lon="-53.7465520">
        <ele>558.0</ele>
        <time>2018-09-14T16:22:07Z</time>
      </trkpt>
      <trkpt lat="-24.7243500" lon="-53.7465740">
        <ele>557.9</ele>
        <time>2018-09-14T16:22:08Z</time>
      </trkpt>
      <trkpt lat="-24.7243090" lon="-53.7465740">
        <ele>557.9</ele>
        <time>2018-09-14T16:22:09Z</time>
      </trkpt>
      <trkpt lat="-24.7242690" lon="-53.7465700">
        <ele>557.8</ele>
        <time>2018-09-14T16:22:10Z</time>
      </trkpt>
      <trkpt lat="-24.7242230" lon="-53.7465790">
        <ele>557.8</ele>
        <time>2018-09-14T16:22:11Z</time>
      </trkpt>
      <trkpt lat="-24.7241750" lon="-53.7465910">
        <ele>557.7</ele>
        <time>2018-09-14T16:22:12Z</time>
      </trkpt>
      <trkpt lat="-24.7241350" lon="-53.7465900">
        <ele>557.7</ele>
        <time>2018-09-14T16:22:13Z</time>
      </trkpt>
      <trkpt lat="-24.7240850" lon="-53.7466090">
        <ele>557.6</ele>
        <time>2018-09-14T16:22:14Z</time>
      </trkpt>
      <trkpt lat="-24.7240390" lon="-53.7466220">
        <ele>557.5</ele>
        <time>2018-09-14T16:22:15Z</time>
      </trkpt>
      <trkpt lat="-24.7239920" lon="-53.7466380">
        <ele>557.5</ele>
        <time>2018-09-14T16:22:16Z</time>
      </trkpt>
      <trkpt lat="-24.7239470" lon="-53.7466490">
        <ele>557.4</ele>
        <time>2018-09-14T16:22:17Z</time>
      </trkpt>
      <trkpt lat="-24.7239050" lon="-53.7466560">
        <ele>557.4</ele>
        <time>2018-09-14T16:22:18Z</time>
      </trkpt>
      <trkpt lat="-24.7238670" lon="-53.7466560">
        <ele>557.3</ele>
        <time>2018-09-14T16:22:19Z</time>
      </trkpt>
      <trkpt lat="-24.7238270" lon="-53.7466560">
        <ele>557.3</ele>
        <time>2018-09-14T16:22:20Z</time>
      </trkpt>
      <trkpt lat="-24.7237870" lon="-53.7466540">
        <ele>557.2</ele>
        <time>2018-09-14T16:22:21Z</time>
      </trkpt>
      <trkpt lat="-24.7237520" lon="-53.7466380">
        <ele>557.2</ele>
        <time>2018-09-14T16:22:22Z</time>
      </trkpt>
      <trkpt lat="-24.7237160" lon="-53.7466150">
        <ele>557.2</ele>
        <time>2018-09-14T16:22:23Z</time>
      </trkpt>
      <trkpt lat="-24.7236760" lon="-53.7465850">
        <ele>557.1</ele>
        <time>2018-09-14T16:22:24Z</time>
      </trkpt>
      <trkpt lat="-24.7236410" lon="-53.7465390">
        <ele>557.0</ele>
        <time>2018-09-14T16:22:25Z</time>
      </trkpt>
      <trkpt lat="-24.7236040" lon="-53.7465100">
        <ele>557.0</ele>
        <time>2018-09-14T16:22:26Z</time>
      </trkpt>
      <trkpt lat="-24.7235710" lon="-53.7464670">
        <ele>556.9</ele>
        <time>2018-09-14T16:22:27Z</time>
      </trkpt>
      <trkpt lat="-24.7235340" lon="-53.7464240">
        <ele>556.9</ele>
        <time>2018-09-14T16:22:28Z</time>
      </trkpt>
      <trkpt lat="-24.7234860" lon="-53.7463920">
        <ele>556.8</ele>
        <time>2018-09-14T16:22:29Z</time>
      </trkpt>
      <trkpt lat="-24.7234400" lon="-53.7463650">
        <ele>556.7</ele>
        <time>2018-09-14T16:22:30Z</time>
      </trkpt>
      <trkpt lat="-24.7234040" lon="-53.7463280">
        <ele>554.4</ele>
        <time>2018-09-14T16:22:31Z</time>
      </trkpt>
      <trkpt lat="-24.7233860" lon="-53.7462770">
        <ele>552.7</ele>
        <time>2018-09-14T16:22:32Z</time>
      </trkpt>
      <trkpt lat="-24.7233700" lon="-53.7462250">
        <ele>552.5</ele>
        <time>2018-09-14T16:22:33Z</time>
      </trkpt>
      <trkpt lat="-24.7233530" lon="-53.7461720">
        <ele>552.3</ele>
        <time>2018-09-14T16:22:34Z</time>
      </trkpt>
      <trkpt lat="-24.7233280" lon="-53.7461230">
        <ele>552.2</ele>
        <time>2018-09-14T16:22:35Z</time>
      </trkpt>
      <trkpt lat="-24.7232960" lon="-53.7460800">
        <ele>552.0</ele>
        <time>2018-09-14T16:22:36Z</time>
      </trkpt>
      <trkpt lat="-24.7232580" lon="-53.7460410">
        <ele>551.8</ele>
        <time>2018-09-14T16:22:37Z</time>
      </trkpt>
      <trkpt lat="-24.7232170" lon="-53.7460080">
        <ele>551.7</ele>
        <time>2018-09-14T16:22:38Z</time>
      </trkpt>
      <trkpt lat="-24.7231740" lon="-53.7459800">
        <ele>551.6</ele>
        <time>2018-09-14T16:22:39Z</time>
      </trkpt>
      <trkpt lat="-24.7231290" lon="-53.7459580">
        <ele>551.5</ele>
        <time>2018-09-14T16:22:40Z</time>
      </trkpt>
      <trkpt lat="-24.7230850" lon="-53.7459350">
        <ele>551.4</ele>
        <time>2018-09-14T16:22:41Z</time>
      </trkpt>
      <trkpt lat="-24.7230450" lon="-53.7459100">
        <ele>551.2</ele>
        <time>2018-09-14T16:22:42Z</time>
      </trkpt>
      <trkpt lat="-24.7230040" lon="-53.7458880">
        <ele>551.0</ele>
        <time>2018-09-14T16:22:43Z</time>
      </trkpt>
      <trkpt lat="-24.7229670" lon="-53.7458620">
        <ele>550.9</ele>
        <time>2018-09-14T16:22:44Z</time>
      </trkpt>
      <trkpt lat="-24.7229270" lon="-53.7458420">
        <ele>550.7</ele>
        <time>2018-09-14T16:22:45Z</time>
      </trkpt>
      <trkpt lat="-24.7228910" lon="-53.7458190">
        <ele>550.6</ele>
        <time>2018-09-14T16:22:46Z</time>
      </trkpt>
      <trkpt lat="-24.7228460" lon="-53.7458090">
        <ele>550.5</ele>
        <time>2018-09-14T16:22:47Z</time>
      </trkpt>
      <trkpt lat="-24.7228110" lon="-53.7457880">
        <ele>550.4</ele>
        <time>2018-09-14T16:22:48Z</time>
      </trkpt>
      <trkpt lat="-24.7227730" lon="-53.7457790">
        <ele>550.3</ele>
        <time>2018-09-14T16:22:49Z</time>
      </trkpt>
      <trkpt lat="-24.7227350" lon="-53.7457720">
        <ele>550.3</ele>
        <time>2018-09-14T16:22:50Z</time>
      </trkpt>
      <trkpt lat="-24.7226970" lon="-53.7457680">
        <ele>550.1</ele>
        <time>2018-09-14T16:22:51Z</time>
      </trkpt>
      <trkpt lat="-24.7226590" lon="-53.7457690">
        <ele>550.0</ele>
        <time>2018-09-14T16:22:52Z</time>
      </trkpt>
      <trkpt lat="-24.7226250" lon="-53.7457690">
        <ele>549.8</ele>
        <time>2018-09-14T16:22:53Z</time>
      </trkpt>
      <trkpt lat="-24.7225880" lon="-53.7457800">
        <ele>549.7</ele>
        <time>2018-09-14T16:22:54Z</time>
      </trkpt>
      <trkpt lat="-24.7225510" lon="-53.7457900">
        <ele>549.6</ele>
        <time>2018-09-14T16:22:55Z</time>
      </trkpt>
      <trkpt lat="-24.7225170" lon="-53.7457980">
        <ele>549.5</ele>
        <time>2018-09-14T16:22:56Z</time>
      </trkpt>
      <trkpt lat="-24.7224820" lon="-53.7458040">
        <ele>549.4</ele>
        <time>2018-09-14T16:22:57Z</time>
      </trkpt>
      <trkpt lat="-24.7224460" lon="-53.7458130">
        <ele>549.3</ele>
        <time>2018-09-14T16:22:58Z</time>
      </trkpt>
      <trkpt lat="-24.7224100" lon="-53.7458180">
        <ele>549.3</ele>
        <time>2018-09-14T16:22:59Z</time>
      </trkpt>
      <trkpt lat="-24.7223700" lon="-53.7458170">
        <ele>549.2</ele>
        <time>2018-09-14T16:23:00Z</time>
      </trkpt>
      <trkpt lat="-24.7223310" lon="-53.7458110">
        <ele>549.1</ele>
        <time>2018-09-14T16:23:01Z</time>
      </trkpt>
      <trkpt lat="-24.7222900" lon="-53.7458020">
        <ele>549.1</ele>
        <time>2018-09-14T16:23:02Z</time>
      </trkpt>
      <trkpt lat="-24.7222530" lon="-53.7458020">
        <ele>549.3</ele>
        <time>2018-09-14T16:23:03Z</time>
      </trkpt>
      <trkpt lat="-24.7222150" lon="-53.7458150">
        <ele>549.5</ele>
        <time>2018-09-14T16:23:04Z</time>
      </trkpt>
      <trkpt lat="-24.7221760" lon="-53.7458280">
        <ele>549.7</ele>
        <time>2018-09-14T16:23:05Z</time>
      </trkpt>
      <trkpt lat="-24.7221390" lon="-53.7458440">
        <ele>549.9</ele>
        <time>2018-09-14T16:23:06Z</time>
      </trkpt>
      <trkpt lat="-24.7221030" lon="-53.7458600">
        <ele>550.1</ele>
        <time>2018-09-14T16:23:07Z</time>
      </trkpt>
      <trkpt lat="-24.7220620" lon="-53.7458730">
        <ele>550.4</ele>
        <time>2018-09-14T16:23:08Z</time>
      </trkpt>
      <trkpt lat="-24.7220210" lon="-53.7458860">
        <ele>550.8</ele>
        <time>2018-09-14T16:23:09Z</time>
      </trkpt>
      <trkpt lat="-24.7219800" lon="-53.7459000">
        <ele>551.0</ele>
        <time>2018-09-14T16:23:10Z</time>
      </trkpt>
      <trkpt lat="-24.7219410" lon="-53.7459150">
        <ele>551.2</ele>
        <time>2018-09-14T16:23:11Z</time>
      </trkpt>
      <trkpt lat="-24.7219000" lon="-53.7459310">
        <ele>551.4</ele>
        <time>2018-09-14T16:23:12Z</time>
      </trkpt>
      <trkpt lat="-24.7218610" lon="-53.7459490">
        <ele>551.6</ele>
        <time>2018-09-14T16:23:13Z</time>
      </trkpt>
      <trkpt lat="-24.7218230" lon="-53.7459690">
        <ele>551.7</ele>
        <time>2018-09-14T16:23:14Z</time>
      </trkpt>
      <trkpt lat="-24.7217860" lon="-53.7459890">
        <ele>551.9</ele>
        <time>2018-09-14T16:23:15Z</time>
      </trkpt>
      <trkpt lat="-24.7217500" lon="-53.7460130">
        <ele>552.1</ele>
        <time>2018-09-14T16:23:16Z</time>
      </trkpt>
      <trkpt lat="-24.7217160" lon="-53.7460380">
        <ele>552.2</ele>
        <time>2018-09-14T16:23:17Z</time>
      </trkpt>
      <trkpt lat="-24.7216830" lon="-53.7460640">
        <ele>552.4</ele>
        <time>2018-09-14T16:23:18Z</time>
      </trkpt>
      <trkpt lat="-24.7216510" lon="-53.7460890">
        <ele>552.5</ele>
        <time>2018-09-14T16:23:19Z</time>
      </trkpt>
      <trkpt lat="-24.7216200" lon="-53.7461100">
        <ele>552.6</ele>
        <time>2018-09-14T16:23:20Z</time>
      </trkpt>
      <trkpt lat="-24.7215910" lon="-53.7461290">
        <ele>552.8</ele>
        <time>2018-09-14T16:23:21Z</time>
      </trkpt>
      <trkpt lat="-24.7215650" lon="-53.7461470">
        <ele>552.9</ele>
        <time>2018-09-14T16:23:22Z</time>
      </trkpt>
      <trkpt lat="-24.7215370" lon="-53.7461610">
        <ele>553.0</ele>
        <time>2018-09-14T16:23:23Z</time>
      </trkpt>
      <trkpt lat="-24.7215090" lon="-53.7461650">
        <ele>553.1</ele>
        <time>2018-09-14T16:23:24Z</time>
      </trkpt>
      <trkpt lat="-24.7214830" lon="-53.7461640">
        <ele>553.3</ele>
        <time>2018-09-14T16:23:25Z</time>
      </trkpt>
      <trkpt lat="-24.7214590" lon="-53.7461600">
        <ele>553.4</ele>
        <time>2018-09-14T16:23:26Z</time>
      </trkpt>
      <trkpt lat="-24.7214360" lon="-53.7461580">
        <ele>552.8</ele>
        <time>2018-09-14T16:23:27Z</time>
      </trkpt>
      <trkpt lat="-24.7214060" lon="-53.7461720">
        <ele>552.4</ele>
        <time>2018-09-14T16:23:28Z</time>
      </trkpt>
      <trkpt lat="-24.7213770" lon="-53.7461830">
        <ele>552.3</ele>
        <time>2018-09-14T16:23:29Z</time>
      </trkpt>
      <trkpt lat="-24.7213480" lon="-53.7461920">
        <ele>552.3</ele>
        <time>2018-09-14T16:23:30Z</time>
      </trkpt>
      <trkpt lat="-24.7213180" lon="-53.7462040">
        <ele>552.0</ele>
        <time>2018-09-14T16:23:31Z</time>
      </trkpt>
      <trkpt lat="-24.7212850" lon="-53.7462130">
        <ele>552.0</ele>
        <time>2018-09-14T16:23:32Z</time>
      </trkpt>
      <trkpt lat="-24.7212520" lon="-53.7462230">
        <ele>551.9</ele>
        <time>2018-09-14T16:23:33Z</time>
      </trkpt>
      <trkpt lat="-24.7212520" lon="-53.7462230">
        <ele>551.9</ele>
        <time>2018-09-14T16:23:34Z</time>
      </trkpt>
      <trkpt lat="-24.7212210" lon="-53.7462340">
        <ele>551.9</ele>
        <time>2018-09-14T16:23:35Z</time>
      </trkpt>
      <trkpt lat="-24.7211630" lon="-53.7462660">
        <ele>551.9</ele>
        <time>2018-09-14T16:23:36Z</time>
      </trkpt>
      <trkpt lat="-24.7211250" lon="-53.7462770">
        <ele>551.8</ele>
        <time>2018-09-14T16:23:37Z</time>
      </trkpt>
      <trkpt lat="-24.7211250" lon="-53.7462770">
        <ele>551.8</ele>
        <time>2018-09-14T16:23:38Z</time>
      </trkpt>
      <trkpt lat="-24.7210930" lon="-53.7462930">
        <ele>551.8</ele>
        <time>2018-09-14T16:23:39Z</time>
      </trkpt>
      <trkpt lat="-24.7210610" lon="-53.7463130">
        <ele>551.7</ele>
        <time>2018-09-14T16:23:40Z</time>
      </trkpt>
      <trkpt lat="-24.7210310" lon="-53.7463380">
        <ele>551.7</ele>
        <time>2018-09-14T16:23:41Z</time>
      </trkpt>
      <trkpt lat="-24.7209990" lon="-53.7463560">
        <ele>551.7</ele>
        <time>2018-09-14T16:23:42Z</time>
      </trkpt>
      <trkpt lat="-24.7209660" lon="-53.7463760">
        <ele>551.7</ele>
        <time>2018-09-14T16:23:43Z</time>
      </trkpt>
      <trkpt lat="-24.7209320" lon="-53.7463960">
        <ele>551.7</ele>
        <time>2018-09-14T16:23:44Z</time>
      </trkpt>
      <trkpt lat="-24.7209010" lon="-53.7464210">
        <ele>551.6</ele>
        <time>2018-09-14T16:23:45Z</time>
      </trkpt>
      <trkpt lat="-24.7208690" lon="-53.7464500">
        <ele>551.6</ele>
        <time>2018-09-14T16:23:46Z</time>
      </trkpt>
      <trkpt lat="-24.7208350" lon="-53.7464670">
        <ele>551.6</ele>
        <time>2018-09-14T16:23:47Z</time>
      </trkpt>
      <trkpt lat="-24.7208010" lon="-53.7464890">
        <ele>551.6</ele>
        <time>2018-09-14T16:23:48Z</time>
      </trkpt>
      <trkpt lat="-24.7207690" lon="-53.7465130">
        <ele>551.6</ele>
        <time>2018-09-14T16:23:49Z</time>
      </trkpt>
      <trkpt lat="-24.7207330" lon="-53.7465310">
        <ele>551.6</ele>
        <time>2018-09-14T16:23:50Z</time>
      </trkpt>
      <trkpt lat="-24.7207000" lon="-53.7465520">
        <ele>551.6</ele>
        <time>2018-09-14T16:23:51Z</time>
      </trkpt>
      <trkpt lat="-24.7206700" lon="-53.7465760">
        <ele>551.6</ele>
        <time>2018-09-14T16:23:52Z</time>
      </trkpt>
      <trkpt lat="-24.7206340" lon="-53.7465970">
        <ele>551.6</ele>
        <time>2018-09-14T16:23:53Z</time>
      </trkpt>
      <trkpt lat="-24.7206000" lon="-53.7466170">
        <ele>551.6</ele>
        <time>2018-09-14T16:23:54Z</time>
      </trkpt>
      <trkpt lat="-24.7205620" lon="-53.7466310">
        <ele>551.6</ele>
        <time>2018-09-14T16:23:55Z</time>
      </trkpt>
      <trkpt lat="-24.7205250" lon="-53.7466460">
        <ele>551.6</ele>
        <time>2018-09-14T16:23:56Z</time>
      </trkpt>
      <trkpt lat="-24.7204900" lon="-53.7466670">
        <ele>551.6</ele>
        <time>2018-09-14T16:23:57Z</time>
      </trkpt>
      <trkpt lat="-24.7204550" lon="-53.7466870">
        <ele>551.6</ele>
        <time>2018-09-14T16:23:58Z</time>
      </trkpt>
      <trkpt lat="-24.7204210" lon="-53.7467100">
        <ele>551.6</ele>
        <time>2018-09-14T16:23:59Z</time>
      </trkpt>
      <trkpt lat="-24.7203890" lon="-53.7467390">
        <ele>551.6</ele>
        <time>2018-09-14T16:24:00Z</time>
      </trkpt>
      <trkpt lat="-24.7203580" lon="-53.7467630">
        <ele>551.6</ele>
        <time>2018-09-14T16:24:01Z</time>
      </trkpt>
      <trkpt lat="-24.7203270" lon="-53.7467890">
        <ele>551.6</ele>
        <time>2018-09-14T16:24:02Z</time>
      </trkpt>
      <trkpt lat="-24.7202950" lon="-53.7468120">
        <ele>551.6</ele>
        <time>2018-09-14T16:24:03Z</time>
      </trkpt>
      <trkpt lat="-24.7202630" lon="-53.7468310">
        <ele>551.7</ele>
        <time>2018-09-14T16:24:04Z</time>
      </trkpt>
      <trkpt lat="-24.7202330" lon="-53.7468530">
        <ele>551.7</ele>
        <time>2018-09-14T16:24:05Z</time>
      </trkpt>
      <trkpt lat="-24.7202050" lon="-53.7468730">
        <ele>551.7</ele>
        <time>2018-09-14T16:24:06Z</time>
      </trkpt>
      <trkpt lat="-24.7201820" lon="-53.7468890">
        <ele>551.7</ele>
        <time>2018-09-14T16:24:07Z</time>
      </trkpt>
      <trkpt lat="-24.7201570" lon="-53.7468960">
        <ele>551.7</ele>
        <time>2018-09-14T16:24:08Z</time>
      </trkpt>
      <trkpt lat="-24.7201260" lon="-53.7468940">
        <ele>551.8</ele>
        <time>2018-09-14T16:24:09Z</time>
      </trkpt>
      <trkpt lat="-24.7201020" lon="-53.7468790">
        <ele>551.8</ele>
        <time>2018-09-14T16:24:10Z</time>
      </trkpt>
      <trkpt lat="-24.7200850" lon="-53.7468690">
        <ele>551.8</ele>
        <time>2018-09-14T16:24:11Z</time>
      </trkpt>
      <trkpt lat="-24.7200660" lon="-53.7468550">
        <ele>551.8</ele>
        <time>2018-09-14T16:24:12Z</time>
      </trkpt>
      <trkpt lat="-24.7200460" lon="-53.7468320">
        <ele>550.9</ele>
        <time>2018-09-14T16:24:13Z</time>
      </trkpt>
      <trkpt lat="-24.7200300" lon="-53.7468040">
        <ele>550.8</ele>
        <time>2018-09-14T16:24:14Z</time>
      </trkpt>
      <trkpt lat="-24.7200190" lon="-53.7467710">
        <ele>550.6</ele>
        <time>2018-09-14T16:24:15Z</time>
      </trkpt>
      <trkpt lat="-24.7200110" lon="-53.7467390">
        <ele>550.4</ele>
        <time>2018-09-14T16:24:16Z</time>
      </trkpt>
      <trkpt lat="-24.7200040" lon="-53.7467060">
        <ele>550.3</ele>
        <time>2018-09-14T16:24:17Z</time>
      </trkpt>
      <trkpt lat="-24.7199950" lon="-53.7466680">
        <ele>550.1</ele>
        <time>2018-09-14T16:24:18Z</time>
      </trkpt>
      <trkpt lat="-24.7199870" lon="-53.7466310">
        <ele>550.0</ele>
        <time>2018-09-14T16:24:19Z</time>
      </trkpt>
      <trkpt lat="-24.7199850" lon="-53.7465960">
        <ele>550.0</ele>
        <time>2018-09-14T16:24:20Z</time>
      </trkpt>
      <trkpt lat="-24.7199850" lon="-53.7465580">
        <ele>550.0</ele>
        <time>2018-09-14T16:24:21Z</time>
      </trkpt>
      <trkpt lat="-24.7199840" lon="-53.7465170">
        <ele>549.9</ele>
        <time>2018-09-14T16:24:22Z</time>
      </trkpt>
      <trkpt lat="-24.7199830" lon="-53.7464760">
        <ele>549.9</ele>
        <time>2018-09-14T16:24:23Z</time>
      </trkpt>
      <trkpt lat="-24.7199800" lon="-53.7464350">
        <ele>549.9</ele>
        <time>2018-09-14T16:24:24Z</time>
      </trkpt>
      <trkpt lat="-24.7199760" lon="-53.7463950">
        <ele>549.9</ele>
        <time>2018-09-14T16:24:25Z</time>
      </trkpt>
      <trkpt lat="-24.7199700" lon="-53.7463520">
        <ele>549.8</ele>
        <time>2018-09-14T16:24:26Z</time>
      </trkpt>
      <trkpt lat="-24.7199650" lon="-53.7463130">
        <ele>549.8</ele>
        <time>2018-09-14T16:24:27Z</time>
      </trkpt>
      <trkpt lat="-24.7199630" lon="-53.7462690">
        <ele>549.8</ele>
        <time>2018-09-14T16:24:28Z</time>
      </trkpt>
      <trkpt lat="-24.7199610" lon="-53.7462270">
        <ele>549.9</ele>
        <time>2018-09-14T16:24:29Z</time>
      </trkpt>
      <trkpt lat="-24.7199620" lon="-53.7461870">
        <ele>549.9</ele>
        <time>2018-09-14T16:24:30Z</time>
      </trkpt>
      <trkpt lat="-24.7199630" lon="-53.7461470">
        <ele>550.0</ele>
        <time>2018-09-14T16:24:31Z</time>
      </trkpt>
      <trkpt lat="-24.7199650" lon="-53.7461050">
        <ele>550.0</ele>
        <time>2018-09-14T16:24:32Z</time>
      </trkpt>
      <trkpt lat="-24.7199640" lon="-53.7460640">
        <ele>550.0</ele>
        <time>2018-09-14T16:24:33Z</time>
      </trkpt>
      <trkpt lat="-24.7199640" lon="-53.7460240">
        <ele>550.0</ele>
        <time>2018-09-14T16:24:34Z</time>
      </trkpt>
      <trkpt lat="-24.7199620" lon="-53.7459820">
        <ele>550.0</ele>
        <time>2018-09-14T16:24:35Z</time>
      </trkpt>
      <trkpt lat="-24.7199590" lon="-53.7459410">
        <ele>550.0</ele>
        <time>2018-09-14T16:24:36Z</time>
      </trkpt>
      <trkpt lat="-24.7199580" lon="-53.7458990">
        <ele>550.0</ele>
        <time>2018-09-14T16:24:37Z</time>
      </trkpt>
      <trkpt lat="-24.7199590" lon="-53.7458590">
        <ele>549.9</ele>
        <time>2018-09-14T16:24:38Z</time>
      </trkpt>
      <trkpt lat="-24.7199600" lon="-53.7458160">
        <ele>549.9</ele>
        <time>2018-09-14T16:24:39Z</time>
      </trkpt>
      <trkpt lat="-24.7199600" lon="-53.7457770">
        <ele>549.9</ele>
        <time>2018-09-14T16:24:40Z</time>
      </trkpt>
      <trkpt lat="-24.7199590" lon="-53.7457350">
        <ele>549.9</ele>
        <time>2018-09-14T16:24:41Z</time>
      </trkpt>
      <trkpt lat="-24.7199580" lon="-53.7456940">
        <ele>549.9</ele>
        <time>2018-09-14T16:24:42Z</time>
      </trkpt>
      <trkpt lat="-24.7199570" lon="-53.7456530">
        <ele>549.9</ele>
        <time>2018-09-14T16:24:43Z</time>
      </trkpt>
      <trkpt lat="-24.7199580" lon="-53.7456120">
        <ele>549.9</ele>
        <time>2018-09-14T16:24:44Z</time>
      </trkpt>
      <trkpt lat="-24.7199570" lon="-53.7455720">
        <ele>549.9</ele>
        <time>2018-09-14T16:24:45Z</time>
      </trkpt>
      <trkpt lat="-24.7199570" lon="-53.7455330">
        <ele>549.9</ele>
        <time>2018-09-14T16:24:46Z</time>
      </trkpt>
      <trkpt lat="-24.7199570" lon="-53.7454950">
        <ele>549.9</ele>
        <time>2018-09-14T16:24:47Z</time>
      </trkpt>
      <trkpt lat="-24.7199560" lon="-53.7454550">
        <ele>549.9</ele>
        <time>2018-09-14T16:24:48Z</time>
      </trkpt>
      <trkpt lat="-24.7199560" lon="-53.7454170">
        <ele>549.9</ele>
        <time>2018-09-14T16:24:49Z</time>
      </trkpt>
      <trkpt lat="-24.7199570" lon="-53.7453770">
        <ele>550.0</ele>
        <time>2018-09-14T16:24:50Z</time>
      </trkpt>
      <trkpt lat="-24.7199590" lon="-53.7453380">
        <ele>550.0</ele>
        <time>2018-09-14T16:24:51Z</time>
      </trkpt>
      <trkpt lat="-24.7199620" lon="-53.7453020">
        <ele>550.0</ele>
        <time>2018-09-14T16:24:52Z</time>
      </trkpt>
      <trkpt lat="-24.7199610" lon="-53.7452610">
        <ele>550.0</ele>
        <time>2018-09-14T16:24:53Z</time>
      </trkpt>
      <trkpt lat="-24.7199610" lon="-53.7452190">
        <ele>550.0</ele>
        <time>2018-09-14T16:24:54Z</time>
      </trkpt>
      <trkpt lat="-24.7199610" lon="-53.7451780">
        <ele>549.9</ele>
        <time>2018-09-14T16:24:55Z</time>
      </trkpt>
      <trkpt lat="-24.7199610" lon="-53.7451380">
        <ele>549.9</ele>
        <time>2018-09-14T16:24:56Z</time>
      </trkpt>
      <trkpt lat="-24.7199600" lon="-53.7450990">
        <ele>549.9</ele>
        <time>2018-09-14T16:24:57Z</time>
      </trkpt>
      <trkpt lat="-24.7199590" lon="-53.7450590">
        <ele>549.9</ele>
        <time>2018-09-14T16:24:58Z</time>
      </trkpt>
      <trkpt lat="-24.7199610" lon="-53.7449770">
        <ele>549.8</ele>
        <time>2018-09-14T16:24:59Z</time>
      </trkpt>
      <trkpt lat="-24.7199610" lon="-53.7449360">
        <ele>549.8</ele>
        <time>2018-09-14T16:25:01Z</time>
      </trkpt>
      <trkpt lat="-24.7199620" lon="-53.7448940">
        <ele>549.7</ele>
        <time>2018-09-14T16:25:02Z</time>
      </trkpt>
      <trkpt lat="-24.7199630" lon="-53.7448550">
        <ele>549.7</ele>
        <time>2018-09-14T16:25:03Z</time>
      </trkpt>
      <trkpt lat="-24.7199610" lon="-53.7448130">
        <ele>549.6</ele>
        <time>2018-09-14T16:25:04Z</time>
      </trkpt>
      <trkpt lat="-24.7199610" lon="-53.7447720">
        <ele>549.5</ele>
        <time>2018-09-14T16:25:05Z</time>
      </trkpt>
      <trkpt lat="-24.7199600" lon="-53.7446900">
        <ele>549.4</ele>
        <time>2018-09-14T16:25:06Z</time>
      </trkpt>
      <trkpt lat="-24.7199600" lon="-53.7446490">
        <ele>549.3</ele>
        <time>2018-09-14T16:25:07Z</time>
      </trkpt>
      <trkpt lat="-24.7199630" lon="-53.7445660">
        <ele>549.1</ele>
        <time>2018-09-14T16:25:09Z</time>
      </trkpt>
      <trkpt lat="-24.7199650" lon="-53.7445320">
        <ele>549.0</ele>
        <time>2018-09-14T16:25:10Z</time>
      </trkpt>
      <trkpt lat="-24.7199660" lon="-53.7445080">
        <ele>549.0</ele>
        <time>2018-09-14T16:25:11Z</time>
      </trkpt>
      <trkpt lat="-24.7199670" lon="-53.7444890">
        <ele>549.0</ele>
        <time>2018-09-14T16:25:12Z</time>
      </trkpt>
      <trkpt lat="-24.7199680" lon="-53.7444710">
        <ele>549.0</ele>
        <time>2018-09-14T16:25:13Z</time>
      </trkpt>
      <trkpt lat="-24.7199700" lon="-53.7444520">
        <ele>549.0</ele>
        <time>2018-09-14T16:25:14Z</time>
      </trkpt>
      <trkpt lat="-24.7199730" lon="-53.7444310">
        <ele>549.0</ele>
        <time>2018-09-14T16:25:15Z</time>
      </trkpt>
      <trkpt lat="-24.7199750" lon="-53.7444080">
        <ele>549.0</ele>
        <time>2018-09-14T16:25:16Z</time>
      </trkpt>
      <trkpt lat="-24.7199760" lon="-53.7443830">
        <ele>549.0</ele>
        <time>2018-09-14T16:25:17Z</time>
      </trkpt>
      <trkpt lat="-24.7199770" lon="-53.7443550">
        <ele>549.0</ele>
        <time>2018-09-14T16:25:18Z</time>
      </trkpt>
      <trkpt lat="-24.7199780" lon="-53.7443290">
        <ele>549.1</ele>
        <time>2018-09-14T16:25:19Z</time>
      </trkpt>
      <trkpt lat="-24.7199780" lon="-53.7443000">
        <ele>549.1</ele>
        <time>2018-09-14T16:25:20Z</time>
      </trkpt>
      <trkpt lat="-24.7199790" lon="-53.7442710">
        <ele>549.2</ele>
        <time>2018-09-14T16:25:21Z</time>
      </trkpt>
      <trkpt lat="-24.7199800" lon="-53.7442430">
        <ele>549.3</ele>
        <time>2018-09-14T16:25:22Z</time>
      </trkpt>
      <trkpt lat="-24.7199810" lon="-53.7442140">
        <ele>549.4</ele>
        <time>2018-09-14T16:25:23Z</time>
      </trkpt>
      <trkpt lat="-24.7199810" lon="-53.7441810">
        <ele>549.5</ele>
        <time>2018-09-14T16:25:24Z</time>
      </trkpt>
      <trkpt lat="-24.7199810" lon="-53.7441470">
        <ele>549.6</ele>
        <time>2018-09-14T16:25:25Z</time>
      </trkpt>
      <trkpt lat="-24.7199790" lon="-53.7441130">
        <ele>549.7</ele>
        <time>2018-09-14T16:25:26Z</time>
      </trkpt>
      <trkpt lat="-24.7199770" lon="-53.7440780">
        <ele>549.8</ele>
        <time>2018-09-14T16:25:27Z</time>
      </trkpt>
      <trkpt lat="-24.7199760" lon="-53.7440080">
        <ele>550.2</ele>
        <time>2018-09-14T16:25:29Z</time>
      </trkpt>
      <trkpt lat="-24.7199750" lon="-53.7439730">
        <ele>550.4</ele>
        <time>2018-09-14T16:25:30Z</time>
      </trkpt>
      <trkpt lat="-24.7199730" lon="-53.7439390">
        <ele>550.6</ele>
        <time>2018-09-14T16:25:31Z</time>
      </trkpt>
      <trkpt lat="-24.7199710" lon="-53.7439060">
        <ele>550.8</ele>
        <time>2018-09-14T16:25:32Z</time>
      </trkpt>
      <trkpt lat="-24.7199690" lon="-53.7438720">
        <ele>551.0</ele>
        <time>2018-09-14T16:25:33Z</time>
      </trkpt>
      <trkpt lat="-24.7199690" lon="-53.7438390">
        <ele>551.2</ele>
        <time>2018-09-14T16:25:34Z</time>
      </trkpt>
      <trkpt lat="-24.7199700" lon="-53.7438090">
        <ele>551.5</ele>
        <time>2018-09-14T16:25:35Z</time>
      </trkpt>
      <trkpt lat="-24.7199730" lon="-53.7437760">
        <ele>551.7</ele>
        <time>2018-09-14T16:25:36Z</time>
      </trkpt>
      <trkpt lat="-24.7199780" lon="-53.7437420">
        <ele>552.0</ele>
        <time>2018-09-14T16:25:37Z</time>
      </trkpt>
      <trkpt lat="-24.7199790" lon="-53.7437070">
        <ele>552.3</ele>
        <time>2018-09-14T16:25:38Z</time>
      </trkpt>
      <trkpt lat="-24.7199780" lon="-53.7436740">
        <ele>552.6</ele>
        <time>2018-09-14T16:25:39Z</time>
      </trkpt>
      <trkpt lat="-24.7199780" lon="-53.7436420">
        <ele>552.8</ele>
        <time>2018-09-14T16:25:40Z</time>
      </trkpt>
      <trkpt lat="-24.7199780" lon="-53.7436100">
        <ele>553.0</ele>
        <time>2018-09-14T16:25:41Z</time>
      </trkpt>
      <trkpt lat="-24.7199780" lon="-53.7435770">
        <ele>553.1</ele>
        <time>2018-09-14T16:25:42Z</time>
      </trkpt>
      <trkpt lat="-24.7199780" lon="-53.7435450">
        <ele>553.2</ele>
        <time>2018-09-14T16:25:43Z</time>
      </trkpt>
      <trkpt lat="-24.7199780" lon="-53.7435130">
        <ele>553.3</ele>
        <time>2018-09-14T16:25:44Z</time>
      </trkpt>
      <trkpt lat="-24.7199770" lon="-53.7434790">
        <ele>553.3</ele>
        <time>2018-09-14T16:25:45Z</time>
      </trkpt>
      <trkpt lat="-24.7199740" lon="-53.7434470">
        <ele>553.4</ele>
        <time>2018-09-14T16:25:46Z</time>
      </trkpt>
      <trkpt lat="-24.7199720" lon="-53.7434150">
        <ele>553.5</ele>
        <time>2018-09-14T16:25:47Z</time>
      </trkpt>
      <trkpt lat="-24.7199720" lon="-53.7433830">
        <ele>553.6</ele>
        <time>2018-09-14T16:25:48Z</time>
      </trkpt>
      <trkpt lat="-24.7199710" lon="-53.7433520">
        <ele>553.7</ele>
        <time>2018-09-14T16:25:49Z</time>
      </trkpt>
      <trkpt lat="-24.7199710" lon="-53.7433200">
        <ele>553.7</ele>
        <time>2018-09-14T16:25:50Z</time>
      </trkpt>
      <trkpt lat="-24.7199720" lon="-53.7432880">
        <ele>553.8</ele>
        <time>2018-09-14T16:25:51Z</time>
      </trkpt>
      <trkpt lat="-24.7199750" lon="-53.7432590">
        <ele>553.9</ele>
        <time>2018-09-14T16:25:52Z</time>
      </trkpt>
      <trkpt lat="-24.7199740" lon="-53.7432300">
        <ele>553.9</ele>
        <time>2018-09-14T16:25:53Z</time>
      </trkpt>
      <trkpt lat="-24.7199730" lon="-53.7432000">
        <ele>554.0</ele>
        <time>2018-09-14T16:25:54Z</time>
      </trkpt>
      <trkpt lat="-24.7199720" lon="-53.7431710">
        <ele>554.0</ele>
        <time>2018-09-14T16:25:55Z</time>
      </trkpt>
      <trkpt lat="-24.7199710" lon="-53.7431410">
        <ele>554.0</ele>
        <time>2018-09-14T16:25:56Z</time>
      </trkpt>
      <trkpt lat="-24.7199720" lon="-53.7431110">
        <ele>554.0</ele>
        <time>2018-09-14T16:25:57Z</time>
      </trkpt>
      <trkpt lat="-24.7199730" lon="-53.7430810">
        <ele>554.0</ele>
        <time>2018-09-14T16:25:58Z</time>
      </trkpt>
      <trkpt lat="-24.7199730" lon="-53.7430520">
        <ele>554.0</ele>
        <time>2018-09-14T16:25:59Z</time>
      </trkpt>
      <trkpt lat="-24.7199720" lon="-53.7430230">
        <ele>554.0</ele>
        <time>2018-09-14T16:26:00Z</time>
      </trkpt>
      <trkpt lat="-24.7199710" lon="-53.7429960">
        <ele>554.0</ele>
        <time>2018-09-14T16:26:01Z</time>
      </trkpt>
      <trkpt lat="-24.7199700" lon="-53.7429720">
        <ele>554.0</ele>
        <time>2018-09-14T16:26:02Z</time>
      </trkpt>
      <trkpt lat="-24.7199690" lon="-53.7429420">
        <ele>554.0</ele>
        <time>2018-09-14T16:26:03Z</time>
      </trkpt>
      <trkpt lat="-24.7199690" lon="-53.7429130">
        <ele>554.0</ele>
        <time>2018-09-14T16:26:04Z</time>
      </trkpt>
      <trkpt lat="-24.7199710" lon="-53.7428860">
        <ele>554.0</ele>
        <time>2018-09-14T16:26:05Z</time>
      </trkpt>
      <trkpt lat="-24.7199690" lon="-53.7428540">
        <ele>554.0</ele>
        <time>2018-09-14T16:26:06Z</time>
      </trkpt>
      <trkpt lat="-24.7199640" lon="-53.7428200">
        <ele>554.0</ele>
        <time>2018-09-14T16:26:07Z</time>
      </trkpt>
      <trkpt lat="-24.7199640" lon="-53.7427880">
        <ele>554.0</ele>
        <time>2018-09-14T16:26:08Z</time>
      </trkpt>
      <trkpt lat="-24.7199670" lon="-53.7427600">
        <ele>554.0</ele>
        <time>2018-09-14T16:26:09Z</time>
      </trkpt>
      <trkpt lat="-24.7199670" lon="-53.7427320">
        <ele>554.0</ele>
        <time>2018-09-14T16:26:10Z</time>
      </trkpt>
      <trkpt lat="-24.7199700" lon="-53.7427010">
        <ele>554.0</ele>
        <time>2018-09-14T16:26:11Z</time>
      </trkpt>
      <trkpt lat="-24.7199700" lon="-53.7426660">
        <ele>554.0</ele>
        <time>2018-09-14T16:26:12Z</time>
      </trkpt>
      <trkpt lat="-24.7199700" lon="-53.7426350">
        <ele>554.1</ele>
        <time>2018-09-14T16:26:13Z</time>
      </trkpt>
      <trkpt lat="-24.7199680" lon="-53.7426080">
        <ele>554.3</ele>
        <time>2018-09-14T16:26:14Z</time>
      </trkpt>
      <trkpt lat="-24.7199680" lon="-53.7425820">
        <ele>554.4</ele>
        <time>2018-09-14T16:26:15Z</time>
      </trkpt>
      <trkpt lat="-24.7199680" lon="-53.7425540">
        <ele>554.5</ele>
        <time>2018-09-14T16:26:16Z</time>
      </trkpt>
      <trkpt lat="-24.7199680" lon="-53.7425260">
        <ele>554.7</ele>
        <time>2018-09-14T16:26:17Z</time>
      </trkpt>
      <trkpt lat="-24.7199700" lon="-53.7424990">
        <ele>554.8</ele>
        <time>2018-09-14T16:26:18Z</time>
      </trkpt>
      <trkpt lat="-24.7199700" lon="-53.7424700">
        <ele>555.0</ele>
        <time>2018-09-14T16:26:19Z</time>
      </trkpt>
      <trkpt lat="-24.7199700" lon="-53.7424420">
        <ele>555.1</ele>
        <time>2018-09-14T16:26:20Z</time>
      </trkpt>
      <trkpt lat="-24.7199700" lon="-53.7424130">
        <ele>555.2</ele>
        <time>2018-09-14T16:26:21Z</time>
      </trkpt>
      <trkpt lat="-24.7199720" lon="-53.7423870">
        <ele>555.4</ele>
        <time>2018-09-14T16:26:22Z</time>
      </trkpt>
      <trkpt lat="-24.7199720" lon="-53.7423600">
        <ele>555.5</ele>
        <time>2018-09-14T16:26:23Z</time>
      </trkpt>
      <trkpt lat="-24.7199730" lon="-53.7423330">
        <ele>555.7</ele>
        <time>2018-09-14T16:26:24Z</time>
      </trkpt>
      <trkpt lat="-24.7199740" lon="-53.7423070">
        <ele>555.8</ele>
        <time>2018-09-14T16:26:25Z</time>
      </trkpt>
      <trkpt lat="-24.7199750" lon="-53.7422810">
        <ele>555.9</ele>
        <time>2018-09-14T16:26:26Z</time>
      </trkpt>
      <trkpt lat="-24.7199760" lon="-53.7422540">
        <ele>556.1</ele>
        <time>2018-09-14T16:26:27Z</time>
      </trkpt>
      <trkpt lat="-24.7199760" lon="-53.7422310">
        <ele>556.2</ele>
        <time>2018-09-14T16:26:28Z</time>
      </trkpt>
      <trkpt lat="-24.7199760" lon="-53.7422060">
        <ele>556.3</ele>
        <time>2018-09-14T16:26:29Z</time>
      </trkpt>
      <trkpt lat="-24.7199790" lon="-53.7421830">
        <ele>556.5</ele>
        <time>2018-09-14T16:26:30Z</time>
      </trkpt>
      <trkpt lat="-24.7199780" lon="-53.7421680">
        <ele>556.5</ele>
        <time>2018-09-14T16:26:31Z</time>
      </trkpt>
      <trkpt lat="-24.7199700" lon="-53.7421540">
        <ele>556.6</ele>
        <time>2018-09-14T16:26:32Z</time>
      </trkpt>
      <trkpt lat="-24.7199550" lon="-53.7421450">
        <ele>556.8</ele>
        <time>2018-09-14T16:26:33Z</time>
      </trkpt>
      <trkpt lat="-24.7199300" lon="-53.7421410">
        <ele>556.9</ele>
        <time>2018-09-14T16:26:34Z</time>
      </trkpt>
      <trkpt lat="-24.7199070" lon="-53.7421440">
        <ele>558.0</ele>
        <time>2018-09-14T16:26:35Z</time>
      </trkpt>
      <trkpt lat="-24.7198810" lon="-53.7421470">
        <ele>558.0</ele>
        <time>2018-09-14T16:26:36Z</time>
      </trkpt>
      <trkpt lat="-24.7198570" lon="-53.7421490">
        <ele>558.0</ele>
        <time>2018-09-14T16:26:37Z</time>
      </trkpt>
      <trkpt lat="-24.7198380" lon="-53.7421490">
        <ele>558.0</ele>
        <time>2018-09-14T16:26:38Z</time>
      </trkpt>
      <trkpt lat="-24.7198210" lon="-53.7421500">
        <ele>558.0</ele>
        <time>2018-09-14T16:26:39Z</time>
      </trkpt>
      <trkpt lat="-24.7198030" lon="-53.7421470">
        <ele>558.0</ele>
        <time>2018-09-14T16:26:40Z</time>
      </trkpt>
      <trkpt lat="-24.7197860" lon="-53.7421440">
        <ele>558.3</ele>
        <time>2018-09-14T16:26:41Z</time>
      </trkpt>
      <trkpt lat="-24.7197670" lon="-53.7421420">
        <ele>558.3</ele>
        <time>2018-09-14T16:26:42Z</time>
      </trkpt>
      <trkpt lat="-24.7197480" lon="-53.7421410">
        <ele>558.4</ele>
        <time>2018-09-14T16:26:43Z</time>
      </trkpt>
      <trkpt lat="-24.7197290" lon="-53.7421380">
        <ele>558.4</ele>
        <time>2018-09-14T16:26:44Z</time>
      </trkpt>
      <trkpt lat="-24.7197110" lon="-53.7421380">
        <ele>558.5</ele>
        <time>2018-09-14T16:26:45Z</time>
      </trkpt>
      <trkpt lat="-24.7196930" lon="-53.7421350">
        <ele>558.6</ele>
        <time>2018-09-14T16:26:46Z</time>
      </trkpt>
      <trkpt lat="-24.7196740" lon="-53.7421350">
        <ele>558.6</ele>
        <time>2018-09-14T16:26:47Z</time>
      </trkpt>
      <trkpt lat="-24.7196540" lon="-53.7421370">
        <ele>558.7</ele>
        <time>2018-09-14T16:26:48Z</time>
      </trkpt>
      <trkpt lat="-24.7196400" lon="-53.7421490">
        <ele>558.7</ele>
        <time>2018-09-14T16:26:49Z</time>
      </trkpt>
      <trkpt lat="-24.7196350" lon="-53.7421630">
        <ele>558.8</ele>
        <time>2018-09-14T16:26:50Z</time>
      </trkpt>
      <trkpt lat="-24.7196390" lon="-53.7421780">
        <ele>558.8</ele>
        <time>2018-09-14T16:26:51Z</time>
      </trkpt>
      <trkpt lat="-24.7196490" lon="-53.7421830">
        <ele>558.8</ele>
        <time>2018-09-14T16:26:52Z</time>
      </trkpt>
      <trkpt lat="-24.7196580" lon="-53.7421830">
        <ele>558.8</ele>
        <time>2018-09-14T16:26:53Z</time>
      </trkpt>
      <trkpt lat="-24.7196640" lon="-53.7421850">
        <ele>558.6</ele>
        <time>2018-09-14T16:26:54Z</time>
      </trkpt>
      <trkpt lat="-24.7196640" lon="-53.7421850">
        <ele>558.7</ele>
        <time>2018-09-14T16:26:55Z</time>
      </trkpt>
      <trkpt lat="-24.7196640" lon="-53.7421860">
        <ele>558.7</ele>
        <time>2018-09-14T16:26:56Z</time>
      </trkpt>
      <trkpt lat="-24.7196870" lon="-53.7421750">
        <ele>558.7</ele>
        <time>2018-09-14T16:29:41Z</time>
      </trkpt>
      <trkpt lat="-24.7196830" lon="-53.7421750">
        <ele>558.7</ele>
        <time>2018-09-14T16:29:42Z</time>
      </trkpt>
      <trkpt lat="-24.7196790" lon="-53.7421750">
        <ele>558.7</ele>
        <time>2018-09-14T16:29:43Z</time>
      </trkpt>
      <trkpt lat="-24.7196390" lon="-53.7421630">
        <ele>558.9</ele>
        <time>2018-09-14T16:30:58Z</time>
      </trkpt>
      <trkpt lat="-24.7196400" lon="-53.7421620">
        <ele>558.9</ele>
        <time>2018-09-14T16:30:59Z</time>
      </trkpt>
      <trkpt lat="-24.7196440" lon="-53.7421610">
        <ele>558.9</ele>
        <time>2018-09-14T16:31:00Z</time>
      </trkpt>
      <trkpt lat="-24.7196090" lon="-53.7421390">
        <ele>559.0</ele>
        <time>2018-09-14T16:36:59Z</time>
      </trkpt>
      <trkpt lat="-24.7196090" lon="-53.7421350">
        <ele>559.0</ele>
        <time>2018-09-14T16:37:01Z</time>
      </trkpt>
      <trkpt lat="-24.7196180" lon="-53.7421030">
        <ele>558.9</ele>
        <time>2018-09-14T16:37:29Z</time>
      </trkpt>
      <trkpt lat="-24.7196110" lon="-53.7420960">
        <ele>558.9</ele>
        <time>2018-09-14T16:37:30Z</time>
      </trkpt>
      <trkpt lat="-24.7196030" lon="-53.7420900">
        <ele>558.9</ele>
        <time>2018-09-14T16:37:31Z</time>
      </trkpt>
      <trkpt lat="-24.7195970" lon="-53.7420830">
        <ele>558.9</ele>
        <time>2018-09-14T16:37:32Z</time>
      </trkpt>
      <trkpt lat="-24.7195910" lon="-53.7420720">
        <ele>558.9</ele>
        <time>2018-09-14T16:37:33Z</time>
      </trkpt>
      <trkpt lat="-24.7195930" lon="-53.7420610">
        <ele>558.9</ele>
        <time>2018-09-14T16:37:34Z</time>
      </trkpt>
      <trkpt lat="-24.7196060" lon="-53.7420600">
        <ele>558.8</ele>
        <time>2018-09-14T16:37:35Z</time>
      </trkpt>
      <trkpt lat="-24.7196240" lon="-53.7420600">
        <ele>558.8</ele>
        <time>2018-09-14T16:37:36Z</time>
      </trkpt>
      <trkpt lat="-24.7196460" lon="-53.7420620">
        <ele>558.7</ele>
        <time>2018-09-14T16:37:37Z</time>
      </trkpt>
      <trkpt lat="-24.7196700" lon="-53.7420640">
        <ele>558.6</ele>
        <time>2018-09-14T16:37:38Z</time>
      </trkpt>
      <trkpt lat="-24.7196950" lon="-53.7420650">
        <ele>558.6</ele>
        <time>2018-09-14T16:37:39Z</time>
      </trkpt>
      <trkpt lat="-24.7197220" lon="-53.7420670">
        <ele>558.5</ele>
        <time>2018-09-14T16:37:40Z</time>
      </trkpt>
      <trkpt lat="-24.7197440" lon="-53.7420670">
        <ele>558.4</ele>
        <time>2018-09-14T16:37:41Z</time>
      </trkpt>
      <trkpt lat="-24.7197700" lon="-53.7420670">
        <ele>558.3</ele>
        <time>2018-09-14T16:37:42Z</time>
      </trkpt>
      <trkpt lat="-24.7197900" lon="-53.7420680">
        <ele>558.3</ele>
        <time>2018-09-14T16:37:43Z</time>
      </trkpt>
      <trkpt lat="-24.7198100" lon="-53.7420700">
        <ele>558.2</ele>
        <time>2018-09-14T16:37:44Z</time>
      </trkpt>
      <trkpt lat="-24.7198230" lon="-53.7420730">
        <ele>558.2</ele>
        <time>2018-09-14T16:37:45Z</time>
      </trkpt>
      <trkpt lat="-24.7198440" lon="-53.7420790">
        <ele>558.0</ele>
        <time>2018-09-14T16:37:46Z</time>
      </trkpt>
      <trkpt lat="-24.7198680" lon="-53.7420810">
        <ele>558.0</ele>
        <time>2018-09-14T16:37:47Z</time>
      </trkpt>
      <trkpt lat="-24.7198840" lon="-53.7420830">
        <ele>558.0</ele>
        <time>2018-09-14T16:37:48Z</time>
      </trkpt>
      <trkpt lat="-24.7199020" lon="-53.7420830">
        <ele>558.0</ele>
        <time>2018-09-14T16:37:49Z</time>
      </trkpt>
      <trkpt lat="-24.7199190" lon="-53.7420840">
        <ele>557.3</ele>
        <time>2018-09-14T16:37:50Z</time>
      </trkpt>
      <trkpt lat="-24.7199330" lon="-53.7420910">
        <ele>557.2</ele>
        <time>2018-09-14T16:37:51Z</time>
      </trkpt>
      <trkpt lat="-24.7199390" lon="-53.7421070">
        <ele>557.1</ele>
        <time>2018-09-14T16:37:52Z</time>
      </trkpt>
      <trkpt lat="-24.7199400" lon="-53.7421270">
        <ele>557.0</ele>
        <time>2018-09-14T16:37:53Z</time>
      </trkpt>
      <trkpt lat="-24.7199360" lon="-53.7421430">
        <ele>556.9</ele>
        <time>2018-09-14T16:37:54Z</time>
      </trkpt>
      <trkpt lat="-24.7199350" lon="-53.7421640">
        <ele>556.7</ele>
        <time>2018-09-14T16:37:55Z</time>
      </trkpt>
      <trkpt lat="-24.7199320" lon="-53.7421840">
        <ele>556.6</ele>
        <time>2018-09-14T16:37:56Z</time>
      </trkpt>
      <trkpt lat="-24.7199300" lon="-53.7422070">
        <ele>556.4</ele>
        <time>2018-09-14T16:37:57Z</time>
      </trkpt>
      <trkpt lat="-24.7199360" lon="-53.7422330">
        <ele>556.3</ele>
        <time>2018-09-14T16:37:58Z</time>
      </trkpt>
      <trkpt lat="-24.7199380" lon="-53.7422600">
        <ele>556.1</ele>
        <time>2018-09-14T16:37:59Z</time>
      </trkpt>
      <trkpt lat="-24.7199410" lon="-53.7422850">
        <ele>556.0</ele>
        <time>2018-09-14T16:38:00Z</time>
      </trkpt>
      <trkpt lat="-24.7199460" lon="-53.7423110">
        <ele>555.8</ele>
        <time>2018-09-14T16:38:01Z</time>
      </trkpt>
      <trkpt lat="-24.7199490" lon="-53.7423370">
        <ele>555.7</ele>
        <time>2018-09-14T16:38:02Z</time>
      </trkpt>
      <trkpt lat="-24.7199520" lon="-53.7423630">
        <ele>555.6</ele>
        <time>2018-09-14T16:38:03Z</time>
      </trkpt>
      <trkpt lat="-24.7199520" lon="-53.7423900">
        <ele>555.4</ele>
        <time>2018-09-14T16:38:04Z</time>
      </trkpt>
      <trkpt lat="-24.7199500" lon="-53.7424190">
        <ele>555.3</ele>
        <time>2018-09-14T16:38:05Z</time>
      </trkpt>
      <trkpt lat="-24.7199480" lon="-53.7424500">
        <ele>555.1</ele>
        <time>2018-09-14T16:38:06Z</time>
      </trkpt>
      <trkpt lat="-24.7199480" lon="-53.7424810">
        <ele>554.9</ele>
        <time>2018-09-14T16:38:07Z</time>
      </trkpt>
      <trkpt lat="-24.7199450" lon="-53.7425150">
        <ele>554.7</ele>
        <time>2018-09-14T16:38:08Z</time>
      </trkpt>
      <trkpt lat="-24.7199420" lon="-53.7425500">
        <ele>554.5</ele>
        <time>2018-09-14T16:38:09Z</time>
      </trkpt>
      <trkpt lat="-24.7199410" lon="-53.7425800">
        <ele>554.4</ele>
        <time>2018-09-14T16:38:10Z</time>
      </trkpt>
      <trkpt lat="-24.7199400" lon="-53.7426130">
        <ele>554.2</ele>
        <time>2018-09-14T16:38:11Z</time>
      </trkpt>
      <trkpt lat="-24.7199410" lon="-53.7426480">
        <ele>554.0</ele>
        <time>2018-09-14T16:38:12Z</time>
      </trkpt>
      <trkpt lat="-24.7199400" lon="-53.7426860">
        <ele>554.0</ele>
        <time>2018-09-14T16:38:13Z</time>
      </trkpt>
      <trkpt lat="-24.7199370" lon="-53.7427200">
        <ele>553.9</ele>
        <time>2018-09-14T16:38:14Z</time>
      </trkpt>
      <trkpt lat="-24.7199380" lon="-53.7427520">
        <ele>553.9</ele>
        <time>2018-09-14T16:38:15Z</time>
      </trkpt>
      <trkpt lat="-24.7199420" lon="-53.7427870">
        <ele>553.8</ele>
        <time>2018-09-14T16:38:16Z</time>
      </trkpt>
      <trkpt lat="-24.7199420" lon="-53.7428250">
        <ele>553.8</ele>
        <time>2018-09-14T16:38:17Z</time>
      </trkpt>
      <trkpt lat="-24.7199430" lon="-53.7428620">
        <ele>553.7</ele>
        <time>2018-09-14T16:38:18Z</time>
      </trkpt>
      <trkpt lat="-24.7199470" lon="-53.7428990">
        <ele>553.6</ele>
        <time>2018-09-14T16:38:19Z</time>
      </trkpt>
      <trkpt lat="-24.7199520" lon="-53.7429340">
        <ele>553.5</ele>
        <time>2018-09-14T16:38:20Z</time>
      </trkpt>
      <trkpt lat="-24.7199600" lon="-53.7429690">
        <ele>553.5</ele>
        <time>2018-09-14T16:38:21Z</time>
      </trkpt>
      <trkpt lat="-24.7199620" lon="-53.7430070">
        <ele>553.4</ele>
        <time>2018-09-14T16:38:22Z</time>
      </trkpt>
      <trkpt lat="-24.7199600" lon="-53.7430460">
        <ele>553.3</ele>
        <time>2018-09-14T16:38:23Z</time>
      </trkpt>
      <trkpt lat="-24.7199570" lon="-53.7430860">
        <ele>553.3</ele>
        <time>2018-09-14T16:38:24Z</time>
      </trkpt>
      <trkpt lat="-24.7199510" lon="-53.7431260">
        <ele>553.2</ele>
        <time>2018-09-14T16:38:25Z</time>
      </trkpt>
      <trkpt lat="-24.7199490" lon="-53.7431650">
        <ele>553.2</ele>
        <time>2018-09-14T16:38:26Z</time>
      </trkpt>
      <trkpt lat="-24.7199500" lon="-53.7431990">
        <ele>553.1</ele>
        <time>2018-09-14T16:38:27Z</time>
      </trkpt>
      <trkpt lat="-24.7199520" lon="-53.7432340">
        <ele>553.1</ele>
        <time>2018-09-14T16:38:28Z</time>
      </trkpt>
      <trkpt lat="-24.7199540" lon="-53.7432720">
        <ele>553.1</ele>
        <time>2018-09-14T16:38:29Z</time>
      </trkpt>
      <trkpt lat="-24.7199560" lon="-53.7433110">
        <ele>553.1</ele>
        <time>2018-09-14T16:38:30Z</time>
      </trkpt>
      <trkpt lat="-24.7199580" lon="-53.7433490">
        <ele>553.1</ele>
        <time>2018-09-14T16:38:31Z</time>
      </trkpt>
      <trkpt lat="-24.7199630" lon="-53.7433870">
        <ele>553.1</ele>
        <time>2018-09-14T16:38:32Z</time>
      </trkpt>
      <trkpt lat="-24.7199600" lon="-53.7434260">
        <ele>553.0</ele>
        <time>2018-09-14T16:38:33Z</time>
      </trkpt>
      <trkpt lat="-24.7199560" lon="-53.7434680">
        <ele>553.0</ele>
        <time>2018-09-14T16:38:34Z</time>
      </trkpt>
      <trkpt lat="-24.7199530" lon="-53.7435110">
        <ele>553.0</ele>
        <time>2018-09-14T16:38:35Z</time>
      </trkpt>
      <trkpt lat="-24.7199530" lon="-53.7435540">
        <ele>553.0</ele>
        <time>2018-09-14T16:38:36Z</time>
      </trkpt>
      <trkpt lat="-24.7199510" lon="-53.7435990">
        <ele>553.0</ele>
        <time>2018-09-14T16:38:37Z</time>
      </trkpt>
      <trkpt lat="-24.7199490" lon="-53.7436450">
        <ele>553.0</ele>
        <time>2018-09-14T16:38:38Z</time>
      </trkpt>
      <trkpt lat="-24.7199430" lon="-53.7436910">
        <ele>553.0</ele>
        <time>2018-09-14T16:38:39Z</time>
      </trkpt>
      <trkpt lat="-24.7199350" lon="-53.7437410">
        <ele>552.8</ele>
        <time>2018-09-14T16:38:40Z</time>
      </trkpt>
      <trkpt lat="-24.7199300" lon="-53.7437880">
        <ele>552.4</ele>
        <time>2018-09-14T16:38:41Z</time>
      </trkpt>
      <trkpt lat="-24.7199270" lon="-53.7438350">
        <ele>552.1</ele>
        <time>2018-09-14T16:38:42Z</time>
      </trkpt>
      <trkpt lat="-24.7199270" lon="-53.7438830">
        <ele>551.7</ele>
        <time>2018-09-14T16:38:43Z</time>
      </trkpt>
      <trkpt lat="-24.7199310" lon="-53.7439340">
        <ele>551.3</ele>
        <time>2018-09-14T16:38:44Z</time>
      </trkpt>
      <trkpt lat="-24.7199330" lon="-53.7439850">
        <ele>551.0</ele>
        <time>2018-09-14T16:38:45Z</time>
      </trkpt>
      <trkpt lat="-24.7199350" lon="-53.7440350">
        <ele>550.6</ele>
        <time>2018-09-14T16:38:46Z</time>
      </trkpt>
      <trkpt lat="-24.7199350" lon="-53.7440860">
        <ele>550.3</ele>
        <time>2018-09-14T16:38:47Z</time>
      </trkpt>
      <trkpt lat="-24.7199340" lon="-53.7441360">
        <ele>550.0</ele>
        <time>2018-09-14T16:38:48Z</time>
      </trkpt>
      <trkpt lat="-24.7199360" lon="-53.7441820">
        <ele>549.8</ele>
        <time>2018-09-14T16:38:49Z</time>
      </trkpt>
      <trkpt lat="-24.7199350" lon="-53.7442240">
        <ele>549.6</ele>
        <time>2018-09-14T16:38:50Z</time>
      </trkpt>
      <trkpt lat="-24.7199350" lon="-53.7442640">
        <ele>549.4</ele>
        <time>2018-09-14T16:38:51Z</time>
      </trkpt>
      <trkpt lat="-24.7199320" lon="-53.7443040">
        <ele>549.2</ele>
        <time>2018-09-14T16:38:52Z</time>
      </trkpt>
      <trkpt lat="-24.7199300" lon="-53.7443460">
        <ele>549.0</ele>
        <time>2018-09-14T16:38:53Z</time>
      </trkpt>
      <trkpt lat="-24.7199240" lon="-53.7443910">
        <ele>549.0</ele>
        <time>2018-09-14T16:38:54Z</time>
      </trkpt>
      <trkpt lat="-24.7199220" lon="-53.7444340">
        <ele>549.0</ele>
        <time>2018-09-14T16:38:55Z</time>
      </trkpt>
      <trkpt lat="-24.7199240" lon="-53.7444730">
        <ele>549.1</ele>
        <time>2018-09-14T16:38:56Z</time>
      </trkpt>
      <trkpt lat="-24.7199240" lon="-53.7445100">
        <ele>549.1</ele>
        <time>2018-09-14T16:38:57Z</time>
      </trkpt>
      <trkpt lat="-24.7199230" lon="-53.7445480">
        <ele>549.1</ele>
        <time>2018-09-14T16:38:58Z</time>
      </trkpt>
      <trkpt lat="-24.7199240" lon="-53.7445830">
        <ele>549.1</ele>
        <time>2018-09-14T16:38:59Z</time>
      </trkpt>
      <trkpt lat="-24.7199230" lon="-53.7446210">
        <ele>549.2</ele>
        <time>2018-09-14T16:39:00Z</time>
      </trkpt>
      <trkpt lat="-24.7199240" lon="-53.7446630">
        <ele>549.2</ele>
        <time>2018-09-14T16:39:01Z</time>
      </trkpt>
      <trkpt lat="-24.7199270" lon="-53.7447030">
        <ele>549.2</ele>
        <time>2018-09-14T16:39:02Z</time>
      </trkpt>
      <trkpt lat="-24.7199310" lon="-53.7447450">
        <ele>549.2</ele>
        <time>2018-09-14T16:39:03Z</time>
      </trkpt>
      <trkpt lat="-24.7199310" lon="-53.7447890">
        <ele>549.3</ele>
        <time>2018-09-14T16:39:04Z</time>
      </trkpt>
      <trkpt lat="-24.7199270" lon="-53.7448330">
        <ele>549.3</ele>
        <time>2018-09-14T16:39:05Z</time>
      </trkpt>
      <trkpt lat="-24.7199260" lon="-53.7448800">
        <ele>549.3</ele>
        <time>2018-09-14T16:39:06Z</time>
      </trkpt>
      <trkpt lat="-24.7199260" lon="-53.7449270">
        <ele>549.4</ele>
        <time>2018-09-14T16:39:07Z</time>
      </trkpt>
      <trkpt lat="-24.7199270" lon="-53.7449750">
        <ele>549.4</ele>
        <time>2018-09-14T16:39:08Z</time>
      </trkpt>
      <trkpt lat="-24.7199260" lon="-53.7450250">
        <ele>549.4</ele>
        <time>2018-09-14T16:39:09Z</time>
      </trkpt>
      <trkpt lat="-24.7199240" lon="-53.7450750">
        <ele>549.5</ele>
        <time>2018-09-14T16:39:10Z</time>
      </trkpt>
      <trkpt lat="-24.7199220" lon="-53.7451250">
        <ele>549.5</ele>
        <time>2018-09-14T16:39:11Z</time>
      </trkpt>
      <trkpt lat="-24.7199210" lon="-53.7451770">
        <ele>549.6</ele>
        <time>2018-09-14T16:39:12Z</time>
      </trkpt>
      <trkpt lat="-24.7199200" lon="-53.7452280">
        <ele>549.6</ele>
        <time>2018-09-14T16:39:13Z</time>
      </trkpt>
      <trkpt lat="-24.7199170" lon="-53.7452810">
        <ele>549.7</ele>
        <time>2018-09-14T16:39:14Z</time>
      </trkpt>
      <trkpt lat="-24.7199160" lon="-53.7453330">
        <ele>549.8</ele>
        <time>2018-09-14T16:39:15Z</time>
      </trkpt>
      <trkpt lat="-24.7199160" lon="-53.7453860">
        <ele>549.9</ele>
        <time>2018-09-14T16:39:16Z</time>
      </trkpt>
      <trkpt lat="-24.7199160" lon="-53.7454400">
        <ele>549.9</ele>
        <time>2018-09-14T16:39:17Z</time>
      </trkpt>
      <trkpt lat="-24.7199150" lon="-53.7454930">
        <ele>550.0</ele>
        <time>2018-09-14T16:39:18Z</time>
      </trkpt>
      <trkpt lat="-24.7199170" lon="-53.7455440">
        <ele>550.1</ele>
        <time>2018-09-14T16:39:19Z</time>
      </trkpt>
      <trkpt lat="-24.7199190" lon="-53.7455960">
        <ele>550.1</ele>
        <time>2018-09-14T16:39:20Z</time>
      </trkpt>
      <trkpt lat="-24.7199240" lon="-53.7456470">
        <ele>550.2</ele>
        <time>2018-09-14T16:39:21Z</time>
      </trkpt>
      <trkpt lat="-24.7199240" lon="-53.7456470">
        <ele>550.2</ele>
        <time>2018-09-14T16:39:22Z</time>
      </trkpt>
      <trkpt lat="-24.7199200" lon="-53.7456970">
        <ele>550.3</ele>
        <time>2018-09-14T16:39:23Z</time>
      </trkpt>
      <trkpt lat="-24.7199190" lon="-53.7457470">
        <ele>550.3</ele>
        <time>2018-09-14T16:39:24Z</time>
      </trkpt>
      <trkpt lat="-24.7199120" lon="-53.7458410">
        <ele>550.4</ele>
        <time>2018-09-14T16:39:25Z</time>
      </trkpt>
      <trkpt lat="-24.7199080" lon="-53.7458870">
        <ele>550.5</ele>
        <time>2018-09-14T16:39:26Z</time>
      </trkpt>
      <trkpt lat="-24.7199080" lon="-53.7459340">
        <ele>550.5</ele>
        <time>2018-09-14T16:39:27Z</time>
      </trkpt>
      <trkpt lat="-24.7199080" lon="-53.7459340">
        <ele>550.5</ele>
        <time>2018-09-14T16:39:28Z</time>
      </trkpt>
      <trkpt lat="-24.7199050" lon="-53.7459780">
        <ele>550.6</ele>
        <time>2018-09-14T16:39:29Z</time>
      </trkpt>
      <trkpt lat="-24.7199040" lon="-53.7460220">
        <ele>550.6</ele>
        <time>2018-09-14T16:39:30Z</time>
      </trkpt>
      <trkpt lat="-24.7198940" lon="-53.7460620">
        <ele>550.6</ele>
        <time>2018-09-14T16:39:31Z</time>
      </trkpt>
      <trkpt lat="-24.7198870" lon="-53.7461070">
        <ele>550.7</ele>
        <time>2018-09-14T16:39:32Z</time>
      </trkpt>
      <trkpt lat="-24.7198840" lon="-53.7461530">
        <ele>550.7</ele>
        <time>2018-09-14T16:39:33Z</time>
      </trkpt>
      <trkpt lat="-24.7198860" lon="-53.7461990">
        <ele>550.8</ele>
        <time>2018-09-14T16:39:34Z</time>
      </trkpt>
      <trkpt lat="-24.7198880" lon="-53.7462490">
        <ele>550.9</ele>
        <time>2018-09-14T16:39:35Z</time>
      </trkpt>
      <trkpt lat="-24.7198900" lon="-53.7462940">
        <ele>551.0</ele>
        <time>2018-09-14T16:39:36Z</time>
      </trkpt>
      <trkpt lat="-24.7198910" lon="-53.7463370">
        <ele>551.2</ele>
        <time>2018-09-14T16:39:37Z</time>
      </trkpt>
      <trkpt lat="-24.7198920" lon="-53.7463800">
        <ele>551.3</ele>
        <time>2018-09-14T16:39:38Z</time>
      </trkpt>
      <trkpt lat="-24.7198870" lon="-53.7464160">
        <ele>551.4</ele>
        <time>2018-09-14T16:39:39Z</time>
      </trkpt>
      <trkpt lat="-24.7198900" lon="-53.7464480">
        <ele>551.4</ele>
        <time>2018-09-14T16:39:40Z</time>
      </trkpt>
      <trkpt lat="-24.7198890" lon="-53.7464770">
        <ele>551.5</ele>
        <time>2018-09-14T16:39:41Z</time>
      </trkpt>
      <trkpt lat="-24.7198910" lon="-53.7465070">
        <ele>551.6</ele>
        <time>2018-09-14T16:39:42Z</time>
      </trkpt>
      <trkpt lat="-24.7198980" lon="-53.7465380">
        <ele>551.6</ele>
        <time>2018-09-14T16:39:43Z</time>
      </trkpt>
      <trkpt lat="-24.7198920" lon="-53.7465620">
        <ele>551.7</ele>
        <time>2018-09-14T16:39:44Z</time>
      </trkpt>
      <trkpt lat="-24.7198900" lon="-53.7465850">
        <ele>551.7</ele>
        <time>2018-09-14T16:39:45Z</time>
      </trkpt>
      <trkpt lat="-24.7198890" lon="-53.7466000">
        <ele>551.8</ele>
        <time>2018-09-14T16:39:46Z</time>
      </trkpt>
      <trkpt lat="-24.7198880" lon="-53.7466130">
        <ele>551.8</ele>
        <time>2018-09-14T16:39:47Z</time>
      </trkpt>
      <trkpt lat="-24.7198890" lon="-53.7466360">
        <ele>551.8</ele>
        <time>2018-09-14T16:39:48Z</time>
      </trkpt>
      <trkpt lat="-24.7198910" lon="-53.7466600">
        <ele>551.9</ele>
        <time>2018-09-14T16:39:49Z</time>
      </trkpt>
      <trkpt lat="-24.7198970" lon="-53.7466900">
        <ele>552.0</ele>
        <time>2018-09-14T16:39:50Z</time>
      </trkpt>
      <trkpt lat="-24.7199060" lon="-53.7467210">
        <ele>552.0</ele>
        <time>2018-09-14T16:39:51Z</time>
      </trkpt>
      <trkpt lat="-24.7199140" lon="-53.7467530">
        <ele>550.5</ele>
        <time>2018-09-14T16:39:52Z</time>
      </trkpt>
      <trkpt lat="-24.7199240" lon="-53.7467870">
        <ele>550.7</ele>
        <time>2018-09-14T16:39:53Z</time>
      </trkpt>
      <trkpt lat="-24.7199270" lon="-53.7468210">
        <ele>550.8</ele>
        <time>2018-09-14T16:39:54Z</time>
      </trkpt>
      <trkpt lat="-24.7199340" lon="-53.7468530">
        <ele>551.0</ele>
        <time>2018-09-14T16:39:55Z</time>
      </trkpt>
      <trkpt lat="-24.7199510" lon="-53.7468810">
        <ele>551.1</ele>
        <time>2018-09-14T16:39:56Z</time>
      </trkpt>
      <trkpt lat="-24.7199760" lon="-53.7469000">
        <ele>551.3</ele>
        <time>2018-09-14T16:39:57Z</time>
      </trkpt>
      <trkpt lat="-24.7200120" lon="-53.7469180">
        <ele>551.9</ele>
        <time>2018-09-14T16:39:58Z</time>
      </trkpt>
      <trkpt lat="-24.7200520" lon="-53.7469280">
        <ele>551.9</ele>
        <time>2018-09-14T16:39:59Z</time>
      </trkpt>
      <trkpt lat="-24.7200910" lon="-53.7469220">
        <ele>551.8</ele>
        <time>2018-09-14T16:40:00Z</time>
      </trkpt>
      <trkpt lat="-24.7201260" lon="-53.7469030">
        <ele>551.8</ele>
        <time>2018-09-14T16:40:01Z</time>
      </trkpt>
      <trkpt lat="-24.7201640" lon="-53.7468840">
        <ele>551.8</ele>
        <time>2018-09-14T16:40:02Z</time>
      </trkpt>
      <trkpt lat="-24.7202020" lon="-53.7468630">
        <ele>551.7</ele>
        <time>2018-09-14T16:40:03Z</time>
      </trkpt>
      <trkpt lat="-24.7202390" lon="-53.7468410">
        <ele>551.7</ele>
        <time>2018-09-14T16:40:04Z</time>
      </trkpt>
      <trkpt lat="-24.7202790" lon="-53.7468140">
        <ele>551.7</ele>
        <time>2018-09-14T16:40:05Z</time>
      </trkpt>
      <trkpt lat="-24.7203180" lon="-53.7467930">
        <ele>551.6</ele>
        <time>2018-09-14T16:40:06Z</time>
      </trkpt>
      <trkpt lat="-24.7203540" lon="-53.7467670">
        <ele>551.6</ele>
        <time>2018-09-14T16:40:07Z</time>
      </trkpt>
      <trkpt lat="-24.7203910" lon="-53.7467440">
        <ele>551.6</ele>
        <time>2018-09-14T16:40:08Z</time>
      </trkpt>
      <trkpt lat="-24.7204290" lon="-53.7467230">
        <ele>551.6</ele>
        <time>2018-09-14T16:40:09Z</time>
      </trkpt>
      <trkpt lat="-24.7204620" lon="-53.7467100">
        <ele>551.6</ele>
        <time>2018-09-14T16:40:10Z</time>
      </trkpt>
      <trkpt lat="-24.7204830" lon="-53.7467110">
        <ele>551.6</ele>
        <time>2018-09-14T16:40:11Z</time>
      </trkpt>
      <trkpt lat="-24.7205050" lon="-53.7467120">
        <ele>551.6</ele>
        <time>2018-09-14T16:40:12Z</time>
      </trkpt>
      <trkpt lat="-24.7205210" lon="-53.7467010">
        <ele>551.6</ele>
        <time>2018-09-14T16:40:13Z</time>
      </trkpt>
      <trkpt lat="-24.7205330" lon="-53.7466960">
        <ele>551.6</ele>
        <time>2018-09-14T16:40:14Z</time>
      </trkpt>
      <trkpt lat="-24.7205380" lon="-53.7466970">
        <ele>551.6</ele>
        <time>2018-09-14T16:40:15Z</time>
      </trkpt>
      <trkpt lat="-24.7205390" lon="-53.7467000">
        <ele>551.6</ele>
        <time>2018-09-14T16:40:16Z</time>
      </trkpt>
      <trkpt lat="-24.7205450" lon="-53.7466820">
        <ele>551.6</ele>
        <time>2018-09-14T16:40:24Z</time>
      </trkpt>
      <trkpt lat="-24.7205490" lon="-53.7466750">
        <ele>551.6</ele>
        <time>2018-09-14T16:40:25Z</time>
      </trkpt>
      <trkpt lat="-24.7205610" lon="-53.7466680">
        <ele>551.6</ele>
        <time>2018-09-14T16:40:26Z</time>
      </trkpt>
      <trkpt lat="-24.7205750" lon="-53.7466570">
        <ele>551.6</ele>
        <time>2018-09-14T16:40:27Z</time>
      </trkpt>
      <trkpt lat="-24.7205950" lon="-53.7466420">
        <ele>551.6</ele>
        <time>2018-09-14T16:40:28Z</time>
      </trkpt>
      <trkpt lat="-24.7206200" lon="-53.7466270">
        <ele>551.6</ele>
        <time>2018-09-14T16:40:29Z</time>
      </trkpt>
      <trkpt lat="-24.7206440" lon="-53.7466110">
        <ele>551.6</ele>
        <time>2018-09-14T16:40:30Z</time>
      </trkpt>
      <trkpt lat="-24.7206640" lon="-53.7465940">
        <ele>551.6</ele>
        <time>2018-09-14T16:40:31Z</time>
      </trkpt>
      <trkpt lat="-24.7207000" lon="-53.7465770">
        <ele>551.6</ele>
        <time>2018-09-14T16:40:32Z</time>
      </trkpt>
      <trkpt lat="-24.7207170" lon="-53.7465730">
        <ele>551.6</ele>
        <time>2018-09-14T16:40:33Z</time>
      </trkpt>
      <trkpt lat="-24.7207320" lon="-53.7465720">
        <ele>551.6</ele>
        <time>2018-09-14T16:40:34Z</time>
      </trkpt>
      <trkpt lat="-24.7207350" lon="-53.7465710">
        <ele>551.6</ele>
        <time>2018-09-14T16:40:35Z</time>
      </trkpt>
      <trkpt lat="-24.7207360" lon="-53.7465710">
        <ele>551.6</ele>
        <time>2018-09-14T16:40:36Z</time>
      </trkpt>
      <trkpt lat="-24.7207450" lon="-53.7465530">
        <ele>551.6</ele>
        <time>2018-09-14T16:40:49Z</time>
      </trkpt>
      <trkpt lat="-24.7207430" lon="-53.7465530">
        <ele>551.6</ele>
        <time>2018-09-14T16:40:50Z</time>
      </trkpt>
      <trkpt lat="-24.7207430" lon="-53.7465540">
        <ele>551.6</ele>
        <time>2018-09-14T16:40:51Z</time>
      </trkpt>
      <trkpt lat="-24.7207760" lon="-53.7465320">
        <ele>551.6</ele>
        <time>2018-09-14T16:42:00Z</time>
      </trkpt>
      <trkpt lat="-24.7207850" lon="-53.7465270">
        <ele>551.6</ele>
        <time>2018-09-14T16:42:01Z</time>
      </trkpt>
      <trkpt lat="-24.7207910" lon="-53.7465180">
        <ele>551.6</ele>
        <time>2018-09-14T16:42:02Z</time>
      </trkpt>
      <trkpt lat="-24.7207990" lon="-53.7465050">
        <ele>551.6</ele>
        <time>2018-09-14T16:42:03Z</time>
      </trkpt>
      <trkpt lat="-24.7208170" lon="-53.7464920">
        <ele>551.6</ele>
        <time>2018-09-14T16:42:04Z</time>
      </trkpt>
      <trkpt lat="-24.7208410" lon="-53.7464770">
        <ele>551.6</ele>
        <time>2018-09-14T16:42:05Z</time>
      </trkpt>
      <trkpt lat="-24.7208560" lon="-53.7464730">
        <ele>551.6</ele>
        <time>2018-09-14T16:42:06Z</time>
      </trkpt>
      <trkpt lat="-24.7208780" lon="-53.7464600">
        <ele>551.6</ele>
        <time>2018-09-14T16:42:07Z</time>
      </trkpt>
      <trkpt lat="-24.7209010" lon="-53.7464480">
        <ele>551.6</ele>
        <time>2018-09-14T16:42:08Z</time>
      </trkpt>
      <trkpt lat="-24.7209240" lon="-53.7464350">
        <ele>551.6</ele>
        <time>2018-09-14T16:42:09Z</time>
      </trkpt>
      <trkpt lat="-24.7209460" lon="-53.7464250">
        <ele>551.7</ele>
        <time>2018-09-14T16:42:10Z</time>
      </trkpt>
      <trkpt lat="-24.7209690" lon="-53.7464120">
        <ele>551.7</ele>
        <time>2018-09-14T16:42:11Z</time>
      </trkpt>
      <trkpt lat="-24.7209960" lon="-53.7463990">
        <ele>551.7</ele>
        <time>2018-09-14T16:42:12Z</time>
      </trkpt>
      <trkpt lat="-24.7210240" lon="-53.7463860">
        <ele>551.7</ele>
        <time>2018-09-14T16:42:13Z</time>
      </trkpt>
      <trkpt lat="-24.7210450" lon="-53.7463710">
        <ele>551.7</ele>
        <time>2018-09-14T16:42:14Z</time>
      </trkpt>
      <trkpt lat="-24.7210710" lon="-53.7463580">
        <ele>551.7</ele>
        <time>2018-09-14T16:42:15Z</time>
      </trkpt>
      <trkpt lat="-24.7210960" lon="-53.7463440">
        <ele>551.8</ele>
        <time>2018-09-14T16:42:16Z</time>
      </trkpt>
      <trkpt lat="-24.7211240" lon="-53.7463260">
        <ele>551.8</ele>
        <time>2018-09-14T16:42:17Z</time>
      </trkpt>
      <trkpt lat="-24.7211520" lon="-53.7463110">
        <ele>551.8</ele>
        <time>2018-09-14T16:42:18Z</time>
      </trkpt>
      <trkpt lat="-24.7211790" lon="-53.7462940">
        <ele>551.9</ele>
        <time>2018-09-14T16:42:19Z</time>
      </trkpt>
      <trkpt lat="-24.7212060" lon="-53.7462790">
        <ele>551.9</ele>
        <time>2018-09-14T16:42:20Z</time>
      </trkpt>
      <trkpt lat="-24.7212350" lon="-53.7462590">
        <ele>551.9</ele>
        <time>2018-09-14T16:42:21Z</time>
      </trkpt>
      <trkpt lat="-24.7212630" lon="-53.7462500">
        <ele>551.9</ele>
        <time>2018-09-14T16:42:22Z</time>
      </trkpt>
      <trkpt lat="-24.7212930" lon="-53.7462460">
        <ele>552.0</ele>
        <time>2018-09-14T16:42:23Z</time>
      </trkpt>
      <trkpt lat="-24.7213230" lon="-53.7462450">
        <ele>552.6</ele>
        <time>2018-09-14T16:42:24Z</time>
      </trkpt>
      <trkpt lat="-24.7213490" lon="-53.7462490">
        <ele>552.6</ele>
        <time>2018-09-14T16:42:25Z</time>
      </trkpt>
      <trkpt lat="-24.7213750" lon="-53.7462520">
        <ele>552.6</ele>
        <time>2018-09-14T16:42:26Z</time>
      </trkpt>
      <trkpt lat="-24.7213980" lon="-53.7462510">
        <ele>552.7</ele>
        <time>2018-09-14T16:42:27Z</time>
      </trkpt>
      <trkpt lat="-24.7214210" lon="-53.7462460">
        <ele>552.7</ele>
        <time>2018-09-14T16:42:28Z</time>
      </trkpt>
      <trkpt lat="-24.7214460" lon="-53.7462410">
        <ele>552.7</ele>
        <time>2018-09-14T16:42:29Z</time>
      </trkpt>
      <trkpt lat="-24.7214690" lon="-53.7462340">
        <ele>553.0</ele>
        <time>2018-09-14T16:42:30Z</time>
      </trkpt>
      <trkpt lat="-24.7214930" lon="-53.7462250">
        <ele>553.6</ele>
        <time>2018-09-14T16:42:31Z</time>
      </trkpt>
      <trkpt lat="-24.7215230" lon="-53.7462120">
        <ele>553.4</ele>
        <time>2018-09-14T16:42:32Z</time>
      </trkpt>
      <trkpt lat="-24.7215510" lon="-53.7462010">
        <ele>553.3</ele>
        <time>2018-09-14T16:42:33Z</time>
      </trkpt>
      <trkpt lat="-24.7215810" lon="-53.7461920">
        <ele>553.2</ele>
        <time>2018-09-14T16:42:34Z</time>
      </trkpt>
      <trkpt lat="-24.7216090" lon="-53.7461720">
        <ele>553.0</ele>
        <time>2018-09-14T16:42:35Z</time>
      </trkpt>
      <trkpt lat="-24.7216280" lon="-53.7461450">
        <ele>552.9</ele>
        <time>2018-09-14T16:42:36Z</time>
      </trkpt>
      <trkpt lat="-24.7216440" lon="-53.7461150">
        <ele>552.8</ele>
        <time>2018-09-14T16:42:37Z</time>
      </trkpt>
      <trkpt lat="-24.7216620" lon="-53.7460880">
        <ele>552.6</ele>
        <time>2018-09-14T16:42:38Z</time>
      </trkpt>
      <trkpt lat="-24.7216850" lon="-53.7460640">
        <ele>552.5</ele>
        <time>2018-09-14T16:42:39Z</time>
      </trkpt>
      <trkpt lat="-24.7217090" lon="-53.7460420">
        <ele>552.4</ele>
        <time>2018-09-14T16:42:40Z</time>
      </trkpt>
      <trkpt lat="-24.7217320" lon="-53.7460250">
        <ele>552.3</ele>
        <time>2018-09-14T16:42:41Z</time>
      </trkpt>
      <trkpt lat="-24.7217540" lon="-53.7460100">
        <ele>552.2</ele>
        <time>2018-09-14T16:42:42Z</time>
      </trkpt>
      <trkpt lat="-24.7217760" lon="-53.7459970">
        <ele>552.1</ele>
        <time>2018-09-14T16:42:43Z</time>
      </trkpt>
      <trkpt lat="-24.7217960" lon="-53.7459850">
        <ele>552.1</ele>
        <time>2018-09-14T16:42:44Z</time>
      </trkpt>
      <trkpt lat="-24.7218150" lon="-53.7459740">
        <ele>552.0</ele>
        <time>2018-09-14T16:42:45Z</time>
      </trkpt>
      <trkpt lat="-24.7218350" lon="-53.7459650">
        <ele>551.9</ele>
        <time>2018-09-14T16:42:46Z</time>
      </trkpt>
      <trkpt lat="-24.7218550" lon="-53.7459560">
        <ele>551.8</ele>
        <time>2018-09-14T16:42:47Z</time>
      </trkpt>
      <trkpt lat="-24.7218730" lon="-53.7459490">
        <ele>551.7</ele>
        <time>2018-09-14T16:42:48Z</time>
      </trkpt>
      <trkpt lat="-24.7218910" lon="-53.7459440">
        <ele>551.7</ele>
        <time>2018-09-14T16:42:49Z</time>
      </trkpt>
      <trkpt lat="-24.7219080" lon="-53.7459390">
        <ele>551.6</ele>
        <time>2018-09-14T16:42:50Z</time>
      </trkpt>
      <trkpt lat="-24.7219230" lon="-53.7459350">
        <ele>551.5</ele>
        <time>2018-09-14T16:42:51Z</time>
      </trkpt>
      <trkpt lat="-24.7219390" lon="-53.7459290">
        <ele>551.4</ele>
        <time>2018-09-14T16:42:52Z</time>
      </trkpt>
      <trkpt lat="-24.7219540" lon="-53.7459240">
        <ele>551.4</ele>
        <time>2018-09-14T16:42:53Z</time>
      </trkpt>
      <trkpt lat="-24.7219710" lon="-53.7459190">
        <ele>551.3</ele>
        <time>2018-09-14T16:42:54Z</time>
      </trkpt>
      <trkpt lat="-24.7219880" lon="-53.7459200">
        <ele>551.2</ele>
        <time>2018-09-14T16:42:55Z</time>
      </trkpt>
      <trkpt lat="-24.7220020" lon="-53.7459270">
        <ele>551.2</ele>
        <time>2018-09-14T16:42:56Z</time>
      </trkpt>
      <trkpt lat="-24.7220090" lon="-53.7459300">
        <ele>551.1</ele>
        <time>2018-09-14T16:42:57Z</time>
      </trkpt>
      <trkpt lat="-24.7220100" lon="-53.7459300">
        <ele>551.1</ele>
        <time>2018-09-14T16:42:58Z</time>
      </trkpt>
      <trkpt lat="-24.7220100" lon="-53.7459300">
        <ele>551.1</ele>
        <time>2018-09-14T16:42:59Z</time>
      </trkpt>
      <trkpt lat="-24.7219850" lon="-53.7459220">
        <ele>551.0</ele>
        <time>2018-09-14T16:45:09Z</time>
      </trkpt>
      <trkpt lat="-24.7219850" lon="-53.7459210">
        <ele>551.0</ele>
        <time>2018-09-14T16:45:10Z</time>
      </trkpt>
      <trkpt lat="-24.7219860" lon="-53.7459210">
        <ele>551.0</ele>
        <time>2018-09-14T16:45:11Z</time>
      </trkpt>
      <trkpt lat="-24.7219930" lon="-53.7459200">
        <ele>551.0</ele>
        <time>2018-09-14T16:45:15Z</time>
      </trkpt>
      <trkpt lat="-24.7220020" lon="-53.7459130">
        <ele>550.9</ele>
        <time>2018-09-14T16:45:16Z</time>
      </trkpt>
      <trkpt lat="-24.7220130" lon="-53.7459040">
        <ele>550.9</ele>
        <time>2018-09-14T16:45:17Z</time>
      </trkpt>
      <trkpt lat="-24.7220280" lon="-53.7458980">
        <ele>550.8</ele>
        <time>2018-09-14T16:45:18Z</time>
      </trkpt>
      <trkpt lat="-24.7220460" lon="-53.7458960">
        <ele>550.6</ele>
        <time>2018-09-14T16:45:19Z</time>
      </trkpt>
      <trkpt lat="-24.7220610" lon="-53.7458950">
        <ele>550.5</ele>
        <time>2018-09-14T16:45:20Z</time>
      </trkpt>
      <trkpt lat="-24.7220750" lon="-53.7458940">
        <ele>550.4</ele>
        <time>2018-09-14T16:45:21Z</time>
      </trkpt>
      <trkpt lat="-24.7220900" lon="-53.7458910">
        <ele>550.3</ele>
        <time>2018-09-14T16:45:22Z</time>
      </trkpt>
      <trkpt lat="-24.7221070" lon="-53.7458880">
        <ele>550.2</ele>
        <time>2018-09-14T16:45:23Z</time>
      </trkpt>
      <trkpt lat="-24.7221260" lon="-53.7458830">
        <ele>550.1</ele>
        <time>2018-09-14T16:45:24Z</time>
      </trkpt>
      <trkpt lat="-24.7221470" lon="-53.7458750">
        <ele>549.9</ele>
        <time>2018-09-14T16:45:25Z</time>
      </trkpt>
      <trkpt lat="-24.7221690" lon="-53.7458670">
        <ele>549.8</ele>
        <time>2018-09-14T16:45:26Z</time>
      </trkpt>
      <trkpt lat="-24.7221930" lon="-53.7458590">
        <ele>549.7</ele>
        <time>2018-09-14T16:45:27Z</time>
      </trkpt>
      <trkpt lat="-24.7222170" lon="-53.7458500">
        <ele>549.5</ele>
        <time>2018-09-14T16:45:28Z</time>
      </trkpt>
      <trkpt lat="-24.7222420" lon="-53.7458430">
        <ele>549.4</ele>
        <time>2018-09-14T16:45:29Z</time>
      </trkpt>
      <trkpt lat="-24.7222680" lon="-53.7458480">
        <ele>549.5</ele>
        <time>2018-09-14T16:45:30Z</time>
      </trkpt>
      <trkpt lat="-24.7222890" lon="-53.7458650">
        <ele>549.7</ele>
        <time>2018-09-14T16:45:31Z</time>
      </trkpt>
      <trkpt lat="-24.7223010" lon="-53.7458890">
        <ele>550.0</ele>
        <time>2018-09-14T16:45:32Z</time>
      </trkpt>
      <trkpt lat="-24.7223070" lon="-53.7459140">
        <ele>550.2</ele>
        <time>2018-09-14T16:45:33Z</time>
      </trkpt>
      <trkpt lat="-24.7223070" lon="-53.7459410">
        <ele>550.4</ele>
        <time>2018-09-14T16:45:34Z</time>
      </trkpt>
      <trkpt lat="-24.7223080" lon="-53.7459680">
        <ele>550.7</ele>
        <time>2018-09-14T16:45:35Z</time>
      </trkpt>
      <trkpt lat="-24.7223110" lon="-53.7459950">
        <ele>550.9</ele>
        <time>2018-09-14T16:45:36Z</time>
      </trkpt>
      <trkpt lat="-24.7223120" lon="-53.7460230">
        <ele>551.2</ele>
        <time>2018-09-14T16:45:37Z</time>
      </trkpt>
      <trkpt lat="-24.7223130" lon="-53.7460500">
        <ele>551.4</ele>
        <time>2018-09-14T16:45:38Z</time>
      </trkpt>
      <trkpt lat="-24.7223120" lon="-53.7460770">
        <ele>551.6</ele>
        <time>2018-09-14T16:45:39Z</time>
      </trkpt>
      <trkpt lat="-24.7223100" lon="-53.7461030">
        <ele>551.9</ele>
        <time>2018-09-14T16:45:40Z</time>
      </trkpt>
      <trkpt lat="-24.7223070" lon="-53.7461290">
        <ele>552.1</ele>
        <time>2018-09-14T16:45:41Z</time>
      </trkpt>
      <trkpt lat="-24.7223040" lon="-53.7461530">
        <ele>552.3</ele>
        <time>2018-09-14T16:45:42Z</time>
      </trkpt>
      <trkpt lat="-24.7223060" lon="-53.7461770">
        <ele>552.5</ele>
        <time>2018-09-14T16:45:43Z</time>
      </trkpt>
      <trkpt lat="-24.7223140" lon="-53.7462000">
        <ele>553.0</ele>
        <time>2018-09-14T16:45:44Z</time>
      </trkpt>
      <trkpt lat="-24.7223270" lon="-53.7462200">
        <ele>553.0</ele>
        <time>2018-09-14T16:45:45Z</time>
      </trkpt>
      <trkpt lat="-24.7223390" lon="-53.7462370">
        <ele>553.0</ele>
        <time>2018-09-14T16:45:46Z</time>
      </trkpt>
      <trkpt lat="-24.7223510" lon="-53.7462510">
        <ele>553.0</ele>
        <time>2018-09-14T16:45:47Z</time>
      </trkpt>
      <trkpt lat="-24.7223640" lon="-53.7462610">
        <ele>553.0</ele>
        <time>2018-09-14T16:45:48Z</time>
      </trkpt>
      <trkpt lat="-24.7223760" lon="-53.7462720">
        <ele>553.0</ele>
        <time>2018-09-14T16:45:49Z</time>
      </trkpt>
      <trkpt lat="-24.7223860" lon="-53.7462840">
        <ele>553.0</ele>
        <time>2018-09-14T16:45:50Z</time>
      </trkpt>
      <trkpt lat="-24.7223900" lon="-53.7462940">
        <ele>553.0</ele>
        <time>2018-09-14T16:45:51Z</time>
      </trkpt>
      <trkpt lat="-24.7223910" lon="-53.7462990">
        <ele>553.0</ele>
        <time>2018-09-14T16:45:52Z</time>
      </trkpt>
      <trkpt lat="-24.7223910" lon="-53.7463000">
        <ele>553.0</ele>
        <time>2018-09-14T16:45:53Z</time>
      </trkpt>
      <trkpt lat="-24.7223910" lon="-53.7463010">
        <ele>553.0</ele>
        <time>2018-09-14T16:45:54Z</time>
      </trkpt>
      <trkpt lat="-24.7223770" lon="-53.7463060">
        <ele>553.0</ele>
        <time>2018-09-14T16:46:25Z</time>
      </trkpt>
      <trkpt lat="-24.7223760" lon="-53.7463060">
        <ele>553.0</ele>
        <time>2018-09-14T16:46:26Z</time>
      </trkpt>
      <trkpt lat="-24.7223770" lon="-53.7463070">
        <ele>553.0</ele>
        <time>2018-09-14T16:46:27Z</time>
      </trkpt>
      <trkpt lat="-24.7223770" lon="-53.7463070">
        <ele>553.0</ele>
        <time>2018-09-14T16:46:32Z</time>
      </trkpt>
      <trkpt lat="-24.7223740" lon="-53.7463090">
        <ele>553.0</ele>
        <time>2018-09-14T16:46:33Z</time>
      </trkpt>
      <trkpt lat="-24.7223730" lon="-53.7463110">
        <ele>553.0</ele>
        <time>2018-09-14T16:46:34Z</time>
      </trkpt>
      <trkpt lat="-24.7223730" lon="-53.7463110">
        <ele>553.0</ele>
        <time>2018-09-14T16:46:35Z</time>
      </trkpt>
      <trkpt lat="-24.7223740" lon="-53.7463330">
        <ele>553.0</ele>
        <time>2018-09-14T16:47:17Z</time>
      </trkpt>
      <trkpt lat="-24.7223720" lon="-53.7463410">
        <ele>553.0</ele>
        <time>2018-09-14T16:47:18Z</time>
      </trkpt>
      <trkpt lat="-24.7223720" lon="-53.7463410">
        <ele>553.0</ele>
        <time>2018-09-14T16:47:19Z</time>
      </trkpt>
      <trkpt lat="-24.7223720" lon="-53.7463510">
        <ele>553.0</ele>
        <time>2018-09-14T16:47:20Z</time>
      </trkpt>
      <trkpt lat="-24.7223780" lon="-53.7463670">
        <ele>553.0</ele>
        <time>2018-09-14T16:47:21Z</time>
      </trkpt>
      <trkpt lat="-24.7223930" lon="-53.7463850">
        <ele>553.0</ele>
        <time>2018-09-14T16:47:22Z</time>
      </trkpt>
      <trkpt lat="-24.7224110" lon="-53.7463970">
        <ele>553.0</ele>
        <time>2018-09-14T16:47:23Z</time>
      </trkpt>
      <trkpt lat="-24.7224320" lon="-53.7464020">
        <ele>553.0</ele>
        <time>2018-09-14T16:47:24Z</time>
      </trkpt>
      <trkpt lat="-24.7224560" lon="-53.7464010">
        <ele>553.0</ele>
        <time>2018-09-14T16:47:25Z</time>
      </trkpt>
      <trkpt lat="-24.7224790" lon="-53.7463950">
        <ele>553.0</ele>
        <time>2018-09-14T16:47:26Z</time>
      </trkpt>
      <trkpt lat="-24.7225010" lon="-53.7463890">
        <ele>553.0</ele>
        <time>2018-09-14T16:47:27Z</time>
      </trkpt>
      <trkpt lat="-24.7225250" lon="-53.7463840">
        <ele>553.0</ele>
        <time>2018-09-14T16:47:28Z</time>
      </trkpt>
      <trkpt lat="-24.7225490" lon="-53.7463820">
        <ele>553.0</ele>
        <time>2018-09-14T16:47:29Z</time>
      </trkpt>
      <trkpt lat="-24.7225730" lon="-53.7463820">
        <ele>553.0</ele>
        <time>2018-09-14T16:47:30Z</time>
      </trkpt>
      <trkpt lat="-24.7225990" lon="-53.7463810">
        <ele>553.0</ele>
        <time>2018-09-14T16:47:31Z</time>
      </trkpt>
      <trkpt lat="-24.7226250" lon="-53.7463780">
        <ele>553.0</ele>
        <time>2018-09-14T16:47:32Z</time>
      </trkpt>
      <trkpt lat="-24.7226540" lon="-53.7463770">
        <ele>553.0</ele>
        <time>2018-09-14T16:47:33Z</time>
      </trkpt>
      <trkpt lat="-24.7226850" lon="-53.7463760">
        <ele>553.0</ele>
        <time>2018-09-14T16:47:34Z</time>
      </trkpt>
      <trkpt lat="-24.7227180" lon="-53.7463750">
        <ele>553.0</ele>
        <time>2018-09-14T16:47:35Z</time>
      </trkpt>
      <trkpt lat="-24.7227510" lon="-53.7463740">
        <ele>553.0</ele>
        <time>2018-09-14T16:47:36Z</time>
      </trkpt>
      <trkpt lat="-24.7227850" lon="-53.7463720">
        <ele>553.0</ele>
        <time>2018-09-14T16:47:37Z</time>
      </trkpt>
      <trkpt lat="-24.7228210" lon="-53.7463710">
        <ele>553.0</ele>
        <time>2018-09-14T16:47:38Z</time>
      </trkpt>
      <trkpt lat="-24.7228570" lon="-53.7463720">
        <ele>553.0</ele>
        <time>2018-09-14T16:47:39Z</time>
      </trkpt>
      <trkpt lat="-24.7228940" lon="-53.7463710">
        <ele>553.0</ele>
        <time>2018-09-14T16:47:40Z</time>
      </trkpt>
      <trkpt lat="-24.7229320" lon="-53.7463740">
        <ele>553.0</ele>
        <time>2018-09-14T16:47:41Z</time>
      </trkpt>
      <trkpt lat="-24.7229700" lon="-53.7463780">
        <ele>553.0</ele>
        <time>2018-09-14T16:47:42Z</time>
      </trkpt>
      <trkpt lat="-24.7230080" lon="-53.7463830">
        <ele>553.0</ele>
        <time>2018-09-14T16:47:43Z</time>
      </trkpt>
      <trkpt lat="-24.7230450" lon="-53.7463850">
        <ele>553.0</ele>
        <time>2018-09-14T16:47:44Z</time>
      </trkpt>
      <trkpt lat="-24.7230810" lon="-53.7463850">
        <ele>553.0</ele>
        <time>2018-09-14T16:47:45Z</time>
      </trkpt>
      <trkpt lat="-24.7231160" lon="-53.7463850">
        <ele>553.0</ele>
        <time>2018-09-14T16:47:46Z</time>
      </trkpt>
      <trkpt lat="-24.7231490" lon="-53.7463870">
        <ele>553.0</ele>
        <time>2018-09-14T16:47:47Z</time>
      </trkpt>
      <trkpt lat="-24.7231790" lon="-53.7463890">
        <ele>553.0</ele>
        <time>2018-09-14T16:47:48Z</time>
      </trkpt>
      <trkpt lat="-24.7232080" lon="-53.7463900">
        <ele>553.0</ele>
        <time>2018-09-14T16:47:49Z</time>
      </trkpt>
      <trkpt lat="-24.7232310" lon="-53.7463890">
        <ele>553.0</ele>
        <time>2018-09-14T16:47:50Z</time>
      </trkpt>
      <trkpt lat="-24.7232470" lon="-53.7463880">
        <ele>553.0</ele>
        <time>2018-09-14T16:47:51Z</time>
      </trkpt>
      <trkpt lat="-24.7232600" lon="-53.7463860">
        <ele>553.0</ele>
        <time>2018-09-14T16:47:52Z</time>
      </trkpt>
      <trkpt lat="-24.7232780" lon="-53.7463820">
        <ele>553.0</ele>
        <time>2018-09-14T16:47:53Z</time>
      </trkpt>
      <trkpt lat="-24.7233020" lon="-53.7463810">
        <ele>553.0</ele>
        <time>2018-09-14T16:47:54Z</time>
      </trkpt>
      <trkpt lat="-24.7233310" lon="-53.7463820">
        <ele>553.0</ele>
        <time>2018-09-14T16:47:55Z</time>
      </trkpt>
      <trkpt lat="-24.7233620" lon="-53.7463870">
        <ele>553.0</ele>
        <time>2018-09-14T16:47:56Z</time>
      </trkpt>
      <trkpt lat="-24.7233910" lon="-53.7463920">
        <ele>553.0</ele>
        <time>2018-09-14T16:47:57Z</time>
      </trkpt>
      <trkpt lat="-24.7234260" lon="-53.7463910">
        <ele>553.0</ele>
        <time>2018-09-14T16:47:58Z</time>
      </trkpt>
      <trkpt lat="-24.7234600" lon="-53.7463850">
        <ele>554.9</ele>
        <time>2018-09-14T16:47:59Z</time>
      </trkpt>
      <trkpt lat="-24.7234930" lon="-53.7463920">
        <ele>556.7</ele>
        <time>2018-09-14T16:48:00Z</time>
      </trkpt>
      <trkpt lat="-24.7235130" lon="-53.7464160">
        <ele>556.8</ele>
        <time>2018-09-14T16:48:01Z</time>
      </trkpt>
      <trkpt lat="-24.7235170" lon="-53.7464470">
        <ele>556.8</ele>
        <time>2018-09-14T16:48:02Z</time>
      </trkpt>
      <trkpt lat="-24.7235130" lon="-53.7464770">
        <ele>556.8</ele>
        <time>2018-09-14T16:48:03Z</time>
      </trkpt>
      <trkpt lat="-24.7235080" lon="-53.7465080">
        <ele>556.9</ele>
        <time>2018-09-14T16:48:04Z</time>
      </trkpt>
      <trkpt lat="-24.7235090" lon="-53.7465420">
        <ele>556.9</ele>
        <time>2018-09-14T16:48:05Z</time>
      </trkpt>
      <trkpt lat="-24.7235200" lon="-53.7465750">
        <ele>556.9</ele>
        <time>2018-09-14T16:48:06Z</time>
      </trkpt>
      <trkpt lat="-24.7235400" lon="-53.7466050">
        <ele>557.0</ele>
        <time>2018-09-14T16:48:07Z</time>
      </trkpt>
      <trkpt lat="-24.7235640" lon="-53.7466290">
        <ele>557.0</ele>
        <time>2018-09-14T16:48:08Z</time>
      </trkpt>
      <trkpt lat="-24.7235900" lon="-53.7466510">
        <ele>557.1</ele>
        <time>2018-09-14T16:48:09Z</time>
      </trkpt>
      <trkpt lat="-24.7236150" lon="-53.7466700">
        <ele>557.1</ele>
        <time>2018-09-14T16:48:10Z</time>
      </trkpt>
      <trkpt lat="-24.7236420" lon="-53.7466890">
        <ele>557.1</ele>
        <time>2018-09-14T16:48:11Z</time>
      </trkpt>
      <trkpt lat="-24.7236690" lon="-53.7466980">
        <ele>557.2</ele>
        <time>2018-09-14T16:48:12Z</time>
      </trkpt>
      <trkpt lat="-24.7236950" lon="-53.7467020">
        <ele>557.2</ele>
        <time>2018-09-14T16:48:13Z</time>
      </trkpt>
      <trkpt lat="-24.7237230" lon="-53.7467040">
        <ele>557.2</ele>
        <time>2018-09-14T16:48:14Z</time>
      </trkpt>
      <trkpt lat="-24.7237540" lon="-53.7467040">
        <ele>557.3</ele>
        <time>2018-09-14T16:48:15Z</time>
      </trkpt>
      <trkpt lat="-24.7237880" lon="-53.7467000">
        <ele>557.3</ele>
        <time>2018-09-14T16:48:16Z</time>
      </trkpt>
      <trkpt lat="-24.7238240" lon="-53.7466930">
        <ele>557.3</ele>
        <time>2018-09-14T16:48:17Z</time>
      </trkpt>
      <trkpt lat="-24.7238600" lon="-53.7466840">
        <ele>557.4</ele>
        <time>2018-09-14T16:48:18Z</time>
      </trkpt>
      <trkpt lat="-24.7238970" lon="-53.7466780">
        <ele>557.4</ele>
        <time>2018-09-14T16:48:19Z</time>
      </trkpt>
      <trkpt lat="-24.7239350" lon="-53.7466710">
        <ele>557.5</ele>
        <time>2018-09-14T16:48:20Z</time>
      </trkpt>
      <trkpt lat="-24.7239730" lon="-53.7466640">
        <ele>557.5</ele>
        <time>2018-09-14T16:48:21Z</time>
      </trkpt>
      <trkpt lat="-24.7240100" lon="-53.7466560">
        <ele>557.5</ele>
        <time>2018-09-14T16:48:22Z</time>
      </trkpt>
      <trkpt lat="-24.7240470" lon="-53.7466490">
        <ele>557.6</ele>
        <time>2018-09-14T16:48:23Z</time>
      </trkpt>
      <trkpt lat="-24.7240830" lon="-53.7466430">
        <ele>557.6</ele>
        <time>2018-09-14T16:48:24Z</time>
      </trkpt>
      <trkpt lat="-24.7241190" lon="-53.7466380">
        <ele>557.7</ele>
        <time>2018-09-14T16:48:25Z</time>
      </trkpt>
      <trkpt lat="-24.7241570" lon="-53.7466300">
        <ele>557.7</ele>
        <time>2018-09-14T16:48:26Z</time>
      </trkpt>
      <trkpt lat="-24.7241940" lon="-53.7466210">
        <ele>557.7</ele>
        <time>2018-09-14T16:48:27Z</time>
      </trkpt>
      <trkpt lat="-24.7242320" lon="-53.7466110">
        <ele>557.8</ele>
        <time>2018-09-14T16:48:28Z</time>
      </trkpt>
      <trkpt lat="-24.7242710" lon="-53.7466030">
        <ele>557.8</ele>
        <time>2018-09-14T16:48:29Z</time>
      </trkpt>
      <trkpt lat="-24.7243100" lon="-53.7465960">
        <ele>557.9</ele>
        <time>2018-09-14T16:48:30Z</time>
      </trkpt>
      <trkpt lat="-24.7243500" lon="-53.7465880">
        <ele>557.9</ele>
        <time>2018-09-14T16:48:31Z</time>
      </trkpt>
      <trkpt lat="-24.7243890" lon="-53.7465800">
        <ele>558.0</ele>
        <time>2018-09-14T16:48:32Z</time>
      </trkpt>
      <trkpt lat="-24.7244290" lon="-53.7465730">
        <ele>557.5</ele>
        <time>2018-09-14T16:48:33Z</time>
      </trkpt>
      <trkpt lat="-24.7244700" lon="-53.7465660">
        <ele>557.1</ele>
        <time>2018-09-14T16:48:34Z</time>
      </trkpt>
      <trkpt lat="-24.7245110" lon="-53.7465580">
        <ele>557.2</ele>
        <time>2018-09-14T16:48:35Z</time>
      </trkpt>
      <trkpt lat="-24.7245520" lon="-53.7465520">
        <ele>557.2</ele>
        <time>2018-09-14T16:48:36Z</time>
      </trkpt>
      <trkpt lat="-24.7245930" lon="-53.7465440">
        <ele>557.3</ele>
        <time>2018-09-14T16:48:37Z</time>
      </trkpt>
      <trkpt lat="-24.7246340" lon="-53.7465340">
        <ele>557.4</ele>
        <time>2018-09-14T16:48:38Z</time>
      </trkpt>
      <trkpt lat="-24.7246770" lon="-53.7465240">
        <ele>557.4</ele>
        <time>2018-09-14T16:48:39Z</time>
      </trkpt>
      <trkpt lat="-24.7247190" lon="-53.7465150">
        <ele>557.5</ele>
        <time>2018-09-14T16:48:40Z</time>
      </trkpt>
      <trkpt lat="-24.7247620" lon="-53.7465080">
        <ele>557.5</ele>
        <time>2018-09-14T16:48:41Z</time>
      </trkpt>
      <trkpt lat="-24.7248060" lon="-53.7464970">
        <ele>557.6</ele>
        <time>2018-09-14T16:48:42Z</time>
      </trkpt>
      <trkpt lat="-24.7248500" lon="-53.7464890">
        <ele>557.7</ele>
        <time>2018-09-14T16:48:43Z</time>
      </trkpt>
      <trkpt lat="-24.7248930" lon="-53.7464800">
        <ele>557.7</ele>
        <time>2018-09-14T16:48:44Z</time>
      </trkpt>
      <trkpt lat="-24.7249340" lon="-53.7464700">
        <ele>557.8</ele>
        <time>2018-09-14T16:48:45Z</time>
      </trkpt>
      <trkpt lat="-24.7249780" lon="-53.7464620">
        <ele>557.9</ele>
        <time>2018-09-14T16:48:46Z</time>
      </trkpt>
      <trkpt lat="-24.7250220" lon="-53.7464540">
        <ele>557.9</ele>
        <time>2018-09-14T16:48:47Z</time>
      </trkpt>
      <trkpt lat="-24.7250660" lon="-53.7464450">
        <ele>558.0</ele>
        <time>2018-09-14T16:48:48Z</time>
      </trkpt>
      <trkpt lat="-24.7251100" lon="-53.7464340">
        <ele>558.1</ele>
        <time>2018-09-14T16:48:49Z</time>
      </trkpt>
      <trkpt lat="-24.7251940" lon="-53.7464150">
        <ele>558.3</ele>
        <time>2018-09-14T16:48:50Z</time>
      </trkpt>
      <trkpt lat="-24.7252350" lon="-53.7464060">
        <ele>558.4</ele>
        <time>2018-09-14T16:48:51Z</time>
      </trkpt>
      <trkpt lat="-24.7252780" lon="-53.7463960">
        <ele>558.5</ele>
        <time>2018-09-14T16:48:52Z</time>
      </trkpt>
      <trkpt lat="-24.7253220" lon="-53.7463850">
        <ele>558.6</ele>
        <time>2018-09-14T16:48:53Z</time>
      </trkpt>
      <trkpt lat="-24.7254060" lon="-53.7463660">
        <ele>558.8</ele>
        <time>2018-09-14T16:48:55Z</time>
      </trkpt>
      <trkpt lat="-24.7254490" lon="-53.7463580">
        <ele>558.9</ele>
        <time>2018-09-14T16:48:56Z</time>
      </trkpt>
      <trkpt lat="-24.7254940" lon="-53.7463490">
        <ele>559.0</ele>
        <time>2018-09-14T16:48:57Z</time>
      </trkpt>
      <trkpt lat="-24.7255400" lon="-53.7463390">
        <ele>559.0</ele>
        <time>2018-09-14T16:48:58Z</time>
      </trkpt>
      <trkpt lat="-24.7255870" lon="-53.7463290">
        <ele>559.0</ele>
        <time>2018-09-14T16:48:59Z</time>
      </trkpt>
      <trkpt lat="-24.7256340" lon="-53.7463210">
        <ele>559.1</ele>
        <time>2018-09-14T16:49:00Z</time>
      </trkpt>
      <trkpt lat="-24.7256810" lon="-53.7463130">
        <ele>559.2</ele>
        <time>2018-09-14T16:49:01Z</time>
      </trkpt>
      <trkpt lat="-24.7257300" lon="-53.7463030">
        <ele>559.2</ele>
        <time>2018-09-14T16:49:02Z</time>
      </trkpt>
      <trkpt lat="-24.7257780" lon="-53.7462940">
        <ele>559.3</ele>
        <time>2018-09-14T16:49:03Z</time>
      </trkpt>
      <trkpt lat="-24.7258260" lon="-53.7462830">
        <ele>559.4</ele>
        <time>2018-09-14T16:49:04Z</time>
      </trkpt>
      <trkpt lat="-24.7258750" lon="-53.7462740">
        <ele>559.5</ele>
        <time>2018-09-14T16:49:05Z</time>
      </trkpt>
      <trkpt lat="-24.7259240" lon="-53.7462630">
        <ele>559.6</ele>
        <time>2018-09-14T16:49:06Z</time>
      </trkpt>
      <trkpt lat="-24.7259720" lon="-53.7462530">
        <ele>559.7</ele>
        <time>2018-09-14T16:49:07Z</time>
      </trkpt>
      <trkpt lat="-24.7260200" lon="-53.7462430">
        <ele>559.8</ele>
        <time>2018-09-14T16:49:08Z</time>
      </trkpt>
      <trkpt lat="-24.7260680" lon="-53.7462320">
        <ele>560.0</ele>
        <time>2018-09-14T16:49:09Z</time>
      </trkpt>
      <trkpt lat="-24.7261170" lon="-53.7462200">
        <ele>560.2</ele>
        <time>2018-09-14T16:49:10Z</time>
      </trkpt>
      <trkpt lat="-24.7261650" lon="-53.7462090">
        <ele>560.5</ele>
        <time>2018-09-14T16:49:11Z</time>
      </trkpt>
      <trkpt lat="-24.7262130" lon="-53.7461980">
        <ele>560.7</ele>
        <time>2018-09-14T16:49:12Z</time>
      </trkpt>
      <trkpt lat="-24.7262610" lon="-53.7461880">
        <ele>560.9</ele>
        <time>2018-09-14T16:49:13Z</time>
      </trkpt>
      <trkpt lat="-24.7263540" lon="-53.7461630">
        <ele>561.3</ele>
        <time>2018-09-14T16:49:15Z</time>
      </trkpt>
      <trkpt lat="-24.7264000" lon="-53.7461510">
        <ele>561.4</ele>
        <time>2018-09-14T16:49:16Z</time>
      </trkpt>
      <trkpt lat="-24.7264440" lon="-53.7461390">
        <ele>561.5</ele>
        <time>2018-09-14T16:49:17Z</time>
      </trkpt>
      <trkpt lat="-24.7264890" lon="-53.7461250">
        <ele>561.6</ele>
        <time>2018-09-14T16:49:18Z</time>
      </trkpt>
      <trkpt lat="-24.7265330" lon="-53.7461100">
        <ele>561.7</ele>
        <time>2018-09-14T16:49:19Z</time>
      </trkpt>
      <trkpt lat="-24.7265770" lon="-53.7460980">
        <ele>561.8</ele>
        <time>2018-09-14T16:49:20Z</time>
      </trkpt>
      <trkpt lat="-24.7266210" lon="-53.7460860">
        <ele>561.9</ele>
        <time>2018-09-14T16:49:21Z</time>
      </trkpt>
      <trkpt lat="-24.7266630" lon="-53.7460730">
        <ele>562.0</ele>
        <time>2018-09-14T16:49:22Z</time>
      </trkpt>
      <trkpt lat="-24.7267040" lon="-53.7460580">
        <ele>562.1</ele>
        <time>2018-09-14T16:49:23Z</time>
      </trkpt>
      <trkpt lat="-24.7267440" lon="-53.7460420">
        <ele>562.3</ele>
        <time>2018-09-14T16:49:24Z</time>
      </trkpt>
      <trkpt lat="-24.7267840" lon="-53.7460280">
        <ele>562.4</ele>
        <time>2018-09-14T16:49:25Z</time>
      </trkpt>
      <trkpt lat="-24.7268250" lon="-53.7460150">
        <ele>562.4</ele>
        <time>2018-09-14T16:49:26Z</time>
      </trkpt>
      <trkpt lat="-24.7268640" lon="-53.7459990">
        <ele>562.5</ele>
        <time>2018-09-14T16:49:27Z</time>
      </trkpt>
      <trkpt lat="-24.7269030" lon="-53.7459840">
        <ele>562.6</ele>
        <time>2018-09-14T16:49:28Z</time>
      </trkpt>
      <trkpt lat="-24.7269410" lon="-53.7459670">
        <ele>562.6</ele>
        <time>2018-09-14T16:49:29Z</time>
      </trkpt>
      <trkpt lat="-24.7269780" lon="-53.7459500">
        <ele>562.6</ele>
        <time>2018-09-14T16:49:30Z</time>
      </trkpt>
      <trkpt lat="-24.7270160" lon="-53.7459340">
        <ele>562.7</ele>
        <time>2018-09-14T16:49:31Z</time>
      </trkpt>
      <trkpt lat="-24.7270540" lon="-53.7459190">
        <ele>562.7</ele>
        <time>2018-09-14T16:49:32Z</time>
      </trkpt>
      <trkpt lat="-24.7270910" lon="-53.7459020">
        <ele>562.8</ele>
        <time>2018-09-14T16:49:33Z</time>
      </trkpt>
      <trkpt lat="-24.7271250" lon="-53.7458820">
        <ele>562.8</ele>
        <time>2018-09-14T16:49:34Z</time>
      </trkpt>
      <trkpt lat="-24.7271580" lon="-53.7458600">
        <ele>562.8</ele>
        <time>2018-09-14T16:49:35Z</time>
      </trkpt>
      <trkpt lat="-24.7271880" lon="-53.7458380">
        <ele>562.9</ele>
        <time>2018-09-14T16:49:36Z</time>
      </trkpt>
      <trkpt lat="-24.7272170" lon="-53.7458130">
        <ele>562.9</ele>
        <time>2018-09-14T16:49:37Z</time>
      </trkpt>
      <trkpt lat="-24.7272460" lon="-53.7457910">
        <ele>562.9</ele>
        <time>2018-09-14T16:49:38Z</time>
      </trkpt>
      <trkpt lat="-24.7272790" lon="-53.7457780">
        <ele>563.3</ele>
        <time>2018-09-14T16:49:39Z</time>
      </trkpt>
      <trkpt lat="-24.7273140" lon="-53.7457840">
        <ele>564.2</ele>
        <time>2018-09-14T16:49:40Z</time>
      </trkpt>
      <trkpt lat="-24.7273460" lon="-53.7458070">
        <ele>565.2</ele>
        <time>2018-09-14T16:49:41Z</time>
      </trkpt>
      <trkpt lat="-24.7273730" lon="-53.7458370">
        <ele>566.2</ele>
        <time>2018-09-14T16:49:42Z</time>
      </trkpt>
      <trkpt lat="-24.7274010" lon="-53.7458690">
        <ele>567.0</ele>
        <time>2018-09-14T16:49:43Z</time>
      </trkpt>
      <trkpt lat="-24.7274310" lon="-53.7459010">
        <ele>567.0</ele>
        <time>2018-09-14T16:49:44Z</time>
      </trkpt>
      <trkpt lat="-24.7274610" lon="-53.7459340">
        <ele>567.0</ele>
        <time>2018-09-14T16:49:45Z</time>
      </trkpt>
      <trkpt lat="-24.7274890" lon="-53.7459680">
        <ele>567.2</ele>
        <time>2018-09-14T16:49:46Z</time>
      </trkpt>
      <trkpt lat="-24.7275070" lon="-53.7460050">
        <ele>567.3</ele>
        <time>2018-09-14T16:49:47Z</time>
      </trkpt>
      <trkpt lat="-24.7275180" lon="-53.7460430">
        <ele>567.4</ele>
        <time>2018-09-14T16:49:48Z</time>
      </trkpt>
      <trkpt lat="-24.7275230" lon="-53.7460740">
        <ele>567.4</ele>
        <time>2018-09-14T16:49:49Z</time>
      </trkpt>
      <trkpt lat="-24.7275190" lon="-53.7461060">
        <ele>567.5</ele>
        <time>2018-09-14T16:49:50Z</time>
      </trkpt>
      <trkpt lat="-24.7275190" lon="-53.7461490">
        <ele>567.6</ele>
        <time>2018-09-14T16:49:51Z</time>
      </trkpt>
      <trkpt lat="-24.7275150" lon="-53.7461860">
        <ele>567.7</ele>
        <time>2018-09-14T16:49:52Z</time>
      </trkpt>
      <trkpt lat="-24.7275160" lon="-53.7462290">
        <ele>567.9</ele>
        <time>2018-09-14T16:49:53Z</time>
      </trkpt>
      <trkpt lat="-24.7275130" lon="-53.7462680">
        <ele>568.0</ele>
        <time>2018-09-14T16:49:54Z</time>
      </trkpt>
      <trkpt lat="-24.7275110" lon="-53.7463020">
        <ele>568.1</ele>
        <time>2018-09-14T16:49:55Z</time>
      </trkpt>
      <trkpt lat="-24.7275100" lon="-53.7463360">
        <ele>568.2</ele>
        <time>2018-09-14T16:49:56Z</time>
      </trkpt>
      <trkpt lat="-24.7275100" lon="-53.7463710">
        <ele>568.4</ele>
        <time>2018-09-14T16:49:57Z</time>
      </trkpt>
      <trkpt lat="-24.7275100" lon="-53.7464050">
        <ele>568.6</ele>
        <time>2018-09-14T16:49:58Z</time>
      </trkpt>
      <trkpt lat="-24.7275070" lon="-53.7464360">
        <ele>568.9</ele>
        <time>2018-09-14T16:49:59Z</time>
      </trkpt>
      <trkpt lat="-24.7275020" lon="-53.7464690">
        <ele>569.1</ele>
        <time>2018-09-14T16:50:00Z</time>
      </trkpt>
      <trkpt lat="-24.7274960" lon="-53.7464940">
        <ele>569.4</ele>
        <time>2018-09-14T16:50:01Z</time>
      </trkpt>
      <trkpt lat="-24.7274870" lon="-53.7465230">
        <ele>569.6</ele>
        <time>2018-09-14T16:50:02Z</time>
      </trkpt>
      <trkpt lat="-24.7274820" lon="-53.7465540">
        <ele>569.9</ele>
        <time>2018-09-14T16:50:03Z</time>
      </trkpt>
      <trkpt lat="-24.7274780" lon="-53.7465890">
        <ele>570.2</ele>
        <time>2018-09-14T16:50:04Z</time>
      </trkpt>
      <trkpt lat="-24.7274750" lon="-53.7466210">
        <ele>570.3</ele>
        <time>2018-09-14T16:50:05Z</time>
      </trkpt>
      <trkpt lat="-24.7274730" lon="-53.7466520">
        <ele>570.4</ele>
        <time>2018-09-14T16:50:06Z</time>
      </trkpt>
      <trkpt lat="-24.7274740" lon="-53.7466840">
        <ele>570.6</ele>
        <time>2018-09-14T16:50:07Z</time>
      </trkpt>
      <trkpt lat="-24.7274790" lon="-53.7467170">
        <ele>570.7</ele>
        <time>2018-09-14T16:50:08Z</time>
      </trkpt>
      <trkpt lat="-24.7274890" lon="-53.7467440">
        <ele>570.8</ele>
        <time>2018-09-14T16:50:09Z</time>
      </trkpt>
      <trkpt lat="-24.7274940" lon="-53.7467670">
        <ele>570.9</ele>
        <time>2018-09-14T16:50:10Z</time>
      </trkpt>
      <trkpt lat="-24.7275020" lon="-53.7467890">
        <ele>571.0</ele>
        <time>2018-09-14T16:50:11Z</time>
      </trkpt>
      <trkpt lat="-24.7275120" lon="-53.7468090">
        <ele>570.9</ele>
        <time>2018-09-14T16:50:12Z</time>
      </trkpt>
      <trkpt lat="-24.7275310" lon="-53.7468250">
        <ele>570.8</ele>
        <time>2018-09-14T16:50:13Z</time>
      </trkpt>
      <trkpt lat="-24.7275570" lon="-53.7468290">
        <ele>570.6</ele>
        <time>2018-09-14T16:50:14Z</time>
      </trkpt>
      <trkpt lat="-24.7275840" lon="-53.7468240">
        <ele>570.5</ele>
        <time>2018-09-14T16:50:15Z</time>
      </trkpt>
      <trkpt lat="-24.7276150" lon="-53.7468210">
        <ele>570.3</ele>
        <time>2018-09-14T16:50:16Z</time>
      </trkpt>
      <trkpt lat="-24.7276480" lon="-53.7468210">
        <ele>570.3</ele>
        <time>2018-09-14T16:50:17Z</time>
      </trkpt>
      <trkpt lat="-24.7276810" lon="-53.7468210">
        <ele>570.2</ele>
        <time>2018-09-14T16:50:18Z</time>
      </trkpt>
      <trkpt lat="-24.7277150" lon="-53.7468180">
        <ele>570.1</ele>
        <time>2018-09-14T16:50:19Z</time>
      </trkpt>
      <trkpt lat="-24.7277490" lon="-53.7468150">
        <ele>570.1</ele>
        <time>2018-09-14T16:50:20Z</time>
      </trkpt>
      <trkpt lat="-24.7277850" lon="-53.7468120">
        <ele>570.0</ele>
        <time>2018-09-14T16:50:21Z</time>
      </trkpt>
      <trkpt lat="-24.7278210" lon="-53.7468120">
        <ele>569.9</ele>
        <time>2018-09-14T16:50:22Z</time>
      </trkpt>
      <trkpt lat="-24.7278570" lon="-53.7468120">
        <ele>569.9</ele>
        <time>2018-09-14T16:50:23Z</time>
      </trkpt>
      <trkpt lat="-24.7278930" lon="-53.7468130">
        <ele>569.8</ele>
        <time>2018-09-14T16:50:24Z</time>
      </trkpt>
      <trkpt lat="-24.7279300" lon="-53.7468150">
        <ele>569.7</ele>
        <time>2018-09-14T16:50:25Z</time>
      </trkpt>
      <trkpt lat="-24.7279670" lon="-53.7468150">
        <ele>569.7</ele>
        <time>2018-09-14T16:50:26Z</time>
      </trkpt>
      <trkpt lat="-24.7280040" lon="-53.7468190">
        <ele>569.6</ele>
        <time>2018-09-14T16:50:27Z</time>
      </trkpt>
      <trkpt lat="-24.7280430" lon="-53.7468230">
        <ele>569.5</ele>
        <time>2018-09-14T16:50:28Z</time>
      </trkpt>
      <trkpt lat="-24.7280820" lon="-53.7468270">
        <ele>569.5</ele>
        <time>2018-09-14T16:50:29Z</time>
      </trkpt>
      <trkpt lat="-24.7281210" lon="-53.7468290">
        <ele>569.4</ele>
        <time>2018-09-14T16:50:30Z</time>
      </trkpt>
      <trkpt lat="-24.7281600" lon="-53.7468310">
        <ele>569.3</ele>
        <time>2018-09-14T16:50:31Z</time>
      </trkpt>
      <trkpt lat="-24.7281990" lon="-53.7468320">
        <ele>569.3</ele>
        <time>2018-09-14T16:50:32Z</time>
      </trkpt>
      <trkpt lat="-24.7282380" lon="-53.7468350">
        <ele>569.2</ele>
        <time>2018-09-14T16:50:33Z</time>
      </trkpt>
      <trkpt lat="-24.7282780" lon="-53.7468360">
        <ele>569.1</ele>
        <time>2018-09-14T16:50:34Z</time>
      </trkpt>
      <trkpt lat="-24.7283180" lon="-53.7468360">
        <ele>569.0</ele>
        <time>2018-09-14T16:50:35Z</time>
      </trkpt>
      <trkpt lat="-24.7283570" lon="-53.7468360">
        <ele>568.9</ele>
        <time>2018-09-14T16:50:36Z</time>
      </trkpt>
      <trkpt lat="-24.7283930" lon="-53.7468370">
        <ele>568.8</ele>
        <time>2018-09-14T16:50:37Z</time>
      </trkpt>
      <trkpt lat="-24.7284310" lon="-53.7468350">
        <ele>568.8</ele>
        <time>2018-09-14T16:50:38Z</time>
      </trkpt>
      <trkpt lat="-24.7284700" lon="-53.7468350">
        <ele>568.7</ele>
        <time>2018-09-14T16:50:39Z</time>
      </trkpt>
      <trkpt lat="-24.7285120" lon="-53.7468340">
        <ele>568.6</ele>
        <time>2018-09-14T16:50:40Z</time>
      </trkpt>
      <trkpt lat="-24.7285540" lon="-53.7468310">
        <ele>568.5</ele>
        <time>2018-09-14T16:50:41Z</time>
      </trkpt>
      <trkpt lat="-24.7285950" lon="-53.7468310">
        <ele>568.4</ele>
        <time>2018-09-14T16:50:42Z</time>
      </trkpt>
      <trkpt lat="-24.7286360" lon="-53.7468330">
        <ele>568.3</ele>
        <time>2018-09-14T16:50:43Z</time>
      </trkpt>
      <trkpt lat="-24.7286770" lon="-53.7468370">
        <ele>568.2</ele>
        <time>2018-09-14T16:50:44Z</time>
      </trkpt>
      <trkpt lat="-24.7287180" lon="-53.7468400">
        <ele>568.1</ele>
        <time>2018-09-14T16:50:45Z</time>
      </trkpt>
      <trkpt lat="-24.7287580" lon="-53.7468430">
        <ele>568.0</ele>
        <time>2018-09-14T16:50:46Z</time>
      </trkpt>
      <trkpt lat="-24.7287970" lon="-53.7468430">
        <ele>568.0</ele>
        <time>2018-09-14T16:50:47Z</time>
      </trkpt>
      <trkpt lat="-24.7288380" lon="-53.7468410">
        <ele>568.1</ele>
        <time>2018-09-14T16:50:48Z</time>
      </trkpt>
      <trkpt lat="-24.7288810" lon="-53.7468400">
        <ele>568.2</ele>
        <time>2018-09-14T16:50:49Z</time>
      </trkpt>
      <trkpt lat="-24.7289240" lon="-53.7468390">
        <ele>568.3</ele>
        <time>2018-09-14T16:50:50Z</time>
      </trkpt>
      <trkpt lat="-24.7289670" lon="-53.7468390">
        <ele>568.3</ele>
        <time>2018-09-14T16:50:51Z</time>
      </trkpt>
      <trkpt lat="-24.7290090" lon="-53.7468360">
        <ele>568.4</ele>
        <time>2018-09-14T16:50:52Z</time>
      </trkpt>
      <trkpt lat="-24.7290490" lon="-53.7468310">
        <ele>568.5</ele>
        <time>2018-09-14T16:50:53Z</time>
      </trkpt>
      <trkpt lat="-24.7290880" lon="-53.7468270">
        <ele>568.5</ele>
        <time>2018-09-14T16:50:54Z</time>
      </trkpt>
      <trkpt lat="-24.7291270" lon="-53.7468230">
        <ele>568.6</ele>
        <time>2018-09-14T16:50:55Z</time>
      </trkpt>
      <trkpt lat="-24.7291670" lon="-53.7468230">
        <ele>568.7</ele>
        <time>2018-09-14T16:50:56Z</time>
      </trkpt>
      <trkpt lat="-24.7292060" lon="-53.7468230">
        <ele>568.7</ele>
        <time>2018-09-14T16:50:57Z</time>
      </trkpt>
      <trkpt lat="-24.7292460" lon="-53.7468230">
        <ele>568.8</ele>
        <time>2018-09-14T16:50:58Z</time>
      </trkpt>
      <trkpt lat="-24.7292850" lon="-53.7468210">
        <ele>568.8</ele>
        <time>2018-09-14T16:50:59Z</time>
      </trkpt>
      <trkpt lat="-24.7293230" lon="-53.7468180">
        <ele>568.9</ele>
        <time>2018-09-14T16:51:00Z</time>
      </trkpt>
      <trkpt lat="-24.7293610" lon="-53.7468170">
        <ele>569.0</ele>
        <time>2018-09-14T16:51:01Z</time>
      </trkpt>
      <trkpt lat="-24.7293980" lon="-53.7468200">
        <ele>569.0</ele>
        <time>2018-09-14T16:51:02Z</time>
      </trkpt>
      <trkpt lat="-24.7294350" lon="-53.7468230">
        <ele>569.1</ele>
        <time>2018-09-14T16:51:03Z</time>
      </trkpt>
      <trkpt lat="-24.7294710" lon="-53.7468280">
        <ele>569.2</ele>
        <time>2018-09-14T16:51:04Z</time>
      </trkpt>
      <trkpt lat="-24.7295080" lon="-53.7468310">
        <ele>569.3</ele>
        <time>2018-09-14T16:51:05Z</time>
      </trkpt>
      <trkpt lat="-24.7295470" lon="-53.7468330">
        <ele>569.4</ele>
        <time>2018-09-14T16:51:06Z</time>
      </trkpt>
      <trkpt lat="-24.7295870" lon="-53.7468340">
        <ele>569.5</ele>
        <time>2018-09-14T16:51:07Z</time>
      </trkpt>
      <trkpt lat="-24.7296260" lon="-53.7468360">
        <ele>569.6</ele>
        <time>2018-09-14T16:51:08Z</time>
      </trkpt>
      <trkpt lat="-24.7296660" lon="-53.7468360">
        <ele>569.7</ele>
        <time>2018-09-14T16:51:09Z</time>
      </trkpt>
      <trkpt lat="-24.7297040" lon="-53.7468370">
        <ele>569.7</ele>
        <time>2018-09-14T16:51:10Z</time>
      </trkpt>
      <trkpt lat="-24.7297410" lon="-53.7468400">
        <ele>569.8</ele>
        <time>2018-09-14T16:51:11Z</time>
      </trkpt>
      <trkpt lat="-24.7297780" lon="-53.7468440">
        <ele>569.9</ele>
        <time>2018-09-14T16:51:12Z</time>
      </trkpt>
      <trkpt lat="-24.7298150" lon="-53.7468510">
        <ele>570.0</ele>
        <time>2018-09-14T16:51:13Z</time>
      </trkpt>
      <trkpt lat="-24.7298150" lon="-53.7468510">
        <ele>570.0</ele>
        <time>2018-09-14T16:51:14Z</time>
      </trkpt>
      <trkpt lat="-24.7298480" lon="-53.7468580">
        <ele>570.2</ele>
        <time>2018-09-14T16:51:15Z</time>
      </trkpt>
      <trkpt lat="-24.7298800" lon="-53.7468570">
        <ele>570.4</ele>
        <time>2018-09-14T16:51:16Z</time>
      </trkpt>
      <trkpt lat="-24.7299110" lon="-53.7468490">
        <ele>570.5</ele>
        <time>2018-09-14T16:51:17Z</time>
      </trkpt>
      <trkpt lat="-24.7299440" lon="-53.7468390">
        <ele>570.6</ele>
        <time>2018-09-14T16:51:18Z</time>
      </trkpt>
      <trkpt lat="-24.7300210" lon="-53.7468220">
        <ele>570.8</ele>
        <time>2018-09-14T16:51:19Z</time>
      </trkpt>
      <trkpt lat="-24.7300610" lon="-53.7468190">
        <ele>570.9</ele>
        <time>2018-09-14T16:51:20Z</time>
      </trkpt>
      <trkpt lat="-24.7300610" lon="-53.7468190">
        <ele>570.9</ele>
        <time>2018-09-14T16:51:21Z</time>
      </trkpt>
      <trkpt lat="-24.7301010" lon="-53.7468190">
        <ele>571.1</ele>
        <time>2018-09-14T16:51:22Z</time>
      </trkpt>
      <trkpt lat="-24.7301400" lon="-53.7468170">
        <ele>571.3</ele>
        <time>2018-09-14T16:51:23Z</time>
      </trkpt>
      <trkpt lat="-24.7301800" lon="-53.7468170">
        <ele>571.5</ele>
        <time>2018-09-14T16:51:24Z</time>
      </trkpt>
      <trkpt lat="-24.7302210" lon="-53.7468160">
        <ele>571.5</ele>
        <time>2018-09-14T16:51:25Z</time>
      </trkpt>
      <trkpt lat="-24.7302610" lon="-53.7468160">
        <ele>571.5</ele>
        <time>2018-09-14T16:51:26Z</time>
      </trkpt>
      <trkpt lat="-24.7303010" lon="-53.7468140">
        <ele>571.5</ele>
        <time>2018-09-14T16:51:27Z</time>
      </trkpt>
      <trkpt lat="-24.7303380" lon="-53.7468140">
        <ele>571.4</ele>
        <time>2018-09-14T16:51:28Z</time>
      </trkpt>
      <trkpt lat="-24.7303770" lon="-53.7468100">
        <ele>571.4</ele>
        <time>2018-09-14T16:51:29Z</time>
      </trkpt>
      <trkpt lat="-24.7304170" lon="-53.7468080">
        <ele>571.4</ele>
        <time>2018-09-14T16:51:30Z</time>
      </trkpt>
      <trkpt lat="-24.7304550" lon="-53.7468090">
        <ele>571.4</ele>
        <time>2018-09-14T16:51:31Z</time>
      </trkpt>
      <trkpt lat="-24.7304910" lon="-53.7468180">
        <ele>571.4</ele>
        <time>2018-09-14T16:51:32Z</time>
      </trkpt>
      <trkpt lat="-24.7305300" lon="-53.7468190">
        <ele>571.4</ele>
        <time>2018-09-14T16:51:33Z</time>
      </trkpt>
      <trkpt lat="-24.7305680" lon="-53.7468210">
        <ele>571.3</ele>
        <time>2018-09-14T16:51:34Z</time>
      </trkpt>
      <trkpt lat="-24.7306050" lon="-53.7468210">
        <ele>571.2</ele>
        <time>2018-09-14T16:51:35Z</time>
      </trkpt>
      <trkpt lat="-24.7306430" lon="-53.7468230">
        <ele>571.0</ele>
        <time>2018-09-14T16:51:36Z</time>
      </trkpt>
      <trkpt lat="-24.7306800" lon="-53.7468250">
        <ele>570.8</ele>
        <time>2018-09-14T16:51:37Z</time>
      </trkpt>
      <trkpt lat="-24.7307180" lon="-53.7468230">
        <ele>570.6</ele>
        <time>2018-09-14T16:51:38Z</time>
      </trkpt>
      <trkpt lat="-24.7307550" lon="-53.7468230">
        <ele>570.3</ele>
        <time>2018-09-14T16:51:39Z</time>
      </trkpt>
      <trkpt lat="-24.7307920" lon="-53.7468220">
        <ele>570.0</ele>
        <time>2018-09-14T16:51:40Z</time>
      </trkpt>
      <trkpt lat="-24.7308270" lon="-53.7468240">
        <ele>570.0</ele>
        <time>2018-09-14T16:51:41Z</time>
      </trkpt>
      <trkpt lat="-24.7308640" lon="-53.7468250">
        <ele>570.0</ele>
        <time>2018-09-14T16:51:42Z</time>
      </trkpt>
      <trkpt lat="-24.7309020" lon="-53.7468250">
        <ele>570.0</ele>
        <time>2018-09-14T16:51:43Z</time>
      </trkpt>
      <trkpt lat="-24.7309380" lon="-53.7468260">
        <ele>570.0</ele>
        <time>2018-09-14T16:51:44Z</time>
      </trkpt>
      <trkpt lat="-24.7309750" lon="-53.7468250">
        <ele>570.0</ele>
        <time>2018-09-14T16:51:45Z</time>
      </trkpt>
      <trkpt lat="-24.7310140" lon="-53.7468230">
        <ele>570.0</ele>
        <time>2018-09-14T16:51:46Z</time>
      </trkpt>
      <trkpt lat="-24.7310530" lon="-53.7468230">
        <ele>570.0</ele>
        <time>2018-09-14T16:51:47Z</time>
      </trkpt>
      <trkpt lat="-24.7310910" lon="-53.7468230">
        <ele>570.0</ele>
        <time>2018-09-14T16:51:48Z</time>
      </trkpt>
      <trkpt lat="-24.7311300" lon="-53.7468220">
        <ele>570.0</ele>
        <time>2018-09-14T16:51:49Z</time>
      </trkpt>
      <trkpt lat="-24.7311680" lon="-53.7468230">
        <ele>570.0</ele>
        <time>2018-09-14T16:51:50Z</time>
      </trkpt>
      <trkpt lat="-24.7312060" lon="-53.7468230">
        <ele>569.9</ele>
        <time>2018-09-14T16:51:51Z</time>
      </trkpt>
      <trkpt lat="-24.7312460" lon="-53.7468220">
        <ele>569.9</ele>
        <time>2018-09-14T16:51:52Z</time>
      </trkpt>
      <trkpt lat="-24.7312880" lon="-53.7468220">
        <ele>569.9</ele>
        <time>2018-09-14T16:51:53Z</time>
      </trkpt>
      <trkpt lat="-24.7313270" lon="-53.7468260">
        <ele>569.9</ele>
        <time>2018-09-14T16:51:54Z</time>
      </trkpt>
      <trkpt lat="-24.7313670" lon="-53.7468290">
        <ele>569.9</ele>
        <time>2018-09-14T16:51:55Z</time>
      </trkpt>
      <trkpt lat="-24.7314070" lon="-53.7468310">
        <ele>569.9</ele>
        <time>2018-09-14T16:51:56Z</time>
      </trkpt>
      <trkpt lat="-24.7314480" lon="-53.7468340">
        <ele>569.9</ele>
        <time>2018-09-14T16:51:57Z</time>
      </trkpt>
      <trkpt lat="-24.7314880" lon="-53.7468360">
        <ele>569.9</ele>
        <time>2018-09-14T16:51:58Z</time>
      </trkpt>
      <trkpt lat="-24.7315280" lon="-53.7468370">
        <ele>569.9</ele>
        <time>2018-09-14T16:51:59Z</time>
      </trkpt>
      <trkpt lat="-24.7315690" lon="-53.7468370">
        <ele>569.9</ele>
        <time>2018-09-14T16:52:00Z</time>
      </trkpt>
      <trkpt lat="-24.7316090" lon="-53.7468380">
        <ele>569.9</ele>
        <time>2018-09-14T16:52:01Z</time>
      </trkpt>
      <trkpt lat="-24.7316480" lon="-53.7468410">
        <ele>569.9</ele>
        <time>2018-09-14T16:52:02Z</time>
      </trkpt>
      <trkpt lat="-24.7316870" lon="-53.7468420">
        <ele>569.9</ele>
        <time>2018-09-14T16:52:03Z</time>
      </trkpt>
      <trkpt lat="-24.7317270" lon="-53.7468400">
        <ele>569.9</ele>
        <time>2018-09-14T16:52:04Z</time>
      </trkpt>
      <trkpt lat="-24.7317660" lon="-53.7468390">
        <ele>569.9</ele>
        <time>2018-09-14T16:52:05Z</time>
      </trkpt>
      <trkpt lat="-24.7318060" lon="-53.7468420">
        <ele>569.9</ele>
        <time>2018-09-14T16:52:06Z</time>
      </trkpt>
      <trkpt lat="-24.7318470" lon="-53.7468460">
        <ele>569.9</ele>
        <time>2018-09-14T16:52:07Z</time>
      </trkpt>
      <trkpt lat="-24.7318860" lon="-53.7468500">
        <ele>569.9</ele>
        <time>2018-09-14T16:52:08Z</time>
      </trkpt>
      <trkpt lat="-24.7319240" lon="-53.7468520">
        <ele>570.0</ele>
        <time>2018-09-14T16:52:09Z</time>
      </trkpt>
      <trkpt lat="-24.7319640" lon="-53.7468500">
        <ele>570.0</ele>
        <time>2018-09-14T16:52:10Z</time>
      </trkpt>
      <trkpt lat="-24.7320030" lon="-53.7468480">
        <ele>570.0</ele>
        <time>2018-09-14T16:52:11Z</time>
      </trkpt>
      <trkpt lat="-24.7320410" lon="-53.7468480">
        <ele>570.0</ele>
        <time>2018-09-14T16:52:12Z</time>
      </trkpt>
      <trkpt lat="-24.7320820" lon="-53.7468470">
        <ele>570.1</ele>
        <time>2018-09-14T16:52:13Z</time>
      </trkpt>
      <trkpt lat="-24.7321250" lon="-53.7468450">
        <ele>570.2</ele>
        <time>2018-09-14T16:52:14Z</time>
      </trkpt>
      <trkpt lat="-24.7321690" lon="-53.7468430">
        <ele>570.3</ele>
        <time>2018-09-14T16:52:15Z</time>
      </trkpt>
      <trkpt lat="-24.7322140" lon="-53.7468420">
        <ele>570.4</ele>
        <time>2018-09-14T16:52:16Z</time>
      </trkpt>
      <trkpt lat="-24.7322590" lon="-53.7468420">
        <ele>570.4</ele>
        <time>2018-09-14T16:52:17Z</time>
      </trkpt>
      <trkpt lat="-24.7323040" lon="-53.7468430">
        <ele>570.4</ele>
        <time>2018-09-14T16:52:18Z</time>
      </trkpt>
      <trkpt lat="-24.7323510" lon="-53.7468420">
        <ele>570.1</ele>
        <time>2018-09-14T16:52:19Z</time>
      </trkpt>
      <trkpt lat="-24.7323970" lon="-53.7468430">
        <ele>569.8</ele>
        <time>2018-09-14T16:52:20Z</time>
      </trkpt>
      <trkpt lat="-24.7324420" lon="-53.7468440">
        <ele>569.7</ele>
        <time>2018-09-14T16:52:21Z</time>
      </trkpt>
      <trkpt lat="-24.7324860" lon="-53.7468450">
        <ele>569.6</ele>
        <time>2018-09-14T16:52:22Z</time>
      </trkpt>
      <trkpt lat="-24.7325350" lon="-53.7468410">
        <ele>569.6</ele>
        <time>2018-09-14T16:52:23Z</time>
      </trkpt>
      <trkpt lat="-24.7325850" lon="-53.7468360">
        <ele>569.4</ele>
        <time>2018-09-14T16:52:24Z</time>
      </trkpt>
      <trkpt lat="-24.7326320" lon="-53.7468340">
        <ele>569.3</ele>
        <time>2018-09-14T16:52:25Z</time>
      </trkpt>
      <trkpt lat="-24.7326800" lon="-53.7468320">
        <ele>569.2</ele>
        <time>2018-09-14T16:52:26Z</time>
      </trkpt>
      <trkpt lat="-24.7327270" lon="-53.7468310">
        <ele>569.0</ele>
        <time>2018-09-14T16:52:27Z</time>
      </trkpt>
      <trkpt lat="-24.7327730" lon="-53.7468300">
        <ele>568.9</ele>
        <time>2018-09-14T16:52:28Z</time>
      </trkpt>
      <trkpt lat="-24.7328180" lon="-53.7468300">
        <ele>568.9</ele>
        <time>2018-09-14T16:52:29Z</time>
      </trkpt>
      <trkpt lat="-24.7328680" lon="-53.7468310">
        <ele>569.0</ele>
        <time>2018-09-14T16:52:30Z</time>
      </trkpt>
      <trkpt lat="-24.7329180" lon="-53.7468340">
        <ele>569.5</ele>
        <time>2018-09-14T16:52:31Z</time>
      </trkpt>
      <trkpt lat="-24.7329660" lon="-53.7468350">
        <ele>570.0</ele>
        <time>2018-09-14T16:52:32Z</time>
      </trkpt>
      <trkpt lat="-24.7330110" lon="-53.7468350">
        <ele>570.0</ele>
        <time>2018-09-14T16:52:33Z</time>
      </trkpt>
      <trkpt lat="-24.7330480" lon="-53.7468340">
        <ele>570.0</ele>
        <time>2018-09-14T16:52:34Z</time>
      </trkpt>
      <trkpt lat="-24.7330760" lon="-53.7468380">
        <ele>570.0</ele>
        <time>2018-09-14T16:52:35Z</time>
      </trkpt>
      <trkpt lat="-24.7330940" lon="-53.7468510">
        <ele>570.0</ele>
        <time>2018-09-14T16:52:36Z</time>
      </trkpt>
      <trkpt lat="-24.7331060" lon="-53.7468680">
        <ele>570.0</ele>
        <time>2018-09-14T16:52:37Z</time>
      </trkpt>
      <trkpt lat="-24.7331240" lon="-53.7468790">
        <ele>570.0</ele>
        <time>2018-09-14T16:52:38Z</time>
      </trkpt>
      <trkpt lat="-24.7331480" lon="-53.7468750">
        <ele>570.0</ele>
        <time>2018-09-14T16:52:39Z</time>
      </trkpt>
      <trkpt lat="-24.7331740" lon="-53.7468600">
        <ele>569.9</ele>
        <time>2018-09-14T16:52:40Z</time>
      </trkpt>
      <trkpt lat="-24.7332060" lon="-53.7468460">
        <ele>569.9</ele>
        <time>2018-09-14T16:52:41Z</time>
      </trkpt>
      <trkpt lat="-24.7332440" lon="-53.7468360">
        <ele>569.8</ele>
        <time>2018-09-14T16:52:42Z</time>
      </trkpt>
      <trkpt lat="-24.7332860" lon="-53.7468340">
        <ele>569.7</ele>
        <time>2018-09-14T16:52:43Z</time>
      </trkpt>
      <trkpt lat="-24.7333320" lon="-53.7468320">
        <ele>569.6</ele>
        <time>2018-09-14T16:52:44Z</time>
      </trkpt>
      <trkpt lat="-24.7333810" lon="-53.7468310">
        <ele>569.5</ele>
        <time>2018-09-14T16:52:45Z</time>
      </trkpt>
      <trkpt lat="-24.7334330" lon="-53.7468310">
        <ele>569.4</ele>
        <time>2018-09-14T16:52:46Z</time>
      </trkpt>
      <trkpt lat="-24.7334860" lon="-53.7468320">
        <ele>569.3</ele>
        <time>2018-09-14T16:52:47Z</time>
      </trkpt>
      <trkpt lat="-24.7335430" lon="-53.7468310">
        <ele>569.0</ele>
        <time>2018-09-14T16:52:48Z</time>
      </trkpt>
      <trkpt lat="-24.7335990" lon="-53.7468320">
        <ele>568.7</ele>
        <time>2018-09-14T16:52:49Z</time>
      </trkpt>
      <trkpt lat="-24.7336550" lon="-53.7468310">
        <ele>568.4</ele>
        <time>2018-09-14T16:52:50Z</time>
      </trkpt>
      <trkpt lat="-24.7337070" lon="-53.7468220">
        <ele>568.2</ele>
        <time>2018-09-14T16:52:51Z</time>
      </trkpt>
      <trkpt lat="-24.7337660" lon="-53.7468160">
        <ele>567.9</ele>
        <time>2018-09-14T16:52:52Z</time>
      </trkpt>
      <trkpt lat="-24.7338250" lon="-53.7468170">
        <ele>567.6</ele>
        <time>2018-09-14T16:52:53Z</time>
      </trkpt>
      <trkpt lat="-24.7338820" lon="-53.7468230">
        <ele>567.3</ele>
        <time>2018-09-14T16:52:54Z</time>
      </trkpt>
      <trkpt lat="-24.7339870" lon="-53.7468280">
        <ele>566.7</ele>
        <time>2018-09-14T16:52:55Z</time>
      </trkpt>
      <trkpt lat="-24.7340320" lon="-53.7468310">
        <ele>566.4</ele>
        <time>2018-09-14T16:52:56Z</time>
      </trkpt>
      <trkpt lat="-24.7340720" lon="-53.7468350">
        <ele>566.2</ele>
        <time>2018-09-14T16:52:57Z</time>
      </trkpt>
      <trkpt lat="-24.7341040" lon="-53.7468380">
        <ele>566.1</ele>
        <time>2018-09-14T16:52:58Z</time>
      </trkpt>
      <trkpt lat="-24.7341290" lon="-53.7468420">
        <ele>566.0</ele>
        <time>2018-09-14T16:52:59Z</time>
      </trkpt>
      <trkpt lat="-24.7341540" lon="-53.7468500">
        <ele>564.1</ele>
        <time>2018-09-14T16:53:00Z</time>
      </trkpt>
      <trkpt lat="-24.7341790" lon="-53.7468620">
        <ele>563.1</ele>
        <time>2018-09-14T16:53:01Z</time>
      </trkpt>
      <trkpt lat="-24.7342000" lon="-53.7468800">
        <ele>562.1</ele>
        <time>2018-09-14T16:53:02Z</time>
      </trkpt>
      <trkpt lat="-24.7342220" lon="-53.7468970">
        <ele>561.1</ele>
        <time>2018-09-14T16:53:03Z</time>
      </trkpt>
      <trkpt lat="-24.7342400" lon="-53.7469010">
        <ele>560.4</ele>
        <time>2018-09-14T16:53:04Z</time>
      </trkpt>
      <trkpt lat="-24.7342570" lon="-53.7468930">
        <ele>559.7</ele>
        <time>2018-09-14T16:53:05Z</time>
      </trkpt>
      <trkpt lat="-24.7342620" lon="-53.7468840">
        <ele>559.4</ele>
        <time>2018-09-14T16:53:06Z</time>
      </trkpt>
      <trkpt lat="-24.7342640" lon="-53.7468810">
        <ele>559.3</ele>
        <time>2018-09-14T16:53:07Z</time>
      </trkpt>
      <trkpt lat="-24.7342690" lon="-53.7468760">
        <ele>559.0</ele>
        <time>2018-09-14T16:53:08Z</time>
      </trkpt>
      <trkpt lat="-24.7342760" lon="-53.7468690">
        <ele>558.7</ele>
        <time>2018-09-14T16:53:15Z</time>
      </trkpt>
      <trkpt lat="-24.7342810" lon="-53.7468660">
        <ele>558.4</ele>
        <time>2018-09-14T16:53:16Z</time>
      </trkpt>
      <trkpt lat="-24.7342820" lon="-53.7468680">
        <ele>558.4</ele>
        <time>2018-09-14T16:53:17Z</time>
      </trkpt>
      <trkpt lat="-24.7342840" lon="-53.7468700">
        <ele>558.3</ele>
        <time>2018-09-14T16:53:18Z</time>
      </trkpt>
      <trkpt lat="-24.7342830" lon="-53.7468680">
        <ele>558.2</ele>
        <time>2018-09-14T16:53:19Z</time>
      </trkpt>
      <trkpt lat="-24.7342820" lon="-53.7468690">
        <ele>558.1</ele>
        <time>2018-09-14T16:53:20Z</time>
      </trkpt>
      <trkpt lat="-24.7342830" lon="-53.7468690">
        <ele>558.1</ele>
        <time>2018-09-14T16:53:21Z</time>
      </trkpt>
      <trkpt lat="-24.7342820" lon="-53.7468700">
        <ele>558.1</ele>
        <time>2018-09-14T16:53:24Z</time>
      </trkpt>
      <trkpt lat="-24.7342830" lon="-53.7468690">
        <ele>558.0</ele>
        <time>2018-09-14T16:53:25Z</time>
      </trkpt>
      <trkpt lat="-24.7342830" lon="-53.7468700">
        <ele>558.0</ele>
        <time>2018-09-14T16:53:26Z</time>
      </trkpt>
      <trkpt lat="-24.7342920" lon="-53.7468690">
        <ele>558.0</ele>
        <time>2018-09-14T16:53:31Z</time>
      </trkpt>
      <trkpt lat="-24.7343050" lon="-53.7468650">
        <ele>558.0</ele>
        <time>2018-09-14T16:53:32Z</time>
      </trkpt>
      <trkpt lat="-24.7343260" lon="-53.7468600">
        <ele>558.0</ele>
        <time>2018-09-14T16:53:33Z</time>
      </trkpt>
      <trkpt lat="-24.7343550" lon="-53.7468520">
        <ele>557.9</ele>
        <time>2018-09-14T16:53:34Z</time>
      </trkpt>
      <trkpt lat="-24.7343880" lon="-53.7468490">
        <ele>557.8</ele>
        <time>2018-09-14T16:53:35Z</time>
      </trkpt>
      <trkpt lat="-24.7344210" lon="-53.7468490">
        <ele>557.7</ele>
        <time>2018-09-14T16:53:36Z</time>
      </trkpt>
      <trkpt lat="-24.7344550" lon="-53.7468480">
        <ele>557.4</ele>
        <time>2018-09-14T16:53:37Z</time>
      </trkpt>
      <trkpt lat="-24.7344810" lon="-53.7468500">
        <ele>557.3</ele>
        <time>2018-09-14T16:53:38Z</time>
      </trkpt>
      <trkpt lat="-24.7345000" lon="-53.7468580">
        <ele>557.1</ele>
        <time>2018-09-14T16:53:39Z</time>
      </trkpt>
      <trkpt lat="-24.7345300" lon="-53.7468550">
        <ele>556.8</ele>
        <time>2018-09-14T16:53:41Z</time>
      </trkpt>
      <trkpt lat="-24.7345320" lon="-53.7468420">
        <ele>556.7</ele>
        <time>2018-09-14T16:53:42Z</time>
      </trkpt>
      <trkpt lat="-24.7345270" lon="-53.7468270">
        <ele>556.8</ele>
        <time>2018-09-14T16:53:43Z</time>
      </trkpt>
      <trkpt lat="-24.7345150" lon="-53.7468140">
        <ele>556.9</ele>
        <time>2018-09-14T16:53:44Z</time>
      </trkpt>
      <trkpt lat="-24.7344980" lon="-53.7468100">
        <ele>557.1</ele>
        <time>2018-09-14T16:53:45Z</time>
      </trkpt>
      <trkpt lat="-24.7344820" lon="-53.7468180">
        <ele>557.2</ele>
        <time>2018-09-14T16:53:46Z</time>
      </trkpt>
      <trkpt lat="-24.7344630" lon="-53.7468200">
        <ele>557.3</ele>
        <time>2018-09-14T16:53:47Z</time>
      </trkpt>
      <trkpt lat="-24.7344410" lon="-53.7468230">
        <ele>557.5</ele>
        <time>2018-09-14T16:53:48Z</time>
      </trkpt>
      <trkpt lat="-24.7344220" lon="-53.7468270">
        <ele>557.6</ele>
        <time>2018-09-14T16:53:49Z</time>
      </trkpt>
      <trkpt lat="-24.7344080" lon="-53.7468260">
        <ele>557.7</ele>
        <time>2018-09-14T16:53:50Z</time>
      </trkpt>
      <trkpt lat="-24.7343910" lon="-53.7468350">
        <ele>557.8</ele>
        <time>2018-09-14T16:53:51Z</time>
      </trkpt>
      <trkpt lat="-24.7343640" lon="-53.7468510">
        <ele>557.8</ele>
        <time>2018-09-14T16:53:52Z</time>
      </trkpt>
      <trkpt lat="-24.7343470" lon="-53.7468620">
        <ele>557.9</ele>
        <time>2018-09-14T16:53:53Z</time>
      </trkpt>
      <trkpt lat="-24.7343350" lon="-53.7468820">
        <ele>557.9</ele>
        <time>2018-09-14T16:53:54Z</time>
      </trkpt>
      <trkpt lat="-24.7343180" lon="-53.7469130">
        <ele>558.0</ele>
        <time>2018-09-14T16:53:55Z</time>
      </trkpt>
      <trkpt lat="-24.7343040" lon="-53.7469520">
        <ele>557.9</ele>
        <time>2018-09-14T16:53:56Z</time>
      </trkpt>
      <trkpt lat="-24.7342910" lon="-53.7469820">
        <ele>557.9</ele>
        <time>2018-09-14T16:53:57Z</time>
      </trkpt>
      <trkpt lat="-24.7342850" lon="-53.7470230">
        <ele>557.9</ele>
        <time>2018-09-14T16:53:58Z</time>
      </trkpt>
      <trkpt lat="-24.7342830" lon="-53.7470600">
        <ele>557.9</ele>
        <time>2018-09-14T16:53:59Z</time>
      </trkpt>
      <trkpt lat="-24.7342840" lon="-53.7470970">
        <ele>557.8</ele>
        <time>2018-09-14T16:54:00Z</time>
      </trkpt>
      <trkpt lat="-24.7342840" lon="-53.7471410">
        <ele>557.8</ele>
        <time>2018-09-14T16:54:01Z</time>
      </trkpt>
      <trkpt lat="-24.7342810" lon="-53.7472020">
        <ele>557.7</ele>
        <time>2018-09-14T16:54:02Z</time>
      </trkpt>
      <trkpt lat="-24.7342820" lon="-53.7472500">
        <ele>557.6</ele>
        <time>2018-09-14T16:54:03Z</time>
      </trkpt>
      <trkpt lat="-24.7342810" lon="-53.7472920">
        <ele>557.5</ele>
        <time>2018-09-14T16:54:04Z</time>
      </trkpt>
      <trkpt lat="-24.7342730" lon="-53.7473260">
        <ele>557.4</ele>
        <time>2018-09-14T16:54:05Z</time>
      </trkpt>
      <trkpt lat="-24.7342670" lon="-53.7473700">
        <ele>557.2</ele>
        <time>2018-09-14T16:54:06Z</time>
      </trkpt>
      <trkpt lat="-24.7342660" lon="-53.7474100">
        <ele>557.0</ele>
        <time>2018-09-14T16:54:07Z</time>
      </trkpt>
      <trkpt lat="-24.7342670" lon="-53.7474460">
        <ele>556.9</ele>
        <time>2018-09-14T16:54:08Z</time>
      </trkpt>
      <trkpt lat="-24.7342660" lon="-53.7474870">
        <ele>556.7</ele>
        <time>2018-09-14T16:54:09Z</time>
      </trkpt>
      <trkpt lat="-24.7342620" lon="-53.7475400">
        <ele>556.5</ele>
        <time>2018-09-14T16:54:10Z</time>
      </trkpt>
      <trkpt lat="-24.7342610" lon="-53.7476100">
        <ele>556.3</ele>
        <time>2018-09-14T16:54:11Z</time>
      </trkpt>
      <trkpt lat="-24.7342610" lon="-53.7476840">
        <ele>556.2</ele>
        <time>2018-09-14T16:54:12Z</time>
      </trkpt>
      <trkpt lat="-24.7342620" lon="-53.7477380">
        <ele>556.1</ele>
        <time>2018-09-14T16:54:13Z</time>
      </trkpt>
      <trkpt lat="-24.7342640" lon="-53.7477920">
        <ele>556.0</ele>
        <time>2018-09-14T16:54:14Z</time>
      </trkpt>
      <trkpt lat="-24.7342650" lon="-53.7478480">
        <ele>556.0</ele>
        <time>2018-09-14T16:54:15Z</time>
      </trkpt>
      <trkpt lat="-24.7342690" lon="-53.7479150">
        <ele>555.9</ele>
        <time>2018-09-14T16:54:16Z</time>
      </trkpt>
      <trkpt lat="-24.7342710" lon="-53.7479640">
        <ele>555.7</ele>
        <time>2018-09-14T16:54:17Z</time>
      </trkpt>
      <trkpt lat="-24.7342680" lon="-53.7480140">
        <ele>555.5</ele>
        <time>2018-09-14T16:54:18Z</time>
      </trkpt>
      <trkpt lat="-24.7342680" lon="-53.7480590">
        <ele>555.3</ele>
        <time>2018-09-14T16:54:19Z</time>
      </trkpt>
      <trkpt lat="-24.7342680" lon="-53.7481110">
        <ele>555.1</ele>
        <time>2018-09-14T16:54:20Z</time>
      </trkpt>
      <trkpt lat="-24.7342670" lon="-53.7481610">
        <ele>554.9</ele>
        <time>2018-09-14T16:54:21Z</time>
      </trkpt>
      <trkpt lat="-24.7342620" lon="-53.7482130">
        <ele>554.6</ele>
        <time>2018-09-14T16:54:22Z</time>
      </trkpt>
      <trkpt lat="-24.7342610" lon="-53.7482580">
        <ele>554.4</ele>
        <time>2018-09-14T16:54:23Z</time>
      </trkpt>
      <trkpt lat="-24.7342580" lon="-53.7482980">
        <ele>554.3</ele>
        <time>2018-09-14T16:54:24Z</time>
      </trkpt>
      <trkpt lat="-24.7342560" lon="-53.7483460">
        <ele>554.1</ele>
        <time>2018-09-14T16:54:25Z</time>
      </trkpt>
      <trkpt lat="-24.7342560" lon="-53.7483950">
        <ele>553.7</ele>
        <time>2018-09-14T16:54:26Z</time>
      </trkpt>
      <trkpt lat="-24.7342550" lon="-53.7484500">
        <ele>553.3</ele>
        <time>2018-09-14T16:54:27Z</time>
      </trkpt>
      <trkpt lat="-24.7342520" lon="-53.7485000">
        <ele>553.0</ele>
        <time>2018-09-14T16:54:28Z</time>
      </trkpt>
      <trkpt lat="-24.7342490" lon="-53.7485510">
        <ele>553.0</ele>
        <time>2018-09-14T16:54:29Z</time>
      </trkpt>
      <trkpt lat="-24.7342480" lon="-53.7485950">
        <ele>553.0</ele>
        <time>2018-09-14T16:54:30Z</time>
      </trkpt>
      <trkpt lat="-24.7342460" lon="-53.7486350">
        <ele>553.0</ele>
        <time>2018-09-14T16:54:31Z</time>
      </trkpt>
      <trkpt lat="-24.7342480" lon="-53.7486730">
        <ele>553.0</ele>
        <time>2018-09-14T16:54:32Z</time>
      </trkpt>
      <trkpt lat="-24.7342640" lon="-53.7487220">
        <ele>553.0</ele>
        <time>2018-09-14T16:54:33Z</time>
      </trkpt>
      <trkpt lat="-24.7342730" lon="-53.7487560">
        <ele>553.0</ele>
        <time>2018-09-14T16:54:34Z</time>
      </trkpt>
      <trkpt lat="-24.7342740" lon="-53.7487880">
        <ele>553.0</ele>
        <time>2018-09-14T16:54:35Z</time>
      </trkpt>
      <trkpt lat="-24.7342720" lon="-53.7488200">
        <ele>553.0</ele>
        <time>2018-09-14T16:54:36Z</time>
      </trkpt>
      <trkpt lat="-24.7342690" lon="-53.7488470">
        <ele>553.0</ele>
        <time>2018-09-14T16:54:37Z</time>
      </trkpt>
      <trkpt lat="-24.7342610" lon="-53.7488700">
        <ele>553.0</ele>
        <time>2018-09-14T16:54:38Z</time>
      </trkpt>
      <trkpt lat="-24.7342690" lon="-53.7488950">
        <ele>553.0</ele>
        <time>2018-09-14T16:54:39Z</time>
      </trkpt>
      <trkpt lat="-24.7342670" lon="-53.7489050">
        <ele>553.0</ele>
        <time>2018-09-14T16:54:40Z</time>
      </trkpt>
      <trkpt lat="-24.7342710" lon="-53.7489140">
        <ele>553.0</ele>
        <time>2018-09-14T16:54:41Z</time>
      </trkpt>
      <trkpt lat="-24.7342720" lon="-53.7489330">
        <ele>553.0</ele>
        <time>2018-09-14T16:54:42Z</time>
      </trkpt>
      <trkpt lat="-24.7342710" lon="-53.7489370">
        <ele>553.0</ele>
        <time>2018-09-14T16:54:43Z</time>
      </trkpt>
      <trkpt lat="-24.7342760" lon="-53.7489460">
        <ele>553.0</ele>
        <time>2018-09-14T16:54:44Z</time>
      </trkpt>
      <trkpt lat="-24.7342830" lon="-53.7489510">
        <ele>553.0</ele>
        <time>2018-09-14T16:54:45Z</time>
      </trkpt>
      <trkpt lat="-24.7342850" lon="-53.7489510">
        <ele>553.0</ele>
        <time>2018-09-14T16:54:46Z</time>
      </trkpt>
      <trkpt lat="-24.7342900" lon="-53.7489550">
        <ele>553.0</ele>
        <time>2018-09-14T16:54:47Z</time>
      </trkpt>
      <trkpt lat="-24.7342890" lon="-53.7489640">
        <ele>553.0</ele>
        <time>2018-09-14T16:54:50Z</time>
      </trkpt>
      <trkpt lat="-24.7342890" lon="-53.7489770">
        <ele>553.0</ele>
        <time>2018-09-14T16:54:51Z</time>
      </trkpt>
      <trkpt lat="-24.7342910" lon="-53.7489960">
        <ele>553.0</ele>
        <time>2018-09-14T16:54:52Z</time>
      </trkpt>
      <trkpt lat="-24.7342910" lon="-53.7490290">
        <ele>553.0</ele>
        <time>2018-09-14T16:54:53Z</time>
      </trkpt>
      <trkpt lat="-24.7342860" lon="-53.7490700">
        <ele>553.0</ele>
        <time>2018-09-14T16:54:54Z</time>
      </trkpt>
      <trkpt lat="-24.7342820" lon="-53.7491160">
        <ele>552.9</ele>
        <time>2018-09-14T16:54:55Z</time>
      </trkpt>
      <trkpt lat="-24.7342800" lon="-53.7491660">
        <ele>552.9</ele>
        <time>2018-09-14T16:54:56Z</time>
      </trkpt>
      <trkpt lat="-24.7342830" lon="-53.7492150">
        <ele>552.9</ele>
        <time>2018-09-14T16:54:57Z</time>
      </trkpt>
      <trkpt lat="-24.7342850" lon="-53.7492800">
        <ele>552.8</ele>
        <time>2018-09-14T16:54:58Z</time>
      </trkpt>
      <trkpt lat="-24.7342820" lon="-53.7493410">
        <ele>552.7</ele>
        <time>2018-09-14T16:54:59Z</time>
      </trkpt>
      <trkpt lat="-24.7342710" lon="-53.7493890">
        <ele>552.7</ele>
        <time>2018-09-14T16:55:00Z</time>
      </trkpt>
      <trkpt lat="-24.7342660" lon="-53.7494390">
        <ele>552.6</ele>
        <time>2018-09-14T16:55:01Z</time>
      </trkpt>
      <trkpt lat="-24.7342580" lon="-53.7494900">
        <ele>552.6</ele>
        <time>2018-09-14T16:55:02Z</time>
      </trkpt>
      <trkpt lat="-24.7342610" lon="-53.7495430">
        <ele>552.5</ele>
        <time>2018-09-14T16:55:03Z</time>
      </trkpt>
      <trkpt lat="-24.7342640" lon="-53.7496070">
        <ele>552.4</ele>
        <time>2018-09-14T16:55:04Z</time>
      </trkpt>
      <trkpt lat="-24.7342610" lon="-53.7496590">
        <ele>552.3</ele>
        <time>2018-09-14T16:55:05Z</time>
      </trkpt>
      <trkpt lat="-24.7342690" lon="-53.7497060">
        <ele>552.1</ele>
        <time>2018-09-14T16:55:06Z</time>
      </trkpt>
      <trkpt lat="-24.7342860" lon="-53.7497490">
        <ele>552.0</ele>
        <time>2018-09-14T16:55:07Z</time>
      </trkpt>
      <trkpt lat="-24.7343130" lon="-53.7497810">
        <ele>551.7</ele>
        <time>2018-09-14T16:55:08Z</time>
      </trkpt>
      <trkpt lat="-24.7343470" lon="-53.7498080">
        <ele>551.5</ele>
        <time>2018-09-14T16:55:09Z</time>
      </trkpt>
      <trkpt lat="-24.7343850" lon="-53.7498280">
        <ele>551.3</ele>
        <time>2018-09-14T16:55:10Z</time>
      </trkpt>
      <trkpt lat="-24.7344290" lon="-53.7498460">
        <ele>551.1</ele>
        <time>2018-09-14T16:55:11Z</time>
      </trkpt>
      <trkpt lat="-24.7344860" lon="-53.7498650">
        <ele>550.9</ele>
        <time>2018-09-14T16:55:12Z</time>
      </trkpt>
      <trkpt lat="-24.7345490" lon="-53.7498790">
        <ele>550.6</ele>
        <time>2018-09-14T16:55:13Z</time>
      </trkpt>
      <trkpt lat="-24.7346130" lon="-53.7498860">
        <ele>550.2</ele>
        <time>2018-09-14T16:55:14Z</time>
      </trkpt>
      <trkpt lat="-24.7346810" lon="-53.7498920">
        <ele>549.9</ele>
        <time>2018-09-14T16:55:15Z</time>
      </trkpt>
      <trkpt lat="-24.7347490" lon="-53.7498950">
        <ele>549.5</ele>
        <time>2018-09-14T16:55:16Z</time>
      </trkpt>
      <trkpt lat="-24.7348120" lon="-53.7498970">
        <ele>549.1</ele>
        <time>2018-09-14T16:55:17Z</time>
      </trkpt>
      <trkpt lat="-24.7348120" lon="-53.7498970">
        <ele>549.1</ele>
        <time>2018-09-14T16:55:18Z</time>
      </trkpt>
      <trkpt lat="-24.7348860" lon="-53.7498980">
        <ele>548.7</ele>
        <time>2018-09-14T16:55:19Z</time>
      </trkpt>
      <trkpt lat="-24.7349580" lon="-53.7499000">
        <ele>548.4</ele>
        <time>2018-09-14T16:55:20Z</time>
      </trkpt>
      <trkpt lat="-24.7350330" lon="-53.7499090">
        <ele>548.1</ele>
        <time>2018-09-14T16:55:21Z</time>
      </trkpt>
      <trkpt lat="-24.7351090" lon="-53.7499260">
        <ele>547.6</ele>
        <time>2018-09-14T16:55:22Z</time>
      </trkpt>
      <trkpt lat="-24.7351930" lon="-53.7499550">
        <ele>547.2</ele>
        <time>2018-09-14T16:55:23Z</time>
      </trkpt>
      <trkpt lat="-24.7352670" lon="-53.7500060">
        <ele>547.2</ele>
        <time>2018-09-14T16:55:24Z</time>
      </trkpt>
      <trkpt lat="-24.7353300" lon="-53.7500750">
        <ele>548.2</ele>
        <time>2018-09-14T16:55:25Z</time>
      </trkpt>
      <trkpt lat="-24.7353930" lon="-53.7501460">
        <ele>549.2</ele>
        <time>2018-09-14T16:55:26Z</time>
      </trkpt>
      <trkpt lat="-24.7354520" lon="-53.7502140">
        <ele>550.2</ele>
        <time>2018-09-14T16:55:27Z</time>
      </trkpt>
      <trkpt lat="-24.7355100" lon="-53.7502780">
        <ele>551.3</ele>
        <time>2018-09-14T16:55:28Z</time>
      </trkpt>
      <trkpt lat="-24.7355700" lon="-53.7503300">
        <ele>552.4</ele>
        <time>2018-09-14T16:55:29Z</time>
      </trkpt>
      <trkpt lat="-24.7356370" lon="-53.7503730">
        <ele>554.0</ele>
        <time>2018-09-14T16:55:30Z</time>
      </trkpt>
      <trkpt lat="-24.7357050" lon="-53.7504110">
        <ele>553.9</ele>
        <time>2018-09-14T16:55:31Z</time>
      </trkpt>
      <trkpt lat="-24.7357740" lon="-53.7504480">
        <ele>553.9</ele>
        <time>2018-09-14T16:55:32Z</time>
      </trkpt>
      <trkpt lat="-24.7358420" lon="-53.7504890">
        <ele>553.8</ele>
        <time>2018-09-14T16:55:33Z</time>
      </trkpt>
      <trkpt lat="-24.7359110" lon="-53.7505290">
        <ele>553.8</ele>
        <time>2018-09-14T16:55:34Z</time>
      </trkpt>
      <trkpt lat="-24.7359820" lon="-53.7505700">
        <ele>553.7</ele>
        <time>2018-09-14T16:55:35Z</time>
      </trkpt>
      <trkpt lat="-24.7360570" lon="-53.7506080">
        <ele>553.7</ele>
        <time>2018-09-14T16:55:36Z</time>
      </trkpt>
      <trkpt lat="-24.7361220" lon="-53.7506530">
        <ele>553.7</ele>
        <time>2018-09-14T16:55:37Z</time>
      </trkpt>
      <trkpt lat="-24.7361930" lon="-53.7506920">
        <ele>553.6</ele>
        <time>2018-09-14T16:55:38Z</time>
      </trkpt>
      <trkpt lat="-24.7362630" lon="-53.7507290">
        <ele>553.6</ele>
        <time>2018-09-14T16:55:39Z</time>
      </trkpt>
      <trkpt lat="-24.7363300" lon="-53.7507640">
        <ele>553.6</ele>
        <time>2018-09-14T16:55:40Z</time>
      </trkpt>
      <trkpt lat="-24.7363920" lon="-53.7508010">
        <ele>553.7</ele>
        <time>2018-09-14T16:55:41Z</time>
      </trkpt>
      <trkpt lat="-24.7364520" lon="-53.7508370">
        <ele>553.7</ele>
        <time>2018-09-14T16:55:42Z</time>
      </trkpt>
      <trkpt lat="-24.7365110" lon="-53.7508720">
        <ele>553.9</ele>
        <time>2018-09-14T16:55:43Z</time>
      </trkpt>
      <trkpt lat="-24.7365680" lon="-53.7509050">
        <ele>554.0</ele>
        <time>2018-09-14T16:55:44Z</time>
      </trkpt>
      <trkpt lat="-24.7366250" lon="-53.7509310">
        <ele>554.0</ele>
        <time>2018-09-14T16:55:45Z</time>
      </trkpt>
      <trkpt lat="-24.7366730" lon="-53.7509570">
        <ele>554.1</ele>
        <time>2018-09-14T16:55:46Z</time>
      </trkpt>
      <trkpt lat="-24.7367170" lon="-53.7509830">
        <ele>554.1</ele>
        <time>2018-09-14T16:55:47Z</time>
      </trkpt>
      <trkpt lat="-24.7367590" lon="-53.7510040">
        <ele>554.0</ele>
        <time>2018-09-14T16:55:48Z</time>
      </trkpt>
      <trkpt lat="-24.7368000" lon="-53.7510200">
        <ele>554.0</ele>
        <time>2018-09-14T16:55:49Z</time>
      </trkpt>
      <trkpt lat="-24.7368390" lon="-53.7510310">
        <ele>554.0</ele>
        <time>2018-09-14T16:55:50Z</time>
      </trkpt>
      <trkpt lat="-24.7368780" lon="-53.7510400">
        <ele>553.9</ele>
        <time>2018-09-14T16:55:51Z</time>
      </trkpt>
      <trkpt lat="-24.7369160" lon="-53.7510430">
        <ele>553.9</ele>
        <time>2018-09-14T16:55:52Z</time>
      </trkpt>
      <trkpt lat="-24.7369470" lon="-53.7510500">
        <ele>553.9</ele>
        <time>2018-09-14T16:55:53Z</time>
      </trkpt>
      <trkpt lat="-24.7369810" lon="-53.7510540">
        <ele>553.8</ele>
        <time>2018-09-14T16:55:54Z</time>
      </trkpt>
      <trkpt lat="-24.7370170" lon="-53.7510540">
        <ele>553.7</ele>
        <time>2018-09-14T16:55:55Z</time>
      </trkpt>
      <trkpt lat="-24.7370550" lon="-53.7510550">
        <ele>553.6</ele>
        <time>2018-09-14T16:55:56Z</time>
      </trkpt>
      <trkpt lat="-24.7370950" lon="-53.7510540">
        <ele>553.4</ele>
        <time>2018-09-14T16:55:57Z</time>
      </trkpt>
      <trkpt lat="-24.7371430" lon="-53.7510510">
        <ele>553.2</ele>
        <time>2018-09-14T16:55:58Z</time>
      </trkpt>
      <trkpt lat="-24.7371870" lon="-53.7510460">
        <ele>553.0</ele>
        <time>2018-09-14T16:55:59Z</time>
      </trkpt>
      <trkpt lat="-24.7372320" lon="-53.7510430">
        <ele>552.8</ele>
        <time>2018-09-14T16:56:00Z</time>
      </trkpt>
      <trkpt lat="-24.7372770" lon="-53.7510400">
        <ele>552.7</ele>
        <time>2018-09-14T16:56:01Z</time>
      </trkpt>
      <trkpt lat="-24.7373220" lon="-53.7510390">
        <ele>552.6</ele>
        <time>2018-09-14T16:56:02Z</time>
      </trkpt>
      <trkpt lat="-24.7373690" lon="-53.7510390">
        <ele>552.4</ele>
        <time>2018-09-14T16:56:03Z</time>
      </trkpt>
      <trkpt lat="-24.7374190" lon="-53.7510420">
        <ele>552.2</ele>
        <time>2018-09-14T16:56:04Z</time>
      </trkpt>
      <trkpt lat="-24.7374710" lon="-53.7510420">
        <ele>552.1</ele>
        <time>2018-09-14T16:56:05Z</time>
      </trkpt>
      <trkpt lat="-24.7375230" lon="-53.7510430">
        <ele>551.9</ele>
        <time>2018-09-14T16:56:06Z</time>
      </trkpt>
      <trkpt lat="-24.7375750" lon="-53.7510460">
        <ele>551.7</ele>
        <time>2018-09-14T16:56:07Z</time>
      </trkpt>
      <trkpt lat="-24.7376290" lon="-53.7510470">
        <ele>551.6</ele>
        <time>2018-09-14T16:56:08Z</time>
      </trkpt>
      <trkpt lat="-24.7376830" lon="-53.7510470">
        <ele>551.4</ele>
        <time>2018-09-14T16:56:09Z</time>
      </trkpt>
      <trkpt lat="-24.7377390" lon="-53.7510490">
        <ele>551.2</ele>
        <time>2018-09-14T16:56:10Z</time>
      </trkpt>
      <trkpt lat="-24.7377950" lon="-53.7510500">
        <ele>551.1</ele>
        <time>2018-09-14T16:56:11Z</time>
      </trkpt>
      <trkpt lat="-24.7378530" lon="-53.7510490">
        <ele>550.9</ele>
        <time>2018-09-14T16:56:12Z</time>
      </trkpt>
      <trkpt lat="-24.7379120" lon="-53.7510480">
        <ele>550.7</ele>
        <time>2018-09-14T16:56:13Z</time>
      </trkpt>
      <trkpt lat="-24.7379700" lon="-53.7510500">
        <ele>550.6</ele>
        <time>2018-09-14T16:56:14Z</time>
      </trkpt>
      <trkpt lat="-24.7380310" lon="-53.7510530">
        <ele>550.4</ele>
        <time>2018-09-14T16:56:15Z</time>
      </trkpt>
      <trkpt lat="-24.7380930" lon="-53.7510540">
        <ele>550.3</ele>
        <time>2018-09-14T16:56:16Z</time>
      </trkpt>
      <trkpt lat="-24.7381550" lon="-53.7510540">
        <ele>550.1</ele>
        <time>2018-09-14T16:56:17Z</time>
      </trkpt>
      <trkpt lat="-24.7382190" lon="-53.7510550">
        <ele>550.0</ele>
        <time>2018-09-14T16:56:18Z</time>
      </trkpt>
      <trkpt lat="-24.7382840" lon="-53.7510540">
        <ele>549.8</ele>
        <time>2018-09-14T16:56:19Z</time>
      </trkpt>
      <trkpt lat="-24.7383500" lon="-53.7510530">
        <ele>549.7</ele>
        <time>2018-09-14T16:56:20Z</time>
      </trkpt>
      <trkpt lat="-24.7384140" lon="-53.7510540">
        <ele>549.5</ele>
        <time>2018-09-14T16:56:21Z</time>
      </trkpt>
      <trkpt lat="-24.7384810" lon="-53.7510540">
        <ele>549.3</ele>
        <time>2018-09-14T16:56:22Z</time>
      </trkpt>
      <trkpt lat="-24.7385480" lon="-53.7510560">
        <ele>549.2</ele>
        <time>2018-09-14T16:56:23Z</time>
      </trkpt>
      <trkpt lat="-24.7386150" lon="-53.7510570">
        <ele>549.0</ele>
        <time>2018-09-14T16:56:24Z</time>
      </trkpt>
      <trkpt lat="-24.7386820" lon="-53.7510590">
        <ele>548.9</ele>
        <time>2018-09-14T16:56:25Z</time>
      </trkpt>
      <trkpt lat="-24.7387480" lon="-53.7510590">
        <ele>548.7</ele>
        <time>2018-09-14T16:56:26Z</time>
      </trkpt>
      <trkpt lat="-24.7388160" lon="-53.7510590">
        <ele>548.6</ele>
        <time>2018-09-14T16:56:27Z</time>
      </trkpt>
      <trkpt lat="-24.7388840" lon="-53.7510590">
        <ele>548.5</ele>
        <time>2018-09-14T16:56:28Z</time>
      </trkpt>
      <trkpt lat="-24.7389520" lon="-53.7510600">
        <ele>548.3</ele>
        <time>2018-09-14T16:56:29Z</time>
      </trkpt>
      <trkpt lat="-24.7390200" lon="-53.7510610">
        <ele>548.2</ele>
        <time>2018-09-14T16:56:30Z</time>
      </trkpt>
      <trkpt lat="-24.7390900" lon="-53.7510600">
        <ele>547.9</ele>
        <time>2018-09-14T16:56:31Z</time>
      </trkpt>
      <trkpt lat="-24.7391600" lon="-53.7510610">
        <ele>547.8</ele>
        <time>2018-09-14T16:56:32Z</time>
      </trkpt>
      <trkpt lat="-24.7392290" lon="-53.7510610">
        <ele>547.6</ele>
        <time>2018-09-14T16:56:33Z</time>
      </trkpt>
      <trkpt lat="-24.7392950" lon="-53.7510610">
        <ele>547.5</ele>
        <time>2018-09-14T16:56:34Z</time>
      </trkpt>
      <trkpt lat="-24.7393610" lon="-53.7510620">
        <ele>547.4</ele>
        <time>2018-09-14T16:56:35Z</time>
      </trkpt>
      <trkpt lat="-24.7394250" lon="-53.7510660">
        <ele>547.3</ele>
        <time>2018-09-14T16:56:36Z</time>
      </trkpt>
      <trkpt lat="-24.7394890" lon="-53.7510680">
        <ele>547.1</ele>
        <time>2018-09-14T16:56:37Z</time>
      </trkpt>
      <trkpt lat="-24.7395500" lon="-53.7510680">
        <ele>546.9</ele>
        <time>2018-09-14T16:56:38Z</time>
      </trkpt>
      <trkpt lat="-24.7396130" lon="-53.7510690">
        <ele>546.8</ele>
        <time>2018-09-14T16:56:39Z</time>
      </trkpt>
      <trkpt lat="-24.7396740" lon="-53.7510700">
        <ele>546.7</ele>
        <time>2018-09-14T16:56:40Z</time>
      </trkpt>
      <trkpt lat="-24.7397340" lon="-53.7510700">
        <ele>546.6</ele>
        <time>2018-09-14T16:56:41Z</time>
      </trkpt>
      <trkpt lat="-24.7397920" lon="-53.7510700">
        <ele>546.5</ele>
        <time>2018-09-14T16:56:42Z</time>
      </trkpt>
      <trkpt lat="-24.7398510" lon="-53.7510720">
        <ele>546.4</ele>
        <time>2018-09-14T16:56:43Z</time>
      </trkpt>
      <trkpt lat="-24.7399080" lon="-53.7510750">
        <ele>546.3</ele>
        <time>2018-09-14T16:56:44Z</time>
      </trkpt>
      <trkpt lat="-24.7399630" lon="-53.7510790">
        <ele>546.1</ele>
        <time>2018-09-14T16:56:45Z</time>
      </trkpt>
      <trkpt lat="-24.7400200" lon="-53.7510800">
        <ele>546.0</ele>
        <time>2018-09-14T16:56:46Z</time>
      </trkpt>
      <trkpt lat="-24.7400760" lon="-53.7510810">
        <ele>546.0</ele>
        <time>2018-09-14T16:56:47Z</time>
      </trkpt>
      <trkpt lat="-24.7401310" lon="-53.7510790">
        <ele>546.0</ele>
        <time>2018-09-14T16:56:48Z</time>
      </trkpt>
      <trkpt lat="-24.7401860" lon="-53.7510790">
        <ele>546.0</ele>
        <time>2018-09-14T16:56:49Z</time>
      </trkpt>
      <trkpt lat="-24.7402390" lon="-53.7510770">
        <ele>546.0</ele>
        <time>2018-09-14T16:56:50Z</time>
      </trkpt>
      <trkpt lat="-24.7402930" lon="-53.7510760">
        <ele>546.0</ele>
        <time>2018-09-14T16:56:51Z</time>
      </trkpt>
      <trkpt lat="-24.7404020" lon="-53.7510760">
        <ele>545.9</ele>
        <time>2018-09-14T16:56:52Z</time>
      </trkpt>
      <trkpt lat="-24.7404560" lon="-53.7510760">
        <ele>545.9</ele>
        <time>2018-09-14T16:56:53Z</time>
      </trkpt>
      <trkpt lat="-24.7405110" lon="-53.7510690">
        <ele>545.9</ele>
        <time>2018-09-14T16:56:54Z</time>
      </trkpt>
      <trkpt lat="-24.7405630" lon="-53.7510640">
        <ele>545.9</ele>
        <time>2018-09-14T16:56:55Z</time>
      </trkpt>
      <trkpt lat="-24.7406160" lon="-53.7510680">
        <ele>545.8</ele>
        <time>2018-09-14T16:56:56Z</time>
      </trkpt>
      <trkpt lat="-24.7406660" lon="-53.7510720">
        <ele>545.8</ele>
        <time>2018-09-14T16:56:57Z</time>
      </trkpt>
      <trkpt lat="-24.7407620" lon="-53.7510680">
        <ele>545.8</ele>
        <time>2018-09-14T16:56:59Z</time>
      </trkpt>
      <trkpt lat="-24.7408080" lon="-53.7510690">
        <ele>545.7</ele>
        <time>2018-09-14T16:57:00Z</time>
      </trkpt>
      <trkpt lat="-24.7408520" lon="-53.7510640">
        <ele>545.6</ele>
        <time>2018-09-14T16:57:01Z</time>
      </trkpt>
      <trkpt lat="-24.7408960" lon="-53.7510600">
        <ele>545.6</ele>
        <time>2018-09-14T16:57:02Z</time>
      </trkpt>
      <trkpt lat="-24.7409380" lon="-53.7510560">
        <ele>545.5</ele>
        <time>2018-09-14T16:57:03Z</time>
      </trkpt>
      <trkpt lat="-24.7409800" lon="-53.7510560">
        <ele>545.2</ele>
        <time>2018-09-14T16:57:04Z</time>
      </trkpt>
      <trkpt lat="-24.7410200" lon="-53.7510630">
        <ele>545.0</ele>
        <time>2018-09-14T16:57:05Z</time>
      </trkpt>
      <trkpt lat="-24.7410570" lon="-53.7510710">
        <ele>544.7</ele>
        <time>2018-09-14T16:57:06Z</time>
      </trkpt>
      <trkpt lat="-24.7410950" lon="-53.7510760">
        <ele>544.6</ele>
        <time>2018-09-14T16:57:07Z</time>
      </trkpt>
      <trkpt lat="-24.7411320" lon="-53.7510790">
        <ele>544.5</ele>
        <time>2018-09-14T16:57:08Z</time>
      </trkpt>
      <trkpt lat="-24.7411680" lon="-53.7510810">
        <ele>544.4</ele>
        <time>2018-09-14T16:57:09Z</time>
      </trkpt>
      <trkpt lat="-24.7412020" lon="-53.7510830">
        <ele>544.3</ele>
        <time>2018-09-14T16:57:10Z</time>
      </trkpt>
      <trkpt lat="-24.7412340" lon="-53.7510830">
        <ele>544.2</ele>
        <time>2018-09-14T16:57:11Z</time>
      </trkpt>
      <trkpt lat="-24.7412680" lon="-53.7510800">
        <ele>544.1</ele>
        <time>2018-09-14T16:57:12Z</time>
      </trkpt>
      <trkpt lat="-24.7412990" lon="-53.7510770">
        <ele>544.0</ele>
        <time>2018-09-14T16:57:13Z</time>
      </trkpt>
      <trkpt lat="-24.7413290" lon="-53.7510810">
        <ele>544.0</ele>
        <time>2018-09-14T16:57:14Z</time>
      </trkpt>
      <trkpt lat="-24.7413620" lon="-53.7510830">
        <ele>544.0</ele>
        <time>2018-09-14T16:57:15Z</time>
      </trkpt>
      <trkpt lat="-24.7413970" lon="-53.7510820">
        <ele>544.0</ele>
        <time>2018-09-14T16:57:16Z</time>
      </trkpt>
      <trkpt lat="-24.7414310" lon="-53.7510810">
        <ele>543.9</ele>
        <time>2018-09-14T16:57:17Z</time>
      </trkpt>
      <trkpt lat="-24.7414640" lon="-53.7510750">
        <ele>543.9</ele>
        <time>2018-09-14T16:57:18Z</time>
      </trkpt>
      <trkpt lat="-24.7414920" lon="-53.7510640">
        <ele>543.9</ele>
        <time>2018-09-14T16:57:19Z</time>
      </trkpt>
      <trkpt lat="-24.7415250" lon="-53.7510600">
        <ele>543.9</ele>
        <time>2018-09-14T16:57:20Z</time>
      </trkpt>
      <trkpt lat="-24.7415600" lon="-53.7510630">
        <ele>543.9</ele>
        <time>2018-09-14T16:57:21Z</time>
      </trkpt>
      <trkpt lat="-24.7415910" lon="-53.7510710">
        <ele>543.8</ele>
        <time>2018-09-14T16:57:22Z</time>
      </trkpt>
      <trkpt lat="-24.7416230" lon="-53.7510800">
        <ele>543.8</ele>
        <time>2018-09-14T16:57:23Z</time>
      </trkpt>
      <trkpt lat="-24.7416520" lon="-53.7510870">
        <ele>543.8</ele>
        <time>2018-09-14T16:57:24Z</time>
      </trkpt>
      <trkpt lat="-24.7416820" lon="-53.7510940">
        <ele>543.8</ele>
        <time>2018-09-14T16:57:25Z</time>
      </trkpt>
      <trkpt lat="-24.7417100" lon="-53.7511010">
        <ele>543.8</ele>
        <time>2018-09-14T16:57:26Z</time>
      </trkpt>
      <trkpt lat="-24.7417390" lon="-53.7511060">
        <ele>543.8</ele>
        <time>2018-09-14T16:57:27Z</time>
      </trkpt>
      <trkpt lat="-24.7417640" lon="-53.7511090">
        <ele>543.8</ele>
        <time>2018-09-14T16:57:28Z</time>
      </trkpt>
      <trkpt lat="-24.7417940" lon="-53.7511070">
        <ele>543.7</ele>
        <time>2018-09-14T16:57:29Z</time>
      </trkpt>
      <trkpt lat="-24.7418220" lon="-53.7511020">
        <ele>543.7</ele>
        <time>2018-09-14T16:57:30Z</time>
      </trkpt>
      <trkpt lat="-24.7418530" lon="-53.7511020">
        <ele>543.7</ele>
        <time>2018-09-14T16:57:31Z</time>
      </trkpt>
      <trkpt lat="-24.7418800" lon="-53.7511030">
        <ele>543.7</ele>
        <time>2018-09-14T16:57:32Z</time>
      </trkpt>
      <trkpt lat="-24.7419080" lon="-53.7511060">
        <ele>543.7</ele>
        <time>2018-09-14T16:57:33Z</time>
      </trkpt>
      <trkpt lat="-24.7419360" lon="-53.7511070">
        <ele>543.7</ele>
        <time>2018-09-14T16:57:34Z</time>
      </trkpt>
      <trkpt lat="-24.7419640" lon="-53.7511080">
        <ele>543.6</ele>
        <time>2018-09-14T16:57:35Z</time>
      </trkpt>
      <trkpt lat="-24.7419910" lon="-53.7511110">
        <ele>543.6</ele>
        <time>2018-09-14T16:57:36Z</time>
      </trkpt>
      <trkpt lat="-24.7420170" lon="-53.7511130">
        <ele>543.6</ele>
        <time>2018-09-14T16:57:37Z</time>
      </trkpt>
      <trkpt lat="-24.7420430" lon="-53.7511140">
        <ele>543.6</ele>
        <time>2018-09-14T16:57:38Z</time>
      </trkpt>
      <trkpt lat="-24.7420690" lon="-53.7511130">
        <ele>543.6</ele>
        <time>2018-09-14T16:57:39Z</time>
      </trkpt>
      <trkpt lat="-24.7420960" lon="-53.7511120">
        <ele>543.5</ele>
        <time>2018-09-14T16:57:40Z</time>
      </trkpt>
      <trkpt lat="-24.7421240" lon="-53.7511120">
        <ele>543.5</ele>
        <time>2018-09-14T16:57:41Z</time>
      </trkpt>
      <trkpt lat="-24.7421490" lon="-53.7511090">
        <ele>543.5</ele>
        <time>2018-09-14T16:57:42Z</time>
      </trkpt>
      <trkpt lat="-24.7421760" lon="-53.7511070">
        <ele>543.5</ele>
        <time>2018-09-14T16:57:43Z</time>
      </trkpt>
      <trkpt lat="-24.7422020" lon="-53.7511020">
        <ele>543.4</ele>
        <time>2018-09-14T16:57:44Z</time>
      </trkpt>
      <trkpt lat="-24.7422300" lon="-53.7511040">
        <ele>543.4</ele>
        <time>2018-09-14T16:57:45Z</time>
      </trkpt>
      <trkpt lat="-24.7422590" lon="-53.7511140">
        <ele>543.3</ele>
        <time>2018-09-14T16:57:46Z</time>
      </trkpt>
      <trkpt lat="-24.7422910" lon="-53.7511240">
        <ele>543.3</ele>
        <time>2018-09-14T16:57:47Z</time>
      </trkpt>
      <trkpt lat="-24.7423250" lon="-53.7511320">
        <ele>543.2</ele>
        <time>2018-09-14T16:57:48Z</time>
      </trkpt>
      <trkpt lat="-24.7423630" lon="-53.7511340">
        <ele>543.2</ele>
        <time>2018-09-14T16:57:49Z</time>
      </trkpt>
      <trkpt lat="-24.7424050" lon="-53.7511330">
        <ele>543.2</ele>
        <time>2018-09-14T16:57:50Z</time>
      </trkpt>
      <trkpt lat="-24.7424480" lon="-53.7511310">
        <ele>543.1</ele>
        <time>2018-09-14T16:57:51Z</time>
      </trkpt>
      <trkpt lat="-24.7424900" lon="-53.7511310">
        <ele>543.1</ele>
        <time>2018-09-14T16:57:52Z</time>
      </trkpt>
      <trkpt lat="-24.7425330" lon="-53.7511330">
        <ele>543.1</ele>
        <time>2018-09-14T16:57:53Z</time>
      </trkpt>
      <trkpt lat="-24.7425770" lon="-53.7511310">
        <ele>543.0</ele>
        <time>2018-09-14T16:57:54Z</time>
      </trkpt>
      <trkpt lat="-24.7426170" lon="-53.7511190">
        <ele>542.8</ele>
        <time>2018-09-14T16:57:55Z</time>
      </trkpt>
      <trkpt lat="-24.7426560" lon="-53.7511000">
        <ele>542.5</ele>
        <time>2018-09-14T16:57:56Z</time>
      </trkpt>
      <trkpt lat="-24.7426990" lon="-53.7510900">
        <ele>542.1</ele>
        <time>2018-09-14T16:57:57Z</time>
      </trkpt>
      <trkpt lat="-24.7427430" lon="-53.7510890">
        <ele>541.8</ele>
        <time>2018-09-14T16:57:58Z</time>
      </trkpt>
      <trkpt lat="-24.7427900" lon="-53.7510930">
        <ele>541.5</ele>
        <time>2018-09-14T16:57:59Z</time>
      </trkpt>
      <trkpt lat="-24.7428380" lon="-53.7510970">
        <ele>541.3</ele>
        <time>2018-09-14T16:58:00Z</time>
      </trkpt>
      <trkpt lat="-24.7428860" lon="-53.7510990">
        <ele>541.1</ele>
        <time>2018-09-14T16:58:01Z</time>
      </trkpt>
      <trkpt lat="-24.7429340" lon="-53.7511000">
        <ele>540.9</ele>
        <time>2018-09-14T16:58:02Z</time>
      </trkpt>
      <trkpt lat="-24.7429850" lon="-53.7511020">
        <ele>540.7</ele>
        <time>2018-09-14T16:58:03Z</time>
      </trkpt>
      <trkpt lat="-24.7430350" lon="-53.7511050">
        <ele>540.5</ele>
        <time>2018-09-14T16:58:04Z</time>
      </trkpt>
      <trkpt lat="-24.7430850" lon="-53.7511080">
        <ele>540.2</ele>
        <time>2018-09-14T16:58:05Z</time>
      </trkpt>
      <trkpt lat="-24.7431370" lon="-53.7511110">
        <ele>540.0</ele>
        <time>2018-09-14T16:58:06Z</time>
      </trkpt>
      <trkpt lat="-24.7431910" lon="-53.7511150">
        <ele>539.8</ele>
        <time>2018-09-14T16:58:07Z</time>
      </trkpt>
      <trkpt lat="-24.7432470" lon="-53.7511180">
        <ele>539.5</ele>
        <time>2018-09-14T16:58:08Z</time>
      </trkpt>
      <trkpt lat="-24.7433040" lon="-53.7511210">
        <ele>539.3</ele>
        <time>2018-09-14T16:58:09Z</time>
      </trkpt>
      <trkpt lat="-24.7433630" lon="-53.7511240">
        <ele>539.0</ele>
        <time>2018-09-14T16:58:10Z</time>
      </trkpt>
      <trkpt lat="-24.7434230" lon="-53.7511250">
        <ele>539.0</ele>
        <time>2018-09-14T16:58:11Z</time>
      </trkpt>
      <trkpt lat="-24.7434850" lon="-53.7511240">
        <ele>539.1</ele>
        <time>2018-09-14T16:58:12Z</time>
      </trkpt>
      <trkpt lat="-24.7435470" lon="-53.7511230">
        <ele>539.1</ele>
        <time>2018-09-14T16:58:13Z</time>
      </trkpt>
      <trkpt lat="-24.7436110" lon="-53.7511230">
        <ele>539.1</ele>
        <time>2018-09-14T16:58:14Z</time>
      </trkpt>
      <trkpt lat="-24.7436700" lon="-53.7511260">
        <ele>539.1</ele>
        <time>2018-09-14T16:58:15Z</time>
      </trkpt>
      <trkpt lat="-24.7437350" lon="-53.7511280">
        <ele>539.1</ele>
        <time>2018-09-14T16:58:16Z</time>
      </trkpt>
      <trkpt lat="-24.7438000" lon="-53.7511280">
        <ele>539.1</ele>
        <time>2018-09-14T16:58:17Z</time>
      </trkpt>
      <trkpt lat="-24.7438630" lon="-53.7511270">
        <ele>539.0</ele>
        <time>2018-09-14T16:58:18Z</time>
      </trkpt>
      <trkpt lat="-24.7439240" lon="-53.7511280">
        <ele>539.0</ele>
        <time>2018-09-14T16:58:19Z</time>
      </trkpt>
      <trkpt lat="-24.7439810" lon="-53.7511340">
        <ele>539.0</ele>
        <time>2018-09-14T16:58:20Z</time>
      </trkpt>
      <trkpt lat="-24.7440310" lon="-53.7511400">
        <ele>539.0</ele>
        <time>2018-09-14T16:58:21Z</time>
      </trkpt>
      <trkpt lat="-24.7440760" lon="-53.7511440">
        <ele>539.0</ele>
        <time>2018-09-14T16:58:22Z</time>
      </trkpt>
      <trkpt lat="-24.7441150" lon="-53.7511430">
        <ele>539.0</ele>
        <time>2018-09-14T16:58:23Z</time>
      </trkpt>
      <trkpt lat="-24.7441480" lon="-53.7511270">
        <ele>539.0</ele>
        <time>2018-09-14T16:58:24Z</time>
      </trkpt>
      <trkpt lat="-24.7441660" lon="-53.7510970">
        <ele>539.1</ele>
        <time>2018-09-14T16:58:25Z</time>
      </trkpt>
      <trkpt lat="-24.7441750" lon="-53.7510560">
        <ele>539.3</ele>
        <time>2018-09-14T16:58:26Z</time>
      </trkpt>
      <trkpt lat="-24.7441780" lon="-53.7510130">
        <ele>539.4</ele>
        <time>2018-09-14T16:58:27Z</time>
      </trkpt>
      <trkpt lat="-24.7441790" lon="-53.7509650">
        <ele>539.6</ele>
        <time>2018-09-14T16:58:28Z</time>
      </trkpt>
      <trkpt lat="-24.7441800" lon="-53.7509170">
        <ele>539.9</ele>
        <time>2018-09-14T16:58:29Z</time>
      </trkpt>
      <trkpt lat="-24.7441800" lon="-53.7508660">
        <ele>540.1</ele>
        <time>2018-09-14T16:58:30Z</time>
      </trkpt>
      <trkpt lat="-24.7441820" lon="-53.7508140">
        <ele>540.3</ele>
        <time>2018-09-14T16:58:31Z</time>
      </trkpt>
      <trkpt lat="-24.7441920" lon="-53.7507580">
        <ele>540.5</ele>
        <time>2018-09-14T16:58:32Z</time>
      </trkpt>
      <trkpt lat="-24.7442010" lon="-53.7507010">
        <ele>540.8</ele>
        <time>2018-09-14T16:58:33Z</time>
      </trkpt>
      <trkpt lat="-24.7442060" lon="-53.7506430">
        <ele>540.9</ele>
        <time>2018-09-14T16:58:34Z</time>
      </trkpt>
      <trkpt lat="-24.7442060" lon="-53.7505870">
        <ele>540.5</ele>
        <time>2018-09-14T16:58:35Z</time>
      </trkpt>
      <trkpt lat="-24.7442060" lon="-53.7505340">
        <ele>540.1</ele>
        <time>2018-09-14T16:58:36Z</time>
      </trkpt>
      <trkpt lat="-24.7442030" lon="-53.7504760">
        <ele>540.0</ele>
        <time>2018-09-14T16:58:37Z</time>
      </trkpt>
      <trkpt lat="-24.7441990" lon="-53.7504160">
        <ele>539.9</ele>
        <time>2018-09-14T16:58:38Z</time>
      </trkpt>
      <trkpt lat="-24.7441980" lon="-53.7503610">
        <ele>539.7</ele>
        <time>2018-09-14T16:58:39Z</time>
      </trkpt>
      <trkpt lat="-24.7442010" lon="-53.7503060">
        <ele>539.6</ele>
        <time>2018-09-14T16:58:40Z</time>
      </trkpt>
      <trkpt lat="-24.7442120" lon="-53.7502570">
        <ele>539.5</ele>
        <time>2018-09-14T16:58:41Z</time>
      </trkpt>
      <trkpt lat="-24.7442180" lon="-53.7502000">
        <ele>539.5</ele>
        <time>2018-09-14T16:58:42Z</time>
      </trkpt>
      <trkpt lat="-24.7442190" lon="-53.7501330">
        <ele>539.4</ele>
        <time>2018-09-14T16:58:43Z</time>
      </trkpt>
      <trkpt lat="-24.7442130" lon="-53.7500770">
        <ele>539.4</ele>
        <time>2018-09-14T16:58:44Z</time>
      </trkpt>
      <trkpt lat="-24.7441950" lon="-53.7500330">
        <ele>539.3</ele>
        <time>2018-09-14T16:58:45Z</time>
      </trkpt>
      <trkpt lat="-24.7441720" lon="-53.7499850">
        <ele>539.3</ele>
        <time>2018-09-14T16:58:46Z</time>
      </trkpt>
      <trkpt lat="-24.7441660" lon="-53.7499260">
        <ele>539.3</ele>
        <time>2018-09-14T16:58:47Z</time>
      </trkpt>
      <trkpt lat="-24.7441690" lon="-53.7498680">
        <ele>539.3</ele>
        <time>2018-09-14T16:58:48Z</time>
      </trkpt>
      <trkpt lat="-24.7441680" lon="-53.7498140">
        <ele>539.2</ele>
        <time>2018-09-14T16:58:49Z</time>
      </trkpt>
      <trkpt lat="-24.7441630" lon="-53.7497600">
        <ele>539.2</ele>
        <time>2018-09-14T16:58:50Z</time>
      </trkpt>
      <trkpt lat="-24.7441520" lon="-53.7497140">
        <ele>539.1</ele>
        <time>2018-09-14T16:58:51Z</time>
      </trkpt>
      <trkpt lat="-24.7441450" lon="-53.7496680">
        <ele>539.0</ele>
        <time>2018-09-14T16:58:52Z</time>
      </trkpt>
      <trkpt lat="-24.7441310" lon="-53.7496260">
        <ele>538.9</ele>
        <time>2018-09-14T16:58:53Z</time>
      </trkpt>
      <trkpt lat="-24.7441280" lon="-53.7495770">
        <ele>538.8</ele>
        <time>2018-09-14T16:58:54Z</time>
      </trkpt>
      <trkpt lat="-24.7441280" lon="-53.7495310">
        <ele>538.6</ele>
        <time>2018-09-14T16:58:55Z</time>
      </trkpt>
      <trkpt lat="-24.7441380" lon="-53.7494900">
        <ele>538.4</ele>
        <time>2018-09-14T16:58:56Z</time>
      </trkpt>
      <trkpt lat="-24.7441510" lon="-53.7494460">
        <ele>538.1</ele>
        <time>2018-09-14T16:58:57Z</time>
      </trkpt>
      <trkpt lat="-24.7441580" lon="-53.7493990">
        <ele>537.6</ele>
        <time>2018-09-14T16:58:58Z</time>
      </trkpt>
      <trkpt lat="-24.7441540" lon="-53.7493470">
        <ele>537.0</ele>
        <time>2018-09-14T16:58:59Z</time>
      </trkpt>
      <trkpt lat="-24.7441490" lon="-53.7492910">
        <ele>536.5</ele>
        <time>2018-09-14T16:59:00Z</time>
      </trkpt>
      <trkpt lat="-24.7441390" lon="-53.7492440">
        <ele>536.1</ele>
        <time>2018-09-14T16:59:01Z</time>
      </trkpt>
      <trkpt lat="-24.7441330" lon="-53.7492050">
        <ele>535.7</ele>
        <time>2018-09-14T16:59:02Z</time>
      </trkpt>
      <trkpt lat="-24.7441110" lon="-53.7491770">
        <ele>535.4</ele>
        <time>2018-09-14T16:59:03Z</time>
      </trkpt>
      <trkpt lat="-24.7441090" lon="-53.7491550">
        <ele>535.2</ele>
        <time>2018-09-14T16:59:04Z</time>
      </trkpt>
      <trkpt lat="-24.7441250" lon="-53.7491250">
        <ele>534.9</ele>
        <time>2018-09-14T16:59:05Z</time>
      </trkpt>
      <trkpt lat="-24.7441340" lon="-53.7490920">
        <ele>534.6</ele>
        <time>2018-09-14T16:59:06Z</time>
      </trkpt>
      <trkpt lat="-24.7441270" lon="-53.7490520">
        <ele>534.3</ele>
        <time>2018-09-14T16:59:07Z</time>
      </trkpt>
      <trkpt lat="-24.7441300" lon="-53.7490100">
        <ele>533.9</ele>
        <time>2018-09-14T16:59:08Z</time>
      </trkpt>
      <trkpt lat="-24.7441370" lon="-53.7489560">
        <ele>533.5</ele>
        <time>2018-09-14T16:59:09Z</time>
      </trkpt>
      <trkpt lat="-24.7441510" lon="-53.7488990">
        <ele>533.0</ele>
        <time>2018-09-14T16:59:10Z</time>
      </trkpt>
      <trkpt lat="-24.7441640" lon="-53.7488370">
        <ele>533.0</ele>
        <time>2018-09-14T16:59:11Z</time>
      </trkpt>
      <trkpt lat="-24.7441660" lon="-53.7487910">
        <ele>533.0</ele>
        <time>2018-09-14T16:59:12Z</time>
      </trkpt>
      <trkpt lat="-24.7441680" lon="-53.7487500">
        <ele>533.2</ele>
        <time>2018-09-14T16:59:13Z</time>
      </trkpt>
      <trkpt lat="-24.7441680" lon="-53.7487500">
        <ele>533.2</ele>
        <time>2018-09-14T16:59:14Z</time>
      </trkpt>
      <trkpt lat="-24.7441530" lon="-53.7487680">
        <ele>533.2</ele>
        <time>2018-09-14T16:59:15Z</time>
      </trkpt>
      <trkpt lat="-24.7441630" lon="-53.7487230">
        <ele>533.4</ele>
        <time>2018-09-14T16:59:16Z</time>
      </trkpt>
      <trkpt lat="-24.7441890" lon="-53.7486690">
        <ele>533.6</ele>
        <time>2018-09-14T16:59:17Z</time>
      </trkpt>
      <trkpt lat="-24.7441960" lon="-53.7486250">
        <ele>533.6</ele>
        <time>2018-09-14T16:59:18Z</time>
      </trkpt>
      <trkpt lat="-24.7441980" lon="-53.7485760">
        <ele>533.5</ele>
        <time>2018-09-14T16:59:19Z</time>
      </trkpt>
      <trkpt lat="-24.7441960" lon="-53.7485320">
        <ele>533.5</ele>
        <time>2018-09-14T16:59:20Z</time>
      </trkpt>
      <trkpt lat="-24.7441980" lon="-53.7484840">
        <ele>533.4</ele>
        <time>2018-09-14T16:59:21Z</time>
      </trkpt>
      <trkpt lat="-24.7442020" lon="-53.7484350">
        <ele>533.4</ele>
        <time>2018-09-14T16:59:22Z</time>
      </trkpt>
      <trkpt lat="-24.7442050" lon="-53.7483850">
        <ele>533.5</ele>
        <time>2018-09-14T16:59:23Z</time>
      </trkpt>
      <trkpt lat="-24.7442060" lon="-53.7483330">
        <ele>533.4</ele>
        <time>2018-09-14T16:59:24Z</time>
      </trkpt>
      <trkpt lat="-24.7442110" lon="-53.7482810">
        <ele>533.2</ele>
        <time>2018-09-14T16:59:25Z</time>
      </trkpt>
      <trkpt lat="-24.7442150" lon="-53.7482340">
        <ele>532.8</ele>
        <time>2018-09-14T16:59:26Z</time>
      </trkpt>
      <trkpt lat="-24.7442210" lon="-53.7481850">
        <ele>532.4</ele>
        <time>2018-09-14T16:59:27Z</time>
      </trkpt>
      <trkpt lat="-24.7442230" lon="-53.7481360">
        <ele>532.2</ele>
        <time>2018-09-14T16:59:28Z</time>
      </trkpt>
      <trkpt lat="-24.7442310" lon="-53.7480850">
        <ele>531.9</ele>
        <time>2018-09-14T16:59:29Z</time>
      </trkpt>
      <trkpt lat="-24.7442450" lon="-53.7480320">
        <ele>531.7</ele>
        <time>2018-09-14T16:59:30Z</time>
      </trkpt>
      <trkpt lat="-24.7442600" lon="-53.7479890">
        <ele>531.6</ele>
        <time>2018-09-14T16:59:31Z</time>
      </trkpt>
      <trkpt lat="-24.7442700" lon="-53.7479410">
        <ele>531.5</ele>
        <time>2018-09-14T16:59:32Z</time>
      </trkpt>
      <trkpt lat="-24.7442750" lon="-53.7479110">
        <ele>531.4</ele>
        <time>2018-09-14T16:59:33Z</time>
      </trkpt>
      <trkpt lat="-24.7442670" lon="-53.7478660">
        <ele>531.3</ele>
        <time>2018-09-14T16:59:34Z</time>
      </trkpt>
      <trkpt lat="-24.7442590" lon="-53.7478300">
        <ele>531.2</ele>
        <time>2018-09-14T16:59:35Z</time>
      </trkpt>
      <trkpt lat="-24.7442510" lon="-53.7477940">
        <ele>531.1</ele>
        <time>2018-09-14T16:59:36Z</time>
      </trkpt>
      <trkpt lat="-24.7442550" lon="-53.7477520">
        <ele>531.1</ele>
        <time>2018-09-14T16:59:37Z</time>
      </trkpt>
      <trkpt lat="-24.7442660" lon="-53.7476970">
        <ele>531.0</ele>
        <time>2018-09-14T16:59:38Z</time>
      </trkpt>
      <trkpt lat="-24.7442740" lon="-53.7476480">
        <ele>531.0</ele>
        <time>2018-09-14T16:59:39Z</time>
      </trkpt>
      <trkpt lat="-24.7442800" lon="-53.7475970">
        <ele>531.0</ele>
        <time>2018-09-14T16:59:40Z</time>
      </trkpt>
      <trkpt lat="-24.7442810" lon="-53.7475420">
        <ele>531.0</ele>
        <time>2018-09-14T16:59:41Z</time>
      </trkpt>
      <trkpt lat="-24.7442820" lon="-53.7474850">
        <ele>531.0</ele>
        <time>2018-09-14T16:59:42Z</time>
      </trkpt>
      <trkpt lat="-24.7442860" lon="-53.7474310">
        <ele>531.0</ele>
        <time>2018-09-14T16:59:43Z</time>
      </trkpt>
      <trkpt lat="-24.7442900" lon="-53.7473740">
        <ele>530.9</ele>
        <time>2018-09-14T16:59:44Z</time>
      </trkpt>
      <trkpt lat="-24.7442920" lon="-53.7473180">
        <ele>530.9</ele>
        <time>2018-09-14T16:59:45Z</time>
      </trkpt>
      <trkpt lat="-24.7442900" lon="-53.7472610">
        <ele>531.0</ele>
        <time>2018-09-14T16:59:46Z</time>
      </trkpt>
      <trkpt lat="-24.7442860" lon="-53.7472040">
        <ele>531.0</ele>
        <time>2018-09-14T16:59:47Z</time>
      </trkpt>
      <trkpt lat="-24.7442800" lon="-53.7471480">
        <ele>531.1</ele>
        <time>2018-09-14T16:59:48Z</time>
      </trkpt>
      <trkpt lat="-24.7442790" lon="-53.7470960">
        <ele>531.0</ele>
        <time>2018-09-14T16:59:49Z</time>
      </trkpt>
      <trkpt lat="-24.7442870" lon="-53.7470550">
        <ele>530.8</ele>
        <time>2018-09-14T16:59:50Z</time>
      </trkpt>
      <trkpt lat="-24.7443040" lon="-53.7470280">
        <ele>530.0</ele>
        <time>2018-09-14T16:59:51Z</time>
      </trkpt>
      <trkpt lat="-24.7443230" lon="-53.7470150">
        <ele>530.0</ele>
        <time>2018-09-14T16:59:52Z</time>
      </trkpt>
      <trkpt lat="-24.7443450" lon="-53.7470080">
        <ele>529.9</ele>
        <time>2018-09-14T16:59:53Z</time>
      </trkpt>
      <trkpt lat="-24.7443680" lon="-53.7470020">
        <ele>529.9</ele>
        <time>2018-09-14T16:59:54Z</time>
      </trkpt>
      <trkpt lat="-24.7443930" lon="-53.7469920">
        <ele>529.9</ele>
        <time>2018-09-14T16:59:55Z</time>
      </trkpt>
      <trkpt lat="-24.7444210" lon="-53.7469820">
        <ele>529.8</ele>
        <time>2018-09-14T16:59:56Z</time>
      </trkpt>
      <trkpt lat="-24.7444510" lon="-53.7469740">
        <ele>529.7</ele>
        <time>2018-09-14T16:59:57Z</time>
      </trkpt>
      <trkpt lat="-24.7444850" lon="-53.7469680">
        <ele>529.5</ele>
        <time>2018-09-14T16:59:58Z</time>
      </trkpt>
      <trkpt lat="-24.7445230" lon="-53.7469640">
        <ele>529.3</ele>
        <time>2018-09-14T16:59:59Z</time>
      </trkpt>
      <trkpt lat="-24.7445630" lon="-53.7469620">
        <ele>529.0</ele>
        <time>2018-09-14T17:00:00Z</time>
      </trkpt>
      <trkpt lat="-24.7446050" lon="-53.7469640">
        <ele>528.7</ele>
        <time>2018-09-14T17:00:01Z</time>
      </trkpt>
      <trkpt lat="-24.7446460" lon="-53.7469680">
        <ele>528.5</ele>
        <time>2018-09-14T17:00:02Z</time>
      </trkpt>
      <trkpt lat="-24.7446880" lon="-53.7469720">
        <ele>528.2</ele>
        <time>2018-09-14T17:00:03Z</time>
      </trkpt>
      <trkpt lat="-24.7447300" lon="-53.7469750">
        <ele>527.9</ele>
        <time>2018-09-14T17:00:04Z</time>
      </trkpt>
      <trkpt lat="-24.7447710" lon="-53.7469750">
        <ele>527.7</ele>
        <time>2018-09-14T17:00:05Z</time>
      </trkpt>
      <trkpt lat="-24.7448130" lon="-53.7469740">
        <ele>527.4</ele>
        <time>2018-09-14T17:00:06Z</time>
      </trkpt>
      <trkpt lat="-24.7448590" lon="-53.7469750">
        <ele>527.1</ele>
        <time>2018-09-14T17:00:07Z</time>
      </trkpt>
      <trkpt lat="-24.7449030" lon="-53.7469750">
        <ele>526.9</ele>
        <time>2018-09-14T17:00:08Z</time>
      </trkpt>
      <trkpt lat="-24.7449500" lon="-53.7469770">
        <ele>526.5</ele>
        <time>2018-09-14T17:00:09Z</time>
      </trkpt>
      <trkpt lat="-24.7449980" lon="-53.7469790">
        <ele>526.2</ele>
        <time>2018-09-14T17:00:10Z</time>
      </trkpt>
      <trkpt lat="-24.7450460" lon="-53.7469820">
        <ele>526.0</ele>
        <time>2018-09-14T17:00:11Z</time>
      </trkpt>
      <trkpt lat="-24.7450950" lon="-53.7469850">
        <ele>526.0</ele>
        <time>2018-09-14T17:00:12Z</time>
      </trkpt>
      <trkpt lat="-24.7451450" lon="-53.7469870">
        <ele>526.2</ele>
        <time>2018-09-14T17:00:13Z</time>
      </trkpt>
      <trkpt lat="-24.7451970" lon="-53.7469900">
        <ele>526.4</ele>
        <time>2018-09-14T17:00:14Z</time>
      </trkpt>
      <trkpt lat="-24.7452490" lon="-53.7469890">
        <ele>526.9</ele>
        <time>2018-09-14T17:00:15Z</time>
      </trkpt>
      <trkpt lat="-24.7453020" lon="-53.7469860">
        <ele>527.1</ele>
        <time>2018-09-14T17:00:16Z</time>
      </trkpt>
      <trkpt lat="-24.7453560" lon="-53.7469860">
        <ele>527.2</ele>
        <time>2018-09-14T17:00:17Z</time>
      </trkpt>
      <trkpt lat="-24.7454120" lon="-53.7469860">
        <ele>526.8</ele>
        <time>2018-09-14T17:00:18Z</time>
      </trkpt>
      <trkpt lat="-24.7454650" lon="-53.7469860">
        <ele>526.5</ele>
        <time>2018-09-14T17:00:19Z</time>
      </trkpt>
      <trkpt lat="-24.7455180" lon="-53.7469870">
        <ele>526.1</ele>
        <time>2018-09-14T17:00:20Z</time>
      </trkpt>
      <trkpt lat="-24.7455680" lon="-53.7469870">
        <ele>525.8</ele>
        <time>2018-09-14T17:00:21Z</time>
      </trkpt>
      <trkpt lat="-24.7456140" lon="-53.7469860">
        <ele>525.7</ele>
        <time>2018-09-14T17:00:22Z</time>
      </trkpt>
      <trkpt lat="-24.7456530" lon="-53.7469850">
        <ele>525.7</ele>
        <time>2018-09-14T17:00:23Z</time>
      </trkpt>
      <trkpt lat="-24.7456850" lon="-53.7469830">
        <ele>525.7</ele>
        <time>2018-09-14T17:00:24Z</time>
      </trkpt>
      <trkpt lat="-24.7457030" lon="-53.7469670">
        <ele>525.8</ele>
        <time>2018-09-14T17:00:25Z</time>
      </trkpt>
      <trkpt lat="-24.7457060" lon="-53.7469390">
        <ele>525.9</ele>
        <time>2018-09-14T17:00:26Z</time>
      </trkpt>
      <trkpt lat="-24.7456940" lon="-53.7469070">
        <ele>525.8</ele>
        <time>2018-09-14T17:00:27Z</time>
      </trkpt>
      <trkpt lat="-24.7456820" lon="-53.7468760">
        <ele>525.7</ele>
        <time>2018-09-14T17:00:28Z</time>
      </trkpt>
      <trkpt lat="-24.7456700" lon="-53.7468430">
        <ele>525.7</ele>
        <time>2018-09-14T17:00:29Z</time>
      </trkpt>
      <trkpt lat="-24.7456580" lon="-53.7468080">
        <ele>525.6</ele>
        <time>2018-09-14T17:00:30Z</time>
      </trkpt>
      <trkpt lat="-24.7456430" lon="-53.7467730">
        <ele>525.5</ele>
        <time>2018-09-14T17:00:31Z</time>
      </trkpt>
      <trkpt lat="-24.7456230" lon="-53.7467390">
        <ele>525.4</ele>
        <time>2018-09-14T17:00:32Z</time>
      </trkpt>
      <trkpt lat="-24.7456020" lon="-53.7467070">
        <ele>525.1</ele>
        <time>2018-09-14T17:00:33Z</time>
      </trkpt>
      <trkpt lat="-24.7455810" lon="-53.7466740">
        <ele>524.8</ele>
        <time>2018-09-14T17:00:34Z</time>
      </trkpt>
      <trkpt lat="-24.7455620" lon="-53.7466390">
        <ele>524.5</ele>
        <time>2018-09-14T17:00:35Z</time>
      </trkpt>
      <trkpt lat="-24.7455420" lon="-53.7466040">
        <ele>524.2</ele>
        <time>2018-09-14T17:00:36Z</time>
      </trkpt>
      <trkpt lat="-24.7455230" lon="-53.7465690">
        <ele>524.0</ele>
        <time>2018-09-14T17:00:37Z</time>
      </trkpt>
      <trkpt lat="-24.7454960" lon="-53.7465390">
        <ele>523.9</ele>
        <time>2018-09-14T17:00:38Z</time>
      </trkpt>
      <trkpt lat="-24.7454720" lon="-53.7465070">
        <ele>523.8</ele>
        <time>2018-09-14T17:00:39Z</time>
      </trkpt>
      <trkpt lat="-24.7454540" lon="-53.7464720">
        <ele>523.7</ele>
        <time>2018-09-14T17:00:40Z</time>
      </trkpt>
      <trkpt lat="-24.7454320" lon="-53.7464390">
        <ele>523.6</ele>
        <time>2018-09-14T17:00:41Z</time>
      </trkpt>
      <trkpt lat="-24.7454100" lon="-53.7464070">
        <ele>523.5</ele>
        <time>2018-09-14T17:00:42Z</time>
      </trkpt>
      <trkpt lat="-24.7453960" lon="-53.7463720">
        <ele>523.4</ele>
        <time>2018-09-14T17:00:43Z</time>
      </trkpt>
      <trkpt lat="-24.7453810" lon="-53.7463350">
        <ele>523.3</ele>
        <time>2018-09-14T17:00:44Z</time>
      </trkpt>
      <trkpt lat="-24.7453620" lon="-53.7463000">
        <ele>523.2</ele>
        <time>2018-09-14T17:00:45Z</time>
      </trkpt>
      <trkpt lat="-24.7453460" lon="-53.7462640">
        <ele>523.1</ele>
        <time>2018-09-14T17:00:46Z</time>
      </trkpt>
      <trkpt lat="-24.7453290" lon="-53.7462290">
        <ele>523.0</ele>
        <time>2018-09-14T17:00:47Z</time>
      </trkpt>
      <trkpt lat="-24.7453140" lon="-53.7461920">
        <ele>522.8</ele>
        <time>2018-09-14T17:00:48Z</time>
      </trkpt>
      <trkpt lat="-24.7453040" lon="-53.7461570">
        <ele>522.7</ele>
        <time>2018-09-14T17:00:49Z</time>
      </trkpt>
      <trkpt lat="-24.7453090" lon="-53.7460960">
        <ele>522.5</ele>
        <time>2018-09-14T17:00:50Z</time>
      </trkpt>
      <trkpt lat="-24.7453120" lon="-53.7460780">
        <ele>522.4</ele>
        <time>2018-09-14T17:00:51Z</time>
      </trkpt>
      <trkpt lat="-24.7453220" lon="-53.7460620">
        <ele>522.4</ele>
        <time>2018-09-14T17:00:52Z</time>
      </trkpt>
      <trkpt lat="-24.7453660" lon="-53.7460380">
        <ele>522.0</ele>
        <time>2018-09-14T17:00:54Z</time>
      </trkpt>
      <trkpt lat="-24.7453980" lon="-53.7460310">
        <ele>522.0</ele>
        <time>2018-09-14T17:00:55Z</time>
      </trkpt>
      <trkpt lat="-24.7454400" lon="-53.7460260">
        <ele>522.0</ele>
        <time>2018-09-14T17:00:56Z</time>
      </trkpt>
      <trkpt lat="-24.7454880" lon="-53.7460250">
        <ele>522.0</ele>
        <time>2018-09-14T17:00:57Z</time>
      </trkpt>
      <trkpt lat="-24.7455380" lon="-53.7460240">
        <ele>522.0</ele>
        <time>2018-09-14T17:00:58Z</time>
      </trkpt>
      <trkpt lat="-24.7455880" lon="-53.7460240">
        <ele>522.0</ele>
        <time>2018-09-14T17:00:59Z</time>
      </trkpt>
      <trkpt lat="-24.7456370" lon="-53.7460220">
        <ele>522.0</ele>
        <time>2018-09-14T17:01:00Z</time>
      </trkpt>
      <trkpt lat="-24.7456870" lon="-53.7460200">
        <ele>522.0</ele>
        <time>2018-09-14T17:01:01Z</time>
      </trkpt>
      <trkpt lat="-24.7457380" lon="-53.7460190">
        <ele>522.0</ele>
        <time>2018-09-14T17:01:02Z</time>
      </trkpt>
      <trkpt lat="-24.7457850" lon="-53.7460190">
        <ele>521.6</ele>
        <time>2018-09-14T17:01:03Z</time>
      </trkpt>
      <trkpt lat="-24.7458340" lon="-53.7460170">
        <ele>521.1</ele>
        <time>2018-09-14T17:01:04Z</time>
      </trkpt>
      <trkpt lat="-24.7458830" lon="-53.7460190">
        <ele>520.5</ele>
        <time>2018-09-14T17:01:05Z</time>
      </trkpt>
      <trkpt lat="-24.7459280" lon="-53.7460250">
        <ele>519.6</ele>
        <time>2018-09-14T17:01:06Z</time>
      </trkpt>
      <trkpt lat="-24.7459590" lon="-53.7460310">
        <ele>518.9</ele>
        <time>2018-09-14T17:01:07Z</time>
      </trkpt>
      <trkpt lat="-24.7459900" lon="-53.7460410">
        <ele>518.1</ele>
        <time>2018-09-14T17:01:08Z</time>
      </trkpt>
      <trkpt lat="-24.7460300" lon="-53.7460550">
        <ele>517.3</ele>
        <time>2018-09-14T17:01:09Z</time>
      </trkpt>
      <trkpt lat="-24.7460690" lon="-53.7460710">
        <ele>516.6</ele>
        <time>2018-09-14T17:01:10Z</time>
      </trkpt>
      <trkpt lat="-24.7461100" lon="-53.7460890">
        <ele>516.0</ele>
        <time>2018-09-14T17:01:11Z</time>
      </trkpt>
      <trkpt lat="-24.7461530" lon="-53.7461070">
        <ele>515.3</ele>
        <time>2018-09-14T17:01:12Z</time>
      </trkpt>
      <trkpt lat="-24.7462300" lon="-53.7461590">
        <ele>513.5</ele>
        <time>2018-09-14T17:01:14Z</time>
      </trkpt>
      <trkpt lat="-24.7462660" lon="-53.7461870">
        <ele>512.6</ele>
        <time>2018-09-14T17:01:15Z</time>
      </trkpt>
      <trkpt lat="-24.7463030" lon="-53.7462150">
        <ele>511.6</ele>
        <time>2018-09-14T17:01:16Z</time>
      </trkpt>
      <trkpt lat="-24.7463400" lon="-53.7462430">
        <ele>510.8</ele>
        <time>2018-09-14T17:01:17Z</time>
      </trkpt>
      <trkpt lat="-24.7463740" lon="-53.7462740">
        <ele>510.1</ele>
        <time>2018-09-14T17:01:18Z</time>
      </trkpt>
      <trkpt lat="-24.7464070" lon="-53.7463020">
        <ele>509.8</ele>
        <time>2018-09-14T17:01:19Z</time>
      </trkpt>
      <trkpt lat="-24.7464420" lon="-53.7463320">
        <ele>509.6</ele>
        <time>2018-09-14T17:01:20Z</time>
      </trkpt>
      <trkpt lat="-24.7464760" lon="-53.7463620">
        <ele>509.2</ele>
        <time>2018-09-14T17:01:21Z</time>
      </trkpt>
      <trkpt lat="-24.7465150" lon="-53.7463960">
        <ele>508.7</ele>
        <time>2018-09-14T17:01:22Z</time>
      </trkpt>
      <trkpt lat="-24.7465600" lon="-53.7464330">
        <ele>507.9</ele>
        <time>2018-09-14T17:01:23Z</time>
      </trkpt>
      <trkpt lat="-24.7466020" lon="-53.7464720">
        <ele>507.5</ele>
        <time>2018-09-14T17:01:24Z</time>
      </trkpt>
      <trkpt lat="-24.7466460" lon="-53.7465120">
        <ele>507.0</ele>
        <time>2018-09-14T17:01:25Z</time>
      </trkpt>
      <trkpt lat="-24.7466750" lon="-53.7465550">
        <ele>506.3</ele>
        <time>2018-09-14T17:01:26Z</time>
      </trkpt>
      <trkpt lat="-24.7467070" lon="-53.7465990">
        <ele>505.8</ele>
        <time>2018-09-14T17:01:27Z</time>
      </trkpt>
      <trkpt lat="-24.7467390" lon="-53.7466420">
        <ele>505.5</ele>
        <time>2018-09-14T17:01:28Z</time>
      </trkpt>
      <trkpt lat="-24.7467740" lon="-53.7466860">
        <ele>505.1</ele>
        <time>2018-09-14T17:01:29Z</time>
      </trkpt>
      <trkpt lat="-24.7468070" lon="-53.7467290">
        <ele>504.8</ele>
        <time>2018-09-14T17:01:30Z</time>
      </trkpt>
      <trkpt lat="-24.7468400" lon="-53.7467730">
        <ele>504.3</ele>
        <time>2018-09-14T17:01:31Z</time>
      </trkpt>
      <trkpt lat="-24.7468750" lon="-53.7468170">
        <ele>503.8</ele>
        <time>2018-09-14T17:01:32Z</time>
      </trkpt>
      <trkpt lat="-24.7469460" lon="-53.7469010">
        <ele>503.0</ele>
        <time>2018-09-14T17:01:34Z</time>
      </trkpt>
      <trkpt lat="-24.7469770" lon="-53.7469440">
        <ele>502.7</ele>
        <time>2018-09-14T17:01:35Z</time>
      </trkpt>
      <trkpt lat="-24.7470040" lon="-53.7469860">
        <ele>502.2</ele>
        <time>2018-09-14T17:01:36Z</time>
      </trkpt>
      <trkpt lat="-24.7470250" lon="-53.7470260">
        <ele>501.6</ele>
        <time>2018-09-14T17:01:37Z</time>
      </trkpt>
      <trkpt lat="-24.7470500" lon="-53.7470650">
        <ele>501.2</ele>
        <time>2018-09-14T17:01:38Z</time>
      </trkpt>
      <trkpt lat="-24.7470820" lon="-53.7471000">
        <ele>500.9</ele>
        <time>2018-09-14T17:01:39Z</time>
      </trkpt>
      <trkpt lat="-24.7471070" lon="-53.7471380">
        <ele>500.4</ele>
        <time>2018-09-14T17:01:40Z</time>
      </trkpt>
      <trkpt lat="-24.7471390" lon="-53.7471740">
        <ele>499.7</ele>
        <time>2018-09-14T17:01:41Z</time>
      </trkpt>
      <trkpt lat="-24.7471650" lon="-53.7472110">
        <ele>499.1</ele>
        <time>2018-09-14T17:01:42Z</time>
      </trkpt>
      <trkpt lat="-24.7471970" lon="-53.7472500">
        <ele>498.7</ele>
        <time>2018-09-14T17:01:43Z</time>
      </trkpt>
      <trkpt lat="-24.7472280" lon="-53.7472880">
        <ele>498.3</ele>
        <time>2018-09-14T17:01:44Z</time>
      </trkpt>
      <trkpt lat="-24.7472550" lon="-53.7473270">
        <ele>497.9</ele>
        <time>2018-09-14T17:01:45Z</time>
      </trkpt>
      <trkpt lat="-24.7472870" lon="-53.7473630">
        <ele>497.4</ele>
        <time>2018-09-14T17:01:46Z</time>
      </trkpt>
      <trkpt lat="-24.7473210" lon="-53.7473990">
        <ele>496.8</ele>
        <time>2018-09-14T17:01:47Z</time>
      </trkpt>
      <trkpt lat="-24.7473550" lon="-53.7474360">
        <ele>496.4</ele>
        <time>2018-09-14T17:01:48Z</time>
      </trkpt>
      <trkpt lat="-24.7473910" lon="-53.7474710">
        <ele>496.1</ele>
        <time>2018-09-14T17:01:49Z</time>
      </trkpt>
      <trkpt lat="-24.7474250" lon="-53.7475070">
        <ele>495.9</ele>
        <time>2018-09-14T17:01:50Z</time>
      </trkpt>
      <trkpt lat="-24.7474600" lon="-53.7475450">
        <ele>495.6</ele>
        <time>2018-09-14T17:01:51Z</time>
      </trkpt>
      <trkpt lat="-24.7474920" lon="-53.7475860">
        <ele>495.0</ele>
        <time>2018-09-14T17:01:52Z</time>
      </trkpt>
      <trkpt lat="-24.7475210" lon="-53.7476270">
        <ele>494.5</ele>
        <time>2018-09-14T17:01:53Z</time>
      </trkpt>
      <trkpt lat="-24.7475560" lon="-53.7476650">
        <ele>494.1</ele>
        <time>2018-09-14T17:01:54Z</time>
      </trkpt>
      <trkpt lat="-24.7475900" lon="-53.7477020">
        <ele>493.9</ele>
        <time>2018-09-14T17:01:55Z</time>
      </trkpt>
      <trkpt lat="-24.7476240" lon="-53.7477390">
        <ele>493.7</ele>
        <time>2018-09-14T17:01:56Z</time>
      </trkpt>
      <trkpt lat="-24.7476580" lon="-53.7477770">
        <ele>493.4</ele>
        <time>2018-09-14T17:01:57Z</time>
      </trkpt>
      <trkpt lat="-24.7476920" lon="-53.7478170">
        <ele>492.9</ele>
        <time>2018-09-14T17:01:58Z</time>
      </trkpt>
      <trkpt lat="-24.7477210" lon="-53.7478580">
        <ele>492.4</ele>
        <time>2018-09-14T17:01:59Z</time>
      </trkpt>
      <trkpt lat="-24.7477520" lon="-53.7478950">
        <ele>492.0</ele>
        <time>2018-09-14T17:02:00Z</time>
      </trkpt>
      <trkpt lat="-24.7477820" lon="-53.7479320">
        <ele>491.7</ele>
        <time>2018-09-14T17:02:01Z</time>
      </trkpt>
      <trkpt lat="-24.7478140" lon="-53.7479680">
        <ele>491.4</ele>
        <time>2018-09-14T17:02:02Z</time>
      </trkpt>
      <trkpt lat="-24.7478500" lon="-53.7480020">
        <ele>491.0</ele>
        <time>2018-09-14T17:02:03Z</time>
      </trkpt>
      <trkpt lat="-24.7478830" lon="-53.7480400">
        <ele>490.5</ele>
        <time>2018-09-14T17:02:04Z</time>
      </trkpt>
      <trkpt lat="-24.7479200" lon="-53.7480730">
        <ele>490.0</ele>
        <time>2018-09-14T17:02:05Z</time>
      </trkpt>
      <trkpt lat="-24.7479590" lon="-53.7481030">
        <ele>489.6</ele>
        <time>2018-09-14T17:02:06Z</time>
      </trkpt>
      <trkpt lat="-24.7479920" lon="-53.7481310">
        <ele>489.4</ele>
        <time>2018-09-14T17:02:07Z</time>
      </trkpt>
      <trkpt lat="-24.7480260" lon="-53.7481620">
        <ele>489.1</ele>
        <time>2018-09-14T17:02:08Z</time>
      </trkpt>
      <trkpt lat="-24.7480590" lon="-53.7481860">
        <ele>489.0</ele>
        <time>2018-09-14T17:02:09Z</time>
      </trkpt>
      <trkpt lat="-24.7480880" lon="-53.7482140">
        <ele>488.7</ele>
        <time>2018-09-14T17:02:10Z</time>
      </trkpt>
      <trkpt lat="-24.7481260" lon="-53.7482380">
        <ele>488.2</ele>
        <time>2018-09-14T17:02:11Z</time>
      </trkpt>
      <trkpt lat="-24.7481630" lon="-53.7482640">
        <ele>487.7</ele>
        <time>2018-09-14T17:02:12Z</time>
      </trkpt>
      <trkpt lat="-24.7481980" lon="-53.7482900">
        <ele>487.3</ele>
        <time>2018-09-14T17:02:13Z</time>
      </trkpt>
      <trkpt lat="-24.7482270" lon="-53.7483120">
        <ele>487.1</ele>
        <time>2018-09-14T17:02:14Z</time>
      </trkpt>
      <trkpt lat="-24.7482530" lon="-53.7483350">
        <ele>486.9</ele>
        <time>2018-09-14T17:02:15Z</time>
      </trkpt>
      <trkpt lat="-24.7482890" lon="-53.7483510">
        <ele>486.6</ele>
        <time>2018-09-14T17:02:16Z</time>
      </trkpt>
      <trkpt lat="-24.7483250" lon="-53.7483690">
        <ele>486.0</ele>
        <time>2018-09-14T17:02:17Z</time>
      </trkpt>
      <trkpt lat="-24.7483590" lon="-53.7483860">
        <ele>485.3</ele>
        <time>2018-09-14T17:02:18Z</time>
      </trkpt>
      <trkpt lat="-24.7483980" lon="-53.7483960">
        <ele>484.8</ele>
        <time>2018-09-14T17:02:19Z</time>
      </trkpt>
      <trkpt lat="-24.7484360" lon="-53.7484020">
        <ele>484.3</ele>
        <time>2018-09-14T17:02:20Z</time>
      </trkpt>
      <trkpt lat="-24.7484760" lon="-53.7484110">
        <ele>483.6</ele>
        <time>2018-09-14T17:02:21Z</time>
      </trkpt>
      <trkpt lat="-24.7485200" lon="-53.7484220">
        <ele>483.1</ele>
        <time>2018-09-14T17:02:22Z</time>
      </trkpt>
      <trkpt lat="-24.7485650" lon="-53.7484320">
        <ele>482.6</ele>
        <time>2018-09-14T17:02:23Z</time>
      </trkpt>
      <trkpt lat="-24.7486170" lon="-53.7484400">
        <ele>482.1</ele>
        <time>2018-09-14T17:02:24Z</time>
      </trkpt>
      <trkpt lat="-24.7486710" lon="-53.7484430">
        <ele>481.5</ele>
        <time>2018-09-14T17:02:25Z</time>
      </trkpt>
      <trkpt lat="-24.7487280" lon="-53.7484460">
        <ele>480.8</ele>
        <time>2018-09-14T17:02:26Z</time>
      </trkpt>
      <trkpt lat="-24.7487760" lon="-53.7484520">
        <ele>480.5</ele>
        <time>2018-09-14T17:02:27Z</time>
      </trkpt>
      <trkpt lat="-24.7488270" lon="-53.7484550">
        <ele>480.2</ele>
        <time>2018-09-14T17:02:28Z</time>
      </trkpt>
      <trkpt lat="-24.7488720" lon="-53.7484610">
        <ele>479.8</ele>
        <time>2018-09-14T17:02:29Z</time>
      </trkpt>
      <trkpt lat="-24.7489190" lon="-53.7484660">
        <ele>479.2</ele>
        <time>2018-09-14T17:02:30Z</time>
      </trkpt>
      <trkpt lat="-24.7489650" lon="-53.7484740">
        <ele>478.6</ele>
        <time>2018-09-14T17:02:31Z</time>
      </trkpt>
      <trkpt lat="-24.7490040" lon="-53.7484850">
        <ele>478.3</ele>
        <time>2018-09-14T17:02:32Z</time>
      </trkpt>
      <trkpt lat="-24.7490470" lon="-53.7484920">
        <ele>477.9</ele>
        <time>2018-09-14T17:02:33Z</time>
      </trkpt>
      <trkpt lat="-24.7490900" lon="-53.7484980">
        <ele>477.5</ele>
        <time>2018-09-14T17:02:34Z</time>
      </trkpt>
      <trkpt lat="-24.7491330" lon="-53.7485050">
        <ele>477.0</ele>
        <time>2018-09-14T17:02:35Z</time>
      </trkpt>
      <trkpt lat="-24.7491780" lon="-53.7485050">
        <ele>476.4</ele>
        <time>2018-09-14T17:02:36Z</time>
      </trkpt>
      <trkpt lat="-24.7492190" lon="-53.7485000">
        <ele>476.1</ele>
        <time>2018-09-14T17:02:37Z</time>
      </trkpt>
      <trkpt lat="-24.7492620" lon="-53.7484940">
        <ele>475.8</ele>
        <time>2018-09-14T17:02:38Z</time>
      </trkpt>
      <trkpt lat="-24.7493030" lon="-53.7484900">
        <ele>475.5</ele>
        <time>2018-09-14T17:02:39Z</time>
      </trkpt>
      <trkpt lat="-24.7493410" lon="-53.7484890">
        <ele>475.1</ele>
        <time>2018-09-14T17:02:40Z</time>
      </trkpt>
      <trkpt lat="-24.7493830" lon="-53.7484920">
        <ele>474.6</ele>
        <time>2018-09-14T17:02:41Z</time>
      </trkpt>
      <trkpt lat="-24.7494230" lon="-53.7484960">
        <ele>474.1</ele>
        <time>2018-09-14T17:02:42Z</time>
      </trkpt>
      <trkpt lat="-24.7494600" lon="-53.7485010">
        <ele>473.7</ele>
        <time>2018-09-14T17:02:43Z</time>
      </trkpt>
      <trkpt lat="-24.7494950" lon="-53.7485020">
        <ele>473.5</ele>
        <time>2018-09-14T17:02:44Z</time>
      </trkpt>
      <trkpt lat="-24.7495370" lon="-53.7485060">
        <ele>473.3</ele>
        <time>2018-09-14T17:02:45Z</time>
      </trkpt>
      <trkpt lat="-24.7495800" lon="-53.7485100">
        <ele>472.9</ele>
        <time>2018-09-14T17:02:46Z</time>
      </trkpt>
      <trkpt lat="-24.7496230" lon="-53.7485130">
        <ele>472.3</ele>
        <time>2018-09-14T17:02:47Z</time>
      </trkpt>
      <trkpt lat="-24.7496620" lon="-53.7485130">
        <ele>471.8</ele>
        <time>2018-09-14T17:02:48Z</time>
      </trkpt>
      <trkpt lat="-24.7497070" lon="-53.7485130">
        <ele>471.4</ele>
        <time>2018-09-14T17:02:49Z</time>
      </trkpt>
      <trkpt lat="-24.7497510" lon="-53.7485140">
        <ele>471.0</ele>
        <time>2018-09-14T17:02:50Z</time>
      </trkpt>
      <trkpt lat="-24.7497980" lon="-53.7485130">
        <ele>470.4</ele>
        <time>2018-09-14T17:02:51Z</time>
      </trkpt>
      <trkpt lat="-24.7498420" lon="-53.7485130">
        <ele>469.9</ele>
        <time>2018-09-14T17:02:52Z</time>
      </trkpt>
      <trkpt lat="-24.7498850" lon="-53.7485140">
        <ele>469.4</ele>
        <time>2018-09-14T17:02:53Z</time>
      </trkpt>
      <trkpt lat="-24.7499270" lon="-53.7485120">
        <ele>469.1</ele>
        <time>2018-09-14T17:02:54Z</time>
      </trkpt>
      <trkpt lat="-24.7499770" lon="-53.7485120">
        <ele>468.8</ele>
        <time>2018-09-14T17:02:55Z</time>
      </trkpt>
      <trkpt lat="-24.7500320" lon="-53.7485130">
        <ele>468.2</ele>
        <time>2018-09-14T17:02:56Z</time>
      </trkpt>
      <trkpt lat="-24.7500900" lon="-53.7485100">
        <ele>467.7</ele>
        <time>2018-09-14T17:02:57Z</time>
      </trkpt>
      <trkpt lat="-24.7501500" lon="-53.7485140">
        <ele>467.3</ele>
        <time>2018-09-14T17:02:58Z</time>
      </trkpt>
      <trkpt lat="-24.7502080" lon="-53.7485210">
        <ele>467.2</ele>
        <time>2018-09-14T17:02:59Z</time>
      </trkpt>
      <trkpt lat="-24.7502680" lon="-53.7485220">
        <ele>467.0</ele>
        <time>2018-09-14T17:03:00Z</time>
      </trkpt>
      <trkpt lat="-24.7503220" lon="-53.7485270">
        <ele>466.9</ele>
        <time>2018-09-14T17:03:01Z</time>
      </trkpt>
      <trkpt lat="-24.7503800" lon="-53.7485280">
        <ele>466.7</ele>
        <time>2018-09-14T17:03:02Z</time>
      </trkpt>
      <trkpt lat="-24.7504360" lon="-53.7485300">
        <ele>466.5</ele>
        <time>2018-09-14T17:03:03Z</time>
      </trkpt>
      <trkpt lat="-24.7504950" lon="-53.7485380">
        <ele>466.4</ele>
        <time>2018-09-14T17:03:04Z</time>
      </trkpt>
      <trkpt lat="-24.7505480" lon="-53.7485470">
        <ele>466.3</ele>
        <time>2018-09-14T17:03:05Z</time>
      </trkpt>
      <trkpt lat="-24.7505970" lon="-53.7485600">
        <ele>466.2</ele>
        <time>2018-09-14T17:03:06Z</time>
      </trkpt>
      <trkpt lat="-24.7506450" lon="-53.7485670">
        <ele>466.1</ele>
        <time>2018-09-14T17:03:07Z</time>
      </trkpt>
      <trkpt lat="-24.7506950" lon="-53.7485700">
        <ele>465.9</ele>
        <time>2018-09-14T17:03:08Z</time>
      </trkpt>
      <trkpt lat="-24.7507440" lon="-53.7485650">
        <ele>465.6</ele>
        <time>2018-09-14T17:03:09Z</time>
      </trkpt>
      <trkpt lat="-24.7507440" lon="-53.7485650">
        <ele>465.6</ele>
        <time>2018-09-14T17:03:10Z</time>
      </trkpt>
      <trkpt lat="-24.7507860" lon="-53.7485680">
        <ele>465.3</ele>
        <time>2018-09-14T17:03:11Z</time>
      </trkpt>
      <trkpt lat="-24.7508470" lon="-53.7485580">
        <ele>464.9</ele>
        <time>2018-09-14T17:03:12Z</time>
      </trkpt>
      <trkpt lat="-24.7508970" lon="-53.7485470">
        <ele>464.5</ele>
        <time>2018-09-14T17:03:13Z</time>
      </trkpt>
      <trkpt lat="-24.7509420" lon="-53.7485340">
        <ele>464.3</ele>
        <time>2018-09-14T17:03:14Z</time>
      </trkpt>
      <trkpt lat="-24.7509830" lon="-53.7485140">
        <ele>464.1</ele>
        <time>2018-09-14T17:03:15Z</time>
      </trkpt>
      <trkpt lat="-24.7510250" lon="-53.7484960">
        <ele>464.0</ele>
        <time>2018-09-14T17:03:16Z</time>
      </trkpt>
      <trkpt lat="-24.7510680" lon="-53.7484840">
        <ele>464.0</ele>
        <time>2018-09-14T17:03:17Z</time>
      </trkpt>
      <trkpt lat="-24.7511180" lon="-53.7484730">
        <ele>464.0</ele>
        <time>2018-09-14T17:03:18Z</time>
      </trkpt>
      <trkpt lat="-24.7511720" lon="-53.7484620">
        <ele>464.0</ele>
        <time>2018-09-14T17:03:19Z</time>
      </trkpt>
      <trkpt lat="-24.7512220" lon="-53.7484490">
        <ele>464.0</ele>
        <time>2018-09-14T17:03:20Z</time>
      </trkpt>
      <trkpt lat="-24.7512740" lon="-53.7484340">
        <ele>464.0</ele>
        <time>2018-09-14T17:03:21Z</time>
      </trkpt>
      <trkpt lat="-24.7513250" lon="-53.7484230">
        <ele>464.0</ele>
        <time>2018-09-14T17:03:22Z</time>
      </trkpt>
      <trkpt lat="-24.7513750" lon="-53.7484090">
        <ele>464.0</ele>
        <time>2018-09-14T17:03:23Z</time>
      </trkpt>
      <trkpt lat="-24.7514170" lon="-53.7483930">
        <ele>464.0</ele>
        <time>2018-09-14T17:03:24Z</time>
      </trkpt>
      <trkpt lat="-24.7514640" lon="-53.7483790">
        <ele>464.0</ele>
        <time>2018-09-14T17:03:25Z</time>
      </trkpt>
      <trkpt lat="-24.7515070" lon="-53.7483640">
        <ele>464.0</ele>
        <time>2018-09-14T17:03:26Z</time>
      </trkpt>
      <trkpt lat="-24.7515500" lon="-53.7483510">
        <ele>464.0</ele>
        <time>2018-09-14T17:03:27Z</time>
      </trkpt>
      <trkpt lat="-24.7515970" lon="-53.7483380">
        <ele>464.0</ele>
        <time>2018-09-14T17:03:28Z</time>
      </trkpt>
      <trkpt lat="-24.7516440" lon="-53.7483220">
        <ele>464.0</ele>
        <time>2018-09-14T17:03:29Z</time>
      </trkpt>
      <trkpt lat="-24.7516910" lon="-53.7483060">
        <ele>464.0</ele>
        <time>2018-09-14T17:03:30Z</time>
      </trkpt>
      <trkpt lat="-24.7517350" lon="-53.7482890">
        <ele>464.0</ele>
        <time>2018-09-14T17:03:31Z</time>
      </trkpt>
      <trkpt lat="-24.7517750" lon="-53.7482710">
        <ele>464.0</ele>
        <time>2018-09-14T17:03:32Z</time>
      </trkpt>
      <trkpt lat="-24.7518150" lon="-53.7482510">
        <ele>464.0</ele>
        <time>2018-09-14T17:03:33Z</time>
      </trkpt>
      <trkpt lat="-24.7518560" lon="-53.7482290">
        <ele>464.0</ele>
        <time>2018-09-14T17:03:34Z</time>
      </trkpt>
      <trkpt lat="-24.7518960" lon="-53.7482060">
        <ele>464.0</ele>
        <time>2018-09-14T17:03:35Z</time>
      </trkpt>
      <trkpt lat="-24.7519320" lon="-53.7481820">
        <ele>464.1</ele>
        <time>2018-09-14T17:03:36Z</time>
      </trkpt>
      <trkpt lat="-24.7519660" lon="-53.7481570">
        <ele>464.1</ele>
        <time>2018-09-14T17:03:37Z</time>
      </trkpt>
      <trkpt lat="-24.7519990" lon="-53.7481280">
        <ele>464.2</ele>
        <time>2018-09-14T17:03:38Z</time>
      </trkpt>
      <trkpt lat="-24.7520300" lon="-53.7481000">
        <ele>464.3</ele>
        <time>2018-09-14T17:03:39Z</time>
      </trkpt>
      <trkpt lat="-24.7520600" lon="-53.7480720">
        <ele>464.4</ele>
        <time>2018-09-14T17:03:40Z</time>
      </trkpt>
      <trkpt lat="-24.7520870" lon="-53.7480410">
        <ele>464.6</ele>
        <time>2018-09-14T17:03:41Z</time>
      </trkpt>
      <trkpt lat="-24.7521130" lon="-53.7480110">
        <ele>464.7</ele>
        <time>2018-09-14T17:03:42Z</time>
      </trkpt>
      <trkpt lat="-24.7521360" lon="-53.7479810">
        <ele>464.8</ele>
        <time>2018-09-14T17:03:43Z</time>
      </trkpt>
      <trkpt lat="-24.7521580" lon="-53.7479570">
        <ele>464.8</ele>
        <time>2018-09-14T17:03:44Z</time>
      </trkpt>
      <trkpt lat="-24.7521810" lon="-53.7479420">
        <ele>464.9</ele>
        <time>2018-09-14T17:03:45Z</time>
      </trkpt>
      <trkpt lat="-24.7522060" lon="-53.7479380">
        <ele>464.9</ele>
        <time>2018-09-14T17:03:46Z</time>
      </trkpt>
      <trkpt lat="-24.7522310" lon="-53.7479480">
        <ele>465.0</ele>
        <time>2018-09-14T17:03:47Z</time>
      </trkpt>
      <trkpt lat="-24.7522540" lon="-53.7479660">
        <ele>465.0</ele>
        <time>2018-09-14T17:03:48Z</time>
      </trkpt>
      <trkpt lat="-24.7522770" lon="-53.7479870">
        <ele>465.0</ele>
        <time>2018-09-14T17:03:49Z</time>
      </trkpt>
      <trkpt lat="-24.7523000" lon="-53.7480110">
        <ele>465.0</ele>
        <time>2018-09-14T17:03:50Z</time>
      </trkpt>
      <trkpt lat="-24.7523190" lon="-53.7480390">
        <ele>465.0</ele>
        <time>2018-09-14T17:03:51Z</time>
      </trkpt>
      <trkpt lat="-24.7523380" lon="-53.7480680">
        <ele>464.9</ele>
        <time>2018-09-14T17:03:52Z</time>
      </trkpt>
      <trkpt lat="-24.7523570" lon="-53.7480990">
        <ele>464.6</ele>
        <time>2018-09-14T17:03:53Z</time>
      </trkpt>
      <trkpt lat="-24.7523770" lon="-53.7481270">
        <ele>464.4</ele>
        <time>2018-09-14T17:03:54Z</time>
      </trkpt>
      <trkpt lat="-24.7523980" lon="-53.7481560">
        <ele>464.3</ele>
        <time>2018-09-14T17:03:55Z</time>
      </trkpt>
      <trkpt lat="-24.7524190" lon="-53.7481860">
        <ele>464.2</ele>
        <time>2018-09-14T17:03:56Z</time>
      </trkpt>
      <trkpt lat="-24.7524390" lon="-53.7482170">
        <ele>464.0</ele>
        <time>2018-09-14T17:03:57Z</time>
      </trkpt>
      <trkpt lat="-24.7524590" lon="-53.7482470">
        <ele>463.7</ele>
        <time>2018-09-14T17:03:58Z</time>
      </trkpt>
      <trkpt lat="-24.7524810" lon="-53.7482770">
        <ele>463.5</ele>
        <time>2018-09-14T17:03:59Z</time>
      </trkpt>
      <trkpt lat="-24.7525020" lon="-53.7483050">
        <ele>463.5</ele>
        <time>2018-09-14T17:04:00Z</time>
      </trkpt>
      <trkpt lat="-24.7525240" lon="-53.7483340">
        <ele>463.5</ele>
        <time>2018-09-14T17:04:01Z</time>
      </trkpt>
      <trkpt lat="-24.7525470" lon="-53.7483670">
        <ele>463.8</ele>
        <time>2018-09-14T17:04:02Z</time>
      </trkpt>
      <trkpt lat="-24.7525660" lon="-53.7483990">
        <ele>464.2</ele>
        <time>2018-09-14T17:04:03Z</time>
      </trkpt>
      <trkpt lat="-24.7525850" lon="-53.7484320">
        <ele>464.6</ele>
        <time>2018-09-14T17:04:04Z</time>
      </trkpt>
      <trkpt lat="-24.7526070" lon="-53.7484630">
        <ele>465.0</ele>
        <time>2018-09-14T17:04:05Z</time>
      </trkpt>
      <trkpt lat="-24.7526300" lon="-53.7484940">
        <ele>465.5</ele>
        <time>2018-09-14T17:04:06Z</time>
      </trkpt>
      <trkpt lat="-24.7526530" lon="-53.7485260">
        <ele>466.0</ele>
        <time>2018-09-14T17:04:07Z</time>
      </trkpt>
      <trkpt lat="-24.7526780" lon="-53.7485560">
        <ele>466.5</ele>
        <time>2018-09-14T17:04:08Z</time>
      </trkpt>
      <trkpt lat="-24.7527010" lon="-53.7485870">
        <ele>466.3</ele>
        <time>2018-09-14T17:04:09Z</time>
      </trkpt>
      <trkpt lat="-24.7527230" lon="-53.7486210">
        <ele>466.0</ele>
        <time>2018-09-14T17:04:10Z</time>
      </trkpt>
      <trkpt lat="-24.7527440" lon="-53.7486560">
        <ele>466.0</ele>
        <time>2018-09-14T17:04:11Z</time>
      </trkpt>
      <trkpt lat="-24.7527680" lon="-53.7486920">
        <ele>466.0</ele>
        <time>2018-09-14T17:04:12Z</time>
      </trkpt>
      <trkpt lat="-24.7527930" lon="-53.7487270">
        <ele>466.0</ele>
        <time>2018-09-14T17:04:13Z</time>
      </trkpt>
      <trkpt lat="-24.7528180" lon="-53.7487630">
        <ele>466.1</ele>
        <time>2018-09-14T17:04:14Z</time>
      </trkpt>
      <trkpt lat="-24.7528420" lon="-53.7487980">
        <ele>466.1</ele>
        <time>2018-09-14T17:04:15Z</time>
      </trkpt>
      <trkpt lat="-24.7528670" lon="-53.7488330">
        <ele>466.1</ele>
        <time>2018-09-14T17:04:16Z</time>
      </trkpt>
      <trkpt lat="-24.7528910" lon="-53.7488670">
        <ele>466.0</ele>
        <time>2018-09-14T17:04:17Z</time>
      </trkpt>
      <trkpt lat="-24.7529170" lon="-53.7489000">
        <ele>465.9</ele>
        <time>2018-09-14T17:04:18Z</time>
      </trkpt>
      <trkpt lat="-24.7529430" lon="-53.7489310">
        <ele>465.9</ele>
        <time>2018-09-14T17:04:19Z</time>
      </trkpt>
      <trkpt lat="-24.7529670" lon="-53.7489640">
        <ele>465.9</ele>
        <time>2018-09-14T17:04:20Z</time>
      </trkpt>
      <trkpt lat="-24.7529930" lon="-53.7489970">
        <ele>465.9</ele>
        <time>2018-09-14T17:04:21Z</time>
      </trkpt>
      <trkpt lat="-24.7530200" lon="-53.7490310">
        <ele>466.0</ele>
        <time>2018-09-14T17:04:22Z</time>
      </trkpt>
      <trkpt lat="-24.7530460" lon="-53.7490630">
        <ele>466.0</ele>
        <time>2018-09-14T17:04:23Z</time>
      </trkpt>
      <trkpt lat="-24.7530720" lon="-53.7490950">
        <ele>465.8</ele>
        <time>2018-09-14T17:04:24Z</time>
      </trkpt>
      <trkpt lat="-24.7530950" lon="-53.7491310">
        <ele>465.7</ele>
        <time>2018-09-14T17:04:25Z</time>
      </trkpt>
      <trkpt lat="-24.7531180" lon="-53.7491670">
        <ele>465.7</ele>
        <time>2018-09-14T17:04:26Z</time>
      </trkpt>
      <trkpt lat="-24.7531420" lon="-53.7492030">
        <ele>465.7</ele>
        <time>2018-09-14T17:04:27Z</time>
      </trkpt>
      <trkpt lat="-24.7531680" lon="-53.7492380">
        <ele>465.6</ele>
        <time>2018-09-14T17:04:28Z</time>
      </trkpt>
      <trkpt lat="-24.7531930" lon="-53.7492730">
        <ele>465.5</ele>
        <time>2018-09-14T17:04:29Z</time>
      </trkpt>
      <trkpt lat="-24.7532190" lon="-53.7493100">
        <ele>465.3</ele>
        <time>2018-09-14T17:04:30Z</time>
      </trkpt>
      <trkpt lat="-24.7532450" lon="-53.7493460">
        <ele>464.9</ele>
        <time>2018-09-14T17:04:31Z</time>
      </trkpt>
      <trkpt lat="-24.7532720" lon="-53.7493820">
        <ele>464.9</ele>
        <time>2018-09-14T17:04:32Z</time>
      </trkpt>
      <trkpt lat="-24.7532980" lon="-53.7494170">
        <ele>464.9</ele>
        <time>2018-09-14T17:04:33Z</time>
      </trkpt>
      <trkpt lat="-24.7533240" lon="-53.7494540">
        <ele>465.1</ele>
        <time>2018-09-14T17:04:34Z</time>
      </trkpt>
      <trkpt lat="-24.7533500" lon="-53.7494900">
        <ele>465.4</ele>
        <time>2018-09-14T17:04:35Z</time>
      </trkpt>
      <trkpt lat="-24.7533760" lon="-53.7495270">
        <ele>465.7</ele>
        <time>2018-09-14T17:04:36Z</time>
      </trkpt>
      <trkpt lat="-24.7534030" lon="-53.7495640">
        <ele>465.9</ele>
        <time>2018-09-14T17:04:37Z</time>
      </trkpt>
      <trkpt lat="-24.7534310" lon="-53.7496000">
        <ele>466.0</ele>
        <time>2018-09-14T17:04:38Z</time>
      </trkpt>
      <trkpt lat="-24.7534590" lon="-53.7496360">
        <ele>466.0</ele>
        <time>2018-09-14T17:04:39Z</time>
      </trkpt>
      <trkpt lat="-24.7534870" lon="-53.7496720">
        <ele>466.0</ele>
        <time>2018-09-14T17:04:40Z</time>
      </trkpt>
      <trkpt lat="-24.7535190" lon="-53.7497060">
        <ele>465.9</ele>
        <time>2018-09-14T17:04:41Z</time>
      </trkpt>
      <trkpt lat="-24.7535490" lon="-53.7497390">
        <ele>466.0</ele>
        <time>2018-09-14T17:04:42Z</time>
      </trkpt>
      <trkpt lat="-24.7535760" lon="-53.7497730">
        <ele>466.0</ele>
        <time>2018-09-14T17:04:43Z</time>
      </trkpt>
      <trkpt lat="-24.7536020" lon="-53.7498080">
        <ele>465.9</ele>
        <time>2018-09-14T17:04:44Z</time>
      </trkpt>
      <trkpt lat="-24.7536270" lon="-53.7498420">
        <ele>465.6</ele>
        <time>2018-09-14T17:04:45Z</time>
      </trkpt>
      <trkpt lat="-24.7536510" lon="-53.7498780">
        <ele>465.4</ele>
        <time>2018-09-14T17:04:46Z</time>
      </trkpt>
      <trkpt lat="-24.7537040" lon="-53.7499490">
        <ele>465.0</ele>
        <time>2018-09-14T17:04:47Z</time>
      </trkpt>
      <trkpt lat="-24.7537310" lon="-53.7499830">
        <ele>464.8</ele>
        <time>2018-09-14T17:04:48Z</time>
      </trkpt>
      <trkpt lat="-24.7537830" lon="-53.7500510">
        <ele>464.1</ele>
        <time>2018-09-14T17:04:50Z</time>
      </trkpt>
      <trkpt lat="-24.7538110" lon="-53.7500830">
        <ele>463.8</ele>
        <time>2018-09-14T17:04:51Z</time>
      </trkpt>
      <trkpt lat="-24.7538380" lon="-53.7501150">
        <ele>463.7</ele>
        <time>2018-09-14T17:04:52Z</time>
      </trkpt>
      <trkpt lat="-24.7538660" lon="-53.7501430">
        <ele>463.6</ele>
        <time>2018-09-14T17:04:53Z</time>
      </trkpt>
      <trkpt lat="-24.7538990" lon="-53.7501650">
        <ele>464.0</ele>
        <time>2018-09-14T17:04:54Z</time>
      </trkpt>
      <trkpt lat="-24.7539340" lon="-53.7501800">
        <ele>464.4</ele>
        <time>2018-09-14T17:04:55Z</time>
      </trkpt>
      <trkpt lat="-24.7539700" lon="-53.7501850">
        <ele>465.0</ele>
        <time>2018-09-14T17:04:56Z</time>
      </trkpt>
      <trkpt lat="-24.7540070" lon="-53.7501810">
        <ele>465.0</ele>
        <time>2018-09-14T17:04:57Z</time>
      </trkpt>
      <trkpt lat="-24.7540390" lon="-53.7501750">
        <ele>465.0</ele>
        <time>2018-09-14T17:04:58Z</time>
      </trkpt>
      <trkpt lat="-24.7540680" lon="-53.7501670">
        <ele>465.0</ele>
        <time>2018-09-14T17:04:59Z</time>
      </trkpt>
      <trkpt lat="-24.7540940" lon="-53.7501570">
        <ele>465.1</ele>
        <time>2018-09-14T17:05:00Z</time>
      </trkpt>
      <trkpt lat="-24.7541170" lon="-53.7501470">
        <ele>465.3</ele>
        <time>2018-09-14T17:05:01Z</time>
      </trkpt>
      <trkpt lat="-24.7541430" lon="-53.7501410">
        <ele>465.4</ele>
        <time>2018-09-14T17:05:02Z</time>
      </trkpt>
      <trkpt lat="-24.7541680" lon="-53.7501320">
        <ele>465.6</ele>
        <time>2018-09-14T17:05:03Z</time>
      </trkpt>
      <trkpt lat="-24.7541910" lon="-53.7501220">
        <ele>465.7</ele>
        <time>2018-09-14T17:05:04Z</time>
      </trkpt>
      <trkpt lat="-24.7542130" lon="-53.7501100">
        <ele>465.7</ele>
        <time>2018-09-14T17:05:05Z</time>
      </trkpt>
      <trkpt lat="-24.7542340" lon="-53.7500980">
        <ele>465.8</ele>
        <time>2018-09-14T17:05:06Z</time>
      </trkpt>
      <trkpt lat="-24.7542540" lon="-53.7500850">
        <ele>465.9</ele>
        <time>2018-09-14T17:05:07Z</time>
      </trkpt>
      <trkpt lat="-24.7542860" lon="-53.7500550">
        <ele>466.1</ele>
        <time>2018-09-14T17:05:09Z</time>
      </trkpt>
      <trkpt lat="-24.7543010" lon="-53.7500430">
        <ele>466.1</ele>
        <time>2018-09-14T17:05:10Z</time>
      </trkpt>
      <trkpt lat="-24.7543170" lon="-53.7500300">
        <ele>466.2</ele>
        <time>2018-09-14T17:05:11Z</time>
      </trkpt>
      <trkpt lat="-24.7543340" lon="-53.7500200">
        <ele>466.2</ele>
        <time>2018-09-14T17:05:12Z</time>
      </trkpt>
      <trkpt lat="-24.7543520" lon="-53.7500050">
        <ele>466.2</ele>
        <time>2018-09-14T17:05:13Z</time>
      </trkpt>
      <trkpt lat="-24.7543660" lon="-53.7499910">
        <ele>466.3</ele>
        <time>2018-09-14T17:05:14Z</time>
      </trkpt>
      <trkpt lat="-24.7543800" lon="-53.7499780">
        <ele>466.3</ele>
        <time>2018-09-14T17:05:15Z</time>
      </trkpt>
      <trkpt lat="-24.7543980" lon="-53.7499650">
        <ele>466.3</ele>
        <time>2018-09-14T17:05:16Z</time>
      </trkpt>
      <trkpt lat="-24.7544140" lon="-53.7499540">
        <ele>466.4</ele>
        <time>2018-09-14T17:05:17Z</time>
      </trkpt>
      <trkpt lat="-24.7544290" lon="-53.7499420">
        <ele>466.5</ele>
        <time>2018-09-14T17:05:18Z</time>
      </trkpt>
      <trkpt lat="-24.7544460" lon="-53.7499310">
        <ele>466.5</ele>
        <time>2018-09-14T17:05:19Z</time>
      </trkpt>
      <trkpt lat="-24.7544610" lon="-53.7499200">
        <ele>466.6</ele>
        <time>2018-09-14T17:05:20Z</time>
      </trkpt>
      <trkpt lat="-24.7544770" lon="-53.7499090">
        <ele>466.9</ele>
        <time>2018-09-14T17:05:21Z</time>
      </trkpt>
      <trkpt lat="-24.7544920" lon="-53.7498990">
        <ele>467.1</ele>
        <time>2018-09-14T17:05:22Z</time>
      </trkpt>
      <trkpt lat="-24.7545060" lon="-53.7498880">
        <ele>467.2</ele>
        <time>2018-09-14T17:05:23Z</time>
      </trkpt>
      <trkpt lat="-24.7545170" lon="-53.7498760">
        <ele>467.4</ele>
        <time>2018-09-14T17:05:24Z</time>
      </trkpt>
      <trkpt lat="-24.7545310" lon="-53.7498620">
        <ele>467.7</ele>
        <time>2018-09-14T17:05:25Z</time>
      </trkpt>
      <trkpt lat="-24.7545430" lon="-53.7498480">
        <ele>468.0</ele>
        <time>2018-09-14T17:05:26Z</time>
      </trkpt>
      <trkpt lat="-24.7545540" lon="-53.7498340">
        <ele>468.2</ele>
        <time>2018-09-14T17:05:27Z</time>
      </trkpt>
      <trkpt lat="-24.7545640" lon="-53.7498180">
        <ele>468.5</ele>
        <time>2018-09-14T17:05:28Z</time>
      </trkpt>
      <trkpt lat="-24.7545690" lon="-53.7498040">
        <ele>468.8</ele>
        <time>2018-09-14T17:05:29Z</time>
      </trkpt>
      <trkpt lat="-24.7545760" lon="-53.7497860">
        <ele>469.0</ele>
        <time>2018-09-14T17:05:30Z</time>
      </trkpt>
      <trkpt lat="-24.7545790" lon="-53.7497640">
        <ele>469.2</ele>
        <time>2018-09-14T17:05:31Z</time>
      </trkpt>
      <trkpt lat="-24.7545790" lon="-53.7497440">
        <ele>469.4</ele>
        <time>2018-09-14T17:05:32Z</time>
      </trkpt>
      <trkpt lat="-24.7545800" lon="-53.7497220">
        <ele>469.7</ele>
        <time>2018-09-14T17:05:33Z</time>
      </trkpt>
      <trkpt lat="-24.7545810" lon="-53.7497020">
        <ele>469.9</ele>
        <time>2018-09-14T17:05:34Z</time>
      </trkpt>
      <trkpt lat="-24.7545850" lon="-53.7496800">
        <ele>470.1</ele>
        <time>2018-09-14T17:05:35Z</time>
      </trkpt>
      <trkpt lat="-24.7545890" lon="-53.7496560">
        <ele>470.4</ele>
        <time>2018-09-14T17:05:36Z</time>
      </trkpt>
      <trkpt lat="-24.7545880" lon="-53.7496360">
        <ele>470.6</ele>
        <time>2018-09-14T17:05:37Z</time>
      </trkpt>
      <trkpt lat="-24.7545940" lon="-53.7496130">
        <ele>470.9</ele>
        <time>2018-09-14T17:05:38Z</time>
      </trkpt>
      <trkpt lat="-24.7545990" lon="-53.7495920">
        <ele>471.1</ele>
        <time>2018-09-14T17:05:39Z</time>
      </trkpt>
      <trkpt lat="-24.7546030" lon="-53.7495700">
        <ele>471.4</ele>
        <time>2018-09-14T17:05:40Z</time>
      </trkpt>
      <trkpt lat="-24.7546080" lon="-53.7495470">
        <ele>471.6</ele>
        <time>2018-09-14T17:05:41Z</time>
      </trkpt>
      <trkpt lat="-24.7546160" lon="-53.7495250">
        <ele>471.9</ele>
        <time>2018-09-14T17:05:42Z</time>
      </trkpt>
      <trkpt lat="-24.7546210" lon="-53.7495030">
        <ele>472.1</ele>
        <time>2018-09-14T17:05:43Z</time>
      </trkpt>
      <trkpt lat="-24.7546210" lon="-53.7494800">
        <ele>472.3</ele>
        <time>2018-09-14T17:05:44Z</time>
      </trkpt>
      <trkpt lat="-24.7546220" lon="-53.7494590">
        <ele>472.4</ele>
        <time>2018-09-14T17:05:45Z</time>
      </trkpt>
      <trkpt lat="-24.7546230" lon="-53.7494380">
        <ele>472.6</ele>
        <time>2018-09-14T17:05:46Z</time>
      </trkpt>
      <trkpt lat="-24.7546230" lon="-53.7494160">
        <ele>472.8</ele>
        <time>2018-09-14T17:05:47Z</time>
      </trkpt>
      <trkpt lat="-24.7546270" lon="-53.7493950">
        <ele>472.9</ele>
        <time>2018-09-14T17:05:48Z</time>
      </trkpt>
      <trkpt lat="-24.7546340" lon="-53.7493750">
        <ele>473.0</ele>
        <time>2018-09-14T17:05:49Z</time>
      </trkpt>
      <trkpt lat="-24.7546390" lon="-53.7493540">
        <ele>473.1</ele>
        <time>2018-09-14T17:05:50Z</time>
      </trkpt>
      <trkpt lat="-24.7546410" lon="-53.7493340">
        <ele>473.2</ele>
        <time>2018-09-14T17:05:51Z</time>
      </trkpt>
      <trkpt lat="-24.7546400" lon="-53.7493120">
        <ele>473.3</ele>
        <time>2018-09-14T17:05:52Z</time>
      </trkpt>
      <trkpt lat="-24.7546410" lon="-53.7492910">
        <ele>473.5</ele>
        <time>2018-09-14T17:05:53Z</time>
      </trkpt>
      <trkpt lat="-24.7546390" lon="-53.7492710">
        <ele>473.6</ele>
        <time>2018-09-14T17:05:54Z</time>
      </trkpt>
      <trkpt lat="-24.7546360" lon="-53.7492500">
        <ele>473.7</ele>
        <time>2018-09-14T17:05:55Z</time>
      </trkpt>
      <trkpt lat="-24.7546400" lon="-53.7492300">
        <ele>473.9</ele>
        <time>2018-09-14T17:05:56Z</time>
      </trkpt>
      <trkpt lat="-24.7546430" lon="-53.7492090">
        <ele>474.0</ele>
        <time>2018-09-14T17:05:57Z</time>
      </trkpt>
      <trkpt lat="-24.7546420" lon="-53.7491890">
        <ele>474.2</ele>
        <time>2018-09-14T17:05:58Z</time>
      </trkpt>
      <trkpt lat="-24.7546430" lon="-53.7491690">
        <ele>474.3</ele>
        <time>2018-09-14T17:05:59Z</time>
      </trkpt>
      <trkpt lat="-24.7546430" lon="-53.7491460">
        <ele>474.5</ele>
        <time>2018-09-14T17:06:00Z</time>
      </trkpt>
      <trkpt lat="-24.7546420" lon="-53.7491220">
        <ele>474.7</ele>
        <time>2018-09-14T17:06:01Z</time>
      </trkpt>
      <trkpt lat="-24.7546420" lon="-53.7490980">
        <ele>474.9</ele>
        <time>2018-09-14T17:06:02Z</time>
      </trkpt>
      <trkpt lat="-24.7546420" lon="-53.7490750">
        <ele>475.2</ele>
        <time>2018-09-14T17:06:03Z</time>
      </trkpt>
      <trkpt lat="-24.7546400" lon="-53.7490500">
        <ele>475.5</ele>
        <time>2018-09-14T17:06:04Z</time>
      </trkpt>
      <trkpt lat="-24.7546420" lon="-53.7490280">
        <ele>475.7</ele>
        <time>2018-09-14T17:06:05Z</time>
      </trkpt>
      <trkpt lat="-24.7546450" lon="-53.7490050">
        <ele>476.0</ele>
        <time>2018-09-14T17:06:06Z</time>
      </trkpt>
      <trkpt lat="-24.7546470" lon="-53.7489800">
        <ele>476.2</ele>
        <time>2018-09-14T17:06:07Z</time>
      </trkpt>
      <trkpt lat="-24.7546490" lon="-53.7489590">
        <ele>476.5</ele>
        <time>2018-09-14T17:06:08Z</time>
      </trkpt>
      <trkpt lat="-24.7546490" lon="-53.7489360">
        <ele>476.7</ele>
        <time>2018-09-14T17:06:09Z</time>
      </trkpt>
      <trkpt lat="-24.7546500" lon="-53.7489150">
        <ele>476.9</ele>
        <time>2018-09-14T17:06:10Z</time>
      </trkpt>
      <trkpt lat="-24.7546510" lon="-53.7488940">
        <ele>477.1</ele>
        <time>2018-09-14T17:06:11Z</time>
      </trkpt>
      <trkpt lat="-24.7546540" lon="-53.7488720">
        <ele>477.4</ele>
        <time>2018-09-14T17:06:12Z</time>
      </trkpt>
      <trkpt lat="-24.7546550" lon="-53.7488490">
        <ele>477.6</ele>
        <time>2018-09-14T17:06:13Z</time>
      </trkpt>
      <trkpt lat="-24.7546560" lon="-53.7488250">
        <ele>477.9</ele>
        <time>2018-09-14T17:06:14Z</time>
      </trkpt>
      <trkpt lat="-24.7546560" lon="-53.7488030">
        <ele>478.2</ele>
        <time>2018-09-14T17:06:15Z</time>
      </trkpt>
      <trkpt lat="-24.7546510" lon="-53.7487810">
        <ele>478.5</ele>
        <time>2018-09-14T17:06:16Z</time>
      </trkpt>
      <trkpt lat="-24.7546470" lon="-53.7487600">
        <ele>478.9</ele>
        <time>2018-09-14T17:06:17Z</time>
      </trkpt>
      <trkpt lat="-24.7546450" lon="-53.7487390">
        <ele>479.4</ele>
        <time>2018-09-14T17:06:18Z</time>
      </trkpt>
      <trkpt lat="-24.7546450" lon="-53.7487200">
        <ele>479.9</ele>
        <time>2018-09-14T17:06:19Z</time>
      </trkpt>
      <trkpt lat="-24.7546440" lon="-53.7486990">
        <ele>480.4</ele>
        <time>2018-09-14T17:06:20Z</time>
      </trkpt>
      <trkpt lat="-24.7546440" lon="-53.7486770">
        <ele>480.9</ele>
        <time>2018-09-14T17:06:21Z</time>
      </trkpt>
      <trkpt lat="-24.7546460" lon="-53.7486560">
        <ele>481.0</ele>
        <time>2018-09-14T17:06:22Z</time>
      </trkpt>
      <trkpt lat="-24.7546530" lon="-53.7486380">
        <ele>481.0</ele>
        <time>2018-09-14T17:06:23Z</time>
      </trkpt>
      <trkpt lat="-24.7546550" lon="-53.7486170">
        <ele>481.0</ele>
        <time>2018-09-14T17:06:24Z</time>
      </trkpt>
      <trkpt lat="-24.7546550" lon="-53.7485970">
        <ele>481.0</ele>
        <time>2018-09-14T17:06:25Z</time>
      </trkpt>
      <trkpt lat="-24.7546490" lon="-53.7485770">
        <ele>481.1</ele>
        <time>2018-09-14T17:06:26Z</time>
      </trkpt>
      <trkpt lat="-24.7546430" lon="-53.7485570">
        <ele>481.3</ele>
        <time>2018-09-14T17:06:27Z</time>
      </trkpt>
      <trkpt lat="-24.7546420" lon="-53.7485360">
        <ele>481.6</ele>
        <time>2018-09-14T17:06:28Z</time>
      </trkpt>
      <trkpt lat="-24.7546480" lon="-53.7485190">
        <ele>481.8</ele>
        <time>2018-09-14T17:06:29Z</time>
      </trkpt>
      <trkpt lat="-24.7546500" lon="-53.7485010">
        <ele>482.0</ele>
        <time>2018-09-14T17:06:30Z</time>
      </trkpt>
      <trkpt lat="-24.7546490" lon="-53.7484850">
        <ele>482.2</ele>
        <time>2018-09-14T17:06:31Z</time>
      </trkpt>
      <trkpt lat="-24.7546420" lon="-53.7484650">
        <ele>482.3</ele>
        <time>2018-09-14T17:06:32Z</time>
      </trkpt>
      <trkpt lat="-24.7546350" lon="-53.7484450">
        <ele>482.5</ele>
        <time>2018-09-14T17:06:33Z</time>
      </trkpt>
      <trkpt lat="-24.7546300" lon="-53.7484250">
        <ele>482.6</ele>
        <time>2018-09-14T17:06:34Z</time>
      </trkpt>
      <trkpt lat="-24.7546290" lon="-53.7484020">
        <ele>482.8</ele>
        <time>2018-09-14T17:06:35Z</time>
      </trkpt>
      <trkpt lat="-24.7546240" lon="-53.7483820">
        <ele>482.9</ele>
        <time>2018-09-14T17:06:36Z</time>
      </trkpt>
      <trkpt lat="-24.7546240" lon="-53.7483630">
        <ele>483.1</ele>
        <time>2018-09-14T17:06:37Z</time>
      </trkpt>
      <trkpt lat="-24.7546260" lon="-53.7483420">
        <ele>483.2</ele>
        <time>2018-09-14T17:06:38Z</time>
      </trkpt>
      <trkpt lat="-24.7546240" lon="-53.7483200">
        <ele>483.4</ele>
        <time>2018-09-14T17:06:39Z</time>
      </trkpt>
      <trkpt lat="-24.7546270" lon="-53.7482990">
        <ele>483.5</ele>
        <time>2018-09-14T17:06:40Z</time>
      </trkpt>
      <trkpt lat="-24.7546300" lon="-53.7482780">
        <ele>483.8</ele>
        <time>2018-09-14T17:06:41Z</time>
      </trkpt>
      <trkpt lat="-24.7546380" lon="-53.7482580">
        <ele>484.1</ele>
        <time>2018-09-14T17:06:42Z</time>
      </trkpt>
      <trkpt lat="-24.7546440" lon="-53.7482390">
        <ele>484.4</ele>
        <time>2018-09-14T17:06:43Z</time>
      </trkpt>
      <trkpt lat="-24.7546440" lon="-53.7482190">
        <ele>484.7</ele>
        <time>2018-09-14T17:06:44Z</time>
      </trkpt>
      <trkpt lat="-24.7546480" lon="-53.7482000">
        <ele>485.0</ele>
        <time>2018-09-14T17:06:45Z</time>
      </trkpt>
      <trkpt lat="-24.7546490" lon="-53.7481810">
        <ele>485.3</ele>
        <time>2018-09-14T17:06:46Z</time>
      </trkpt>
      <trkpt lat="-24.7546540" lon="-53.7481660">
        <ele>485.5</ele>
        <time>2018-09-14T17:06:47Z</time>
      </trkpt>
      <trkpt lat="-24.7546550" lon="-53.7481470">
        <ele>485.8</ele>
        <time>2018-09-14T17:06:48Z</time>
      </trkpt>
      <trkpt lat="-24.7546540" lon="-53.7481280">
        <ele>486.0</ele>
        <time>2018-09-14T17:06:49Z</time>
      </trkpt>
      <trkpt lat="-24.7546520" lon="-53.7481090">
        <ele>486.3</ele>
        <time>2018-09-14T17:06:50Z</time>
      </trkpt>
      <trkpt lat="-24.7546500" lon="-53.7480900">
        <ele>486.5</ele>
        <time>2018-09-14T17:06:51Z</time>
      </trkpt>
      <trkpt lat="-24.7546530" lon="-53.7480720">
        <ele>486.7</ele>
        <time>2018-09-14T17:06:52Z</time>
      </trkpt>
      <trkpt lat="-24.7546480" lon="-53.7480480">
        <ele>487.0</ele>
        <time>2018-09-14T17:06:53Z</time>
      </trkpt>
      <trkpt lat="-24.7546530" lon="-53.7480290">
        <ele>487.3</ele>
        <time>2018-09-14T17:06:54Z</time>
      </trkpt>
      <trkpt lat="-24.7546500" lon="-53.7480070">
        <ele>487.5</ele>
        <time>2018-09-14T17:06:55Z</time>
      </trkpt>
      <trkpt lat="-24.7546490" lon="-53.7479850">
        <ele>487.8</ele>
        <time>2018-09-14T17:06:56Z</time>
      </trkpt>
      <trkpt lat="-24.7546490" lon="-53.7479630">
        <ele>488.1</ele>
        <time>2018-09-14T17:06:57Z</time>
      </trkpt>
      <trkpt lat="-24.7546480" lon="-53.7479420">
        <ele>488.3</ele>
        <time>2018-09-14T17:06:58Z</time>
      </trkpt>
      <trkpt lat="-24.7546450" lon="-53.7479210">
        <ele>488.6</ele>
        <time>2018-09-14T17:06:59Z</time>
      </trkpt>
      <trkpt lat="-24.7546390" lon="-53.7479020">
        <ele>488.8</ele>
        <time>2018-09-14T17:07:00Z</time>
      </trkpt>
      <trkpt lat="-24.7546300" lon="-53.7478810">
        <ele>489.1</ele>
        <time>2018-09-14T17:07:01Z</time>
      </trkpt>
      <trkpt lat="-24.7546270" lon="-53.7478640">
        <ele>489.3</ele>
        <time>2018-09-14T17:07:02Z</time>
      </trkpt>
      <trkpt lat="-24.7546250" lon="-53.7478470">
        <ele>489.6</ele>
        <time>2018-09-14T17:07:03Z</time>
      </trkpt>
      <trkpt lat="-24.7546220" lon="-53.7478290">
        <ele>489.8</ele>
        <time>2018-09-14T17:07:04Z</time>
      </trkpt>
      <trkpt lat="-24.7546210" lon="-53.7478110">
        <ele>490.0</ele>
        <time>2018-09-14T17:07:05Z</time>
      </trkpt>
      <trkpt lat="-24.7546180" lon="-53.7477920">
        <ele>490.3</ele>
        <time>2018-09-14T17:07:06Z</time>
      </trkpt>
      <trkpt lat="-24.7546180" lon="-53.7477920">
        <ele>490.3</ele>
        <time>2018-09-14T17:07:07Z</time>
      </trkpt>
      <trkpt lat="-24.7546180" lon="-53.7477740">
        <ele>490.5</ele>
        <time>2018-09-14T17:07:08Z</time>
      </trkpt>
      <trkpt lat="-24.7546150" lon="-53.7477550">
        <ele>490.8</ele>
        <time>2018-09-14T17:07:09Z</time>
      </trkpt>
      <trkpt lat="-24.7546110" lon="-53.7477180">
        <ele>491.3</ele>
        <time>2018-09-14T17:07:10Z</time>
      </trkpt>
      <trkpt lat="-24.7546110" lon="-53.7477180">
        <ele>491.3</ele>
        <time>2018-09-14T17:07:11Z</time>
      </trkpt>
      <trkpt lat="-24.7546100" lon="-53.7477010">
        <ele>491.6</ele>
        <time>2018-09-14T17:07:12Z</time>
      </trkpt>
      <trkpt lat="-24.7546060" lon="-53.7476850">
        <ele>491.6</ele>
        <time>2018-09-14T17:07:13Z</time>
      </trkpt>
      <trkpt lat="-24.7545990" lon="-53.7476690">
        <ele>491.6</ele>
        <time>2018-09-14T17:07:14Z</time>
      </trkpt>
      <trkpt lat="-24.7545940" lon="-53.7476520">
        <ele>491.7</ele>
        <time>2018-09-14T17:07:15Z</time>
      </trkpt>
      <trkpt lat="-24.7545910" lon="-53.7476350">
        <ele>491.7</ele>
        <time>2018-09-14T17:07:16Z</time>
      </trkpt>
      <trkpt lat="-24.7545890" lon="-53.7476180">
        <ele>491.8</ele>
        <time>2018-09-14T17:07:17Z</time>
      </trkpt>
      <trkpt lat="-24.7545840" lon="-53.7476010">
        <ele>491.9</ele>
        <time>2018-09-14T17:07:18Z</time>
      </trkpt>
      <trkpt lat="-24.7545830" lon="-53.7475850">
        <ele>492.0</ele>
        <time>2018-09-14T17:07:19Z</time>
      </trkpt>
      <trkpt lat="-24.7545790" lon="-53.7475690">
        <ele>492.1</ele>
        <time>2018-09-14T17:07:20Z</time>
      </trkpt>
      <trkpt lat="-24.7545740" lon="-53.7475530">
        <ele>492.2</ele>
        <time>2018-09-14T17:07:21Z</time>
      </trkpt>
      <trkpt lat="-24.7545690" lon="-53.7475360">
        <ele>492.4</ele>
        <time>2018-09-14T17:07:22Z</time>
      </trkpt>
      <trkpt lat="-24.7545620" lon="-53.7475200">
        <ele>492.5</ele>
        <time>2018-09-14T17:07:23Z</time>
      </trkpt>
      <trkpt lat="-24.7545560" lon="-53.7475030">
        <ele>492.6</ele>
        <time>2018-09-14T17:07:24Z</time>
      </trkpt>
      <trkpt lat="-24.7545500" lon="-53.7474860">
        <ele>492.7</ele>
        <time>2018-09-14T17:07:25Z</time>
      </trkpt>
      <trkpt lat="-24.7545450" lon="-53.7474690">
        <ele>492.8</ele>
        <time>2018-09-14T17:07:26Z</time>
      </trkpt>
      <trkpt lat="-24.7545390" lon="-53.7474520">
        <ele>492.9</ele>
        <time>2018-09-14T17:07:27Z</time>
      </trkpt>
      <trkpt lat="-24.7545330" lon="-53.7474360">
        <ele>493.0</ele>
        <time>2018-09-14T17:07:28Z</time>
      </trkpt>
      <trkpt lat="-24.7545270" lon="-53.7474180">
        <ele>493.1</ele>
        <time>2018-09-14T17:07:29Z</time>
      </trkpt>
      <trkpt lat="-24.7545220" lon="-53.7474010">
        <ele>493.3</ele>
        <time>2018-09-14T17:07:30Z</time>
      </trkpt>
      <trkpt lat="-24.7545150" lon="-53.7473840">
        <ele>493.4</ele>
        <time>2018-09-14T17:07:31Z</time>
      </trkpt>
      <trkpt lat="-24.7545090" lon="-53.7473670">
        <ele>493.5</ele>
        <time>2018-09-14T17:07:32Z</time>
      </trkpt>
      <trkpt lat="-24.7545010" lon="-53.7473500">
        <ele>493.6</ele>
        <time>2018-09-14T17:07:33Z</time>
      </trkpt>
      <trkpt lat="-24.7544940" lon="-53.7473340">
        <ele>493.8</ele>
        <time>2018-09-14T17:07:34Z</time>
      </trkpt>
      <trkpt lat="-24.7544860" lon="-53.7473180">
        <ele>493.8</ele>
        <time>2018-09-14T17:07:35Z</time>
      </trkpt>
      <trkpt lat="-24.7544790" lon="-53.7473010">
        <ele>493.9</ele>
        <time>2018-09-14T17:07:36Z</time>
      </trkpt>
      <trkpt lat="-24.7544760" lon="-53.7472820">
        <ele>493.9</ele>
        <time>2018-09-14T17:07:37Z</time>
      </trkpt>
      <trkpt lat="-24.7544750" lon="-53.7472630">
        <ele>494.0</ele>
        <time>2018-09-14T17:07:38Z</time>
      </trkpt>
      <trkpt lat="-24.7544730" lon="-53.7472440">
        <ele>494.2</ele>
        <time>2018-09-14T17:07:39Z</time>
      </trkpt>
      <trkpt lat="-24.7544720" lon="-53.7472260">
        <ele>494.4</ele>
        <time>2018-09-14T17:07:40Z</time>
      </trkpt>
      <trkpt lat="-24.7544720" lon="-53.7472080">
        <ele>494.5</ele>
        <time>2018-09-14T17:07:41Z</time>
      </trkpt>
      <trkpt lat="-24.7544710" lon="-53.7471900">
        <ele>494.7</ele>
        <time>2018-09-14T17:07:42Z</time>
      </trkpt>
      <trkpt lat="-24.7544710" lon="-53.7471710">
        <ele>494.8</ele>
        <time>2018-09-14T17:07:43Z</time>
      </trkpt>
      <trkpt lat="-24.7544710" lon="-53.7471520">
        <ele>496.3</ele>
        <time>2018-09-14T17:07:44Z</time>
      </trkpt>
      <trkpt lat="-24.7544740" lon="-53.7471330">
        <ele>496.5</ele>
        <time>2018-09-14T17:07:45Z</time>
      </trkpt>
      <trkpt lat="-24.7544780" lon="-53.7471120">
        <ele>496.7</ele>
        <time>2018-09-14T17:07:46Z</time>
      </trkpt>
      <trkpt lat="-24.7544830" lon="-53.7470910">
        <ele>497.1</ele>
        <time>2018-09-14T17:07:47Z</time>
      </trkpt>
      <trkpt lat="-24.7544890" lon="-53.7470710">
        <ele>497.5</ele>
        <time>2018-09-14T17:07:48Z</time>
      </trkpt>
      <trkpt lat="-24.7544970" lon="-53.7470510">
        <ele>497.9</ele>
        <time>2018-09-14T17:07:49Z</time>
      </trkpt>
      <trkpt lat="-24.7545050" lon="-53.7470270">
        <ele>498.3</ele>
        <time>2018-09-14T17:07:50Z</time>
      </trkpt>
      <trkpt lat="-24.7545100" lon="-53.7470010">
        <ele>498.5</ele>
        <time>2018-09-14T17:07:51Z</time>
      </trkpt>
      <trkpt lat="-24.7545160" lon="-53.7469740">
        <ele>498.8</ele>
        <time>2018-09-14T17:07:52Z</time>
      </trkpt>
      <trkpt lat="-24.7545240" lon="-53.7469450">
        <ele>499.0</ele>
        <time>2018-09-14T17:07:53Z</time>
      </trkpt>
      <trkpt lat="-24.7545320" lon="-53.7469160">
        <ele>499.4</ele>
        <time>2018-09-14T17:07:54Z</time>
      </trkpt>
      <trkpt lat="-24.7545390" lon="-53.7468870">
        <ele>499.8</ele>
        <time>2018-09-14T17:07:55Z</time>
      </trkpt>
      <trkpt lat="-24.7545450" lon="-53.7468580">
        <ele>500.1</ele>
        <time>2018-09-14T17:07:56Z</time>
      </trkpt>
      <trkpt lat="-24.7545520" lon="-53.7468290">
        <ele>500.4</ele>
        <time>2018-09-14T17:07:57Z</time>
      </trkpt>
      <trkpt lat="-24.7545590" lon="-53.7468010">
        <ele>500.6</ele>
        <time>2018-09-14T17:07:58Z</time>
      </trkpt>
      <trkpt lat="-24.7545670" lon="-53.7467740">
        <ele>500.9</ele>
        <time>2018-09-14T17:07:59Z</time>
      </trkpt>
      <trkpt lat="-24.7545720" lon="-53.7467480">
        <ele>500.9</ele>
        <time>2018-09-14T17:08:00Z</time>
      </trkpt>
      <trkpt lat="-24.7545780" lon="-53.7467220">
        <ele>501.0</ele>
        <time>2018-09-14T17:08:01Z</time>
      </trkpt>
      <trkpt lat="-24.7545820" lon="-53.7466960">
        <ele>501.0</ele>
        <time>2018-09-14T17:08:02Z</time>
      </trkpt>
      <trkpt lat="-24.7545850" lon="-53.7466690">
        <ele>501.1</ele>
        <time>2018-09-14T17:08:03Z</time>
      </trkpt>
      <trkpt lat="-24.7545890" lon="-53.7466430">
        <ele>501.2</ele>
        <time>2018-09-14T17:08:04Z</time>
      </trkpt>
      <trkpt lat="-24.7545890" lon="-53.7466170">
        <ele>501.2</ele>
        <time>2018-09-14T17:08:05Z</time>
      </trkpt>
      <trkpt lat="-24.7545850" lon="-53.7465910">
        <ele>501.3</ele>
        <time>2018-09-14T17:08:06Z</time>
      </trkpt>
      <trkpt lat="-24.7545790" lon="-53.7465660">
        <ele>501.4</ele>
        <time>2018-09-14T17:08:07Z</time>
      </trkpt>
      <trkpt lat="-24.7545750" lon="-53.7465400">
        <ele>501.5</ele>
        <time>2018-09-14T17:08:08Z</time>
      </trkpt>
      <trkpt lat="-24.7545780" lon="-53.7465140">
        <ele>501.7</ele>
        <time>2018-09-14T17:08:09Z</time>
      </trkpt>
      <trkpt lat="-24.7545820" lon="-53.7464880">
        <ele>501.8</ele>
        <time>2018-09-14T17:08:10Z</time>
      </trkpt>
      <trkpt lat="-24.7545840" lon="-53.7464620">
        <ele>501.9</ele>
        <time>2018-09-14T17:08:11Z</time>
      </trkpt>
      <trkpt lat="-24.7545880" lon="-53.7464360">
        <ele>502.0</ele>
        <time>2018-09-14T17:08:12Z</time>
      </trkpt>
      <trkpt lat="-24.7545940" lon="-53.7464060">
        <ele>502.3</ele>
        <time>2018-09-14T17:08:13Z</time>
      </trkpt>
      <trkpt lat="-24.7546030" lon="-53.7463730">
        <ele>502.8</ele>
        <time>2018-09-14T17:08:14Z</time>
      </trkpt>
      <trkpt lat="-24.7546250" lon="-53.7463460">
        <ele>503.4</ele>
        <time>2018-09-14T17:08:15Z</time>
      </trkpt>
      <trkpt lat="-24.7546540" lon="-53.7463280">
        <ele>503.8</ele>
        <time>2018-09-14T17:08:16Z</time>
      </trkpt>
      <trkpt lat="-24.7546810" lon="-53.7463150">
        <ele>503.9</ele>
        <time>2018-09-14T17:08:17Z</time>
      </trkpt>
      <trkpt lat="-24.7547080" lon="-53.7463030">
        <ele>501.7</ele>
        <time>2018-09-14T17:08:18Z</time>
      </trkpt>
      <trkpt lat="-24.7547290" lon="-53.7463010">
        <ele>498.7</ele>
        <time>2018-09-14T17:08:19Z</time>
      </trkpt>
      <trkpt lat="-24.7547350" lon="-53.7463160">
        <ele>498.7</ele>
        <time>2018-09-14T17:08:20Z</time>
      </trkpt>
      <trkpt lat="-24.7547340" lon="-53.7463410">
        <ele>498.5</ele>
        <time>2018-09-14T17:08:21Z</time>
      </trkpt>
      <trkpt lat="-24.7547300" lon="-53.7463690">
        <ele>498.4</ele>
        <time>2018-09-14T17:08:22Z</time>
      </trkpt>
      <trkpt lat="-24.7547260" lon="-53.7464030">
        <ele>498.2</ele>
        <time>2018-09-14T17:08:23Z</time>
      </trkpt>
      <trkpt lat="-24.7547250" lon="-53.7464420">
        <ele>498.0</ele>
        <time>2018-09-14T17:08:24Z</time>
      </trkpt>
      <trkpt lat="-24.7547230" lon="-53.7464830">
        <ele>497.9</ele>
        <time>2018-09-14T17:08:25Z</time>
      </trkpt>
      <trkpt lat="-24.7547190" lon="-53.7465240">
        <ele>497.7</ele>
        <time>2018-09-14T17:08:26Z</time>
      </trkpt>
      <trkpt lat="-24.7547140" lon="-53.7465670">
        <ele>497.6</ele>
        <time>2018-09-14T17:08:27Z</time>
      </trkpt>
      <trkpt lat="-24.7547080" lon="-53.7466090">
        <ele>497.4</ele>
        <time>2018-09-14T17:08:28Z</time>
      </trkpt>
      <trkpt lat="-24.7546990" lon="-53.7466570">
        <ele>497.2</ele>
        <time>2018-09-14T17:08:29Z</time>
      </trkpt>
      <trkpt lat="-24.7546890" lon="-53.7467040">
        <ele>497.0</ele>
        <time>2018-09-14T17:08:30Z</time>
      </trkpt>
      <trkpt lat="-24.7546800" lon="-53.7467510">
        <ele>496.7</ele>
        <time>2018-09-14T17:08:31Z</time>
      </trkpt>
      <trkpt lat="-24.7546690" lon="-53.7468000">
        <ele>496.5</ele>
        <time>2018-09-14T17:08:32Z</time>
      </trkpt>
      <trkpt lat="-24.7546580" lon="-53.7468490">
        <ele>496.2</ele>
        <time>2018-09-14T17:08:33Z</time>
      </trkpt>
      <trkpt lat="-24.7546460" lon="-53.7468990">
        <ele>495.9</ele>
        <time>2018-09-14T17:08:34Z</time>
      </trkpt>
      <trkpt lat="-24.7546330" lon="-53.7469500">
        <ele>495.6</ele>
        <time>2018-09-14T17:08:35Z</time>
      </trkpt>
      <trkpt lat="-24.7546210" lon="-53.7470000">
        <ele>495.3</ele>
        <time>2018-09-14T17:08:36Z</time>
      </trkpt>
      <trkpt lat="-24.7546110" lon="-53.7470500">
        <ele>495.0</ele>
        <time>2018-09-14T17:08:37Z</time>
      </trkpt>
      <trkpt lat="-24.7546030" lon="-53.7471000">
        <ele>495.0</ele>
        <time>2018-09-14T17:08:38Z</time>
      </trkpt>
      <trkpt lat="-24.7545970" lon="-53.7471510">
        <ele>495.0</ele>
        <time>2018-09-14T17:08:39Z</time>
      </trkpt>
      <trkpt lat="-24.7545990" lon="-53.7472010">
        <ele>495.0</ele>
        <time>2018-09-14T17:08:40Z</time>
      </trkpt>
      <trkpt lat="-24.7546070" lon="-53.7472480">
        <ele>495.0</ele>
        <time>2018-09-14T17:08:41Z</time>
      </trkpt>
      <trkpt lat="-24.7546470" lon="-53.7473260">
        <ele>495.0</ele>
        <time>2018-09-14T17:08:42Z</time>
      </trkpt>
      <trkpt lat="-24.7546840" lon="-53.7473490">
        <ele>495.0</ele>
        <time>2018-09-14T17:08:43Z</time>
      </trkpt>
      <trkpt lat="-24.7547670" lon="-53.7473750">
        <ele>495.0</ele>
        <time>2018-09-14T17:08:45Z</time>
      </trkpt>
      <trkpt lat="-24.7548120" lon="-53.7473810">
        <ele>495.0</ele>
        <time>2018-09-14T17:08:46Z</time>
      </trkpt>
      <trkpt lat="-24.7548620" lon="-53.7473780">
        <ele>495.0</ele>
        <time>2018-09-14T17:08:47Z</time>
      </trkpt>
      <trkpt lat="-24.7549140" lon="-53.7473690">
        <ele>495.0</ele>
        <time>2018-09-14T17:08:48Z</time>
      </trkpt>
      <trkpt lat="-24.7549680" lon="-53.7473520">
        <ele>495.0</ele>
        <time>2018-09-14T17:08:49Z</time>
      </trkpt>
      <trkpt lat="-24.7550260" lon="-53.7473400">
        <ele>495.0</ele>
        <time>2018-09-14T17:08:50Z</time>
      </trkpt>
      <trkpt lat="-24.7550850" lon="-53.7473450">
        <ele>495.0</ele>
        <time>2018-09-14T17:08:51Z</time>
      </trkpt>
      <trkpt lat="-24.7551420" lon="-53.7473630">
        <ele>495.1</ele>
        <time>2018-09-14T17:08:52Z</time>
      </trkpt>
      <trkpt lat="-24.7551940" lon="-53.7473880">
        <ele>495.1</ele>
        <time>2018-09-14T17:08:53Z</time>
      </trkpt>
      <trkpt lat="-24.7552460" lon="-53.7474200">
        <ele>495.2</ele>
        <time>2018-09-14T17:08:54Z</time>
      </trkpt>
      <trkpt lat="-24.7552970" lon="-53.7474530">
        <ele>495.2</ele>
        <time>2018-09-14T17:08:55Z</time>
      </trkpt>
      <trkpt lat="-24.7553480" lon="-53.7474860">
        <ele>495.3</ele>
        <time>2018-09-14T17:08:56Z</time>
      </trkpt>
      <trkpt lat="-24.7554000" lon="-53.7475190">
        <ele>495.4</ele>
        <time>2018-09-14T17:08:57Z</time>
      </trkpt>
      <trkpt lat="-24.7554500" lon="-53.7475530">
        <ele>495.4</ele>
        <time>2018-09-14T17:08:58Z</time>
      </trkpt>
      <trkpt lat="-24.7555000" lon="-53.7475850">
        <ele>495.5</ele>
        <time>2018-09-14T17:08:59Z</time>
      </trkpt>
      <trkpt lat="-24.7555500" lon="-53.7476180">
        <ele>495.6</ele>
        <time>2018-09-14T17:09:00Z</time>
      </trkpt>
      <trkpt lat="-24.7555990" lon="-53.7476500">
        <ele>495.6</ele>
        <time>2018-09-14T17:09:01Z</time>
      </trkpt>
      <trkpt lat="-24.7556470" lon="-53.7476820">
        <ele>495.7</ele>
        <time>2018-09-14T17:09:02Z</time>
      </trkpt>
      <trkpt lat="-24.7556940" lon="-53.7477130">
        <ele>495.7</ele>
        <time>2018-09-14T17:09:03Z</time>
      </trkpt>
      <trkpt lat="-24.7557860" lon="-53.7477720">
        <ele>495.8</ele>
        <time>2018-09-14T17:09:05Z</time>
      </trkpt>
      <trkpt lat="-24.7558310" lon="-53.7478010">
        <ele>495.8</ele>
        <time>2018-09-14T17:09:06Z</time>
      </trkpt>
      <trkpt lat="-24.7558750" lon="-53.7478310">
        <ele>495.9</ele>
        <time>2018-09-14T17:09:07Z</time>
      </trkpt>
      <trkpt lat="-24.7559180" lon="-53.7478600">
        <ele>495.9</ele>
        <time>2018-09-14T17:09:08Z</time>
      </trkpt>
      <trkpt lat="-24.7559610" lon="-53.7478880">
        <ele>496.0</ele>
        <time>2018-09-14T17:09:09Z</time>
      </trkpt>
      <trkpt lat="-24.7560030" lon="-53.7479160">
        <ele>496.0</ele>
        <time>2018-09-14T17:09:10Z</time>
      </trkpt>
      <trkpt lat="-24.7560440" lon="-53.7479440">
        <ele>496.1</ele>
        <time>2018-09-14T17:09:11Z</time>
      </trkpt>
      <trkpt lat="-24.7560860" lon="-53.7479700">
        <ele>496.2</ele>
        <time>2018-09-14T17:09:12Z</time>
      </trkpt>
      <trkpt lat="-24.7561280" lon="-53.7479960">
        <ele>496.3</ele>
        <time>2018-09-14T17:09:13Z</time>
      </trkpt>
      <trkpt lat="-24.7561670" lon="-53.7480220">
        <ele>496.4</ele>
        <time>2018-09-14T17:09:14Z</time>
      </trkpt>
      <trkpt lat="-24.7562070" lon="-53.7480490">
        <ele>496.5</ele>
        <time>2018-09-14T17:09:15Z</time>
      </trkpt>
      <trkpt lat="-24.7562460" lon="-53.7480750">
        <ele>496.6</ele>
        <time>2018-09-14T17:09:16Z</time>
      </trkpt>
      <trkpt lat="-24.7562850" lon="-53.7481010">
        <ele>496.6</ele>
        <time>2018-09-14T17:09:17Z</time>
      </trkpt>
      <trkpt lat="-24.7563240" lon="-53.7481270">
        <ele>496.7</ele>
        <time>2018-09-14T17:09:18Z</time>
      </trkpt>
      <trkpt lat="-24.7563620" lon="-53.7481550">
        <ele>496.8</ele>
        <time>2018-09-14T17:09:19Z</time>
      </trkpt>
      <trkpt lat="-24.7564010" lon="-53.7481810">
        <ele>496.8</ele>
        <time>2018-09-14T17:09:20Z</time>
      </trkpt>
      <trkpt lat="-24.7564400" lon="-53.7482080">
        <ele>496.9</ele>
        <time>2018-09-14T17:09:21Z</time>
      </trkpt>
      <trkpt lat="-24.7564800" lon="-53.7482350">
        <ele>497.0</ele>
        <time>2018-09-14T17:09:22Z</time>
      </trkpt>
      <trkpt lat="-24.7565560" lon="-53.7482870">
        <ele>497.3</ele>
        <time>2018-09-14T17:09:24Z</time>
      </trkpt>
      <trkpt lat="-24.7565950" lon="-53.7483120">
        <ele>497.4</ele>
        <time>2018-09-14T17:09:25Z</time>
      </trkpt>
      <trkpt lat="-24.7566330" lon="-53.7483380">
        <ele>497.6</ele>
        <time>2018-09-14T17:09:26Z</time>
      </trkpt>
      <trkpt lat="-24.7566710" lon="-53.7483640">
        <ele>497.8</ele>
        <time>2018-09-14T17:09:27Z</time>
      </trkpt>
      <trkpt lat="-24.7567090" lon="-53.7483890">
        <ele>498.0</ele>
        <time>2018-09-14T17:09:28Z</time>
      </trkpt>
      <trkpt lat="-24.7567470" lon="-53.7484130">
        <ele>498.2</ele>
        <time>2018-09-14T17:09:29Z</time>
      </trkpt>
      <trkpt lat="-24.7567830" lon="-53.7484380">
        <ele>498.3</ele>
        <time>2018-09-14T17:09:30Z</time>
      </trkpt>
      <trkpt lat="-24.7568190" lon="-53.7484630">
        <ele>498.5</ele>
        <time>2018-09-14T17:09:31Z</time>
      </trkpt>
      <trkpt lat="-24.7568540" lon="-53.7484880">
        <ele>498.9</ele>
        <time>2018-09-14T17:09:32Z</time>
      </trkpt>
      <trkpt lat="-24.7568880" lon="-53.7485120">
        <ele>499.4</ele>
        <time>2018-09-14T17:09:33Z</time>
      </trkpt>
      <trkpt lat="-24.7569220" lon="-53.7485340">
        <ele>499.9</ele>
        <time>2018-09-14T17:09:34Z</time>
      </trkpt>
      <trkpt lat="-24.7569540" lon="-53.7485570">
        <ele>500.3</ele>
        <time>2018-09-14T17:09:35Z</time>
      </trkpt>
      <trkpt lat="-24.7569870" lon="-53.7485790">
        <ele>500.8</ele>
        <time>2018-09-14T17:09:36Z</time>
      </trkpt>
      <trkpt lat="-24.7570200" lon="-53.7486020">
        <ele>501.3</ele>
        <time>2018-09-14T17:09:37Z</time>
      </trkpt>
      <trkpt lat="-24.7570530" lon="-53.7486240">
        <ele>501.7</ele>
        <time>2018-09-14T17:09:38Z</time>
      </trkpt>
      <trkpt lat="-24.7570860" lon="-53.7486470">
        <ele>502.0</ele>
        <time>2018-09-14T17:09:39Z</time>
      </trkpt>
      <trkpt lat="-24.7571190" lon="-53.7486700">
        <ele>502.2</ele>
        <time>2018-09-14T17:09:40Z</time>
      </trkpt>
      <trkpt lat="-24.7571520" lon="-53.7486920">
        <ele>502.4</ele>
        <time>2018-09-14T17:09:41Z</time>
      </trkpt>
      <trkpt lat="-24.7571840" lon="-53.7487160">
        <ele>502.6</ele>
        <time>2018-09-14T17:09:42Z</time>
      </trkpt>
      <trkpt lat="-24.7572170" lon="-53.7487390">
        <ele>502.8</ele>
        <time>2018-09-14T17:09:43Z</time>
      </trkpt>
      <trkpt lat="-24.7572490" lon="-53.7487610">
        <ele>503.0</ele>
        <time>2018-09-14T17:09:44Z</time>
      </trkpt>
      <trkpt lat="-24.7572820" lon="-53.7487830">
        <ele>503.2</ele>
        <time>2018-09-14T17:09:45Z</time>
      </trkpt>
      <trkpt lat="-24.7573150" lon="-53.7488050">
        <ele>503.4</ele>
        <time>2018-09-14T17:09:46Z</time>
      </trkpt>
      <trkpt lat="-24.7573480" lon="-53.7488270">
        <ele>503.6</ele>
        <time>2018-09-14T17:09:47Z</time>
      </trkpt>
      <trkpt lat="-24.7573820" lon="-53.7488500">
        <ele>503.8</ele>
        <time>2018-09-14T17:09:48Z</time>
      </trkpt>
      <trkpt lat="-24.7574160" lon="-53.7488730">
        <ele>504.0</ele>
        <time>2018-09-14T17:09:49Z</time>
      </trkpt>
      <trkpt lat="-24.7574510" lon="-53.7488970">
        <ele>504.2</ele>
        <time>2018-09-14T17:09:50Z</time>
      </trkpt>
      <trkpt lat="-24.7574860" lon="-53.7489230">
        <ele>504.4</ele>
        <time>2018-09-14T17:09:51Z</time>
      </trkpt>
      <trkpt lat="-24.7575220" lon="-53.7489470">
        <ele>504.6</ele>
        <time>2018-09-14T17:09:52Z</time>
      </trkpt>
      <trkpt lat="-24.7575580" lon="-53.7489710">
        <ele>504.8</ele>
        <time>2018-09-14T17:09:53Z</time>
      </trkpt>
      <trkpt lat="-24.7575920" lon="-53.7489960">
        <ele>505.0</ele>
        <time>2018-09-14T17:09:54Z</time>
      </trkpt>
      <trkpt lat="-24.7576260" lon="-53.7490210">
        <ele>505.2</ele>
        <time>2018-09-14T17:09:55Z</time>
      </trkpt>
      <trkpt lat="-24.7576590" lon="-53.7490440">
        <ele>505.3</ele>
        <time>2018-09-14T17:09:56Z</time>
      </trkpt>
      <trkpt lat="-24.7576920" lon="-53.7490670">
        <ele>505.5</ele>
        <time>2018-09-14T17:09:57Z</time>
      </trkpt>
      <trkpt lat="-24.7577250" lon="-53.7490890">
        <ele>505.6</ele>
        <time>2018-09-14T17:09:58Z</time>
      </trkpt>
      <trkpt lat="-24.7577590" lon="-53.7491110">
        <ele>505.8</ele>
        <time>2018-09-14T17:09:59Z</time>
      </trkpt>
      <trkpt lat="-24.7577920" lon="-53.7491320">
        <ele>505.9</ele>
        <time>2018-09-14T17:10:00Z</time>
      </trkpt>
      <trkpt lat="-24.7578240" lon="-53.7491550">
        <ele>506.1</ele>
        <time>2018-09-14T17:10:01Z</time>
      </trkpt>
      <trkpt lat="-24.7578560" lon="-53.7491780">
        <ele>506.3</ele>
        <time>2018-09-14T17:10:02Z</time>
      </trkpt>
      <trkpt lat="-24.7578890" lon="-53.7491990">
        <ele>506.4</ele>
        <time>2018-09-14T17:10:03Z</time>
      </trkpt>
      <trkpt lat="-24.7579220" lon="-53.7492190">
        <ele>506.5</ele>
        <time>2018-09-14T17:10:04Z</time>
      </trkpt>
      <trkpt lat="-24.7579530" lon="-53.7492420">
        <ele>506.6</ele>
        <time>2018-09-14T17:10:05Z</time>
      </trkpt>
      <trkpt lat="-24.7579840" lon="-53.7492640">
        <ele>506.7</ele>
        <time>2018-09-14T17:10:06Z</time>
      </trkpt>
      <trkpt lat="-24.7580140" lon="-53.7492860">
        <ele>506.8</ele>
        <time>2018-09-14T17:10:07Z</time>
      </trkpt>
      <trkpt lat="-24.7580450" lon="-53.7493070">
        <ele>506.8</ele>
        <time>2018-09-14T17:10:08Z</time>
      </trkpt>
      <trkpt lat="-24.7580760" lon="-53.7493270">
        <ele>507.0</ele>
        <time>2018-09-14T17:10:09Z</time>
      </trkpt>
      <trkpt lat="-24.7581060" lon="-53.7493470">
        <ele>507.1</ele>
        <time>2018-09-14T17:10:10Z</time>
      </trkpt>
      <trkpt lat="-24.7581360" lon="-53.7493660">
        <ele>507.2</ele>
        <time>2018-09-14T17:10:11Z</time>
      </trkpt>
      <trkpt lat="-24.7581660" lon="-53.7493860">
        <ele>507.4</ele>
        <time>2018-09-14T17:10:12Z</time>
      </trkpt>
      <trkpt lat="-24.7581950" lon="-53.7494060">
        <ele>507.5</ele>
        <time>2018-09-14T17:10:13Z</time>
      </trkpt>
      <trkpt lat="-24.7582240" lon="-53.7494250">
        <ele>507.6</ele>
        <time>2018-09-14T17:10:14Z</time>
      </trkpt>
      <trkpt lat="-24.7582530" lon="-53.7494450">
        <ele>507.7</ele>
        <time>2018-09-14T17:10:15Z</time>
      </trkpt>
      <trkpt lat="-24.7582820" lon="-53.7494660">
        <ele>507.8</ele>
        <time>2018-09-14T17:10:16Z</time>
      </trkpt>
      <trkpt lat="-24.7583120" lon="-53.7494860">
        <ele>508.0</ele>
        <time>2018-09-14T17:10:17Z</time>
      </trkpt>
      <trkpt lat="-24.7583430" lon="-53.7495060">
        <ele>508.1</ele>
        <time>2018-09-14T17:10:18Z</time>
      </trkpt>
      <trkpt lat="-24.7583730" lon="-53.7495280">
        <ele>508.2</ele>
        <time>2018-09-14T17:10:19Z</time>
      </trkpt>
      <trkpt lat="-24.7584030" lon="-53.7495480">
        <ele>508.4</ele>
        <time>2018-09-14T17:10:20Z</time>
      </trkpt>
      <trkpt lat="-24.7584350" lon="-53.7495680">
        <ele>508.5</ele>
        <time>2018-09-14T17:10:21Z</time>
      </trkpt>
      <trkpt lat="-24.7584670" lon="-53.7495890">
        <ele>508.6</ele>
        <time>2018-09-14T17:10:22Z</time>
      </trkpt>
      <trkpt lat="-24.7584980" lon="-53.7496120">
        <ele>508.8</ele>
        <time>2018-09-14T17:10:23Z</time>
      </trkpt>
      <trkpt lat="-24.7585290" lon="-53.7496340">
        <ele>508.9</ele>
        <time>2018-09-14T17:10:24Z</time>
      </trkpt>
      <trkpt lat="-24.7585600" lon="-53.7496550">
        <ele>509.0</ele>
        <time>2018-09-14T17:10:25Z</time>
      </trkpt>
      <trkpt lat="-24.7585910" lon="-53.7496770">
        <ele>509.2</ele>
        <time>2018-09-14T17:10:26Z</time>
      </trkpt>
      <trkpt lat="-24.7586230" lon="-53.7496980">
        <ele>509.3</ele>
        <time>2018-09-14T17:10:27Z</time>
      </trkpt>
      <trkpt lat="-24.7586540" lon="-53.7497180">
        <ele>509.5</ele>
        <time>2018-09-14T17:10:28Z</time>
      </trkpt>
      <trkpt lat="-24.7586850" lon="-53.7497400">
        <ele>509.6</ele>
        <time>2018-09-14T17:10:29Z</time>
      </trkpt>
      <trkpt lat="-24.7587160" lon="-53.7497620">
        <ele>509.7</ele>
        <time>2018-09-14T17:10:30Z</time>
      </trkpt>
      <trkpt lat="-24.7587470" lon="-53.7497820">
        <ele>509.9</ele>
        <time>2018-09-14T17:10:31Z</time>
      </trkpt>
      <trkpt lat="-24.7587790" lon="-53.7498040">
        <ele>510.0</ele>
        <time>2018-09-14T17:10:32Z</time>
      </trkpt>
      <trkpt lat="-24.7588100" lon="-53.7498260">
        <ele>510.1</ele>
        <time>2018-09-14T17:10:33Z</time>
      </trkpt>
      <trkpt lat="-24.7588400" lon="-53.7498480">
        <ele>510.2</ele>
        <time>2018-09-14T17:10:34Z</time>
      </trkpt>
      <trkpt lat="-24.7588710" lon="-53.7498700">
        <ele>510.3</ele>
        <time>2018-09-14T17:10:35Z</time>
      </trkpt>
      <trkpt lat="-24.7589010" lon="-53.7498910">
        <ele>510.4</ele>
        <time>2018-09-14T17:10:36Z</time>
      </trkpt>
      <trkpt lat="-24.7589310" lon="-53.7499110">
        <ele>510.4</ele>
        <time>2018-09-14T17:10:37Z</time>
      </trkpt>
      <trkpt lat="-24.7589620" lon="-53.7499310">
        <ele>510.5</ele>
        <time>2018-09-14T17:10:38Z</time>
      </trkpt>
      <trkpt lat="-24.7589920" lon="-53.7499530">
        <ele>510.5</ele>
        <time>2018-09-14T17:10:39Z</time>
      </trkpt>
      <trkpt lat="-24.7590220" lon="-53.7499740">
        <ele>510.6</ele>
        <time>2018-09-14T17:10:40Z</time>
      </trkpt>
      <trkpt lat="-24.7590530" lon="-53.7499950">
        <ele>510.6</ele>
        <time>2018-09-14T17:10:41Z</time>
      </trkpt>
      <trkpt lat="-24.7590840" lon="-53.7500160">
        <ele>510.7</ele>
        <time>2018-09-14T17:10:42Z</time>
      </trkpt>
      <trkpt lat="-24.7591140" lon="-53.7500360">
        <ele>510.7</ele>
        <time>2018-09-14T17:10:43Z</time>
      </trkpt>
      <trkpt lat="-24.7591440" lon="-53.7500580">
        <ele>510.8</ele>
        <time>2018-09-14T17:10:44Z</time>
      </trkpt>
      <trkpt lat="-24.7591740" lon="-53.7500790">
        <ele>510.8</ele>
        <time>2018-09-14T17:10:45Z</time>
      </trkpt>
      <trkpt lat="-24.7592050" lon="-53.7500990">
        <ele>510.9</ele>
        <time>2018-09-14T17:10:46Z</time>
      </trkpt>
      <trkpt lat="-24.7592340" lon="-53.7501190">
        <ele>511.0</ele>
        <time>2018-09-14T17:10:47Z</time>
      </trkpt>
      <trkpt lat="-24.7592640" lon="-53.7501380">
        <ele>511.1</ele>
        <time>2018-09-14T17:10:48Z</time>
      </trkpt>
      <trkpt lat="-24.7592930" lon="-53.7501570">
        <ele>511.3</ele>
        <time>2018-09-14T17:10:49Z</time>
      </trkpt>
      <trkpt lat="-24.7593230" lon="-53.7501750">
        <ele>511.4</ele>
        <time>2018-09-14T17:10:50Z</time>
      </trkpt>
      <trkpt lat="-24.7593530" lon="-53.7501950">
        <ele>511.5</ele>
        <time>2018-09-14T17:10:51Z</time>
      </trkpt>
      <trkpt lat="-24.7593820" lon="-53.7502160">
        <ele>511.6</ele>
        <time>2018-09-14T17:10:52Z</time>
      </trkpt>
      <trkpt lat="-24.7594110" lon="-53.7502360">
        <ele>511.7</ele>
        <time>2018-09-14T17:10:53Z</time>
      </trkpt>
      <trkpt lat="-24.7594420" lon="-53.7502570">
        <ele>511.8</ele>
        <time>2018-09-14T17:10:54Z</time>
      </trkpt>
      <trkpt lat="-24.7594720" lon="-53.7502780">
        <ele>511.9</ele>
        <time>2018-09-14T17:10:55Z</time>
      </trkpt>
      <trkpt lat="-24.7595040" lon="-53.7502990">
        <ele>512.0</ele>
        <time>2018-09-14T17:10:56Z</time>
      </trkpt>
      <trkpt lat="-24.7595040" lon="-53.7502990">
        <ele>512.0</ele>
        <time>2018-09-14T17:10:57Z</time>
      </trkpt>
      <trkpt lat="-24.7595360" lon="-53.7503190">
        <ele>512.1</ele>
        <time>2018-09-14T17:10:58Z</time>
      </trkpt>
      <trkpt lat="-24.7595670" lon="-53.7503400">
        <ele>512.3</ele>
        <time>2018-09-14T17:10:59Z</time>
      </trkpt>
      <trkpt lat="-24.7595990" lon="-53.7503610">
        <ele>512.4</ele>
        <time>2018-09-14T17:11:00Z</time>
      </trkpt>
      <trkpt lat="-24.7596300" lon="-53.7503810">
        <ele>512.5</ele>
        <time>2018-09-14T17:11:01Z</time>
      </trkpt>
      <trkpt lat="-24.7596600" lon="-53.7504020">
        <ele>512.7</ele>
        <time>2018-09-14T17:11:02Z</time>
      </trkpt>
      <trkpt lat="-24.7596900" lon="-53.7504220">
        <ele>512.8</ele>
        <time>2018-09-14T17:11:03Z</time>
      </trkpt>
      <trkpt lat="-24.7597200" lon="-53.7504420">
        <ele>513.0</ele>
        <time>2018-09-14T17:11:04Z</time>
      </trkpt>
      <trkpt lat="-24.7597490" lon="-53.7504630">
        <ele>513.1</ele>
        <time>2018-09-14T17:11:05Z</time>
      </trkpt>
      <trkpt lat="-24.7597780" lon="-53.7504860">
        <ele>513.2</ele>
        <time>2018-09-14T17:11:06Z</time>
      </trkpt>
      <trkpt lat="-24.7598080" lon="-53.7505080">
        <ele>513.4</ele>
        <time>2018-09-14T17:11:07Z</time>
      </trkpt>
      <trkpt lat="-24.7598380" lon="-53.7505280">
        <ele>513.5</ele>
        <time>2018-09-14T17:11:08Z</time>
      </trkpt>
      <trkpt lat="-24.7598670" lon="-53.7505480">
        <ele>513.6</ele>
        <time>2018-09-14T17:11:09Z</time>
      </trkpt>
      <trkpt lat="-24.7598960" lon="-53.7505680">
        <ele>513.7</ele>
        <time>2018-09-14T17:11:10Z</time>
      </trkpt>
      <trkpt lat="-24.7599240" lon="-53.7505870">
        <ele>513.8</ele>
        <time>2018-09-14T17:11:11Z</time>
      </trkpt>
      <trkpt lat="-24.7599530" lon="-53.7506060">
        <ele>513.9</ele>
        <time>2018-09-14T17:11:12Z</time>
      </trkpt>
      <trkpt lat="-24.7599800" lon="-53.7506250">
        <ele>514.0</ele>
        <time>2018-09-14T17:11:13Z</time>
      </trkpt>
      <trkpt lat="-24.7600070" lon="-53.7506460">
        <ele>514.1</ele>
        <time>2018-09-14T17:11:14Z</time>
      </trkpt>
      <trkpt lat="-24.7600350" lon="-53.7506650">
        <ele>514.2</ele>
        <time>2018-09-14T17:11:15Z</time>
      </trkpt>
      <trkpt lat="-24.7600620" lon="-53.7506850">
        <ele>514.3</ele>
        <time>2018-09-14T17:11:16Z</time>
      </trkpt>
      <trkpt lat="-24.7600890" lon="-53.7507060">
        <ele>514.3</ele>
        <time>2018-09-14T17:11:17Z</time>
      </trkpt>
      <trkpt lat="-24.7601160" lon="-53.7507250">
        <ele>514.3</ele>
        <time>2018-09-14T17:11:18Z</time>
      </trkpt>
      <trkpt lat="-24.7601440" lon="-53.7507450">
        <ele>514.4</ele>
        <time>2018-09-14T17:11:19Z</time>
      </trkpt>
      <trkpt lat="-24.7601710" lon="-53.7507630">
        <ele>514.4</ele>
        <time>2018-09-14T17:11:20Z</time>
      </trkpt>
      <trkpt lat="-24.7601990" lon="-53.7507810">
        <ele>514.4</ele>
        <time>2018-09-14T17:11:21Z</time>
      </trkpt>
      <trkpt lat="-24.7602260" lon="-53.7507990">
        <ele>514.5</ele>
        <time>2018-09-14T17:11:22Z</time>
      </trkpt>
      <trkpt lat="-24.7602530" lon="-53.7508170">
        <ele>514.5</ele>
        <time>2018-09-14T17:11:23Z</time>
      </trkpt>
      <trkpt lat="-24.7602790" lon="-53.7508360">
        <ele>514.6</ele>
        <time>2018-09-14T17:11:24Z</time>
      </trkpt>
      <trkpt lat="-24.7603060" lon="-53.7508550">
        <ele>514.6</ele>
        <time>2018-09-14T17:11:25Z</time>
      </trkpt>
      <trkpt lat="-24.7603350" lon="-53.7508720">
        <ele>514.6</ele>
        <time>2018-09-14T17:11:26Z</time>
      </trkpt>
      <trkpt lat="-24.7603640" lon="-53.7508900">
        <ele>514.7</ele>
        <time>2018-09-14T17:11:27Z</time>
      </trkpt>
      <trkpt lat="-24.7603930" lon="-53.7509110">
        <ele>514.7</ele>
        <time>2018-09-14T17:11:28Z</time>
      </trkpt>
      <trkpt lat="-24.7604220" lon="-53.7509330">
        <ele>514.7</ele>
        <time>2018-09-14T17:11:29Z</time>
      </trkpt>
      <trkpt lat="-24.7604530" lon="-53.7509530">
        <ele>514.8</ele>
        <time>2018-09-14T17:11:30Z</time>
      </trkpt>
      <trkpt lat="-24.7604840" lon="-53.7509740">
        <ele>514.8</ele>
        <time>2018-09-14T17:11:31Z</time>
      </trkpt>
      <trkpt lat="-24.7605140" lon="-53.7509960">
        <ele>514.9</ele>
        <time>2018-09-14T17:11:32Z</time>
      </trkpt>
      <trkpt lat="-24.7605440" lon="-53.7510170">
        <ele>514.9</ele>
        <time>2018-09-14T17:11:33Z</time>
      </trkpt>
      <trkpt lat="-24.7605730" lon="-53.7510380">
        <ele>514.9</ele>
        <time>2018-09-14T17:11:34Z</time>
      </trkpt>
      <trkpt lat="-24.7606030" lon="-53.7510570">
        <ele>514.9</ele>
        <time>2018-09-14T17:11:35Z</time>
      </trkpt>
      <trkpt lat="-24.7606320" lon="-53.7510770">
        <ele>514.9</ele>
        <time>2018-09-14T17:11:36Z</time>
      </trkpt>
      <trkpt lat="-24.7606610" lon="-53.7510980">
        <ele>514.9</ele>
        <time>2018-09-14T17:11:37Z</time>
      </trkpt>
      <trkpt lat="-24.7606890" lon="-53.7511190">
        <ele>514.9</ele>
        <time>2018-09-14T17:11:38Z</time>
      </trkpt>
      <trkpt lat="-24.7607200" lon="-53.7511400">
        <ele>514.9</ele>
        <time>2018-09-14T17:11:39Z</time>
      </trkpt>
      <trkpt lat="-24.7607500" lon="-53.7511600">
        <ele>514.9</ele>
        <time>2018-09-14T17:11:40Z</time>
      </trkpt>
      <trkpt lat="-24.7607820" lon="-53.7511800">
        <ele>514.9</ele>
        <time>2018-09-14T17:11:41Z</time>
      </trkpt>
      <trkpt lat="-24.7608130" lon="-53.7512010">
        <ele>515.0</ele>
        <time>2018-09-14T17:11:42Z</time>
      </trkpt>
      <trkpt lat="-24.7608440" lon="-53.7512230">
        <ele>515.0</ele>
        <time>2018-09-14T17:11:43Z</time>
      </trkpt>
      <trkpt lat="-24.7608750" lon="-53.7512440">
        <ele>515.0</ele>
        <time>2018-09-14T17:11:44Z</time>
      </trkpt>
      <trkpt lat="-24.7609050" lon="-53.7512640">
        <ele>515.0</ele>
        <time>2018-09-14T17:11:45Z</time>
      </trkpt>
      <trkpt lat="-24.7609350" lon="-53.7512860">
        <ele>515.0</ele>
        <time>2018-09-14T17:11:46Z</time>
      </trkpt>
      <trkpt lat="-24.7609650" lon="-53.7513080">
        <ele>515.0</ele>
        <time>2018-09-14T17:11:47Z</time>
      </trkpt>
      <trkpt lat="-24.7609950" lon="-53.7513310">
        <ele>515.0</ele>
        <time>2018-09-14T17:11:48Z</time>
      </trkpt>
      <trkpt lat="-24.7610270" lon="-53.7513530">
        <ele>515.0</ele>
        <time>2018-09-14T17:11:49Z</time>
      </trkpt>
      <trkpt lat="-24.7610580" lon="-53.7513740">
        <ele>514.9</ele>
        <time>2018-09-14T17:11:50Z</time>
      </trkpt>
      <trkpt lat="-24.7610900" lon="-53.7513970">
        <ele>514.9</ele>
        <time>2018-09-14T17:11:51Z</time>
      </trkpt>
      <trkpt lat="-24.7611230" lon="-53.7514190">
        <ele>514.8</ele>
        <time>2018-09-14T17:11:52Z</time>
      </trkpt>
      <trkpt lat="-24.7611550" lon="-53.7514410">
        <ele>514.7</ele>
        <time>2018-09-14T17:11:53Z</time>
      </trkpt>
      <trkpt lat="-24.7611880" lon="-53.7514630">
        <ele>514.7</ele>
        <time>2018-09-14T17:11:54Z</time>
      </trkpt>
      <trkpt lat="-24.7612210" lon="-53.7514850">
        <ele>514.6</ele>
        <time>2018-09-14T17:11:55Z</time>
      </trkpt>
      <trkpt lat="-24.7612530" lon="-53.7515080">
        <ele>514.5</ele>
        <time>2018-09-14T17:11:56Z</time>
      </trkpt>
      <trkpt lat="-24.7612870" lon="-53.7515300">
        <ele>514.5</ele>
        <time>2018-09-14T17:11:57Z</time>
      </trkpt>
      <trkpt lat="-24.7613200" lon="-53.7515520">
        <ele>514.4</ele>
        <time>2018-09-14T17:11:58Z</time>
      </trkpt>
      <trkpt lat="-24.7613530" lon="-53.7515750">
        <ele>514.3</ele>
        <time>2018-09-14T17:11:59Z</time>
      </trkpt>
      <trkpt lat="-24.7613870" lon="-53.7515970">
        <ele>514.2</ele>
        <time>2018-09-14T17:12:00Z</time>
      </trkpt>
      <trkpt lat="-24.7614210" lon="-53.7516210">
        <ele>514.2</ele>
        <time>2018-09-14T17:12:01Z</time>
      </trkpt>
      <trkpt lat="-24.7614560" lon="-53.7516460">
        <ele>514.1</ele>
        <time>2018-09-14T17:12:02Z</time>
      </trkpt>
      <trkpt lat="-24.7614920" lon="-53.7516710">
        <ele>514.0</ele>
        <time>2018-09-14T17:12:03Z</time>
      </trkpt>
      <trkpt lat="-24.7615290" lon="-53.7516960">
        <ele>513.9</ele>
        <time>2018-09-14T17:12:04Z</time>
      </trkpt>
      <trkpt lat="-24.7615670" lon="-53.7517210">
        <ele>513.8</ele>
        <time>2018-09-14T17:12:05Z</time>
      </trkpt>
      <trkpt lat="-24.7616060" lon="-53.7517470">
        <ele>513.7</ele>
        <time>2018-09-14T17:12:06Z</time>
      </trkpt>
      <trkpt lat="-24.7616450" lon="-53.7517730">
        <ele>513.6</ele>
        <time>2018-09-14T17:12:07Z</time>
      </trkpt>
      <trkpt lat="-24.7616840" lon="-53.7518000">
        <ele>513.5</ele>
        <time>2018-09-14T17:12:08Z</time>
      </trkpt>
      <trkpt lat="-24.7617220" lon="-53.7518270">
        <ele>513.4</ele>
        <time>2018-09-14T17:12:09Z</time>
      </trkpt>
      <trkpt lat="-24.7617610" lon="-53.7518530">
        <ele>513.3</ele>
        <time>2018-09-14T17:12:10Z</time>
      </trkpt>
      <trkpt lat="-24.7618010" lon="-53.7518800">
        <ele>513.2</ele>
        <time>2018-09-14T17:12:11Z</time>
      </trkpt>
      <trkpt lat="-24.7618400" lon="-53.7519080">
        <ele>513.1</ele>
        <time>2018-09-14T17:12:12Z</time>
      </trkpt>
      <trkpt lat="-24.7618800" lon="-53.7519370">
        <ele>513.0</ele>
        <time>2018-09-14T17:12:13Z</time>
      </trkpt>
      <trkpt lat="-24.7619190" lon="-53.7519660">
        <ele>512.9</ele>
        <time>2018-09-14T17:12:14Z</time>
      </trkpt>
      <trkpt lat="-24.7619590" lon="-53.7519940">
        <ele>512.8</ele>
        <time>2018-09-14T17:12:15Z</time>
      </trkpt>
      <trkpt lat="-24.7619990" lon="-53.7520230">
        <ele>512.7</ele>
        <time>2018-09-14T17:12:16Z</time>
      </trkpt>
      <trkpt lat="-24.7620380" lon="-53.7520520">
        <ele>512.6</ele>
        <time>2018-09-14T17:12:17Z</time>
      </trkpt>
      <trkpt lat="-24.7620780" lon="-53.7520820">
        <ele>512.5</ele>
        <time>2018-09-14T17:12:18Z</time>
      </trkpt>
      <trkpt lat="-24.7621170" lon="-53.7521110">
        <ele>512.4</ele>
        <time>2018-09-14T17:12:19Z</time>
      </trkpt>
      <trkpt lat="-24.7621570" lon="-53.7521390">
        <ele>512.3</ele>
        <time>2018-09-14T17:12:20Z</time>
      </trkpt>
      <trkpt lat="-24.7621970" lon="-53.7521670">
        <ele>512.2</ele>
        <time>2018-09-14T17:12:21Z</time>
      </trkpt>
      <trkpt lat="-24.7622380" lon="-53.7521930">
        <ele>512.1</ele>
        <time>2018-09-14T17:12:22Z</time>
      </trkpt>
      <trkpt lat="-24.7622800" lon="-53.7522190">
        <ele>512.0</ele>
        <time>2018-09-14T17:12:23Z</time>
      </trkpt>
      <trkpt lat="-24.7623210" lon="-53.7522460">
        <ele>512.0</ele>
        <time>2018-09-14T17:12:24Z</time>
      </trkpt>
      <trkpt lat="-24.7623610" lon="-53.7522730">
        <ele>512.0</ele>
        <time>2018-09-14T17:12:25Z</time>
      </trkpt>
      <trkpt lat="-24.7624020" lon="-53.7523020">
        <ele>512.0</ele>
        <time>2018-09-14T17:12:26Z</time>
      </trkpt>
      <trkpt lat="-24.7624430" lon="-53.7523310">
        <ele>512.1</ele>
        <time>2018-09-14T17:12:27Z</time>
      </trkpt>
      <trkpt lat="-24.7624850" lon="-53.7523580">
        <ele>512.1</ele>
        <time>2018-09-14T17:12:28Z</time>
      </trkpt>
      <trkpt lat="-24.7625710" lon="-53.7524100">
        <ele>512.1</ele>
        <time>2018-09-14T17:12:29Z</time>
      </trkpt>
      <trkpt lat="-24.7626130" lon="-53.7524380">
        <ele>512.1</ele>
        <time>2018-09-14T17:12:30Z</time>
      </trkpt>
      <trkpt lat="-24.7626550" lon="-53.7524660">
        <ele>512.2</ele>
        <time>2018-09-14T17:12:31Z</time>
      </trkpt>
      <trkpt lat="-24.7626970" lon="-53.7524940">
        <ele>512.2</ele>
        <time>2018-09-14T17:12:32Z</time>
      </trkpt>
      <trkpt lat="-24.7627400" lon="-53.7525220">
        <ele>512.2</ele>
        <time>2018-09-14T17:12:33Z</time>
      </trkpt>
      <trkpt lat="-24.7627820" lon="-53.7525510">
        <ele>512.2</ele>
        <time>2018-09-14T17:12:34Z</time>
      </trkpt>
      <trkpt lat="-24.7628250" lon="-53.7525800">
        <ele>512.3</ele>
        <time>2018-09-14T17:12:35Z</time>
      </trkpt>
      <trkpt lat="-24.7628680" lon="-53.7526100">
        <ele>512.3</ele>
        <time>2018-09-14T17:12:36Z</time>
      </trkpt>
      <trkpt lat="-24.7629120" lon="-53.7526400">
        <ele>512.3</ele>
        <time>2018-09-14T17:12:37Z</time>
      </trkpt>
      <trkpt lat="-24.7629570" lon="-53.7526680">
        <ele>512.4</ele>
        <time>2018-09-14T17:12:38Z</time>
      </trkpt>
      <trkpt lat="-24.7630460" lon="-53.7527270">
        <ele>512.4</ele>
        <time>2018-09-14T17:12:40Z</time>
      </trkpt>
      <trkpt lat="-24.7630900" lon="-53.7527580">
        <ele>512.5</ele>
        <time>2018-09-14T17:12:41Z</time>
      </trkpt>
      <trkpt lat="-24.7631340" lon="-53.7527870">
        <ele>512.5</ele>
        <time>2018-09-14T17:12:42Z</time>
      </trkpt>
      <trkpt lat="-24.7631780" lon="-53.7528170">
        <ele>512.5</ele>
        <time>2018-09-14T17:12:43Z</time>
      </trkpt>
      <trkpt lat="-24.7632220" lon="-53.7528470">
        <ele>512.6</ele>
        <time>2018-09-14T17:12:44Z</time>
      </trkpt>
      <trkpt lat="-24.7632650" lon="-53.7528800">
        <ele>512.6</ele>
        <time>2018-09-14T17:12:45Z</time>
      </trkpt>
      <trkpt lat="-24.7633100" lon="-53.7529100">
        <ele>512.6</ele>
        <time>2018-09-14T17:12:46Z</time>
      </trkpt>
      <trkpt lat="-24.7633550" lon="-53.7529400">
        <ele>512.7</ele>
        <time>2018-09-14T17:12:47Z</time>
      </trkpt>
      <trkpt lat="-24.7633980" lon="-53.7529700">
        <ele>512.7</ele>
        <time>2018-09-14T17:12:48Z</time>
      </trkpt>
      <trkpt lat="-24.7634410" lon="-53.7530000">
        <ele>512.8</ele>
        <time>2018-09-14T17:12:49Z</time>
      </trkpt>
      <trkpt lat="-24.7634840" lon="-53.7530290">
        <ele>512.8</ele>
        <time>2018-09-14T17:12:50Z</time>
      </trkpt>
      <trkpt lat="-24.7635260" lon="-53.7530580">
        <ele>512.9</ele>
        <time>2018-09-14T17:12:51Z</time>
      </trkpt>
      <trkpt lat="-24.7635680" lon="-53.7530870">
        <ele>512.9</ele>
        <time>2018-09-14T17:12:52Z</time>
      </trkpt>
      <trkpt lat="-24.7636100" lon="-53.7531150">
        <ele>512.9</ele>
        <time>2018-09-14T17:12:53Z</time>
      </trkpt>
      <trkpt lat="-24.7636510" lon="-53.7531430">
        <ele>513.0</ele>
        <time>2018-09-14T17:12:54Z</time>
      </trkpt>
      <trkpt lat="-24.7636920" lon="-53.7531720">
        <ele>513.0</ele>
        <time>2018-09-14T17:12:55Z</time>
      </trkpt>
      <trkpt lat="-24.7637320" lon="-53.7532000">
        <ele>513.1</ele>
        <time>2018-09-14T17:12:56Z</time>
      </trkpt>
      <trkpt lat="-24.7637730" lon="-53.7532280">
        <ele>513.2</ele>
        <time>2018-09-14T17:12:57Z</time>
      </trkpt>
      <trkpt lat="-24.7638130" lon="-53.7532550">
        <ele>513.2</ele>
        <time>2018-09-14T17:12:58Z</time>
      </trkpt>
      <trkpt lat="-24.7638530" lon="-53.7532830">
        <ele>513.3</ele>
        <time>2018-09-14T17:12:59Z</time>
      </trkpt>
      <trkpt lat="-24.7638920" lon="-53.7533100">
        <ele>513.3</ele>
        <time>2018-09-14T17:13:00Z</time>
      </trkpt>
      <trkpt lat="-24.7639310" lon="-53.7533360">
        <ele>513.4</ele>
        <time>2018-09-14T17:13:01Z</time>
      </trkpt>
      <trkpt lat="-24.7639710" lon="-53.7533630">
        <ele>513.4</ele>
        <time>2018-09-14T17:13:02Z</time>
      </trkpt>
      <trkpt lat="-24.7640100" lon="-53.7533890">
        <ele>513.5</ele>
        <time>2018-09-14T17:13:03Z</time>
      </trkpt>
      <trkpt lat="-24.7640480" lon="-53.7534170">
        <ele>513.5</ele>
        <time>2018-09-14T17:13:04Z</time>
      </trkpt>
      <trkpt lat="-24.7640860" lon="-53.7534430">
        <ele>513.6</ele>
        <time>2018-09-14T17:13:05Z</time>
      </trkpt>
      <trkpt lat="-24.7641260" lon="-53.7534690">
        <ele>513.7</ele>
        <time>2018-09-14T17:13:06Z</time>
      </trkpt>
      <trkpt lat="-24.7641630" lon="-53.7534950">
        <ele>514.0</ele>
        <time>2018-09-14T17:13:07Z</time>
      </trkpt>
      <trkpt lat="-24.7642000" lon="-53.7535200">
        <ele>514.2</ele>
        <time>2018-09-14T17:13:08Z</time>
      </trkpt>
      <trkpt lat="-24.7642390" lon="-53.7535430">
        <ele>514.5</ele>
        <time>2018-09-14T17:13:09Z</time>
      </trkpt>
      <trkpt lat="-24.7642730" lon="-53.7535700">
        <ele>514.8</ele>
        <time>2018-09-14T17:13:10Z</time>
      </trkpt>
      <trkpt lat="-24.7643120" lon="-53.7535940">
        <ele>515.2</ele>
        <time>2018-09-14T17:13:11Z</time>
      </trkpt>
      <trkpt lat="-24.7643450" lon="-53.7536180">
        <ele>515.5</ele>
        <time>2018-09-14T17:13:12Z</time>
      </trkpt>
      <trkpt lat="-24.7643790" lon="-53.7536410">
        <ele>515.8</ele>
        <time>2018-09-14T17:13:13Z</time>
      </trkpt>
      <trkpt lat="-24.7644140" lon="-53.7536670">
        <ele>516.0</ele>
        <time>2018-09-14T17:13:14Z</time>
      </trkpt>
      <trkpt lat="-24.7644500" lon="-53.7536910">
        <ele>516.2</ele>
        <time>2018-09-14T17:13:15Z</time>
      </trkpt>
      <trkpt lat="-24.7644880" lon="-53.7537150">
        <ele>516.3</ele>
        <time>2018-09-14T17:13:16Z</time>
      </trkpt>
      <trkpt lat="-24.7645220" lon="-53.7537400">
        <ele>516.4</ele>
        <time>2018-09-14T17:13:17Z</time>
      </trkpt>
      <trkpt lat="-24.7645570" lon="-53.7537660">
        <ele>516.5</ele>
        <time>2018-09-14T17:13:18Z</time>
      </trkpt>
      <trkpt lat="-24.7645910" lon="-53.7537910">
        <ele>516.7</ele>
        <time>2018-09-14T17:13:19Z</time>
      </trkpt>
      <trkpt lat="-24.7646260" lon="-53.7538150">
        <ele>516.8</ele>
        <time>2018-09-14T17:13:20Z</time>
      </trkpt>
      <trkpt lat="-24.7646610" lon="-53.7538380">
        <ele>516.9</ele>
        <time>2018-09-14T17:13:21Z</time>
      </trkpt>
      <trkpt lat="-24.7646960" lon="-53.7538610">
        <ele>517.1</ele>
        <time>2018-09-14T17:13:22Z</time>
      </trkpt>
      <trkpt lat="-24.7647300" lon="-53.7538850">
        <ele>517.3</ele>
        <time>2018-09-14T17:13:23Z</time>
      </trkpt>
      <trkpt lat="-24.7647660" lon="-53.7539090">
        <ele>517.5</ele>
        <time>2018-09-14T17:13:24Z</time>
      </trkpt>
      <trkpt lat="-24.7648020" lon="-53.7539310">
        <ele>517.8</ele>
        <time>2018-09-14T17:13:25Z</time>
      </trkpt>
      <trkpt lat="-24.7648370" lon="-53.7539560">
        <ele>518.2</ele>
        <time>2018-09-14T17:13:26Z</time>
      </trkpt>
      <trkpt lat="-24.7648720" lon="-53.7539790">
        <ele>518.6</ele>
        <time>2018-09-14T17:13:27Z</time>
      </trkpt>
      <trkpt lat="-24.7649080" lon="-53.7540030">
        <ele>518.9</ele>
        <time>2018-09-14T17:13:28Z</time>
      </trkpt>
      <trkpt lat="-24.7649440" lon="-53.7540260">
        <ele>519.3</ele>
        <time>2018-09-14T17:13:29Z</time>
      </trkpt>
      <trkpt lat="-24.7649780" lon="-53.7540500">
        <ele>519.7</ele>
        <time>2018-09-14T17:13:30Z</time>
      </trkpt>
      <trkpt lat="-24.7650120" lon="-53.7540730">
        <ele>520.0</ele>
        <time>2018-09-14T17:13:31Z</time>
      </trkpt>
      <trkpt lat="-24.7650450" lon="-53.7540980">
        <ele>520.2</ele>
        <time>2018-09-14T17:13:32Z</time>
      </trkpt>
      <trkpt lat="-24.7650790" lon="-53.7541220">
        <ele>520.3</ele>
        <time>2018-09-14T17:13:33Z</time>
      </trkpt>
      <trkpt lat="-24.7651150" lon="-53.7541450">
        <ele>520.5</ele>
        <time>2018-09-14T17:13:34Z</time>
      </trkpt>
      <trkpt lat="-24.7651490" lon="-53.7541670">
        <ele>520.7</ele>
        <time>2018-09-14T17:13:35Z</time>
      </trkpt>
      <trkpt lat="-24.7651820" lon="-53.7541910">
        <ele>520.9</ele>
        <time>2018-09-14T17:13:36Z</time>
      </trkpt>
      <trkpt lat="-24.7652150" lon="-53.7542140">
        <ele>521.1</ele>
        <time>2018-09-14T17:13:37Z</time>
      </trkpt>
      <trkpt lat="-24.7652480" lon="-53.7542370">
        <ele>521.5</ele>
        <time>2018-09-14T17:13:38Z</time>
      </trkpt>
      <trkpt lat="-24.7652810" lon="-53.7542600">
        <ele>521.9</ele>
        <time>2018-09-14T17:13:39Z</time>
      </trkpt>
      <trkpt lat="-24.7653130" lon="-53.7542830">
        <ele>522.2</ele>
        <time>2018-09-14T17:13:40Z</time>
      </trkpt>
      <trkpt lat="-24.7653430" lon="-53.7543050">
        <ele>522.5</ele>
        <time>2018-09-14T17:13:41Z</time>
      </trkpt>
      <trkpt lat="-24.7653730" lon="-53.7543280">
        <ele>522.8</ele>
        <time>2018-09-14T17:13:42Z</time>
      </trkpt>
      <trkpt lat="-24.7654050" lon="-53.7543510">
        <ele>523.0</ele>
        <time>2018-09-14T17:13:43Z</time>
      </trkpt>
      <trkpt lat="-24.7654350" lon="-53.7543740">
        <ele>523.2</ele>
        <time>2018-09-14T17:13:44Z</time>
      </trkpt>
      <trkpt lat="-24.7654650" lon="-53.7543960">
        <ele>523.3</ele>
        <time>2018-09-14T17:13:45Z</time>
      </trkpt>
      <trkpt lat="-24.7654950" lon="-53.7544170">
        <ele>523.5</ele>
        <time>2018-09-14T17:13:46Z</time>
      </trkpt>
      <trkpt lat="-24.7655240" lon="-53.7544380">
        <ele>523.6</ele>
        <time>2018-09-14T17:13:47Z</time>
      </trkpt>
      <trkpt lat="-24.7655560" lon="-53.7544610">
        <ele>523.7</ele>
        <time>2018-09-14T17:13:48Z</time>
      </trkpt>
      <trkpt lat="-24.7655870" lon="-53.7544840">
        <ele>523.8</ele>
        <time>2018-09-14T17:13:49Z</time>
      </trkpt>
      <trkpt lat="-24.7656190" lon="-53.7545040">
        <ele>523.9</ele>
        <time>2018-09-14T17:13:50Z</time>
      </trkpt>
      <trkpt lat="-24.7656530" lon="-53.7545240">
        <ele>524.0</ele>
        <time>2018-09-14T17:13:51Z</time>
      </trkpt>
      <trkpt lat="-24.7656780" lon="-53.7545480">
        <ele>524.1</ele>
        <time>2018-09-14T17:13:52Z</time>
      </trkpt>
      <trkpt lat="-24.7657080" lon="-53.7545690">
        <ele>524.2</ele>
        <time>2018-09-14T17:13:53Z</time>
      </trkpt>
      <trkpt lat="-24.7657390" lon="-53.7545870">
        <ele>524.3</ele>
        <time>2018-09-14T17:13:54Z</time>
      </trkpt>
      <trkpt lat="-24.7657710" lon="-53.7546050">
        <ele>524.4</ele>
        <time>2018-09-14T17:13:55Z</time>
      </trkpt>
      <trkpt lat="-24.7658010" lon="-53.7546220">
        <ele>524.5</ele>
        <time>2018-09-14T17:13:56Z</time>
      </trkpt>
      <trkpt lat="-24.7658300" lon="-53.7546400">
        <ele>524.6</ele>
        <time>2018-09-14T17:13:57Z</time>
      </trkpt>
      <trkpt lat="-24.7658570" lon="-53.7546580">
        <ele>524.8</ele>
        <time>2018-09-14T17:13:58Z</time>
      </trkpt>
      <trkpt lat="-24.7658840" lon="-53.7546760">
        <ele>525.1</ele>
        <time>2018-09-14T17:13:59Z</time>
      </trkpt>
      <trkpt lat="-24.7659130" lon="-53.7546930">
        <ele>525.4</ele>
        <time>2018-09-14T17:14:00Z</time>
      </trkpt>
      <trkpt lat="-24.7659410" lon="-53.7547120">
        <ele>525.7</ele>
        <time>2018-09-14T17:14:01Z</time>
      </trkpt>
      <trkpt lat="-24.7659670" lon="-53.7547310">
        <ele>526.1</ele>
        <time>2018-09-14T17:14:02Z</time>
      </trkpt>
      <trkpt lat="-24.7659940" lon="-53.7547490">
        <ele>526.4</ele>
        <time>2018-09-14T17:14:03Z</time>
      </trkpt>
      <trkpt lat="-24.7660220" lon="-53.7547650">
        <ele>526.7</ele>
        <time>2018-09-14T17:14:04Z</time>
      </trkpt>
      <trkpt lat="-24.7660480" lon="-53.7547820">
        <ele>527.0</ele>
        <time>2018-09-14T17:14:05Z</time>
      </trkpt>
      <trkpt lat="-24.7660740" lon="-53.7548000">
        <ele>527.2</ele>
        <time>2018-09-14T17:14:06Z</time>
      </trkpt>
      <trkpt lat="-24.7661010" lon="-53.7548190">
        <ele>527.4</ele>
        <time>2018-09-14T17:14:07Z</time>
      </trkpt>
      <trkpt lat="-24.7661310" lon="-53.7548360">
        <ele>527.6</ele>
        <time>2018-09-14T17:14:08Z</time>
      </trkpt>
      <trkpt lat="-24.7661560" lon="-53.7548600">
        <ele>527.8</ele>
        <time>2018-09-14T17:14:09Z</time>
      </trkpt>
      <trkpt lat="-24.7661820" lon="-53.7548820">
        <ele>527.9</ele>
        <time>2018-09-14T17:14:10Z</time>
      </trkpt>
      <trkpt lat="-24.7662110" lon="-53.7549020">
        <ele>528.0</ele>
        <time>2018-09-14T17:14:11Z</time>
      </trkpt>
      <trkpt lat="-24.7662420" lon="-53.7549180">
        <ele>528.0</ele>
        <time>2018-09-14T17:14:12Z</time>
      </trkpt>
      <trkpt lat="-24.7662730" lon="-53.7549340">
        <ele>528.0</ele>
        <time>2018-09-14T17:14:13Z</time>
      </trkpt>
      <trkpt lat="-24.7663010" lon="-53.7549540">
        <ele>527.9</ele>
        <time>2018-09-14T17:14:14Z</time>
      </trkpt>
      <trkpt lat="-24.7663290" lon="-53.7549760">
        <ele>527.9</ele>
        <time>2018-09-14T17:14:15Z</time>
      </trkpt>
      <trkpt lat="-24.7663590" lon="-53.7549970">
        <ele>527.9</ele>
        <time>2018-09-14T17:14:16Z</time>
      </trkpt>
      <trkpt lat="-24.7663890" lon="-53.7550180">
        <ele>527.9</ele>
        <time>2018-09-14T17:14:17Z</time>
      </trkpt>
      <trkpt lat="-24.7664210" lon="-53.7550380">
        <ele>527.8</ele>
        <time>2018-09-14T17:14:18Z</time>
      </trkpt>
      <trkpt lat="-24.7664520" lon="-53.7550590">
        <ele>527.8</ele>
        <time>2018-09-14T17:14:19Z</time>
      </trkpt>
      <trkpt lat="-24.7664850" lon="-53.7550790">
        <ele>527.8</ele>
        <time>2018-09-14T17:14:20Z</time>
      </trkpt>
      <trkpt lat="-24.7665170" lon="-53.7551000">
        <ele>527.7</ele>
        <time>2018-09-14T17:14:21Z</time>
      </trkpt>
      <trkpt lat="-24.7665480" lon="-53.7551240">
        <ele>527.7</ele>
        <time>2018-09-14T17:14:22Z</time>
      </trkpt>
      <trkpt lat="-24.7665790" lon="-53.7551480">
        <ele>527.7</ele>
        <time>2018-09-14T17:14:23Z</time>
      </trkpt>
      <trkpt lat="-24.7666150" lon="-53.7551700">
        <ele>527.6</ele>
        <time>2018-09-14T17:14:24Z</time>
      </trkpt>
      <trkpt lat="-24.7666490" lon="-53.7551950">
        <ele>527.6</ele>
        <time>2018-09-14T17:14:25Z</time>
      </trkpt>
      <trkpt lat="-24.7666840" lon="-53.7552210">
        <ele>527.6</ele>
        <time>2018-09-14T17:14:26Z</time>
      </trkpt>
      <trkpt lat="-24.7667210" lon="-53.7552470">
        <ele>527.5</ele>
        <time>2018-09-14T17:14:27Z</time>
      </trkpt>
      <trkpt lat="-24.7667580" lon="-53.7552750">
        <ele>527.5</ele>
        <time>2018-09-14T17:14:28Z</time>
      </trkpt>
      <trkpt lat="-24.7667970" lon="-53.7553030">
        <ele>527.4</ele>
        <time>2018-09-14T17:14:29Z</time>
      </trkpt>
      <trkpt lat="-24.7668390" lon="-53.7553310">
        <ele>527.2</ele>
        <time>2018-09-14T17:14:30Z</time>
      </trkpt>
      <trkpt lat="-24.7668810" lon="-53.7553580">
        <ele>527.1</ele>
        <time>2018-09-14T17:14:31Z</time>
      </trkpt>
      <trkpt lat="-24.7669240" lon="-53.7553870">
        <ele>526.7</ele>
        <time>2018-09-14T17:14:32Z</time>
      </trkpt>
      <trkpt lat="-24.7669680" lon="-53.7554170">
        <ele>526.3</ele>
        <time>2018-09-14T17:14:33Z</time>
      </trkpt>
      <trkpt lat="-24.7670130" lon="-53.7554490">
        <ele>525.8</ele>
        <time>2018-09-14T17:14:34Z</time>
      </trkpt>
      <trkpt lat="-24.7670600" lon="-53.7554810">
        <ele>525.4</ele>
        <time>2018-09-14T17:14:35Z</time>
      </trkpt>
      <trkpt lat="-24.7671100" lon="-53.7555140">
        <ele>525.1</ele>
        <time>2018-09-14T17:14:36Z</time>
      </trkpt>
      <trkpt lat="-24.7671600" lon="-53.7555490">
        <ele>524.9</ele>
        <time>2018-09-14T17:14:37Z</time>
      </trkpt>
      <trkpt lat="-24.7672140" lon="-53.7555860">
        <ele>524.6</ele>
        <time>2018-09-14T17:14:38Z</time>
      </trkpt>
      <trkpt lat="-24.7672710" lon="-53.7556240">
        <ele>524.1</ele>
        <time>2018-09-14T17:14:39Z</time>
      </trkpt>
      <trkpt lat="-24.7673290" lon="-53.7556640">
        <ele>523.4</ele>
        <time>2018-09-14T17:14:40Z</time>
      </trkpt>
      <trkpt lat="-24.7673910" lon="-53.7557040">
        <ele>523.0</ele>
        <time>2018-09-14T17:14:41Z</time>
      </trkpt>
      <trkpt lat="-24.7674530" lon="-53.7557470">
        <ele>522.7</ele>
        <time>2018-09-14T17:14:42Z</time>
      </trkpt>
      <trkpt lat="-24.7675190" lon="-53.7557940">
        <ele>522.2</ele>
        <time>2018-09-14T17:14:43Z</time>
      </trkpt>
      <trkpt lat="-24.7675190" lon="-53.7557940">
        <ele>522.2</ele>
        <time>2018-09-14T17:14:44Z</time>
      </trkpt>
      <trkpt lat="-24.7675900" lon="-53.7558420">
        <ele>521.1</ele>
        <time>2018-09-14T17:14:45Z</time>
      </trkpt>
      <trkpt lat="-24.7676650" lon="-53.7558910">
        <ele>520.4</ele>
        <time>2018-09-14T17:14:46Z</time>
      </trkpt>
      <trkpt lat="-24.7677410" lon="-53.7559430">
        <ele>519.7</ele>
        <time>2018-09-14T17:14:47Z</time>
      </trkpt>
      <trkpt lat="-24.7678170" lon="-53.7559960">
        <ele>518.6</ele>
        <time>2018-09-14T17:14:48Z</time>
      </trkpt>
      <trkpt lat="-24.7679010" lon="-53.7560460">
        <ele>517.6</ele>
        <time>2018-09-14T17:14:49Z</time>
      </trkpt>
      <trkpt lat="-24.7679860" lon="-53.7561010">
        <ele>516.5</ele>
        <time>2018-09-14T17:14:50Z</time>
      </trkpt>
      <trkpt lat="-24.7680750" lon="-53.7561630">
        <ele>515.4</ele>
        <time>2018-09-14T17:14:51Z</time>
      </trkpt>
      <trkpt lat="-24.7681600" lon="-53.7562270">
        <ele>514.5</ele>
        <time>2018-09-14T17:14:52Z</time>
      </trkpt>
      <trkpt lat="-24.7682530" lon="-53.7562910">
        <ele>513.5</ele>
        <time>2018-09-14T17:14:53Z</time>
      </trkpt>
      <trkpt lat="-24.7683430" lon="-53.7563580">
        <ele>512.7</ele>
        <time>2018-09-14T17:14:54Z</time>
      </trkpt>
      <trkpt lat="-24.7684340" lon="-53.7564270">
        <ele>512.2</ele>
        <time>2018-09-14T17:14:55Z</time>
      </trkpt>
      <trkpt lat="-24.7685320" lon="-53.7564940">
        <ele>511.8</ele>
        <time>2018-09-14T17:14:56Z</time>
      </trkpt>
      <trkpt lat="-24.7686310" lon="-53.7565620">
        <ele>510.7</ele>
        <time>2018-09-14T17:14:57Z</time>
      </trkpt>
      <trkpt lat="-24.7687280" lon="-53.7566340">
        <ele>509.8</ele>
        <time>2018-09-14T17:14:58Z</time>
      </trkpt>
      <trkpt lat="-24.7688250" lon="-53.7567020">
        <ele>508.9</ele>
        <time>2018-09-14T17:14:59Z</time>
      </trkpt>
      <trkpt lat="-24.7689250" lon="-53.7567730">
        <ele>507.8</ele>
        <time>2018-09-14T17:15:00Z</time>
      </trkpt>
      <trkpt lat="-24.7690270" lon="-53.7568460">
        <ele>507.0</ele>
        <time>2018-09-14T17:15:01Z</time>
      </trkpt>
      <trkpt lat="-24.7691330" lon="-53.7569210">
        <ele>506.3</ele>
        <time>2018-09-14T17:15:02Z</time>
      </trkpt>
      <trkpt lat="-24.7692360" lon="-53.7569960">
        <ele>505.5</ele>
        <time>2018-09-14T17:15:03Z</time>
      </trkpt>
      <trkpt lat="-24.7693410" lon="-53.7570710">
        <ele>504.6</ele>
        <time>2018-09-14T17:15:04Z</time>
      </trkpt>
      <trkpt lat="-24.7694440" lon="-53.7571490">
        <ele>504.1</ele>
        <time>2018-09-14T17:15:05Z</time>
      </trkpt>
      <trkpt lat="-24.7695460" lon="-53.7572250">
        <ele>503.5</ele>
        <time>2018-09-14T17:15:06Z</time>
      </trkpt>
      <trkpt lat="-24.7696480" lon="-53.7573020">
        <ele>502.5</ele>
        <time>2018-09-14T17:15:07Z</time>
      </trkpt>
      <trkpt lat="-24.7697500" lon="-53.7573790">
        <ele>501.1</ele>
        <time>2018-09-14T17:15:08Z</time>
      </trkpt>
      <trkpt lat="-24.7698500" lon="-53.7574550">
        <ele>499.8</ele>
        <time>2018-09-14T17:15:09Z</time>
      </trkpt>
      <trkpt lat="-24.7699480" lon="-53.7575310">
        <ele>499.2</ele>
        <time>2018-09-14T17:15:10Z</time>
      </trkpt>
      <trkpt lat="-24.7700460" lon="-53.7576080">
        <ele>498.6</ele>
        <time>2018-09-14T17:15:11Z</time>
      </trkpt>
      <trkpt lat="-24.7701440" lon="-53.7576830">
        <ele>498.0</ele>
        <time>2018-09-14T17:15:12Z</time>
      </trkpt>
      <trkpt lat="-24.7702380" lon="-53.7577570">
        <ele>497.8</ele>
        <time>2018-09-14T17:15:13Z</time>
      </trkpt>
      <trkpt lat="-24.7703310" lon="-53.7578290">
        <ele>497.7</ele>
        <time>2018-09-14T17:15:14Z</time>
      </trkpt>
      <trkpt lat="-24.7704230" lon="-53.7579010">
        <ele>497.5</ele>
        <time>2018-09-14T17:15:15Z</time>
      </trkpt>
      <trkpt lat="-24.7705130" lon="-53.7579710">
        <ele>497.3</ele>
        <time>2018-09-14T17:15:16Z</time>
      </trkpt>
      <trkpt lat="-24.7706030" lon="-53.7580410">
        <ele>497.2</ele>
        <time>2018-09-14T17:15:17Z</time>
      </trkpt>
      <trkpt lat="-24.7706920" lon="-53.7581090">
        <ele>496.8</ele>
        <time>2018-09-14T17:15:18Z</time>
      </trkpt>
      <trkpt lat="-24.7707810" lon="-53.7581770">
        <ele>496.3</ele>
        <time>2018-09-14T17:15:19Z</time>
      </trkpt>
      <trkpt lat="-24.7708690" lon="-53.7582470">
        <ele>495.8</ele>
        <time>2018-09-14T17:15:20Z</time>
      </trkpt>
      <trkpt lat="-24.7709560" lon="-53.7583170">
        <ele>495.3</ele>
        <time>2018-09-14T17:15:21Z</time>
      </trkpt>
      <trkpt lat="-24.7710440" lon="-53.7583840">
        <ele>494.8</ele>
        <time>2018-09-14T17:15:22Z</time>
      </trkpt>
      <trkpt lat="-24.7711310" lon="-53.7584510">
        <ele>494.3</ele>
        <time>2018-09-14T17:15:23Z</time>
      </trkpt>
      <trkpt lat="-24.7712160" lon="-53.7585170">
        <ele>493.7</ele>
        <time>2018-09-14T17:15:24Z</time>
      </trkpt>
      <trkpt lat="-24.7713010" lon="-53.7585830">
        <ele>493.2</ele>
        <time>2018-09-14T17:15:25Z</time>
      </trkpt>
      <trkpt lat="-24.7713850" lon="-53.7586480">
        <ele>492.7</ele>
        <time>2018-09-14T17:15:26Z</time>
      </trkpt>
      <trkpt lat="-24.7714680" lon="-53.7587130">
        <ele>492.2</ele>
        <time>2018-09-14T17:15:27Z</time>
      </trkpt>
      <trkpt lat="-24.7715500" lon="-53.7587760">
        <ele>491.6</ele>
        <time>2018-09-14T17:15:28Z</time>
      </trkpt>
      <trkpt lat="-24.7716310" lon="-53.7588390">
        <ele>491.1</ele>
        <time>2018-09-14T17:15:29Z</time>
      </trkpt>
      <trkpt lat="-24.7717110" lon="-53.7589010">
        <ele>490.7</ele>
        <time>2018-09-14T17:15:30Z</time>
      </trkpt>
      <trkpt lat="-24.7717900" lon="-53.7589630">
        <ele>490.2</ele>
        <time>2018-09-14T17:15:31Z</time>
      </trkpt>
      <trkpt lat="-24.7718680" lon="-53.7590260">
        <ele>489.7</ele>
        <time>2018-09-14T17:15:32Z</time>
      </trkpt>
      <trkpt lat="-24.7719460" lon="-53.7590880">
        <ele>489.2</ele>
        <time>2018-09-14T17:15:33Z</time>
      </trkpt>
      <trkpt lat="-24.7720250" lon="-53.7591490">
        <ele>488.7</ele>
        <time>2018-09-14T17:15:34Z</time>
      </trkpt>
      <trkpt lat="-24.7721050" lon="-53.7592100">
        <ele>488.3</ele>
        <time>2018-09-14T17:15:35Z</time>
      </trkpt>
      <trkpt lat="-24.7721850" lon="-53.7592710">
        <ele>487.8</ele>
        <time>2018-09-14T17:15:36Z</time>
      </trkpt>
      <trkpt lat="-24.7722640" lon="-53.7593320">
        <ele>487.3</ele>
        <time>2018-09-14T17:15:37Z</time>
      </trkpt>
      <trkpt lat="-24.7723430" lon="-53.7593940">
        <ele>486.8</ele>
        <time>2018-09-14T17:15:38Z</time>
      </trkpt>
      <trkpt lat="-24.7724220" lon="-53.7594560">
        <ele>486.3</ele>
        <time>2018-09-14T17:15:39Z</time>
      </trkpt>
      <trkpt lat="-24.7725010" lon="-53.7595190">
        <ele>485.8</ele>
        <time>2018-09-14T17:15:40Z</time>
      </trkpt>
      <trkpt lat="-24.7725800" lon="-53.7595800">
        <ele>485.4</ele>
        <time>2018-09-14T17:15:41Z</time>
      </trkpt>
      <trkpt lat="-24.7726610" lon="-53.7596430">
        <ele>484.8</ele>
        <time>2018-09-14T17:15:42Z</time>
      </trkpt>
      <trkpt lat="-24.7727420" lon="-53.7597050">
        <ele>484.3</ele>
        <time>2018-09-14T17:15:43Z</time>
      </trkpt>
      <trkpt lat="-24.7728220" lon="-53.7597660">
        <ele>483.8</ele>
        <time>2018-09-14T17:15:44Z</time>
      </trkpt>
      <trkpt lat="-24.7729030" lon="-53.7598290">
        <ele>483.2</ele>
        <time>2018-09-14T17:15:45Z</time>
      </trkpt>
      <trkpt lat="-24.7729850" lon="-53.7598910">
        <ele>482.6</ele>
        <time>2018-09-14T17:15:46Z</time>
      </trkpt>
      <trkpt lat="-24.7730670" lon="-53.7599520">
        <ele>482.1</ele>
        <time>2018-09-14T17:15:47Z</time>
      </trkpt>
      <trkpt lat="-24.7731510" lon="-53.7600100">
        <ele>481.5</ele>
        <time>2018-09-14T17:15:48Z</time>
      </trkpt>
      <trkpt lat="-24.7732350" lon="-53.7600680">
        <ele>480.9</ele>
        <time>2018-09-14T17:15:49Z</time>
      </trkpt>
      <trkpt lat="-24.7733210" lon="-53.7601220">
        <ele>480.4</ele>
        <time>2018-09-14T17:15:50Z</time>
      </trkpt>
      <trkpt lat="-24.7734080" lon="-53.7601740">
        <ele>479.8</ele>
        <time>2018-09-14T17:15:51Z</time>
      </trkpt>
      <trkpt lat="-24.7734970" lon="-53.7602260">
        <ele>479.2</ele>
        <time>2018-09-14T17:15:52Z</time>
      </trkpt>
      <trkpt lat="-24.7735890" lon="-53.7602790">
        <ele>478.6</ele>
        <time>2018-09-14T17:15:53Z</time>
      </trkpt>
      <trkpt lat="-24.7736820" lon="-53.7603330">
        <ele>477.9</ele>
        <time>2018-09-14T17:15:54Z</time>
      </trkpt>
      <trkpt lat="-24.7737760" lon="-53.7603890">
        <ele>477.2</ele>
        <time>2018-09-14T17:15:55Z</time>
      </trkpt>
      <trkpt lat="-24.7738720" lon="-53.7604450">
        <ele>476.5</ele>
        <time>2018-09-14T17:15:56Z</time>
      </trkpt>
      <trkpt lat="-24.7739680" lon="-53.7605010">
        <ele>475.8</ele>
        <time>2018-09-14T17:15:57Z</time>
      </trkpt>
      <trkpt lat="-24.7740650" lon="-53.7605580">
        <ele>475.1</ele>
        <time>2018-09-14T17:15:58Z</time>
      </trkpt>
      <trkpt lat="-24.7741620" lon="-53.7606150">
        <ele>474.4</ele>
        <time>2018-09-14T17:15:59Z</time>
      </trkpt>
      <trkpt lat="-24.7743570" lon="-53.7607280">
        <ele>473.2</ele>
        <time>2018-09-14T17:16:01Z</time>
      </trkpt>
      <trkpt lat="-24.7744550" lon="-53.7607850">
        <ele>472.7</ele>
        <time>2018-09-14T17:16:02Z</time>
      </trkpt>
      <trkpt lat="-24.7745520" lon="-53.7608420">
        <ele>472.2</ele>
        <time>2018-09-14T17:16:03Z</time>
      </trkpt>
      <trkpt lat="-24.7746500" lon="-53.7609000">
        <ele>471.6</ele>
        <time>2018-09-14T17:16:04Z</time>
      </trkpt>
      <trkpt lat="-24.7747490" lon="-53.7609570">
        <ele>470.9</ele>
        <time>2018-09-14T17:16:05Z</time>
      </trkpt>
      <trkpt lat="-24.7748480" lon="-53.7610140">
        <ele>470.2</ele>
        <time>2018-09-14T17:16:06Z</time>
      </trkpt>
      <trkpt lat="-24.7749470" lon="-53.7610720">
        <ele>469.6</ele>
        <time>2018-09-14T17:16:07Z</time>
      </trkpt>
      <trkpt lat="-24.7750450" lon="-53.7611290">
        <ele>468.9</ele>
        <time>2018-09-14T17:16:08Z</time>
      </trkpt>
      <trkpt lat="-24.7751430" lon="-53.7611860">
        <ele>468.3</ele>
        <time>2018-09-14T17:16:09Z</time>
      </trkpt>
      <trkpt lat="-24.7752410" lon="-53.7612440">
        <ele>467.7</ele>
        <time>2018-09-14T17:16:10Z</time>
      </trkpt>
      <trkpt lat="-24.7753390" lon="-53.7613010">
        <ele>467.1</ele>
        <time>2018-09-14T17:16:11Z</time>
      </trkpt>
      <trkpt lat="-24.7754350" lon="-53.7613580">
        <ele>466.5</ele>
        <time>2018-09-14T17:16:12Z</time>
      </trkpt>
      <trkpt lat="-24.7755300" lon="-53.7614140">
        <ele>466.0</ele>
        <time>2018-09-14T17:16:13Z</time>
      </trkpt>
      <trkpt lat="-24.7756250" lon="-53.7614710">
        <ele>465.4</ele>
        <time>2018-09-14T17:16:14Z</time>
      </trkpt>
      <trkpt lat="-24.7757220" lon="-53.7615260">
        <ele>464.8</ele>
        <time>2018-09-14T17:16:15Z</time>
      </trkpt>
      <trkpt lat="-24.7758750" lon="-53.7616050">
        <ele>463.9</ele>
        <time>2018-09-14T17:16:16Z</time>
      </trkpt>
      <trkpt lat="-24.7760280" lon="-53.7616840">
        <ele>462.9</ele>
        <time>2018-09-14T17:16:17Z</time>
      </trkpt>
      <trkpt lat="-24.7761280" lon="-53.7617520">
        <ele>462.2</ele>
        <time>2018-09-14T17:16:18Z</time>
      </trkpt>
      <trkpt lat="-24.7762310" lon="-53.7618170">
        <ele>461.4</ele>
        <time>2018-09-14T17:16:19Z</time>
      </trkpt>
      <trkpt lat="-24.7763390" lon="-53.7618780">
        <ele>460.6</ele>
        <time>2018-09-14T17:16:20Z</time>
      </trkpt>
      <trkpt lat="-24.7764470" lon="-53.7619410">
        <ele>459.7</ele>
        <time>2018-09-14T17:16:21Z</time>
      </trkpt>
      <trkpt lat="-24.7765570" lon="-53.7620060">
        <ele>458.8</ele>
        <time>2018-09-14T17:16:22Z</time>
      </trkpt>
      <trkpt lat="-24.7766690" lon="-53.7620720">
        <ele>457.7</ele>
        <time>2018-09-14T17:16:23Z</time>
      </trkpt>
      <trkpt lat="-24.7767830" lon="-53.7621390">
        <ele>456.6</ele>
        <time>2018-09-14T17:16:24Z</time>
      </trkpt>
      <trkpt lat="-24.7768970" lon="-53.7622070">
        <ele>455.6</ele>
        <time>2018-09-14T17:16:25Z</time>
      </trkpt>
      <trkpt lat="-24.7770130" lon="-53.7622760">
        <ele>454.4</ele>
        <time>2018-09-14T17:16:26Z</time>
      </trkpt>
      <trkpt lat="-24.7771310" lon="-53.7623460">
        <ele>453.3</ele>
        <time>2018-09-14T17:16:27Z</time>
      </trkpt>
      <trkpt lat="-24.7772490" lon="-53.7624150">
        <ele>452.2</ele>
        <time>2018-09-14T17:16:28Z</time>
      </trkpt>
      <trkpt lat="-24.7773650" lon="-53.7624830">
        <ele>451.1</ele>
        <time>2018-09-14T17:16:29Z</time>
      </trkpt>
      <trkpt lat="-24.7774800" lon="-53.7625490">
        <ele>450.1</ele>
        <time>2018-09-14T17:16:30Z</time>
      </trkpt>
      <trkpt lat="-24.7775910" lon="-53.7626130">
        <ele>450.7</ele>
        <time>2018-09-14T17:16:31Z</time>
      </trkpt>
      <trkpt lat="-24.7776980" lon="-53.7626750">
        <ele>451.4</ele>
        <time>2018-09-14T17:16:32Z</time>
      </trkpt>
      <trkpt lat="-24.7778000" lon="-53.7627340">
        <ele>452.0</ele>
        <time>2018-09-14T17:16:33Z</time>
      </trkpt>
      <trkpt lat="-24.7778990" lon="-53.7627920">
        <ele>452.4</ele>
        <time>2018-09-14T17:16:34Z</time>
      </trkpt>
      <trkpt lat="-24.7780870" lon="-53.7629000">
        <ele>453.2</ele>
        <time>2018-09-14T17:16:36Z</time>
      </trkpt>
      <trkpt lat="-24.7781750" lon="-53.7629500">
        <ele>453.6</ele>
        <time>2018-09-14T17:16:37Z</time>
      </trkpt>
      <trkpt lat="-24.7782600" lon="-53.7630010">
        <ele>454.0</ele>
        <time>2018-09-14T17:16:38Z</time>
      </trkpt>
      <trkpt lat="-24.7783410" lon="-53.7630510">
        <ele>454.3</ele>
        <time>2018-09-14T17:16:39Z</time>
      </trkpt>
      <trkpt lat="-24.7784180" lon="-53.7630980">
        <ele>454.7</ele>
        <time>2018-09-14T17:16:40Z</time>
      </trkpt>
      <trkpt lat="-24.7784920" lon="-53.7631430">
        <ele>455.0</ele>
        <time>2018-09-14T17:16:41Z</time>
      </trkpt>
      <trkpt lat="-24.7785600" lon="-53.7631890">
        <ele>455.4</ele>
        <time>2018-09-14T17:16:42Z</time>
      </trkpt>
      <trkpt lat="-24.7786230" lon="-53.7632340">
        <ele>455.9</ele>
        <time>2018-09-14T17:16:43Z</time>
      </trkpt>
      <trkpt lat="-24.7786820" lon="-53.7632720">
        <ele>456.4</ele>
        <time>2018-09-14T17:16:44Z</time>
      </trkpt>
      <trkpt lat="-24.7787380" lon="-53.7633020">
        <ele>456.8</ele>
        <time>2018-09-14T17:16:45Z</time>
      </trkpt>
      <trkpt lat="-24.7787910" lon="-53.7633240">
        <ele>457.2</ele>
        <time>2018-09-14T17:16:46Z</time>
      </trkpt>
      <trkpt lat="-24.7788410" lon="-53.7633370">
        <ele>457.5</ele>
        <time>2018-09-14T17:16:47Z</time>
      </trkpt>
      <trkpt lat="-24.7788890" lon="-53.7633400">
        <ele>458.1</ele>
        <time>2018-09-14T17:16:48Z</time>
      </trkpt>
      <trkpt lat="-24.7789360" lon="-53.7633360">
        <ele>459.0</ele>
        <time>2018-09-14T17:16:49Z</time>
      </trkpt>
      <trkpt lat="-24.7789830" lon="-53.7633380">
        <ele>460.1</ele>
        <time>2018-09-14T17:16:50Z</time>
      </trkpt>
      <trkpt lat="-24.7790260" lon="-53.7633500">
        <ele>461.1</ele>
        <time>2018-09-14T17:16:51Z</time>
      </trkpt>
      <trkpt lat="-24.7790650" lon="-53.7633650">
        <ele>462.3</ele>
        <time>2018-09-14T17:16:52Z</time>
      </trkpt>
      <trkpt lat="-24.7791000" lon="-53.7633790">
        <ele>463.4</ele>
        <time>2018-09-14T17:16:53Z</time>
      </trkpt>
      <trkpt lat="-24.7791340" lon="-53.7633870">
        <ele>464.4</ele>
        <time>2018-09-14T17:16:54Z</time>
      </trkpt>
      <trkpt lat="-24.7791660" lon="-53.7633950">
        <ele>465.5</ele>
        <time>2018-09-14T17:16:55Z</time>
      </trkpt>
      <trkpt lat="-24.7791970" lon="-53.7633990">
        <ele>466.6</ele>
        <time>2018-09-14T17:16:56Z</time>
      </trkpt>
      <trkpt lat="-24.7792280" lon="-53.7633960">
        <ele>467.7</ele>
        <time>2018-09-14T17:16:57Z</time>
      </trkpt>
      <trkpt lat="-24.7792570" lon="-53.7633880">
        <ele>469.9</ele>
        <time>2018-09-14T17:16:58Z</time>
      </trkpt>
      <trkpt lat="-24.7792840" lon="-53.7633740">
        <ele>468.5</ele>
        <time>2018-09-14T17:16:59Z</time>
      </trkpt>
      <trkpt lat="-24.7793030" lon="-53.7633560">
        <ele>467.3</ele>
        <time>2018-09-14T17:17:00Z</time>
      </trkpt>
      <trkpt lat="-24.7793110" lon="-53.7633280">
        <ele>466.6</ele>
        <time>2018-09-14T17:17:01Z</time>
      </trkpt>
      <trkpt lat="-24.7793030" lon="-53.7632930">
        <ele>465.8</ele>
        <time>2018-09-14T17:17:02Z</time>
      </trkpt>
      <trkpt lat="-24.7792850" lon="-53.7632540">
        <ele>464.7</ele>
        <time>2018-09-14T17:17:03Z</time>
      </trkpt>
      <trkpt lat="-24.7792600" lon="-53.7632140">
        <ele>463.3</ele>
        <time>2018-09-14T17:17:04Z</time>
      </trkpt>
      <trkpt lat="-24.7792310" lon="-53.7631750">
        <ele>462.4</ele>
        <time>2018-09-14T17:17:05Z</time>
      </trkpt>
      <trkpt lat="-24.7791950" lon="-53.7631360">
        <ele>461.6</ele>
        <time>2018-09-14T17:17:06Z</time>
      </trkpt>
      <trkpt lat="-24.7791480" lon="-53.7631030">
        <ele>461.1</ele>
        <time>2018-09-14T17:17:07Z</time>
      </trkpt>
      <trkpt lat="-24.7790900" lon="-53.7630800">
        <ele>460.2</ele>
        <time>2018-09-14T17:17:08Z</time>
      </trkpt>
      <trkpt lat="-24.7790230" lon="-53.7630660">
        <ele>459.2</ele>
        <time>2018-09-14T17:17:09Z</time>
      </trkpt>
      <trkpt lat="-24.7789480" lon="-53.7630560">
        <ele>458.3</ele>
        <time>2018-09-14T17:17:10Z</time>
      </trkpt>
      <trkpt lat="-24.7788700" lon="-53.7630410">
        <ele>457.7</ele>
        <time>2018-09-14T17:17:11Z</time>
      </trkpt>
      <trkpt lat="-24.7787880" lon="-53.7630160">
        <ele>457.7</ele>
        <time>2018-09-14T17:17:12Z</time>
      </trkpt>
      <trkpt lat="-24.7787040" lon="-53.7629840">
        <ele>457.9</ele>
        <time>2018-09-14T17:17:13Z</time>
      </trkpt>
      <trkpt lat="-24.7786190" lon="-53.7629450">
        <ele>458.0</ele>
        <time>2018-09-14T17:17:14Z</time>
      </trkpt>
      <trkpt lat="-24.7785440" lon="-53.7628910">
        <ele>457.7</ele>
        <time>2018-09-14T17:17:15Z</time>
      </trkpt>
      <trkpt lat="-24.7784890" lon="-53.7628220">
        <ele>457.5</ele>
        <time>2018-09-14T17:17:16Z</time>
      </trkpt>
      <trkpt lat="-24.7784620" lon="-53.7627380">
        <ele>457.1</ele>
        <time>2018-09-14T17:17:17Z</time>
      </trkpt>
      <trkpt lat="-24.7784700" lon="-53.7626510">
        <ele>457.7</ele>
        <time>2018-09-14T17:17:18Z</time>
      </trkpt>
      <trkpt lat="-24.7785080" lon="-53.7625760">
        <ele>458.5</ele>
        <time>2018-09-14T17:17:19Z</time>
      </trkpt>
      <trkpt lat="-24.7785660" lon="-53.7625180">
        <ele>459.5</ele>
        <time>2018-09-14T17:17:20Z</time>
      </trkpt>
      <trkpt lat="-24.7786260" lon="-53.7624690">
        <ele>460.0</ele>
        <time>2018-09-14T17:17:21Z</time>
      </trkpt>
      <trkpt lat="-24.7786850" lon="-53.7624190">
        <ele>459.9</ele>
        <time>2018-09-14T17:17:22Z</time>
      </trkpt>
      <trkpt lat="-24.7787420" lon="-53.7623670">
        <ele>459.4</ele>
        <time>2018-09-14T17:17:23Z</time>
      </trkpt>
      <trkpt lat="-24.7787980" lon="-53.7623160">
        <ele>459.1</ele>
        <time>2018-09-14T17:17:24Z</time>
      </trkpt>
      <trkpt lat="-24.7788520" lon="-53.7622660">
        <ele>458.7</ele>
        <time>2018-09-14T17:17:25Z</time>
      </trkpt>
      <trkpt lat="-24.7789050" lon="-53.7622160">
        <ele>458.3</ele>
        <time>2018-09-14T17:17:26Z</time>
      </trkpt>
      <trkpt lat="-24.7789600" lon="-53.7621690">
        <ele>457.8</ele>
        <time>2018-09-14T17:17:27Z</time>
      </trkpt>
      <trkpt lat="-24.7790170" lon="-53.7621230">
        <ele>457.3</ele>
        <time>2018-09-14T17:17:28Z</time>
      </trkpt>
      <trkpt lat="-24.7790740" lon="-53.7620800">
        <ele>457.0</ele>
        <time>2018-09-14T17:17:29Z</time>
      </trkpt>
      <trkpt lat="-24.7791310" lon="-53.7620400">
        <ele>456.8</ele>
        <time>2018-09-14T17:17:30Z</time>
      </trkpt>
      <trkpt lat="-24.7791880" lon="-53.7620030">
        <ele>456.6</ele>
        <time>2018-09-14T17:17:31Z</time>
      </trkpt>
      <trkpt lat="-24.7792450" lon="-53.7619710">
        <ele>456.3</ele>
        <time>2018-09-14T17:17:32Z</time>
      </trkpt>
      <trkpt lat="-24.7792980" lon="-53.7619410">
        <ele>456.1</ele>
        <time>2018-09-14T17:17:33Z</time>
      </trkpt>
      <trkpt lat="-24.7793480" lon="-53.7619110">
        <ele>455.4</ele>
        <time>2018-09-14T17:17:34Z</time>
      </trkpt>
      <trkpt lat="-24.7794000" lon="-53.7618810">
        <ele>454.8</ele>
        <time>2018-09-14T17:17:35Z</time>
      </trkpt>
      <trkpt lat="-24.7794510" lon="-53.7618520">
        <ele>454.3</ele>
        <time>2018-09-14T17:17:36Z</time>
      </trkpt>
      <trkpt lat="-24.7795000" lon="-53.7618240">
        <ele>454.1</ele>
        <time>2018-09-14T17:17:37Z</time>
      </trkpt>
      <trkpt lat="-24.7795480" lon="-53.7617970">
        <ele>454.0</ele>
        <time>2018-09-14T17:17:38Z</time>
      </trkpt>
      <trkpt lat="-24.7795970" lon="-53.7617690">
        <ele>454.3</ele>
        <time>2018-09-14T17:17:39Z</time>
      </trkpt>
      <trkpt lat="-24.7796440" lon="-53.7617400">
        <ele>454.8</ele>
        <time>2018-09-14T17:17:40Z</time>
      </trkpt>
      <trkpt lat="-24.7796900" lon="-53.7617120">
        <ele>455.4</ele>
        <time>2018-09-14T17:17:41Z</time>
      </trkpt>
      <trkpt lat="-24.7797320" lon="-53.7616850">
        <ele>456.4</ele>
        <time>2018-09-14T17:17:42Z</time>
      </trkpt>
      <trkpt lat="-24.7797710" lon="-53.7616560">
        <ele>457.4</ele>
        <time>2018-09-14T17:17:43Z</time>
      </trkpt>
      <trkpt lat="-24.7798060" lon="-53.7616300">
        <ele>458.4</ele>
        <time>2018-09-14T17:17:44Z</time>
      </trkpt>
      <trkpt lat="-24.7798410" lon="-53.7616090">
        <ele>459.3</ele>
        <time>2018-09-14T17:17:45Z</time>
      </trkpt>
      <trkpt lat="-24.7798770" lon="-53.7615870">
        <ele>459.9</ele>
        <time>2018-09-14T17:17:46Z</time>
      </trkpt>
      <trkpt lat="-24.7799140" lon="-53.7615680">
        <ele>460.5</ele>
        <time>2018-09-14T17:17:47Z</time>
      </trkpt>
      <trkpt lat="-24.7799480" lon="-53.7615490">
        <ele>460.8</ele>
        <time>2018-09-14T17:17:48Z</time>
      </trkpt>
      <trkpt lat="-24.7799810" lon="-53.7615290">
        <ele>461.1</ele>
        <time>2018-09-14T17:17:49Z</time>
      </trkpt>
      <trkpt lat="-24.7800150" lon="-53.7615120">
        <ele>461.5</ele>
        <time>2018-09-14T17:17:50Z</time>
      </trkpt>
      <trkpt lat="-24.7800450" lon="-53.7614930">
        <ele>462.0</ele>
        <time>2018-09-14T17:17:51Z</time>
      </trkpt>
      <trkpt lat="-24.7800740" lon="-53.7614720">
        <ele>462.5</ele>
        <time>2018-09-14T17:17:52Z</time>
      </trkpt>
      <trkpt lat="-24.7801070" lon="-53.7614520">
        <ele>463.0</ele>
        <time>2018-09-14T17:17:53Z</time>
      </trkpt>
      <trkpt lat="-24.7801410" lon="-53.7614340">
        <ele>463.5</ele>
        <time>2018-09-14T17:17:54Z</time>
      </trkpt>
      <trkpt lat="-24.7801770" lon="-53.7614160">
        <ele>464.0</ele>
        <time>2018-09-14T17:17:55Z</time>
      </trkpt>
      <trkpt lat="-24.7802080" lon="-53.7613930">
        <ele>464.4</ele>
        <time>2018-09-14T17:17:56Z</time>
      </trkpt>
      <trkpt lat="-24.7802420" lon="-53.7613710">
        <ele>464.8</ele>
        <time>2018-09-14T17:17:57Z</time>
      </trkpt>
      <trkpt lat="-24.7802750" lon="-53.7613510">
        <ele>465.0</ele>
        <time>2018-09-14T17:17:58Z</time>
      </trkpt>
      <trkpt lat="-24.7803090" lon="-53.7613300">
        <ele>465.2</ele>
        <time>2018-09-14T17:17:59Z</time>
      </trkpt>
      <trkpt lat="-24.7803470" lon="-53.7613070">
        <ele>465.0</ele>
        <time>2018-09-14T17:18:00Z</time>
      </trkpt>
      <trkpt lat="-24.7803830" lon="-53.7612840">
        <ele>464.7</ele>
        <time>2018-09-14T17:18:01Z</time>
      </trkpt>
      <trkpt lat="-24.7804160" lon="-53.7612590">
        <ele>464.3</ele>
        <time>2018-09-14T17:18:02Z</time>
      </trkpt>
      <trkpt lat="-24.7804500" lon="-53.7612380">
        <ele>464.0</ele>
        <time>2018-09-14T17:18:03Z</time>
      </trkpt>
      <trkpt lat="-24.7804840" lon="-53.7612180">
        <ele>463.7</ele>
        <time>2018-09-14T17:18:04Z</time>
      </trkpt>
      <trkpt lat="-24.7805180" lon="-53.7611950">
        <ele>463.4</ele>
        <time>2018-09-14T17:18:05Z</time>
      </trkpt>
      <trkpt lat="-24.7805550" lon="-53.7611700">
        <ele>463.0</ele>
        <time>2018-09-14T17:18:06Z</time>
      </trkpt>
      <trkpt lat="-24.7805930" lon="-53.7611490">
        <ele>462.3</ele>
        <time>2018-09-14T17:18:07Z</time>
      </trkpt>
      <trkpt lat="-24.7806290" lon="-53.7611290">
        <ele>461.7</ele>
        <time>2018-09-14T17:18:08Z</time>
      </trkpt>
      <trkpt lat="-24.7806660" lon="-53.7611070">
        <ele>461.0</ele>
        <time>2018-09-14T17:18:09Z</time>
      </trkpt>
      <trkpt lat="-24.7807050" lon="-53.7610820">
        <ele>460.2</ele>
        <time>2018-09-14T17:18:10Z</time>
      </trkpt>
      <trkpt lat="-24.7807450" lon="-53.7610570">
        <ele>459.7</ele>
        <time>2018-09-14T17:18:11Z</time>
      </trkpt>
      <trkpt lat="-24.7807870" lon="-53.7610320">
        <ele>459.1</ele>
        <time>2018-09-14T17:18:12Z</time>
      </trkpt>
      <trkpt lat="-24.7808280" lon="-53.7610090">
        <ele>458.6</ele>
        <time>2018-09-14T17:18:13Z</time>
      </trkpt>
      <trkpt lat="-24.7808680" lon="-53.7609860">
        <ele>458.0</ele>
        <time>2018-09-14T17:18:14Z</time>
      </trkpt>
      <trkpt lat="-24.7809080" lon="-53.7609630">
        <ele>457.4</ele>
        <time>2018-09-14T17:18:15Z</time>
      </trkpt>
      <trkpt lat="-24.7809490" lon="-53.7609410">
        <ele>456.8</ele>
        <time>2018-09-14T17:18:16Z</time>
      </trkpt>
      <trkpt lat="-24.7809890" lon="-53.7609200">
        <ele>456.4</ele>
        <time>2018-09-14T17:18:17Z</time>
      </trkpt>
      <trkpt lat="-24.7810300" lon="-53.7609000">
        <ele>456.0</ele>
        <time>2018-09-14T17:18:18Z</time>
      </trkpt>
      <trkpt lat="-24.7810710" lon="-53.7608780">
        <ele>455.8</ele>
        <time>2018-09-14T17:18:19Z</time>
      </trkpt>
      <trkpt lat="-24.7811110" lon="-53.7608580">
        <ele>455.6</ele>
        <time>2018-09-14T17:18:20Z</time>
      </trkpt>
      <trkpt lat="-24.7811550" lon="-53.7608340">
        <ele>455.4</ele>
        <time>2018-09-14T17:18:21Z</time>
      </trkpt>
      <trkpt lat="-24.7811970" lon="-53.7608120">
        <ele>455.3</ele>
        <time>2018-09-14T17:18:22Z</time>
      </trkpt>
      <trkpt lat="-24.7812330" lon="-53.7607880">
        <ele>455.4</ele>
        <time>2018-09-14T17:18:23Z</time>
      </trkpt>
      <trkpt lat="-24.7812750" lon="-53.7607650">
        <ele>455.4</ele>
        <time>2018-09-14T17:18:24Z</time>
      </trkpt>
      <trkpt lat="-24.7813200" lon="-53.7607430">
        <ele>455.4</ele>
        <time>2018-09-14T17:18:25Z</time>
      </trkpt>
      <trkpt lat="-24.7813680" lon="-53.7607170">
        <ele>455.4</ele>
        <time>2018-09-14T17:18:26Z</time>
      </trkpt>
      <trkpt lat="-24.7814160" lon="-53.7606960">
        <ele>455.5</ele>
        <time>2018-09-14T17:18:27Z</time>
      </trkpt>
      <trkpt lat="-24.7814660" lon="-53.7606770">
        <ele>455.5</ele>
        <time>2018-09-14T17:18:28Z</time>
      </trkpt>
      <trkpt lat="-24.7815140" lon="-53.7606610">
        <ele>455.6</ele>
        <time>2018-09-14T17:18:29Z</time>
      </trkpt>
      <trkpt lat="-24.7815600" lon="-53.7606420">
        <ele>455.7</ele>
        <time>2018-09-14T17:18:30Z</time>
      </trkpt>
      <trkpt lat="-24.7816040" lon="-53.7606210">
        <ele>455.8</ele>
        <time>2018-09-14T17:18:31Z</time>
      </trkpt>
      <trkpt lat="-24.7816040" lon="-53.7606210">
        <ele>455.8</ele>
        <time>2018-09-14T17:18:32Z</time>
      </trkpt>
      <trkpt lat="-24.7816450" lon="-53.7606010">
        <ele>455.9</ele>
        <time>2018-09-14T17:18:33Z</time>
      </trkpt>
      <trkpt lat="-24.7816870" lon="-53.7605830">
        <ele>456.0</ele>
        <time>2018-09-14T17:18:34Z</time>
      </trkpt>
      <trkpt lat="-24.7817310" lon="-53.7605650">
        <ele>456.1</ele>
        <time>2018-09-14T17:18:35Z</time>
      </trkpt>
      <trkpt lat="-24.7817720" lon="-53.7605470">
        <ele>456.1</ele>
        <time>2018-09-14T17:18:36Z</time>
      </trkpt>
      <trkpt lat="-24.7818140" lon="-53.7605290">
        <ele>456.0</ele>
        <time>2018-09-14T17:18:37Z</time>
      </trkpt>
      <trkpt lat="-24.7818540" lon="-53.7605110">
        <ele>456.1</ele>
        <time>2018-09-14T17:18:38Z</time>
      </trkpt>
      <trkpt lat="-24.7818980" lon="-53.7604880">
        <ele>456.1</ele>
        <time>2018-09-14T17:18:39Z</time>
      </trkpt>
      <trkpt lat="-24.7819440" lon="-53.7604650">
        <ele>456.4</ele>
        <time>2018-09-14T17:18:40Z</time>
      </trkpt>
      <trkpt lat="-24.7819850" lon="-53.7604440">
        <ele>456.8</ele>
        <time>2018-09-14T17:18:41Z</time>
      </trkpt>
      <trkpt lat="-24.7820270" lon="-53.7604220">
        <ele>457.1</ele>
        <time>2018-09-14T17:18:42Z</time>
      </trkpt>
      <trkpt lat="-24.7820730" lon="-53.7603960">
        <ele>457.5</ele>
        <time>2018-09-14T17:18:43Z</time>
      </trkpt>
      <trkpt lat="-24.7821240" lon="-53.7603730">
        <ele>457.9</ele>
        <time>2018-09-14T17:18:44Z</time>
      </trkpt>
      <trkpt lat="-24.7821760" lon="-53.7603520">
        <ele>458.1</ele>
        <time>2018-09-14T17:18:45Z</time>
      </trkpt>
      <trkpt lat="-24.7822250" lon="-53.7603290">
        <ele>458.2</ele>
        <time>2018-09-14T17:18:46Z</time>
      </trkpt>
      <trkpt lat="-24.7822720" lon="-53.7603040">
        <ele>458.1</ele>
        <time>2018-09-14T17:18:47Z</time>
      </trkpt>
      <trkpt lat="-24.7823220" lon="-53.7602770">
        <ele>458.0</ele>
        <time>2018-09-14T17:18:48Z</time>
      </trkpt>
      <trkpt lat="-24.7823680" lon="-53.7602540">
        <ele>458.2</ele>
        <time>2018-09-14T17:18:49Z</time>
      </trkpt>
      <trkpt lat="-24.7824140" lon="-53.7602310">
        <ele>458.4</ele>
        <time>2018-09-14T17:18:50Z</time>
      </trkpt>
      <trkpt lat="-24.7824570" lon="-53.7602090">
        <ele>458.5</ele>
        <time>2018-09-14T17:18:51Z</time>
      </trkpt>
      <trkpt lat="-24.7825040" lon="-53.7601880">
        <ele>458.7</ele>
        <time>2018-09-14T17:18:52Z</time>
      </trkpt>
      <trkpt lat="-24.7825490" lon="-53.7601690">
        <ele>458.8</ele>
        <time>2018-09-14T17:18:53Z</time>
      </trkpt>
      <trkpt lat="-24.7825930" lon="-53.7601510">
        <ele>459.0</ele>
        <time>2018-09-14T17:18:54Z</time>
      </trkpt>
      <trkpt lat="-24.7826320" lon="-53.7601370">
        <ele>459.2</ele>
        <time>2018-09-14T17:18:55Z</time>
      </trkpt>
      <trkpt lat="-24.7826700" lon="-53.7601220">
        <ele>459.3</ele>
        <time>2018-09-14T17:18:56Z</time>
      </trkpt>
      <trkpt lat="-24.7827140" lon="-53.7601040">
        <ele>459.5</ele>
        <time>2018-09-14T17:18:57Z</time>
      </trkpt>
      <trkpt lat="-24.7827590" lon="-53.7600870">
        <ele>459.7</ele>
        <time>2018-09-14T17:18:58Z</time>
      </trkpt>
      <trkpt lat="-24.7827980" lon="-53.7600720">
        <ele>459.9</ele>
        <time>2018-09-14T17:18:59Z</time>
      </trkpt>
      <trkpt lat="-24.7828320" lon="-53.7600560">
        <ele>460.6</ele>
        <time>2018-09-14T17:19:00Z</time>
      </trkpt>
      <trkpt lat="-24.7828630" lon="-53.7600430">
        <ele>461.2</ele>
        <time>2018-09-14T17:19:01Z</time>
      </trkpt>
      <trkpt lat="-24.7828850" lon="-53.7600270">
        <ele>461.6</ele>
        <time>2018-09-14T17:19:02Z</time>
      </trkpt>
      <trkpt lat="-24.7829180" lon="-53.7600090">
        <ele>462.1</ele>
        <time>2018-09-14T17:19:03Z</time>
      </trkpt>
      <trkpt lat="-24.7829670" lon="-53.7599870">
        <ele>462.6</ele>
        <time>2018-09-14T17:19:04Z</time>
      </trkpt>
      <trkpt lat="-24.7829950" lon="-53.7599760">
        <ele>462.8</ele>
        <time>2018-09-14T17:19:05Z</time>
      </trkpt>
      <trkpt lat="-24.7830320" lon="-53.7599650">
        <ele>463.0</ele>
        <time>2018-09-14T17:19:06Z</time>
      </trkpt>
      <trkpt lat="-24.7830660" lon="-53.7599510">
        <ele>463.2</ele>
        <time>2018-09-14T17:19:07Z</time>
      </trkpt>
      <trkpt lat="-24.7831040" lon="-53.7599330">
        <ele>463.5</ele>
        <time>2018-09-14T17:19:08Z</time>
      </trkpt>
      <trkpt lat="-24.7831340" lon="-53.7599140">
        <ele>463.7</ele>
        <time>2018-09-14T17:19:09Z</time>
      </trkpt>
      <trkpt lat="-24.7831690" lon="-53.7598990">
        <ele>463.9</ele>
        <time>2018-09-14T17:19:10Z</time>
      </trkpt>
      <trkpt lat="-24.7832100" lon="-53.7598820">
        <ele>464.1</ele>
        <time>2018-09-14T17:19:11Z</time>
      </trkpt>
      <trkpt lat="-24.7832470" lon="-53.7598640">
        <ele>464.1</ele>
        <time>2018-09-14T17:19:12Z</time>
      </trkpt>
      <trkpt lat="-24.7832840" lon="-53.7598480">
        <ele>464.0</ele>
        <time>2018-09-14T17:19:13Z</time>
      </trkpt>
      <trkpt lat="-24.7833250" lon="-53.7598350">
        <ele>463.8</ele>
        <time>2018-09-14T17:19:14Z</time>
      </trkpt>
      <trkpt lat="-24.7833710" lon="-53.7598280">
        <ele>463.7</ele>
        <time>2018-09-14T17:19:15Z</time>
      </trkpt>
      <trkpt lat="-24.7834070" lon="-53.7598250">
        <ele>463.3</ele>
        <time>2018-09-14T17:19:16Z</time>
      </trkpt>
      <trkpt lat="-24.7834420" lon="-53.7598230">
        <ele>463.0</ele>
        <time>2018-09-14T17:19:17Z</time>
      </trkpt>
      <trkpt lat="-24.7834860" lon="-53.7598220">
        <ele>462.7</ele>
        <time>2018-09-14T17:19:18Z</time>
      </trkpt>
      <trkpt lat="-24.7835330" lon="-53.7598200">
        <ele>462.5</ele>
        <time>2018-09-14T17:19:19Z</time>
      </trkpt>
      <trkpt lat="-24.7835810" lon="-53.7598190">
        <ele>462.3</ele>
        <time>2018-09-14T17:19:20Z</time>
      </trkpt>
      <trkpt lat="-24.7836220" lon="-53.7598290">
        <ele>462.2</ele>
        <time>2018-09-14T17:19:21Z</time>
      </trkpt>
      <trkpt lat="-24.7836620" lon="-53.7598390">
        <ele>462.1</ele>
        <time>2018-09-14T17:19:22Z</time>
      </trkpt>
      <trkpt lat="-24.7837070" lon="-53.7598520">
        <ele>462.0</ele>
        <time>2018-09-14T17:19:23Z</time>
      </trkpt>
      <trkpt lat="-24.7837520" lon="-53.7598660">
        <ele>462.0</ele>
        <time>2018-09-14T17:19:24Z</time>
      </trkpt>
      <trkpt lat="-24.7837960" lon="-53.7598830">
        <ele>462.5</ele>
        <time>2018-09-14T17:19:25Z</time>
      </trkpt>
      <trkpt lat="-24.7838330" lon="-53.7599000">
        <ele>462.4</ele>
        <time>2018-09-14T17:19:26Z</time>
      </trkpt>
      <trkpt lat="-24.7838750" lon="-53.7599170">
        <ele>462.4</ele>
        <time>2018-09-14T17:19:27Z</time>
      </trkpt>
      <trkpt lat="-24.7839100" lon="-53.7599360">
        <ele>462.9</ele>
        <time>2018-09-14T17:19:28Z</time>
      </trkpt>
      <trkpt lat="-24.7839440" lon="-53.7599550">
        <ele>462.9</ele>
        <time>2018-09-14T17:19:29Z</time>
      </trkpt>
      <trkpt lat="-24.7839600" lon="-53.7599770">
        <ele>463.1</ele>
        <time>2018-09-14T17:19:30Z</time>
      </trkpt>
      <trkpt lat="-24.7839930" lon="-53.7600030">
        <ele>463.1</ele>
        <time>2018-09-14T17:19:31Z</time>
      </trkpt>
      <trkpt lat="-24.7840350" lon="-53.7600320">
        <ele>463.1</ele>
        <time>2018-09-14T17:19:32Z</time>
      </trkpt>
      <trkpt lat="-24.7840820" lon="-53.7600630">
        <ele>463.3</ele>
        <time>2018-09-14T17:19:33Z</time>
      </trkpt>
      <trkpt lat="-24.7841310" lon="-53.7601010">
        <ele>463.6</ele>
        <time>2018-09-14T17:19:34Z</time>
      </trkpt>
      <trkpt lat="-24.7841880" lon="-53.7601360">
        <ele>463.6</ele>
        <time>2018-09-14T17:19:35Z</time>
      </trkpt>
      <trkpt lat="-24.7842220" lon="-53.7601780">
        <ele>463.9</ele>
        <time>2018-09-14T17:19:36Z</time>
      </trkpt>
      <trkpt lat="-24.7842550" lon="-53.7602220">
        <ele>464.3</ele>
        <time>2018-09-14T17:19:37Z</time>
      </trkpt>
      <trkpt lat="-24.7842920" lon="-53.7602630">
        <ele>464.8</ele>
        <time>2018-09-14T17:19:38Z</time>
      </trkpt>
      <trkpt lat="-24.7843340" lon="-53.7603100">
        <ele>465.9</ele>
        <time>2018-09-14T17:19:39Z</time>
      </trkpt>
      <trkpt lat="-24.7843800" lon="-53.7603540">
        <ele>466.2</ele>
        <time>2018-09-14T17:19:40Z</time>
      </trkpt>
      <trkpt lat="-24.7843980" lon="-53.7604070">
        <ele>466.4</ele>
        <time>2018-09-14T17:19:41Z</time>
      </trkpt>
      <trkpt lat="-24.7844300" lon="-53.7604520">
        <ele>467.2</ele>
        <time>2018-09-14T17:19:42Z</time>
      </trkpt>
      <trkpt lat="-24.7844640" lon="-53.7604920">
        <ele>467.9</ele>
        <time>2018-09-14T17:19:43Z</time>
      </trkpt>
      <trkpt lat="-24.7844870" lon="-53.7605340">
        <ele>468.4</ele>
        <time>2018-09-14T17:19:44Z</time>
      </trkpt>
      <trkpt lat="-24.7845220" lon="-53.7605740">
        <ele>468.9</ele>
        <time>2018-09-14T17:19:45Z</time>
      </trkpt>
      <trkpt lat="-24.7845560" lon="-53.7606090">
        <ele>469.1</ele>
        <time>2018-09-14T17:19:46Z</time>
      </trkpt>
      <trkpt lat="-24.7846010" lon="-53.7606420">
        <ele>469.1</ele>
        <time>2018-09-14T17:19:47Z</time>
      </trkpt>
      <trkpt lat="-24.7846310" lon="-53.7606790">
        <ele>469.2</ele>
        <time>2018-09-14T17:19:48Z</time>
      </trkpt>
      <trkpt lat="-24.7846500" lon="-53.7607180">
        <ele>469.2</ele>
        <time>2018-09-14T17:19:49Z</time>
      </trkpt>
      <trkpt lat="-24.7846780" lon="-53.7607530">
        <ele>469.2</ele>
        <time>2018-09-14T17:19:50Z</time>
      </trkpt>
      <trkpt lat="-24.7846990" lon="-53.7607940">
        <ele>468.7</ele>
        <time>2018-09-14T17:19:51Z</time>
      </trkpt>
      <trkpt lat="-24.7847220" lon="-53.7608340">
        <ele>468.1</ele>
        <time>2018-09-14T17:19:52Z</time>
      </trkpt>
      <trkpt lat="-24.7847430" lon="-53.7608720">
        <ele>467.6</ele>
        <time>2018-09-14T17:19:53Z</time>
      </trkpt>
      <trkpt lat="-24.7847610" lon="-53.7609160">
        <ele>467.1</ele>
        <time>2018-09-14T17:19:54Z</time>
      </trkpt>
      <trkpt lat="-24.7847830" lon="-53.7609580">
        <ele>466.6</ele>
        <time>2018-09-14T17:19:55Z</time>
      </trkpt>
      <trkpt lat="-24.7848040" lon="-53.7609960">
        <ele>466.1</ele>
        <time>2018-09-14T17:19:56Z</time>
      </trkpt>
      <trkpt lat="-24.7848240" lon="-53.7610340">
        <ele>465.8</ele>
        <time>2018-09-14T17:19:57Z</time>
      </trkpt>
      <trkpt lat="-24.7848330" lon="-53.7610750">
        <ele>465.6</ele>
        <time>2018-09-14T17:19:58Z</time>
      </trkpt>
      <trkpt lat="-24.7848770" lon="-53.7611600">
        <ele>465.2</ele>
        <time>2018-09-14T17:19:59Z</time>
      </trkpt>
      <trkpt lat="-24.7848960" lon="-53.7611980">
        <ele>465.2</ele>
        <time>2018-09-14T17:20:01Z</time>
      </trkpt>
      <trkpt lat="-24.7849150" lon="-53.7612370">
        <ele>465.4</ele>
        <time>2018-09-14T17:20:02Z</time>
      </trkpt>
      <trkpt lat="-24.7849330" lon="-53.7612780">
        <ele>465.7</ele>
        <time>2018-09-14T17:20:03Z</time>
      </trkpt>
      <trkpt lat="-24.7849530" lon="-53.7613220">
        <ele>466.4</ele>
        <time>2018-09-14T17:20:04Z</time>
      </trkpt>
      <trkpt lat="-24.7849750" lon="-53.7613630">
        <ele>467.0</ele>
        <time>2018-09-14T17:20:05Z</time>
      </trkpt>
      <trkpt lat="-24.7849940" lon="-53.7614050">
        <ele>467.8</ele>
        <time>2018-09-14T17:20:06Z</time>
      </trkpt>
      <trkpt lat="-24.7850360" lon="-53.7614840">
        <ele>469.3</ele>
        <time>2018-09-14T17:20:07Z</time>
      </trkpt>
      <trkpt lat="-24.7850480" lon="-53.7615250">
        <ele>470.0</ele>
        <time>2018-09-14T17:20:08Z</time>
      </trkpt>
      <trkpt lat="-24.7850680" lon="-53.7615650">
        <ele>470.8</ele>
        <time>2018-09-14T17:20:09Z</time>
      </trkpt>
      <trkpt lat="-24.7851110" lon="-53.7616500">
        <ele>472.7</ele>
        <time>2018-09-14T17:20:11Z</time>
      </trkpt>
      <trkpt lat="-24.7851330" lon="-53.7616970">
        <ele>473.8</ele>
        <time>2018-09-14T17:20:12Z</time>
      </trkpt>
      <trkpt lat="-24.7851520" lon="-53.7617430">
        <ele>474.8</ele>
        <time>2018-09-14T17:20:13Z</time>
      </trkpt>
      <trkpt lat="-24.7851700" lon="-53.7617860">
        <ele>475.6</ele>
        <time>2018-09-14T17:20:14Z</time>
      </trkpt>
      <trkpt lat="-24.7851940" lon="-53.7618280">
        <ele>476.2</ele>
        <time>2018-09-14T17:20:15Z</time>
      </trkpt>
      <trkpt lat="-24.7852180" lon="-53.7618660">
        <ele>476.7</ele>
        <time>2018-09-14T17:20:16Z</time>
      </trkpt>
      <trkpt lat="-24.7852530" lon="-53.7619020">
        <ele>477.1</ele>
        <time>2018-09-14T17:20:17Z</time>
      </trkpt>
      <trkpt lat="-24.7852780" lon="-53.7619420">
        <ele>477.3</ele>
        <time>2018-09-14T17:20:18Z</time>
      </trkpt>
      <trkpt lat="-24.7852980" lon="-53.7619830">
        <ele>477.2</ele>
        <time>2018-09-14T17:20:19Z</time>
      </trkpt>
      <trkpt lat="-24.7853210" lon="-53.7620210">
        <ele>477.0</ele>
        <time>2018-09-14T17:20:20Z</time>
      </trkpt>
      <trkpt lat="-24.7853440" lon="-53.7620600">
        <ele>476.5</ele>
        <time>2018-09-14T17:20:21Z</time>
      </trkpt>
      <trkpt lat="-24.7853680" lon="-53.7620970">
        <ele>476.0</ele>
        <time>2018-09-14T17:20:22Z</time>
      </trkpt>
      <trkpt lat="-24.7853870" lon="-53.7621360">
        <ele>475.4</ele>
        <time>2018-09-14T17:20:23Z</time>
      </trkpt>
      <trkpt lat="-24.7854140" lon="-53.7621740">
        <ele>474.8</ele>
        <time>2018-09-14T17:20:24Z</time>
      </trkpt>
      <trkpt lat="-24.7854340" lon="-53.7622140">
        <ele>474.2</ele>
        <time>2018-09-14T17:20:25Z</time>
      </trkpt>
      <trkpt lat="-24.7854520" lon="-53.7622530">
        <ele>473.6</ele>
        <time>2018-09-14T17:20:26Z</time>
      </trkpt>
      <trkpt lat="-24.7854710" lon="-53.7622910">
        <ele>473.2</ele>
        <time>2018-09-14T17:20:27Z</time>
      </trkpt>
      <trkpt lat="-24.7854880" lon="-53.7623300">
        <ele>472.7</ele>
        <time>2018-09-14T17:20:28Z</time>
      </trkpt>
      <trkpt lat="-24.7855060" lon="-53.7623690">
        <ele>472.5</ele>
        <time>2018-09-14T17:20:29Z</time>
      </trkpt>
      <trkpt lat="-24.7855430" lon="-53.7624410">
        <ele>471.9</ele>
        <time>2018-09-14T17:20:31Z</time>
      </trkpt>
      <trkpt lat="-24.7855650" lon="-53.7624750">
        <ele>471.6</ele>
        <time>2018-09-14T17:20:32Z</time>
      </trkpt>
      <trkpt lat="-24.7855800" lon="-53.7625110">
        <ele>471.5</ele>
        <time>2018-09-14T17:20:33Z</time>
      </trkpt>
      <trkpt lat="-24.7855990" lon="-53.7625480">
        <ele>471.5</ele>
        <time>2018-09-14T17:20:34Z</time>
      </trkpt>
      <trkpt lat="-24.7856150" lon="-53.7625840">
        <ele>471.7</ele>
        <time>2018-09-14T17:20:35Z</time>
      </trkpt>
      <trkpt lat="-24.7856340" lon="-53.7626180">
        <ele>472.1</ele>
        <time>2018-09-14T17:20:36Z</time>
      </trkpt>
      <trkpt lat="-24.7856520" lon="-53.7626500">
        <ele>472.5</ele>
        <time>2018-09-14T17:20:37Z</time>
      </trkpt>
      <trkpt lat="-24.7856700" lon="-53.7626820">
        <ele>473.0</ele>
        <time>2018-09-14T17:20:38Z</time>
      </trkpt>
      <trkpt lat="-24.7856860" lon="-53.7627130">
        <ele>473.6</ele>
        <time>2018-09-14T17:20:39Z</time>
      </trkpt>
      <trkpt lat="-24.7857000" lon="-53.7627440">
        <ele>474.1</ele>
        <time>2018-09-14T17:20:40Z</time>
      </trkpt>
      <trkpt lat="-24.7857160" lon="-53.7627740">
        <ele>474.7</ele>
        <time>2018-09-14T17:20:41Z</time>
      </trkpt>
      <trkpt lat="-24.7857370" lon="-53.7628020">
        <ele>475.4</ele>
        <time>2018-09-14T17:20:42Z</time>
      </trkpt>
      <trkpt lat="-24.7857520" lon="-53.7628290">
        <ele>475.7</ele>
        <time>2018-09-14T17:20:43Z</time>
      </trkpt>
      <trkpt lat="-24.7857670" lon="-53.7628560">
        <ele>476.0</ele>
        <time>2018-09-14T17:20:44Z</time>
      </trkpt>
      <trkpt lat="-24.7857810" lon="-53.7628820">
        <ele>476.3</ele>
        <time>2018-09-14T17:20:45Z</time>
      </trkpt>
      <trkpt lat="-24.7857950" lon="-53.7629080">
        <ele>476.7</ele>
        <time>2018-09-14T17:20:46Z</time>
      </trkpt>
      <trkpt lat="-24.7858090" lon="-53.7629330">
        <ele>477.1</ele>
        <time>2018-09-14T17:20:47Z</time>
      </trkpt>
      <trkpt lat="-24.7858250" lon="-53.7629580">
        <ele>477.6</ele>
        <time>2018-09-14T17:20:48Z</time>
      </trkpt>
      <trkpt lat="-24.7858390" lon="-53.7629840">
        <ele>478.0</ele>
        <time>2018-09-14T17:20:49Z</time>
      </trkpt>
      <trkpt lat="-24.7858490" lon="-53.7630090">
        <ele>478.4</ele>
        <time>2018-09-14T17:20:50Z</time>
      </trkpt>
      <trkpt lat="-24.7858630" lon="-53.7630350">
        <ele>478.8</ele>
        <time>2018-09-14T17:20:51Z</time>
      </trkpt>
      <trkpt lat="-24.7858780" lon="-53.7630600">
        <ele>479.2</ele>
        <time>2018-09-14T17:20:52Z</time>
      </trkpt>
      <trkpt lat="-24.7858900" lon="-53.7630870">
        <ele>479.5</ele>
        <time>2018-09-14T17:20:53Z</time>
      </trkpt>
      <trkpt lat="-24.7859070" lon="-53.7631130">
        <ele>479.9</ele>
        <time>2018-09-14T17:20:54Z</time>
      </trkpt>
      <trkpt lat="-24.7859180" lon="-53.7631410">
        <ele>480.2</ele>
        <time>2018-09-14T17:20:55Z</time>
      </trkpt>
      <trkpt lat="-24.7859300" lon="-53.7631670">
        <ele>480.6</ele>
        <time>2018-09-14T17:20:56Z</time>
      </trkpt>
      <trkpt lat="-24.7859460" lon="-53.7631910">
        <ele>481.0</ele>
        <time>2018-09-14T17:20:57Z</time>
      </trkpt>
      <trkpt lat="-24.7859630" lon="-53.7632150">
        <ele>481.3</ele>
        <time>2018-09-14T17:20:58Z</time>
      </trkpt>
      <trkpt lat="-24.7859770" lon="-53.7632380">
        <ele>481.5</ele>
        <time>2018-09-14T17:20:59Z</time>
      </trkpt>
      <trkpt lat="-24.7859920" lon="-53.7632600">
        <ele>481.6</ele>
        <time>2018-09-14T17:21:00Z</time>
      </trkpt>
      <trkpt lat="-24.7860090" lon="-53.7632810">
        <ele>481.8</ele>
        <time>2018-09-14T17:21:01Z</time>
      </trkpt>
      <trkpt lat="-24.7860260" lon="-53.7633030">
        <ele>482.1</ele>
        <time>2018-09-14T17:21:02Z</time>
      </trkpt>
      <trkpt lat="-24.7860450" lon="-53.7633240">
        <ele>482.4</ele>
        <time>2018-09-14T17:21:03Z</time>
      </trkpt>
      <trkpt lat="-24.7860590" lon="-53.7633460">
        <ele>482.7</ele>
        <time>2018-09-14T17:21:04Z</time>
      </trkpt>
      <trkpt lat="-24.7860720" lon="-53.7633680">
        <ele>483.2</ele>
        <time>2018-09-14T17:21:05Z</time>
      </trkpt>
      <trkpt lat="-24.7860880" lon="-53.7633900">
        <ele>483.8</ele>
        <time>2018-09-14T17:21:06Z</time>
      </trkpt>
      <trkpt lat="-24.7861040" lon="-53.7634110">
        <ele>484.4</ele>
        <time>2018-09-14T17:21:07Z</time>
      </trkpt>
      <trkpt lat="-24.7861220" lon="-53.7634340">
        <ele>485.1</ele>
        <time>2018-09-14T17:21:08Z</time>
      </trkpt>
      <trkpt lat="-24.7861470" lon="-53.7634500">
        <ele>485.8</ele>
        <time>2018-09-14T17:21:09Z</time>
      </trkpt>
      <trkpt lat="-24.7861640" lon="-53.7634740">
        <ele>486.5</ele>
        <time>2018-09-14T17:21:10Z</time>
      </trkpt>
      <trkpt lat="-24.7861800" lon="-53.7634980">
        <ele>487.2</ele>
        <time>2018-09-14T17:21:11Z</time>
      </trkpt>
      <trkpt lat="-24.7861960" lon="-53.7635190">
        <ele>487.5</ele>
        <time>2018-09-14T17:21:12Z</time>
      </trkpt>
      <trkpt lat="-24.7862170" lon="-53.7635330">
        <ele>487.7</ele>
        <time>2018-09-14T17:21:13Z</time>
      </trkpt>
      <trkpt lat="-24.7862410" lon="-53.7635520">
        <ele>488.0</ele>
        <time>2018-09-14T17:21:14Z</time>
      </trkpt>
      <trkpt lat="-24.7862610" lon="-53.7635720">
        <ele>488.4</ele>
        <time>2018-09-14T17:21:15Z</time>
      </trkpt>
      <trkpt lat="-24.7862750" lon="-53.7635910">
        <ele>488.7</ele>
        <time>2018-09-14T17:21:16Z</time>
      </trkpt>
      <trkpt lat="-24.7862940" lon="-53.7636110">
        <ele>489.0</ele>
        <time>2018-09-14T17:21:17Z</time>
      </trkpt>
      <trkpt lat="-24.7863150" lon="-53.7636270">
        <ele>489.0</ele>
        <time>2018-09-14T17:21:18Z</time>
      </trkpt>
      <trkpt lat="-24.7863400" lon="-53.7636420">
        <ele>489.1</ele>
        <time>2018-09-14T17:21:19Z</time>
      </trkpt>
      <trkpt lat="-24.7863590" lon="-53.7636610">
        <ele>489.2</ele>
        <time>2018-09-14T17:21:20Z</time>
      </trkpt>
      <trkpt lat="-24.7863790" lon="-53.7636810">
        <ele>489.3</ele>
        <time>2018-09-14T17:21:21Z</time>
      </trkpt>
      <trkpt lat="-24.7863990" lon="-53.7636990">
        <ele>489.3</ele>
        <time>2018-09-14T17:21:22Z</time>
      </trkpt>
      <trkpt lat="-24.7864190" lon="-53.7637210">
        <ele>489.5</ele>
        <time>2018-09-14T17:21:23Z</time>
      </trkpt>
      <trkpt lat="-24.7864450" lon="-53.7637410">
        <ele>489.7</ele>
        <time>2018-09-14T17:21:24Z</time>
      </trkpt>
      <trkpt lat="-24.7864690" lon="-53.7637610">
        <ele>489.9</ele>
        <time>2018-09-14T17:21:25Z</time>
      </trkpt>
      <trkpt lat="-24.7864880" lon="-53.7637780">
        <ele>489.8</ele>
        <time>2018-09-14T17:21:26Z</time>
      </trkpt>
      <trkpt lat="-24.7865100" lon="-53.7637920">
        <ele>489.8</ele>
        <time>2018-09-14T17:21:27Z</time>
      </trkpt>
      <trkpt lat="-24.7865290" lon="-53.7638060">
        <ele>489.7</ele>
        <time>2018-09-14T17:21:28Z</time>
      </trkpt>
      <trkpt lat="-24.7865580" lon="-53.7638220">
        <ele>489.6</ele>
        <time>2018-09-14T17:21:29Z</time>
      </trkpt>
      <trkpt lat="-24.7865790" lon="-53.7638400">
        <ele>489.6</ele>
        <time>2018-09-14T17:21:30Z</time>
      </trkpt>
      <trkpt lat="-24.7866020" lon="-53.7638560">
        <ele>489.5</ele>
        <time>2018-09-14T17:21:31Z</time>
      </trkpt>
      <trkpt lat="-24.7866210" lon="-53.7638710">
        <ele>489.3</ele>
        <time>2018-09-14T17:21:32Z</time>
      </trkpt>
      <trkpt lat="-24.7866410" lon="-53.7638850">
        <ele>489.1</ele>
        <time>2018-09-14T17:21:33Z</time>
      </trkpt>
      <trkpt lat="-24.7866620" lon="-53.7638980">
        <ele>488.9</ele>
        <time>2018-09-14T17:21:34Z</time>
      </trkpt>
      <trkpt lat="-24.7866850" lon="-53.7639100">
        <ele>488.6</ele>
        <time>2018-09-14T17:21:35Z</time>
      </trkpt>
      <trkpt lat="-24.7867070" lon="-53.7639200">
        <ele>488.7</ele>
        <time>2018-09-14T17:21:36Z</time>
      </trkpt>
      <trkpt lat="-24.7867270" lon="-53.7639300">
        <ele>488.8</ele>
        <time>2018-09-14T17:21:37Z</time>
      </trkpt>
      <trkpt lat="-24.7867450" lon="-53.7639400">
        <ele>489.0</ele>
        <time>2018-09-14T17:21:38Z</time>
      </trkpt>
      <trkpt lat="-24.7867630" lon="-53.7639520">
        <ele>489.1</ele>
        <time>2018-09-14T17:21:39Z</time>
      </trkpt>
      <trkpt lat="-24.7867790" lon="-53.7639640">
        <ele>489.2</ele>
        <time>2018-09-14T17:21:40Z</time>
      </trkpt>
      <trkpt lat="-24.7867870" lon="-53.7639740">
        <ele>489.3</ele>
        <time>2018-09-14T17:21:41Z</time>
      </trkpt>
      <trkpt lat="-24.7868050" lon="-53.7639850">
        <ele>489.4</ele>
        <time>2018-09-14T17:21:42Z</time>
      </trkpt>
      <trkpt lat="-24.7868290" lon="-53.7639910">
        <ele>489.6</ele>
        <time>2018-09-14T17:21:43Z</time>
      </trkpt>
      <trkpt lat="-24.7868490" lon="-53.7639990">
        <ele>489.7</ele>
        <time>2018-09-14T17:21:44Z</time>
      </trkpt>
      <trkpt lat="-24.7868700" lon="-53.7640080">
        <ele>489.8</ele>
        <time>2018-09-14T17:21:45Z</time>
      </trkpt>
      <trkpt lat="-24.7868910" lon="-53.7640100">
        <ele>489.8</ele>
        <time>2018-09-14T17:21:46Z</time>
      </trkpt>
      <trkpt lat="-24.7869100" lon="-53.7640200">
        <ele>489.9</ele>
        <time>2018-09-14T17:21:47Z</time>
      </trkpt>
      <trkpt lat="-24.7869280" lon="-53.7640310">
        <ele>489.9</ele>
        <time>2018-09-14T17:21:48Z</time>
      </trkpt>
      <trkpt lat="-24.7869480" lon="-53.7640380">
        <ele>489.7</ele>
        <time>2018-09-14T17:21:49Z</time>
      </trkpt>
      <trkpt lat="-24.7869660" lon="-53.7640470">
        <ele>489.6</ele>
        <time>2018-09-14T17:21:50Z</time>
      </trkpt>
      <trkpt lat="-24.7869820" lon="-53.7640500">
        <ele>489.5</ele>
        <time>2018-09-14T17:21:51Z</time>
      </trkpt>
      <trkpt lat="-24.7869990" lon="-53.7640540">
        <ele>489.3</ele>
        <time>2018-09-14T17:21:52Z</time>
      </trkpt>
      <trkpt lat="-24.7870170" lon="-53.7640650">
        <ele>489.1</ele>
        <time>2018-09-14T17:21:53Z</time>
      </trkpt>
      <trkpt lat="-24.7870330" lon="-53.7640710">
        <ele>489.0</ele>
        <time>2018-09-14T17:21:54Z</time>
      </trkpt>
      <trkpt lat="-24.7870500" lon="-53.7640800">
        <ele>488.8</ele>
        <time>2018-09-14T17:21:55Z</time>
      </trkpt>
      <trkpt lat="-24.7870680" lon="-53.7640900">
        <ele>488.6</ele>
        <time>2018-09-14T17:21:56Z</time>
      </trkpt>
      <trkpt lat="-24.7870860" lon="-53.7640990">
        <ele>488.4</ele>
        <time>2018-09-14T17:21:57Z</time>
      </trkpt>
      <trkpt lat="-24.7871020" lon="-53.7641070">
        <ele>488.2</ele>
        <time>2018-09-14T17:21:58Z</time>
      </trkpt>
      <trkpt lat="-24.7871210" lon="-53.7641150">
        <ele>487.9</ele>
        <time>2018-09-14T17:21:59Z</time>
      </trkpt>
      <trkpt lat="-24.7871380" lon="-53.7641260">
        <ele>487.7</ele>
        <time>2018-09-14T17:22:00Z</time>
      </trkpt>
      <trkpt lat="-24.7871560" lon="-53.7641330">
        <ele>487.6</ele>
        <time>2018-09-14T17:22:01Z</time>
      </trkpt>
      <trkpt lat="-24.7871760" lon="-53.7641450">
        <ele>487.5</ele>
        <time>2018-09-14T17:22:02Z</time>
      </trkpt>
      <trkpt lat="-24.7871850" lon="-53.7641570">
        <ele>487.4</ele>
        <time>2018-09-14T17:22:03Z</time>
      </trkpt>
      <trkpt lat="-24.7872040" lon="-53.7641700">
        <ele>487.4</ele>
        <time>2018-09-14T17:22:04Z</time>
      </trkpt>
      <trkpt lat="-24.7872220" lon="-53.7641810">
        <ele>487.3</ele>
        <time>2018-09-14T17:22:05Z</time>
      </trkpt>
      <trkpt lat="-24.7872390" lon="-53.7641910">
        <ele>487.2</ele>
        <time>2018-09-14T17:22:06Z</time>
      </trkpt>
      <trkpt lat="-24.7872610" lon="-53.7641980">
        <ele>487.1</ele>
        <time>2018-09-14T17:22:07Z</time>
      </trkpt>
      <trkpt lat="-24.7872810" lon="-53.7642060">
        <ele>487.0</ele>
        <time>2018-09-14T17:22:08Z</time>
      </trkpt>
      <trkpt lat="-24.7873030" lon="-53.7642130">
        <ele>487.0</ele>
        <time>2018-09-14T17:22:09Z</time>
      </trkpt>
      <trkpt lat="-24.7873240" lon="-53.7642200">
        <ele>486.9</ele>
        <time>2018-09-14T17:22:10Z</time>
      </trkpt>
      <trkpt lat="-24.7873470" lon="-53.7642260">
        <ele>486.9</ele>
        <time>2018-09-14T17:22:11Z</time>
      </trkpt>
      <trkpt lat="-24.7873670" lon="-53.7642340">
        <ele>486.8</ele>
        <time>2018-09-14T17:22:12Z</time>
      </trkpt>
      <trkpt lat="-24.7873890" lon="-53.7642400">
        <ele>486.6</ele>
        <time>2018-09-14T17:22:13Z</time>
      </trkpt>
      <trkpt lat="-24.7874090" lon="-53.7642460">
        <ele>486.5</ele>
        <time>2018-09-14T17:22:14Z</time>
      </trkpt>
      <trkpt lat="-24.7874300" lon="-53.7642550">
        <ele>486.4</ele>
        <time>2018-09-14T17:22:15Z</time>
      </trkpt>
      <trkpt lat="-24.7874510" lon="-53.7642640">
        <ele>486.4</ele>
        <time>2018-09-14T17:22:16Z</time>
      </trkpt>
      <trkpt lat="-24.7874730" lon="-53.7642710">
        <ele>486.3</ele>
        <time>2018-09-14T17:22:17Z</time>
      </trkpt>
      <trkpt lat="-24.7874940" lon="-53.7642800">
        <ele>486.3</ele>
        <time>2018-09-14T17:22:18Z</time>
      </trkpt>
      <trkpt lat="-24.7875160" lon="-53.7642860">
        <ele>486.3</ele>
        <time>2018-09-14T17:22:19Z</time>
      </trkpt>
      <trkpt lat="-24.7875390" lon="-53.7642920">
        <ele>486.4</ele>
        <time>2018-09-14T17:22:20Z</time>
      </trkpt>
      <trkpt lat="-24.7875600" lon="-53.7643010">
        <ele>486.5</ele>
        <time>2018-09-14T17:22:21Z</time>
      </trkpt>
      <trkpt lat="-24.7875810" lon="-53.7643100">
        <ele>486.6</ele>
        <time>2018-09-14T17:22:22Z</time>
      </trkpt>
      <trkpt lat="-24.7876040" lon="-53.7643170">
        <ele>486.7</ele>
        <time>2018-09-14T17:22:23Z</time>
      </trkpt>
      <trkpt lat="-24.7876250" lon="-53.7643250">
        <ele>486.9</ele>
        <time>2018-09-14T17:22:24Z</time>
      </trkpt>
      <trkpt lat="-24.7876250" lon="-53.7643250">
        <ele>486.9</ele>
        <time>2018-09-14T17:22:25Z</time>
      </trkpt>
      <trkpt lat="-24.7876450" lon="-53.7643340">
        <ele>487.1</ele>
        <time>2018-09-14T17:22:26Z</time>
      </trkpt>
      <trkpt lat="-24.7876650" lon="-53.7643430">
        <ele>487.2</ele>
        <time>2018-09-14T17:22:27Z</time>
      </trkpt>
      <trkpt lat="-24.7877050" lon="-53.7643540">
        <ele>487.6</ele>
        <time>2018-09-14T17:22:28Z</time>
      </trkpt>
      <trkpt lat="-24.7877230" lon="-53.7643620">
        <ele>487.8</ele>
        <time>2018-09-14T17:22:29Z</time>
      </trkpt>
      <trkpt lat="-24.7877230" lon="-53.7643620">
        <ele>487.8</ele>
        <time>2018-09-14T17:22:30Z</time>
      </trkpt>
      <trkpt lat="-24.7877390" lon="-53.7643720">
        <ele>488.0</ele>
        <time>2018-09-14T17:22:31Z</time>
      </trkpt>
      <trkpt lat="-24.7877550" lon="-53.7643810">
        <ele>488.1</ele>
        <time>2018-09-14T17:22:32Z</time>
      </trkpt>
      <trkpt lat="-24.7877720" lon="-53.7643880">
        <ele>488.4</ele>
        <time>2018-09-14T17:22:33Z</time>
      </trkpt>
      <trkpt lat="-24.7877930" lon="-53.7643960">
        <ele>488.9</ele>
        <time>2018-09-14T17:22:34Z</time>
      </trkpt>
      <trkpt lat="-24.7878150" lon="-53.7644030">
        <ele>489.3</ele>
        <time>2018-09-14T17:22:35Z</time>
      </trkpt>
      <trkpt lat="-24.7878360" lon="-53.7644070">
        <ele>489.8</ele>
        <time>2018-09-14T17:22:36Z</time>
      </trkpt>
      <trkpt lat="-24.7878570" lon="-53.7644120">
        <ele>490.3</ele>
        <time>2018-09-14T17:22:37Z</time>
      </trkpt>
      <trkpt lat="-24.7878800" lon="-53.7644170">
        <ele>490.9</ele>
        <time>2018-09-14T17:22:38Z</time>
      </trkpt>
      <trkpt lat="-24.7879030" lon="-53.7644210">
        <ele>491.5</ele>
        <time>2018-09-14T17:22:39Z</time>
      </trkpt>
      <trkpt lat="-24.7879260" lon="-53.7644260">
        <ele>492.1</ele>
        <time>2018-09-14T17:22:40Z</time>
      </trkpt>
      <trkpt lat="-24.7879470" lon="-53.7644300">
        <ele>492.6</ele>
        <time>2018-09-14T17:22:41Z</time>
      </trkpt>
      <trkpt lat="-24.7879690" lon="-53.7644340">
        <ele>493.0</ele>
        <time>2018-09-14T17:22:42Z</time>
      </trkpt>
      <trkpt lat="-24.7879920" lon="-53.7644370">
        <ele>494.2</ele>
        <time>2018-09-14T17:22:43Z</time>
      </trkpt>
      <trkpt lat="-24.7880150" lon="-53.7644410">
        <ele>494.4</ele>
        <time>2018-09-14T17:22:44Z</time>
      </trkpt>
      <trkpt lat="-24.7880380" lon="-53.7644440">
        <ele>494.5</ele>
        <time>2018-09-14T17:22:45Z</time>
      </trkpt>
      <trkpt lat="-24.7880620" lon="-53.7644460">
        <ele>494.7</ele>
        <time>2018-09-14T17:22:46Z</time>
      </trkpt>
      <trkpt lat="-24.7880870" lon="-53.7644480">
        <ele>494.9</ele>
        <time>2018-09-14T17:22:47Z</time>
      </trkpt>
      <trkpt lat="-24.7881120" lon="-53.7644500">
        <ele>495.2</ele>
        <time>2018-09-14T17:22:48Z</time>
      </trkpt>
      <trkpt lat="-24.7881380" lon="-53.7644490">
        <ele>495.4</ele>
        <time>2018-09-14T17:22:49Z</time>
      </trkpt>
      <trkpt lat="-24.7881630" lon="-53.7644480">
        <ele>495.5</ele>
        <time>2018-09-14T17:22:50Z</time>
      </trkpt>
      <trkpt lat="-24.7881880" lon="-53.7644460">
        <ele>495.7</ele>
        <time>2018-09-14T17:22:51Z</time>
      </trkpt>
      <trkpt lat="-24.7882130" lon="-53.7644440">
        <ele>495.8</ele>
        <time>2018-09-14T17:22:52Z</time>
      </trkpt>
      <trkpt lat="-24.7882370" lon="-53.7644410">
        <ele>496.0</ele>
        <time>2018-09-14T17:22:53Z</time>
      </trkpt>
      <trkpt lat="-24.7882600" lon="-53.7644410">
        <ele>496.2</ele>
        <time>2018-09-14T17:22:54Z</time>
      </trkpt>
      <trkpt lat="-24.7882830" lon="-53.7644390">
        <ele>496.5</ele>
        <time>2018-09-14T17:22:55Z</time>
      </trkpt>
      <trkpt lat="-24.7883070" lon="-53.7644320">
        <ele>496.7</ele>
        <time>2018-09-14T17:22:56Z</time>
      </trkpt>
      <trkpt lat="-24.7883300" lon="-53.7644250">
        <ele>497.1</ele>
        <time>2018-09-14T17:22:57Z</time>
      </trkpt>
      <trkpt lat="-24.7883530" lon="-53.7644180">
        <ele>497.5</ele>
        <time>2018-09-14T17:22:58Z</time>
      </trkpt>
      <trkpt lat="-24.7883750" lon="-53.7644110">
        <ele>497.9</ele>
        <time>2018-09-14T17:22:59Z</time>
      </trkpt>
      <trkpt lat="-24.7883970" lon="-53.7644050">
        <ele>498.2</ele>
        <time>2018-09-14T17:23:00Z</time>
      </trkpt>
      <trkpt lat="-24.7884180" lon="-53.7644000">
        <ele>498.4</ele>
        <time>2018-09-14T17:23:01Z</time>
      </trkpt>
      <trkpt lat="-24.7884400" lon="-53.7643930">
        <ele>498.6</ele>
        <time>2018-09-14T17:23:02Z</time>
      </trkpt>
      <trkpt lat="-24.7884630" lon="-53.7643850">
        <ele>498.9</ele>
        <time>2018-09-14T17:23:03Z</time>
      </trkpt>
      <trkpt lat="-24.7884850" lon="-53.7643780">
        <ele>499.2</ele>
        <time>2018-09-14T17:23:04Z</time>
      </trkpt>
      <trkpt lat="-24.7885080" lon="-53.7643700">
        <ele>499.7</ele>
        <time>2018-09-14T17:23:05Z</time>
      </trkpt>
      <trkpt lat="-24.7885310" lon="-53.7643620">
        <ele>500.1</ele>
        <time>2018-09-14T17:23:06Z</time>
      </trkpt>
      <trkpt lat="-24.7885550" lon="-53.7643540">
        <ele>500.6</ele>
        <time>2018-09-14T17:23:07Z</time>
      </trkpt>
      <trkpt lat="-24.7885790" lon="-53.7643450">
        <ele>501.0</ele>
        <time>2018-09-14T17:23:08Z</time>
      </trkpt>
      <trkpt lat="-24.7886030" lon="-53.7643370">
        <ele>501.4</ele>
        <time>2018-09-14T17:23:09Z</time>
      </trkpt>
      <trkpt lat="-24.7886260" lon="-53.7643320">
        <ele>501.8</ele>
        <time>2018-09-14T17:23:10Z</time>
      </trkpt>
      <trkpt lat="-24.7886490" lon="-53.7643260">
        <ele>502.1</ele>
        <time>2018-09-14T17:23:11Z</time>
      </trkpt>
      <trkpt lat="-24.7886740" lon="-53.7643210">
        <ele>502.2</ele>
        <time>2018-09-14T17:23:12Z</time>
      </trkpt>
      <trkpt lat="-24.7886970" lon="-53.7643160">
        <ele>502.3</ele>
        <time>2018-09-14T17:23:13Z</time>
      </trkpt>
      <trkpt lat="-24.7887200" lon="-53.7643090">
        <ele>502.4</ele>
        <time>2018-09-14T17:23:14Z</time>
      </trkpt>
      <trkpt lat="-24.7887420" lon="-53.7643020">
        <ele>502.4</ele>
        <time>2018-09-14T17:23:15Z</time>
      </trkpt>
      <trkpt lat="-24.7887650" lon="-53.7642950">
        <ele>502.4</ele>
        <time>2018-09-14T17:23:16Z</time>
      </trkpt>
      <trkpt lat="-24.7887880" lon="-53.7642860">
        <ele>502.4</ele>
        <time>2018-09-14T17:23:17Z</time>
      </trkpt>
      <trkpt lat="-24.7888080" lon="-53.7642790">
        <ele>502.3</ele>
        <time>2018-09-14T17:23:18Z</time>
      </trkpt>
      <trkpt lat="-24.7888300" lon="-53.7642710">
        <ele>502.4</ele>
        <time>2018-09-14T17:23:19Z</time>
      </trkpt>
      <trkpt lat="-24.7888490" lon="-53.7642650">
        <ele>502.6</ele>
        <time>2018-09-14T17:23:20Z</time>
      </trkpt>
      <trkpt lat="-24.7888690" lon="-53.7642590">
        <ele>502.8</ele>
        <time>2018-09-14T17:23:21Z</time>
      </trkpt>
      <trkpt lat="-24.7888920" lon="-53.7642510">
        <ele>503.0</ele>
        <time>2018-09-14T17:23:22Z</time>
      </trkpt>
      <trkpt lat="-24.7889150" lon="-53.7642450">
        <ele>503.1</ele>
        <time>2018-09-14T17:23:23Z</time>
      </trkpt>
      <trkpt lat="-24.7889390" lon="-53.7642390">
        <ele>503.0</ele>
        <time>2018-09-14T17:23:24Z</time>
      </trkpt>
      <trkpt lat="-24.7889620" lon="-53.7642330">
        <ele>502.9</ele>
        <time>2018-09-14T17:23:25Z</time>
      </trkpt>
      <trkpt lat="-24.7889840" lon="-53.7642270">
        <ele>502.8</ele>
        <time>2018-09-14T17:23:26Z</time>
      </trkpt>
      <trkpt lat="-24.7890050" lon="-53.7642220">
        <ele>502.7</ele>
        <time>2018-09-14T17:23:27Z</time>
      </trkpt>
      <trkpt lat="-24.7890280" lon="-53.7642150">
        <ele>502.6</ele>
        <time>2018-09-14T17:23:28Z</time>
      </trkpt>
      <trkpt lat="-24.7890520" lon="-53.7642070">
        <ele>502.4</ele>
        <time>2018-09-14T17:23:29Z</time>
      </trkpt>
      <trkpt lat="-24.7890740" lon="-53.7641990">
        <ele>502.3</ele>
        <time>2018-09-14T17:23:30Z</time>
      </trkpt>
      <trkpt lat="-24.7890960" lon="-53.7641920">
        <ele>502.5</ele>
        <time>2018-09-14T17:23:31Z</time>
      </trkpt>
      <trkpt lat="-24.7891190" lon="-53.7641840">
        <ele>502.7</ele>
        <time>2018-09-14T17:23:32Z</time>
      </trkpt>
      <trkpt lat="-24.7891420" lon="-53.7641760">
        <ele>502.8</ele>
        <time>2018-09-14T17:23:33Z</time>
      </trkpt>
      <trkpt lat="-24.7891630" lon="-53.7641700">
        <ele>502.9</ele>
        <time>2018-09-14T17:23:34Z</time>
      </trkpt>
      <trkpt lat="-24.7891840" lon="-53.7641630">
        <ele>502.7</ele>
        <time>2018-09-14T17:23:35Z</time>
      </trkpt>
      <trkpt lat="-24.7892060" lon="-53.7641560">
        <ele>502.5</ele>
        <time>2018-09-14T17:23:36Z</time>
      </trkpt>
      <trkpt lat="-24.7892270" lon="-53.7641500">
        <ele>502.2</ele>
        <time>2018-09-14T17:23:37Z</time>
      </trkpt>
      <trkpt lat="-24.7892510" lon="-53.7641450">
        <ele>502.0</ele>
        <time>2018-09-14T17:23:38Z</time>
      </trkpt>
      <trkpt lat="-24.7892750" lon="-53.7641390">
        <ele>501.9</ele>
        <time>2018-09-14T17:23:39Z</time>
      </trkpt>
      <trkpt lat="-24.7893000" lon="-53.7641310">
        <ele>501.8</ele>
        <time>2018-09-14T17:23:40Z</time>
      </trkpt>
      <trkpt lat="-24.7893240" lon="-53.7641250">
        <ele>501.7</ele>
        <time>2018-09-14T17:23:41Z</time>
      </trkpt>
      <trkpt lat="-24.7893470" lon="-53.7641190">
        <ele>502.0</ele>
        <time>2018-09-14T17:23:42Z</time>
      </trkpt>
      <trkpt lat="-24.7893700" lon="-53.7641110">
        <ele>502.4</ele>
        <time>2018-09-14T17:23:43Z</time>
      </trkpt>
      <trkpt lat="-24.7893940" lon="-53.7641050">
        <ele>502.9</ele>
        <time>2018-09-14T17:23:44Z</time>
      </trkpt>
      <trkpt lat="-24.7894160" lon="-53.7640980">
        <ele>503.2</ele>
        <time>2018-09-14T17:23:45Z</time>
      </trkpt>
      <trkpt lat="-24.7894370" lon="-53.7640920">
        <ele>503.3</ele>
        <time>2018-09-14T17:23:46Z</time>
      </trkpt>
      <trkpt lat="-24.7894580" lon="-53.7640850">
        <ele>503.4</ele>
        <time>2018-09-14T17:23:47Z</time>
      </trkpt>
      <trkpt lat="-24.7894810" lon="-53.7640770">
        <ele>503.5</ele>
        <time>2018-09-14T17:23:48Z</time>
      </trkpt>
      <trkpt lat="-24.7895060" lon="-53.7640710">
        <ele>503.6</ele>
        <time>2018-09-14T17:23:49Z</time>
      </trkpt>
      <trkpt lat="-24.7895310" lon="-53.7640630">
        <ele>503.8</ele>
        <time>2018-09-14T17:23:50Z</time>
      </trkpt>
      <trkpt lat="-24.7895550" lon="-53.7640540">
        <ele>503.9</ele>
        <time>2018-09-14T17:23:51Z</time>
      </trkpt>
      <trkpt lat="-24.7895790" lon="-53.7640480">
        <ele>504.0</ele>
        <time>2018-09-14T17:23:52Z</time>
      </trkpt>
      <trkpt lat="-24.7896030" lon="-53.7640410">
        <ele>504.1</ele>
        <time>2018-09-14T17:23:53Z</time>
      </trkpt>
      <trkpt lat="-24.7896260" lon="-53.7640350">
        <ele>504.2</ele>
        <time>2018-09-14T17:23:54Z</time>
      </trkpt>
      <trkpt lat="-24.7896510" lon="-53.7640280">
        <ele>504.4</ele>
        <time>2018-09-14T17:23:55Z</time>
      </trkpt>
      <trkpt lat="-24.7896760" lon="-53.7640200">
        <ele>504.4</ele>
        <time>2018-09-14T17:23:56Z</time>
      </trkpt>
      <trkpt lat="-24.7897010" lon="-53.7640130">
        <ele>504.2</ele>
        <time>2018-09-14T17:23:57Z</time>
      </trkpt>
      <trkpt lat="-24.7897260" lon="-53.7640040">
        <ele>504.0</ele>
        <time>2018-09-14T17:23:58Z</time>
      </trkpt>
      <trkpt lat="-24.7897810" lon="-53.7639870">
        <ele>503.6</ele>
        <time>2018-09-14T17:23:59Z</time>
      </trkpt>
      <trkpt lat="-24.7898100" lon="-53.7639780">
        <ele>503.6</ele>
        <time>2018-09-14T17:24:01Z</time>
      </trkpt>
      <trkpt lat="-24.7898410" lon="-53.7639700">
        <ele>503.5</ele>
        <time>2018-09-14T17:24:02Z</time>
      </trkpt>
      <trkpt lat="-24.7898720" lon="-53.7639610">
        <ele>503.2</ele>
        <time>2018-09-14T17:24:03Z</time>
      </trkpt>
      <trkpt lat="-24.7899010" lon="-53.7639520">
        <ele>503.0</ele>
        <time>2018-09-14T17:24:04Z</time>
      </trkpt>
      <trkpt lat="-24.7899320" lon="-53.7639420">
        <ele>502.7</ele>
        <time>2018-09-14T17:24:05Z</time>
      </trkpt>
      <trkpt lat="-24.7899620" lon="-53.7639320">
        <ele>502.6</ele>
        <time>2018-09-14T17:24:06Z</time>
      </trkpt>
      <trkpt lat="-24.7900270" lon="-53.7639130">
        <ele>502.5</ele>
        <time>2018-09-14T17:24:07Z</time>
      </trkpt>
      <trkpt lat="-24.7900600" lon="-53.7639030">
        <ele>502.6</ele>
        <time>2018-09-14T17:24:08Z</time>
      </trkpt>
      <trkpt lat="-24.7900940" lon="-53.7638910">
        <ele>502.7</ele>
        <time>2018-09-14T17:24:09Z</time>
      </trkpt>
      <trkpt lat="-24.7901290" lon="-53.7638810">
        <ele>502.7</ele>
        <time>2018-09-14T17:24:10Z</time>
      </trkpt>
      <trkpt lat="-24.7901630" lon="-53.7638700">
        <ele>502.7</ele>
        <time>2018-09-14T17:24:11Z</time>
      </trkpt>
      <trkpt lat="-24.7901990" lon="-53.7638590">
        <ele>502.9</ele>
        <time>2018-09-14T17:24:12Z</time>
      </trkpt>
      <trkpt lat="-24.7902360" lon="-53.7638480">
        <ele>503.2</ele>
        <time>2018-09-14T17:24:13Z</time>
      </trkpt>
      <trkpt lat="-24.7902740" lon="-53.7638370">
        <ele>503.5</ele>
        <time>2018-09-14T17:24:14Z</time>
      </trkpt>
      <trkpt lat="-24.7903120" lon="-53.7638270">
        <ele>503.3</ele>
        <time>2018-09-14T17:24:15Z</time>
      </trkpt>
      <trkpt lat="-24.7903510" lon="-53.7638150">
        <ele>503.2</ele>
        <time>2018-09-14T17:24:16Z</time>
      </trkpt>
      <trkpt lat="-24.7903890" lon="-53.7638040">
        <ele>503.1</ele>
        <time>2018-09-14T17:24:17Z</time>
      </trkpt>
      <trkpt lat="-24.7904290" lon="-53.7637950">
        <ele>502.9</ele>
        <time>2018-09-14T17:24:18Z</time>
      </trkpt>
      <trkpt lat="-24.7904720" lon="-53.7637810">
        <ele>503.3</ele>
        <time>2018-09-14T17:24:19Z</time>
      </trkpt>
      <trkpt lat="-24.7905160" lon="-53.7637670">
        <ele>504.0</ele>
        <time>2018-09-14T17:24:20Z</time>
      </trkpt>
      <trkpt lat="-24.7905610" lon="-53.7637520">
        <ele>503.9</ele>
        <time>2018-09-14T17:24:21Z</time>
      </trkpt>
      <trkpt lat="-24.7906090" lon="-53.7637380">
        <ele>503.6</ele>
        <time>2018-09-14T17:24:22Z</time>
      </trkpt>
      <trkpt lat="-24.7906560" lon="-53.7637230">
        <ele>503.6</ele>
        <time>2018-09-14T17:24:23Z</time>
      </trkpt>
      <trkpt lat="-24.7907040" lon="-53.7637060">
        <ele>503.5</ele>
        <time>2018-09-14T17:24:24Z</time>
      </trkpt>
      <trkpt lat="-24.7908020" lon="-53.7636760">
        <ele>502.0</ele>
        <time>2018-09-14T17:24:26Z</time>
      </trkpt>
      <trkpt lat="-24.7908530" lon="-53.7636610">
        <ele>501.1</ele>
        <time>2018-09-14T17:24:27Z</time>
      </trkpt>
      <trkpt lat="-24.7909040" lon="-53.7636470">
        <ele>500.4</ele>
        <time>2018-09-14T17:24:28Z</time>
      </trkpt>
      <trkpt lat="-24.7909570" lon="-53.7636310">
        <ele>499.8</ele>
        <time>2018-09-14T17:24:29Z</time>
      </trkpt>
      <trkpt lat="-24.7910100" lon="-53.7636120">
        <ele>498.9</ele>
        <time>2018-09-14T17:24:30Z</time>
      </trkpt>
      <trkpt lat="-24.7910650" lon="-53.7635930">
        <ele>498.4</ele>
        <time>2018-09-14T17:24:31Z</time>
      </trkpt>
      <trkpt lat="-24.7911210" lon="-53.7635760">
        <ele>498.2</ele>
        <time>2018-09-14T17:24:32Z</time>
      </trkpt>
      <trkpt lat="-24.7911790" lon="-53.7635580">
        <ele>498.0</ele>
        <time>2018-09-14T17:24:33Z</time>
      </trkpt>
      <trkpt lat="-24.7912390" lon="-53.7635420">
        <ele>497.7</ele>
        <time>2018-09-14T17:24:34Z</time>
      </trkpt>
      <trkpt lat="-24.7913010" lon="-53.7635240">
        <ele>497.5</ele>
        <time>2018-09-14T17:24:35Z</time>
      </trkpt>
      <trkpt lat="-24.7913630" lon="-53.7635060">
        <ele>498.0</ele>
        <time>2018-09-14T17:24:36Z</time>
      </trkpt>
      <trkpt lat="-24.7914270" lon="-53.7634890">
        <ele>497.8</ele>
        <time>2018-09-14T17:24:37Z</time>
      </trkpt>
      <trkpt lat="-24.7914910" lon="-53.7634690">
        <ele>497.7</ele>
        <time>2018-09-14T17:24:38Z</time>
      </trkpt>
      <trkpt lat="-24.7915580" lon="-53.7634460">
        <ele>498.0</ele>
        <time>2018-09-14T17:24:39Z</time>
      </trkpt>
      <trkpt lat="-24.7916260" lon="-53.7634230">
        <ele>497.2</ele>
        <time>2018-09-14T17:24:40Z</time>
      </trkpt>
      <trkpt lat="-24.7916950" lon="-53.7634000">
        <ele>497.1</ele>
        <time>2018-09-14T17:24:41Z</time>
      </trkpt>
      <trkpt lat="-24.7917670" lon="-53.7633790">
        <ele>496.3</ele>
        <time>2018-09-14T17:24:42Z</time>
      </trkpt>
      <trkpt lat="-24.7918380" lon="-53.7633620">
        <ele>495.1</ele>
        <time>2018-09-14T17:24:43Z</time>
      </trkpt>
      <trkpt lat="-24.7919110" lon="-53.7633410">
        <ele>493.8</ele>
        <time>2018-09-14T17:24:44Z</time>
      </trkpt>
      <trkpt lat="-24.7919830" lon="-53.7633190">
        <ele>493.4</ele>
        <time>2018-09-14T17:24:45Z</time>
      </trkpt>
      <trkpt lat="-24.7920580" lon="-53.7632940">
        <ele>491.8</ele>
        <time>2018-09-14T17:24:46Z</time>
      </trkpt>
      <trkpt lat="-24.7921320" lon="-53.7632700">
        <ele>491.6</ele>
        <time>2018-09-14T17:24:47Z</time>
      </trkpt>
      <trkpt lat="-24.7922080" lon="-53.7632480">
        <ele>490.8</ele>
        <time>2018-09-14T17:24:48Z</time>
      </trkpt>
      <trkpt lat="-24.7922850" lon="-53.7632240">
        <ele>489.6</ele>
        <time>2018-09-14T17:24:49Z</time>
      </trkpt>
      <trkpt lat="-24.7923580" lon="-53.7632000">
        <ele>488.5</ele>
        <time>2018-09-14T17:24:50Z</time>
      </trkpt>
      <trkpt lat="-24.7924300" lon="-53.7631770">
        <ele>488.0</ele>
        <time>2018-09-14T17:24:51Z</time>
      </trkpt>
      <trkpt lat="-24.7925040" lon="-53.7631540">
        <ele>487.9</ele>
        <time>2018-09-14T17:24:52Z</time>
      </trkpt>
      <trkpt lat="-24.7925810" lon="-53.7631300">
        <ele>486.9</ele>
        <time>2018-09-14T17:24:53Z</time>
      </trkpt>
      <trkpt lat="-24.7926580" lon="-53.7631050">
        <ele>485.4</ele>
        <time>2018-09-14T17:24:54Z</time>
      </trkpt>
      <trkpt lat="-24.7927340" lon="-53.7630790">
        <ele>484.5</ele>
        <time>2018-09-14T17:24:55Z</time>
      </trkpt>
      <trkpt lat="-24.7928100" lon="-53.7630540">
        <ele>484.0</ele>
        <time>2018-09-14T17:24:56Z</time>
      </trkpt>
      <trkpt lat="-24.7928850" lon="-53.7630250">
        <ele>484.0</ele>
        <time>2018-09-14T17:24:57Z</time>
      </trkpt>
      <trkpt lat="-24.7929600" lon="-53.7629930">
        <ele>483.6</ele>
        <time>2018-09-14T17:24:58Z</time>
      </trkpt>
      <trkpt lat="-24.7930340" lon="-53.7629590">
        <ele>482.6</ele>
        <time>2018-09-14T17:24:59Z</time>
      </trkpt>
      <trkpt lat="-24.7931060" lon="-53.7629260">
        <ele>481.6</ele>
        <time>2018-09-14T17:25:00Z</time>
      </trkpt>
      <trkpt lat="-24.7931790" lon="-53.7628940">
        <ele>480.9</ele>
        <time>2018-09-14T17:25:01Z</time>
      </trkpt>
      <trkpt lat="-24.7932510" lon="-53.7628610">
        <ele>480.6</ele>
        <time>2018-09-14T17:25:02Z</time>
      </trkpt>
      <trkpt lat="-24.7933240" lon="-53.7628270">
        <ele>480.4</ele>
        <time>2018-09-14T17:25:03Z</time>
      </trkpt>
      <trkpt lat="-24.7933950" lon="-53.7627920">
        <ele>480.0</ele>
        <time>2018-09-14T17:25:04Z</time>
      </trkpt>
      <trkpt lat="-24.7934650" lon="-53.7627540">
        <ele>479.6</ele>
        <time>2018-09-14T17:25:05Z</time>
      </trkpt>
      <trkpt lat="-24.7935350" lon="-53.7627160">
        <ele>479.5</ele>
        <time>2018-09-14T17:25:06Z</time>
      </trkpt>
      <trkpt lat="-24.7936050" lon="-53.7626790">
        <ele>479.7</ele>
        <time>2018-09-14T17:25:07Z</time>
      </trkpt>
      <trkpt lat="-24.7936710" lon="-53.7626430">
        <ele>479.8</ele>
        <time>2018-09-14T17:25:08Z</time>
      </trkpt>
      <trkpt lat="-24.7937350" lon="-53.7626090">
        <ele>479.7</ele>
        <time>2018-09-14T17:25:09Z</time>
      </trkpt>
      <trkpt lat="-24.7938030" lon="-53.7625740">
        <ele>479.8</ele>
        <time>2018-09-14T17:25:10Z</time>
      </trkpt>
      <trkpt lat="-24.7938720" lon="-53.7625370">
        <ele>479.5</ele>
        <time>2018-09-14T17:25:11Z</time>
      </trkpt>
      <trkpt lat="-24.7939430" lon="-53.7625010">
        <ele>479.2</ele>
        <time>2018-09-14T17:25:12Z</time>
      </trkpt>
      <trkpt lat="-24.7940130" lon="-53.7624640">
        <ele>478.9</ele>
        <time>2018-09-14T17:25:13Z</time>
      </trkpt>
      <trkpt lat="-24.7940830" lon="-53.7624250">
        <ele>478.7</ele>
        <time>2018-09-14T17:25:14Z</time>
      </trkpt>
      <trkpt lat="-24.7941570" lon="-53.7623900">
        <ele>478.6</ele>
        <time>2018-09-14T17:25:15Z</time>
      </trkpt>
      <trkpt lat="-24.7942300" lon="-53.7623530">
        <ele>478.4</ele>
        <time>2018-09-14T17:25:16Z</time>
      </trkpt>
      <trkpt lat="-24.7943050" lon="-53.7623150">
        <ele>478.1</ele>
        <time>2018-09-14T17:25:17Z</time>
      </trkpt>
      <trkpt lat="-24.7943820" lon="-53.7622780">
        <ele>477.6</ele>
        <time>2018-09-14T17:25:18Z</time>
      </trkpt>
      <trkpt lat="-24.7944600" lon="-53.7622400">
        <ele>476.9</ele>
        <time>2018-09-14T17:25:19Z</time>
      </trkpt>
      <trkpt lat="-24.7945390" lon="-53.7622000">
        <ele>476.0</ele>
        <time>2018-09-14T17:25:20Z</time>
      </trkpt>
      <trkpt lat="-24.7946200" lon="-53.7621590">
        <ele>474.8</ele>
        <time>2018-09-14T17:25:21Z</time>
      </trkpt>
      <trkpt lat="-24.7947020" lon="-53.7621170">
        <ele>473.7</ele>
        <time>2018-09-14T17:25:22Z</time>
      </trkpt>
      <trkpt lat="-24.7947850" lon="-53.7620740">
        <ele>472.9</ele>
        <time>2018-09-14T17:25:23Z</time>
      </trkpt>
      <trkpt lat="-24.7948710" lon="-53.7620300">
        <ele>472.2</ele>
        <time>2018-09-14T17:25:24Z</time>
      </trkpt>
      <trkpt lat="-24.7949570" lon="-53.7619870">
        <ele>471.5</ele>
        <time>2018-09-14T17:25:25Z</time>
      </trkpt>
      <trkpt lat="-24.7950430" lon="-53.7619440">
        <ele>471.1</ele>
        <time>2018-09-14T17:25:26Z</time>
      </trkpt>
      <trkpt lat="-24.7951310" lon="-53.7618990">
        <ele>470.9</ele>
        <time>2018-09-14T17:25:27Z</time>
      </trkpt>
      <trkpt lat="-24.7952210" lon="-53.7618520">
        <ele>471.2</ele>
        <time>2018-09-14T17:25:28Z</time>
      </trkpt>
      <trkpt lat="-24.7953120" lon="-53.7618060">
        <ele>471.9</ele>
        <time>2018-09-14T17:25:29Z</time>
      </trkpt>
      <trkpt lat="-24.7954040" lon="-53.7617620">
        <ele>471.8</ele>
        <time>2018-09-14T17:25:30Z</time>
      </trkpt>
      <trkpt lat="-24.7954960" lon="-53.7617190">
        <ele>471.8</ele>
        <time>2018-09-14T17:25:31Z</time>
      </trkpt>
      <trkpt lat="-24.7955890" lon="-53.7616800">
        <ele>472.0</ele>
        <time>2018-09-14T17:25:32Z</time>
      </trkpt>
      <trkpt lat="-24.7956820" lon="-53.7616450">
        <ele>471.9</ele>
        <time>2018-09-14T17:25:33Z</time>
      </trkpt>
      <trkpt lat="-24.7957760" lon="-53.7616170">
        <ele>472.0</ele>
        <time>2018-09-14T17:25:34Z</time>
      </trkpt>
      <trkpt lat="-24.7958690" lon="-53.7616000">
        <ele>472.1</ele>
        <time>2018-09-14T17:25:35Z</time>
      </trkpt>
      <trkpt lat="-24.7959590" lon="-53.7615870">
        <ele>472.1</ele>
        <time>2018-09-14T17:25:36Z</time>
      </trkpt>
      <trkpt lat="-24.7960430" lon="-53.7615760">
        <ele>472.1</ele>
        <time>2018-09-14T17:25:37Z</time>
      </trkpt>
      <trkpt lat="-24.7961270" lon="-53.7615690">
        <ele>471.6</ele>
        <time>2018-09-14T17:25:38Z</time>
      </trkpt>
      <trkpt lat="-24.7962110" lon="-53.7615670">
        <ele>471.5</ele>
        <time>2018-09-14T17:25:39Z</time>
      </trkpt>
      <trkpt lat="-24.7962970" lon="-53.7615710">
        <ele>471.6</ele>
        <time>2018-09-14T17:25:40Z</time>
      </trkpt>
      <trkpt lat="-24.7963810" lon="-53.7615800">
        <ele>471.5</ele>
        <time>2018-09-14T17:25:41Z</time>
      </trkpt>
      <trkpt lat="-24.7964620" lon="-53.7615900">
        <ele>472.0</ele>
        <time>2018-09-14T17:25:42Z</time>
      </trkpt>
      <trkpt lat="-24.7965400" lon="-53.7616030">
        <ele>472.9</ele>
        <time>2018-09-14T17:25:43Z</time>
      </trkpt>
      <trkpt lat="-24.7966160" lon="-53.7616200">
        <ele>473.5</ele>
        <time>2018-09-14T17:25:44Z</time>
      </trkpt>
      <trkpt lat="-24.7966890" lon="-53.7616390">
        <ele>473.7</ele>
        <time>2018-09-14T17:25:45Z</time>
      </trkpt>
      <trkpt lat="-24.7967590" lon="-53.7616560">
        <ele>473.9</ele>
        <time>2018-09-14T17:25:46Z</time>
      </trkpt>
      <trkpt lat="-24.7968290" lon="-53.7616740">
        <ele>474.1</ele>
        <time>2018-09-14T17:25:47Z</time>
      </trkpt>
      <trkpt lat="-24.7968960" lon="-53.7616920">
        <ele>474.3</ele>
        <time>2018-09-14T17:25:48Z</time>
      </trkpt>
      <trkpt lat="-24.7969620" lon="-53.7617100">
        <ele>474.1</ele>
        <time>2018-09-14T17:25:49Z</time>
      </trkpt>
      <trkpt lat="-24.7970260" lon="-53.7617270">
        <ele>473.7</ele>
        <time>2018-09-14T17:25:50Z</time>
      </trkpt>
      <trkpt lat="-24.7970890" lon="-53.7617430">
        <ele>473.3</ele>
        <time>2018-09-14T17:25:51Z</time>
      </trkpt>
      <trkpt lat="-24.7971510" lon="-53.7617620">
        <ele>473.0</ele>
        <time>2018-09-14T17:25:52Z</time>
      </trkpt>
      <trkpt lat="-24.7972110" lon="-53.7617790">
        <ele>473.1</ele>
        <time>2018-09-14T17:25:53Z</time>
      </trkpt>
      <trkpt lat="-24.7972700" lon="-53.7617970">
        <ele>473.2</ele>
        <time>2018-09-14T17:25:54Z</time>
      </trkpt>
      <trkpt lat="-24.7973280" lon="-53.7618140">
        <ele>473.2</ele>
        <time>2018-09-14T17:25:55Z</time>
      </trkpt>
      <trkpt lat="-24.7973830" lon="-53.7618290">
        <ele>473.4</ele>
        <time>2018-09-14T17:25:56Z</time>
      </trkpt>
      <trkpt lat="-24.7974360" lon="-53.7618450">
        <ele>473.6</ele>
        <time>2018-09-14T17:25:57Z</time>
      </trkpt>
      <trkpt lat="-24.7974870" lon="-53.7618610">
        <ele>473.9</ele>
        <time>2018-09-14T17:25:58Z</time>
      </trkpt>
      <trkpt lat="-24.7975370" lon="-53.7618780">
        <ele>474.1</ele>
        <time>2018-09-14T17:25:59Z</time>
      </trkpt>
      <trkpt lat="-24.7975840" lon="-53.7618960">
        <ele>474.4</ele>
        <time>2018-09-14T17:26:00Z</time>
      </trkpt>
      <trkpt lat="-24.7976290" lon="-53.7619130">
        <ele>474.6</ele>
        <time>2018-09-14T17:26:01Z</time>
      </trkpt>
      <trkpt lat="-24.7976730" lon="-53.7619300">
        <ele>474.9</ele>
        <time>2018-09-14T17:26:02Z</time>
      </trkpt>
      <trkpt lat="-24.7977130" lon="-53.7619450">
        <ele>475.3</ele>
        <time>2018-09-14T17:26:03Z</time>
      </trkpt>
      <trkpt lat="-24.7977470" lon="-53.7619590">
        <ele>475.5</ele>
        <time>2018-09-14T17:26:04Z</time>
      </trkpt>
      <trkpt lat="-24.7977760" lon="-53.7619700">
        <ele>475.7</ele>
        <time>2018-09-14T17:26:05Z</time>
      </trkpt>
      <trkpt lat="-24.7978030" lon="-53.7619800">
        <ele>475.9</ele>
        <time>2018-09-14T17:26:06Z</time>
      </trkpt>
      <trkpt lat="-24.7978300" lon="-53.7619910">
        <ele>476.1</ele>
        <time>2018-09-14T17:26:07Z</time>
      </trkpt>
      <trkpt lat="-24.7978630" lon="-53.7620040">
        <ele>476.3</ele>
        <time>2018-09-14T17:26:08Z</time>
      </trkpt>
      <trkpt lat="-24.7978990" lon="-53.7620190">
        <ele>476.7</ele>
        <time>2018-09-14T17:26:09Z</time>
      </trkpt>
      <trkpt lat="-24.7979350" lon="-53.7620350">
        <ele>477.3</ele>
        <time>2018-09-14T17:26:10Z</time>
      </trkpt>
      <trkpt lat="-24.7979700" lon="-53.7620500">
        <ele>477.8</ele>
        <time>2018-09-14T17:26:11Z</time>
      </trkpt>
      <trkpt lat="-24.7980050" lon="-53.7620630">
        <ele>478.5</ele>
        <time>2018-09-14T17:26:12Z</time>
      </trkpt>
      <trkpt lat="-24.7980410" lon="-53.7620750">
        <ele>479.1</ele>
        <time>2018-09-14T17:26:13Z</time>
      </trkpt>
      <trkpt lat="-24.7980780" lon="-53.7620900">
        <ele>479.4</ele>
        <time>2018-09-14T17:26:14Z</time>
      </trkpt>
      <trkpt lat="-24.7981160" lon="-53.7621050">
        <ele>479.8</ele>
        <time>2018-09-14T17:26:15Z</time>
      </trkpt>
      <trkpt lat="-24.7981540" lon="-53.7621200">
        <ele>480.2</ele>
        <time>2018-09-14T17:26:16Z</time>
      </trkpt>
      <trkpt lat="-24.7981920" lon="-53.7621350">
        <ele>480.6</ele>
        <time>2018-09-14T17:26:17Z</time>
      </trkpt>
      <trkpt lat="-24.7982300" lon="-53.7621500">
        <ele>481.1</ele>
        <time>2018-09-14T17:26:18Z</time>
      </trkpt>
      <trkpt lat="-24.7982640" lon="-53.7621660">
        <ele>481.6</ele>
        <time>2018-09-14T17:26:19Z</time>
      </trkpt>
      <trkpt lat="-24.7983000" lon="-53.7621830">
        <ele>482.2</ele>
        <time>2018-09-14T17:26:20Z</time>
      </trkpt>
      <trkpt lat="-24.7983370" lon="-53.7621960">
        <ele>482.9</ele>
        <time>2018-09-14T17:26:21Z</time>
      </trkpt>
      <trkpt lat="-24.7983730" lon="-53.7622100">
        <ele>483.4</ele>
        <time>2018-09-14T17:26:22Z</time>
      </trkpt>
      <trkpt lat="-24.7984070" lon="-53.7622240">
        <ele>483.6</ele>
        <time>2018-09-14T17:26:23Z</time>
      </trkpt>
      <trkpt lat="-24.7984400" lon="-53.7622380">
        <ele>483.8</ele>
        <time>2018-09-14T17:26:24Z</time>
      </trkpt>
      <trkpt lat="-24.7984740" lon="-53.7622540">
        <ele>483.8</ele>
        <time>2018-09-14T17:26:25Z</time>
      </trkpt>
      <trkpt lat="-24.7985090" lon="-53.7622710">
        <ele>483.9</ele>
        <time>2018-09-14T17:26:26Z</time>
      </trkpt>
      <trkpt lat="-24.7985090" lon="-53.7622710">
        <ele>483.9</ele>
        <time>2018-09-14T17:26:27Z</time>
      </trkpt>
      <trkpt lat="-24.7985480" lon="-53.7622830">
        <ele>484.1</ele>
        <time>2018-09-14T17:26:28Z</time>
      </trkpt>
      <trkpt lat="-24.7985870" lon="-53.7622990">
        <ele>484.2</ele>
        <time>2018-09-14T17:26:29Z</time>
      </trkpt>
      <trkpt lat="-24.7986290" lon="-53.7623170">
        <ele>484.5</ele>
        <time>2018-09-14T17:26:30Z</time>
      </trkpt>
      <trkpt lat="-24.7986710" lon="-53.7623330">
        <ele>484.8</ele>
        <time>2018-09-14T17:26:31Z</time>
      </trkpt>
      <trkpt lat="-24.7987120" lon="-53.7623500">
        <ele>485.2</ele>
        <time>2018-09-14T17:26:32Z</time>
      </trkpt>
      <trkpt lat="-24.7987520" lon="-53.7623670">
        <ele>485.6</ele>
        <time>2018-09-14T17:26:33Z</time>
      </trkpt>
      <trkpt lat="-24.7987930" lon="-53.7623840">
        <ele>485.9</ele>
        <time>2018-09-14T17:26:34Z</time>
      </trkpt>
      <trkpt lat="-24.7988380" lon="-53.7624020">
        <ele>486.2</ele>
        <time>2018-09-14T17:26:35Z</time>
      </trkpt>
      <trkpt lat="-24.7988880" lon="-53.7624190">
        <ele>486.3</ele>
        <time>2018-09-14T17:26:36Z</time>
      </trkpt>
      <trkpt lat="-24.7989430" lon="-53.7624400">
        <ele>486.2</ele>
        <time>2018-09-14T17:26:37Z</time>
      </trkpt>
      <trkpt lat="-24.7989930" lon="-53.7624560">
        <ele>486.0</ele>
        <time>2018-09-14T17:26:38Z</time>
      </trkpt>
      <trkpt lat="-24.7990410" lon="-53.7624790">
        <ele>485.5</ele>
        <time>2018-09-14T17:26:39Z</time>
      </trkpt>
      <trkpt lat="-24.7990900" lon="-53.7624980">
        <ele>485.1</ele>
        <time>2018-09-14T17:26:40Z</time>
      </trkpt>
      <trkpt lat="-24.7991350" lon="-53.7625140">
        <ele>484.7</ele>
        <time>2018-09-14T17:26:41Z</time>
      </trkpt>
      <trkpt lat="-24.7991810" lon="-53.7625370">
        <ele>484.7</ele>
        <time>2018-09-14T17:26:42Z</time>
      </trkpt>
      <trkpt lat="-24.7992350" lon="-53.7625640">
        <ele>485.0</ele>
        <time>2018-09-14T17:26:43Z</time>
      </trkpt>
      <trkpt lat="-24.7992880" lon="-53.7625890">
        <ele>485.6</ele>
        <time>2018-09-14T17:26:44Z</time>
      </trkpt>
      <trkpt lat="-24.7993420" lon="-53.7626100">
        <ele>486.3</ele>
        <time>2018-09-14T17:26:45Z</time>
      </trkpt>
      <trkpt lat="-24.7993940" lon="-53.7626370">
        <ele>486.9</ele>
        <time>2018-09-14T17:26:46Z</time>
      </trkpt>
      <trkpt lat="-24.7994460" lon="-53.7626650">
        <ele>487.2</ele>
        <time>2018-09-14T17:26:47Z</time>
      </trkpt>
      <trkpt lat="-24.7994980" lon="-53.7626910">
        <ele>487.4</ele>
        <time>2018-09-14T17:26:48Z</time>
      </trkpt>
      <trkpt lat="-24.7995480" lon="-53.7627190">
        <ele>487.4</ele>
        <time>2018-09-14T17:26:49Z</time>
      </trkpt>
      <trkpt lat="-24.7995970" lon="-53.7627480">
        <ele>487.3</ele>
        <time>2018-09-14T17:26:50Z</time>
      </trkpt>
      <trkpt lat="-24.7996450" lon="-53.7627750">
        <ele>486.9</ele>
        <time>2018-09-14T17:26:51Z</time>
      </trkpt>
      <trkpt lat="-24.7996930" lon="-53.7628040">
        <ele>486.6</ele>
        <time>2018-09-14T17:26:52Z</time>
      </trkpt>
      <trkpt lat="-24.7997390" lon="-53.7628350">
        <ele>486.2</ele>
        <time>2018-09-14T17:26:53Z</time>
      </trkpt>
      <trkpt lat="-24.7997860" lon="-53.7628680">
        <ele>485.5</ele>
        <time>2018-09-14T17:26:54Z</time>
      </trkpt>
      <trkpt lat="-24.7998330" lon="-53.7628990">
        <ele>484.9</ele>
        <time>2018-09-14T17:26:55Z</time>
      </trkpt>
      <trkpt lat="-24.7998790" lon="-53.7629300">
        <ele>484.3</ele>
        <time>2018-09-14T17:26:56Z</time>
      </trkpt>
      <trkpt lat="-24.7999240" lon="-53.7629630">
        <ele>483.6</ele>
        <time>2018-09-14T17:26:57Z</time>
      </trkpt>
      <trkpt lat="-24.7999680" lon="-53.7629990">
        <ele>483.1</ele>
        <time>2018-09-14T17:26:58Z</time>
      </trkpt>
      <trkpt lat="-24.8000120" lon="-53.7630340">
        <ele>482.7</ele>
        <time>2018-09-14T17:26:59Z</time>
      </trkpt>
      <trkpt lat="-24.8000570" lon="-53.7630700">
        <ele>482.5</ele>
        <time>2018-09-14T17:27:00Z</time>
      </trkpt>
      <trkpt lat="-24.8001020" lon="-53.7631060">
        <ele>482.0</ele>
        <time>2018-09-14T17:27:01Z</time>
      </trkpt>
      <trkpt lat="-24.8001460" lon="-53.7631430">
        <ele>481.8</ele>
        <time>2018-09-14T17:27:02Z</time>
      </trkpt>
      <trkpt lat="-24.8001920" lon="-53.7631800">
        <ele>481.7</ele>
        <time>2018-09-14T17:27:03Z</time>
      </trkpt>
      <trkpt lat="-24.8002370" lon="-53.7632170">
        <ele>481.8</ele>
        <time>2018-09-14T17:27:04Z</time>
      </trkpt>
      <trkpt lat="-24.8002810" lon="-53.7632540">
        <ele>481.7</ele>
        <time>2018-09-14T17:27:05Z</time>
      </trkpt>
      <trkpt lat="-24.8003250" lon="-53.7632900">
        <ele>481.7</ele>
        <time>2018-09-14T17:27:06Z</time>
      </trkpt>
      <trkpt lat="-24.8003730" lon="-53.7633280">
        <ele>481.7</ele>
        <time>2018-09-14T17:27:07Z</time>
      </trkpt>
      <trkpt lat="-24.8004230" lon="-53.7633700">
        <ele>481.8</ele>
        <time>2018-09-14T17:27:08Z</time>
      </trkpt>
      <trkpt lat="-24.8004750" lon="-53.7634130">
        <ele>482.0</ele>
        <time>2018-09-14T17:27:09Z</time>
      </trkpt>
      <trkpt lat="-24.8005270" lon="-53.7634580">
        <ele>482.2</ele>
        <time>2018-09-14T17:27:10Z</time>
      </trkpt>
      <trkpt lat="-24.8005800" lon="-53.7635040">
        <ele>482.4</ele>
        <time>2018-09-14T17:27:11Z</time>
      </trkpt>
      <trkpt lat="-24.8006340" lon="-53.7635510">
        <ele>483.0</ele>
        <time>2018-09-14T17:27:12Z</time>
      </trkpt>
      <trkpt lat="-24.8006890" lon="-53.7635950">
        <ele>483.4</ele>
        <time>2018-09-14T17:27:13Z</time>
      </trkpt>
      <trkpt lat="-24.8007440" lon="-53.7636410">
        <ele>483.9</ele>
        <time>2018-09-14T17:27:14Z</time>
      </trkpt>
      <trkpt lat="-24.8008010" lon="-53.7636830">
        <ele>484.3</ele>
        <time>2018-09-14T17:27:15Z</time>
      </trkpt>
      <trkpt lat="-24.8008580" lon="-53.7637240">
        <ele>484.4</ele>
        <time>2018-09-14T17:27:16Z</time>
      </trkpt>
      <trkpt lat="-24.8009140" lon="-53.7637630">
        <ele>484.5</ele>
        <time>2018-09-14T17:27:17Z</time>
      </trkpt>
      <trkpt lat="-24.8009730" lon="-53.7637960">
        <ele>483.9</ele>
        <time>2018-09-14T17:27:18Z</time>
      </trkpt>
      <trkpt lat="-24.8010320" lon="-53.7638240">
        <ele>483.7</ele>
        <time>2018-09-14T17:27:19Z</time>
      </trkpt>
      <trkpt lat="-24.8010920" lon="-53.7638500">
        <ele>483.4</ele>
        <time>2018-09-14T17:27:20Z</time>
      </trkpt>
      <trkpt lat="-24.8011560" lon="-53.7638740">
        <ele>482.6</ele>
        <time>2018-09-14T17:27:21Z</time>
      </trkpt>
      <trkpt lat="-24.8012210" lon="-53.7638940">
        <ele>482.2</ele>
        <time>2018-09-14T17:27:22Z</time>
      </trkpt>
      <trkpt lat="-24.8012860" lon="-53.7639150">
        <ele>480.9</ele>
        <time>2018-09-14T17:27:23Z</time>
      </trkpt>
      <trkpt lat="-24.8013480" lon="-53.7639360">
        <ele>480.6</ele>
        <time>2018-09-14T17:27:24Z</time>
      </trkpt>
      <trkpt lat="-24.8014100" lon="-53.7639540">
        <ele>480.1</ele>
        <time>2018-09-14T17:27:25Z</time>
      </trkpt>
      <trkpt lat="-24.8014750" lon="-53.7639690">
        <ele>479.7</ele>
        <time>2018-09-14T17:27:26Z</time>
      </trkpt>
      <trkpt lat="-24.8015350" lon="-53.7639850">
        <ele>479.4</ele>
        <time>2018-09-14T17:27:27Z</time>
      </trkpt>
      <trkpt lat="-24.8015860" lon="-53.7640000">
        <ele>479.0</ele>
        <time>2018-09-14T17:27:28Z</time>
      </trkpt>
      <trkpt lat="-24.8016490" lon="-53.7640140">
        <ele>478.4</ele>
        <time>2018-09-14T17:27:29Z</time>
      </trkpt>
      <trkpt lat="-24.8017050" lon="-53.7640280">
        <ele>478.0</ele>
        <time>2018-09-14T17:27:30Z</time>
      </trkpt>
      <trkpt lat="-24.8017670" lon="-53.7640400">
        <ele>478.0</ele>
        <time>2018-09-14T17:27:31Z</time>
      </trkpt>
      <trkpt lat="-24.8018230" lon="-53.7640540">
        <ele>477.9</ele>
        <time>2018-09-14T17:27:32Z</time>
      </trkpt>
      <trkpt lat="-24.8018880" lon="-53.7640670">
        <ele>477.9</ele>
        <time>2018-09-14T17:27:33Z</time>
      </trkpt>
      <trkpt lat="-24.8019470" lon="-53.7640780">
        <ele>478.3</ele>
        <time>2018-09-14T17:27:34Z</time>
      </trkpt>
      <trkpt lat="-24.8020060" lon="-53.7640900">
        <ele>478.2</ele>
        <time>2018-09-14T17:27:35Z</time>
      </trkpt>
      <trkpt lat="-24.8020610" lon="-53.7641010">
        <ele>478.2</ele>
        <time>2018-09-14T17:27:36Z</time>
      </trkpt>
      <trkpt lat="-24.8021120" lon="-53.7641130">
        <ele>478.1</ele>
        <time>2018-09-14T17:27:37Z</time>
      </trkpt>
      <trkpt lat="-24.8021630" lon="-53.7641210">
        <ele>478.4</ele>
        <time>2018-09-14T17:27:38Z</time>
      </trkpt>
      <trkpt lat="-24.8022110" lon="-53.7641330">
        <ele>478.6</ele>
        <time>2018-09-14T17:27:39Z</time>
      </trkpt>
      <trkpt lat="-24.8022480" lon="-53.7641460">
        <ele>478.5</ele>
        <time>2018-09-14T17:27:40Z</time>
      </trkpt>
      <trkpt lat="-24.8022870" lon="-53.7641580">
        <ele>478.4</ele>
        <time>2018-09-14T17:27:41Z</time>
      </trkpt>
      <trkpt lat="-24.8023250" lon="-53.7641690">
        <ele>478.5</ele>
        <time>2018-09-14T17:27:42Z</time>
      </trkpt>
      <trkpt lat="-24.8023610" lon="-53.7641760">
        <ele>478.6</ele>
        <time>2018-09-14T17:27:43Z</time>
      </trkpt>
      <trkpt lat="-24.8023980" lon="-53.7641840">
        <ele>478.8</ele>
        <time>2018-09-14T17:27:44Z</time>
      </trkpt>
      <trkpt lat="-24.8024310" lon="-53.7641900">
        <ele>479.0</ele>
        <time>2018-09-14T17:27:45Z</time>
      </trkpt>
      <trkpt lat="-24.8024650" lon="-53.7641960">
        <ele>479.5</ele>
        <time>2018-09-14T17:27:46Z</time>
      </trkpt>
      <trkpt lat="-24.8024940" lon="-53.7642000">
        <ele>480.1</ele>
        <time>2018-09-14T17:27:47Z</time>
      </trkpt>
      <trkpt lat="-24.8025250" lon="-53.7642070">
        <ele>480.7</ele>
        <time>2018-09-14T17:27:48Z</time>
      </trkpt>
      <trkpt lat="-24.8025560" lon="-53.7642120">
        <ele>481.2</ele>
        <time>2018-09-14T17:27:49Z</time>
      </trkpt>
      <trkpt lat="-24.8025840" lon="-53.7642210">
        <ele>481.7</ele>
        <time>2018-09-14T17:27:50Z</time>
      </trkpt>
      <trkpt lat="-24.8026150" lon="-53.7642300">
        <ele>482.2</ele>
        <time>2018-09-14T17:27:51Z</time>
      </trkpt>
      <trkpt lat="-24.8026380" lon="-53.7642400">
        <ele>482.6</ele>
        <time>2018-09-14T17:27:52Z</time>
      </trkpt>
      <trkpt lat="-24.8026660" lon="-53.7642470">
        <ele>483.1</ele>
        <time>2018-09-14T17:27:53Z</time>
      </trkpt>
      <trkpt lat="-24.8027000" lon="-53.7642520">
        <ele>483.7</ele>
        <time>2018-09-14T17:27:54Z</time>
      </trkpt>
      <trkpt lat="-24.8027340" lon="-53.7642590">
        <ele>484.3</ele>
        <time>2018-09-14T17:27:55Z</time>
      </trkpt>
      <trkpt lat="-24.8027680" lon="-53.7642660">
        <ele>485.0</ele>
        <time>2018-09-14T17:27:56Z</time>
      </trkpt>
      <trkpt lat="-24.8027990" lon="-53.7642710">
        <ele>485.8</ele>
        <time>2018-09-14T17:27:57Z</time>
      </trkpt>
      <trkpt lat="-24.8028300" lon="-53.7642750">
        <ele>486.8</ele>
        <time>2018-09-14T17:27:58Z</time>
      </trkpt>
      <trkpt lat="-24.8028940" lon="-53.7642880">
        <ele>488.0</ele>
        <time>2018-09-14T17:27:59Z</time>
      </trkpt>
      <trkpt lat="-24.8029210" lon="-53.7642950">
        <ele>488.2</ele>
        <time>2018-09-14T17:28:01Z</time>
      </trkpt>
      <trkpt lat="-24.8029510" lon="-53.7643020">
        <ele>488.4</ele>
        <time>2018-09-14T17:28:02Z</time>
      </trkpt>
      <trkpt lat="-24.8029800" lon="-53.7643090">
        <ele>488.4</ele>
        <time>2018-09-14T17:28:03Z</time>
      </trkpt>
      <trkpt lat="-24.8030100" lon="-53.7643130">
        <ele>488.5</ele>
        <time>2018-09-14T17:28:04Z</time>
      </trkpt>
      <trkpt lat="-24.8030360" lon="-53.7643180">
        <ele>488.4</ele>
        <time>2018-09-14T17:28:05Z</time>
      </trkpt>
      <trkpt lat="-24.8030660" lon="-53.7643230">
        <ele>488.2</ele>
        <time>2018-09-14T17:28:06Z</time>
      </trkpt>
      <trkpt lat="-24.8030970" lon="-53.7643270">
        <ele>488.1</ele>
        <time>2018-09-14T17:28:07Z</time>
      </trkpt>
      <trkpt lat="-24.8031690" lon="-53.7643360">
        <ele>487.4</ele>
        <time>2018-09-14T17:28:08Z</time>
      </trkpt>
      <trkpt lat="-24.8032050" lon="-53.7643420">
        <ele>487.0</ele>
        <time>2018-09-14T17:28:09Z</time>
      </trkpt>
      <trkpt lat="-24.8032400" lon="-53.7643460">
        <ele>486.4</ele>
        <time>2018-09-14T17:28:10Z</time>
      </trkpt>
      <trkpt lat="-24.8032740" lon="-53.7643500">
        <ele>485.8</ele>
        <time>2018-09-14T17:28:11Z</time>
      </trkpt>
      <trkpt lat="-24.8033090" lon="-53.7643540">
        <ele>485.6</ele>
        <time>2018-09-14T17:28:12Z</time>
      </trkpt>
      <trkpt lat="-24.8033420" lon="-53.7643560">
        <ele>485.7</ele>
        <time>2018-09-14T17:28:13Z</time>
      </trkpt>
      <trkpt lat="-24.8033750" lon="-53.7643560">
        <ele>485.6</ele>
        <time>2018-09-14T17:28:14Z</time>
      </trkpt>
      <trkpt lat="-24.8034070" lon="-53.7643560">
        <ele>485.2</ele>
        <time>2018-09-14T17:28:15Z</time>
      </trkpt>
      <trkpt lat="-24.8034390" lon="-53.7643570">
        <ele>484.7</ele>
        <time>2018-09-14T17:28:16Z</time>
      </trkpt>
      <trkpt lat="-24.8034710" lon="-53.7643570">
        <ele>484.3</ele>
        <time>2018-09-14T17:28:17Z</time>
      </trkpt>
      <trkpt lat="-24.8035020" lon="-53.7643580">
        <ele>484.0</ele>
        <time>2018-09-14T17:28:18Z</time>
      </trkpt>
      <trkpt lat="-24.8035350" lon="-53.7643560">
        <ele>483.6</ele>
        <time>2018-09-14T17:28:19Z</time>
      </trkpt>
      <trkpt lat="-24.8035670" lon="-53.7643540">
        <ele>483.4</ele>
        <time>2018-09-14T17:28:20Z</time>
      </trkpt>
      <trkpt lat="-24.8036290" lon="-53.7643520">
        <ele>483.1</ele>
        <time>2018-09-14T17:28:22Z</time>
      </trkpt>
      <trkpt lat="-24.8036620" lon="-53.7643530">
        <ele>483.2</ele>
        <time>2018-09-14T17:28:23Z</time>
      </trkpt>
      <trkpt lat="-24.8036950" lon="-53.7643530">
        <ele>483.3</ele>
        <time>2018-09-14T17:28:24Z</time>
      </trkpt>
      <trkpt lat="-24.8037260" lon="-53.7643500">
        <ele>483.7</ele>
        <time>2018-09-14T17:28:25Z</time>
      </trkpt>
      <trkpt lat="-24.8037580" lon="-53.7643490">
        <ele>484.3</ele>
        <time>2018-09-14T17:28:26Z</time>
      </trkpt>
      <trkpt lat="-24.8037890" lon="-53.7643510">
        <ele>484.9</ele>
        <time>2018-09-14T17:28:27Z</time>
      </trkpt>
      <trkpt lat="-24.8038230" lon="-53.7643500">
        <ele>485.7</ele>
        <time>2018-09-14T17:28:28Z</time>
      </trkpt>
      <trkpt lat="-24.8038570" lon="-53.7643530">
        <ele>486.5</ele>
        <time>2018-09-14T17:28:29Z</time>
      </trkpt>
      <trkpt lat="-24.8038910" lon="-53.7643540">
        <ele>487.3</ele>
        <time>2018-09-14T17:28:30Z</time>
      </trkpt>
      <trkpt lat="-24.8039240" lon="-53.7643550">
        <ele>487.7</ele>
        <time>2018-09-14T17:28:31Z</time>
      </trkpt>
      <trkpt lat="-24.8039590" lon="-53.7643510">
        <ele>488.2</ele>
        <time>2018-09-14T17:28:32Z</time>
      </trkpt>
      <trkpt lat="-24.8039940" lon="-53.7643510">
        <ele>488.6</ele>
        <time>2018-09-14T17:28:33Z</time>
      </trkpt>
      <trkpt lat="-24.8040280" lon="-53.7643530">
        <ele>489.0</ele>
        <time>2018-09-14T17:28:34Z</time>
      </trkpt>
      <trkpt lat="-24.8040630" lon="-53.7643550">
        <ele>489.3</ele>
        <time>2018-09-14T17:28:35Z</time>
      </trkpt>
      <trkpt lat="-24.8040990" lon="-53.7643570">
        <ele>489.7</ele>
        <time>2018-09-14T17:28:36Z</time>
      </trkpt>
      <trkpt lat="-24.8041330" lon="-53.7643620">
        <ele>490.1</ele>
        <time>2018-09-14T17:28:37Z</time>
      </trkpt>
      <trkpt lat="-24.8041690" lon="-53.7643630">
        <ele>490.6</ele>
        <time>2018-09-14T17:28:38Z</time>
      </trkpt>
      <trkpt lat="-24.8042060" lon="-53.7643620">
        <ele>491.1</ele>
        <time>2018-09-14T17:28:39Z</time>
      </trkpt>
      <trkpt lat="-24.8042420" lon="-53.7643620">
        <ele>491.4</ele>
        <time>2018-09-14T17:28:40Z</time>
      </trkpt>
      <trkpt lat="-24.8042800" lon="-53.7643600">
        <ele>491.5</ele>
        <time>2018-09-14T17:28:41Z</time>
      </trkpt>
      <trkpt lat="-24.8043160" lon="-53.7643580">
        <ele>491.6</ele>
        <time>2018-09-14T17:28:42Z</time>
      </trkpt>
      <trkpt lat="-24.8043540" lon="-53.7643560">
        <ele>491.6</ele>
        <time>2018-09-14T17:28:43Z</time>
      </trkpt>
      <trkpt lat="-24.8043920" lon="-53.7643570">
        <ele>491.5</ele>
        <time>2018-09-14T17:28:44Z</time>
      </trkpt>
      <trkpt lat="-24.8044270" lon="-53.7643580">
        <ele>491.4</ele>
        <time>2018-09-14T17:28:45Z</time>
      </trkpt>
      <trkpt lat="-24.8044600" lon="-53.7643580">
        <ele>491.3</ele>
        <time>2018-09-14T17:28:46Z</time>
      </trkpt>
      <trkpt lat="-24.8044930" lon="-53.7643570">
        <ele>491.1</ele>
        <time>2018-09-14T17:28:47Z</time>
      </trkpt>
      <trkpt lat="-24.8045250" lon="-53.7643570">
        <ele>491.0</ele>
        <time>2018-09-14T17:28:48Z</time>
      </trkpt>
      <trkpt lat="-24.8045580" lon="-53.7643570">
        <ele>490.9</ele>
        <time>2018-09-14T17:28:49Z</time>
      </trkpt>
      <trkpt lat="-24.8045910" lon="-53.7643580">
        <ele>490.6</ele>
        <time>2018-09-14T17:28:50Z</time>
      </trkpt>
      <trkpt lat="-24.8046260" lon="-53.7643570">
        <ele>490.3</ele>
        <time>2018-09-14T17:28:51Z</time>
      </trkpt>
      <trkpt lat="-24.8046610" lon="-53.7643570">
        <ele>490.0</ele>
        <time>2018-09-14T17:28:52Z</time>
      </trkpt>
      <trkpt lat="-24.8046980" lon="-53.7643550">
        <ele>490.0</ele>
        <time>2018-09-14T17:28:53Z</time>
      </trkpt>
      <trkpt lat="-24.8047340" lon="-53.7643540">
        <ele>489.9</ele>
        <time>2018-09-14T17:28:54Z</time>
      </trkpt>
      <trkpt lat="-24.8047700" lon="-53.7643540">
        <ele>489.6</ele>
        <time>2018-09-14T17:28:55Z</time>
      </trkpt>
      <trkpt lat="-24.8048060" lon="-53.7643530">
        <ele>489.4</ele>
        <time>2018-09-14T17:28:56Z</time>
      </trkpt>
      <trkpt lat="-24.8048450" lon="-53.7643520">
        <ele>489.1</ele>
        <time>2018-09-14T17:28:57Z</time>
      </trkpt>
      <trkpt lat="-24.8048830" lon="-53.7643510">
        <ele>488.7</ele>
        <time>2018-09-14T17:28:58Z</time>
      </trkpt>
      <trkpt lat="-24.8049230" lon="-53.7643510">
        <ele>488.5</ele>
        <time>2018-09-14T17:28:59Z</time>
      </trkpt>
      <trkpt lat="-24.8049640" lon="-53.7643510">
        <ele>488.4</ele>
        <time>2018-09-14T17:29:00Z</time>
      </trkpt>
      <trkpt lat="-24.8050060" lon="-53.7643480">
        <ele>488.2</ele>
        <time>2018-09-14T17:29:01Z</time>
      </trkpt>
      <trkpt lat="-24.8050500" lon="-53.7643450">
        <ele>488.2</ele>
        <time>2018-09-14T17:29:02Z</time>
      </trkpt>
      <trkpt lat="-24.8050920" lon="-53.7643420">
        <ele>488.1</ele>
        <time>2018-09-14T17:29:03Z</time>
      </trkpt>
      <trkpt lat="-24.8051340" lon="-53.7643400">
        <ele>487.9</ele>
        <time>2018-09-14T17:29:04Z</time>
      </trkpt>
      <trkpt lat="-24.8051750" lon="-53.7643400">
        <ele>487.8</ele>
        <time>2018-09-14T17:29:05Z</time>
      </trkpt>
      <trkpt lat="-24.8052160" lon="-53.7643400">
        <ele>487.4</ele>
        <time>2018-09-14T17:29:06Z</time>
      </trkpt>
      <trkpt lat="-24.8052570" lon="-53.7643400">
        <ele>487.0</ele>
        <time>2018-09-14T17:29:07Z</time>
      </trkpt>
      <trkpt lat="-24.8052990" lon="-53.7643400">
        <ele>486.7</ele>
        <time>2018-09-14T17:29:08Z</time>
      </trkpt>
      <trkpt lat="-24.8053420" lon="-53.7643380">
        <ele>486.4</ele>
        <time>2018-09-14T17:29:09Z</time>
      </trkpt>
      <trkpt lat="-24.8053860" lon="-53.7643340">
        <ele>486.3</ele>
        <time>2018-09-14T17:29:10Z</time>
      </trkpt>
      <trkpt lat="-24.8054310" lon="-53.7643320">
        <ele>486.2</ele>
        <time>2018-09-14T17:29:11Z</time>
      </trkpt>
      <trkpt lat="-24.8054760" lon="-53.7643300">
        <ele>485.9</ele>
        <time>2018-09-14T17:29:12Z</time>
      </trkpt>
      <trkpt lat="-24.8055220" lon="-53.7643290">
        <ele>485.6</ele>
        <time>2018-09-14T17:29:13Z</time>
      </trkpt>
      <trkpt lat="-24.8055680" lon="-53.7643280">
        <ele>485.9</ele>
        <time>2018-09-14T17:29:14Z</time>
      </trkpt>
      <trkpt lat="-24.8056140" lon="-53.7643290">
        <ele>486.1</ele>
        <time>2018-09-14T17:29:15Z</time>
      </trkpt>
      <trkpt lat="-24.8056600" lon="-53.7643290">
        <ele>486.1</ele>
        <time>2018-09-14T17:29:16Z</time>
      </trkpt>
      <trkpt lat="-24.8057060" lon="-53.7643300">
        <ele>486.5</ele>
        <time>2018-09-14T17:29:17Z</time>
      </trkpt>
      <trkpt lat="-24.8057520" lon="-53.7643320">
        <ele>486.9</ele>
        <time>2018-09-14T17:29:18Z</time>
      </trkpt>
      <trkpt lat="-24.8057970" lon="-53.7643340">
        <ele>487.6</ele>
        <time>2018-09-14T17:29:19Z</time>
      </trkpt>
      <trkpt lat="-24.8058430" lon="-53.7643360">
        <ele>488.3</ele>
        <time>2018-09-14T17:29:20Z</time>
      </trkpt>
      <trkpt lat="-24.8058870" lon="-53.7643390">
        <ele>489.0</ele>
        <time>2018-09-14T17:29:21Z</time>
      </trkpt>
      <trkpt lat="-24.8059310" lon="-53.7643440">
        <ele>489.4</ele>
        <time>2018-09-14T17:29:22Z</time>
      </trkpt>
      <trkpt lat="-24.8059750" lon="-53.7643480">
        <ele>489.6</ele>
        <time>2018-09-14T17:29:23Z</time>
      </trkpt>
      <trkpt lat="-24.8060190" lon="-53.7643530">
        <ele>489.7</ele>
        <time>2018-09-14T17:29:24Z</time>
      </trkpt>
      <trkpt lat="-24.8060640" lon="-53.7643570">
        <ele>489.8</ele>
        <time>2018-09-14T17:29:25Z</time>
      </trkpt>
      <trkpt lat="-24.8061090" lon="-53.7643620">
        <ele>489.7</ele>
        <time>2018-09-14T17:29:26Z</time>
      </trkpt>
      <trkpt lat="-24.8061540" lon="-53.7643690">
        <ele>489.5</ele>
        <time>2018-09-14T17:29:27Z</time>
      </trkpt>
      <trkpt lat="-24.8062000" lon="-53.7643770">
        <ele>489.2</ele>
        <time>2018-09-14T17:29:28Z</time>
      </trkpt>
      <trkpt lat="-24.8062440" lon="-53.7643860">
        <ele>488.9</ele>
        <time>2018-09-14T17:29:29Z</time>
      </trkpt>
      <trkpt lat="-24.8062900" lon="-53.7643940">
        <ele>488.6</ele>
        <time>2018-09-14T17:29:30Z</time>
      </trkpt>
      <trkpt lat="-24.8063370" lon="-53.7644020">
        <ele>488.3</ele>
        <time>2018-09-14T17:29:31Z</time>
      </trkpt>
      <trkpt lat="-24.8063820" lon="-53.7644130">
        <ele>488.2</ele>
        <time>2018-09-14T17:29:32Z</time>
      </trkpt>
      <trkpt lat="-24.8064280" lon="-53.7644240">
        <ele>488.1</ele>
        <time>2018-09-14T17:29:33Z</time>
      </trkpt>
      <trkpt lat="-24.8064730" lon="-53.7644350">
        <ele>488.2</ele>
        <time>2018-09-14T17:29:34Z</time>
      </trkpt>
      <trkpt lat="-24.8065180" lon="-53.7644470">
        <ele>488.2</ele>
        <time>2018-09-14T17:29:35Z</time>
      </trkpt>
      <trkpt lat="-24.8065620" lon="-53.7644600">
        <ele>488.1</ele>
        <time>2018-09-14T17:29:36Z</time>
      </trkpt>
      <trkpt lat="-24.8066050" lon="-53.7644740">
        <ele>488.1</ele>
        <time>2018-09-14T17:29:37Z</time>
      </trkpt>
      <trkpt lat="-24.8066470" lon="-53.7644890">
        <ele>488.1</ele>
        <time>2018-09-14T17:29:38Z</time>
      </trkpt>
      <trkpt lat="-24.8066890" lon="-53.7645050">
        <ele>488.2</ele>
        <time>2018-09-14T17:29:39Z</time>
      </trkpt>
      <trkpt lat="-24.8067290" lon="-53.7645220">
        <ele>488.4</ele>
        <time>2018-09-14T17:29:40Z</time>
      </trkpt>
      <trkpt lat="-24.8067680" lon="-53.7645400">
        <ele>488.7</ele>
        <time>2018-09-14T17:29:41Z</time>
      </trkpt>
      <trkpt lat="-24.8068070" lon="-53.7645580">
        <ele>489.0</ele>
        <time>2018-09-14T17:29:42Z</time>
      </trkpt>
      <trkpt lat="-24.8068450" lon="-53.7645760">
        <ele>489.4</ele>
        <time>2018-09-14T17:29:43Z</time>
      </trkpt>
      <trkpt lat="-24.8068820" lon="-53.7645940">
        <ele>489.6</ele>
        <time>2018-09-14T17:29:44Z</time>
      </trkpt>
      <trkpt lat="-24.8069200" lon="-53.7646120">
        <ele>489.8</ele>
        <time>2018-09-14T17:29:45Z</time>
      </trkpt>
      <trkpt lat="-24.8069570" lon="-53.7646300">
        <ele>489.8</ele>
        <time>2018-09-14T17:29:46Z</time>
      </trkpt>
      <trkpt lat="-24.8069960" lon="-53.7646490">
        <ele>489.8</ele>
        <time>2018-09-14T17:29:47Z</time>
      </trkpt>
      <trkpt lat="-24.8070340" lon="-53.7646650">
        <ele>489.7</ele>
        <time>2018-09-14T17:29:48Z</time>
      </trkpt>
      <trkpt lat="-24.8070680" lon="-53.7646820">
        <ele>489.7</ele>
        <time>2018-09-14T17:29:49Z</time>
      </trkpt>
      <trkpt lat="-24.8071030" lon="-53.7647000">
        <ele>489.7</ele>
        <time>2018-09-14T17:29:50Z</time>
      </trkpt>
      <trkpt lat="-24.8071380" lon="-53.7647190">
        <ele>489.8</ele>
        <time>2018-09-14T17:29:51Z</time>
      </trkpt>
      <trkpt lat="-24.8071740" lon="-53.7647370">
        <ele>489.7</ele>
        <time>2018-09-14T17:29:52Z</time>
      </trkpt>
      <trkpt lat="-24.8072120" lon="-53.7647550">
        <ele>489.6</ele>
        <time>2018-09-14T17:29:53Z</time>
      </trkpt>
      <trkpt lat="-24.8072500" lon="-53.7647720">
        <ele>489.4</ele>
        <time>2018-09-14T17:29:54Z</time>
      </trkpt>
      <trkpt lat="-24.8072890" lon="-53.7647870">
        <ele>489.1</ele>
        <time>2018-09-14T17:29:55Z</time>
      </trkpt>
      <trkpt lat="-24.8073300" lon="-53.7648010">
        <ele>488.7</ele>
        <time>2018-09-14T17:29:56Z</time>
      </trkpt>
      <trkpt lat="-24.8073710" lon="-53.7648100">
        <ele>488.3</ele>
        <time>2018-09-14T17:29:57Z</time>
      </trkpt>
      <trkpt lat="-24.8074150" lon="-53.7648120">
        <ele>488.1</ele>
        <time>2018-09-14T17:29:58Z</time>
      </trkpt>
      <trkpt lat="-24.8074620" lon="-53.7647990">
        <ele>488.0</ele>
        <time>2018-09-14T17:29:59Z</time>
      </trkpt>
      <trkpt lat="-24.8075060" lon="-53.7647690">
        <ele>487.9</ele>
        <time>2018-09-14T17:30:00Z</time>
      </trkpt>
      <trkpt lat="-24.8075450" lon="-53.7647190">
        <ele>487.7</ele>
        <time>2018-09-14T17:30:01Z</time>
      </trkpt>
      <trkpt lat="-24.8075760" lon="-53.7646530">
        <ele>487.2</ele>
        <time>2018-09-14T17:30:02Z</time>
      </trkpt>
      <trkpt lat="-24.8076010" lon="-53.7645740">
        <ele>485.8</ele>
        <time>2018-09-14T17:30:03Z</time>
      </trkpt>
      <trkpt lat="-24.8076170" lon="-53.7644860">
        <ele>484.8</ele>
        <time>2018-09-14T17:30:04Z</time>
      </trkpt>
      <trkpt lat="-24.8076310" lon="-53.7643900">
        <ele>483.9</ele>
        <time>2018-09-14T17:30:05Z</time>
      </trkpt>
      <trkpt lat="-24.8076470" lon="-53.7642910">
        <ele>482.9</ele>
        <time>2018-09-14T17:30:06Z</time>
      </trkpt>
      <trkpt lat="-24.8076640" lon="-53.7641860">
        <ele>481.9</ele>
        <time>2018-09-14T17:30:07Z</time>
      </trkpt>
      <trkpt lat="-24.8076810" lon="-53.7640750">
        <ele>480.3</ele>
        <time>2018-09-14T17:30:08Z</time>
      </trkpt>
      <trkpt lat="-24.8076990" lon="-53.7639590">
        <ele>478.8</ele>
        <time>2018-09-14T17:30:09Z</time>
      </trkpt>
      <trkpt lat="-24.8077210" lon="-53.7638380">
        <ele>478.2</ele>
        <time>2018-09-14T17:30:10Z</time>
      </trkpt>
      <trkpt lat="-24.8077410" lon="-53.7637120">
        <ele>476.9</ele>
        <time>2018-09-14T17:30:11Z</time>
      </trkpt>
      <trkpt lat="-24.8077620" lon="-53.7635790">
        <ele>475.0</ele>
        <time>2018-09-14T17:30:12Z</time>
      </trkpt>
      <trkpt lat="-24.8077890" lon="-53.7634440">
        <ele>473.6</ele>
        <time>2018-09-14T17:30:13Z</time>
      </trkpt>
      <trkpt lat="-24.8078250" lon="-53.7633050">
        <ele>471.0</ele>
        <time>2018-09-14T17:30:14Z</time>
      </trkpt>
      <trkpt lat="-24.8078730" lon="-53.7631670">
        <ele>469.0</ele>
        <time>2018-09-14T17:30:15Z</time>
      </trkpt>
      <trkpt lat="-24.8079360" lon="-53.7630290">
        <ele>468.1</ele>
        <time>2018-09-14T17:30:16Z</time>
      </trkpt>
      <trkpt lat="-24.8080070" lon="-53.7628940">
        <ele>467.9</ele>
        <time>2018-09-14T17:30:17Z</time>
      </trkpt>
      <trkpt lat="-24.8080850" lon="-53.7627620">
        <ele>468.6</ele>
        <time>2018-09-14T17:30:18Z</time>
      </trkpt>
      <trkpt lat="-24.8081570" lon="-53.7626320">
        <ele>468.9</ele>
        <time>2018-09-14T17:30:19Z</time>
      </trkpt>
      <trkpt lat="-24.8082150" lon="-53.7625040">
        <ele>469.6</ele>
        <time>2018-09-14T17:30:20Z</time>
      </trkpt>
      <trkpt lat="-24.8082770" lon="-53.7623860">
        <ele>470.6</ele>
        <time>2018-09-14T17:30:21Z</time>
      </trkpt>
      <trkpt lat="-24.8083530" lon="-53.7622930">
        <ele>472.0</ele>
        <time>2018-09-14T17:30:22Z</time>
      </trkpt>
      <trkpt lat="-24.8084290" lon="-53.7622320">
        <ele>473.8</ele>
        <time>2018-09-14T17:30:23Z</time>
      </trkpt>
      <trkpt lat="-24.8085150" lon="-53.7622080">
        <ele>476.0</ele>
        <time>2018-09-14T17:30:24Z</time>
      </trkpt>
      <trkpt lat="-24.8085900" lon="-53.7622020">
        <ele>478.2</ele>
        <time>2018-09-14T17:30:25Z</time>
      </trkpt>
      <trkpt lat="-24.8086700" lon="-53.7622010">
        <ele>480.0</ele>
        <time>2018-09-14T17:30:26Z</time>
      </trkpt>
      <trkpt lat="-24.8087480" lon="-53.7622000">
        <ele>480.7</ele>
        <time>2018-09-14T17:30:27Z</time>
      </trkpt>
      <trkpt lat="-24.8088250" lon="-53.7621980">
        <ele>481.0</ele>
        <time>2018-09-14T17:30:28Z</time>
      </trkpt>
      <trkpt lat="-24.8088250" lon="-53.7621980">
        <ele>481.0</ele>
        <time>2018-09-14T17:30:29Z</time>
      </trkpt>
      <trkpt lat="-24.8088910" lon="-53.7621960">
        <ele>480.5</ele>
        <time>2018-09-14T17:30:30Z</time>
      </trkpt>
      <trkpt lat="-24.8089700" lon="-53.7621880">
        <ele>479.8</ele>
        <time>2018-09-14T17:30:31Z</time>
      </trkpt>
      <trkpt lat="-24.8090440" lon="-53.7621760">
        <ele>479.2</ele>
        <time>2018-09-14T17:30:32Z</time>
      </trkpt>
      <trkpt lat="-24.8091010" lon="-53.7621580">
        <ele>478.4</ele>
        <time>2018-09-14T17:30:33Z</time>
      </trkpt>
      <trkpt lat="-24.8091790" lon="-53.7621400">
        <ele>477.2</ele>
        <time>2018-09-14T17:30:34Z</time>
      </trkpt>
      <trkpt lat="-24.8092380" lon="-53.7621210">
        <ele>476.8</ele>
        <time>2018-09-14T17:30:35Z</time>
      </trkpt>
      <trkpt lat="-24.8092890" lon="-53.7621060">
        <ele>476.9</ele>
        <time>2018-09-14T17:30:36Z</time>
      </trkpt>
      <trkpt lat="-24.8093410" lon="-53.7620910">
        <ele>477.2</ele>
        <time>2018-09-14T17:30:37Z</time>
      </trkpt>
      <trkpt lat="-24.8093950" lon="-53.7620630">
        <ele>477.7</ele>
        <time>2018-09-14T17:30:38Z</time>
      </trkpt>
      <trkpt lat="-24.8094550" lon="-53.7620340">
        <ele>477.7</ele>
        <time>2018-09-14T17:30:39Z</time>
      </trkpt>
      <trkpt lat="-24.8095080" lon="-53.7620110">
        <ele>477.7</ele>
        <time>2018-09-14T17:30:40Z</time>
      </trkpt>
      <trkpt lat="-24.8095580" lon="-53.7619890">
        <ele>477.9</ele>
        <time>2018-09-14T17:30:41Z</time>
      </trkpt>
      <trkpt lat="-24.8096120" lon="-53.7619700">
        <ele>477.9</ele>
        <time>2018-09-14T17:30:42Z</time>
      </trkpt>
      <trkpt lat="-24.8096760" lon="-53.7619510">
        <ele>477.5</ele>
        <time>2018-09-14T17:30:43Z</time>
      </trkpt>
      <trkpt lat="-24.8097330" lon="-53.7619320">
        <ele>476.8</ele>
        <time>2018-09-14T17:30:44Z</time>
      </trkpt>
      <trkpt lat="-24.8097860" lon="-53.7619140">
        <ele>476.5</ele>
        <time>2018-09-14T17:30:45Z</time>
      </trkpt>
      <trkpt lat="-24.8098420" lon="-53.7618950">
        <ele>475.9</ele>
        <time>2018-09-14T17:30:46Z</time>
      </trkpt>
      <trkpt lat="-24.8098960" lon="-53.7618720">
        <ele>475.1</ele>
        <time>2018-09-14T17:30:47Z</time>
      </trkpt>
      <trkpt lat="-24.8099430" lon="-53.7618500">
        <ele>474.5</ele>
        <time>2018-09-14T17:30:48Z</time>
      </trkpt>
      <trkpt lat="-24.8099940" lon="-53.7618290">
        <ele>473.4</ele>
        <time>2018-09-14T17:30:49Z</time>
      </trkpt>
      <trkpt lat="-24.8100530" lon="-53.7618090">
        <ele>472.4</ele>
        <time>2018-09-14T17:30:50Z</time>
      </trkpt>
      <trkpt lat="-24.8101090" lon="-53.7617890">
        <ele>471.7</ele>
        <time>2018-09-14T17:30:51Z</time>
      </trkpt>
      <trkpt lat="-24.8101690" lon="-53.7617710">
        <ele>470.9</ele>
        <time>2018-09-14T17:30:52Z</time>
      </trkpt>
      <trkpt lat="-24.8102390" lon="-53.7617570">
        <ele>471.0</ele>
        <time>2018-09-14T17:30:53Z</time>
      </trkpt>
      <trkpt lat="-24.8103070" lon="-53.7617430">
        <ele>470.8</ele>
        <time>2018-09-14T17:30:54Z</time>
      </trkpt>
      <trkpt lat="-24.8103860" lon="-53.7617310">
        <ele>470.7</ele>
        <time>2018-09-14T17:30:55Z</time>
      </trkpt>
      <trkpt lat="-24.8104660" lon="-53.7617210">
        <ele>470.8</ele>
        <time>2018-09-14T17:30:56Z</time>
      </trkpt>
      <trkpt lat="-24.8105480" lon="-53.7617120">
        <ele>470.8</ele>
        <time>2018-09-14T17:30:57Z</time>
      </trkpt>
      <trkpt lat="-24.8106290" lon="-53.7617050">
        <ele>471.0</ele>
        <time>2018-09-14T17:30:58Z</time>
      </trkpt>
      <trkpt lat="-24.8107160" lon="-53.7617030">
        <ele>471.3</ele>
        <time>2018-09-14T17:30:59Z</time>
      </trkpt>
      <trkpt lat="-24.8107980" lon="-53.7617090">
        <ele>471.6</ele>
        <time>2018-09-14T17:31:00Z</time>
      </trkpt>
      <trkpt lat="-24.8108820" lon="-53.7617240">
        <ele>472.3</ele>
        <time>2018-09-14T17:31:01Z</time>
      </trkpt>
      <trkpt lat="-24.8109690" lon="-53.7617460">
        <ele>472.6</ele>
        <time>2018-09-14T17:31:02Z</time>
      </trkpt>
      <trkpt lat="-24.8110540" lon="-53.7617710">
        <ele>473.4</ele>
        <time>2018-09-14T17:31:03Z</time>
      </trkpt>
      <trkpt lat="-24.8111380" lon="-53.7617940">
        <ele>474.1</ele>
        <time>2018-09-14T17:31:04Z</time>
      </trkpt>
      <trkpt lat="-24.8112150" lon="-53.7618170">
        <ele>474.9</ele>
        <time>2018-09-14T17:31:05Z</time>
      </trkpt>
      <trkpt lat="-24.8112850" lon="-53.7618350">
        <ele>475.0</ele>
        <time>2018-09-14T17:31:06Z</time>
      </trkpt>
      <trkpt lat="-24.8113510" lon="-53.7618510">
        <ele>474.9</ele>
        <time>2018-09-14T17:31:07Z</time>
      </trkpt>
      <trkpt lat="-24.8114070" lon="-53.7618660">
        <ele>474.9</ele>
        <time>2018-09-14T17:31:08Z</time>
      </trkpt>
      <trkpt lat="-24.8114560" lon="-53.7618790">
        <ele>475.1</ele>
        <time>2018-09-14T17:31:09Z</time>
      </trkpt>
      <trkpt lat="-24.8114950" lon="-53.7618910">
        <ele>475.5</ele>
        <time>2018-09-14T17:31:10Z</time>
      </trkpt>
      <trkpt lat="-24.8115280" lon="-53.7618990">
        <ele>476.0</ele>
        <time>2018-09-14T17:31:11Z</time>
      </trkpt>
      <trkpt lat="-24.8115540" lon="-53.7619040">
        <ele>476.4</ele>
        <time>2018-09-14T17:31:12Z</time>
      </trkpt>
      <trkpt lat="-24.8115760" lon="-53.7619070">
        <ele>476.7</ele>
        <time>2018-09-14T17:31:13Z</time>
      </trkpt>
      <trkpt lat="-24.8115980" lon="-53.7619130">
        <ele>477.1</ele>
        <time>2018-09-14T17:31:14Z</time>
      </trkpt>
      <trkpt lat="-24.8116160" lon="-53.7619190">
        <ele>477.4</ele>
        <time>2018-09-14T17:31:15Z</time>
      </trkpt>
      <trkpt lat="-24.8116350" lon="-53.7619250">
        <ele>477.7</ele>
        <time>2018-09-14T17:31:16Z</time>
      </trkpt>
      <trkpt lat="-24.8116530" lon="-53.7619300">
        <ele>477.7</ele>
        <time>2018-09-14T17:31:17Z</time>
      </trkpt>
      <trkpt lat="-24.8116720" lon="-53.7619330">
        <ele>477.8</ele>
        <time>2018-09-14T17:31:18Z</time>
      </trkpt>
      <trkpt lat="-24.8116900" lon="-53.7619360">
        <ele>477.9</ele>
        <time>2018-09-14T17:31:19Z</time>
      </trkpt>
      <trkpt lat="-24.8117080" lon="-53.7619400">
        <ele>478.0</ele>
        <time>2018-09-14T17:31:20Z</time>
      </trkpt>
      <trkpt lat="-24.8117250" lon="-53.7619430">
        <ele>478.2</ele>
        <time>2018-09-14T17:31:21Z</time>
      </trkpt>
      <trkpt lat="-24.8117420" lon="-53.7619470">
        <ele>478.4</ele>
        <time>2018-09-14T17:31:22Z</time>
      </trkpt>
      <trkpt lat="-24.8117570" lon="-53.7619520">
        <ele>478.6</ele>
        <time>2018-09-14T17:31:23Z</time>
      </trkpt>
      <trkpt lat="-24.8117730" lon="-53.7619560">
        <ele>478.8</ele>
        <time>2018-09-14T17:31:24Z</time>
      </trkpt>
      <trkpt lat="-24.8117900" lon="-53.7619610">
        <ele>479.0</ele>
        <time>2018-09-14T17:31:25Z</time>
      </trkpt>
      <trkpt lat="-24.8118070" lon="-53.7619650">
        <ele>479.3</ele>
        <time>2018-09-14T17:31:26Z</time>
      </trkpt>
      <trkpt lat="-24.8118260" lon="-53.7619680">
        <ele>479.7</ele>
        <time>2018-09-14T17:31:27Z</time>
      </trkpt>
      <trkpt lat="-24.8118450" lon="-53.7619710">
        <ele>480.1</ele>
        <time>2018-09-14T17:31:28Z</time>
      </trkpt>
      <trkpt lat="-24.8118640" lon="-53.7619740">
        <ele>480.4</ele>
        <time>2018-09-14T17:31:29Z</time>
      </trkpt>
      <trkpt lat="-24.8118820" lon="-53.7619770">
        <ele>480.6</ele>
        <time>2018-09-14T17:31:30Z</time>
      </trkpt>
      <trkpt lat="-24.8119000" lon="-53.7619780">
        <ele>480.9</ele>
        <time>2018-09-14T17:31:31Z</time>
      </trkpt>
      <trkpt lat="-24.8119180" lon="-53.7619800">
        <ele>481.1</ele>
        <time>2018-09-14T17:31:32Z</time>
      </trkpt>
      <trkpt lat="-24.8119360" lon="-53.7619800">
        <ele>481.3</ele>
        <time>2018-09-14T17:31:33Z</time>
      </trkpt>
      <trkpt lat="-24.8119520" lon="-53.7619800">
        <ele>481.5</ele>
        <time>2018-09-14T17:31:34Z</time>
      </trkpt>
      <trkpt lat="-24.8119680" lon="-53.7619820">
        <ele>481.7</ele>
        <time>2018-09-14T17:31:35Z</time>
      </trkpt>
      <trkpt lat="-24.8119840" lon="-53.7619840">
        <ele>482.0</ele>
        <time>2018-09-14T17:31:36Z</time>
      </trkpt>
      <trkpt lat="-24.8120010" lon="-53.7619880">
        <ele>482.2</ele>
        <time>2018-09-14T17:31:37Z</time>
      </trkpt>
      <trkpt lat="-24.8120180" lon="-53.7619910">
        <ele>482.4</ele>
        <time>2018-09-14T17:31:38Z</time>
      </trkpt>
      <trkpt lat="-24.8120360" lon="-53.7619930">
        <ele>482.7</ele>
        <time>2018-09-14T17:31:39Z</time>
      </trkpt>
      <trkpt lat="-24.8120540" lon="-53.7619950">
        <ele>483.0</ele>
        <time>2018-09-14T17:31:40Z</time>
      </trkpt>
      <trkpt lat="-24.8120720" lon="-53.7619950">
        <ele>483.2</ele>
        <time>2018-09-14T17:31:41Z</time>
      </trkpt>
      <trkpt lat="-24.8120890" lon="-53.7619940">
        <ele>483.5</ele>
        <time>2018-09-14T17:31:42Z</time>
      </trkpt>
      <trkpt lat="-24.8121060" lon="-53.7619930">
        <ele>483.8</ele>
        <time>2018-09-14T17:31:43Z</time>
      </trkpt>
      <trkpt lat="-24.8121240" lon="-53.7619920">
        <ele>484.1</ele>
        <time>2018-09-14T17:31:44Z</time>
      </trkpt>
      <trkpt lat="-24.8121420" lon="-53.7619900">
        <ele>484.5</ele>
        <time>2018-09-14T17:31:45Z</time>
      </trkpt>
      <trkpt lat="-24.8121610" lon="-53.7619920">
        <ele>484.9</ele>
        <time>2018-09-14T17:31:46Z</time>
      </trkpt>
      <trkpt lat="-24.8121780" lon="-53.7619930">
        <ele>485.2</ele>
        <time>2018-09-14T17:31:47Z</time>
      </trkpt>
      <trkpt lat="-24.8121970" lon="-53.7619950">
        <ele>485.6</ele>
        <time>2018-09-14T17:31:48Z</time>
      </trkpt>
      <trkpt lat="-24.8122160" lon="-53.7619960">
        <ele>486.0</ele>
        <time>2018-09-14T17:31:49Z</time>
      </trkpt>
      <trkpt lat="-24.8122320" lon="-53.7619960">
        <ele>486.3</ele>
        <time>2018-09-14T17:31:50Z</time>
      </trkpt>
      <trkpt lat="-24.8122500" lon="-53.7619950">
        <ele>486.6</ele>
        <time>2018-09-14T17:31:51Z</time>
      </trkpt>
      <trkpt lat="-24.8122680" lon="-53.7619960">
        <ele>487.0</ele>
        <time>2018-09-14T17:31:52Z</time>
      </trkpt>
      <trkpt lat="-24.8122840" lon="-53.7619970">
        <ele>487.3</ele>
        <time>2018-09-14T17:31:53Z</time>
      </trkpt>
      <trkpt lat="-24.8123000" lon="-53.7619970">
        <ele>487.6</ele>
        <time>2018-09-14T17:31:54Z</time>
      </trkpt>
      <trkpt lat="-24.8123150" lon="-53.7619960">
        <ele>487.9</ele>
        <time>2018-09-14T17:31:55Z</time>
      </trkpt>
      <trkpt lat="-24.8123300" lon="-53.7619950">
        <ele>488.2</ele>
        <time>2018-09-14T17:31:56Z</time>
      </trkpt>
      <trkpt lat="-24.8123450" lon="-53.7619950">
        <ele>488.4</ele>
        <time>2018-09-14T17:31:57Z</time>
      </trkpt>
      <trkpt lat="-24.8123620" lon="-53.7619940">
        <ele>488.5</ele>
        <time>2018-09-14T17:31:58Z</time>
      </trkpt>
      <trkpt lat="-24.8123950" lon="-53.7619920">
        <ele>488.7</ele>
        <time>2018-09-14T17:31:59Z</time>
      </trkpt>
      <trkpt lat="-24.8124130" lon="-53.7619930">
        <ele>488.8</ele>
        <time>2018-09-14T17:32:01Z</time>
      </trkpt>
      <trkpt lat="-24.8124320" lon="-53.7619910">
        <ele>488.8</ele>
        <time>2018-09-14T17:32:02Z</time>
      </trkpt>
      <trkpt lat="-24.8124520" lon="-53.7619910">
        <ele>488.7</ele>
        <time>2018-09-14T17:32:03Z</time>
      </trkpt>
      <trkpt lat="-24.8124700" lon="-53.7619910">
        <ele>488.6</ele>
        <time>2018-09-14T17:32:04Z</time>
      </trkpt>
      <trkpt lat="-24.8124890" lon="-53.7619910">
        <ele>488.5</ele>
        <time>2018-09-14T17:32:05Z</time>
      </trkpt>
      <trkpt lat="-24.8125060" lon="-53.7619890">
        <ele>488.4</ele>
        <time>2018-09-14T17:32:06Z</time>
      </trkpt>
      <trkpt lat="-24.8125230" lon="-53.7619880">
        <ele>488.4</ele>
        <time>2018-09-14T17:32:07Z</time>
      </trkpt>
      <trkpt lat="-24.8125410" lon="-53.7619870">
        <ele>488.5</ele>
        <time>2018-09-14T17:32:08Z</time>
      </trkpt>
      <trkpt lat="-24.8125760" lon="-53.7619840">
        <ele>488.5</ele>
        <time>2018-09-14T17:32:09Z</time>
      </trkpt>
      <trkpt lat="-24.8125940" lon="-53.7619800">
        <ele>488.6</ele>
        <time>2018-09-14T17:32:10Z</time>
      </trkpt>
      <trkpt lat="-24.8126120" lon="-53.7619780">
        <ele>488.7</ele>
        <time>2018-09-14T17:32:11Z</time>
      </trkpt>
      <trkpt lat="-24.8126280" lon="-53.7619780">
        <ele>488.7</ele>
        <time>2018-09-14T17:32:12Z</time>
      </trkpt>
      <trkpt lat="-24.8126440" lon="-53.7619770">
        <ele>488.8</ele>
        <time>2018-09-14T17:32:13Z</time>
      </trkpt>
      <trkpt lat="-24.8126610" lon="-53.7619760">
        <ele>488.9</ele>
        <time>2018-09-14T17:32:14Z</time>
      </trkpt>
      <trkpt lat="-24.8126790" lon="-53.7619720">
        <ele>488.9</ele>
        <time>2018-09-14T17:32:15Z</time>
      </trkpt>
      <trkpt lat="-24.8127160" lon="-53.7619660">
        <ele>489.0</ele>
        <time>2018-09-14T17:32:17Z</time>
      </trkpt>
      <trkpt lat="-24.8127350" lon="-53.7619620">
        <ele>489.0</ele>
        <time>2018-09-14T17:32:18Z</time>
      </trkpt>
      <trkpt lat="-24.8127530" lon="-53.7619600">
        <ele>489.0</ele>
        <time>2018-09-14T17:32:19Z</time>
      </trkpt>
      <trkpt lat="-24.8127720" lon="-53.7619550">
        <ele>489.0</ele>
        <time>2018-09-14T17:32:20Z</time>
      </trkpt>
      <trkpt lat="-24.8127920" lon="-53.7619500">
        <ele>489.0</ele>
        <time>2018-09-14T17:32:21Z</time>
      </trkpt>
      <trkpt lat="-24.8128120" lon="-53.7619450">
        <ele>489.1</ele>
        <time>2018-09-14T17:32:22Z</time>
      </trkpt>
      <trkpt lat="-24.8128310" lon="-53.7619420">
        <ele>489.1</ele>
        <time>2018-09-14T17:32:23Z</time>
      </trkpt>
      <trkpt lat="-24.8128520" lon="-53.7619380">
        <ele>489.2</ele>
        <time>2018-09-14T17:32:24Z</time>
      </trkpt>
      <trkpt lat="-24.8128720" lon="-53.7619350">
        <ele>489.3</ele>
        <time>2018-09-14T17:32:25Z</time>
      </trkpt>
      <trkpt lat="-24.8128920" lon="-53.7619300">
        <ele>489.3</ele>
        <time>2018-09-14T17:32:26Z</time>
      </trkpt>
      <trkpt lat="-24.8129120" lon="-53.7619250">
        <ele>489.4</ele>
        <time>2018-09-14T17:32:27Z</time>
      </trkpt>
      <trkpt lat="-24.8129310" lon="-53.7619190">
        <ele>489.5</ele>
        <time>2018-09-14T17:32:28Z</time>
      </trkpt>
      <trkpt lat="-24.8129500" lon="-53.7619130">
        <ele>489.6</ele>
        <time>2018-09-14T17:32:29Z</time>
      </trkpt>
      <trkpt lat="-24.8129690" lon="-53.7619070">
        <ele>489.8</ele>
        <time>2018-09-14T17:32:30Z</time>
      </trkpt>
      <trkpt lat="-24.8129880" lon="-53.7619030">
        <ele>489.9</ele>
        <time>2018-09-14T17:32:31Z</time>
      </trkpt>
      <trkpt lat="-24.8130060" lon="-53.7618980">
        <ele>490.0</ele>
        <time>2018-09-14T17:32:32Z</time>
      </trkpt>
      <trkpt lat="-24.8130230" lon="-53.7618910">
        <ele>490.1</ele>
        <time>2018-09-14T17:32:33Z</time>
      </trkpt>
      <trkpt lat="-24.8130420" lon="-53.7618850">
        <ele>490.3</ele>
        <time>2018-09-14T17:32:34Z</time>
      </trkpt>
      <trkpt lat="-24.8130610" lon="-53.7618820">
        <ele>490.4</ele>
        <time>2018-09-14T17:32:35Z</time>
      </trkpt>
      <trkpt lat="-24.8130800" lon="-53.7618780">
        <ele>490.5</ele>
        <time>2018-09-14T17:32:36Z</time>
      </trkpt>
      <trkpt lat="-24.8130990" lon="-53.7618720">
        <ele>490.7</ele>
        <time>2018-09-14T17:32:37Z</time>
      </trkpt>
      <trkpt lat="-24.8131170" lon="-53.7618690">
        <ele>490.8</ele>
        <time>2018-09-14T17:32:38Z</time>
      </trkpt>
      <trkpt lat="-24.8131340" lon="-53.7618660">
        <ele>490.9</ele>
        <time>2018-09-14T17:32:39Z</time>
      </trkpt>
      <trkpt lat="-24.8131520" lon="-53.7618620">
        <ele>491.0</ele>
        <time>2018-09-14T17:32:40Z</time>
      </trkpt>
      <trkpt lat="-24.8131680" lon="-53.7618590">
        <ele>491.1</ele>
        <time>2018-09-14T17:32:41Z</time>
      </trkpt>
      <trkpt lat="-24.8131850" lon="-53.7618580">
        <ele>491.2</ele>
        <time>2018-09-14T17:32:42Z</time>
      </trkpt>
      <trkpt lat="-24.8132020" lon="-53.7618550">
        <ele>491.2</ele>
        <time>2018-09-14T17:32:43Z</time>
      </trkpt>
      <trkpt lat="-24.8132170" lon="-53.7618500">
        <ele>491.3</ele>
        <time>2018-09-14T17:32:44Z</time>
      </trkpt>
      <trkpt lat="-24.8132340" lon="-53.7618460">
        <ele>491.3</ele>
        <time>2018-09-14T17:32:45Z</time>
      </trkpt>
      <trkpt lat="-24.8132510" lon="-53.7618430">
        <ele>491.4</ele>
        <time>2018-09-14T17:32:46Z</time>
      </trkpt>
      <trkpt lat="-24.8132680" lon="-53.7618390">
        <ele>491.5</ele>
        <time>2018-09-14T17:32:47Z</time>
      </trkpt>
      <trkpt lat="-24.8132850" lon="-53.7618350">
        <ele>491.6</ele>
        <time>2018-09-14T17:32:48Z</time>
      </trkpt>
      <trkpt lat="-24.8133020" lon="-53.7618300">
        <ele>491.7</ele>
        <time>2018-09-14T17:32:49Z</time>
      </trkpt>
      <trkpt lat="-24.8133200" lon="-53.7618260">
        <ele>491.9</ele>
        <time>2018-09-14T17:32:50Z</time>
      </trkpt>
      <trkpt lat="-24.8133380" lon="-53.7618220">
        <ele>492.0</ele>
        <time>2018-09-14T17:32:51Z</time>
      </trkpt>
      <trkpt lat="-24.8133560" lon="-53.7618180">
        <ele>492.2</ele>
        <time>2018-09-14T17:32:52Z</time>
      </trkpt>
      <trkpt lat="-24.8133750" lon="-53.7618140">
        <ele>492.5</ele>
        <time>2018-09-14T17:32:53Z</time>
      </trkpt>
      <trkpt lat="-24.8133930" lon="-53.7618110">
        <ele>492.7</ele>
        <time>2018-09-14T17:32:54Z</time>
      </trkpt>
      <trkpt lat="-24.8134260" lon="-53.7618020">
        <ele>493.1</ele>
        <time>2018-09-14T17:32:56Z</time>
      </trkpt>
      <trkpt lat="-24.8134430" lon="-53.7618000">
        <ele>493.3</ele>
        <time>2018-09-14T17:32:57Z</time>
      </trkpt>
      <trkpt lat="-24.8134600" lon="-53.7617970">
        <ele>493.5</ele>
        <time>2018-09-14T17:32:58Z</time>
      </trkpt>
      <trkpt lat="-24.8134750" lon="-53.7617930">
        <ele>493.6</ele>
        <time>2018-09-14T17:32:59Z</time>
      </trkpt>
      <trkpt lat="-24.8134910" lon="-53.7617900">
        <ele>493.8</ele>
        <time>2018-09-14T17:33:00Z</time>
      </trkpt>
      <trkpt lat="-24.8135090" lon="-53.7617850">
        <ele>494.0</ele>
        <time>2018-09-14T17:33:01Z</time>
      </trkpt>
      <trkpt lat="-24.8135270" lon="-53.7617820">
        <ele>494.2</ele>
        <time>2018-09-14T17:33:02Z</time>
      </trkpt>
      <trkpt lat="-24.8135450" lon="-53.7617790">
        <ele>494.4</ele>
        <time>2018-09-14T17:33:03Z</time>
      </trkpt>
      <trkpt lat="-24.8135620" lon="-53.7617760">
        <ele>494.6</ele>
        <time>2018-09-14T17:33:04Z</time>
      </trkpt>
      <trkpt lat="-24.8135790" lon="-53.7617710">
        <ele>494.8</ele>
        <time>2018-09-14T17:33:05Z</time>
      </trkpt>
      <trkpt lat="-24.8135950" lon="-53.7617650">
        <ele>495.0</ele>
        <time>2018-09-14T17:33:06Z</time>
      </trkpt>
      <trkpt lat="-24.8136120" lon="-53.7617600">
        <ele>495.2</ele>
        <time>2018-09-14T17:33:07Z</time>
      </trkpt>
      <trkpt lat="-24.8136290" lon="-53.7617570">
        <ele>495.4</ele>
        <time>2018-09-14T17:33:08Z</time>
      </trkpt>
      <trkpt lat="-24.8136460" lon="-53.7617520">
        <ele>495.6</ele>
        <time>2018-09-14T17:33:09Z</time>
      </trkpt>
      <trkpt lat="-24.8136630" lon="-53.7617460">
        <ele>495.9</ele>
        <time>2018-09-14T17:33:10Z</time>
      </trkpt>
      <trkpt lat="-24.8136790" lon="-53.7617420">
        <ele>496.1</ele>
        <time>2018-09-14T17:33:11Z</time>
      </trkpt>
      <trkpt lat="-24.8136940" lon="-53.7617370">
        <ele>496.3</ele>
        <time>2018-09-14T17:33:12Z</time>
      </trkpt>
      <trkpt lat="-24.8137100" lon="-53.7617330">
        <ele>496.6</ele>
        <time>2018-09-14T17:33:13Z</time>
      </trkpt>
      <trkpt lat="-24.8137240" lon="-53.7617260">
        <ele>496.9</ele>
        <time>2018-09-14T17:33:14Z</time>
      </trkpt>
      <trkpt lat="-24.8137400" lon="-53.7617210">
        <ele>497.3</ele>
        <time>2018-09-14T17:33:15Z</time>
      </trkpt>
      <trkpt lat="-24.8137550" lon="-53.7617200">
        <ele>497.6</ele>
        <time>2018-09-14T17:33:16Z</time>
      </trkpt>
      <trkpt lat="-24.8137710" lon="-53.7617170">
        <ele>497.9</ele>
        <time>2018-09-14T17:33:17Z</time>
      </trkpt>
      <trkpt lat="-24.8137870" lon="-53.7617140">
        <ele>498.1</ele>
        <time>2018-09-14T17:33:18Z</time>
      </trkpt>
      <trkpt lat="-24.8138040" lon="-53.7617090">
        <ele>498.2</ele>
        <time>2018-09-14T17:33:19Z</time>
      </trkpt>
      <trkpt lat="-24.8138210" lon="-53.7617060">
        <ele>498.3</ele>
        <time>2018-09-14T17:33:20Z</time>
      </trkpt>
      <trkpt lat="-24.8138400" lon="-53.7617040">
        <ele>498.4</ele>
        <time>2018-09-14T17:33:21Z</time>
      </trkpt>
      <trkpt lat="-24.8138570" lon="-53.7616990">
        <ele>498.5</ele>
        <time>2018-09-14T17:33:22Z</time>
      </trkpt>
      <trkpt lat="-24.8138740" lon="-53.7616920">
        <ele>498.6</ele>
        <time>2018-09-14T17:33:23Z</time>
      </trkpt>
      <trkpt lat="-24.8138920" lon="-53.7616890">
        <ele>498.7</ele>
        <time>2018-09-14T17:33:24Z</time>
      </trkpt>
      <trkpt lat="-24.8139110" lon="-53.7616880">
        <ele>498.8</ele>
        <time>2018-09-14T17:33:25Z</time>
      </trkpt>
      <trkpt lat="-24.8139300" lon="-53.7616870">
        <ele>498.9</ele>
        <time>2018-09-14T17:33:26Z</time>
      </trkpt>
      <trkpt lat="-24.8139500" lon="-53.7616850">
        <ele>499.1</ele>
        <time>2018-09-14T17:33:27Z</time>
      </trkpt>
      <trkpt lat="-24.8139680" lon="-53.7616820">
        <ele>499.2</ele>
        <time>2018-09-14T17:33:28Z</time>
      </trkpt>
      <trkpt lat="-24.8139860" lon="-53.7616790">
        <ele>499.4</ele>
        <time>2018-09-14T17:33:29Z</time>
      </trkpt>
      <trkpt lat="-24.8140040" lon="-53.7616750">
        <ele>499.5</ele>
        <time>2018-09-14T17:33:30Z</time>
      </trkpt>
      <trkpt lat="-24.8140230" lon="-53.7616700">
        <ele>499.7</ele>
        <time>2018-09-14T17:33:31Z</time>
      </trkpt>
      <trkpt lat="-24.8140390" lon="-53.7616630">
        <ele>499.9</ele>
        <time>2018-09-14T17:33:32Z</time>
      </trkpt>
      <trkpt lat="-24.8140560" lon="-53.7616550">
        <ele>500.0</ele>
        <time>2018-09-14T17:33:33Z</time>
      </trkpt>
      <trkpt lat="-24.8140710" lon="-53.7616470">
        <ele>500.1</ele>
        <time>2018-09-14T17:33:34Z</time>
      </trkpt>
      <trkpt lat="-24.8140860" lon="-53.7616420">
        <ele>500.2</ele>
        <time>2018-09-14T17:33:35Z</time>
      </trkpt>
      <trkpt lat="-24.8141040" lon="-53.7616380">
        <ele>500.4</ele>
        <time>2018-09-14T17:33:36Z</time>
      </trkpt>
      <trkpt lat="-24.8141210" lon="-53.7616330">
        <ele>500.5</ele>
        <time>2018-09-14T17:33:37Z</time>
      </trkpt>
      <trkpt lat="-24.8141390" lon="-53.7616300">
        <ele>500.7</ele>
        <time>2018-09-14T17:33:38Z</time>
      </trkpt>
      <trkpt lat="-24.8141560" lon="-53.7616260">
        <ele>501.0</ele>
        <time>2018-09-14T17:33:39Z</time>
      </trkpt>
      <trkpt lat="-24.8141740" lon="-53.7616230">
        <ele>501.2</ele>
        <time>2018-09-14T17:33:40Z</time>
      </trkpt>
      <trkpt lat="-24.8141900" lon="-53.7616200">
        <ele>501.4</ele>
        <time>2018-09-14T17:33:41Z</time>
      </trkpt>
      <trkpt lat="-24.8142070" lon="-53.7616150">
        <ele>501.6</ele>
        <time>2018-09-14T17:33:42Z</time>
      </trkpt>
      <trkpt lat="-24.8142240" lon="-53.7616100">
        <ele>501.7</ele>
        <time>2018-09-14T17:33:43Z</time>
      </trkpt>
      <trkpt lat="-24.8142400" lon="-53.7616080">
        <ele>501.8</ele>
        <time>2018-09-14T17:33:44Z</time>
      </trkpt>
      <trkpt lat="-24.8142580" lon="-53.7616090">
        <ele>501.9</ele>
        <time>2018-09-14T17:33:45Z</time>
      </trkpt>
      <trkpt lat="-24.8142760" lon="-53.7616080">
        <ele>502.0</ele>
        <time>2018-09-14T17:33:46Z</time>
      </trkpt>
      <trkpt lat="-24.8142940" lon="-53.7616070">
        <ele>502.1</ele>
        <time>2018-09-14T17:33:47Z</time>
      </trkpt>
      <trkpt lat="-24.8143120" lon="-53.7616050">
        <ele>502.3</ele>
        <time>2018-09-14T17:33:48Z</time>
      </trkpt>
      <trkpt lat="-24.8143290" lon="-53.7615990">
        <ele>502.5</ele>
        <time>2018-09-14T17:33:49Z</time>
      </trkpt>
      <trkpt lat="-24.8143450" lon="-53.7615930">
        <ele>502.6</ele>
        <time>2018-09-14T17:33:50Z</time>
      </trkpt>
      <trkpt lat="-24.8143600" lon="-53.7615860">
        <ele>502.8</ele>
        <time>2018-09-14T17:33:51Z</time>
      </trkpt>
      <trkpt lat="-24.8143790" lon="-53.7615790">
        <ele>502.9</ele>
        <time>2018-09-14T17:33:52Z</time>
      </trkpt>
      <trkpt lat="-24.8143960" lon="-53.7615730">
        <ele>503.1</ele>
        <time>2018-09-14T17:33:53Z</time>
      </trkpt>
      <trkpt lat="-24.8144130" lon="-53.7615670">
        <ele>503.2</ele>
        <time>2018-09-14T17:33:54Z</time>
      </trkpt>
      <trkpt lat="-24.8144300" lon="-53.7615600">
        <ele>503.4</ele>
        <time>2018-09-14T17:33:55Z</time>
      </trkpt>
      <trkpt lat="-24.8144460" lon="-53.7615540">
        <ele>503.5</ele>
        <time>2018-09-14T17:33:56Z</time>
      </trkpt>
      <trkpt lat="-24.8144640" lon="-53.7615470">
        <ele>503.6</ele>
        <time>2018-09-14T17:33:57Z</time>
      </trkpt>
      <trkpt lat="-24.8144810" lon="-53.7615400">
        <ele>503.7</ele>
        <time>2018-09-14T17:33:58Z</time>
      </trkpt>
      <trkpt lat="-24.8144990" lon="-53.7615340">
        <ele>503.8</ele>
        <time>2018-09-14T17:33:59Z</time>
      </trkpt>
      <trkpt lat="-24.8145170" lon="-53.7615290">
        <ele>503.9</ele>
        <time>2018-09-14T17:34:00Z</time>
      </trkpt>
      <trkpt lat="-24.8145380" lon="-53.7615240">
        <ele>504.1</ele>
        <time>2018-09-14T17:34:01Z</time>
      </trkpt>
      <trkpt lat="-24.8145590" lon="-53.7615170">
        <ele>504.2</ele>
        <time>2018-09-14T17:34:02Z</time>
      </trkpt>
      <trkpt lat="-24.8145820" lon="-53.7615090">
        <ele>504.4</ele>
        <time>2018-09-14T17:34:03Z</time>
      </trkpt>
      <trkpt lat="-24.8146050" lon="-53.7615010">
        <ele>504.7</ele>
        <time>2018-09-14T17:34:04Z</time>
      </trkpt>
      <trkpt lat="-24.8146280" lon="-53.7614910">
        <ele>504.9</ele>
        <time>2018-09-14T17:34:05Z</time>
      </trkpt>
      <trkpt lat="-24.8146550" lon="-53.7614820">
        <ele>505.1</ele>
        <time>2018-09-14T17:34:06Z</time>
      </trkpt>
      <trkpt lat="-24.8146840" lon="-53.7614730">
        <ele>505.4</ele>
        <time>2018-09-14T17:34:07Z</time>
      </trkpt>
      <trkpt lat="-24.8147160" lon="-53.7614630">
        <ele>505.8</ele>
        <time>2018-09-14T17:34:08Z</time>
      </trkpt>
      <trkpt lat="-24.8147520" lon="-53.7614540">
        <ele>506.1</ele>
        <time>2018-09-14T17:34:09Z</time>
      </trkpt>
      <trkpt lat="-24.8147880" lon="-53.7614440">
        <ele>506.5</ele>
        <time>2018-09-14T17:34:10Z</time>
      </trkpt>
      <trkpt lat="-24.8148250" lon="-53.7614350">
        <ele>506.8</ele>
        <time>2018-09-14T17:34:11Z</time>
      </trkpt>
      <trkpt lat="-24.8148650" lon="-53.7614260">
        <ele>507.0</ele>
        <time>2018-09-14T17:34:12Z</time>
      </trkpt>
      <trkpt lat="-24.8149050" lon="-53.7614170">
        <ele>507.4</ele>
        <time>2018-09-14T17:34:13Z</time>
      </trkpt>
      <trkpt lat="-24.8149430" lon="-53.7614070">
        <ele>507.8</ele>
        <time>2018-09-14T17:34:14Z</time>
      </trkpt>
      <trkpt lat="-24.8149830" lon="-53.7613960">
        <ele>508.2</ele>
        <time>2018-09-14T17:34:15Z</time>
      </trkpt>
      <trkpt lat="-24.8150230" lon="-53.7613860">
        <ele>508.7</ele>
        <time>2018-09-14T17:34:16Z</time>
      </trkpt>
      <trkpt lat="-24.8150600" lon="-53.7613770">
        <ele>509.1</ele>
        <time>2018-09-14T17:34:17Z</time>
      </trkpt>
      <trkpt lat="-24.8150940" lon="-53.7613690">
        <ele>509.4</ele>
        <time>2018-09-14T17:34:18Z</time>
      </trkpt>
      <trkpt lat="-24.8151260" lon="-53.7613620">
        <ele>509.7</ele>
        <time>2018-09-14T17:34:19Z</time>
      </trkpt>
      <trkpt lat="-24.8151560" lon="-53.7613550">
        <ele>509.9</ele>
        <time>2018-09-14T17:34:20Z</time>
      </trkpt>
      <trkpt lat="-24.8151860" lon="-53.7613470">
        <ele>510.0</ele>
        <time>2018-09-14T17:34:21Z</time>
      </trkpt>
      <trkpt lat="-24.8152140" lon="-53.7613400">
        <ele>510.0</ele>
        <time>2018-09-14T17:34:22Z</time>
      </trkpt>
      <trkpt lat="-24.8152420" lon="-53.7613330">
        <ele>510.1</ele>
        <time>2018-09-14T17:34:23Z</time>
      </trkpt>
      <trkpt lat="-24.8152670" lon="-53.7613260">
        <ele>510.1</ele>
        <time>2018-09-14T17:34:24Z</time>
      </trkpt>
      <trkpt lat="-24.8152910" lon="-53.7613190">
        <ele>510.1</ele>
        <time>2018-09-14T17:34:25Z</time>
      </trkpt>
      <trkpt lat="-24.8153140" lon="-53.7613130">
        <ele>510.1</ele>
        <time>2018-09-14T17:34:26Z</time>
      </trkpt>
      <trkpt lat="-24.8153360" lon="-53.7613060">
        <ele>510.1</ele>
        <time>2018-09-14T17:34:27Z</time>
      </trkpt>
      <trkpt lat="-24.8153580" lon="-53.7612980">
        <ele>510.1</ele>
        <time>2018-09-14T17:34:28Z</time>
      </trkpt>
      <trkpt lat="-24.8153580" lon="-53.7612980">
        <ele>510.1</ele>
        <time>2018-09-14T17:34:29Z</time>
      </trkpt>
      <trkpt lat="-24.8153780" lon="-53.7612920">
        <ele>510.1</ele>
        <time>2018-09-14T17:34:30Z</time>
      </trkpt>
      <trkpt lat="-24.8154000" lon="-53.7612850">
        <ele>510.1</ele>
        <time>2018-09-14T17:34:31Z</time>
      </trkpt>
      <trkpt lat="-24.8154240" lon="-53.7612740">
        <ele>510.1</ele>
        <time>2018-09-14T17:34:32Z</time>
      </trkpt>
      <trkpt lat="-24.8154480" lon="-53.7612620">
        <ele>510.1</ele>
        <time>2018-09-14T17:34:33Z</time>
      </trkpt>
      <trkpt lat="-24.8154730" lon="-53.7612520">
        <ele>510.1</ele>
        <time>2018-09-14T17:34:34Z</time>
      </trkpt>
      <trkpt lat="-24.8154990" lon="-53.7612430">
        <ele>510.1</ele>
        <time>2018-09-14T17:34:35Z</time>
      </trkpt>
      <trkpt lat="-24.8155240" lon="-53.7612340">
        <ele>510.2</ele>
        <time>2018-09-14T17:34:36Z</time>
      </trkpt>
      <trkpt lat="-24.8155480" lon="-53.7612250">
        <ele>510.2</ele>
        <time>2018-09-14T17:34:37Z</time>
      </trkpt>
      <trkpt lat="-24.8155680" lon="-53.7612160">
        <ele>510.4</ele>
        <time>2018-09-14T17:34:38Z</time>
      </trkpt>
      <trkpt lat="-24.8155860" lon="-53.7612070">
        <ele>510.6</ele>
        <time>2018-09-14T17:34:39Z</time>
      </trkpt>
      <trkpt lat="-24.8156020" lon="-53.7611980">
        <ele>510.7</ele>
        <time>2018-09-14T17:34:40Z</time>
      </trkpt>
      <trkpt lat="-24.8156170" lon="-53.7611890">
        <ele>510.9</ele>
        <time>2018-09-14T17:34:41Z</time>
      </trkpt>
      <trkpt lat="-24.8156310" lon="-53.7611810">
        <ele>511.0</ele>
        <time>2018-09-14T17:34:42Z</time>
      </trkpt>
      <trkpt lat="-24.8156510" lon="-53.7611720">
        <ele>511.2</ele>
        <time>2018-09-14T17:34:43Z</time>
      </trkpt>
      <trkpt lat="-24.8156730" lon="-53.7611620">
        <ele>511.5</ele>
        <time>2018-09-14T17:34:44Z</time>
      </trkpt>
      <trkpt lat="-24.8156990" lon="-53.7611530">
        <ele>511.8</ele>
        <time>2018-09-14T17:34:45Z</time>
      </trkpt>
      <trkpt lat="-24.8157270" lon="-53.7611440">
        <ele>512.2</ele>
        <time>2018-09-14T17:34:46Z</time>
      </trkpt>
      <trkpt lat="-24.8157570" lon="-53.7611350">
        <ele>512.7</ele>
        <time>2018-09-14T17:34:47Z</time>
      </trkpt>
      <trkpt lat="-24.8157860" lon="-53.7611270">
        <ele>513.1</ele>
        <time>2018-09-14T17:34:48Z</time>
      </trkpt>
      <trkpt lat="-24.8158140" lon="-53.7611190">
        <ele>513.5</ele>
        <time>2018-09-14T17:34:49Z</time>
      </trkpt>
      <trkpt lat="-24.8158410" lon="-53.7611110">
        <ele>513.9</ele>
        <time>2018-09-14T17:34:50Z</time>
      </trkpt>
      <trkpt lat="-24.8158670" lon="-53.7611020">
        <ele>514.2</ele>
        <time>2018-09-14T17:34:51Z</time>
      </trkpt>
      <trkpt lat="-24.8158930" lon="-53.7610920">
        <ele>514.6</ele>
        <time>2018-09-14T17:34:52Z</time>
      </trkpt>
      <trkpt lat="-24.8159170" lon="-53.7610820">
        <ele>514.9</ele>
        <time>2018-09-14T17:34:53Z</time>
      </trkpt>
      <trkpt lat="-24.8159410" lon="-53.7610740">
        <ele>515.2</ele>
        <time>2018-09-14T17:34:54Z</time>
      </trkpt>
      <trkpt lat="-24.8159620" lon="-53.7610670">
        <ele>515.5</ele>
        <time>2018-09-14T17:34:55Z</time>
      </trkpt>
      <trkpt lat="-24.8159830" lon="-53.7610580">
        <ele>515.7</ele>
        <time>2018-09-14T17:34:56Z</time>
      </trkpt>
      <trkpt lat="-24.8160050" lon="-53.7610460">
        <ele>515.8</ele>
        <time>2018-09-14T17:34:57Z</time>
      </trkpt>
      <trkpt lat="-24.8160300" lon="-53.7610350">
        <ele>515.9</ele>
        <time>2018-09-14T17:34:58Z</time>
      </trkpt>
      <trkpt lat="-24.8160570" lon="-53.7610240">
        <ele>516.1</ele>
        <time>2018-09-14T17:34:59Z</time>
      </trkpt>
      <trkpt lat="-24.8160860" lon="-53.7610120">
        <ele>516.4</ele>
        <time>2018-09-14T17:35:00Z</time>
      </trkpt>
      <trkpt lat="-24.8161160" lon="-53.7609990">
        <ele>516.7</ele>
        <time>2018-09-14T17:35:01Z</time>
      </trkpt>
      <trkpt lat="-24.8161470" lon="-53.7609870">
        <ele>517.1</ele>
        <time>2018-09-14T17:35:02Z</time>
      </trkpt>
      <trkpt lat="-24.8161790" lon="-53.7609740">
        <ele>517.6</ele>
        <time>2018-09-14T17:35:03Z</time>
      </trkpt>
      <trkpt lat="-24.8162100" lon="-53.7609590">
        <ele>518.1</ele>
        <time>2018-09-14T17:35:04Z</time>
      </trkpt>
      <trkpt lat="-24.8162410" lon="-53.7609450">
        <ele>518.4</ele>
        <time>2018-09-14T17:35:05Z</time>
      </trkpt>
      <trkpt lat="-24.8162710" lon="-53.7609320">
        <ele>518.7</ele>
        <time>2018-09-14T17:35:06Z</time>
      </trkpt>
      <trkpt lat="-24.8163000" lon="-53.7609200">
        <ele>519.0</ele>
        <time>2018-09-14T17:35:07Z</time>
      </trkpt>
      <trkpt lat="-24.8163300" lon="-53.7609070">
        <ele>519.0</ele>
        <time>2018-09-14T17:35:08Z</time>
      </trkpt>
      <trkpt lat="-24.8163590" lon="-53.7608940">
        <ele>519.0</ele>
        <time>2018-09-14T17:35:09Z</time>
      </trkpt>
      <trkpt lat="-24.8163900" lon="-53.7608820">
        <ele>519.0</ele>
        <time>2018-09-14T17:35:10Z</time>
      </trkpt>
      <trkpt lat="-24.8164230" lon="-53.7608680">
        <ele>518.9</ele>
        <time>2018-09-14T17:35:11Z</time>
      </trkpt>
      <trkpt lat="-24.8164590" lon="-53.7608530">
        <ele>518.7</ele>
        <time>2018-09-14T17:35:12Z</time>
      </trkpt>
      <trkpt lat="-24.8164940" lon="-53.7608380">
        <ele>518.5</ele>
        <time>2018-09-14T17:35:13Z</time>
      </trkpt>
      <trkpt lat="-24.8165300" lon="-53.7608250">
        <ele>518.2</ele>
        <time>2018-09-14T17:35:14Z</time>
      </trkpt>
      <trkpt lat="-24.8165640" lon="-53.7608120">
        <ele>518.1</ele>
        <time>2018-09-14T17:35:15Z</time>
      </trkpt>
      <trkpt lat="-24.8165970" lon="-53.7607990">
        <ele>518.3</ele>
        <time>2018-09-14T17:35:16Z</time>
      </trkpt>
      <trkpt lat="-24.8166270" lon="-53.7607850">
        <ele>518.5</ele>
        <time>2018-09-14T17:35:17Z</time>
      </trkpt>
      <trkpt lat="-24.8166580" lon="-53.7607710">
        <ele>518.4</ele>
        <time>2018-09-14T17:35:18Z</time>
      </trkpt>
      <trkpt lat="-24.8166860" lon="-53.7607570">
        <ele>518.2</ele>
        <time>2018-09-14T17:35:19Z</time>
      </trkpt>
      <trkpt lat="-24.8167160" lon="-53.7607410">
        <ele>518.1</ele>
        <time>2018-09-14T17:35:20Z</time>
      </trkpt>
      <trkpt lat="-24.8167460" lon="-53.7607270">
        <ele>517.9</ele>
        <time>2018-09-14T17:35:21Z</time>
      </trkpt>
      <trkpt lat="-24.8167770" lon="-53.7607120">
        <ele>517.7</ele>
        <time>2018-09-14T17:35:22Z</time>
      </trkpt>
      <trkpt lat="-24.8168110" lon="-53.7606980">
        <ele>517.5</ele>
        <time>2018-09-14T17:35:23Z</time>
      </trkpt>
      <trkpt lat="-24.8168460" lon="-53.7606830">
        <ele>517.4</ele>
        <time>2018-09-14T17:35:24Z</time>
      </trkpt>
      <trkpt lat="-24.8168810" lon="-53.7606670">
        <ele>517.3</ele>
        <time>2018-09-14T17:35:25Z</time>
      </trkpt>
      <trkpt lat="-24.8169150" lon="-53.7606500">
        <ele>517.3</ele>
        <time>2018-09-14T17:35:26Z</time>
      </trkpt>
      <trkpt lat="-24.8169500" lon="-53.7606330">
        <ele>517.4</ele>
        <time>2018-09-14T17:35:27Z</time>
      </trkpt>
      <trkpt lat="-24.8169840" lon="-53.7606170">
        <ele>517.5</ele>
        <time>2018-09-14T17:35:28Z</time>
      </trkpt>
      <trkpt lat="-24.8170180" lon="-53.7606010">
        <ele>517.7</ele>
        <time>2018-09-14T17:35:29Z</time>
      </trkpt>
      <trkpt lat="-24.8170510" lon="-53.7605860">
        <ele>517.9</ele>
        <time>2018-09-14T17:35:30Z</time>
      </trkpt>
      <trkpt lat="-24.8170840" lon="-53.7605710">
        <ele>518.2</ele>
        <time>2018-09-14T17:35:31Z</time>
      </trkpt>
      <trkpt lat="-24.8171180" lon="-53.7605550">
        <ele>518.4</ele>
        <time>2018-09-14T17:35:32Z</time>
      </trkpt>
      <trkpt lat="-24.8171540" lon="-53.7605370">
        <ele>518.8</ele>
        <time>2018-09-14T17:35:33Z</time>
      </trkpt>
      <trkpt lat="-24.8171900" lon="-53.7605170">
        <ele>519.1</ele>
        <time>2018-09-14T17:35:34Z</time>
      </trkpt>
      <trkpt lat="-24.8172260" lon="-53.7604980">
        <ele>519.4</ele>
        <time>2018-09-14T17:35:35Z</time>
      </trkpt>
      <trkpt lat="-24.8172620" lon="-53.7604810">
        <ele>519.7</ele>
        <time>2018-09-14T17:35:36Z</time>
      </trkpt>
      <trkpt lat="-24.8172980" lon="-53.7604650">
        <ele>519.8</ele>
        <time>2018-09-14T17:35:37Z</time>
      </trkpt>
      <trkpt lat="-24.8173340" lon="-53.7604490">
        <ele>519.9</ele>
        <time>2018-09-14T17:35:38Z</time>
      </trkpt>
      <trkpt lat="-24.8173710" lon="-53.7604350">
        <ele>520.0</ele>
        <time>2018-09-14T17:35:39Z</time>
      </trkpt>
      <trkpt lat="-24.8174070" lon="-53.7604190">
        <ele>520.2</ele>
        <time>2018-09-14T17:35:40Z</time>
      </trkpt>
      <trkpt lat="-24.8174420" lon="-53.7604040">
        <ele>520.4</ele>
        <time>2018-09-14T17:35:41Z</time>
      </trkpt>
      <trkpt lat="-24.8174740" lon="-53.7603890">
        <ele>520.6</ele>
        <time>2018-09-14T17:35:42Z</time>
      </trkpt>
      <trkpt lat="-24.8175080" lon="-53.7603760">
        <ele>520.9</ele>
        <time>2018-09-14T17:35:43Z</time>
      </trkpt>
      <trkpt lat="-24.8175410" lon="-53.7603640">
        <ele>521.5</ele>
        <time>2018-09-14T17:35:44Z</time>
      </trkpt>
      <trkpt lat="-24.8175750" lon="-53.7603490">
        <ele>522.2</ele>
        <time>2018-09-14T17:35:45Z</time>
      </trkpt>
      <trkpt lat="-24.8176090" lon="-53.7603340">
        <ele>522.7</ele>
        <time>2018-09-14T17:35:46Z</time>
      </trkpt>
      <trkpt lat="-24.8176430" lon="-53.7603180">
        <ele>522.7</ele>
        <time>2018-09-14T17:35:47Z</time>
      </trkpt>
      <trkpt lat="-24.8176760" lon="-53.7603010">
        <ele>522.8</ele>
        <time>2018-09-14T17:35:48Z</time>
      </trkpt>
      <trkpt lat="-24.8177060" lon="-53.7602880">
        <ele>522.6</ele>
        <time>2018-09-14T17:35:49Z</time>
      </trkpt>
      <trkpt lat="-24.8177340" lon="-53.7602740">
        <ele>522.3</ele>
        <time>2018-09-14T17:35:50Z</time>
      </trkpt>
      <trkpt lat="-24.8177600" lon="-53.7602620">
        <ele>522.1</ele>
        <time>2018-09-14T17:35:51Z</time>
      </trkpt>
      <trkpt lat="-24.8177890" lon="-53.7602500">
        <ele>521.9</ele>
        <time>2018-09-14T17:35:52Z</time>
      </trkpt>
      <trkpt lat="-24.8178200" lon="-53.7602340">
        <ele>521.6</ele>
        <time>2018-09-14T17:35:53Z</time>
      </trkpt>
      <trkpt lat="-24.8178500" lon="-53.7602190">
        <ele>521.4</ele>
        <time>2018-09-14T17:35:54Z</time>
      </trkpt>
      <trkpt lat="-24.8178780" lon="-53.7602040">
        <ele>521.2</ele>
        <time>2018-09-14T17:35:55Z</time>
      </trkpt>
      <trkpt lat="-24.8179050" lon="-53.7601910">
        <ele>521.0</ele>
        <time>2018-09-14T17:35:56Z</time>
      </trkpt>
      <trkpt lat="-24.8179330" lon="-53.7601790">
        <ele>520.8</ele>
        <time>2018-09-14T17:35:57Z</time>
      </trkpt>
      <trkpt lat="-24.8179610" lon="-53.7601670">
        <ele>520.7</ele>
        <time>2018-09-14T17:35:58Z</time>
      </trkpt>
      <trkpt lat="-24.8180160" lon="-53.7601450">
        <ele>520.7</ele>
        <time>2018-09-14T17:35:59Z</time>
      </trkpt>
      <trkpt lat="-24.8180410" lon="-53.7601350">
        <ele>520.8</ele>
        <time>2018-09-14T17:36:01Z</time>
      </trkpt>
      <trkpt lat="-24.8180670" lon="-53.7601230">
        <ele>521.0</ele>
        <time>2018-09-14T17:36:02Z</time>
      </trkpt>
      <trkpt lat="-24.8180910" lon="-53.7601090">
        <ele>521.2</ele>
        <time>2018-09-14T17:36:03Z</time>
      </trkpt>
      <trkpt lat="-24.8181160" lon="-53.7600950">
        <ele>521.3</ele>
        <time>2018-09-14T17:36:04Z</time>
      </trkpt>
      <trkpt lat="-24.8181440" lon="-53.7600820">
        <ele>521.5</ele>
        <time>2018-09-14T17:36:05Z</time>
      </trkpt>
      <trkpt lat="-24.8181720" lon="-53.7600690">
        <ele>521.7</ele>
        <time>2018-09-14T17:36:06Z</time>
      </trkpt>
      <trkpt lat="-24.8182010" lon="-53.7600570">
        <ele>521.9</ele>
        <time>2018-09-14T17:36:07Z</time>
      </trkpt>
      <trkpt lat="-24.8182550" lon="-53.7600350">
        <ele>522.2</ele>
        <time>2018-09-14T17:36:08Z</time>
      </trkpt>
      <trkpt lat="-24.8182790" lon="-53.7600230">
        <ele>522.3</ele>
        <time>2018-09-14T17:36:09Z</time>
      </trkpt>
      <trkpt lat="-24.8183030" lon="-53.7600110">
        <ele>522.4</ele>
        <time>2018-09-14T17:36:10Z</time>
      </trkpt>
      <trkpt lat="-24.8183520" lon="-53.7599880">
        <ele>522.4</ele>
        <time>2018-09-14T17:36:12Z</time>
      </trkpt>
      <trkpt lat="-24.8183760" lon="-53.7599770">
        <ele>522.3</ele>
        <time>2018-09-14T17:36:13Z</time>
      </trkpt>
      <trkpt lat="-24.8184000" lon="-53.7599660">
        <ele>522.3</ele>
        <time>2018-09-14T17:36:14Z</time>
      </trkpt>
      <trkpt lat="-24.8184250" lon="-53.7599550">
        <ele>522.1</ele>
        <time>2018-09-14T17:36:15Z</time>
      </trkpt>
      <trkpt lat="-24.8184500" lon="-53.7599440">
        <ele>521.9</ele>
        <time>2018-09-14T17:36:16Z</time>
      </trkpt>
      <trkpt lat="-24.8184750" lon="-53.7599310">
        <ele>521.7</ele>
        <time>2018-09-14T17:36:17Z</time>
      </trkpt>
      <trkpt lat="-24.8184990" lon="-53.7599170">
        <ele>521.5</ele>
        <time>2018-09-14T17:36:18Z</time>
      </trkpt>
      <trkpt lat="-24.8185250" lon="-53.7599040">
        <ele>521.3</ele>
        <time>2018-09-14T17:36:19Z</time>
      </trkpt>
      <trkpt lat="-24.8185510" lon="-53.7598930">
        <ele>521.1</ele>
        <time>2018-09-14T17:36:20Z</time>
      </trkpt>
      <trkpt lat="-24.8185780" lon="-53.7598800">
        <ele>521.0</ele>
        <time>2018-09-14T17:36:21Z</time>
      </trkpt>
      <trkpt lat="-24.8186040" lon="-53.7598690">
        <ele>521.0</ele>
        <time>2018-09-14T17:36:22Z</time>
      </trkpt>
      <trkpt lat="-24.8186300" lon="-53.7598560">
        <ele>521.0</ele>
        <time>2018-09-14T17:36:23Z</time>
      </trkpt>
      <trkpt lat="-24.8186540" lon="-53.7598420">
        <ele>521.0</ele>
        <time>2018-09-14T17:36:24Z</time>
      </trkpt>
      <trkpt lat="-24.8186760" lon="-53.7598270">
        <ele>520.9</ele>
        <time>2018-09-14T17:36:25Z</time>
      </trkpt>
      <trkpt lat="-24.8186990" lon="-53.7598110">
        <ele>520.8</ele>
        <time>2018-09-14T17:36:26Z</time>
      </trkpt>
      <trkpt lat="-24.8187230" lon="-53.7597940">
        <ele>520.7</ele>
        <time>2018-09-14T17:36:27Z</time>
      </trkpt>
      <trkpt lat="-24.8187460" lon="-53.7597800">
        <ele>520.7</ele>
        <time>2018-09-14T17:36:28Z</time>
      </trkpt>
      <trkpt lat="-24.8187710" lon="-53.7597670">
        <ele>520.7</ele>
        <time>2018-09-14T17:36:29Z</time>
      </trkpt>
      <trkpt lat="-24.8187970" lon="-53.7597540">
        <ele>520.7</ele>
        <time>2018-09-14T17:36:30Z</time>
      </trkpt>
      <trkpt lat="-24.8188530" lon="-53.7597290">
        <ele>521.3</ele>
        <time>2018-09-14T17:36:32Z</time>
      </trkpt>
      <trkpt lat="-24.8188800" lon="-53.7597160">
        <ele>521.5</ele>
        <time>2018-09-14T17:36:33Z</time>
      </trkpt>
      <trkpt lat="-24.8189090" lon="-53.7597030">
        <ele>521.7</ele>
        <time>2018-09-14T17:36:34Z</time>
      </trkpt>
      <trkpt lat="-24.8189380" lon="-53.7596900">
        <ele>521.9</ele>
        <time>2018-09-14T17:36:35Z</time>
      </trkpt>
      <trkpt lat="-24.8189670" lon="-53.7596770">
        <ele>522.1</ele>
        <time>2018-09-14T17:36:36Z</time>
      </trkpt>
      <trkpt lat="-24.8189970" lon="-53.7596630">
        <ele>522.2</ele>
        <time>2018-09-14T17:36:37Z</time>
      </trkpt>
      <trkpt lat="-24.8190250" lon="-53.7596500">
        <ele>522.4</ele>
        <time>2018-09-14T17:36:38Z</time>
      </trkpt>
      <trkpt lat="-24.8190540" lon="-53.7596370">
        <ele>522.5</ele>
        <time>2018-09-14T17:36:39Z</time>
      </trkpt>
      <trkpt lat="-24.8190840" lon="-53.7596240">
        <ele>522.7</ele>
        <time>2018-09-14T17:36:40Z</time>
      </trkpt>
      <trkpt lat="-24.8191130" lon="-53.7596110">
        <ele>522.8</ele>
        <time>2018-09-14T17:36:41Z</time>
      </trkpt>
      <trkpt lat="-24.8191410" lon="-53.7595960">
        <ele>522.9</ele>
        <time>2018-09-14T17:36:42Z</time>
      </trkpt>
      <trkpt lat="-24.8191690" lon="-53.7595820">
        <ele>523.0</ele>
        <time>2018-09-14T17:36:43Z</time>
      </trkpt>
      <trkpt lat="-24.8191960" lon="-53.7595710">
        <ele>523.1</ele>
        <time>2018-09-14T17:36:44Z</time>
      </trkpt>
      <trkpt lat="-24.8192240" lon="-53.7595600">
        <ele>523.2</ele>
        <time>2018-09-14T17:36:45Z</time>
      </trkpt>
      <trkpt lat="-24.8192520" lon="-53.7595480">
        <ele>523.3</ele>
        <time>2018-09-14T17:36:46Z</time>
      </trkpt>
      <trkpt lat="-24.8192790" lon="-53.7595360">
        <ele>523.4</ele>
        <time>2018-09-14T17:36:47Z</time>
      </trkpt>
      <trkpt lat="-24.8193060" lon="-53.7595230">
        <ele>523.6</ele>
        <time>2018-09-14T17:36:48Z</time>
      </trkpt>
      <trkpt lat="-24.8193350" lon="-53.7595110">
        <ele>523.7</ele>
        <time>2018-09-14T17:36:49Z</time>
      </trkpt>
      <trkpt lat="-24.8193640" lon="-53.7594980">
        <ele>523.9</ele>
        <time>2018-09-14T17:36:50Z</time>
      </trkpt>
      <trkpt lat="-24.8193950" lon="-53.7594850">
        <ele>524.1</ele>
        <time>2018-09-14T17:36:51Z</time>
      </trkpt>
      <trkpt lat="-24.8194280" lon="-53.7594710">
        <ele>524.2</ele>
        <time>2018-09-14T17:36:52Z</time>
      </trkpt>
      <trkpt lat="-24.8194600" lon="-53.7594550">
        <ele>524.2</ele>
        <time>2018-09-14T17:36:53Z</time>
      </trkpt>
      <trkpt lat="-24.8194930" lon="-53.7594400">
        <ele>524.2</ele>
        <time>2018-09-14T17:36:54Z</time>
      </trkpt>
      <trkpt lat="-24.8195240" lon="-53.7594270">
        <ele>524.2</ele>
        <time>2018-09-14T17:36:55Z</time>
      </trkpt>
      <trkpt lat="-24.8195550" lon="-53.7594120">
        <ele>524.1</ele>
        <time>2018-09-14T17:36:56Z</time>
      </trkpt>
      <trkpt lat="-24.8195850" lon="-53.7593990">
        <ele>524.2</ele>
        <time>2018-09-14T17:36:57Z</time>
      </trkpt>
      <trkpt lat="-24.8196140" lon="-53.7593850">
        <ele>524.3</ele>
        <time>2018-09-14T17:36:58Z</time>
      </trkpt>
      <trkpt lat="-24.8196420" lon="-53.7593720">
        <ele>524.4</ele>
        <time>2018-09-14T17:36:59Z</time>
      </trkpt>
      <trkpt lat="-24.8196700" lon="-53.7593580">
        <ele>524.6</ele>
        <time>2018-09-14T17:37:00Z</time>
      </trkpt>
      <trkpt lat="-24.8196970" lon="-53.7593460">
        <ele>524.7</ele>
        <time>2018-09-14T17:37:01Z</time>
      </trkpt>
      <trkpt lat="-24.8197250" lon="-53.7593340">
        <ele>524.8</ele>
        <time>2018-09-14T17:37:02Z</time>
      </trkpt>
      <trkpt lat="-24.8197530" lon="-53.7593220">
        <ele>524.9</ele>
        <time>2018-09-14T17:37:03Z</time>
      </trkpt>
      <trkpt lat="-24.8197810" lon="-53.7593110">
        <ele>525.0</ele>
        <time>2018-09-14T17:37:04Z</time>
      </trkpt>
      <trkpt lat="-24.8198070" lon="-53.7592980">
        <ele>525.2</ele>
        <time>2018-09-14T17:37:05Z</time>
      </trkpt>
      <trkpt lat="-24.8198320" lon="-53.7592860">
        <ele>525.3</ele>
        <time>2018-09-14T17:37:06Z</time>
      </trkpt>
      <trkpt lat="-24.8198550" lon="-53.7592750">
        <ele>525.4</ele>
        <time>2018-09-14T17:37:07Z</time>
      </trkpt>
      <trkpt lat="-24.8198800" lon="-53.7592630">
        <ele>525.5</ele>
        <time>2018-09-14T17:37:08Z</time>
      </trkpt>
      <trkpt lat="-24.8199070" lon="-53.7592510">
        <ele>525.7</ele>
        <time>2018-09-14T17:37:09Z</time>
      </trkpt>
      <trkpt lat="-24.8199350" lon="-53.7592380">
        <ele>525.7</ele>
        <time>2018-09-14T17:37:10Z</time>
      </trkpt>
      <trkpt lat="-24.8199640" lon="-53.7592250">
        <ele>525.7</ele>
        <time>2018-09-14T17:37:11Z</time>
      </trkpt>
      <trkpt lat="-24.8199910" lon="-53.7592100">
        <ele>525.7</ele>
        <time>2018-09-14T17:37:12Z</time>
      </trkpt>
      <trkpt lat="-24.8200190" lon="-53.7591980">
        <ele>525.7</ele>
        <time>2018-09-14T17:37:13Z</time>
      </trkpt>
      <trkpt lat="-24.8200450" lon="-53.7591860">
        <ele>525.6</ele>
        <time>2018-09-14T17:37:14Z</time>
      </trkpt>
      <trkpt lat="-24.8200700" lon="-53.7591750">
        <ele>525.6</ele>
        <time>2018-09-14T17:37:15Z</time>
      </trkpt>
      <trkpt lat="-24.8200960" lon="-53.7591630">
        <ele>525.6</ele>
        <time>2018-09-14T17:37:16Z</time>
      </trkpt>
      <trkpt lat="-24.8201210" lon="-53.7591510">
        <ele>525.7</ele>
        <time>2018-09-14T17:37:17Z</time>
      </trkpt>
      <trkpt lat="-24.8201460" lon="-53.7591380">
        <ele>525.8</ele>
        <time>2018-09-14T17:37:18Z</time>
      </trkpt>
      <trkpt lat="-24.8201720" lon="-53.7591260">
        <ele>525.9</ele>
        <time>2018-09-14T17:37:19Z</time>
      </trkpt>
      <trkpt lat="-24.8201990" lon="-53.7591140">
        <ele>526.1</ele>
        <time>2018-09-14T17:37:20Z</time>
      </trkpt>
      <trkpt lat="-24.8202260" lon="-53.7591020">
        <ele>526.3</ele>
        <time>2018-09-14T17:37:21Z</time>
      </trkpt>
      <trkpt lat="-24.8202510" lon="-53.7590910">
        <ele>526.5</ele>
        <time>2018-09-14T17:37:22Z</time>
      </trkpt>
      <trkpt lat="-24.8202750" lon="-53.7590780">
        <ele>526.5</ele>
        <time>2018-09-14T17:37:23Z</time>
      </trkpt>
      <trkpt lat="-24.8203010" lon="-53.7590650">
        <ele>526.5</ele>
        <time>2018-09-14T17:37:24Z</time>
      </trkpt>
      <trkpt lat="-24.8203280" lon="-53.7590520">
        <ele>526.5</ele>
        <time>2018-09-14T17:37:25Z</time>
      </trkpt>
      <trkpt lat="-24.8203550" lon="-53.7590380">
        <ele>526.6</ele>
        <time>2018-09-14T17:37:26Z</time>
      </trkpt>
      <trkpt lat="-24.8203850" lon="-53.7590240">
        <ele>526.7</ele>
        <time>2018-09-14T17:37:27Z</time>
      </trkpt>
      <trkpt lat="-24.8204140" lon="-53.7590110">
        <ele>526.7</ele>
        <time>2018-09-14T17:37:28Z</time>
      </trkpt>
      <trkpt lat="-24.8204420" lon="-53.7589970">
        <ele>526.9</ele>
        <time>2018-09-14T17:37:29Z</time>
      </trkpt>
      <trkpt lat="-24.8204680" lon="-53.7589840">
        <ele>527.3</ele>
        <time>2018-09-14T17:37:30Z</time>
      </trkpt>
      <trkpt lat="-24.8204950" lon="-53.7589720">
        <ele>527.7</ele>
        <time>2018-09-14T17:37:31Z</time>
      </trkpt>
      <trkpt lat="-24.8205200" lon="-53.7589590">
        <ele>528.0</ele>
        <time>2018-09-14T17:37:32Z</time>
      </trkpt>
      <trkpt lat="-24.8205450" lon="-53.7589460">
        <ele>528.1</ele>
        <time>2018-09-14T17:37:33Z</time>
      </trkpt>
      <trkpt lat="-24.8205690" lon="-53.7589340">
        <ele>528.2</ele>
        <time>2018-09-14T17:37:34Z</time>
      </trkpt>
      <trkpt lat="-24.8205930" lon="-53.7589210">
        <ele>528.3</ele>
        <time>2018-09-14T17:37:35Z</time>
      </trkpt>
      <trkpt lat="-24.8206180" lon="-53.7589100">
        <ele>528.4</ele>
        <time>2018-09-14T17:37:36Z</time>
      </trkpt>
      <trkpt lat="-24.8206420" lon="-53.7588990">
        <ele>528.5</ele>
        <time>2018-09-14T17:37:37Z</time>
      </trkpt>
      <trkpt lat="-24.8206670" lon="-53.7588900">
        <ele>528.5</ele>
        <time>2018-09-14T17:37:38Z</time>
      </trkpt>
      <trkpt lat="-24.8206920" lon="-53.7588780">
        <ele>528.6</ele>
        <time>2018-09-14T17:37:39Z</time>
      </trkpt>
      <trkpt lat="-24.8207180" lon="-53.7588660">
        <ele>528.6</ele>
        <time>2018-09-14T17:37:40Z</time>
      </trkpt>
      <trkpt lat="-24.8207440" lon="-53.7588550">
        <ele>528.6</ele>
        <time>2018-09-14T17:37:41Z</time>
      </trkpt>
      <trkpt lat="-24.8207710" lon="-53.7588430">
        <ele>528.6</ele>
        <time>2018-09-14T17:37:42Z</time>
      </trkpt>
      <trkpt lat="-24.8207980" lon="-53.7588300">
        <ele>528.6</ele>
        <time>2018-09-14T17:37:43Z</time>
      </trkpt>
      <trkpt lat="-24.8208240" lon="-53.7588180">
        <ele>528.6</ele>
        <time>2018-09-14T17:37:44Z</time>
      </trkpt>
      <trkpt lat="-24.8208500" lon="-53.7588050">
        <ele>528.6</ele>
        <time>2018-09-14T17:37:45Z</time>
      </trkpt>
      <trkpt lat="-24.8208750" lon="-53.7587930">
        <ele>528.7</ele>
        <time>2018-09-14T17:37:46Z</time>
      </trkpt>
      <trkpt lat="-24.8209000" lon="-53.7587820">
        <ele>528.8</ele>
        <time>2018-09-14T17:37:47Z</time>
      </trkpt>
      <trkpt lat="-24.8209230" lon="-53.7587720">
        <ele>528.8</ele>
        <time>2018-09-14T17:37:48Z</time>
      </trkpt>
      <trkpt lat="-24.8209480" lon="-53.7587600">
        <ele>528.9</ele>
        <time>2018-09-14T17:37:49Z</time>
      </trkpt>
      <trkpt lat="-24.8209710" lon="-53.7587500">
        <ele>529.3</ele>
        <time>2018-09-14T17:37:50Z</time>
      </trkpt>
      <trkpt lat="-24.8209960" lon="-53.7587410">
        <ele>529.6</ele>
        <time>2018-09-14T17:37:51Z</time>
      </trkpt>
      <trkpt lat="-24.8210220" lon="-53.7587300">
        <ele>530.0</ele>
        <time>2018-09-14T17:37:52Z</time>
      </trkpt>
      <trkpt lat="-24.8210480" lon="-53.7587200">
        <ele>530.4</ele>
        <time>2018-09-14T17:37:53Z</time>
      </trkpt>
      <trkpt lat="-24.8210750" lon="-53.7587080">
        <ele>530.9</ele>
        <time>2018-09-14T17:37:54Z</time>
      </trkpt>
      <trkpt lat="-24.8211030" lon="-53.7586940">
        <ele>531.5</ele>
        <time>2018-09-14T17:37:55Z</time>
      </trkpt>
      <trkpt lat="-24.8211290" lon="-53.7586810">
        <ele>532.0</ele>
        <time>2018-09-14T17:37:56Z</time>
      </trkpt>
      <trkpt lat="-24.8211590" lon="-53.7586690">
        <ele>532.5</ele>
        <time>2018-09-14T17:37:57Z</time>
      </trkpt>
      <trkpt lat="-24.8211870" lon="-53.7586590">
        <ele>533.0</ele>
        <time>2018-09-14T17:37:58Z</time>
      </trkpt>
      <trkpt lat="-24.8212110" lon="-53.7586480">
        <ele>533.4</ele>
        <time>2018-09-14T17:37:59Z</time>
      </trkpt>
      <trkpt lat="-24.8212350" lon="-53.7586390">
        <ele>533.7</ele>
        <time>2018-09-14T17:38:00Z</time>
      </trkpt>
      <trkpt lat="-24.8212580" lon="-53.7586300">
        <ele>534.1</ele>
        <time>2018-09-14T17:38:01Z</time>
      </trkpt>
      <trkpt lat="-24.8212810" lon="-53.7586200">
        <ele>534.4</ele>
        <time>2018-09-14T17:38:02Z</time>
      </trkpt>
      <trkpt lat="-24.8213060" lon="-53.7586090">
        <ele>534.7</ele>
        <time>2018-09-14T17:38:03Z</time>
      </trkpt>
      <trkpt lat="-24.8213280" lon="-53.7585970">
        <ele>535.0</ele>
        <time>2018-09-14T17:38:04Z</time>
      </trkpt>
      <trkpt lat="-24.8213480" lon="-53.7585880">
        <ele>535.3</ele>
        <time>2018-09-14T17:38:05Z</time>
      </trkpt>
      <trkpt lat="-24.8213750" lon="-53.7585760">
        <ele>535.6</ele>
        <time>2018-09-14T17:38:06Z</time>
      </trkpt>
      <trkpt lat="-24.8214040" lon="-53.7585610">
        <ele>535.8</ele>
        <time>2018-09-14T17:38:07Z</time>
      </trkpt>
      <trkpt lat="-24.8214350" lon="-53.7585460">
        <ele>535.9</ele>
        <time>2018-09-14T17:38:08Z</time>
      </trkpt>
      <trkpt lat="-24.8214640" lon="-53.7585330">
        <ele>535.9</ele>
        <time>2018-09-14T17:38:09Z</time>
      </trkpt>
      <trkpt lat="-24.8214920" lon="-53.7585210">
        <ele>535.9</ele>
        <time>2018-09-14T17:38:10Z</time>
      </trkpt>
      <trkpt lat="-24.8215180" lon="-53.7585080">
        <ele>535.7</ele>
        <time>2018-09-14T17:38:11Z</time>
      </trkpt>
      <trkpt lat="-24.8215460" lon="-53.7584960">
        <ele>535.6</ele>
        <time>2018-09-14T17:38:12Z</time>
      </trkpt>
      <trkpt lat="-24.8215710" lon="-53.7584830">
        <ele>535.5</ele>
        <time>2018-09-14T17:38:13Z</time>
      </trkpt>
      <trkpt lat="-24.8215960" lon="-53.7584700">
        <ele>535.4</ele>
        <time>2018-09-14T17:38:14Z</time>
      </trkpt>
      <trkpt lat="-24.8216210" lon="-53.7584570">
        <ele>535.3</ele>
        <time>2018-09-14T17:38:15Z</time>
      </trkpt>
      <trkpt lat="-24.8216470" lon="-53.7584440">
        <ele>535.2</ele>
        <time>2018-09-14T17:38:16Z</time>
      </trkpt>
      <trkpt lat="-24.8216720" lon="-53.7584290">
        <ele>535.1</ele>
        <time>2018-09-14T17:38:17Z</time>
      </trkpt>
      <trkpt lat="-24.8216980" lon="-53.7584090">
        <ele>535.0</ele>
        <time>2018-09-14T17:38:18Z</time>
      </trkpt>
      <trkpt lat="-24.8217250" lon="-53.7583930">
        <ele>534.9</ele>
        <time>2018-09-14T17:38:19Z</time>
      </trkpt>
      <trkpt lat="-24.8217510" lon="-53.7583750">
        <ele>534.8</ele>
        <time>2018-09-14T17:38:20Z</time>
      </trkpt>
      <trkpt lat="-24.8217510" lon="-53.7583750">
        <ele>534.8</ele>
        <time>2018-09-14T17:38:21Z</time>
      </trkpt>
      <trkpt lat="-24.8218000" lon="-53.7583350">
        <ele>534.6</ele>
        <time>2018-09-14T17:38:22Z</time>
      </trkpt>
      <trkpt lat="-24.8218240" lon="-53.7583150">
        <ele>534.4</ele>
        <time>2018-09-14T17:38:23Z</time>
      </trkpt>
      <trkpt lat="-24.8218470" lon="-53.7582940">
        <ele>534.2</ele>
        <time>2018-09-14T17:38:24Z</time>
      </trkpt>
      <trkpt lat="-24.8218680" lon="-53.7582730">
        <ele>534.0</ele>
        <time>2018-09-14T17:38:25Z</time>
      </trkpt>
      <trkpt lat="-24.8218680" lon="-53.7582730">
        <ele>534.0</ele>
        <time>2018-09-14T17:38:26Z</time>
      </trkpt>
      <trkpt lat="-24.8218900" lon="-53.7582520">
        <ele>533.9</ele>
        <time>2018-09-14T17:38:27Z</time>
      </trkpt>
      <trkpt lat="-24.8219100" lon="-53.7582280">
        <ele>533.8</ele>
        <time>2018-09-14T17:38:28Z</time>
      </trkpt>
      <trkpt lat="-24.8219250" lon="-53.7582000">
        <ele>533.7</ele>
        <time>2018-09-14T17:38:29Z</time>
      </trkpt>
      <trkpt lat="-24.8219390" lon="-53.7581750">
        <ele>533.7</ele>
        <time>2018-09-14T17:38:30Z</time>
      </trkpt>
      <trkpt lat="-24.8219520" lon="-53.7581500">
        <ele>533.6</ele>
        <time>2018-09-14T17:38:31Z</time>
      </trkpt>
      <trkpt lat="-24.8219610" lon="-53.7581230">
        <ele>533.6</ele>
        <time>2018-09-14T17:38:32Z</time>
      </trkpt>
      <trkpt lat="-24.8219680" lon="-53.7580970">
        <ele>533.6</ele>
        <time>2018-09-14T17:38:33Z</time>
      </trkpt>
      <trkpt lat="-24.8219740" lon="-53.7580720">
        <ele>533.6</ele>
        <time>2018-09-14T17:38:34Z</time>
      </trkpt>
      <trkpt lat="-24.8219800" lon="-53.7580480">
        <ele>533.5</ele>
        <time>2018-09-14T17:38:35Z</time>
      </trkpt>
      <trkpt lat="-24.8219840" lon="-53.7580220">
        <ele>533.5</ele>
        <time>2018-09-14T17:38:36Z</time>
      </trkpt>
      <trkpt lat="-24.8219850" lon="-53.7579930">
        <ele>533.6</ele>
        <time>2018-09-14T17:38:37Z</time>
      </trkpt>
      <trkpt lat="-24.8219820" lon="-53.7579630">
        <ele>533.6</ele>
        <time>2018-09-14T17:38:38Z</time>
      </trkpt>
      <trkpt lat="-24.8219820" lon="-53.7579320">
        <ele>533.7</ele>
        <time>2018-09-14T17:38:39Z</time>
      </trkpt>
      <trkpt lat="-24.8219800" lon="-53.7579030">
        <ele>533.8</ele>
        <time>2018-09-14T17:38:40Z</time>
      </trkpt>
      <trkpt lat="-24.8219760" lon="-53.7578740">
        <ele>533.9</ele>
        <time>2018-09-14T17:38:41Z</time>
      </trkpt>
      <trkpt lat="-24.8219740" lon="-53.7578420">
        <ele>534.0</ele>
        <time>2018-09-14T17:38:42Z</time>
      </trkpt>
      <trkpt lat="-24.8219720" lon="-53.7578080">
        <ele>534.0</ele>
        <time>2018-09-14T17:38:43Z</time>
      </trkpt>
      <trkpt lat="-24.8219690" lon="-53.7577720">
        <ele>533.9</ele>
        <time>2018-09-14T17:38:44Z</time>
      </trkpt>
      <trkpt lat="-24.8219710" lon="-53.7577360">
        <ele>533.9</ele>
        <time>2018-09-14T17:38:45Z</time>
      </trkpt>
      <trkpt lat="-24.8219730" lon="-53.7577000">
        <ele>534.1</ele>
        <time>2018-09-14T17:38:46Z</time>
      </trkpt>
      <trkpt lat="-24.8219730" lon="-53.7576630">
        <ele>534.4</ele>
        <time>2018-09-14T17:38:47Z</time>
      </trkpt>
      <trkpt lat="-24.8219780" lon="-53.7576260">
        <ele>534.8</ele>
        <time>2018-09-14T17:38:48Z</time>
      </trkpt>
      <trkpt lat="-24.8219810" lon="-53.7575890">
        <ele>535.2</ele>
        <time>2018-09-14T17:38:49Z</time>
      </trkpt>
      <trkpt lat="-24.8219840" lon="-53.7575510">
        <ele>535.3</ele>
        <time>2018-09-14T17:38:50Z</time>
      </trkpt>
      <trkpt lat="-24.8219820" lon="-53.7575110">
        <ele>535.2</ele>
        <time>2018-09-14T17:38:51Z</time>
      </trkpt>
      <trkpt lat="-24.8219790" lon="-53.7574710">
        <ele>535.0</ele>
        <time>2018-09-14T17:38:52Z</time>
      </trkpt>
      <trkpt lat="-24.8219730" lon="-53.7574360">
        <ele>535.0</ele>
        <time>2018-09-14T17:38:53Z</time>
      </trkpt>
      <trkpt lat="-24.8219710" lon="-53.7574000">
        <ele>534.7</ele>
        <time>2018-09-14T17:38:54Z</time>
      </trkpt>
      <trkpt lat="-24.8219710" lon="-53.7573650">
        <ele>534.5</ele>
        <time>2018-09-14T17:38:55Z</time>
      </trkpt>
      <trkpt lat="-24.8219700" lon="-53.7573340">
        <ele>534.4</ele>
        <time>2018-09-14T17:38:56Z</time>
      </trkpt>
      <trkpt lat="-24.8219720" lon="-53.7573000">
        <ele>534.4</ele>
        <time>2018-09-14T17:38:57Z</time>
      </trkpt>
      <trkpt lat="-24.8219700" lon="-53.7572690">
        <ele>534.4</ele>
        <time>2018-09-14T17:38:58Z</time>
      </trkpt>
      <trkpt lat="-24.8219730" lon="-53.7572350">
        <ele>534.4</ele>
        <time>2018-09-14T17:38:59Z</time>
      </trkpt>
      <trkpt lat="-24.8219740" lon="-53.7572020">
        <ele>534.4</ele>
        <time>2018-09-14T17:39:00Z</time>
      </trkpt>
      <trkpt lat="-24.8219730" lon="-53.7571700">
        <ele>534.3</ele>
        <time>2018-09-14T17:39:01Z</time>
      </trkpt>
      <trkpt lat="-24.8219730" lon="-53.7571420">
        <ele>534.3</ele>
        <time>2018-09-14T17:39:02Z</time>
      </trkpt>
      <trkpt lat="-24.8219750" lon="-53.7571140">
        <ele>534.1</ele>
        <time>2018-09-14T17:39:03Z</time>
      </trkpt>
      <trkpt lat="-24.8219750" lon="-53.7570860">
        <ele>533.8</ele>
        <time>2018-09-14T17:39:04Z</time>
      </trkpt>
      <trkpt lat="-24.8219760" lon="-53.7570580">
        <ele>533.8</ele>
        <time>2018-09-14T17:39:05Z</time>
      </trkpt>
      <trkpt lat="-24.8219720" lon="-53.7570290">
        <ele>533.5</ele>
        <time>2018-09-14T17:39:06Z</time>
      </trkpt>
      <trkpt lat="-24.8219690" lon="-53.7569990">
        <ele>533.0</ele>
        <time>2018-09-14T17:39:07Z</time>
      </trkpt>
      <trkpt lat="-24.8219700" lon="-53.7569690">
        <ele>533.1</ele>
        <time>2018-09-14T17:39:08Z</time>
      </trkpt>
      <trkpt lat="-24.8219700" lon="-53.7569370">
        <ele>532.6</ele>
        <time>2018-09-14T17:39:09Z</time>
      </trkpt>
      <trkpt lat="-24.8219700" lon="-53.7569020">
        <ele>532.1</ele>
        <time>2018-09-14T17:39:10Z</time>
      </trkpt>
      <trkpt lat="-24.8219690" lon="-53.7568660">
        <ele>531.7</ele>
        <time>2018-09-14T17:39:11Z</time>
      </trkpt>
      <trkpt lat="-24.8219700" lon="-53.7568270">
        <ele>531.3</ele>
        <time>2018-09-14T17:39:12Z</time>
      </trkpt>
      <trkpt lat="-24.8219720" lon="-53.7567890">
        <ele>530.9</ele>
        <time>2018-09-14T17:39:13Z</time>
      </trkpt>
      <trkpt lat="-24.8219740" lon="-53.7567500">
        <ele>530.9</ele>
        <time>2018-09-14T17:39:14Z</time>
      </trkpt>
      <trkpt lat="-24.8219710" lon="-53.7567080">
        <ele>530.7</ele>
        <time>2018-09-14T17:39:15Z</time>
      </trkpt>
      <trkpt lat="-24.8219680" lon="-53.7566670">
        <ele>530.5</ele>
        <time>2018-09-14T17:39:16Z</time>
      </trkpt>
      <trkpt lat="-24.8219650" lon="-53.7566250">
        <ele>530.4</ele>
        <time>2018-09-14T17:39:17Z</time>
      </trkpt>
      <trkpt lat="-24.8219640" lon="-53.7565810">
        <ele>530.3</ele>
        <time>2018-09-14T17:39:18Z</time>
      </trkpt>
      <trkpt lat="-24.8219640" lon="-53.7565390">
        <ele>530.3</ele>
        <time>2018-09-14T17:39:19Z</time>
      </trkpt>
      <trkpt lat="-24.8219640" lon="-53.7564950">
        <ele>530.2</ele>
        <time>2018-09-14T17:39:20Z</time>
      </trkpt>
      <trkpt lat="-24.8219620" lon="-53.7564500">
        <ele>530.0</ele>
        <time>2018-09-14T17:39:21Z</time>
      </trkpt>
      <trkpt lat="-24.8219590" lon="-53.7564050">
        <ele>529.9</ele>
        <time>2018-09-14T17:39:22Z</time>
      </trkpt>
      <trkpt lat="-24.8219570" lon="-53.7563620">
        <ele>529.7</ele>
        <time>2018-09-14T17:39:23Z</time>
      </trkpt>
      <trkpt lat="-24.8219550" lon="-53.7563200">
        <ele>529.6</ele>
        <time>2018-09-14T17:39:24Z</time>
      </trkpt>
      <trkpt lat="-24.8219540" lon="-53.7562800">
        <ele>529.5</ele>
        <time>2018-09-14T17:39:25Z</time>
      </trkpt>
      <trkpt lat="-24.8219540" lon="-53.7562400">
        <ele>529.5</ele>
        <time>2018-09-14T17:39:26Z</time>
      </trkpt>
      <trkpt lat="-24.8219520" lon="-53.7562020">
        <ele>529.4</ele>
        <time>2018-09-14T17:39:27Z</time>
      </trkpt>
      <trkpt lat="-24.8219530" lon="-53.7561640">
        <ele>529.4</ele>
        <time>2018-09-14T17:39:28Z</time>
      </trkpt>
      <trkpt lat="-24.8219550" lon="-53.7561250">
        <ele>529.3</ele>
        <time>2018-09-14T17:39:29Z</time>
      </trkpt>
      <trkpt lat="-24.8219570" lon="-53.7560850">
        <ele>529.2</ele>
        <time>2018-09-14T17:39:30Z</time>
      </trkpt>
      <trkpt lat="-24.8219570" lon="-53.7560470">
        <ele>529.1</ele>
        <time>2018-09-14T17:39:31Z</time>
      </trkpt>
      <trkpt lat="-24.8219550" lon="-53.7560100">
        <ele>529.1</ele>
        <time>2018-09-14T17:39:32Z</time>
      </trkpt>
      <trkpt lat="-24.8219540" lon="-53.7559740">
        <ele>529.1</ele>
        <time>2018-09-14T17:39:33Z</time>
      </trkpt>
      <trkpt lat="-24.8219540" lon="-53.7559380">
        <ele>529.1</ele>
        <time>2018-09-14T17:39:34Z</time>
      </trkpt>
      <trkpt lat="-24.8219530" lon="-53.7559010">
        <ele>529.1</ele>
        <time>2018-09-14T17:39:35Z</time>
      </trkpt>
      <trkpt lat="-24.8219520" lon="-53.7558620">
        <ele>529.1</ele>
        <time>2018-09-14T17:39:36Z</time>
      </trkpt>
      <trkpt lat="-24.8219530" lon="-53.7558230">
        <ele>529.2</ele>
        <time>2018-09-14T17:39:37Z</time>
      </trkpt>
      <trkpt lat="-24.8219540" lon="-53.7557850">
        <ele>529.2</ele>
        <time>2018-09-14T17:39:38Z</time>
      </trkpt>
      <trkpt lat="-24.8219550" lon="-53.7557460">
        <ele>529.2</ele>
        <time>2018-09-14T17:39:39Z</time>
      </trkpt>
      <trkpt lat="-24.8219560" lon="-53.7557060">
        <ele>529.2</ele>
        <time>2018-09-14T17:39:40Z</time>
      </trkpt>
      <trkpt lat="-24.8219570" lon="-53.7556660">
        <ele>529.2</ele>
        <time>2018-09-14T17:39:41Z</time>
      </trkpt>
      <trkpt lat="-24.8219570" lon="-53.7556230">
        <ele>529.2</ele>
        <time>2018-09-14T17:39:42Z</time>
      </trkpt>
      <trkpt lat="-24.8219580" lon="-53.7555830">
        <ele>529.2</ele>
        <time>2018-09-14T17:39:43Z</time>
      </trkpt>
      <trkpt lat="-24.8219580" lon="-53.7555460">
        <ele>529.2</ele>
        <time>2018-09-14T17:39:44Z</time>
      </trkpt>
      <trkpt lat="-24.8219590" lon="-53.7555100">
        <ele>529.3</ele>
        <time>2018-09-14T17:39:45Z</time>
      </trkpt>
      <trkpt lat="-24.8219590" lon="-53.7554720">
        <ele>529.4</ele>
        <time>2018-09-14T17:39:46Z</time>
      </trkpt>
      <trkpt lat="-24.8219600" lon="-53.7554290">
        <ele>529.6</ele>
        <time>2018-09-14T17:39:47Z</time>
      </trkpt>
      <trkpt lat="-24.8219610" lon="-53.7553830">
        <ele>529.7</ele>
        <time>2018-09-14T17:39:48Z</time>
      </trkpt>
      <trkpt lat="-24.8219610" lon="-53.7553350">
        <ele>529.7</ele>
        <time>2018-09-14T17:39:49Z</time>
      </trkpt>
      <trkpt lat="-24.8219610" lon="-53.7552870">
        <ele>529.5</ele>
        <time>2018-09-14T17:39:50Z</time>
      </trkpt>
      <trkpt lat="-24.8219610" lon="-53.7552380">
        <ele>529.3</ele>
        <time>2018-09-14T17:39:51Z</time>
      </trkpt>
      <trkpt lat="-24.8219610" lon="-53.7551890">
        <ele>529.2</ele>
        <time>2018-09-14T17:39:52Z</time>
      </trkpt>
      <trkpt lat="-24.8219600" lon="-53.7551410">
        <ele>529.1</ele>
        <time>2018-09-14T17:39:53Z</time>
      </trkpt>
      <trkpt lat="-24.8219610" lon="-53.7550930">
        <ele>529.1</ele>
        <time>2018-09-14T17:39:54Z</time>
      </trkpt>
      <trkpt lat="-24.8219600" lon="-53.7550460">
        <ele>529.2</ele>
        <time>2018-09-14T17:39:55Z</time>
      </trkpt>
      <trkpt lat="-24.8219630" lon="-53.7550010">
        <ele>529.3</ele>
        <time>2018-09-14T17:39:56Z</time>
      </trkpt>
      <trkpt lat="-24.8219660" lon="-53.7549580">
        <ele>529.3</ele>
        <time>2018-09-14T17:39:57Z</time>
      </trkpt>
      <trkpt lat="-24.8219680" lon="-53.7549170">
        <ele>529.3</ele>
        <time>2018-09-14T17:39:58Z</time>
      </trkpt>
      <trkpt lat="-24.8219680" lon="-53.7548340">
        <ele>529.3</ele>
        <time>2018-09-14T17:39:59Z</time>
      </trkpt>
      <trkpt lat="-24.8219680" lon="-53.7547900">
        <ele>529.3</ele>
        <time>2018-09-14T17:40:01Z</time>
      </trkpt>
      <trkpt lat="-24.8219710" lon="-53.7546990">
        <ele>529.4</ele>
        <time>2018-09-14T17:40:02Z</time>
      </trkpt>
      <trkpt lat="-24.8219720" lon="-53.7546520">
        <ele>529.4</ele>
        <time>2018-09-14T17:40:03Z</time>
      </trkpt>
      <trkpt lat="-24.8219710" lon="-53.7546060">
        <ele>529.2</ele>
        <time>2018-09-14T17:40:04Z</time>
      </trkpt>
      <trkpt lat="-24.8219710" lon="-53.7545610">
        <ele>529.1</ele>
        <time>2018-09-14T17:40:05Z</time>
      </trkpt>
      <trkpt lat="-24.8219740" lon="-53.7544750">
        <ele>528.9</ele>
        <time>2018-09-14T17:40:07Z</time>
      </trkpt>
      <trkpt lat="-24.8219760" lon="-53.7544330">
        <ele>529.0</ele>
        <time>2018-09-14T17:40:08Z</time>
      </trkpt>
      <trkpt lat="-24.8219770" lon="-53.7543910">
        <ele>529.3</ele>
        <time>2018-09-14T17:40:09Z</time>
      </trkpt>
      <trkpt lat="-24.8219790" lon="-53.7543490">
        <ele>529.6</ele>
        <time>2018-09-14T17:40:10Z</time>
      </trkpt>
      <trkpt lat="-24.8219810" lon="-53.7543060">
        <ele>529.8</ele>
        <time>2018-09-14T17:40:11Z</time>
      </trkpt>
      <trkpt lat="-24.8219840" lon="-53.7542620">
        <ele>529.9</ele>
        <time>2018-09-14T17:40:12Z</time>
      </trkpt>
      <trkpt lat="-24.8219880" lon="-53.7542170">
        <ele>529.9</ele>
        <time>2018-09-14T17:40:13Z</time>
      </trkpt>
      <trkpt lat="-24.8219890" lon="-53.7541700">
        <ele>529.7</ele>
        <time>2018-09-14T17:40:14Z</time>
      </trkpt>
      <trkpt lat="-24.8219890" lon="-53.7541230">
        <ele>529.7</ele>
        <time>2018-09-14T17:40:15Z</time>
      </trkpt>
      <trkpt lat="-24.8219900" lon="-53.7540780">
        <ele>530.3</ele>
        <time>2018-09-14T17:40:16Z</time>
      </trkpt>
      <trkpt lat="-24.8219890" lon="-53.7540320">
        <ele>529.9</ele>
        <time>2018-09-14T17:40:17Z</time>
      </trkpt>
      <trkpt lat="-24.8219890" lon="-53.7539880">
        <ele>530.0</ele>
        <time>2018-09-14T17:40:18Z</time>
      </trkpt>
      <trkpt lat="-24.8219910" lon="-53.7539440">
        <ele>530.3</ele>
        <time>2018-09-14T17:40:19Z</time>
      </trkpt>
      <trkpt lat="-24.8219940" lon="-53.7539000">
        <ele>530.0</ele>
        <time>2018-09-14T17:40:20Z</time>
      </trkpt>
      <trkpt lat="-24.8219950" lon="-53.7538570">
        <ele>529.8</ele>
        <time>2018-09-14T17:40:21Z</time>
      </trkpt>
      <trkpt lat="-24.8219940" lon="-53.7538150">
        <ele>529.5</ele>
        <time>2018-09-14T17:40:22Z</time>
      </trkpt>
      <trkpt lat="-24.8219910" lon="-53.7537750">
        <ele>529.4</ele>
        <time>2018-09-14T17:40:23Z</time>
      </trkpt>
      <trkpt lat="-24.8219880" lon="-53.7537340">
        <ele>529.3</ele>
        <time>2018-09-14T17:40:24Z</time>
      </trkpt>
      <trkpt lat="-24.8219860" lon="-53.7536920">
        <ele>529.4</ele>
        <time>2018-09-14T17:40:25Z</time>
      </trkpt>
      <trkpt lat="-24.8219800" lon="-53.7536000">
        <ele>529.8</ele>
        <time>2018-09-14T17:40:27Z</time>
      </trkpt>
      <trkpt lat="-24.8219750" lon="-53.7535540">
        <ele>529.9</ele>
        <time>2018-09-14T17:40:28Z</time>
      </trkpt>
      <trkpt lat="-24.8219720" lon="-53.7535060">
        <ele>530.1</ele>
        <time>2018-09-14T17:40:29Z</time>
      </trkpt>
      <trkpt lat="-24.8219710" lon="-53.7534580">
        <ele>530.3</ele>
        <time>2018-09-14T17:40:30Z</time>
      </trkpt>
      <trkpt lat="-24.8219710" lon="-53.7534130">
        <ele>530.4</ele>
        <time>2018-09-14T17:40:31Z</time>
      </trkpt>
      <trkpt lat="-24.8219700" lon="-53.7533710">
        <ele>530.5</ele>
        <time>2018-09-14T17:40:32Z</time>
      </trkpt>
      <trkpt lat="-24.8219690" lon="-53.7533300">
        <ele>530.7</ele>
        <time>2018-09-14T17:40:33Z</time>
      </trkpt>
      <trkpt lat="-24.8219690" lon="-53.7532910">
        <ele>530.7</ele>
        <time>2018-09-14T17:40:34Z</time>
      </trkpt>
      <trkpt lat="-24.8219700" lon="-53.7532540">
        <ele>530.8</ele>
        <time>2018-09-14T17:40:35Z</time>
      </trkpt>
      <trkpt lat="-24.8219710" lon="-53.7532180">
        <ele>530.8</ele>
        <time>2018-09-14T17:40:36Z</time>
      </trkpt>
      <trkpt lat="-24.8219690" lon="-53.7531850">
        <ele>530.8</ele>
        <time>2018-09-14T17:40:37Z</time>
      </trkpt>
      <trkpt lat="-24.8219680" lon="-53.7531530">
        <ele>530.8</ele>
        <time>2018-09-14T17:40:38Z</time>
      </trkpt>
      <trkpt lat="-24.8219670" lon="-53.7531220">
        <ele>530.8</ele>
        <time>2018-09-14T17:40:39Z</time>
      </trkpt>
      <trkpt lat="-24.8219680" lon="-53.7530930">
        <ele>530.9</ele>
        <time>2018-09-14T17:40:40Z</time>
      </trkpt>
      <trkpt lat="-24.8219680" lon="-53.7530620">
        <ele>530.9</ele>
        <time>2018-09-14T17:40:41Z</time>
      </trkpt>
      <trkpt lat="-24.8219670" lon="-53.7530270">
        <ele>530.9</ele>
        <time>2018-09-14T17:40:42Z</time>
      </trkpt>
      <trkpt lat="-24.8219680" lon="-53.7529900">
        <ele>530.9</ele>
        <time>2018-09-14T17:40:43Z</time>
      </trkpt>
      <trkpt lat="-24.8219690" lon="-53.7529550">
        <ele>531.0</ele>
        <time>2018-09-14T17:40:44Z</time>
      </trkpt>
      <trkpt lat="-24.8219690" lon="-53.7529190">
        <ele>531.0</ele>
        <time>2018-09-14T17:40:45Z</time>
      </trkpt>
      <trkpt lat="-24.8219680" lon="-53.7528490">
        <ele>530.9</ele>
        <time>2018-09-14T17:40:47Z</time>
      </trkpt>
      <trkpt lat="-24.8219670" lon="-53.7528150">
        <ele>530.9</ele>
        <time>2018-09-14T17:40:48Z</time>
      </trkpt>
      <trkpt lat="-24.8219660" lon="-53.7527810">
        <ele>530.9</ele>
        <time>2018-09-14T17:40:49Z</time>
      </trkpt>
      <trkpt lat="-24.8219670" lon="-53.7527480">
        <ele>530.9</ele>
        <time>2018-09-14T17:40:50Z</time>
      </trkpt>
      <trkpt lat="-24.8219690" lon="-53.7527160">
        <ele>530.9</ele>
        <time>2018-09-14T17:40:51Z</time>
      </trkpt>
      <trkpt lat="-24.8219700" lon="-53.7526840">
        <ele>530.9</ele>
        <time>2018-09-14T17:40:52Z</time>
      </trkpt>
      <trkpt lat="-24.8219720" lon="-53.7526500">
        <ele>531.0</ele>
        <time>2018-09-14T17:40:53Z</time>
      </trkpt>
      <trkpt lat="-24.8219720" lon="-53.7526140">
        <ele>531.0</ele>
        <time>2018-09-14T17:40:54Z</time>
      </trkpt>
      <trkpt lat="-24.8219720" lon="-53.7525780">
        <ele>531.0</ele>
        <time>2018-09-14T17:40:55Z</time>
      </trkpt>
      <trkpt lat="-24.8219700" lon="-53.7525420">
        <ele>531.0</ele>
        <time>2018-09-14T17:40:56Z</time>
      </trkpt>
      <trkpt lat="-24.8219680" lon="-53.7525070">
        <ele>531.1</ele>
        <time>2018-09-14T17:40:57Z</time>
      </trkpt>
      <trkpt lat="-24.8219680" lon="-53.7524750">
        <ele>531.1</ele>
        <time>2018-09-14T17:40:58Z</time>
      </trkpt>
      <trkpt lat="-24.8219680" lon="-53.7524440">
        <ele>531.0</ele>
        <time>2018-09-14T17:40:59Z</time>
      </trkpt>
      <trkpt lat="-24.8219660" lon="-53.7524120">
        <ele>531.0</ele>
        <time>2018-09-14T17:41:00Z</time>
      </trkpt>
      <trkpt lat="-24.8219620" lon="-53.7523800">
        <ele>531.0</ele>
        <time>2018-09-14T17:41:01Z</time>
      </trkpt>
      <trkpt lat="-24.8219570" lon="-53.7523460">
        <ele>531.0</ele>
        <time>2018-09-14T17:41:02Z</time>
      </trkpt>
      <trkpt lat="-24.8219560" lon="-53.7523100">
        <ele>531.0</ele>
        <time>2018-09-14T17:41:03Z</time>
      </trkpt>
      <trkpt lat="-24.8219550" lon="-53.7522750">
        <ele>531.1</ele>
        <time>2018-09-14T17:41:04Z</time>
      </trkpt>
      <trkpt lat="-24.8219550" lon="-53.7522430">
        <ele>531.1</ele>
        <time>2018-09-14T17:41:05Z</time>
      </trkpt>
      <trkpt lat="-24.8219540" lon="-53.7522120">
        <ele>531.2</ele>
        <time>2018-09-14T17:41:06Z</time>
      </trkpt>
      <trkpt lat="-24.8219540" lon="-53.7521860">
        <ele>531.4</ele>
        <time>2018-09-14T17:41:07Z</time>
      </trkpt>
      <trkpt lat="-24.8219580" lon="-53.7521570">
        <ele>531.4</ele>
        <time>2018-09-14T17:41:08Z</time>
      </trkpt>
      <trkpt lat="-24.8219640" lon="-53.7521270">
        <ele>531.7</ele>
        <time>2018-09-14T17:41:09Z</time>
      </trkpt>
      <trkpt lat="-24.8219690" lon="-53.7520980">
        <ele>532.1</ele>
        <time>2018-09-14T17:41:10Z</time>
      </trkpt>
      <trkpt lat="-24.8219710" lon="-53.7520670">
        <ele>532.5</ele>
        <time>2018-09-14T17:41:11Z</time>
      </trkpt>
      <trkpt lat="-24.8219720" lon="-53.7520370">
        <ele>532.5</ele>
        <time>2018-09-14T17:41:12Z</time>
      </trkpt>
      <trkpt lat="-24.8219730" lon="-53.7520070">
        <ele>533.0</ele>
        <time>2018-09-14T17:41:13Z</time>
      </trkpt>
      <trkpt lat="-24.8219740" lon="-53.7519770">
        <ele>533.5</ele>
        <time>2018-09-14T17:41:14Z</time>
      </trkpt>
      <trkpt lat="-24.8219740" lon="-53.7519460">
        <ele>533.5</ele>
        <time>2018-09-14T17:41:15Z</time>
      </trkpt>
      <trkpt lat="-24.8219740" lon="-53.7519160">
        <ele>533.9</ele>
        <time>2018-09-14T17:41:16Z</time>
      </trkpt>
      <trkpt lat="-24.8219740" lon="-53.7518860">
        <ele>534.2</ele>
        <time>2018-09-14T17:41:17Z</time>
      </trkpt>
      <trkpt lat="-24.8219740" lon="-53.7518580">
        <ele>534.2</ele>
        <time>2018-09-14T17:41:18Z</time>
      </trkpt>
      <trkpt lat="-24.8219760" lon="-53.7518300">
        <ele>534.5</ele>
        <time>2018-09-14T17:41:19Z</time>
      </trkpt>
      <trkpt lat="-24.8219740" lon="-53.7518030">
        <ele>534.6</ele>
        <time>2018-09-14T17:41:20Z</time>
      </trkpt>
      <trkpt lat="-24.8219740" lon="-53.7517770">
        <ele>534.6</ele>
        <time>2018-09-14T17:41:21Z</time>
      </trkpt>
      <trkpt lat="-24.8219730" lon="-53.7517500">
        <ele>534.8</ele>
        <time>2018-09-14T17:41:22Z</time>
      </trkpt>
      <trkpt lat="-24.8219740" lon="-53.7517240">
        <ele>535.1</ele>
        <time>2018-09-14T17:41:23Z</time>
      </trkpt>
      <trkpt lat="-24.8219760" lon="-53.7517010">
        <ele>535.1</ele>
        <time>2018-09-14T17:41:24Z</time>
      </trkpt>
      <trkpt lat="-24.8219770" lon="-53.7516780">
        <ele>535.4</ele>
        <time>2018-09-14T17:41:25Z</time>
      </trkpt>
      <trkpt lat="-24.8219790" lon="-53.7516530">
        <ele>535.4</ele>
        <time>2018-09-14T17:41:26Z</time>
      </trkpt>
      <trkpt lat="-24.8219810" lon="-53.7516290">
        <ele>535.8</ele>
        <time>2018-09-14T17:41:27Z</time>
      </trkpt>
      <trkpt lat="-24.8219810" lon="-53.7516040">
        <ele>535.8</ele>
        <time>2018-09-14T17:41:28Z</time>
      </trkpt>
      <trkpt lat="-24.8219800" lon="-53.7515780">
        <ele>536.1</ele>
        <time>2018-09-14T17:41:29Z</time>
      </trkpt>
      <trkpt lat="-24.8219790" lon="-53.7515520">
        <ele>536.3</ele>
        <time>2018-09-14T17:41:30Z</time>
      </trkpt>
      <trkpt lat="-24.8219790" lon="-53.7515240">
        <ele>536.3</ele>
        <time>2018-09-14T17:41:31Z</time>
      </trkpt>
      <trkpt lat="-24.8219770" lon="-53.7514960">
        <ele>536.4</ele>
        <time>2018-09-14T17:41:32Z</time>
      </trkpt>
      <trkpt lat="-24.8219760" lon="-53.7514680">
        <ele>536.4</ele>
        <time>2018-09-14T17:41:33Z</time>
      </trkpt>
      <trkpt lat="-24.8219760" lon="-53.7514420">
        <ele>536.4</ele>
        <time>2018-09-14T17:41:34Z</time>
      </trkpt>
      <trkpt lat="-24.8219740" lon="-53.7514160">
        <ele>536.5</ele>
        <time>2018-09-14T17:41:35Z</time>
      </trkpt>
      <trkpt lat="-24.8219730" lon="-53.7513910">
        <ele>536.5</ele>
        <time>2018-09-14T17:41:36Z</time>
      </trkpt>
      <trkpt lat="-24.8219720" lon="-53.7513670">
        <ele>536.6</ele>
        <time>2018-09-14T17:41:37Z</time>
      </trkpt>
      <trkpt lat="-24.8219720" lon="-53.7513440">
        <ele>536.6</ele>
        <time>2018-09-14T17:41:38Z</time>
      </trkpt>
      <trkpt lat="-24.8219720" lon="-53.7513170">
        <ele>536.9</ele>
        <time>2018-09-14T17:41:39Z</time>
      </trkpt>
      <trkpt lat="-24.8219730" lon="-53.7512910">
        <ele>537.1</ele>
        <time>2018-09-14T17:41:40Z</time>
      </trkpt>
      <trkpt lat="-24.8219730" lon="-53.7512650">
        <ele>537.2</ele>
        <time>2018-09-14T17:41:41Z</time>
      </trkpt>
      <trkpt lat="-24.8219760" lon="-53.7512380">
        <ele>537.5</ele>
        <time>2018-09-14T17:41:42Z</time>
      </trkpt>
      <trkpt lat="-24.8219770" lon="-53.7512090">
        <ele>537.8</ele>
        <time>2018-09-14T17:41:43Z</time>
      </trkpt>
      <trkpt lat="-24.8219780" lon="-53.7511790">
        <ele>537.8</ele>
        <time>2018-09-14T17:41:44Z</time>
      </trkpt>
      <trkpt lat="-24.8219790" lon="-53.7511480">
        <ele>538.1</ele>
        <time>2018-09-14T17:41:45Z</time>
      </trkpt>
      <trkpt lat="-24.8219820" lon="-53.7511180">
        <ele>538.4</ele>
        <time>2018-09-14T17:41:46Z</time>
      </trkpt>
      <trkpt lat="-24.8219830" lon="-53.7510880">
        <ele>538.4</ele>
        <time>2018-09-14T17:41:47Z</time>
      </trkpt>
      <trkpt lat="-24.8219840" lon="-53.7510590">
        <ele>538.7</ele>
        <time>2018-09-14T17:41:48Z</time>
      </trkpt>
      <trkpt lat="-24.8219850" lon="-53.7510320">
        <ele>538.9</ele>
        <time>2018-09-14T17:41:49Z</time>
      </trkpt>
      <trkpt lat="-24.8219860" lon="-53.7510060">
        <ele>539.0</ele>
        <time>2018-09-14T17:41:50Z</time>
      </trkpt>
      <trkpt lat="-24.8219890" lon="-53.7509790">
        <ele>539.2</ele>
        <time>2018-09-14T17:41:51Z</time>
      </trkpt>
      <trkpt lat="-24.8219910" lon="-53.7509520">
        <ele>539.4</ele>
        <time>2018-09-14T17:41:52Z</time>
      </trkpt>
      <trkpt lat="-24.8219910" lon="-53.7509260">
        <ele>539.5</ele>
        <time>2018-09-14T17:41:53Z</time>
      </trkpt>
      <trkpt lat="-24.8219930" lon="-53.7508990">
        <ele>539.7</ele>
        <time>2018-09-14T17:41:54Z</time>
      </trkpt>
      <trkpt lat="-24.8219970" lon="-53.7508690">
        <ele>539.7</ele>
        <time>2018-09-14T17:41:55Z</time>
      </trkpt>
      <trkpt lat="-24.8220020" lon="-53.7508390">
        <ele>540.0</ele>
        <time>2018-09-14T17:41:56Z</time>
      </trkpt>
      <trkpt lat="-24.8220070" lon="-53.7508070">
        <ele>540.4</ele>
        <time>2018-09-14T17:41:57Z</time>
      </trkpt>
      <trkpt lat="-24.8220110" lon="-53.7507760">
        <ele>540.6</ele>
        <time>2018-09-14T17:41:58Z</time>
      </trkpt>
      <trkpt lat="-24.8220170" lon="-53.7507440">
        <ele>540.7</ele>
        <time>2018-09-14T17:41:59Z</time>
      </trkpt>
      <trkpt lat="-24.8220210" lon="-53.7507120">
        <ele>540.9</ele>
        <time>2018-09-14T17:42:00Z</time>
      </trkpt>
      <trkpt lat="-24.8220260" lon="-53.7506820">
        <ele>541.0</ele>
        <time>2018-09-14T17:42:01Z</time>
      </trkpt>
      <trkpt lat="-24.8220330" lon="-53.7506530">
        <ele>541.1</ele>
        <time>2018-09-14T17:42:02Z</time>
      </trkpt>
      <trkpt lat="-24.8220390" lon="-53.7506260">
        <ele>541.1</ele>
        <time>2018-09-14T17:42:03Z</time>
      </trkpt>
      <trkpt lat="-24.8220460" lon="-53.7506010">
        <ele>541.1</ele>
        <time>2018-09-14T17:42:04Z</time>
      </trkpt>
      <trkpt lat="-24.8220540" lon="-53.7505770">
        <ele>541.1</ele>
        <time>2018-09-14T17:42:05Z</time>
      </trkpt>
      <trkpt lat="-24.8220620" lon="-53.7505540">
        <ele>541.1</ele>
        <time>2018-09-14T17:42:06Z</time>
      </trkpt>
      <trkpt lat="-24.8220690" lon="-53.7505300">
        <ele>541.1</ele>
        <time>2018-09-14T17:42:07Z</time>
      </trkpt>
      <trkpt lat="-24.8220770" lon="-53.7505060">
        <ele>541.0</ele>
        <time>2018-09-14T17:42:08Z</time>
      </trkpt>
      <trkpt lat="-24.8220860" lon="-53.7504830">
        <ele>541.1</ele>
        <time>2018-09-14T17:42:09Z</time>
      </trkpt>
      <trkpt lat="-24.8220970" lon="-53.7504570">
        <ele>541.0</ele>
        <time>2018-09-14T17:42:10Z</time>
      </trkpt>
      <trkpt lat="-24.8221090" lon="-53.7504310">
        <ele>541.0</ele>
        <time>2018-09-14T17:42:11Z</time>
      </trkpt>
      <trkpt lat="-24.8221210" lon="-53.7504030">
        <ele>541.0</ele>
        <time>2018-09-14T17:42:12Z</time>
      </trkpt>
      <trkpt lat="-24.8221340" lon="-53.7503740">
        <ele>541.0</ele>
        <time>2018-09-14T17:42:13Z</time>
      </trkpt>
      <trkpt lat="-24.8221470" lon="-53.7503460">
        <ele>541.1</ele>
        <time>2018-09-14T17:42:14Z</time>
      </trkpt>
      <trkpt lat="-24.8221610" lon="-53.7503190">
        <ele>541.1</ele>
        <time>2018-09-14T17:42:15Z</time>
      </trkpt>
      <trkpt lat="-24.8221730" lon="-53.7502930">
        <ele>541.1</ele>
        <time>2018-09-14T17:42:16Z</time>
      </trkpt>
      <trkpt lat="-24.8221860" lon="-53.7502700">
        <ele>541.3</ele>
        <time>2018-09-14T17:42:17Z</time>
      </trkpt>
      <trkpt lat="-24.8221970" lon="-53.7502480">
        <ele>541.3</ele>
        <time>2018-09-14T17:42:18Z</time>
      </trkpt>
      <trkpt lat="-24.8221970" lon="-53.7502480">
        <ele>541.3</ele>
        <time>2018-09-14T17:42:19Z</time>
      </trkpt>
      <trkpt lat="-24.8222080" lon="-53.7502270">
        <ele>541.4</ele>
        <time>2018-09-14T17:42:20Z</time>
      </trkpt>
      <trkpt lat="-24.8222190" lon="-53.7502040">
        <ele>541.4</ele>
        <time>2018-09-14T17:42:21Z</time>
      </trkpt>
      <trkpt lat="-24.8222330" lon="-53.7501780">
        <ele>541.5</ele>
        <time>2018-09-14T17:42:22Z</time>
      </trkpt>
      <trkpt lat="-24.8222480" lon="-53.7501530">
        <ele>541.5</ele>
        <time>2018-09-14T17:42:23Z</time>
      </trkpt>
      <trkpt lat="-24.8222630" lon="-53.7501290">
        <ele>541.7</ele>
        <time>2018-09-14T17:42:24Z</time>
      </trkpt>
      <trkpt lat="-24.8222760" lon="-53.7501040">
        <ele>541.7</ele>
        <time>2018-09-14T17:42:25Z</time>
      </trkpt>
      <trkpt lat="-24.8222890" lon="-53.7500790">
        <ele>541.7</ele>
        <time>2018-09-14T17:42:26Z</time>
      </trkpt>
      <trkpt lat="-24.8223000" lon="-53.7500540">
        <ele>541.7</ele>
        <time>2018-09-14T17:42:27Z</time>
      </trkpt>
      <trkpt lat="-24.8223130" lon="-53.7500300">
        <ele>542.1</ele>
        <time>2018-09-14T17:42:28Z</time>
      </trkpt>
      <trkpt lat="-24.8223270" lon="-53.7500060">
        <ele>542.2</ele>
        <time>2018-09-14T17:42:29Z</time>
      </trkpt>
      <trkpt lat="-24.8223390" lon="-53.7499820">
        <ele>542.3</ele>
        <time>2018-09-14T17:42:30Z</time>
      </trkpt>
      <trkpt lat="-24.8223520" lon="-53.7499590">
        <ele>542.9</ele>
        <time>2018-09-14T17:42:31Z</time>
      </trkpt>
      <trkpt lat="-24.8223660" lon="-53.7499360">
        <ele>542.9</ele>
        <time>2018-09-14T17:42:32Z</time>
      </trkpt>
      <trkpt lat="-24.8223800" lon="-53.7499120">
        <ele>543.4</ele>
        <time>2018-09-14T17:42:33Z</time>
      </trkpt>
      <trkpt lat="-24.8223950" lon="-53.7498880">
        <ele>543.4</ele>
        <time>2018-09-14T17:42:34Z</time>
      </trkpt>
      <trkpt lat="-24.8224100" lon="-53.7498640">
        <ele>543.6</ele>
        <time>2018-09-14T17:42:35Z</time>
      </trkpt>
      <trkpt lat="-24.8224250" lon="-53.7498370">
        <ele>544.1</ele>
        <time>2018-09-14T17:42:36Z</time>
      </trkpt>
      <trkpt lat="-24.8224420" lon="-53.7498090">
        <ele>544.1</ele>
        <time>2018-09-14T17:42:37Z</time>
      </trkpt>
      <trkpt lat="-24.8224590" lon="-53.7497800">
        <ele>544.8</ele>
        <time>2018-09-14T17:42:38Z</time>
      </trkpt>
      <trkpt lat="-24.8224740" lon="-53.7497520">
        <ele>545.3</ele>
        <time>2018-09-14T17:42:39Z</time>
      </trkpt>
      <trkpt lat="-24.8224870" lon="-53.7497240">
        <ele>545.3</ele>
        <time>2018-09-14T17:42:40Z</time>
      </trkpt>
      <trkpt lat="-24.8225000" lon="-53.7496970">
        <ele>546.4</ele>
        <time>2018-09-14T17:42:41Z</time>
      </trkpt>
      <trkpt lat="-24.8225140" lon="-53.7496710">
        <ele>546.4</ele>
        <time>2018-09-14T17:42:42Z</time>
      </trkpt>
      <trkpt lat="-24.8225260" lon="-53.7496460">
        <ele>547.1</ele>
        <time>2018-09-14T17:42:43Z</time>
      </trkpt>
      <trkpt lat="-24.8225390" lon="-53.7496230">
        <ele>547.9</ele>
        <time>2018-09-14T17:42:44Z</time>
      </trkpt>
      <trkpt lat="-24.8225520" lon="-53.7496020">
        <ele>547.9</ele>
        <time>2018-09-14T17:42:45Z</time>
      </trkpt>
      <trkpt lat="-24.8225660" lon="-53.7495800">
        <ele>548.4</ele>
        <time>2018-09-14T17:42:46Z</time>
      </trkpt>
      <trkpt lat="-24.8225780" lon="-53.7495590">
        <ele>548.4</ele>
        <time>2018-09-14T17:42:47Z</time>
      </trkpt>
      <trkpt lat="-24.8225890" lon="-53.7495360">
        <ele>548.7</ele>
        <time>2018-09-14T17:42:48Z</time>
      </trkpt>
      <trkpt lat="-24.8226010" lon="-53.7495140">
        <ele>548.7</ele>
        <time>2018-09-14T17:42:49Z</time>
      </trkpt>
      <trkpt lat="-24.8226160" lon="-53.7494900">
        <ele>548.8</ele>
        <time>2018-09-14T17:42:50Z</time>
      </trkpt>
      <trkpt lat="-24.8226300" lon="-53.7494640">
        <ele>548.8</ele>
        <time>2018-09-14T17:42:51Z</time>
      </trkpt>
      <trkpt lat="-24.8226440" lon="-53.7494370">
        <ele>548.9</ele>
        <time>2018-09-14T17:42:52Z</time>
      </trkpt>
      <trkpt lat="-24.8226590" lon="-53.7494110">
        <ele>548.8</ele>
        <time>2018-09-14T17:42:53Z</time>
      </trkpt>
      <trkpt lat="-24.8226730" lon="-53.7493870">
        <ele>548.8</ele>
        <time>2018-09-14T17:42:54Z</time>
      </trkpt>
      <trkpt lat="-24.8226880" lon="-53.7493640">
        <ele>548.8</ele>
        <time>2018-09-14T17:42:55Z</time>
      </trkpt>
      <trkpt lat="-24.8227020" lon="-53.7493400">
        <ele>548.7</ele>
        <time>2018-09-14T17:42:56Z</time>
      </trkpt>
      <trkpt lat="-24.8227140" lon="-53.7493170">
        <ele>548.7</ele>
        <time>2018-09-14T17:42:57Z</time>
      </trkpt>
      <trkpt lat="-24.8227260" lon="-53.7492930">
        <ele>548.7</ele>
        <time>2018-09-14T17:42:58Z</time>
      </trkpt>
      <trkpt lat="-24.8227400" lon="-53.7492700">
        <ele>548.7</ele>
        <time>2018-09-14T17:42:59Z</time>
      </trkpt>
      <trkpt lat="-24.8227520" lon="-53.7492470">
        <ele>548.7</ele>
        <time>2018-09-14T17:43:00Z</time>
      </trkpt>
      <trkpt lat="-24.8227640" lon="-53.7492250">
        <ele>548.7</ele>
        <time>2018-09-14T17:43:01Z</time>
      </trkpt>
      <trkpt lat="-24.8227750" lon="-53.7492020">
        <ele>548.8</ele>
        <time>2018-09-14T17:43:02Z</time>
      </trkpt>
      <trkpt lat="-24.8227860" lon="-53.7491780">
        <ele>548.8</ele>
        <time>2018-09-14T17:43:03Z</time>
      </trkpt>
      <trkpt lat="-24.8227990" lon="-53.7491530">
        <ele>548.8</ele>
        <time>2018-09-14T17:43:04Z</time>
      </trkpt>
      <trkpt lat="-24.8228130" lon="-53.7491260">
        <ele>549.0</ele>
        <time>2018-09-14T17:43:05Z</time>
      </trkpt>
      <trkpt lat="-24.8228280" lon="-53.7490980">
        <ele>549.0</ele>
        <time>2018-09-14T17:43:06Z</time>
      </trkpt>
      <trkpt lat="-24.8228420" lon="-53.7490720">
        <ele>549.0</ele>
        <time>2018-09-14T17:43:07Z</time>
      </trkpt>
      <trkpt lat="-24.8228570" lon="-53.7490450">
        <ele>549.2</ele>
        <time>2018-09-14T17:43:08Z</time>
      </trkpt>
      <trkpt lat="-24.8228700" lon="-53.7490190">
        <ele>549.2</ele>
        <time>2018-09-14T17:43:09Z</time>
      </trkpt>
      <trkpt lat="-24.8228810" lon="-53.7489940">
        <ele>549.2</ele>
        <time>2018-09-14T17:43:10Z</time>
      </trkpt>
      <trkpt lat="-24.8228920" lon="-53.7489710">
        <ele>549.5</ele>
        <time>2018-09-14T17:43:11Z</time>
      </trkpt>
      <trkpt lat="-24.8229050" lon="-53.7489480">
        <ele>549.6</ele>
        <time>2018-09-14T17:43:12Z</time>
      </trkpt>
      <trkpt lat="-24.8229190" lon="-53.7489220">
        <ele>549.7</ele>
        <time>2018-09-14T17:43:13Z</time>
      </trkpt>
      <trkpt lat="-24.8229340" lon="-53.7488920">
        <ele>550.3</ele>
        <time>2018-09-14T17:43:14Z</time>
      </trkpt>
      <trkpt lat="-24.8229490" lon="-53.7488610">
        <ele>550.4</ele>
        <time>2018-09-14T17:43:15Z</time>
      </trkpt>
      <trkpt lat="-24.8229640" lon="-53.7488300">
        <ele>551.0</ele>
        <time>2018-09-14T17:43:16Z</time>
      </trkpt>
      <trkpt lat="-24.8229800" lon="-53.7488000">
        <ele>551.3</ele>
        <time>2018-09-14T17:43:17Z</time>
      </trkpt>
      <trkpt lat="-24.8229960" lon="-53.7487720">
        <ele>551.3</ele>
        <time>2018-09-14T17:43:18Z</time>
      </trkpt>
      <trkpt lat="-24.8230110" lon="-53.7487440">
        <ele>551.8</ele>
        <time>2018-09-14T17:43:19Z</time>
      </trkpt>
      <trkpt lat="-24.8230250" lon="-53.7487170">
        <ele>551.9</ele>
        <time>2018-09-14T17:43:20Z</time>
      </trkpt>
      <trkpt lat="-24.8230380" lon="-53.7486900">
        <ele>552.0</ele>
        <time>2018-09-14T17:43:21Z</time>
      </trkpt>
      <trkpt lat="-24.8230510" lon="-53.7486660">
        <ele>552.0</ele>
        <time>2018-09-14T17:43:22Z</time>
      </trkpt>
      <trkpt lat="-24.8230620" lon="-53.7486410">
        <ele>552.1</ele>
        <time>2018-09-14T17:43:23Z</time>
      </trkpt>
      <trkpt lat="-24.8230720" lon="-53.7486190">
        <ele>552.1</ele>
        <time>2018-09-14T17:43:24Z</time>
      </trkpt>
      <trkpt lat="-24.8230840" lon="-53.7485970">
        <ele>552.1</ele>
        <time>2018-09-14T17:43:25Z</time>
      </trkpt>
      <trkpt lat="-24.8230970" lon="-53.7485750">
        <ele>552.1</ele>
        <time>2018-09-14T17:43:26Z</time>
      </trkpt>
      <trkpt lat="-24.8231090" lon="-53.7485500">
        <ele>552.1</ele>
        <time>2018-09-14T17:43:27Z</time>
      </trkpt>
      <trkpt lat="-24.8231220" lon="-53.7485220">
        <ele>552.3</ele>
        <time>2018-09-14T17:43:28Z</time>
      </trkpt>
      <trkpt lat="-24.8231370" lon="-53.7484930">
        <ele>552.4</ele>
        <time>2018-09-14T17:43:29Z</time>
      </trkpt>
      <trkpt lat="-24.8231520" lon="-53.7484640">
        <ele>552.4</ele>
        <time>2018-09-14T17:43:30Z</time>
      </trkpt>
      <trkpt lat="-24.8231670" lon="-53.7484340">
        <ele>552.7</ele>
        <time>2018-09-14T17:43:31Z</time>
      </trkpt>
      <trkpt lat="-24.8231820" lon="-53.7484050">
        <ele>552.7</ele>
        <time>2018-09-14T17:43:32Z</time>
      </trkpt>
      <trkpt lat="-24.8231970" lon="-53.7483770">
        <ele>552.7</ele>
        <time>2018-09-14T17:43:33Z</time>
      </trkpt>
      <trkpt lat="-24.8232120" lon="-53.7483490">
        <ele>553.0</ele>
        <time>2018-09-14T17:43:34Z</time>
      </trkpt>
      <trkpt lat="-24.8232280" lon="-53.7483230">
        <ele>553.0</ele>
        <time>2018-09-14T17:43:35Z</time>
      </trkpt>
      <trkpt lat="-24.8232420" lon="-53.7482950">
        <ele>553.3</ele>
        <time>2018-09-14T17:43:36Z</time>
      </trkpt>
      <trkpt lat="-24.8232560" lon="-53.7482680">
        <ele>553.3</ele>
        <time>2018-09-14T17:43:37Z</time>
      </trkpt>
      <trkpt lat="-24.8232700" lon="-53.7482410">
        <ele>553.2</ele>
        <time>2018-09-14T17:43:38Z</time>
      </trkpt>
      <trkpt lat="-24.8232840" lon="-53.7482150">
        <ele>553.4</ele>
        <time>2018-09-14T17:43:39Z</time>
      </trkpt>
      <trkpt lat="-24.8232970" lon="-53.7481910">
        <ele>553.4</ele>
        <time>2018-09-14T17:43:40Z</time>
      </trkpt>
      <trkpt lat="-24.8233090" lon="-53.7481680">
        <ele>553.4</ele>
        <time>2018-09-14T17:43:41Z</time>
      </trkpt>
      <trkpt lat="-24.8233210" lon="-53.7481440">
        <ele>553.7</ele>
        <time>2018-09-14T17:43:42Z</time>
      </trkpt>
      <trkpt lat="-24.8233320" lon="-53.7481210">
        <ele>553.8</ele>
        <time>2018-09-14T17:43:43Z</time>
      </trkpt>
      <trkpt lat="-24.8233480" lon="-53.7480950">
        <ele>553.8</ele>
        <time>2018-09-14T17:43:44Z</time>
      </trkpt>
      <trkpt lat="-24.8233650" lon="-53.7480660">
        <ele>554.2</ele>
        <time>2018-09-14T17:43:45Z</time>
      </trkpt>
      <trkpt lat="-24.8233800" lon="-53.7480360">
        <ele>554.2</ele>
        <time>2018-09-14T17:43:46Z</time>
      </trkpt>
      <trkpt lat="-24.8233960" lon="-53.7480050">
        <ele>554.4</ele>
        <time>2018-09-14T17:43:47Z</time>
      </trkpt>
      <trkpt lat="-24.8234130" lon="-53.7479730">
        <ele>554.5</ele>
        <time>2018-09-14T17:43:48Z</time>
      </trkpt>
      <trkpt lat="-24.8234300" lon="-53.7479420">
        <ele>554.6</ele>
        <time>2018-09-14T17:43:49Z</time>
      </trkpt>
      <trkpt lat="-24.8234480" lon="-53.7479110">
        <ele>554.6</ele>
        <time>2018-09-14T17:43:50Z</time>
      </trkpt>
      <trkpt lat="-24.8234650" lon="-53.7478810">
        <ele>554.8</ele>
        <time>2018-09-14T17:43:51Z</time>
      </trkpt>
      <trkpt lat="-24.8234800" lon="-53.7478510">
        <ele>554.9</ele>
        <time>2018-09-14T17:43:52Z</time>
      </trkpt>
      <trkpt lat="-24.8234930" lon="-53.7478230">
        <ele>555.0</ele>
        <time>2018-09-14T17:43:53Z</time>
      </trkpt>
      <trkpt lat="-24.8235090" lon="-53.7478010">
        <ele>554.9</ele>
        <time>2018-09-14T17:43:54Z</time>
      </trkpt>
      <trkpt lat="-24.8235240" lon="-53.7477820">
        <ele>554.9</ele>
        <time>2018-09-14T17:43:55Z</time>
      </trkpt>
      <trkpt lat="-24.8235370" lon="-53.7477620">
        <ele>555.0</ele>
        <time>2018-09-14T17:43:56Z</time>
      </trkpt>
      <trkpt lat="-24.8235510" lon="-53.7477390">
        <ele>554.8</ele>
        <time>2018-09-14T17:43:57Z</time>
      </trkpt>
      <trkpt lat="-24.8235650" lon="-53.7477130">
        <ele>555.0</ele>
        <time>2018-09-14T17:43:58Z</time>
      </trkpt>
      <trkpt lat="-24.8235950" lon="-53.7476560">
        <ele>555.1</ele>
        <time>2018-09-14T17:43:59Z</time>
      </trkpt>
      <trkpt lat="-24.8236110" lon="-53.7476250">
        <ele>555.4</ele>
        <time>2018-09-14T17:44:00Z</time>
      </trkpt>
      <trkpt lat="-24.8236290" lon="-53.7475940">
        <ele>555.9</ele>
        <time>2018-09-14T17:44:01Z</time>
      </trkpt>
      <trkpt lat="-24.8236630" lon="-53.7475270">
        <ele>556.4</ele>
        <time>2018-09-14T17:44:03Z</time>
      </trkpt>
      <trkpt lat="-24.8236810" lon="-53.7474940">
        <ele>556.9</ele>
        <time>2018-09-14T17:44:04Z</time>
      </trkpt>
      <trkpt lat="-24.8236980" lon="-53.7474610">
        <ele>557.5</ele>
        <time>2018-09-14T17:44:05Z</time>
      </trkpt>
      <trkpt lat="-24.8237150" lon="-53.7474290">
        <ele>558.0</ele>
        <time>2018-09-14T17:44:06Z</time>
      </trkpt>
      <trkpt lat="-24.8237310" lon="-53.7473970">
        <ele>558.0</ele>
        <time>2018-09-14T17:44:07Z</time>
      </trkpt>
      <trkpt lat="-24.8237440" lon="-53.7473640">
        <ele>558.6</ele>
        <time>2018-09-14T17:44:08Z</time>
      </trkpt>
      <trkpt lat="-24.8237560" lon="-53.7473330">
        <ele>559.2</ele>
        <time>2018-09-14T17:44:09Z</time>
      </trkpt>
      <trkpt lat="-24.8237720" lon="-53.7473020">
        <ele>559.7</ele>
        <time>2018-09-14T17:44:10Z</time>
      </trkpt>
      <trkpt lat="-24.8237900" lon="-53.7472690">
        <ele>559.8</ele>
        <time>2018-09-14T17:44:11Z</time>
      </trkpt>
      <trkpt lat="-24.8238090" lon="-53.7472360">
        <ele>560.1</ele>
        <time>2018-09-14T17:44:12Z</time>
      </trkpt>
      <trkpt lat="-24.8238280" lon="-53.7472020">
        <ele>560.2</ele>
        <time>2018-09-14T17:44:13Z</time>
      </trkpt>
      <trkpt lat="-24.8238460" lon="-53.7471680">
        <ele>560.1</ele>
        <time>2018-09-14T17:44:14Z</time>
      </trkpt>
      <trkpt lat="-24.8238650" lon="-53.7471330">
        <ele>560.0</ele>
        <time>2018-09-14T17:44:15Z</time>
      </trkpt>
      <trkpt lat="-24.8238840" lon="-53.7471000">
        <ele>560.0</ele>
        <time>2018-09-14T17:44:16Z</time>
      </trkpt>
      <trkpt lat="-24.8239020" lon="-53.7470650">
        <ele>559.9</ele>
        <time>2018-09-14T17:44:17Z</time>
      </trkpt>
      <trkpt lat="-24.8239210" lon="-53.7470320">
        <ele>560.0</ele>
        <time>2018-09-14T17:44:18Z</time>
      </trkpt>
      <trkpt lat="-24.8239400" lon="-53.7469980">
        <ele>560.1</ele>
        <time>2018-09-14T17:44:19Z</time>
      </trkpt>
      <trkpt lat="-24.8239590" lon="-53.7469640">
        <ele>560.1</ele>
        <time>2018-09-14T17:44:20Z</time>
      </trkpt>
      <trkpt lat="-24.8239950" lon="-53.7468950">
        <ele>560.0</ele>
        <time>2018-09-14T17:44:22Z</time>
      </trkpt>
      <trkpt lat="-24.8240130" lon="-53.7468620">
        <ele>559.9</ele>
        <time>2018-09-14T17:44:23Z</time>
      </trkpt>
      <trkpt lat="-24.8240310" lon="-53.7468270">
        <ele>560.0</ele>
        <time>2018-09-14T17:44:24Z</time>
      </trkpt>
      <trkpt lat="-24.8240510" lon="-53.7467920">
        <ele>560.0</ele>
        <time>2018-09-14T17:44:25Z</time>
      </trkpt>
      <trkpt lat="-24.8240700" lon="-53.7467560">
        <ele>560.2</ele>
        <time>2018-09-14T17:44:26Z</time>
      </trkpt>
      <trkpt lat="-24.8240900" lon="-53.7467210">
        <ele>560.1</ele>
        <time>2018-09-14T17:44:27Z</time>
      </trkpt>
      <trkpt lat="-24.8241090" lon="-53.7466860">
        <ele>560.0</ele>
        <time>2018-09-14T17:44:28Z</time>
      </trkpt>
      <trkpt lat="-24.8241280" lon="-53.7466500">
        <ele>559.7</ele>
        <time>2018-09-14T17:44:29Z</time>
      </trkpt>
      <trkpt lat="-24.8241470" lon="-53.7466160">
        <ele>559.8</ele>
        <time>2018-09-14T17:44:30Z</time>
      </trkpt>
      <trkpt lat="-24.8241650" lon="-53.7465810">
        <ele>559.8</ele>
        <time>2018-09-14T17:44:31Z</time>
      </trkpt>
      <trkpt lat="-24.8241840" lon="-53.7465460">
        <ele>560.0</ele>
        <time>2018-09-14T17:44:32Z</time>
      </trkpt>
      <trkpt lat="-24.8242040" lon="-53.7465080">
        <ele>559.7</ele>
        <time>2018-09-14T17:44:33Z</time>
      </trkpt>
      <trkpt lat="-24.8242240" lon="-53.7464710">
        <ele>559.6</ele>
        <time>2018-09-14T17:44:34Z</time>
      </trkpt>
      <trkpt lat="-24.8242450" lon="-53.7464330">
        <ele>559.4</ele>
        <time>2018-09-14T17:44:35Z</time>
      </trkpt>
      <trkpt lat="-24.8242670" lon="-53.7463940">
        <ele>559.4</ele>
        <time>2018-09-14T17:44:36Z</time>
      </trkpt>
      <trkpt lat="-24.8242880" lon="-53.7463540">
        <ele>559.5</ele>
        <time>2018-09-14T17:44:37Z</time>
      </trkpt>
      <trkpt lat="-24.8243110" lon="-53.7463140">
        <ele>559.4</ele>
        <time>2018-09-14T17:44:38Z</time>
      </trkpt>
      <trkpt lat="-24.8243330" lon="-53.7462730">
        <ele>559.4</ele>
        <time>2018-09-14T17:44:39Z</time>
      </trkpt>
      <trkpt lat="-24.8243560" lon="-53.7462310">
        <ele>559.2</ele>
        <time>2018-09-14T17:44:40Z</time>
      </trkpt>
      <trkpt lat="-24.8243790" lon="-53.7461890">
        <ele>559.0</ele>
        <time>2018-09-14T17:44:41Z</time>
      </trkpt>
      <trkpt lat="-24.8244030" lon="-53.7461450">
        <ele>558.7</ele>
        <time>2018-09-14T17:44:42Z</time>
      </trkpt>
      <trkpt lat="-24.8244280" lon="-53.7461020">
        <ele>558.6</ele>
        <time>2018-09-14T17:44:43Z</time>
      </trkpt>
      <trkpt lat="-24.8244530" lon="-53.7460580">
        <ele>558.6</ele>
        <time>2018-09-14T17:44:44Z</time>
      </trkpt>
      <trkpt lat="-24.8244810" lon="-53.7460170">
        <ele>558.4</ele>
        <time>2018-09-14T17:44:45Z</time>
      </trkpt>
      <trkpt lat="-24.8245100" lon="-53.7459750">
        <ele>558.5</ele>
        <time>2018-09-14T17:44:46Z</time>
      </trkpt>
      <trkpt lat="-24.8245370" lon="-53.7459320">
        <ele>558.7</ele>
        <time>2018-09-14T17:44:47Z</time>
      </trkpt>
      <trkpt lat="-24.8245620" lon="-53.7458870">
        <ele>558.9</ele>
        <time>2018-09-14T17:44:48Z</time>
      </trkpt>
      <trkpt lat="-24.8245850" lon="-53.7458440">
        <ele>558.7</ele>
        <time>2018-09-14T17:44:49Z</time>
      </trkpt>
      <trkpt lat="-24.8246060" lon="-53.7457990">
        <ele>559.0</ele>
        <time>2018-09-14T17:44:50Z</time>
      </trkpt>
      <trkpt lat="-24.8246210" lon="-53.7457480">
        <ele>558.8</ele>
        <time>2018-09-14T17:44:51Z</time>
      </trkpt>
      <trkpt lat="-24.8246380" lon="-53.7456960">
        <ele>558.6</ele>
        <time>2018-09-14T17:44:52Z</time>
      </trkpt>
      <trkpt lat="-24.8246610" lon="-53.7456440">
        <ele>558.9</ele>
        <time>2018-09-14T17:44:53Z</time>
      </trkpt>
      <trkpt lat="-24.8246870" lon="-53.7455950">
        <ele>559.0</ele>
        <time>2018-09-14T17:44:54Z</time>
      </trkpt>
      <trkpt lat="-24.8247140" lon="-53.7455480">
        <ele>558.8</ele>
        <time>2018-09-14T17:44:55Z</time>
      </trkpt>
      <trkpt lat="-24.8247410" lon="-53.7454990">
        <ele>558.6</ele>
        <time>2018-09-14T17:44:56Z</time>
      </trkpt>
      <trkpt lat="-24.8247670" lon="-53.7454480">
        <ele>558.5</ele>
        <time>2018-09-14T17:44:57Z</time>
      </trkpt>
      <trkpt lat="-24.8247940" lon="-53.7453970">
        <ele>558.3</ele>
        <time>2018-09-14T17:44:58Z</time>
      </trkpt>
      <trkpt lat="-24.8248200" lon="-53.7453460">
        <ele>558.3</ele>
        <time>2018-09-14T17:44:59Z</time>
      </trkpt>
      <trkpt lat="-24.8248450" lon="-53.7452950">
        <ele>558.4</ele>
        <time>2018-09-14T17:45:00Z</time>
      </trkpt>
      <trkpt lat="-24.8248700" lon="-53.7452440">
        <ele>557.9</ele>
        <time>2018-09-14T17:45:01Z</time>
      </trkpt>
      <trkpt lat="-24.8248980" lon="-53.7451970">
        <ele>557.6</ele>
        <time>2018-09-14T17:45:02Z</time>
      </trkpt>
      <trkpt lat="-24.8249260" lon="-53.7451500">
        <ele>557.1</ele>
        <time>2018-09-14T17:45:03Z</time>
      </trkpt>
      <trkpt lat="-24.8249540" lon="-53.7450990">
        <ele>556.3</ele>
        <time>2018-09-14T17:45:04Z</time>
      </trkpt>
      <trkpt lat="-24.8249790" lon="-53.7450470">
        <ele>555.8</ele>
        <time>2018-09-14T17:45:05Z</time>
      </trkpt>
      <trkpt lat="-24.8250060" lon="-53.7449950">
        <ele>555.2</ele>
        <time>2018-09-14T17:45:06Z</time>
      </trkpt>
      <trkpt lat="-24.8250330" lon="-53.7449430">
        <ele>554.4</ele>
        <time>2018-09-14T17:45:07Z</time>
      </trkpt>
      <trkpt lat="-24.8250600" lon="-53.7448930">
        <ele>554.0</ele>
        <time>2018-09-14T17:45:08Z</time>
      </trkpt>
      <trkpt lat="-24.8250880" lon="-53.7448430">
        <ele>554.0</ele>
        <time>2018-09-14T17:45:09Z</time>
      </trkpt>
      <trkpt lat="-24.8251160" lon="-53.7447900">
        <ele>554.0</ele>
        <time>2018-09-14T17:45:10Z</time>
      </trkpt>
      <trkpt lat="-24.8251430" lon="-53.7447360">
        <ele>553.8</ele>
        <time>2018-09-14T17:45:11Z</time>
      </trkpt>
      <trkpt lat="-24.8251710" lon="-53.7446820">
        <ele>553.8</ele>
        <time>2018-09-14T17:45:12Z</time>
      </trkpt>
      <trkpt lat="-24.8252000" lon="-53.7446290">
        <ele>554.1</ele>
        <time>2018-09-14T17:45:13Z</time>
      </trkpt>
      <trkpt lat="-24.8252290" lon="-53.7445770">
        <ele>554.3</ele>
        <time>2018-09-14T17:45:14Z</time>
      </trkpt>
      <trkpt lat="-24.8252570" lon="-53.7445250">
        <ele>554.3</ele>
        <time>2018-09-14T17:45:15Z</time>
      </trkpt>
      <trkpt lat="-24.8252860" lon="-53.7444740">
        <ele>554.5</ele>
        <time>2018-09-14T17:45:16Z</time>
      </trkpt>
      <trkpt lat="-24.8253140" lon="-53.7444220">
        <ele>555.0</ele>
        <time>2018-09-14T17:45:17Z</time>
      </trkpt>
      <trkpt lat="-24.8253400" lon="-53.7443700">
        <ele>555.3</ele>
        <time>2018-09-14T17:45:18Z</time>
      </trkpt>
      <trkpt lat="-24.8253680" lon="-53.7443200">
        <ele>555.1</ele>
        <time>2018-09-14T17:45:19Z</time>
      </trkpt>
      <trkpt lat="-24.8253960" lon="-53.7442710">
        <ele>555.2</ele>
        <time>2018-09-14T17:45:20Z</time>
      </trkpt>
      <trkpt lat="-24.8254230" lon="-53.7442210">
        <ele>555.1</ele>
        <time>2018-09-14T17:45:21Z</time>
      </trkpt>
      <trkpt lat="-24.8254500" lon="-53.7441700">
        <ele>554.4</ele>
        <time>2018-09-14T17:45:22Z</time>
      </trkpt>
      <trkpt lat="-24.8254780" lon="-53.7441200">
        <ele>554.1</ele>
        <time>2018-09-14T17:45:23Z</time>
      </trkpt>
      <trkpt lat="-24.8255070" lon="-53.7440730">
        <ele>553.7</ele>
        <time>2018-09-14T17:45:24Z</time>
      </trkpt>
      <trkpt lat="-24.8255360" lon="-53.7440270">
        <ele>553.6</ele>
        <time>2018-09-14T17:45:25Z</time>
      </trkpt>
      <trkpt lat="-24.8255620" lon="-53.7439800">
        <ele>553.3</ele>
        <time>2018-09-14T17:45:26Z</time>
      </trkpt>
      <trkpt lat="-24.8255890" lon="-53.7439330">
        <ele>553.3</ele>
        <time>2018-09-14T17:45:27Z</time>
      </trkpt>
      <trkpt lat="-24.8256140" lon="-53.7438870">
        <ele>553.4</ele>
        <time>2018-09-14T17:45:28Z</time>
      </trkpt>
      <trkpt lat="-24.8256390" lon="-53.7438420">
        <ele>553.1</ele>
        <time>2018-09-14T17:45:29Z</time>
      </trkpt>
      <trkpt lat="-24.8256640" lon="-53.7437990">
        <ele>553.0</ele>
        <time>2018-09-14T17:45:30Z</time>
      </trkpt>
      <trkpt lat="-24.8256900" lon="-53.7437560">
        <ele>552.8</ele>
        <time>2018-09-14T17:45:31Z</time>
      </trkpt>
      <trkpt lat="-24.8257150" lon="-53.7437140">
        <ele>552.7</ele>
        <time>2018-09-14T17:45:32Z</time>
      </trkpt>
      <trkpt lat="-24.8257390" lon="-53.7436730">
        <ele>552.8</ele>
        <time>2018-09-14T17:45:33Z</time>
      </trkpt>
      <trkpt lat="-24.8257640" lon="-53.7436330">
        <ele>552.7</ele>
        <time>2018-09-14T17:45:34Z</time>
      </trkpt>
      <trkpt lat="-24.8257880" lon="-53.7435940">
        <ele>553.0</ele>
        <time>2018-09-14T17:45:35Z</time>
      </trkpt>
      <trkpt lat="-24.8258110" lon="-53.7435560">
        <ele>553.5</ele>
        <time>2018-09-14T17:45:36Z</time>
      </trkpt>
      <trkpt lat="-24.8258320" lon="-53.7435190">
        <ele>553.5</ele>
        <time>2018-09-14T17:45:37Z</time>
      </trkpt>
      <trkpt lat="-24.8258520" lon="-53.7434820">
        <ele>553.8</ele>
        <time>2018-09-14T17:45:38Z</time>
      </trkpt>
      <trkpt lat="-24.8258710" lon="-53.7434500">
        <ele>553.8</ele>
        <time>2018-09-14T17:45:39Z</time>
      </trkpt>
      <trkpt lat="-24.8258900" lon="-53.7434220">
        <ele>553.7</ele>
        <time>2018-09-14T17:45:40Z</time>
      </trkpt>
      <trkpt lat="-24.8259070" lon="-53.7433940">
        <ele>553.5</ele>
        <time>2018-09-14T17:45:41Z</time>
      </trkpt>
      <trkpt lat="-24.8259220" lon="-53.7433650">
        <ele>553.5</ele>
        <time>2018-09-14T17:45:42Z</time>
      </trkpt>
      <trkpt lat="-24.8259370" lon="-53.7433320">
        <ele>553.2</ele>
        <time>2018-09-14T17:45:43Z</time>
      </trkpt>
      <trkpt lat="-24.8259530" lon="-53.7433000">
        <ele>553.0</ele>
        <time>2018-09-14T17:45:44Z</time>
      </trkpt>
      <trkpt lat="-24.8259700" lon="-53.7432660">
        <ele>552.8</ele>
        <time>2018-09-14T17:45:45Z</time>
      </trkpt>
      <trkpt lat="-24.8259870" lon="-53.7432290">
        <ele>552.8</ele>
        <time>2018-09-14T17:45:46Z</time>
      </trkpt>
      <trkpt lat="-24.8260040" lon="-53.7431910">
        <ele>552.5</ele>
        <time>2018-09-14T17:45:47Z</time>
      </trkpt>
      <trkpt lat="-24.8260230" lon="-53.7431520">
        <ele>552.3</ele>
        <time>2018-09-14T17:45:48Z</time>
      </trkpt>
      <trkpt lat="-24.8260420" lon="-53.7431150">
        <ele>552.2</ele>
        <time>2018-09-14T17:45:49Z</time>
      </trkpt>
      <trkpt lat="-24.8260620" lon="-53.7430770">
        <ele>552.2</ele>
        <time>2018-09-14T17:45:50Z</time>
      </trkpt>
      <trkpt lat="-24.8260820" lon="-53.7430370">
        <ele>552.4</ele>
        <time>2018-09-14T17:45:51Z</time>
      </trkpt>
      <trkpt lat="-24.8261020" lon="-53.7429970">
        <ele>552.4</ele>
        <time>2018-09-14T17:45:52Z</time>
      </trkpt>
      <trkpt lat="-24.8261230" lon="-53.7429570">
        <ele>552.3</ele>
        <time>2018-09-14T17:45:53Z</time>
      </trkpt>
      <trkpt lat="-24.8261430" lon="-53.7429160">
        <ele>552.1</ele>
        <time>2018-09-14T17:45:54Z</time>
      </trkpt>
      <trkpt lat="-24.8261640" lon="-53.7428750">
        <ele>551.8</ele>
        <time>2018-09-14T17:45:55Z</time>
      </trkpt>
      <trkpt lat="-24.8261860" lon="-53.7428360">
        <ele>551.5</ele>
        <time>2018-09-14T17:45:56Z</time>
      </trkpt>
      <trkpt lat="-24.8262090" lon="-53.7427970">
        <ele>551.2</ele>
        <time>2018-09-14T17:45:57Z</time>
      </trkpt>
      <trkpt lat="-24.8262300" lon="-53.7427580">
        <ele>551.3</ele>
        <time>2018-09-14T17:45:58Z</time>
      </trkpt>
      <trkpt lat="-24.8262500" lon="-53.7427180">
        <ele>551.0</ele>
        <time>2018-09-14T17:45:59Z</time>
      </trkpt>
      <trkpt lat="-24.8262710" lon="-53.7426780">
        <ele>550.8</ele>
        <time>2018-09-14T17:46:00Z</time>
      </trkpt>
      <trkpt lat="-24.8262910" lon="-53.7426380">
        <ele>550.7</ele>
        <time>2018-09-14T17:46:01Z</time>
      </trkpt>
      <trkpt lat="-24.8263120" lon="-53.7426000">
        <ele>550.5</ele>
        <time>2018-09-14T17:46:02Z</time>
      </trkpt>
      <trkpt lat="-24.8263330" lon="-53.7425620">
        <ele>550.8</ele>
        <time>2018-09-14T17:46:03Z</time>
      </trkpt>
      <trkpt lat="-24.8263520" lon="-53.7425240">
        <ele>550.7</ele>
        <time>2018-09-14T17:46:04Z</time>
      </trkpt>
      <trkpt lat="-24.8263730" lon="-53.7424860">
        <ele>551.2</ele>
        <time>2018-09-14T17:46:05Z</time>
      </trkpt>
      <trkpt lat="-24.8263930" lon="-53.7424470">
        <ele>551.4</ele>
        <time>2018-09-14T17:46:06Z</time>
      </trkpt>
      <trkpt lat="-24.8264130" lon="-53.7424090">
        <ele>551.1</ele>
        <time>2018-09-14T17:46:07Z</time>
      </trkpt>
      <trkpt lat="-24.8264320" lon="-53.7423700">
        <ele>551.3</ele>
        <time>2018-09-14T17:46:08Z</time>
      </trkpt>
      <trkpt lat="-24.8264510" lon="-53.7423310">
        <ele>551.3</ele>
        <time>2018-09-14T17:46:09Z</time>
      </trkpt>
      <trkpt lat="-24.8264730" lon="-53.7422930">
        <ele>551.7</ele>
        <time>2018-09-14T17:46:10Z</time>
      </trkpt>
      <trkpt lat="-24.8264940" lon="-53.7422550">
        <ele>551.6</ele>
        <time>2018-09-14T17:46:11Z</time>
      </trkpt>
      <trkpt lat="-24.8265140" lon="-53.7422170">
        <ele>552.1</ele>
        <time>2018-09-14T17:46:12Z</time>
      </trkpt>
      <trkpt lat="-24.8265340" lon="-53.7421790">
        <ele>552.2</ele>
        <time>2018-09-14T17:46:13Z</time>
      </trkpt>
      <trkpt lat="-24.8265340" lon="-53.7421790">
        <ele>552.2</ele>
        <time>2018-09-14T17:46:14Z</time>
      </trkpt>
      <trkpt lat="-24.8265540" lon="-53.7421440">
        <ele>552.7</ele>
        <time>2018-09-14T17:46:15Z</time>
      </trkpt>
      <trkpt lat="-24.8265740" lon="-53.7421080">
        <ele>552.9</ele>
        <time>2018-09-14T17:46:16Z</time>
      </trkpt>
      <trkpt lat="-24.8265940" lon="-53.7420730">
        <ele>553.3</ele>
        <time>2018-09-14T17:46:17Z</time>
      </trkpt>
      <trkpt lat="-24.8266140" lon="-53.7420380">
        <ele>553.4</ele>
        <time>2018-09-14T17:46:18Z</time>
      </trkpt>
      <trkpt lat="-24.8266340" lon="-53.7420030">
        <ele>553.7</ele>
        <time>2018-09-14T17:46:19Z</time>
      </trkpt>
      <trkpt lat="-24.8266520" lon="-53.7419680">
        <ele>553.6</ele>
        <time>2018-09-14T17:46:20Z</time>
      </trkpt>
      <trkpt lat="-24.8266670" lon="-53.7419300">
        <ele>553.6</ele>
        <time>2018-09-14T17:46:21Z</time>
      </trkpt>
      <trkpt lat="-24.8266840" lon="-53.7418930">
        <ele>553.6</ele>
        <time>2018-09-14T17:46:22Z</time>
      </trkpt>
      <trkpt lat="-24.8267020" lon="-53.7418550">
        <ele>553.7</ele>
        <time>2018-09-14T17:46:23Z</time>
      </trkpt>
      <trkpt lat="-24.8267220" lon="-53.7418190">
        <ele>553.7</ele>
        <time>2018-09-14T17:46:24Z</time>
      </trkpt>
      <trkpt lat="-24.8267430" lon="-53.7417850">
        <ele>553.7</ele>
        <time>2018-09-14T17:46:25Z</time>
      </trkpt>
      <trkpt lat="-24.8267640" lon="-53.7417500">
        <ele>553.7</ele>
        <time>2018-09-14T17:46:26Z</time>
      </trkpt>
      <trkpt lat="-24.8267840" lon="-53.7417140">
        <ele>553.6</ele>
        <time>2018-09-14T17:46:27Z</time>
      </trkpt>
      <trkpt lat="-24.8268040" lon="-53.7416770">
        <ele>553.7</ele>
        <time>2018-09-14T17:46:28Z</time>
      </trkpt>
      <trkpt lat="-24.8268240" lon="-53.7416390">
        <ele>553.8</ele>
        <time>2018-09-14T17:46:29Z</time>
      </trkpt>
      <trkpt lat="-24.8268440" lon="-53.7415990">
        <ele>553.8</ele>
        <time>2018-09-14T17:46:30Z</time>
      </trkpt>
      <trkpt lat="-24.8268640" lon="-53.7415580">
        <ele>553.9</ele>
        <time>2018-09-14T17:46:31Z</time>
      </trkpt>
      <trkpt lat="-24.8268850" lon="-53.7415160">
        <ele>554.0</ele>
        <time>2018-09-14T17:46:32Z</time>
      </trkpt>
      <trkpt lat="-24.8269060" lon="-53.7414760">
        <ele>554.0</ele>
        <time>2018-09-14T17:46:33Z</time>
      </trkpt>
      <trkpt lat="-24.8269260" lon="-53.7414370">
        <ele>554.0</ele>
        <time>2018-09-14T17:46:34Z</time>
      </trkpt>
      <trkpt lat="-24.8269450" lon="-53.7414000">
        <ele>554.1</ele>
        <time>2018-09-14T17:46:35Z</time>
      </trkpt>
      <trkpt lat="-24.8269630" lon="-53.7413630">
        <ele>554.1</ele>
        <time>2018-09-14T17:46:36Z</time>
      </trkpt>
      <trkpt lat="-24.8269820" lon="-53.7413240">
        <ele>554.2</ele>
        <time>2018-09-14T17:46:37Z</time>
      </trkpt>
      <trkpt lat="-24.8270000" lon="-53.7412850">
        <ele>554.0</ele>
        <time>2018-09-14T17:46:38Z</time>
      </trkpt>
      <trkpt lat="-24.8270190" lon="-53.7412460">
        <ele>553.9</ele>
        <time>2018-09-14T17:46:39Z</time>
      </trkpt>
      <trkpt lat="-24.8270390" lon="-53.7412080">
        <ele>553.5</ele>
        <time>2018-09-14T17:46:40Z</time>
      </trkpt>
      <trkpt lat="-24.8270590" lon="-53.7411720">
        <ele>553.7</ele>
        <time>2018-09-14T17:46:41Z</time>
      </trkpt>
      <trkpt lat="-24.8270780" lon="-53.7411370">
        <ele>553.3</ele>
        <time>2018-09-14T17:46:42Z</time>
      </trkpt>
      <trkpt lat="-24.8270950" lon="-53.7411020">
        <ele>553.0</ele>
        <time>2018-09-14T17:46:43Z</time>
      </trkpt>
      <trkpt lat="-24.8271130" lon="-53.7410680">
        <ele>552.6</ele>
        <time>2018-09-14T17:46:44Z</time>
      </trkpt>
      <trkpt lat="-24.8271320" lon="-53.7410330">
        <ele>552.4</ele>
        <time>2018-09-14T17:46:45Z</time>
      </trkpt>
      <trkpt lat="-24.8271540" lon="-53.7410000">
        <ele>552.4</ele>
        <time>2018-09-14T17:46:46Z</time>
      </trkpt>
      <trkpt lat="-24.8271790" lon="-53.7409670">
        <ele>552.0</ele>
        <time>2018-09-14T17:46:47Z</time>
      </trkpt>
      <trkpt lat="-24.8272050" lon="-53.7409340">
        <ele>551.4</ele>
        <time>2018-09-14T17:46:48Z</time>
      </trkpt>
      <trkpt lat="-24.8272330" lon="-53.7408990">
        <ele>550.8</ele>
        <time>2018-09-14T17:46:49Z</time>
      </trkpt>
      <trkpt lat="-24.8272640" lon="-53.7408660">
        <ele>550.3</ele>
        <time>2018-09-14T17:46:50Z</time>
      </trkpt>
      <trkpt lat="-24.8272960" lon="-53.7408310">
        <ele>550.4</ele>
        <time>2018-09-14T17:46:51Z</time>
      </trkpt>
      <trkpt lat="-24.8273310" lon="-53.7407980">
        <ele>550.1</ele>
        <time>2018-09-14T17:46:52Z</time>
      </trkpt>
      <trkpt lat="-24.8273640" lon="-53.7407670">
        <ele>550.3</ele>
        <time>2018-09-14T17:46:53Z</time>
      </trkpt>
      <trkpt lat="-24.8273970" lon="-53.7407400">
        <ele>550.4</ele>
        <time>2018-09-14T17:46:54Z</time>
      </trkpt>
      <trkpt lat="-24.8274330" lon="-53.7407210">
        <ele>550.5</ele>
        <time>2018-09-14T17:46:55Z</time>
      </trkpt>
      <trkpt lat="-24.8274700" lon="-53.7407150">
        <ele>550.6</ele>
        <time>2018-09-14T17:46:56Z</time>
      </trkpt>
      <trkpt lat="-24.8275040" lon="-53.7407190">
        <ele>550.7</ele>
        <time>2018-09-14T17:46:57Z</time>
      </trkpt>
      <trkpt lat="-24.8275370" lon="-53.7407290">
        <ele>550.8</ele>
        <time>2018-09-14T17:46:58Z</time>
      </trkpt>
      <trkpt lat="-24.8275660" lon="-53.7407380">
        <ele>551.0</ele>
        <time>2018-09-14T17:46:59Z</time>
      </trkpt>
      <trkpt lat="-24.8275950" lon="-53.7407450">
        <ele>551.1</ele>
        <time>2018-09-14T17:47:00Z</time>
      </trkpt>
      <trkpt lat="-24.8276260" lon="-53.7407500">
        <ele>551.2</ele>
        <time>2018-09-14T17:47:01Z</time>
      </trkpt>
      <trkpt lat="-24.8276550" lon="-53.7407540">
        <ele>551.3</ele>
        <time>2018-09-14T17:47:02Z</time>
      </trkpt>
      <trkpt lat="-24.8276830" lon="-53.7407630">
        <ele>551.5</ele>
        <time>2018-09-14T17:47:03Z</time>
      </trkpt>
      <trkpt lat="-24.8277100" lon="-53.7407750">
        <ele>551.6</ele>
        <time>2018-09-14T17:47:04Z</time>
      </trkpt>
      <trkpt lat="-24.8277360" lon="-53.7407880">
        <ele>551.7</ele>
        <time>2018-09-14T17:47:05Z</time>
      </trkpt>
      <trkpt lat="-24.8277630" lon="-53.7408010">
        <ele>551.8</ele>
        <time>2018-09-14T17:47:06Z</time>
      </trkpt>
      <trkpt lat="-24.8277890" lon="-53.7408140">
        <ele>551.9</ele>
        <time>2018-09-14T17:47:07Z</time>
      </trkpt>
      <trkpt lat="-24.8278150" lon="-53.7408260">
        <ele>552.0</ele>
        <time>2018-09-14T17:47:08Z</time>
      </trkpt>
      <trkpt lat="-24.8278430" lon="-53.7408380">
        <ele>552.1</ele>
        <time>2018-09-14T17:47:09Z</time>
      </trkpt>
      <trkpt lat="-24.8278730" lon="-53.7408490">
        <ele>552.2</ele>
        <time>2018-09-14T17:47:10Z</time>
      </trkpt>
      <trkpt lat="-24.8279040" lon="-53.7408620">
        <ele>552.3</ele>
        <time>2018-09-14T17:47:11Z</time>
      </trkpt>
      <trkpt lat="-24.8279360" lon="-53.7408760">
        <ele>552.4</ele>
        <time>2018-09-14T17:47:12Z</time>
      </trkpt>
      <trkpt lat="-24.8279680" lon="-53.7408880">
        <ele>552.5</ele>
        <time>2018-09-14T17:47:13Z</time>
      </trkpt>
      <trkpt lat="-24.8280000" lon="-53.7408990">
        <ele>552.7</ele>
        <time>2018-09-14T17:47:14Z</time>
      </trkpt>
      <trkpt lat="-24.8280320" lon="-53.7409110">
        <ele>552.8</ele>
        <time>2018-09-14T17:47:15Z</time>
      </trkpt>
      <trkpt lat="-24.8280620" lon="-53.7409230">
        <ele>552.9</ele>
        <time>2018-09-14T17:47:16Z</time>
      </trkpt>
      <trkpt lat="-24.8280910" lon="-53.7409340">
        <ele>553.0</ele>
        <time>2018-09-14T17:47:17Z</time>
      </trkpt>
      <trkpt lat="-24.8281190" lon="-53.7409420">
        <ele>553.1</ele>
        <time>2018-09-14T17:47:18Z</time>
      </trkpt>
      <trkpt lat="-24.8281460" lon="-53.7409490">
        <ele>553.2</ele>
        <time>2018-09-14T17:47:19Z</time>
      </trkpt>
      <trkpt lat="-24.8281700" lon="-53.7409550">
        <ele>553.2</ele>
        <time>2018-09-14T17:47:20Z</time>
      </trkpt>
      <trkpt lat="-24.8281930" lon="-53.7409630">
        <ele>553.3</ele>
        <time>2018-09-14T17:47:21Z</time>
      </trkpt>
      <trkpt lat="-24.8282140" lon="-53.7409700">
        <ele>553.4</ele>
        <time>2018-09-14T17:47:22Z</time>
      </trkpt>
      <trkpt lat="-24.8282370" lon="-53.7409810">
        <ele>553.5</ele>
        <time>2018-09-14T17:47:23Z</time>
      </trkpt>
      <trkpt lat="-24.8282610" lon="-53.7409940">
        <ele>553.6</ele>
        <time>2018-09-14T17:47:24Z</time>
      </trkpt>
      <trkpt lat="-24.8282870" lon="-53.7410070">
        <ele>553.8</ele>
        <time>2018-09-14T17:47:25Z</time>
      </trkpt>
      <trkpt lat="-24.8283150" lon="-53.7410220">
        <ele>553.8</ele>
        <time>2018-09-14T17:47:26Z</time>
      </trkpt>
      <trkpt lat="-24.8283450" lon="-53.7410340">
        <ele>553.9</ele>
        <time>2018-09-14T17:47:27Z</time>
      </trkpt>
      <trkpt lat="-24.8283750" lon="-53.7410450">
        <ele>554.0</ele>
        <time>2018-09-14T17:47:28Z</time>
      </trkpt>
      <trkpt lat="-24.8284030" lon="-53.7410540">
        <ele>554.1</ele>
        <time>2018-09-14T17:47:29Z</time>
      </trkpt>
      <trkpt lat="-24.8284300" lon="-53.7410620">
        <ele>554.1</ele>
        <time>2018-09-14T17:47:30Z</time>
      </trkpt>
      <trkpt lat="-24.8284540" lon="-53.7410700">
        <ele>554.2</ele>
        <time>2018-09-14T17:47:31Z</time>
      </trkpt>
      <trkpt lat="-24.8284770" lon="-53.7410780">
        <ele>554.3</ele>
        <time>2018-09-14T17:47:32Z</time>
      </trkpt>
      <trkpt lat="-24.8284980" lon="-53.7410860">
        <ele>554.3</ele>
        <time>2018-09-14T17:47:33Z</time>
      </trkpt>
      <trkpt lat="-24.8285170" lon="-53.7410910">
        <ele>554.4</ele>
        <time>2018-09-14T17:47:34Z</time>
      </trkpt>
      <trkpt lat="-24.8285360" lon="-53.7410960">
        <ele>554.4</ele>
        <time>2018-09-14T17:47:35Z</time>
      </trkpt>
      <trkpt lat="-24.8285570" lon="-53.7411000">
        <ele>554.5</ele>
        <time>2018-09-14T17:47:36Z</time>
      </trkpt>
      <trkpt lat="-24.8285790" lon="-53.7411070">
        <ele>554.6</ele>
        <time>2018-09-14T17:47:37Z</time>
      </trkpt>
      <trkpt lat="-24.8286030" lon="-53.7411160">
        <ele>554.7</ele>
        <time>2018-09-14T17:47:38Z</time>
      </trkpt>
      <trkpt lat="-24.8286290" lon="-53.7411250">
        <ele>554.9</ele>
        <time>2018-09-14T17:47:39Z</time>
      </trkpt>
      <trkpt lat="-24.8286550" lon="-53.7411360">
        <ele>555.0</ele>
        <time>2018-09-14T17:47:40Z</time>
      </trkpt>
      <trkpt lat="-24.8286810" lon="-53.7411460">
        <ele>555.1</ele>
        <time>2018-09-14T17:47:41Z</time>
      </trkpt>
      <trkpt lat="-24.8287080" lon="-53.7411560">
        <ele>555.2</ele>
        <time>2018-09-14T17:47:42Z</time>
      </trkpt>
      <trkpt lat="-24.8287340" lon="-53.7411660">
        <ele>555.2</ele>
        <time>2018-09-14T17:47:43Z</time>
      </trkpt>
      <trkpt lat="-24.8287590" lon="-53.7411770">
        <ele>555.3</ele>
        <time>2018-09-14T17:47:44Z</time>
      </trkpt>
      <trkpt lat="-24.8287840" lon="-53.7411870">
        <ele>555.4</ele>
        <time>2018-09-14T17:47:45Z</time>
      </trkpt>
      <trkpt lat="-24.8288090" lon="-53.7411970">
        <ele>555.4</ele>
        <time>2018-09-14T17:47:46Z</time>
      </trkpt>
      <trkpt lat="-24.8288320" lon="-53.7412080">
        <ele>555.5</ele>
        <time>2018-09-14T17:47:47Z</time>
      </trkpt>
      <trkpt lat="-24.8288560" lon="-53.7412180">
        <ele>555.5</ele>
        <time>2018-09-14T17:47:48Z</time>
      </trkpt>
      <trkpt lat="-24.8288820" lon="-53.7412270">
        <ele>555.6</ele>
        <time>2018-09-14T17:47:49Z</time>
      </trkpt>
      <trkpt lat="-24.8289050" lon="-53.7412350">
        <ele>555.6</ele>
        <time>2018-09-14T17:47:50Z</time>
      </trkpt>
      <trkpt lat="-24.8289290" lon="-53.7412430">
        <ele>555.7</ele>
        <time>2018-09-14T17:47:51Z</time>
      </trkpt>
      <trkpt lat="-24.8289530" lon="-53.7412520">
        <ele>555.8</ele>
        <time>2018-09-14T17:47:52Z</time>
      </trkpt>
      <trkpt lat="-24.8289770" lon="-53.7412620">
        <ele>555.9</ele>
        <time>2018-09-14T17:47:53Z</time>
      </trkpt>
      <trkpt lat="-24.8290290" lon="-53.7412810">
        <ele>556.1</ele>
        <time>2018-09-14T17:47:54Z</time>
      </trkpt>
      <trkpt lat="-24.8290550" lon="-53.7412890">
        <ele>556.1</ele>
        <time>2018-09-14T17:47:55Z</time>
      </trkpt>
      <trkpt lat="-24.8290810" lon="-53.7412970">
        <ele>556.2</ele>
        <time>2018-09-14T17:47:56Z</time>
      </trkpt>
      <trkpt lat="-24.8291340" lon="-53.7413140">
        <ele>556.3</ele>
        <time>2018-09-14T17:47:58Z</time>
      </trkpt>
      <trkpt lat="-24.8291590" lon="-53.7413240">
        <ele>556.4</ele>
        <time>2018-09-14T17:47:59Z</time>
      </trkpt>
      <trkpt lat="-24.8291850" lon="-53.7413350">
        <ele>556.4</ele>
        <time>2018-09-14T17:48:00Z</time>
      </trkpt>
      <trkpt lat="-24.8292090" lon="-53.7413460">
        <ele>556.5</ele>
        <time>2018-09-14T17:48:01Z</time>
      </trkpt>
      <trkpt lat="-24.8292340" lon="-53.7413570">
        <ele>556.5</ele>
        <time>2018-09-14T17:48:02Z</time>
      </trkpt>
      <trkpt lat="-24.8292570" lon="-53.7413680">
        <ele>556.6</ele>
        <time>2018-09-14T17:48:03Z</time>
      </trkpt>
      <trkpt lat="-24.8292790" lon="-53.7413770">
        <ele>556.7</ele>
        <time>2018-09-14T17:48:04Z</time>
      </trkpt>
      <trkpt lat="-24.8293010" lon="-53.7413850">
        <ele>556.7</ele>
        <time>2018-09-14T17:48:05Z</time>
      </trkpt>
      <trkpt lat="-24.8293210" lon="-53.7413930">
        <ele>556.8</ele>
        <time>2018-09-14T17:48:06Z</time>
      </trkpt>
      <trkpt lat="-24.8293400" lon="-53.7414010">
        <ele>556.9</ele>
        <time>2018-09-14T17:48:07Z</time>
      </trkpt>
      <trkpt lat="-24.8293590" lon="-53.7414100">
        <ele>557.0</ele>
        <time>2018-09-14T17:48:08Z</time>
      </trkpt>
      <trkpt lat="-24.8293800" lon="-53.7414190">
        <ele>557.0</ele>
        <time>2018-09-14T17:48:09Z</time>
      </trkpt>
      <trkpt lat="-24.8294020" lon="-53.7414260">
        <ele>557.1</ele>
        <time>2018-09-14T17:48:10Z</time>
      </trkpt>
      <trkpt lat="-24.8294230" lon="-53.7414330">
        <ele>557.1</ele>
        <time>2018-09-14T17:48:11Z</time>
      </trkpt>
      <trkpt lat="-24.8294430" lon="-53.7414390">
        <ele>557.2</ele>
        <time>2018-09-14T17:48:12Z</time>
      </trkpt>
      <trkpt lat="-24.8294610" lon="-53.7414450">
        <ele>557.2</ele>
        <time>2018-09-14T17:48:13Z</time>
      </trkpt>
      <trkpt lat="-24.8294780" lon="-53.7414520">
        <ele>557.2</ele>
        <time>2018-09-14T17:48:14Z</time>
      </trkpt>
      <trkpt lat="-24.8294950" lon="-53.7414600">
        <ele>557.3</ele>
        <time>2018-09-14T17:48:15Z</time>
      </trkpt>
      <trkpt lat="-24.8295120" lon="-53.7414680">
        <ele>557.3</ele>
        <time>2018-09-14T17:48:16Z</time>
      </trkpt>
      <trkpt lat="-24.8295500" lon="-53.7414850">
        <ele>557.4</ele>
        <time>2018-09-14T17:48:18Z</time>
      </trkpt>
      <trkpt lat="-24.8295690" lon="-53.7414940">
        <ele>557.5</ele>
        <time>2018-09-14T17:48:19Z</time>
      </trkpt>
      <trkpt lat="-24.8295900" lon="-53.7415000">
        <ele>557.5</ele>
        <time>2018-09-14T17:48:20Z</time>
      </trkpt>
      <trkpt lat="-24.8296110" lon="-53.7415050">
        <ele>557.6</ele>
        <time>2018-09-14T17:48:21Z</time>
      </trkpt>
      <trkpt lat="-24.8296320" lon="-53.7415100">
        <ele>557.7</ele>
        <time>2018-09-14T17:48:22Z</time>
      </trkpt>
      <trkpt lat="-24.8296510" lon="-53.7415150">
        <ele>557.8</ele>
        <time>2018-09-14T17:48:23Z</time>
      </trkpt>
      <trkpt lat="-24.8296710" lon="-53.7415200">
        <ele>557.8</ele>
        <time>2018-09-14T17:48:24Z</time>
      </trkpt>
      <trkpt lat="-24.8296890" lon="-53.7415240">
        <ele>557.9</ele>
        <time>2018-09-14T17:48:25Z</time>
      </trkpt>
      <trkpt lat="-24.8297070" lon="-53.7415300">
        <ele>557.9</ele>
        <time>2018-09-14T17:48:26Z</time>
      </trkpt>
      <trkpt lat="-24.8297230" lon="-53.7415370">
        <ele>557.9</ele>
        <time>2018-09-14T17:48:27Z</time>
      </trkpt>
      <trkpt lat="-24.8297380" lon="-53.7415430">
        <ele>557.9</ele>
        <time>2018-09-14T17:48:28Z</time>
      </trkpt>
      <trkpt lat="-24.8297500" lon="-53.7415460">
        <ele>558.0</ele>
        <time>2018-09-14T17:48:29Z</time>
      </trkpt>
      <trkpt lat="-24.8297620" lon="-53.7415430">
        <ele>558.0</ele>
        <time>2018-09-14T17:48:30Z</time>
      </trkpt>
      <trkpt lat="-24.8297710" lon="-53.7415380">
        <ele>558.0</ele>
        <time>2018-09-14T17:48:31Z</time>
      </trkpt>
      <trkpt lat="-24.8297810" lon="-53.7415320">
        <ele>558.0</ele>
        <time>2018-09-14T17:48:32Z</time>
      </trkpt>
      <trkpt lat="-24.8297890" lon="-53.7415250">
        <ele>558.0</ele>
        <time>2018-09-14T17:48:33Z</time>
      </trkpt>
      <trkpt lat="-24.8297980" lon="-53.7415200">
        <ele>558.1</ele>
        <time>2018-09-14T17:48:34Z</time>
      </trkpt>
      <trkpt lat="-24.8298080" lon="-53.7415120">
        <ele>558.1</ele>
        <time>2018-09-14T17:48:35Z</time>
      </trkpt>
      <trkpt lat="-24.8298290" lon="-53.7414850">
        <ele>558.1</ele>
        <time>2018-09-14T17:48:37Z</time>
      </trkpt>
      <trkpt lat="-24.8298420" lon="-53.7414650">
        <ele>558.2</ele>
        <time>2018-09-14T17:48:38Z</time>
      </trkpt>
      <trkpt lat="-24.8298550" lon="-53.7414450">
        <ele>558.2</ele>
        <time>2018-09-14T17:48:39Z</time>
      </trkpt>
      <trkpt lat="-24.8298690" lon="-53.7414230">
        <ele>558.3</ele>
        <time>2018-09-14T17:48:40Z</time>
      </trkpt>
      <trkpt lat="-24.8298850" lon="-53.7413990">
        <ele>558.3</ele>
        <time>2018-09-14T17:48:41Z</time>
      </trkpt>
      <trkpt lat="-24.8299020" lon="-53.7413740">
        <ele>558.1</ele>
        <time>2018-09-14T17:48:42Z</time>
      </trkpt>
      <trkpt lat="-24.8299170" lon="-53.7413480">
        <ele>558.1</ele>
        <time>2018-09-14T17:48:43Z</time>
      </trkpt>
      <trkpt lat="-24.8299310" lon="-53.7413230">
        <ele>557.8</ele>
        <time>2018-09-14T17:48:44Z</time>
      </trkpt>
      <trkpt lat="-24.8299450" lon="-53.7412950">
        <ele>557.5</ele>
        <time>2018-09-14T17:48:45Z</time>
      </trkpt>
      <trkpt lat="-24.8299590" lon="-53.7412670">
        <ele>557.5</ele>
        <time>2018-09-14T17:48:46Z</time>
      </trkpt>
      <trkpt lat="-24.8299720" lon="-53.7412390">
        <ele>557.1</ele>
        <time>2018-09-14T17:48:47Z</time>
      </trkpt>
      <trkpt lat="-24.8299820" lon="-53.7412110">
        <ele>556.5</ele>
        <time>2018-09-14T17:48:48Z</time>
      </trkpt>
      <trkpt lat="-24.8299910" lon="-53.7411840">
        <ele>556.5</ele>
        <time>2018-09-14T17:48:49Z</time>
      </trkpt>
      <trkpt lat="-24.8299980" lon="-53.7411580">
        <ele>556.0</ele>
        <time>2018-09-14T17:48:50Z</time>
      </trkpt>
      <trkpt lat="-24.8299950" lon="-53.7411280">
        <ele>556.0</ele>
        <time>2018-09-14T17:48:51Z</time>
      </trkpt>
      <trkpt lat="-24.8299830" lon="-53.7411040">
        <ele>555.4</ele>
        <time>2018-09-14T17:48:52Z</time>
      </trkpt>
      <trkpt lat="-24.8299650" lon="-53.7410900">
        <ele>555.6</ele>
        <time>2018-09-14T17:48:53Z</time>
      </trkpt>
      <trkpt lat="-24.8299500" lon="-53.7410870">
        <ele>555.6</ele>
        <time>2018-09-14T17:48:54Z</time>
      </trkpt>
      <trkpt lat="-24.8299320" lon="-53.7410910">
        <ele>555.7</ele>
        <time>2018-09-14T17:48:55Z</time>
      </trkpt>
      <trkpt lat="-24.8299220" lon="-53.7411060">
        <ele>555.6</ele>
        <time>2018-09-14T17:48:56Z</time>
      </trkpt>
      <trkpt lat="-24.8299190" lon="-53.7411290">
        <ele>556.1</ele>
        <time>2018-09-14T17:48:57Z</time>
      </trkpt>
      <trkpt lat="-24.8299190" lon="-53.7411550">
        <ele>556.1</ele>
        <time>2018-09-14T17:48:58Z</time>
      </trkpt>
      <trkpt lat="-24.8299240" lon="-53.7411790">
        <ele>556.6</ele>
        <time>2018-09-14T17:48:59Z</time>
      </trkpt>
      <trkpt lat="-24.8299230" lon="-53.7412070">
        <ele>556.6</ele>
        <time>2018-09-14T17:49:00Z</time>
      </trkpt>
      <trkpt lat="-24.8299240" lon="-53.7412320">
        <ele>557.0</ele>
        <time>2018-09-14T17:49:01Z</time>
      </trkpt>
      <trkpt lat="-24.8299220" lon="-53.7412560">
        <ele>557.4</ele>
        <time>2018-09-14T17:49:02Z</time>
      </trkpt>
      <trkpt lat="-24.8299190" lon="-53.7412840">
        <ele>557.4</ele>
        <time>2018-09-14T17:49:03Z</time>
      </trkpt>
      <trkpt lat="-24.8299150" lon="-53.7413090">
        <ele>557.7</ele>
        <time>2018-09-14T17:49:04Z</time>
      </trkpt>
      <trkpt lat="-24.8299080" lon="-53.7413340">
        <ele>557.7</ele>
        <time>2018-09-14T17:49:05Z</time>
      </trkpt>
      <trkpt lat="-24.8299000" lon="-53.7413620">
        <ele>558.0</ele>
        <time>2018-09-14T17:49:06Z</time>
      </trkpt>
      <trkpt lat="-24.8298900" lon="-53.7413840">
        <ele>558.2</ele>
        <time>2018-09-14T17:49:07Z</time>
      </trkpt>
      <trkpt lat="-24.8298770" lon="-53.7414060">
        <ele>558.2</ele>
        <time>2018-09-14T17:49:08Z</time>
      </trkpt>
      <trkpt lat="-24.8298680" lon="-53.7414330">
        <ele>558.3</ele>
        <time>2018-09-14T17:49:09Z</time>
      </trkpt>
      <trkpt lat="-24.8298600" lon="-53.7414580">
        <ele>558.3</ele>
        <time>2018-09-14T17:49:10Z</time>
      </trkpt>
      <trkpt lat="-24.8298540" lon="-53.7414830">
        <ele>558.4</ele>
        <time>2018-09-14T17:49:11Z</time>
      </trkpt>
      <trkpt lat="-24.8298490" lon="-53.7415060">
        <ele>558.4</ele>
        <time>2018-09-14T17:49:12Z</time>
      </trkpt>
      <trkpt lat="-24.8298470" lon="-53.7415280">
        <ele>558.4</ele>
        <time>2018-09-14T17:49:13Z</time>
      </trkpt>
      <trkpt lat="-24.8298470" lon="-53.7415480">
        <ele>558.5</ele>
        <time>2018-09-14T17:49:14Z</time>
      </trkpt>
      <trkpt lat="-24.8298470" lon="-53.7415690">
        <ele>558.5</ele>
        <time>2018-09-14T17:49:15Z</time>
      </trkpt>
      <trkpt lat="-24.8298470" lon="-53.7415890">
        <ele>558.5</ele>
        <time>2018-09-14T17:49:16Z</time>
      </trkpt>
      <trkpt lat="-24.8298500" lon="-53.7416090">
        <ele>558.5</ele>
        <time>2018-09-14T17:49:17Z</time>
      </trkpt>
      <trkpt lat="-24.8298620" lon="-53.7416170">
        <ele>558.6</ele>
        <time>2018-09-14T17:49:18Z</time>
      </trkpt>
      <trkpt lat="-24.8298690" lon="-53.7416180">
        <ele>558.6</ele>
        <time>2018-09-14T17:49:19Z</time>
      </trkpt>
      <trkpt lat="-24.8298680" lon="-53.7416200">
        <ele>558.6</ele>
        <time>2018-09-14T17:49:20Z</time>
      </trkpt>
      <trkpt lat="-24.8298690" lon="-53.7416210">
        <ele>558.6</ele>
        <time>2018-09-14T17:49:21Z</time>
      </trkpt>
      <trkpt lat="-24.8298670" lon="-53.7416180">
        <ele>558.6</ele>
        <time>2018-09-14T17:49:38Z</time>
      </trkpt>
      <trkpt lat="-24.8298710" lon="-53.7416180">
        <ele>558.6</ele>
        <time>2018-09-14T17:49:39Z</time>
      </trkpt>
      <trkpt lat="-24.8298790" lon="-53.7416170">
        <ele>558.6</ele>
        <time>2018-09-14T17:49:40Z</time>
      </trkpt>
      <trkpt lat="-24.8298940" lon="-53.7416130">
        <ele>558.6</ele>
        <time>2018-09-14T17:49:41Z</time>
      </trkpt>
      <trkpt lat="-24.8299140" lon="-53.7416160">
        <ele>558.6</ele>
        <time>2018-09-14T17:49:42Z</time>
      </trkpt>
      <trkpt lat="-24.8299360" lon="-53.7416220">
        <ele>558.7</ele>
        <time>2018-09-14T17:49:43Z</time>
      </trkpt>
      <trkpt lat="-24.8299590" lon="-53.7416310">
        <ele>558.7</ele>
        <time>2018-09-14T17:49:44Z</time>
      </trkpt>
      <trkpt lat="-24.8299800" lon="-53.7416390">
        <ele>558.7</ele>
        <time>2018-09-14T17:49:45Z</time>
      </trkpt>
      <trkpt lat="-24.8300040" lon="-53.7416460">
        <ele>558.7</ele>
        <time>2018-09-14T17:49:46Z</time>
      </trkpt>
      <trkpt lat="-24.8300300" lon="-53.7416520">
        <ele>558.8</ele>
        <time>2018-09-14T17:49:47Z</time>
      </trkpt>
      <trkpt lat="-24.8300580" lon="-53.7416600">
        <ele>558.8</ele>
        <time>2018-09-14T17:49:48Z</time>
      </trkpt>
      <trkpt lat="-24.8300880" lon="-53.7416690">
        <ele>558.8</ele>
        <time>2018-09-14T17:49:49Z</time>
      </trkpt>
      <trkpt lat="-24.8301190" lon="-53.7416820">
        <ele>558.8</ele>
        <time>2018-09-14T17:49:50Z</time>
      </trkpt>
      <trkpt lat="-24.8301490" lon="-53.7416950">
        <ele>558.8</ele>
        <time>2018-09-14T17:49:51Z</time>
      </trkpt>
      <trkpt lat="-24.8301790" lon="-53.7417090">
        <ele>558.9</ele>
        <time>2018-09-14T17:49:52Z</time>
      </trkpt>
      <trkpt lat="-24.8302100" lon="-53.7417240">
        <ele>558.9</ele>
        <time>2018-09-14T17:49:53Z</time>
      </trkpt>
      <trkpt lat="-24.8302400" lon="-53.7417390">
        <ele>558.9</ele>
        <time>2018-09-14T17:49:54Z</time>
      </trkpt>
      <trkpt lat="-24.8302710" lon="-53.7417520">
        <ele>558.9</ele>
        <time>2018-09-14T17:49:55Z</time>
      </trkpt>
      <trkpt lat="-24.8303030" lon="-53.7417650">
        <ele>558.8</ele>
        <time>2018-09-14T17:49:56Z</time>
      </trkpt>
      <trkpt lat="-24.8303360" lon="-53.7417760">
        <ele>558.8</ele>
        <time>2018-09-14T17:49:57Z</time>
      </trkpt>
      <trkpt lat="-24.8303690" lon="-53.7417860">
        <ele>558.8</ele>
        <time>2018-09-14T17:49:58Z</time>
      </trkpt>
      <trkpt lat="-24.8304010" lon="-53.7417980">
        <ele>558.8</ele>
        <time>2018-09-14T17:49:59Z</time>
      </trkpt>
      <trkpt lat="-24.8304330" lon="-53.7418100">
        <ele>558.8</ele>
        <time>2018-09-14T17:50:00Z</time>
      </trkpt>
      <trkpt lat="-24.8304660" lon="-53.7418200">
        <ele>558.8</ele>
        <time>2018-09-14T17:50:01Z</time>
      </trkpt>
      <trkpt lat="-24.8304980" lon="-53.7418310">
        <ele>558.8</ele>
        <time>2018-09-14T17:50:02Z</time>
      </trkpt>
      <trkpt lat="-24.8305300" lon="-53.7418430">
        <ele>558.8</ele>
        <time>2018-09-14T17:50:03Z</time>
      </trkpt>
      <trkpt lat="-24.8305610" lon="-53.7418560">
        <ele>558.8</ele>
        <time>2018-09-14T17:50:04Z</time>
      </trkpt>
      <trkpt lat="-24.8305610" lon="-53.7418560">
        <ele>558.8</ele>
        <time>2018-09-14T17:50:05Z</time>
      </trkpt>
      <trkpt lat="-24.8306210" lon="-53.7418820">
        <ele>558.8</ele>
        <time>2018-09-14T17:50:06Z</time>
      </trkpt>
      <trkpt lat="-24.8306510" lon="-53.7418920">
        <ele>558.8</ele>
        <time>2018-09-14T17:50:07Z</time>
      </trkpt>
      <trkpt lat="-24.8306820" lon="-53.7419010">
        <ele>558.9</ele>
        <time>2018-09-14T17:50:08Z</time>
      </trkpt>
      <trkpt lat="-24.8307120" lon="-53.7419110">
        <ele>558.9</ele>
        <time>2018-09-14T17:50:09Z</time>
      </trkpt>
      <trkpt lat="-24.8307120" lon="-53.7419110">
        <ele>558.9</ele>
        <time>2018-09-14T17:50:10Z</time>
      </trkpt>
      <trkpt lat="-24.8307430" lon="-53.7419200">
        <ele>558.9</ele>
        <time>2018-09-14T17:50:11Z</time>
      </trkpt>
      <trkpt lat="-24.8307730" lon="-53.7419290">
        <ele>558.9</ele>
        <time>2018-09-14T17:50:12Z</time>
      </trkpt>
      <trkpt lat="-24.8308030" lon="-53.7419380">
        <ele>558.9</ele>
        <time>2018-09-14T17:50:13Z</time>
      </trkpt>
      <trkpt lat="-24.8308330" lon="-53.7419480">
        <ele>558.9</ele>
        <time>2018-09-14T17:50:14Z</time>
      </trkpt>
      <trkpt lat="-24.8308630" lon="-53.7419580">
        <ele>558.9</ele>
        <time>2018-09-14T17:50:15Z</time>
      </trkpt>
      <trkpt lat="-24.8308910" lon="-53.7419720">
        <ele>558.9</ele>
        <time>2018-09-14T17:50:16Z</time>
      </trkpt>
      <trkpt lat="-24.8309200" lon="-53.7419850">
        <ele>559.0</ele>
        <time>2018-09-14T17:50:17Z</time>
      </trkpt>
      <trkpt lat="-24.8309490" lon="-53.7419960">
        <ele>559.0</ele>
        <time>2018-09-14T17:50:18Z</time>
      </trkpt>
      <trkpt lat="-24.8309770" lon="-53.7420040">
        <ele>559.0</ele>
        <time>2018-09-14T17:50:19Z</time>
      </trkpt>
      <trkpt lat="-24.8310060" lon="-53.7420040">
        <ele>559.0</ele>
        <time>2018-09-14T17:50:20Z</time>
      </trkpt>
      <trkpt lat="-24.8310350" lon="-53.7419980">
        <ele>559.0</ele>
        <time>2018-09-14T17:50:21Z</time>
      </trkpt>
      <trkpt lat="-24.8310620" lon="-53.7419830">
        <ele>559.0</ele>
        <time>2018-09-14T17:50:22Z</time>
      </trkpt>
      <trkpt lat="-24.8310850" lon="-53.7419580">
        <ele>559.0</ele>
        <time>2018-09-14T17:50:23Z</time>
      </trkpt>
      <trkpt lat="-24.8311040" lon="-53.7419250">
        <ele>558.9</ele>
        <time>2018-09-14T17:50:24Z</time>
      </trkpt>
      <trkpt lat="-24.8311210" lon="-53.7418870">
        <ele>558.8</ele>
        <time>2018-09-14T17:50:25Z</time>
      </trkpt>
      <trkpt lat="-24.8311380" lon="-53.7418450">
        <ele>558.7</ele>
        <time>2018-09-14T17:50:26Z</time>
      </trkpt>
      <trkpt lat="-24.8311590" lon="-53.7418000">
        <ele>558.6</ele>
        <time>2018-09-14T17:50:27Z</time>
      </trkpt>
      <trkpt lat="-24.8311820" lon="-53.7417510">
        <ele>558.2</ele>
        <time>2018-09-14T17:50:28Z</time>
      </trkpt>
      <trkpt lat="-24.8312070" lon="-53.7417000">
        <ele>557.8</ele>
        <time>2018-09-14T17:50:29Z</time>
      </trkpt>
      <trkpt lat="-24.8312310" lon="-53.7416440">
        <ele>557.3</ele>
        <time>2018-09-14T17:50:30Z</time>
      </trkpt>
      <trkpt lat="-24.8312560" lon="-53.7415890">
        <ele>556.9</ele>
        <time>2018-09-14T17:50:31Z</time>
      </trkpt>
      <trkpt lat="-24.8312820" lon="-53.7415320">
        <ele>556.6</ele>
        <time>2018-09-14T17:50:32Z</time>
      </trkpt>
      <trkpt lat="-24.8313090" lon="-53.7414720">
        <ele>555.4</ele>
        <time>2018-09-14T17:50:33Z</time>
      </trkpt>
      <trkpt lat="-24.8313370" lon="-53.7414090">
        <ele>554.3</ele>
        <time>2018-09-14T17:50:34Z</time>
      </trkpt>
      <trkpt lat="-24.8313640" lon="-53.7413440">
        <ele>553.5</ele>
        <time>2018-09-14T17:50:35Z</time>
      </trkpt>
      <trkpt lat="-24.8313890" lon="-53.7412780">
        <ele>552.8</ele>
        <time>2018-09-14T17:50:36Z</time>
      </trkpt>
      <trkpt lat="-24.8314150" lon="-53.7412080">
        <ele>552.0</ele>
        <time>2018-09-14T17:50:37Z</time>
      </trkpt>
      <trkpt lat="-24.8314440" lon="-53.7411380">
        <ele>551.1</ele>
        <time>2018-09-14T17:50:38Z</time>
      </trkpt>
      <trkpt lat="-24.8314740" lon="-53.7410680">
        <ele>550.2</ele>
        <time>2018-09-14T17:50:39Z</time>
      </trkpt>
      <trkpt lat="-24.8315030" lon="-53.7410010">
        <ele>549.6</ele>
        <time>2018-09-14T17:50:40Z</time>
      </trkpt>
      <trkpt lat="-24.8315320" lon="-53.7409370">
        <ele>549.0</ele>
        <time>2018-09-14T17:50:41Z</time>
      </trkpt>
      <trkpt lat="-24.8315620" lon="-53.7408690">
        <ele>548.2</ele>
        <time>2018-09-14T17:50:42Z</time>
      </trkpt>
      <trkpt lat="-24.8315920" lon="-53.7407980">
        <ele>547.2</ele>
        <time>2018-09-14T17:50:43Z</time>
      </trkpt>
      <trkpt lat="-24.8316200" lon="-53.7407300">
        <ele>546.3</ele>
        <time>2018-09-14T17:50:44Z</time>
      </trkpt>
      <trkpt lat="-24.8316460" lon="-53.7406660">
        <ele>545.8</ele>
        <time>2018-09-14T17:50:45Z</time>
      </trkpt>
      <trkpt lat="-24.8316700" lon="-53.7406080">
        <ele>545.3</ele>
        <time>2018-09-14T17:50:46Z</time>
      </trkpt>
      <trkpt lat="-24.8316940" lon="-53.7405570">
        <ele>544.9</ele>
        <time>2018-09-14T17:50:47Z</time>
      </trkpt>
      <trkpt lat="-24.8317170" lon="-53.7405140">
        <ele>544.5</ele>
        <time>2018-09-14T17:50:48Z</time>
      </trkpt>
      <trkpt lat="-24.8317340" lon="-53.7404740">
        <ele>544.2</ele>
        <time>2018-09-14T17:50:49Z</time>
      </trkpt>
      <trkpt lat="-24.8317520" lon="-53.7404350">
        <ele>543.8</ele>
        <time>2018-09-14T17:50:50Z</time>
      </trkpt>
      <trkpt lat="-24.8317710" lon="-53.7403970">
        <ele>543.5</ele>
        <time>2018-09-14T17:50:51Z</time>
      </trkpt>
      <trkpt lat="-24.8317930" lon="-53.7403590">
        <ele>543.1</ele>
        <time>2018-09-14T17:50:52Z</time>
      </trkpt>
      <trkpt lat="-24.8318120" lon="-53.7403250">
        <ele>542.7</ele>
        <time>2018-09-14T17:50:53Z</time>
      </trkpt>
      <trkpt lat="-24.8318260" lon="-53.7402960">
        <ele>542.4</ele>
        <time>2018-09-14T17:50:54Z</time>
      </trkpt>
      <trkpt lat="-24.8318350" lon="-53.7402760">
        <ele>542.2</ele>
        <time>2018-09-14T17:50:55Z</time>
      </trkpt>
      <trkpt lat="-24.8318410" lon="-53.7402670">
        <ele>542.1</ele>
        <time>2018-09-14T17:50:56Z</time>
      </trkpt>
      <trkpt lat="-24.8318410" lon="-53.7402640">
        <ele>542.1</ele>
        <time>2018-09-14T17:50:57Z</time>
      </trkpt>
      <trkpt lat="-24.8318420" lon="-53.7402640">
        <ele>542.1</ele>
        <time>2018-09-14T17:50:58Z</time>
      </trkpt>
      <trkpt lat="-24.8318520" lon="-53.7402680">
        <ele>542.1</ele>
        <time>2018-09-14T17:51:06Z</time>
      </trkpt>
      <trkpt lat="-24.8318600" lon="-53.7402650">
        <ele>542.0</ele>
        <time>2018-09-14T17:51:07Z</time>
      </trkpt>
      <trkpt lat="-24.8318680" lon="-53.7402630">
        <ele>542.0</ele>
        <time>2018-09-14T17:51:08Z</time>
      </trkpt>
      <trkpt lat="-24.8318810" lon="-53.7402570">
        <ele>542.0</ele>
        <time>2018-09-14T17:51:09Z</time>
      </trkpt>
      <trkpt lat="-24.8319010" lon="-53.7402510">
        <ele>542.0</ele>
        <time>2018-09-14T17:51:10Z</time>
      </trkpt>
      <trkpt lat="-24.8319160" lon="-53.7402490">
        <ele>541.9</ele>
        <time>2018-09-14T17:51:11Z</time>
      </trkpt>
      <trkpt lat="-24.8319290" lon="-53.7402460">
        <ele>541.9</ele>
        <time>2018-09-14T17:51:12Z</time>
      </trkpt>
      <trkpt lat="-24.8319430" lon="-53.7402430">
        <ele>541.9</ele>
        <time>2018-09-14T17:51:13Z</time>
      </trkpt>
      <trkpt lat="-24.8319570" lon="-53.7402420">
        <ele>541.9</ele>
        <time>2018-09-14T17:51:14Z</time>
      </trkpt>
      <trkpt lat="-24.8319730" lon="-53.7402390">
        <ele>541.9</ele>
        <time>2018-09-14T17:51:15Z</time>
      </trkpt>
      <trkpt lat="-24.8319920" lon="-53.7402350">
        <ele>541.8</ele>
        <time>2018-09-14T17:51:16Z</time>
      </trkpt>
      <trkpt lat="-24.8320110" lon="-53.7402370">
        <ele>541.8</ele>
        <time>2018-09-14T17:51:17Z</time>
      </trkpt>
      <trkpt lat="-24.8320290" lon="-53.7402370">
        <ele>541.8</ele>
        <time>2018-09-14T17:51:18Z</time>
      </trkpt>
      <trkpt lat="-24.8320460" lon="-53.7402240">
        <ele>541.6</ele>
        <time>2018-09-14T17:51:19Z</time>
      </trkpt>
      <trkpt lat="-24.8320470" lon="-53.7402050">
        <ele>541.5</ele>
        <time>2018-09-14T17:51:20Z</time>
      </trkpt>
      <trkpt lat="-24.8320330" lon="-53.7401940">
        <ele>541.7</ele>
        <time>2018-09-14T17:51:21Z</time>
      </trkpt>
      <trkpt lat="-24.8320140" lon="-53.7401950">
        <ele>541.8</ele>
        <time>2018-09-14T17:51:22Z</time>
      </trkpt>
      <trkpt lat="-24.8319990" lon="-53.7402050">
        <ele>541.8</ele>
        <time>2018-09-14T17:51:23Z</time>
      </trkpt>
      <trkpt lat="-24.8319810" lon="-53.7402180">
        <ele>541.8</ele>
        <time>2018-09-14T17:51:24Z</time>
      </trkpt>
      <trkpt lat="-24.8319640" lon="-53.7402340">
        <ele>541.9</ele>
        <time>2018-09-14T17:51:25Z</time>
      </trkpt>
      <trkpt lat="-24.8319480" lon="-53.7402540">
        <ele>541.9</ele>
        <time>2018-09-14T17:51:26Z</time>
      </trkpt>
      <trkpt lat="-24.8319310" lon="-53.7402730">
        <ele>541.9</ele>
        <time>2018-09-14T17:51:27Z</time>
      </trkpt>
      <trkpt lat="-24.8319140" lon="-53.7402910">
        <ele>541.9</ele>
        <time>2018-09-14T17:51:28Z</time>
      </trkpt>
      <trkpt lat="-24.8318950" lon="-53.7403020">
        <ele>542.0</ele>
        <time>2018-09-14T17:51:29Z</time>
      </trkpt>
      <trkpt lat="-24.8318810" lon="-53.7403020">
        <ele>542.0</ele>
        <time>2018-09-14T17:51:30Z</time>
      </trkpt>
      <trkpt lat="-24.8318750" lon="-53.7402990">
        <ele>542.0</ele>
        <time>2018-09-14T17:51:31Z</time>
      </trkpt>
      <trkpt lat="-24.8318740" lon="-53.7402960">
        <ele>542.0</ele>
        <time>2018-09-14T17:51:32Z</time>
      </trkpt>
      <trkpt lat="-24.8318740" lon="-53.7402960">
        <ele>542.0</ele>
        <time>2018-09-14T17:51:33Z</time>
      </trkpt>
      <trkpt lat="-24.8318740" lon="-53.7402930">
        <ele>542.0</ele>
        <time>2018-09-14T17:51:34Z</time>
      </trkpt>
      <trkpt lat="-24.8318740" lon="-53.7402930">
        <ele>542.0</ele>
        <time>2018-09-14T17:51:35Z</time>
      </trkpt>
      <trkpt lat="-24.8318750" lon="-53.7402930">
        <ele>542.0</ele>
        <time>2018-09-14T17:51:36Z</time>
      </trkpt>
      <trkpt lat="-24.8318620" lon="-53.7402910">
        <ele>542.1</ele>
        <time>2018-09-14T17:52:44Z</time>
      </trkpt>
      <trkpt lat="-24.8318630" lon="-53.7402910">
        <ele>542.1</ele>
        <time>2018-09-14T17:52:45Z</time>
      </trkpt>
      <trkpt lat="-24.8318620" lon="-53.7402920">
        <ele>542.1</ele>
        <time>2018-09-14T17:52:46Z</time>
      </trkpt>
      <trkpt lat="-24.8318690" lon="-53.7403170">
        <ele>542.2</ele>
        <time>2018-09-14T17:55:27Z</time>
      </trkpt>
      <trkpt lat="-24.8318700" lon="-53.7403170">
        <ele>542.2</ele>
        <time>2018-09-14T17:55:28Z</time>
      </trkpt>
      <trkpt lat="-24.8318690" lon="-53.7403170">
        <ele>542.2</ele>
        <time>2018-09-14T17:55:29Z</time>
      </trkpt>
      <trkpt lat="-24.8318680" lon="-53.7403180">
        <ele>542.2</ele>
        <time>2018-09-14T17:55:30Z</time>
      </trkpt>
      <trkpt lat="-24.8318710" lon="-53.7403110">
        <ele>542.1</ele>
        <time>2018-09-14T17:55:31Z</time>
      </trkpt>
      <trkpt lat="-24.8318700" lon="-53.7402970">
        <ele>542.0</ele>
        <time>2018-09-14T17:55:32Z</time>
      </trkpt>
      <trkpt lat="-24.8318660" lon="-53.7402750">
        <ele>542.0</ele>
        <time>2018-09-14T17:55:33Z</time>
      </trkpt>
      <trkpt lat="-24.8318620" lon="-53.7402450">
        <ele>542.0</ele>
        <time>2018-09-14T17:55:34Z</time>
      </trkpt>
      <trkpt lat="-24.8318650" lon="-53.7402120">
        <ele>542.0</ele>
        <time>2018-09-14T17:55:35Z</time>
      </trkpt>
      <trkpt lat="-24.8318740" lon="-53.7401770">
        <ele>541.9</ele>
        <time>2018-09-14T17:55:36Z</time>
      </trkpt>
      <trkpt lat="-24.8318880" lon="-53.7401430">
        <ele>541.9</ele>
        <time>2018-09-14T17:55:37Z</time>
      </trkpt>
      <trkpt lat="-24.8319030" lon="-53.7401070">
        <ele>541.9</ele>
        <time>2018-09-14T17:55:38Z</time>
      </trkpt>
      <trkpt lat="-24.8319160" lon="-53.7400710">
        <ele>541.8</ele>
        <time>2018-09-14T17:55:39Z</time>
      </trkpt>
      <trkpt lat="-24.8319290" lon="-53.7400340">
        <ele>541.8</ele>
        <time>2018-09-14T17:55:40Z</time>
      </trkpt>
      <trkpt lat="-24.8319460" lon="-53.7399960">
        <ele>541.5</ele>
        <time>2018-09-14T17:55:41Z</time>
      </trkpt>
      <trkpt lat="-24.8319640" lon="-53.7399550">
        <ele>540.9</ele>
        <time>2018-09-14T17:55:42Z</time>
      </trkpt>
      <trkpt lat="-24.8319830" lon="-53.7399100">
        <ele>540.7</ele>
        <time>2018-09-14T17:55:43Z</time>
      </trkpt>
      <trkpt lat="-24.8320030" lon="-53.7398630">
        <ele>540.5</ele>
        <time>2018-09-14T17:55:44Z</time>
      </trkpt>
      <trkpt lat="-24.8320240" lon="-53.7398170">
        <ele>540.4</ele>
        <time>2018-09-14T17:55:45Z</time>
      </trkpt>
      <trkpt lat="-24.8320680" lon="-53.7397260">
        <ele>540.1</ele>
        <time>2018-09-14T17:55:46Z</time>
      </trkpt>
      <trkpt lat="-24.8320890" lon="-53.7396800">
        <ele>539.9</ele>
        <time>2018-09-14T17:55:47Z</time>
      </trkpt>
      <trkpt lat="-24.8321100" lon="-53.7396370">
        <ele>539.9</ele>
        <time>2018-09-14T17:55:48Z</time>
      </trkpt>
      <trkpt lat="-24.8321290" lon="-53.7395960">
        <ele>539.6</ele>
        <time>2018-09-14T17:55:49Z</time>
      </trkpt>
      <trkpt lat="-24.8321460" lon="-53.7395600">
        <ele>539.7</ele>
        <time>2018-09-14T17:55:50Z</time>
      </trkpt>
      <trkpt lat="-24.8321620" lon="-53.7395300">
        <ele>539.4</ele>
        <time>2018-09-14T17:55:51Z</time>
      </trkpt>
      <trkpt lat="-24.8321810" lon="-53.7395060">
        <ele>539.4</ele>
        <time>2018-09-14T17:55:52Z</time>
      </trkpt>
      <trkpt lat="-24.8321980" lon="-53.7394820">
        <ele>539.1</ele>
        <time>2018-09-14T17:55:53Z</time>
      </trkpt>
      <trkpt lat="-24.8322130" lon="-53.7394580">
        <ele>539.1</ele>
        <time>2018-09-14T17:55:54Z</time>
      </trkpt>
      <trkpt lat="-24.8322280" lon="-53.7394330">
        <ele>539.3</ele>
        <time>2018-09-14T17:55:55Z</time>
      </trkpt>
      <trkpt lat="-24.8322430" lon="-53.7394080">
        <ele>539.0</ele>
        <time>2018-09-14T17:55:56Z</time>
      </trkpt>
      <trkpt lat="-24.8322570" lon="-53.7393820">
        <ele>539.0</ele>
        <time>2018-09-14T17:55:57Z</time>
      </trkpt>
      <trkpt lat="-24.8322710" lon="-53.7393560">
        <ele>539.3</ele>
        <time>2018-09-14T17:55:58Z</time>
      </trkpt>
      <trkpt lat="-24.8322840" lon="-53.7393300">
        <ele>538.8</ele>
        <time>2018-09-14T17:55:59Z</time>
      </trkpt>
      <trkpt lat="-24.8322960" lon="-53.7393030">
        <ele>539.1</ele>
        <time>2018-09-14T17:56:00Z</time>
      </trkpt>
      <trkpt lat="-24.8323140" lon="-53.7392760">
        <ele>539.1</ele>
        <time>2018-09-14T17:56:01Z</time>
      </trkpt>
      <trkpt lat="-24.8323520" lon="-53.7392160">
        <ele>539.2</ele>
        <time>2018-09-14T17:56:03Z</time>
      </trkpt>
      <trkpt lat="-24.8323730" lon="-53.7391840">
        <ele>539.3</ele>
        <time>2018-09-14T17:56:04Z</time>
      </trkpt>
      <trkpt lat="-24.8323940" lon="-53.7391520">
        <ele>539.3</ele>
        <time>2018-09-14T17:56:05Z</time>
      </trkpt>
      <trkpt lat="-24.8324100" lon="-53.7391250">
        <ele>539.1</ele>
        <time>2018-09-14T17:56:06Z</time>
      </trkpt>
      <trkpt lat="-24.8324310" lon="-53.7390900">
        <ele>538.9</ele>
        <time>2018-09-14T17:56:07Z</time>
      </trkpt>
      <trkpt lat="-24.8324530" lon="-53.7390560">
        <ele>538.6</ele>
        <time>2018-09-14T17:56:08Z</time>
      </trkpt>
      <trkpt lat="-24.8324790" lon="-53.7390210">
        <ele>538.5</ele>
        <time>2018-09-14T17:56:09Z</time>
      </trkpt>
      <trkpt lat="-24.8325020" lon="-53.7389870">
        <ele>538.5</ele>
        <time>2018-09-14T17:56:10Z</time>
      </trkpt>
      <trkpt lat="-24.8325240" lon="-53.7389520">
        <ele>538.5</ele>
        <time>2018-09-14T17:56:11Z</time>
      </trkpt>
      <trkpt lat="-24.8325480" lon="-53.7389190">
        <ele>538.8</ele>
        <time>2018-09-14T17:56:12Z</time>
      </trkpt>
      <trkpt lat="-24.8325740" lon="-53.7388850">
        <ele>538.9</ele>
        <time>2018-09-14T17:56:13Z</time>
      </trkpt>
      <trkpt lat="-24.8326010" lon="-53.7388520">
        <ele>539.1</ele>
        <time>2018-09-14T17:56:14Z</time>
      </trkpt>
      <trkpt lat="-24.8326250" lon="-53.7388200">
        <ele>539.8</ele>
        <time>2018-09-14T17:56:15Z</time>
      </trkpt>
      <trkpt lat="-24.8326470" lon="-53.7387890">
        <ele>540.2</ele>
        <time>2018-09-14T17:56:16Z</time>
      </trkpt>
      <trkpt lat="-24.8326700" lon="-53.7387620">
        <ele>541.2</ele>
        <time>2018-09-14T17:56:17Z</time>
      </trkpt>
      <trkpt lat="-24.8326890" lon="-53.7387360">
        <ele>541.1</ele>
        <time>2018-09-14T17:56:18Z</time>
      </trkpt>
      <trkpt lat="-24.8327080" lon="-53.7387100">
        <ele>542.0</ele>
        <time>2018-09-14T17:56:19Z</time>
      </trkpt>
      <trkpt lat="-24.8327270" lon="-53.7386840">
        <ele>542.0</ele>
        <time>2018-09-14T17:56:20Z</time>
      </trkpt>
      <trkpt lat="-24.8327460" lon="-53.7386600">
        <ele>542.6</ele>
        <time>2018-09-14T17:56:21Z</time>
      </trkpt>
      <trkpt lat="-24.8327660" lon="-53.7386340">
        <ele>543.2</ele>
        <time>2018-09-14T17:56:22Z</time>
      </trkpt>
      <trkpt lat="-24.8327870" lon="-53.7386100">
        <ele>543.1</ele>
        <time>2018-09-14T17:56:23Z</time>
      </trkpt>
      <trkpt lat="-24.8328060" lon="-53.7385840">
        <ele>543.6</ele>
        <time>2018-09-14T17:56:24Z</time>
      </trkpt>
      <trkpt lat="-24.8328260" lon="-53.7385590">
        <ele>543.5</ele>
        <time>2018-09-14T17:56:25Z</time>
      </trkpt>
      <trkpt lat="-24.8328450" lon="-53.7385340">
        <ele>543.9</ele>
        <time>2018-09-14T17:56:26Z</time>
      </trkpt>
      <trkpt lat="-24.8328640" lon="-53.7385100">
        <ele>543.6</ele>
        <time>2018-09-14T17:56:27Z</time>
      </trkpt>
      <trkpt lat="-24.8328820" lon="-53.7384880">
        <ele>544.0</ele>
        <time>2018-09-14T17:56:28Z</time>
      </trkpt>
      <trkpt lat="-24.8328980" lon="-53.7384660">
        <ele>543.7</ele>
        <time>2018-09-14T17:56:29Z</time>
      </trkpt>
      <trkpt lat="-24.8329130" lon="-53.7384440">
        <ele>544.2</ele>
        <time>2018-09-14T17:56:30Z</time>
      </trkpt>
      <trkpt lat="-24.8329260" lon="-53.7384220">
        <ele>544.7</ele>
        <time>2018-09-14T17:56:31Z</time>
      </trkpt>
      <trkpt lat="-24.8329410" lon="-53.7384000">
        <ele>544.6</ele>
        <time>2018-09-14T17:56:32Z</time>
      </trkpt>
      <trkpt lat="-24.8329580" lon="-53.7383760">
        <ele>545.1</ele>
        <time>2018-09-14T17:56:33Z</time>
      </trkpt>
      <trkpt lat="-24.8329740" lon="-53.7383510">
        <ele>545.1</ele>
        <time>2018-09-14T17:56:34Z</time>
      </trkpt>
      <trkpt lat="-24.8329890" lon="-53.7383250">
        <ele>545.5</ele>
        <time>2018-09-14T17:56:35Z</time>
      </trkpt>
      <trkpt lat="-24.8330050" lon="-53.7382990">
        <ele>545.5</ele>
        <time>2018-09-14T17:56:36Z</time>
      </trkpt>
      <trkpt lat="-24.8330210" lon="-53.7382740">
        <ele>545.7</ele>
        <time>2018-09-14T17:56:37Z</time>
      </trkpt>
      <trkpt lat="-24.8330370" lon="-53.7382490">
        <ele>545.8</ele>
        <time>2018-09-14T17:56:38Z</time>
      </trkpt>
      <trkpt lat="-24.8330520" lon="-53.7382240">
        <ele>545.7</ele>
        <time>2018-09-14T17:56:39Z</time>
      </trkpt>
      <trkpt lat="-24.8330670" lon="-53.7381960">
        <ele>545.6</ele>
        <time>2018-09-14T17:56:40Z</time>
      </trkpt>
      <trkpt lat="-24.8330820" lon="-53.7381670">
        <ele>545.6</ele>
        <time>2018-09-14T17:56:41Z</time>
      </trkpt>
      <trkpt lat="-24.8330970" lon="-53.7381390">
        <ele>545.2</ele>
        <time>2018-09-14T17:56:42Z</time>
      </trkpt>
      <trkpt lat="-24.8331110" lon="-53.7381120">
        <ele>545.0</ele>
        <time>2018-09-14T17:56:43Z</time>
      </trkpt>
      <trkpt lat="-24.8331240" lon="-53.7380890">
        <ele>545.0</ele>
        <time>2018-09-14T17:56:44Z</time>
      </trkpt>
      <trkpt lat="-24.8331360" lon="-53.7380660">
        <ele>544.6</ele>
        <time>2018-09-14T17:56:45Z</time>
      </trkpt>
      <trkpt lat="-24.8331480" lon="-53.7380460">
        <ele>544.6</ele>
        <time>2018-09-14T17:56:46Z</time>
      </trkpt>
      <trkpt lat="-24.8331540" lon="-53.7380350">
        <ele>544.3</ele>
        <time>2018-09-14T17:56:47Z</time>
      </trkpt>
      <trkpt lat="-24.8331530" lon="-53.7380320">
        <ele>544.3</ele>
        <time>2018-09-14T17:56:48Z</time>
      </trkpt>
      <trkpt lat="-24.8331530" lon="-53.7380310">
        <ele>544.3</ele>
        <time>2018-09-14T17:56:49Z</time>
      </trkpt>
      <trkpt lat="-24.8331530" lon="-53.7380320">
        <ele>544.3</ele>
        <time>2018-09-14T17:56:50Z</time>
      </trkpt>
      <trkpt lat="-24.8331590" lon="-53.7380180">
        <ele>544.3</ele>
        <time>2018-09-14T17:57:06Z</time>
      </trkpt>
      <trkpt lat="-24.8331610" lon="-53.7380140">
        <ele>544.3</ele>
        <time>2018-09-14T17:57:07Z</time>
      </trkpt>
      <trkpt lat="-24.8331620" lon="-53.7380130">
        <ele>544.3</ele>
        <time>2018-09-14T17:57:08Z</time>
      </trkpt>
      <trkpt lat="-24.8331610" lon="-53.7380100">
        <ele>544.3</ele>
        <time>2018-09-14T17:57:09Z</time>
      </trkpt>
      <trkpt lat="-24.8331710" lon="-53.7380120">
        <ele>544.3</ele>
        <time>2018-09-14T17:57:45Z</time>
      </trkpt>
      <trkpt lat="-24.8331740" lon="-53.7380130">
        <ele>544.3</ele>
        <time>2018-09-14T17:57:46Z</time>
      </trkpt>
      <trkpt lat="-24.8331780" lon="-53.7380170">
        <ele>544.3</ele>
        <time>2018-09-14T17:57:47Z</time>
      </trkpt>
      <trkpt lat="-24.8331780" lon="-53.7380270">
        <ele>544.3</ele>
        <time>2018-09-14T17:57:48Z</time>
      </trkpt>
      <trkpt lat="-24.8331710" lon="-53.7380360">
        <ele>544.3</ele>
        <time>2018-09-14T17:57:49Z</time>
      </trkpt>
      <trkpt lat="-24.8331630" lon="-53.7380440">
        <ele>544.6</ele>
        <time>2018-09-14T17:57:50Z</time>
      </trkpt>
      <trkpt lat="-24.8331500" lon="-53.7380540">
        <ele>544.6</ele>
        <time>2018-09-14T17:57:51Z</time>
      </trkpt>
      <trkpt lat="-24.8331380" lon="-53.7380680">
        <ele>544.6</ele>
        <time>2018-09-14T17:57:52Z</time>
      </trkpt>
      <trkpt lat="-24.8331290" lon="-53.7380850">
        <ele>545.0</ele>
        <time>2018-09-14T17:57:53Z</time>
      </trkpt>
      <trkpt lat="-24.8331180" lon="-53.7381040">
        <ele>545.0</ele>
        <time>2018-09-14T17:57:54Z</time>
      </trkpt>
      <trkpt lat="-24.8331070" lon="-53.7381240">
        <ele>545.2</ele>
        <time>2018-09-14T17:57:55Z</time>
      </trkpt>
      <trkpt lat="-24.8331070" lon="-53.7381240">
        <ele>545.2</ele>
        <time>2018-09-14T17:57:56Z</time>
      </trkpt>
      <trkpt lat="-24.8330940" lon="-53.7381580">
        <ele>545.1</ele>
        <time>2018-09-14T17:57:57Z</time>
      </trkpt>
      <trkpt lat="-24.8330940" lon="-53.7381580">
        <ele>545.1</ele>
        <time>2018-09-14T17:57:58Z</time>
      </trkpt>
      <trkpt lat="-24.8330910" lon="-53.7381690">
        <ele>545.3</ele>
        <time>2018-09-14T17:57:59Z</time>
      </trkpt>
      <trkpt lat="-24.8330900" lon="-53.7381730">
        <ele>545.5</ele>
        <time>2018-09-14T17:58:00Z</time>
      </trkpt>
      <trkpt lat="-24.8330890" lon="-53.7381750">
        <ele>545.5</ele>
        <time>2018-09-14T17:58:01Z</time>
      </trkpt>
      <trkpt lat="-24.8330930" lon="-53.7381890">
        <ele>545.3</ele>
        <time>2018-09-14T17:58:11Z</time>
      </trkpt>
      <trkpt lat="-24.8330880" lon="-53.7382010">
        <ele>545.5</ele>
        <time>2018-09-14T17:58:12Z</time>
      </trkpt>
      <trkpt lat="-24.8330790" lon="-53.7382190">
        <ele>545.5</ele>
        <time>2018-09-14T17:58:13Z</time>
      </trkpt>
      <trkpt lat="-24.8330660" lon="-53.7382430">
        <ele>545.5</ele>
        <time>2018-09-14T17:58:14Z</time>
      </trkpt>
      <trkpt lat="-24.8330510" lon="-53.7382700">
        <ele>545.6</ele>
        <time>2018-09-14T17:58:15Z</time>
      </trkpt>
      <trkpt lat="-24.8330330" lon="-53.7382980">
        <ele>545.4</ele>
        <time>2018-09-14T17:58:16Z</time>
      </trkpt>
      <trkpt lat="-24.8330150" lon="-53.7383280">
        <ele>545.4</ele>
        <time>2018-09-14T17:58:17Z</time>
      </trkpt>
      <trkpt lat="-24.8329950" lon="-53.7383560">
        <ele>545.0</ele>
        <time>2018-09-14T17:58:18Z</time>
      </trkpt>
      <trkpt lat="-24.8329750" lon="-53.7383860">
        <ele>544.4</ele>
        <time>2018-09-14T17:58:19Z</time>
      </trkpt>
      <trkpt lat="-24.8329550" lon="-53.7384160">
        <ele>544.5</ele>
        <time>2018-09-14T17:58:20Z</time>
      </trkpt>
      <trkpt lat="-24.8329340" lon="-53.7384470">
        <ele>544.1</ele>
        <time>2018-09-14T17:58:21Z</time>
      </trkpt>
      <trkpt lat="-24.8329110" lon="-53.7384790">
        <ele>543.6</ele>
        <time>2018-09-14T17:58:22Z</time>
      </trkpt>
      <trkpt lat="-24.8328880" lon="-53.7385100">
        <ele>543.4</ele>
        <time>2018-09-14T17:58:23Z</time>
      </trkpt>
      <trkpt lat="-24.8328640" lon="-53.7385420">
        <ele>543.4</ele>
        <time>2018-09-14T17:58:24Z</time>
      </trkpt>
      <trkpt lat="-24.8328400" lon="-53.7385750">
        <ele>543.3</ele>
        <time>2018-09-14T17:58:25Z</time>
      </trkpt>
      <trkpt lat="-24.8328140" lon="-53.7386090">
        <ele>542.9</ele>
        <time>2018-09-14T17:58:26Z</time>
      </trkpt>
      <trkpt lat="-24.8327880" lon="-53.7386420">
        <ele>542.4</ele>
        <time>2018-09-14T17:58:27Z</time>
      </trkpt>
      <trkpt lat="-24.8327620" lon="-53.7386760">
        <ele>542.4</ele>
        <time>2018-09-14T17:58:28Z</time>
      </trkpt>
      <trkpt lat="-24.8327370" lon="-53.7387110">
        <ele>541.7</ele>
        <time>2018-09-14T17:58:29Z</time>
      </trkpt>
      <trkpt lat="-24.8327090" lon="-53.7387450">
        <ele>541.3</ele>
        <time>2018-09-14T17:58:30Z</time>
      </trkpt>
      <trkpt lat="-24.8326790" lon="-53.7387790">
        <ele>540.4</ele>
        <time>2018-09-14T17:58:31Z</time>
      </trkpt>
      <trkpt lat="-24.8326480" lon="-53.7388110">
        <ele>539.5</ele>
        <time>2018-09-14T17:58:32Z</time>
      </trkpt>
      <trkpt lat="-24.8326170" lon="-53.7388410">
        <ele>539.1</ele>
        <time>2018-09-14T17:58:33Z</time>
      </trkpt>
      <trkpt lat="-24.8325850" lon="-53.7388710">
        <ele>538.9</ele>
        <time>2018-09-14T17:58:34Z</time>
      </trkpt>
      <trkpt lat="-24.8325600" lon="-53.7389030">
        <ele>538.5</ele>
        <time>2018-09-14T17:58:35Z</time>
      </trkpt>
      <trkpt lat="-24.8325360" lon="-53.7389350">
        <ele>538.3</ele>
        <time>2018-09-14T17:58:36Z</time>
      </trkpt>
      <trkpt lat="-24.8325130" lon="-53.7389690">
        <ele>538.3</ele>
        <time>2018-09-14T17:58:37Z</time>
      </trkpt>
      <trkpt lat="-24.8324910" lon="-53.7390020">
        <ele>538.2</ele>
        <time>2018-09-14T17:58:38Z</time>
      </trkpt>
      <trkpt lat="-24.8324680" lon="-53.7390350">
        <ele>538.4</ele>
        <time>2018-09-14T17:58:39Z</time>
      </trkpt>
      <trkpt lat="-24.8324470" lon="-53.7390660">
        <ele>538.3</ele>
        <time>2018-09-14T17:58:40Z</time>
      </trkpt>
      <trkpt lat="-24.8324260" lon="-53.7390960">
        <ele>538.5</ele>
        <time>2018-09-14T17:58:41Z</time>
      </trkpt>
      <trkpt lat="-24.8324070" lon="-53.7391260">
        <ele>538.8</ele>
        <time>2018-09-14T17:58:42Z</time>
      </trkpt>
      <trkpt lat="-24.8323910" lon="-53.7391560">
        <ele>539.0</ele>
        <time>2018-09-14T17:58:43Z</time>
      </trkpt>
      <trkpt lat="-24.8323720" lon="-53.7391780">
        <ele>538.9</ele>
        <time>2018-09-14T17:58:44Z</time>
      </trkpt>
      <trkpt lat="-24.8323550" lon="-53.7392020">
        <ele>538.9</ele>
        <time>2018-09-14T17:58:45Z</time>
      </trkpt>
      <trkpt lat="-24.8323410" lon="-53.7392260">
        <ele>539.0</ele>
        <time>2018-09-14T17:58:46Z</time>
      </trkpt>
      <trkpt lat="-24.8323250" lon="-53.7392470">
        <ele>538.8</ele>
        <time>2018-09-14T17:58:47Z</time>
      </trkpt>
      <trkpt lat="-24.8323090" lon="-53.7392710">
        <ele>539.1</ele>
        <time>2018-09-14T17:58:48Z</time>
      </trkpt>
      <trkpt lat="-24.8322930" lon="-53.7393010">
        <ele>538.8</ele>
        <time>2018-09-14T17:58:49Z</time>
      </trkpt>
      <trkpt lat="-24.8322780" lon="-53.7393330">
        <ele>538.5</ele>
        <time>2018-09-14T17:58:50Z</time>
      </trkpt>
      <trkpt lat="-24.8322590" lon="-53.7393620">
        <ele>538.9</ele>
        <time>2018-09-14T17:58:51Z</time>
      </trkpt>
      <trkpt lat="-24.8322430" lon="-53.7393940">
        <ele>538.6</ele>
        <time>2018-09-14T17:58:52Z</time>
      </trkpt>
      <trkpt lat="-24.8322270" lon="-53.7394240">
        <ele>538.9</ele>
        <time>2018-09-14T17:58:53Z</time>
      </trkpt>
      <trkpt lat="-24.8322090" lon="-53.7394550">
        <ele>538.7</ele>
        <time>2018-09-14T17:58:54Z</time>
      </trkpt>
      <trkpt lat="-24.8321910" lon="-53.7394850">
        <ele>539.2</ele>
        <time>2018-09-14T17:58:55Z</time>
      </trkpt>
      <trkpt lat="-24.8321730" lon="-53.7395140">
        <ele>539.0</ele>
        <time>2018-09-14T17:58:56Z</time>
      </trkpt>
      <trkpt lat="-24.8321570" lon="-53.7395450">
        <ele>538.9</ele>
        <time>2018-09-14T17:58:57Z</time>
      </trkpt>
      <trkpt lat="-24.8321420" lon="-53.7395760">
        <ele>539.3</ele>
        <time>2018-09-14T17:58:58Z</time>
      </trkpt>
      <trkpt lat="-24.8321260" lon="-53.7396070">
        <ele>539.2</ele>
        <time>2018-09-14T17:58:59Z</time>
      </trkpt>
      <trkpt lat="-24.8321090" lon="-53.7396380">
        <ele>539.5</ele>
        <time>2018-09-14T17:59:00Z</time>
      </trkpt>
      <trkpt lat="-24.8320920" lon="-53.7396700">
        <ele>539.4</ele>
        <time>2018-09-14T17:59:01Z</time>
      </trkpt>
      <trkpt lat="-24.8320760" lon="-53.7397020">
        <ele>539.7</ele>
        <time>2018-09-14T17:59:02Z</time>
      </trkpt>
      <trkpt lat="-24.8320590" lon="-53.7397340">
        <ele>539.7</ele>
        <time>2018-09-14T17:59:03Z</time>
      </trkpt>
      <trkpt lat="-24.8320430" lon="-53.7397680">
        <ele>539.7</ele>
        <time>2018-09-14T17:59:04Z</time>
      </trkpt>
      <trkpt lat="-24.8320260" lon="-53.7398010">
        <ele>539.9</ele>
        <time>2018-09-14T17:59:05Z</time>
      </trkpt>
      <trkpt lat="-24.8320100" lon="-53.7398350">
        <ele>539.9</ele>
        <time>2018-09-14T17:59:06Z</time>
      </trkpt>
      <trkpt lat="-24.8319930" lon="-53.7398680">
        <ele>540.1</ele>
        <time>2018-09-14T17:59:07Z</time>
      </trkpt>
      <trkpt lat="-24.8319780" lon="-53.7399010">
        <ele>540.3</ele>
        <time>2018-09-14T17:59:08Z</time>
      </trkpt>
      <trkpt lat="-24.8319630" lon="-53.7399330">
        <ele>540.5</ele>
        <time>2018-09-14T17:59:09Z</time>
      </trkpt>
      <trkpt lat="-24.8319510" lon="-53.7399650">
        <ele>540.7</ele>
        <time>2018-09-14T17:59:10Z</time>
      </trkpt>
      <trkpt lat="-24.8319390" lon="-53.7399960">
        <ele>541.0</ele>
        <time>2018-09-14T17:59:11Z</time>
      </trkpt>
      <trkpt lat="-24.8319270" lon="-53.7400270">
        <ele>541.3</ele>
        <time>2018-09-14T17:59:12Z</time>
      </trkpt>
      <trkpt lat="-24.8319160" lon="-53.7400550">
        <ele>541.8</ele>
        <time>2018-09-14T17:59:13Z</time>
      </trkpt>
      <trkpt lat="-24.8319080" lon="-53.7400800">
        <ele>541.9</ele>
        <time>2018-09-14T17:59:14Z</time>
      </trkpt>
      <trkpt lat="-24.8319000" lon="-53.7401040">
        <ele>541.9</ele>
        <time>2018-09-14T17:59:15Z</time>
      </trkpt>
      <trkpt lat="-24.8318950" lon="-53.7401270">
        <ele>541.9</ele>
        <time>2018-09-14T17:59:16Z</time>
      </trkpt>
      <trkpt lat="-24.8318910" lon="-53.7401500">
        <ele>541.9</ele>
        <time>2018-09-14T17:59:17Z</time>
      </trkpt>
      <trkpt lat="-24.8318910" lon="-53.7401750">
        <ele>541.9</ele>
        <time>2018-09-14T17:59:18Z</time>
      </trkpt>
      <trkpt lat="-24.8318960" lon="-53.7402010">
        <ele>541.9</ele>
        <time>2018-09-14T17:59:19Z</time>
      </trkpt>
      <trkpt lat="-24.8319040" lon="-53.7402240">
        <ele>541.9</ele>
        <time>2018-09-14T17:59:20Z</time>
      </trkpt>
      <trkpt lat="-24.8319150" lon="-53.7402410">
        <ele>541.9</ele>
        <time>2018-09-14T17:59:21Z</time>
      </trkpt>
      <trkpt lat="-24.8319310" lon="-53.7402500">
        <ele>541.9</ele>
        <time>2018-09-14T17:59:22Z</time>
      </trkpt>
      <trkpt lat="-24.8319490" lon="-53.7402500">
        <ele>541.9</ele>
        <time>2018-09-14T17:59:23Z</time>
      </trkpt>
      <trkpt lat="-24.8319690" lon="-53.7402430">
        <ele>541.9</ele>
        <time>2018-09-14T17:59:24Z</time>
      </trkpt>
      <trkpt lat="-24.8319960" lon="-53.7402340">
        <ele>541.8</ele>
        <time>2018-09-14T17:59:25Z</time>
      </trkpt>
      <trkpt lat="-24.8320290" lon="-53.7402200">
        <ele>541.6</ele>
        <time>2018-09-14T17:59:26Z</time>
      </trkpt>
      <trkpt lat="-24.8320650" lon="-53.7402050">
        <ele>541.3</ele>
        <time>2018-09-14T17:59:27Z</time>
      </trkpt>
      <trkpt lat="-24.8321030" lon="-53.7401910">
        <ele>541.1</ele>
        <time>2018-09-14T17:59:28Z</time>
      </trkpt>
      <trkpt lat="-24.8321430" lon="-53.7401800">
        <ele>541.0</ele>
        <time>2018-09-14T17:59:29Z</time>
      </trkpt>
      <trkpt lat="-24.8321820" lon="-53.7401690">
        <ele>541.0</ele>
        <time>2018-09-14T17:59:30Z</time>
      </trkpt>
      <trkpt lat="-24.8322210" lon="-53.7401570">
        <ele>541.3</ele>
        <time>2018-09-14T17:59:31Z</time>
      </trkpt>
      <trkpt lat="-24.8322600" lon="-53.7401460">
        <ele>541.6</ele>
        <time>2018-09-14T17:59:32Z</time>
      </trkpt>
      <trkpt lat="-24.8322990" lon="-53.7401350">
        <ele>541.8</ele>
        <time>2018-09-14T17:59:33Z</time>
      </trkpt>
      <trkpt lat="-24.8323280" lon="-53.7401240">
        <ele>542.0</ele>
        <time>2018-09-14T17:59:34Z</time>
      </trkpt>
      <trkpt lat="-24.8323410" lon="-53.7401200">
        <ele>542.1</ele>
        <time>2018-09-14T17:59:35Z</time>
      </trkpt>
      <trkpt lat="-24.8323430" lon="-53.7401180">
        <ele>542.1</ele>
        <time>2018-09-14T17:59:36Z</time>
      </trkpt>
      <trkpt lat="-24.8323430" lon="-53.7401170">
        <ele>542.1</ele>
        <time>2018-09-14T17:59:37Z</time>
      </trkpt>
      <trkpt lat="-24.8323430" lon="-53.7401120">
        <ele>542.1</ele>
        <time>2018-09-14T17:59:43Z</time>
      </trkpt>
      <trkpt lat="-24.8323450" lon="-53.7401110">
        <ele>542.1</ele>
        <time>2018-09-14T17:59:45Z</time>
      </trkpt>
      <trkpt lat="-24.8323460" lon="-53.7400990">
        <ele>542.2</ele>
        <time>2018-09-14T18:00:04Z</time>
      </trkpt>
      <trkpt lat="-24.8323460" lon="-53.7400980">
        <ele>542.2</ele>
        <time>2018-09-14T18:00:05Z</time>
      </trkpt>
      <trkpt lat="-24.8323460" lon="-53.7400980">
        <ele>542.2</ele>
        <time>2018-09-14T18:00:06Z</time>
      </trkpt>
      <trkpt lat="-24.8323480" lon="-53.7401000">
        <ele>542.2</ele>
        <time>2018-09-14T18:00:32Z</time>
      </trkpt>
      <trkpt lat="-24.8323610" lon="-53.7400950">
        <ele>542.2</ele>
        <time>2018-09-14T18:00:33Z</time>
      </trkpt>
      <trkpt lat="-24.8323810" lon="-53.7400920">
        <ele>542.3</ele>
        <time>2018-09-14T18:00:34Z</time>
      </trkpt>
      <trkpt lat="-24.8324040" lon="-53.7400890">
        <ele>542.3</ele>
        <time>2018-09-14T18:00:35Z</time>
      </trkpt>
      <trkpt lat="-24.8324290" lon="-53.7400800">
        <ele>542.4</ele>
        <time>2018-09-14T18:00:36Z</time>
      </trkpt>
      <trkpt lat="-24.8324540" lon="-53.7400680">
        <ele>542.6</ele>
        <time>2018-09-14T18:00:37Z</time>
      </trkpt>
      <trkpt lat="-24.8324830" lon="-53.7400550">
        <ele>542.8</ele>
        <time>2018-09-14T18:00:38Z</time>
      </trkpt>
      <trkpt lat="-24.8325110" lon="-53.7400420">
        <ele>542.9</ele>
        <time>2018-09-14T18:00:39Z</time>
      </trkpt>
      <trkpt lat="-24.8325400" lon="-53.7400290">
        <ele>543.1</ele>
        <time>2018-09-14T18:00:40Z</time>
      </trkpt>
      <trkpt lat="-24.8325690" lon="-53.7400160">
        <ele>543.2</ele>
        <time>2018-09-14T18:00:41Z</time>
      </trkpt>
      <trkpt lat="-24.8326000" lon="-53.7400030">
        <ele>543.3</ele>
        <time>2018-09-14T18:00:42Z</time>
      </trkpt>
      <trkpt lat="-24.8326300" lon="-53.7399880">
        <ele>543.4</ele>
        <time>2018-09-14T18:00:43Z</time>
      </trkpt>
      <trkpt lat="-24.8326590" lon="-53.7399700">
        <ele>543.4</ele>
        <time>2018-09-14T18:00:44Z</time>
      </trkpt>
      <trkpt lat="-24.8326880" lon="-53.7399540">
        <ele>543.6</ele>
        <time>2018-09-14T18:00:45Z</time>
      </trkpt>
      <trkpt lat="-24.8327180" lon="-53.7399380">
        <ele>543.8</ele>
        <time>2018-09-14T18:00:46Z</time>
      </trkpt>
      <trkpt lat="-24.8327510" lon="-53.7399220">
        <ele>544.2</ele>
        <time>2018-09-14T18:00:47Z</time>
      </trkpt>
      <trkpt lat="-24.8327850" lon="-53.7399030">
        <ele>544.7</ele>
        <time>2018-09-14T18:00:48Z</time>
      </trkpt>
      <trkpt lat="-24.8328200" lon="-53.7398860">
        <ele>545.3</ele>
        <time>2018-09-14T18:00:49Z</time>
      </trkpt>
      <trkpt lat="-24.8328560" lon="-53.7398700">
        <ele>545.5</ele>
        <time>2018-09-14T18:00:50Z</time>
      </trkpt>
      <trkpt lat="-24.8328960" lon="-53.7398560">
        <ele>545.8</ele>
        <time>2018-09-14T18:00:51Z</time>
      </trkpt>
      <trkpt lat="-24.8329350" lon="-53.7398380">
        <ele>546.1</ele>
        <time>2018-09-14T18:00:52Z</time>
      </trkpt>
      <trkpt lat="-24.8329720" lon="-53.7398180">
        <ele>546.4</ele>
        <time>2018-09-14T18:00:53Z</time>
      </trkpt>
      <trkpt lat="-24.8330100" lon="-53.7397990">
        <ele>546.6</ele>
        <time>2018-09-14T18:00:54Z</time>
      </trkpt>
      <trkpt lat="-24.8330480" lon="-53.7397820">
        <ele>546.7</ele>
        <time>2018-09-14T18:00:55Z</time>
      </trkpt>
      <trkpt lat="-24.8330850" lon="-53.7397670">
        <ele>546.8</ele>
        <time>2018-09-14T18:00:56Z</time>
      </trkpt>
      <trkpt lat="-24.8331200" lon="-53.7397530">
        <ele>546.8</ele>
        <time>2018-09-14T18:00:57Z</time>
      </trkpt>
      <trkpt lat="-24.8331520" lon="-53.7397390">
        <ele>546.8</ele>
        <time>2018-09-14T18:00:58Z</time>
      </trkpt>
      <trkpt lat="-24.8331830" lon="-53.7397250">
        <ele>546.9</ele>
        <time>2018-09-14T18:00:59Z</time>
      </trkpt>
      <trkpt lat="-24.8332150" lon="-53.7397090">
        <ele>546.9</ele>
        <time>2018-09-14T18:01:00Z</time>
      </trkpt>
      <trkpt lat="-24.8332510" lon="-53.7396900">
        <ele>546.9</ele>
        <time>2018-09-14T18:01:01Z</time>
      </trkpt>
      <trkpt lat="-24.8332900" lon="-53.7396690">
        <ele>546.9</ele>
        <time>2018-09-14T18:01:02Z</time>
      </trkpt>
      <trkpt lat="-24.8333300" lon="-53.7396480">
        <ele>546.9</ele>
        <time>2018-09-14T18:01:03Z</time>
      </trkpt>
      <trkpt lat="-24.8333690" lon="-53.7396270">
        <ele>546.9</ele>
        <time>2018-09-14T18:01:04Z</time>
      </trkpt>
      <trkpt lat="-24.8334070" lon="-53.7396080">
        <ele>547.0</ele>
        <time>2018-09-14T18:01:05Z</time>
      </trkpt>
      <trkpt lat="-24.8334440" lon="-53.7395910">
        <ele>547.2</ele>
        <time>2018-09-14T18:01:06Z</time>
      </trkpt>
      <trkpt lat="-24.8334790" lon="-53.7395730">
        <ele>547.4</ele>
        <time>2018-09-14T18:01:07Z</time>
      </trkpt>
      <trkpt lat="-24.8335120" lon="-53.7395550">
        <ele>547.6</ele>
        <time>2018-09-14T18:01:08Z</time>
      </trkpt>
      <trkpt lat="-24.8335460" lon="-53.7395370">
        <ele>547.9</ele>
        <time>2018-09-14T18:01:09Z</time>
      </trkpt>
      <trkpt lat="-24.8335810" lon="-53.7395190">
        <ele>548.0</ele>
        <time>2018-09-14T18:01:10Z</time>
      </trkpt>
      <trkpt lat="-24.8336140" lon="-53.7395030">
        <ele>548.1</ele>
        <time>2018-09-14T18:01:11Z</time>
      </trkpt>
      <trkpt lat="-24.8336460" lon="-53.7394860">
        <ele>548.1</ele>
        <time>2018-09-14T18:01:12Z</time>
      </trkpt>
      <trkpt lat="-24.8336770" lon="-53.7394700">
        <ele>548.1</ele>
        <time>2018-09-14T18:01:13Z</time>
      </trkpt>
      <trkpt lat="-24.8337070" lon="-53.7394540">
        <ele>548.1</ele>
        <time>2018-09-14T18:01:14Z</time>
      </trkpt>
      <trkpt lat="-24.8337370" lon="-53.7394380">
        <ele>548.0</ele>
        <time>2018-09-14T18:01:15Z</time>
      </trkpt>
      <trkpt lat="-24.8337670" lon="-53.7394220">
        <ele>548.0</ele>
        <time>2018-09-14T18:01:16Z</time>
      </trkpt>
      <trkpt lat="-24.8337980" lon="-53.7394060">
        <ele>548.0</ele>
        <time>2018-09-14T18:01:17Z</time>
      </trkpt>
      <trkpt lat="-24.8338310" lon="-53.7393900">
        <ele>548.0</ele>
        <time>2018-09-14T18:01:18Z</time>
      </trkpt>
      <trkpt lat="-24.8338650" lon="-53.7393740">
        <ele>548.0</ele>
        <time>2018-09-14T18:01:19Z</time>
      </trkpt>
      <trkpt lat="-24.8338970" lon="-53.7393570">
        <ele>548.0</ele>
        <time>2018-09-14T18:01:20Z</time>
      </trkpt>
      <trkpt lat="-24.8339290" lon="-53.7393410">
        <ele>548.0</ele>
        <time>2018-09-14T18:01:21Z</time>
      </trkpt>
      <trkpt lat="-24.8339610" lon="-53.7393250">
        <ele>548.0</ele>
        <time>2018-09-14T18:01:22Z</time>
      </trkpt>
      <trkpt lat="-24.8339930" lon="-53.7393080">
        <ele>548.1</ele>
        <time>2018-09-14T18:01:23Z</time>
      </trkpt>
      <trkpt lat="-24.8340250" lon="-53.7392920">
        <ele>548.1</ele>
        <time>2018-09-14T18:01:24Z</time>
      </trkpt>
      <trkpt lat="-24.8340540" lon="-53.7392760">
        <ele>548.2</ele>
        <time>2018-09-14T18:01:25Z</time>
      </trkpt>
      <trkpt lat="-24.8340820" lon="-53.7392610">
        <ele>548.4</ele>
        <time>2018-09-14T18:01:26Z</time>
      </trkpt>
      <trkpt lat="-24.8341080" lon="-53.7392470">
        <ele>548.6</ele>
        <time>2018-09-14T18:01:27Z</time>
      </trkpt>
      <trkpt lat="-24.8341340" lon="-53.7392340">
        <ele>548.7</ele>
        <time>2018-09-14T18:01:28Z</time>
      </trkpt>
      <trkpt lat="-24.8341620" lon="-53.7392200">
        <ele>548.9</ele>
        <time>2018-09-14T18:01:29Z</time>
      </trkpt>
      <trkpt lat="-24.8341930" lon="-53.7392050">
        <ele>549.1</ele>
        <time>2018-09-14T18:01:30Z</time>
      </trkpt>
      <trkpt lat="-24.8342290" lon="-53.7391880">
        <ele>549.2</ele>
        <time>2018-09-14T18:01:31Z</time>
      </trkpt>
      <trkpt lat="-24.8342660" lon="-53.7391700">
        <ele>549.3</ele>
        <time>2018-09-14T18:01:32Z</time>
      </trkpt>
      <trkpt lat="-24.8343030" lon="-53.7391510">
        <ele>549.4</ele>
        <time>2018-09-14T18:01:33Z</time>
      </trkpt>
      <trkpt lat="-24.8343390" lon="-53.7391320">
        <ele>549.5</ele>
        <time>2018-09-14T18:01:34Z</time>
      </trkpt>
      <trkpt lat="-24.8343730" lon="-53.7391130">
        <ele>549.6</ele>
        <time>2018-09-14T18:01:35Z</time>
      </trkpt>
      <trkpt lat="-24.8344080" lon="-53.7390960">
        <ele>549.7</ele>
        <time>2018-09-14T18:01:36Z</time>
      </trkpt>
      <trkpt lat="-24.8344410" lon="-53.7390790">
        <ele>549.8</ele>
        <time>2018-09-14T18:01:37Z</time>
      </trkpt>
      <trkpt lat="-24.8344740" lon="-53.7390610">
        <ele>549.9</ele>
        <time>2018-09-14T18:01:38Z</time>
      </trkpt>
      <trkpt lat="-24.8345070" lon="-53.7390430">
        <ele>550.0</ele>
        <time>2018-09-14T18:01:39Z</time>
      </trkpt>
      <trkpt lat="-24.8345400" lon="-53.7390250">
        <ele>550.0</ele>
        <time>2018-09-14T18:01:40Z</time>
      </trkpt>
      <trkpt lat="-24.8345720" lon="-53.7390070">
        <ele>550.1</ele>
        <time>2018-09-14T18:01:41Z</time>
      </trkpt>
      <trkpt lat="-24.8346030" lon="-53.7389900">
        <ele>550.2</ele>
        <time>2018-09-14T18:01:42Z</time>
      </trkpt>
      <trkpt lat="-24.8346320" lon="-53.7389750">
        <ele>550.3</ele>
        <time>2018-09-14T18:01:43Z</time>
      </trkpt>
      <trkpt lat="-24.8346600" lon="-53.7389610">
        <ele>550.4</ele>
        <time>2018-09-14T18:01:44Z</time>
      </trkpt>
      <trkpt lat="-24.8346900" lon="-53.7389470">
        <ele>550.4</ele>
        <time>2018-09-14T18:01:45Z</time>
      </trkpt>
      <trkpt lat="-24.8347240" lon="-53.7389300">
        <ele>550.3</ele>
        <time>2018-09-14T18:01:46Z</time>
      </trkpt>
      <trkpt lat="-24.8347620" lon="-53.7389130">
        <ele>550.2</ele>
        <time>2018-09-14T18:01:47Z</time>
      </trkpt>
      <trkpt lat="-24.8348000" lon="-53.7388940">
        <ele>550.1</ele>
        <time>2018-09-14T18:01:48Z</time>
      </trkpt>
      <trkpt lat="-24.8348390" lon="-53.7388740">
        <ele>549.9</ele>
        <time>2018-09-14T18:01:49Z</time>
      </trkpt>
      <trkpt lat="-24.8348770" lon="-53.7388550">
        <ele>549.9</ele>
        <time>2018-09-14T18:01:50Z</time>
      </trkpt>
      <trkpt lat="-24.8349140" lon="-53.7388360">
        <ele>549.9</ele>
        <time>2018-09-14T18:01:51Z</time>
      </trkpt>
      <trkpt lat="-24.8349140" lon="-53.7388360">
        <ele>549.9</ele>
        <time>2018-09-14T18:01:52Z</time>
      </trkpt>
      <trkpt lat="-24.8349510" lon="-53.7388170">
        <ele>550.1</ele>
        <time>2018-09-14T18:01:53Z</time>
      </trkpt>
      <trkpt lat="-24.8349880" lon="-53.7387990">
        <ele>550.3</ele>
        <time>2018-09-14T18:01:54Z</time>
      </trkpt>
      <trkpt lat="-24.8350240" lon="-53.7387810">
        <ele>550.4</ele>
        <time>2018-09-14T18:01:55Z</time>
      </trkpt>
      <trkpt lat="-24.8350590" lon="-53.7387640">
        <ele>550.4</ele>
        <time>2018-09-14T18:01:56Z</time>
      </trkpt>
      <trkpt lat="-24.8350940" lon="-53.7387470">
        <ele>550.4</ele>
        <time>2018-09-14T18:01:57Z</time>
      </trkpt>
      <trkpt lat="-24.8351280" lon="-53.7387290">
        <ele>550.3</ele>
        <time>2018-09-14T18:01:58Z</time>
      </trkpt>
      <trkpt lat="-24.8351620" lon="-53.7387120">
        <ele>550.3</ele>
        <time>2018-09-14T18:01:59Z</time>
      </trkpt>
      <trkpt lat="-24.8351940" lon="-53.7386950">
        <ele>550.1</ele>
        <time>2018-09-14T18:02:00Z</time>
      </trkpt>
      <trkpt lat="-24.8352250" lon="-53.7386800">
        <ele>550.0</ele>
        <time>2018-09-14T18:02:01Z</time>
      </trkpt>
      <trkpt lat="-24.8352550" lon="-53.7386660">
        <ele>549.9</ele>
        <time>2018-09-14T18:02:02Z</time>
      </trkpt>
      <trkpt lat="-24.8352860" lon="-53.7386530">
        <ele>549.9</ele>
        <time>2018-09-14T18:02:03Z</time>
      </trkpt>
      <trkpt lat="-24.8353160" lon="-53.7386380">
        <ele>549.8</ele>
        <time>2018-09-14T18:02:04Z</time>
      </trkpt>
      <trkpt lat="-24.8353480" lon="-53.7386220">
        <ele>550.0</ele>
        <time>2018-09-14T18:02:05Z</time>
      </trkpt>
      <trkpt lat="-24.8353850" lon="-53.7386040">
        <ele>550.2</ele>
        <time>2018-09-14T18:02:06Z</time>
      </trkpt>
      <trkpt lat="-24.8354250" lon="-53.7385860">
        <ele>550.4</ele>
        <time>2018-09-14T18:02:07Z</time>
      </trkpt>
      <trkpt lat="-24.8354660" lon="-53.7385640">
        <ele>550.5</ele>
        <time>2018-09-14T18:02:08Z</time>
      </trkpt>
      <trkpt lat="-24.8355050" lon="-53.7385410">
        <ele>550.7</ele>
        <time>2018-09-14T18:02:09Z</time>
      </trkpt>
      <trkpt lat="-24.8355460" lon="-53.7385210">
        <ele>550.8</ele>
        <time>2018-09-14T18:02:10Z</time>
      </trkpt>
      <trkpt lat="-24.8355880" lon="-53.7385030">
        <ele>550.9</ele>
        <time>2018-09-14T18:02:11Z</time>
      </trkpt>
      <trkpt lat="-24.8356300" lon="-53.7384840">
        <ele>551.0</ele>
        <time>2018-09-14T18:02:12Z</time>
      </trkpt>
      <trkpt lat="-24.8356710" lon="-53.7384620">
        <ele>551.1</ele>
        <time>2018-09-14T18:02:13Z</time>
      </trkpt>
      <trkpt lat="-24.8357120" lon="-53.7384400">
        <ele>551.2</ele>
        <time>2018-09-14T18:02:14Z</time>
      </trkpt>
      <trkpt lat="-24.8357550" lon="-53.7384180">
        <ele>551.1</ele>
        <time>2018-09-14T18:02:15Z</time>
      </trkpt>
      <trkpt lat="-24.8357970" lon="-53.7383960">
        <ele>551.0</ele>
        <time>2018-09-14T18:02:16Z</time>
      </trkpt>
      <trkpt lat="-24.8358400" lon="-53.7383760">
        <ele>551.0</ele>
        <time>2018-09-14T18:02:17Z</time>
      </trkpt>
      <trkpt lat="-24.8358820" lon="-53.7383540">
        <ele>551.0</ele>
        <time>2018-09-14T18:02:18Z</time>
      </trkpt>
      <trkpt lat="-24.8359240" lon="-53.7383310">
        <ele>551.2</ele>
        <time>2018-09-14T18:02:19Z</time>
      </trkpt>
      <trkpt lat="-24.8359680" lon="-53.7383080">
        <ele>551.5</ele>
        <time>2018-09-14T18:02:20Z</time>
      </trkpt>
      <trkpt lat="-24.8360120" lon="-53.7382830">
        <ele>551.8</ele>
        <time>2018-09-14T18:02:21Z</time>
      </trkpt>
      <trkpt lat="-24.8360560" lon="-53.7382580">
        <ele>552.1</ele>
        <time>2018-09-14T18:02:22Z</time>
      </trkpt>
      <trkpt lat="-24.8361000" lon="-53.7382340">
        <ele>552.3</ele>
        <time>2018-09-14T18:02:23Z</time>
      </trkpt>
      <trkpt lat="-24.8361430" lon="-53.7382110">
        <ele>552.5</ele>
        <time>2018-09-14T18:02:24Z</time>
      </trkpt>
      <trkpt lat="-24.8361820" lon="-53.7381880">
        <ele>552.6</ele>
        <time>2018-09-14T18:02:25Z</time>
      </trkpt>
      <trkpt lat="-24.8362220" lon="-53.7381660">
        <ele>552.7</ele>
        <time>2018-09-14T18:02:26Z</time>
      </trkpt>
      <trkpt lat="-24.8362660" lon="-53.7381410">
        <ele>552.7</ele>
        <time>2018-09-14T18:02:27Z</time>
      </trkpt>
      <trkpt lat="-24.8363140" lon="-53.7381130">
        <ele>552.6</ele>
        <time>2018-09-14T18:02:28Z</time>
      </trkpt>
      <trkpt lat="-24.8363650" lon="-53.7380850">
        <ele>552.4</ele>
        <time>2018-09-14T18:02:29Z</time>
      </trkpt>
      <trkpt lat="-24.8364160" lon="-53.7380570">
        <ele>552.1</ele>
        <time>2018-09-14T18:02:30Z</time>
      </trkpt>
      <trkpt lat="-24.8364690" lon="-53.7380270">
        <ele>551.9</ele>
        <time>2018-09-14T18:02:31Z</time>
      </trkpt>
      <trkpt lat="-24.8365220" lon="-53.7379960">
        <ele>551.8</ele>
        <time>2018-09-14T18:02:32Z</time>
      </trkpt>
      <trkpt lat="-24.8365760" lon="-53.7379630">
        <ele>551.8</ele>
        <time>2018-09-14T18:02:33Z</time>
      </trkpt>
      <trkpt lat="-24.8366280" lon="-53.7379290">
        <ele>551.6</ele>
        <time>2018-09-14T18:02:34Z</time>
      </trkpt>
      <trkpt lat="-24.8366760" lon="-53.7378970">
        <ele>551.4</ele>
        <time>2018-09-14T18:02:35Z</time>
      </trkpt>
      <trkpt lat="-24.8367250" lon="-53.7378650">
        <ele>551.4</ele>
        <time>2018-09-14T18:02:36Z</time>
      </trkpt>
      <trkpt lat="-24.8367780" lon="-53.7378300">
        <ele>551.4</ele>
        <time>2018-09-14T18:02:37Z</time>
      </trkpt>
      <trkpt lat="-24.8368330" lon="-53.7377950">
        <ele>551.3</ele>
        <time>2018-09-14T18:02:38Z</time>
      </trkpt>
      <trkpt lat="-24.8368890" lon="-53.7377610">
        <ele>551.2</ele>
        <time>2018-09-14T18:02:39Z</time>
      </trkpt>
      <trkpt lat="-24.8369470" lon="-53.7377260">
        <ele>551.2</ele>
        <time>2018-09-14T18:02:40Z</time>
      </trkpt>
      <trkpt lat="-24.8370050" lon="-53.7376910">
        <ele>551.5</ele>
        <time>2018-09-14T18:02:41Z</time>
      </trkpt>
      <trkpt lat="-24.8370640" lon="-53.7376550">
        <ele>552.0</ele>
        <time>2018-09-14T18:02:42Z</time>
      </trkpt>
      <trkpt lat="-24.8371230" lon="-53.7376190">
        <ele>552.6</ele>
        <time>2018-09-14T18:02:43Z</time>
      </trkpt>
      <trkpt lat="-24.8371810" lon="-53.7375860">
        <ele>553.1</ele>
        <time>2018-09-14T18:02:44Z</time>
      </trkpt>
      <trkpt lat="-24.8372390" lon="-53.7375540">
        <ele>553.4</ele>
        <time>2018-09-14T18:02:45Z</time>
      </trkpt>
      <trkpt lat="-24.8372990" lon="-53.7375190">
        <ele>553.4</ele>
        <time>2018-09-14T18:02:46Z</time>
      </trkpt>
      <trkpt lat="-24.8373590" lon="-53.7374830">
        <ele>553.2</ele>
        <time>2018-09-14T18:02:47Z</time>
      </trkpt>
      <trkpt lat="-24.8374190" lon="-53.7374470">
        <ele>553.1</ele>
        <time>2018-09-14T18:02:48Z</time>
      </trkpt>
      <trkpt lat="-24.8374780" lon="-53.7374110">
        <ele>552.8</ele>
        <time>2018-09-14T18:02:49Z</time>
      </trkpt>
      <trkpt lat="-24.8375370" lon="-53.7373750">
        <ele>552.3</ele>
        <time>2018-09-14T18:02:50Z</time>
      </trkpt>
      <trkpt lat="-24.8375960" lon="-53.7373400">
        <ele>552.0</ele>
        <time>2018-09-14T18:02:51Z</time>
      </trkpt>
      <trkpt lat="-24.8376550" lon="-53.7373060">
        <ele>552.0</ele>
        <time>2018-09-14T18:02:52Z</time>
      </trkpt>
      <trkpt lat="-24.8377140" lon="-53.7372710">
        <ele>552.1</ele>
        <time>2018-09-14T18:02:53Z</time>
      </trkpt>
      <trkpt lat="-24.8377690" lon="-53.7372350">
        <ele>552.0</ele>
        <time>2018-09-14T18:02:54Z</time>
      </trkpt>
      <trkpt lat="-24.8378210" lon="-53.7372020">
        <ele>551.7</ele>
        <time>2018-09-14T18:02:55Z</time>
      </trkpt>
      <trkpt lat="-24.8378730" lon="-53.7371700">
        <ele>551.3</ele>
        <time>2018-09-14T18:02:56Z</time>
      </trkpt>
      <trkpt lat="-24.8379270" lon="-53.7371360">
        <ele>551.0</ele>
        <time>2018-09-14T18:02:57Z</time>
      </trkpt>
      <trkpt lat="-24.8379830" lon="-53.7371030">
        <ele>550.8</ele>
        <time>2018-09-14T18:02:58Z</time>
      </trkpt>
      <trkpt lat="-24.8380400" lon="-53.7370710">
        <ele>550.9</ele>
        <time>2018-09-14T18:02:59Z</time>
      </trkpt>
      <trkpt lat="-24.8380960" lon="-53.7370390">
        <ele>551.2</ele>
        <time>2018-09-14T18:03:00Z</time>
      </trkpt>
      <trkpt lat="-24.8381520" lon="-53.7370070">
        <ele>551.8</ele>
        <time>2018-09-14T18:03:01Z</time>
      </trkpt>
      <trkpt lat="-24.8382070" lon="-53.7369750">
        <ele>552.6</ele>
        <time>2018-09-14T18:03:02Z</time>
      </trkpt>
      <trkpt lat="-24.8382600" lon="-53.7369440">
        <ele>553.3</ele>
        <time>2018-09-14T18:03:03Z</time>
      </trkpt>
      <trkpt lat="-24.8383090" lon="-53.7369140">
        <ele>553.8</ele>
        <time>2018-09-14T18:03:04Z</time>
      </trkpt>
      <trkpt lat="-24.8383540" lon="-53.7368860">
        <ele>554.0</ele>
        <time>2018-09-14T18:03:05Z</time>
      </trkpt>
      <trkpt lat="-24.8384000" lon="-53.7368570">
        <ele>554.0</ele>
        <time>2018-09-14T18:03:06Z</time>
      </trkpt>
      <trkpt lat="-24.8384510" lon="-53.7368280">
        <ele>553.8</ele>
        <time>2018-09-14T18:03:07Z</time>
      </trkpt>
      <trkpt lat="-24.8385040" lon="-53.7367980">
        <ele>553.7</ele>
        <time>2018-09-14T18:03:08Z</time>
      </trkpt>
      <trkpt lat="-24.8385580" lon="-53.7367670">
        <ele>553.5</ele>
        <time>2018-09-14T18:03:09Z</time>
      </trkpt>
      <trkpt lat="-24.8386140" lon="-53.7367340">
        <ele>552.9</ele>
        <time>2018-09-14T18:03:10Z</time>
      </trkpt>
      <trkpt lat="-24.8386710" lon="-53.7367000">
        <ele>552.1</ele>
        <time>2018-09-14T18:03:11Z</time>
      </trkpt>
      <trkpt lat="-24.8387280" lon="-53.7366660">
        <ele>551.4</ele>
        <time>2018-09-14T18:03:12Z</time>
      </trkpt>
      <trkpt lat="-24.8387850" lon="-53.7366320">
        <ele>551.0</ele>
        <time>2018-09-14T18:03:13Z</time>
      </trkpt>
      <trkpt lat="-24.8388420" lon="-53.7365970">
        <ele>550.7</ele>
        <time>2018-09-14T18:03:14Z</time>
      </trkpt>
      <trkpt lat="-24.8388980" lon="-53.7365630">
        <ele>550.3</ele>
        <time>2018-09-14T18:03:15Z</time>
      </trkpt>
      <trkpt lat="-24.8389540" lon="-53.7365280">
        <ele>549.9</ele>
        <time>2018-09-14T18:03:16Z</time>
      </trkpt>
      <trkpt lat="-24.8390110" lon="-53.7364930">
        <ele>549.5</ele>
        <time>2018-09-14T18:03:17Z</time>
      </trkpt>
      <trkpt lat="-24.8390670" lon="-53.7364590">
        <ele>549.3</ele>
        <time>2018-09-14T18:03:18Z</time>
      </trkpt>
      <trkpt lat="-24.8391240" lon="-53.7364260">
        <ele>549.2</ele>
        <time>2018-09-14T18:03:19Z</time>
      </trkpt>
      <trkpt lat="-24.8391800" lon="-53.7363920">
        <ele>549.1</ele>
        <time>2018-09-14T18:03:20Z</time>
      </trkpt>
      <trkpt lat="-24.8392350" lon="-53.7363580">
        <ele>548.9</ele>
        <time>2018-09-14T18:03:21Z</time>
      </trkpt>
      <trkpt lat="-24.8392900" lon="-53.7363240">
        <ele>548.9</ele>
        <time>2018-09-14T18:03:22Z</time>
      </trkpt>
      <trkpt lat="-24.8393440" lon="-53.7362910">
        <ele>549.2</ele>
        <time>2018-09-14T18:03:23Z</time>
      </trkpt>
      <trkpt lat="-24.8393980" lon="-53.7362580">
        <ele>549.6</ele>
        <time>2018-09-14T18:03:24Z</time>
      </trkpt>
      <trkpt lat="-24.8394520" lon="-53.7362250">
        <ele>550.2</ele>
        <time>2018-09-14T18:03:25Z</time>
      </trkpt>
      <trkpt lat="-24.8395050" lon="-53.7361930">
        <ele>550.7</ele>
        <time>2018-09-14T18:03:26Z</time>
      </trkpt>
      <trkpt lat="-24.8395570" lon="-53.7361620">
        <ele>551.3</ele>
        <time>2018-09-14T18:03:27Z</time>
      </trkpt>
      <trkpt lat="-24.8396070" lon="-53.7361310">
        <ele>551.8</ele>
        <time>2018-09-14T18:03:28Z</time>
      </trkpt>
      <trkpt lat="-24.8396550" lon="-53.7361000">
        <ele>552.1</ele>
        <time>2018-09-14T18:03:29Z</time>
      </trkpt>
      <trkpt lat="-24.8397020" lon="-53.7360700">
        <ele>552.2</ele>
        <time>2018-09-14T18:03:30Z</time>
      </trkpt>
      <trkpt lat="-24.8397890" lon="-53.7360160">
        <ele>552.4</ele>
        <time>2018-09-14T18:03:31Z</time>
      </trkpt>
      <trkpt lat="-24.8398290" lon="-53.7359920">
        <ele>552.5</ele>
        <time>2018-09-14T18:03:32Z</time>
      </trkpt>
      <trkpt lat="-24.8398710" lon="-53.7359680">
        <ele>552.7</ele>
        <time>2018-09-14T18:03:33Z</time>
      </trkpt>
      <trkpt lat="-24.8399140" lon="-53.7359430">
        <ele>553.0</ele>
        <time>2018-09-14T18:03:34Z</time>
      </trkpt>
      <trkpt lat="-24.8399570" lon="-53.7359170">
        <ele>553.3</ele>
        <time>2018-09-14T18:03:35Z</time>
      </trkpt>
      <trkpt lat="-24.8400000" lon="-53.7358910">
        <ele>553.5</ele>
        <time>2018-09-14T18:03:36Z</time>
      </trkpt>
      <trkpt lat="-24.8400420" lon="-53.7358660">
        <ele>553.7</ele>
        <time>2018-09-14T18:03:37Z</time>
      </trkpt>
      <trkpt lat="-24.8400830" lon="-53.7358420">
        <ele>553.6</ele>
        <time>2018-09-14T18:03:38Z</time>
      </trkpt>
      <trkpt lat="-24.8401230" lon="-53.7358160">
        <ele>553.4</ele>
        <time>2018-09-14T18:03:39Z</time>
      </trkpt>
      <trkpt lat="-24.8401610" lon="-53.7357920">
        <ele>553.1</ele>
        <time>2018-09-14T18:03:40Z</time>
      </trkpt>
      <trkpt lat="-24.8401990" lon="-53.7357700">
        <ele>552.8</ele>
        <time>2018-09-14T18:03:41Z</time>
      </trkpt>
      <trkpt lat="-24.8402350" lon="-53.7357490">
        <ele>552.6</ele>
        <time>2018-09-14T18:03:42Z</time>
      </trkpt>
      <trkpt lat="-24.8403030" lon="-53.7357040">
        <ele>552.4</ele>
        <time>2018-09-14T18:03:44Z</time>
      </trkpt>
      <trkpt lat="-24.8403360" lon="-53.7356830">
        <ele>552.4</ele>
        <time>2018-09-14T18:03:45Z</time>
      </trkpt>
      <trkpt lat="-24.8403670" lon="-53.7356630">
        <ele>552.3</ele>
        <time>2018-09-14T18:03:46Z</time>
      </trkpt>
      <trkpt lat="-24.8403970" lon="-53.7356440">
        <ele>552.3</ele>
        <time>2018-09-14T18:03:47Z</time>
      </trkpt>
      <trkpt lat="-24.8404260" lon="-53.7356250">
        <ele>552.3</ele>
        <time>2018-09-14T18:03:48Z</time>
      </trkpt>
      <trkpt lat="-24.8404560" lon="-53.7356090">
        <ele>552.4</ele>
        <time>2018-09-14T18:03:49Z</time>
      </trkpt>
      <trkpt lat="-24.8404890" lon="-53.7355890">
        <ele>552.5</ele>
        <time>2018-09-14T18:03:50Z</time>
      </trkpt>
      <trkpt lat="-24.8405250" lon="-53.7355680">
        <ele>552.7</ele>
        <time>2018-09-14T18:03:51Z</time>
      </trkpt>
      <trkpt lat="-24.8405620" lon="-53.7355460">
        <ele>553.0</ele>
        <time>2018-09-14T18:03:52Z</time>
      </trkpt>
      <trkpt lat="-24.8405990" lon="-53.7355230">
        <ele>553.3</ele>
        <time>2018-09-14T18:03:53Z</time>
      </trkpt>
      <trkpt lat="-24.8406360" lon="-53.7355010">
        <ele>553.7</ele>
        <time>2018-09-14T18:03:54Z</time>
      </trkpt>
      <trkpt lat="-24.8406730" lon="-53.7354790">
        <ele>554.2</ele>
        <time>2018-09-14T18:03:55Z</time>
      </trkpt>
      <trkpt lat="-24.8407090" lon="-53.7354590">
        <ele>554.7</ele>
        <time>2018-09-14T18:03:56Z</time>
      </trkpt>
      <trkpt lat="-24.8407450" lon="-53.7354370">
        <ele>555.2</ele>
        <time>2018-09-14T18:03:57Z</time>
      </trkpt>
      <trkpt lat="-24.8407800" lon="-53.7354150">
        <ele>555.6</ele>
        <time>2018-09-14T18:03:58Z</time>
      </trkpt>
      <trkpt lat="-24.8408150" lon="-53.7353930">
        <ele>555.9</ele>
        <time>2018-09-14T18:03:59Z</time>
      </trkpt>
      <trkpt lat="-24.8408510" lon="-53.7353730">
        <ele>556.1</ele>
        <time>2018-09-14T18:04:00Z</time>
      </trkpt>
      <trkpt lat="-24.8408840" lon="-53.7353520">
        <ele>556.2</ele>
        <time>2018-09-14T18:04:01Z</time>
      </trkpt>
      <trkpt lat="-24.8409170" lon="-53.7353330">
        <ele>556.4</ele>
        <time>2018-09-14T18:04:02Z</time>
      </trkpt>
      <trkpt lat="-24.8409470" lon="-53.7353140">
        <ele>556.6</ele>
        <time>2018-09-14T18:04:03Z</time>
      </trkpt>
      <trkpt lat="-24.8409750" lon="-53.7352980">
        <ele>556.8</ele>
        <time>2018-09-14T18:04:04Z</time>
      </trkpt>
      <trkpt lat="-24.8410030" lon="-53.7352810">
        <ele>557.0</ele>
        <time>2018-09-14T18:04:05Z</time>
      </trkpt>
      <trkpt lat="-24.8410350" lon="-53.7352620">
        <ele>557.1</ele>
        <time>2018-09-14T18:04:06Z</time>
      </trkpt>
      <trkpt lat="-24.8410710" lon="-53.7352430">
        <ele>557.3</ele>
        <time>2018-09-14T18:04:07Z</time>
      </trkpt>
      <trkpt lat="-24.8411080" lon="-53.7352210">
        <ele>557.4</ele>
        <time>2018-09-14T18:04:08Z</time>
      </trkpt>
      <trkpt lat="-24.8411440" lon="-53.7352010">
        <ele>557.4</ele>
        <time>2018-09-14T18:04:09Z</time>
      </trkpt>
      <trkpt lat="-24.8411800" lon="-53.7351790">
        <ele>557.4</ele>
        <time>2018-09-14T18:04:10Z</time>
      </trkpt>
      <trkpt lat="-24.8412150" lon="-53.7351590">
        <ele>557.5</ele>
        <time>2018-09-14T18:04:11Z</time>
      </trkpt>
      <trkpt lat="-24.8412490" lon="-53.7351380">
        <ele>557.4</ele>
        <time>2018-09-14T18:04:12Z</time>
      </trkpt>
      <trkpt lat="-24.8412830" lon="-53.7351190">
        <ele>557.3</ele>
        <time>2018-09-14T18:04:13Z</time>
      </trkpt>
      <trkpt lat="-24.8413170" lon="-53.7351000">
        <ele>557.1</ele>
        <time>2018-09-14T18:04:14Z</time>
      </trkpt>
      <trkpt lat="-24.8413510" lon="-53.7350790">
        <ele>557.0</ele>
        <time>2018-09-14T18:04:15Z</time>
      </trkpt>
      <trkpt lat="-24.8413840" lon="-53.7350580">
        <ele>556.9</ele>
        <time>2018-09-14T18:04:16Z</time>
      </trkpt>
      <trkpt lat="-24.8414170" lon="-53.7350380">
        <ele>556.9</ele>
        <time>2018-09-14T18:04:17Z</time>
      </trkpt>
      <trkpt lat="-24.8414480" lon="-53.7350170">
        <ele>556.9</ele>
        <time>2018-09-14T18:04:18Z</time>
      </trkpt>
      <trkpt lat="-24.8414790" lon="-53.7349990">
        <ele>557.0</ele>
        <time>2018-09-14T18:04:19Z</time>
      </trkpt>
      <trkpt lat="-24.8415090" lon="-53.7349810">
        <ele>557.2</ele>
        <time>2018-09-14T18:04:20Z</time>
      </trkpt>
      <trkpt lat="-24.8415370" lon="-53.7349660">
        <ele>557.3</ele>
        <time>2018-09-14T18:04:21Z</time>
      </trkpt>
      <trkpt lat="-24.8415680" lon="-53.7349500">
        <ele>557.4</ele>
        <time>2018-09-14T18:04:22Z</time>
      </trkpt>
      <trkpt lat="-24.8416010" lon="-53.7349300">
        <ele>557.6</ele>
        <time>2018-09-14T18:04:23Z</time>
      </trkpt>
      <trkpt lat="-24.8416390" lon="-53.7349070">
        <ele>557.8</ele>
        <time>2018-09-14T18:04:24Z</time>
      </trkpt>
      <trkpt lat="-24.8416780" lon="-53.7348840">
        <ele>558.0</ele>
        <time>2018-09-14T18:04:25Z</time>
      </trkpt>
      <trkpt lat="-24.8417160" lon="-53.7348600">
        <ele>558.3</ele>
        <time>2018-09-14T18:04:26Z</time>
      </trkpt>
      <trkpt lat="-24.8417560" lon="-53.7348370">
        <ele>558.6</ele>
        <time>2018-09-14T18:04:27Z</time>
      </trkpt>
      <trkpt lat="-24.8417950" lon="-53.7348150">
        <ele>558.9</ele>
        <time>2018-09-14T18:04:28Z</time>
      </trkpt>
      <trkpt lat="-24.8418330" lon="-53.7347920">
        <ele>559.2</ele>
        <time>2018-09-14T18:04:29Z</time>
      </trkpt>
      <trkpt lat="-24.8418720" lon="-53.7347690">
        <ele>559.5</ele>
        <time>2018-09-14T18:04:30Z</time>
      </trkpt>
      <trkpt lat="-24.8419110" lon="-53.7347480">
        <ele>559.7</ele>
        <time>2018-09-14T18:04:31Z</time>
      </trkpt>
      <trkpt lat="-24.8419500" lon="-53.7347260">
        <ele>560.0</ele>
        <time>2018-09-14T18:04:32Z</time>
      </trkpt>
      <trkpt lat="-24.8419880" lon="-53.7347030">
        <ele>560.2</ele>
        <time>2018-09-14T18:04:33Z</time>
      </trkpt>
      <trkpt lat="-24.8420240" lon="-53.7346800">
        <ele>560.3</ele>
        <time>2018-09-14T18:04:34Z</time>
      </trkpt>
      <trkpt lat="-24.8420600" lon="-53.7346580">
        <ele>560.4</ele>
        <time>2018-09-14T18:04:35Z</time>
      </trkpt>
      <trkpt lat="-24.8420940" lon="-53.7346360">
        <ele>560.5</ele>
        <time>2018-09-14T18:04:36Z</time>
      </trkpt>
      <trkpt lat="-24.8421280" lon="-53.7346150">
        <ele>560.4</ele>
        <time>2018-09-14T18:04:37Z</time>
      </trkpt>
      <trkpt lat="-24.8421630" lon="-53.7345940">
        <ele>560.3</ele>
        <time>2018-09-14T18:04:38Z</time>
      </trkpt>
      <trkpt lat="-24.8421970" lon="-53.7345720">
        <ele>560.3</ele>
        <time>2018-09-14T18:04:39Z</time>
      </trkpt>
      <trkpt lat="-24.8422320" lon="-53.7345500">
        <ele>560.3</ele>
        <time>2018-09-14T18:04:40Z</time>
      </trkpt>
      <trkpt lat="-24.8422670" lon="-53.7345300">
        <ele>560.3</ele>
        <time>2018-09-14T18:04:41Z</time>
      </trkpt>
      <trkpt lat="-24.8423030" lon="-53.7345110">
        <ele>560.3</ele>
        <time>2018-09-14T18:04:42Z</time>
      </trkpt>
      <trkpt lat="-24.8423370" lon="-53.7344910">
        <ele>560.4</ele>
        <time>2018-09-14T18:04:43Z</time>
      </trkpt>
      <trkpt lat="-24.8423720" lon="-53.7344710">
        <ele>560.4</ele>
        <time>2018-09-14T18:04:44Z</time>
      </trkpt>
      <trkpt lat="-24.8424050" lon="-53.7344520">
        <ele>560.5</ele>
        <time>2018-09-14T18:04:45Z</time>
      </trkpt>
      <trkpt lat="-24.8424360" lon="-53.7344340">
        <ele>560.6</ele>
        <time>2018-09-14T18:04:46Z</time>
      </trkpt>
      <trkpt lat="-24.8424650" lon="-53.7344160">
        <ele>560.7</ele>
        <time>2018-09-14T18:04:47Z</time>
      </trkpt>
      <trkpt lat="-24.8424950" lon="-53.7344010">
        <ele>560.8</ele>
        <time>2018-09-14T18:04:48Z</time>
      </trkpt>
      <trkpt lat="-24.8425270" lon="-53.7343820">
        <ele>560.8</ele>
        <time>2018-09-14T18:04:49Z</time>
      </trkpt>
      <trkpt lat="-24.8425630" lon="-53.7343650">
        <ele>560.8</ele>
        <time>2018-09-14T18:04:50Z</time>
      </trkpt>
      <trkpt lat="-24.8426000" lon="-53.7343460">
        <ele>560.7</ele>
        <time>2018-09-14T18:04:51Z</time>
      </trkpt>
      <trkpt lat="-24.8426360" lon="-53.7343270">
        <ele>560.5</ele>
        <time>2018-09-14T18:04:52Z</time>
      </trkpt>
      <trkpt lat="-24.8426710" lon="-53.7343070">
        <ele>560.4</ele>
        <time>2018-09-14T18:04:53Z</time>
      </trkpt>
      <trkpt lat="-24.8427070" lon="-53.7342890">
        <ele>560.4</ele>
        <time>2018-09-14T18:04:54Z</time>
      </trkpt>
      <trkpt lat="-24.8427430" lon="-53.7342710">
        <ele>560.4</ele>
        <time>2018-09-14T18:04:55Z</time>
      </trkpt>
      <trkpt lat="-24.8427790" lon="-53.7342540">
        <ele>560.4</ele>
        <time>2018-09-14T18:04:56Z</time>
      </trkpt>
      <trkpt lat="-24.8428150" lon="-53.7342380">
        <ele>560.5</ele>
        <time>2018-09-14T18:04:57Z</time>
      </trkpt>
      <trkpt lat="-24.8428500" lon="-53.7342230">
        <ele>560.4</ele>
        <time>2018-09-14T18:04:58Z</time>
      </trkpt>
      <trkpt lat="-24.8428850" lon="-53.7342060">
        <ele>560.4</ele>
        <time>2018-09-14T18:04:59Z</time>
      </trkpt>
      <trkpt lat="-24.8429190" lon="-53.7341890">
        <ele>560.4</ele>
        <time>2018-09-14T18:05:00Z</time>
      </trkpt>
      <trkpt lat="-24.8429530" lon="-53.7341730">
        <ele>560.4</ele>
        <time>2018-09-14T18:05:01Z</time>
      </trkpt>
      <trkpt lat="-24.8429860" lon="-53.7341580">
        <ele>560.3</ele>
        <time>2018-09-14T18:05:02Z</time>
      </trkpt>
      <trkpt lat="-24.8430190" lon="-53.7341440">
        <ele>560.2</ele>
        <time>2018-09-14T18:05:03Z</time>
      </trkpt>
      <trkpt lat="-24.8430520" lon="-53.7341300">
        <ele>560.0</ele>
        <time>2018-09-14T18:05:04Z</time>
      </trkpt>
      <trkpt lat="-24.8430830" lon="-53.7341170">
        <ele>559.6</ele>
        <time>2018-09-14T18:05:05Z</time>
      </trkpt>
      <trkpt lat="-24.8431150" lon="-53.7341040">
        <ele>559.3</ele>
        <time>2018-09-14T18:05:06Z</time>
      </trkpt>
      <trkpt lat="-24.8431460" lon="-53.7340900">
        <ele>558.9</ele>
        <time>2018-09-14T18:05:07Z</time>
      </trkpt>
      <trkpt lat="-24.8431780" lon="-53.7340780">
        <ele>558.5</ele>
        <time>2018-09-14T18:05:08Z</time>
      </trkpt>
      <trkpt lat="-24.8432100" lon="-53.7340670">
        <ele>558.2</ele>
        <time>2018-09-14T18:05:09Z</time>
      </trkpt>
      <trkpt lat="-24.8432420" lon="-53.7340560">
        <ele>558.0</ele>
        <time>2018-09-14T18:05:10Z</time>
      </trkpt>
      <trkpt lat="-24.8432740" lon="-53.7340450">
        <ele>557.8</ele>
        <time>2018-09-14T18:05:11Z</time>
      </trkpt>
      <trkpt lat="-24.8433050" lon="-53.7340330">
        <ele>557.7</ele>
        <time>2018-09-14T18:05:12Z</time>
      </trkpt>
      <trkpt lat="-24.8433350" lon="-53.7340200">
        <ele>557.5</ele>
        <time>2018-09-14T18:05:13Z</time>
      </trkpt>
      <trkpt lat="-24.8433670" lon="-53.7340080">
        <ele>557.5</ele>
        <time>2018-09-14T18:05:14Z</time>
      </trkpt>
      <trkpt lat="-24.8434010" lon="-53.7339960">
        <ele>557.5</ele>
        <time>2018-09-14T18:05:15Z</time>
      </trkpt>
      <trkpt lat="-24.8434350" lon="-53.7339840">
        <ele>557.5</ele>
        <time>2018-09-14T18:05:16Z</time>
      </trkpt>
      <trkpt lat="-24.8434680" lon="-53.7339700">
        <ele>557.4</ele>
        <time>2018-09-14T18:05:17Z</time>
      </trkpt>
      <trkpt lat="-24.8435030" lon="-53.7339560">
        <ele>557.2</ele>
        <time>2018-09-14T18:05:18Z</time>
      </trkpt>
      <trkpt lat="-24.8435380" lon="-53.7339430">
        <ele>557.2</ele>
        <time>2018-09-14T18:05:19Z</time>
      </trkpt>
      <trkpt lat="-24.8435730" lon="-53.7339310">
        <ele>557.1</ele>
        <time>2018-09-14T18:05:20Z</time>
      </trkpt>
      <trkpt lat="-24.8436070" lon="-53.7339200">
        <ele>557.4</ele>
        <time>2018-09-14T18:05:21Z</time>
      </trkpt>
      <trkpt lat="-24.8436410" lon="-53.7339070">
        <ele>557.7</ele>
        <time>2018-09-14T18:05:22Z</time>
      </trkpt>
      <trkpt lat="-24.8436750" lon="-53.7338940">
        <ele>558.1</ele>
        <time>2018-09-14T18:05:23Z</time>
      </trkpt>
      <trkpt lat="-24.8437070" lon="-53.7338810">
        <ele>558.8</ele>
        <time>2018-09-14T18:05:24Z</time>
      </trkpt>
      <trkpt lat="-24.8437370" lon="-53.7338700">
        <ele>559.4</ele>
        <time>2018-09-14T18:05:25Z</time>
      </trkpt>
      <trkpt lat="-24.8437660" lon="-53.7338610">
        <ele>559.8</ele>
        <time>2018-09-14T18:05:26Z</time>
      </trkpt>
      <trkpt lat="-24.8437940" lon="-53.7338520">
        <ele>560.0</ele>
        <time>2018-09-14T18:05:27Z</time>
      </trkpt>
      <trkpt lat="-24.8438260" lon="-53.7338400">
        <ele>560.3</ele>
        <time>2018-09-14T18:05:28Z</time>
      </trkpt>
      <trkpt lat="-24.8438620" lon="-53.7338270">
        <ele>560.4</ele>
        <time>2018-09-14T18:05:29Z</time>
      </trkpt>
      <trkpt lat="-24.8439010" lon="-53.7338130">
        <ele>560.6</ele>
        <time>2018-09-14T18:05:30Z</time>
      </trkpt>
      <trkpt lat="-24.8439390" lon="-53.7337970">
        <ele>560.9</ele>
        <time>2018-09-14T18:05:31Z</time>
      </trkpt>
      <trkpt lat="-24.8439770" lon="-53.7337810">
        <ele>561.3</ele>
        <time>2018-09-14T18:05:32Z</time>
      </trkpt>
      <trkpt lat="-24.8440150" lon="-53.7337660">
        <ele>561.7</ele>
        <time>2018-09-14T18:05:33Z</time>
      </trkpt>
      <trkpt lat="-24.8440530" lon="-53.7337520">
        <ele>562.1</ele>
        <time>2018-09-14T18:05:34Z</time>
      </trkpt>
      <trkpt lat="-24.8440930" lon="-53.7337410">
        <ele>562.5</ele>
        <time>2018-09-14T18:05:35Z</time>
      </trkpt>
      <trkpt lat="-24.8441330" lon="-53.7337300">
        <ele>563.2</ele>
        <time>2018-09-14T18:05:36Z</time>
      </trkpt>
      <trkpt lat="-24.8441720" lon="-53.7337190">
        <ele>563.9</ele>
        <time>2018-09-14T18:05:37Z</time>
      </trkpt>
      <trkpt lat="-24.8442120" lon="-53.7337090">
        <ele>563.9</ele>
        <time>2018-09-14T18:05:38Z</time>
      </trkpt>
      <trkpt lat="-24.8442520" lon="-53.7336980">
        <ele>563.8</ele>
        <time>2018-09-14T18:05:39Z</time>
      </trkpt>
      <trkpt lat="-24.8442910" lon="-53.7336870">
        <ele>563.6</ele>
        <time>2018-09-14T18:05:40Z</time>
      </trkpt>
      <trkpt lat="-24.8443310" lon="-53.7336760">
        <ele>563.4</ele>
        <time>2018-09-14T18:05:41Z</time>
      </trkpt>
      <trkpt lat="-24.8443720" lon="-53.7336640">
        <ele>563.1</ele>
        <time>2018-09-14T18:05:42Z</time>
      </trkpt>
      <trkpt lat="-24.8444130" lon="-53.7336520">
        <ele>562.6</ele>
        <time>2018-09-14T18:05:43Z</time>
      </trkpt>
      <trkpt lat="-24.8444540" lon="-53.7336400">
        <ele>562.3</ele>
        <time>2018-09-14T18:05:44Z</time>
      </trkpt>
      <trkpt lat="-24.8444950" lon="-53.7336270">
        <ele>562.4</ele>
        <time>2018-09-14T18:05:45Z</time>
      </trkpt>
      <trkpt lat="-24.8445360" lon="-53.7336170">
        <ele>562.5</ele>
        <time>2018-09-14T18:05:46Z</time>
      </trkpt>
      <trkpt lat="-24.8445780" lon="-53.7336070">
        <ele>562.3</ele>
        <time>2018-09-14T18:05:47Z</time>
      </trkpt>
      <trkpt lat="-24.8445780" lon="-53.7336070">
        <ele>562.3</ele>
        <time>2018-09-14T18:05:48Z</time>
      </trkpt>
      <trkpt lat="-24.8446190" lon="-53.7335960">
        <ele>562.2</ele>
        <time>2018-09-14T18:05:49Z</time>
      </trkpt>
      <trkpt lat="-24.8446590" lon="-53.7335860">
        <ele>562.5</ele>
        <time>2018-09-14T18:05:50Z</time>
      </trkpt>
      <trkpt lat="-24.8446950" lon="-53.7335770">
        <ele>562.8</ele>
        <time>2018-09-14T18:05:51Z</time>
      </trkpt>
      <trkpt lat="-24.8447290" lon="-53.7335660">
        <ele>563.0</ele>
        <time>2018-09-14T18:05:52Z</time>
      </trkpt>
      <trkpt lat="-24.8447610" lon="-53.7335570">
        <ele>563.1</ele>
        <time>2018-09-14T18:05:53Z</time>
      </trkpt>
      <trkpt lat="-24.8447970" lon="-53.7335480">
        <ele>563.2</ele>
        <time>2018-09-14T18:05:54Z</time>
      </trkpt>
      <trkpt lat="-24.8448380" lon="-53.7335370">
        <ele>563.4</ele>
        <time>2018-09-14T18:05:55Z</time>
      </trkpt>
      <trkpt lat="-24.8448810" lon="-53.7335250">
        <ele>563.6</ele>
        <time>2018-09-14T18:05:56Z</time>
      </trkpt>
      <trkpt lat="-24.8449260" lon="-53.7335140">
        <ele>563.6</ele>
        <time>2018-09-14T18:05:57Z</time>
      </trkpt>
      <trkpt lat="-24.8449690" lon="-53.7335030">
        <ele>563.7</ele>
        <time>2018-09-14T18:05:58Z</time>
      </trkpt>
      <trkpt lat="-24.8450110" lon="-53.7334920">
        <ele>563.5</ele>
        <time>2018-09-14T18:05:59Z</time>
      </trkpt>
      <trkpt lat="-24.8450530" lon="-53.7334810">
        <ele>563.4</ele>
        <time>2018-09-14T18:06:00Z</time>
      </trkpt>
      <trkpt lat="-24.8450950" lon="-53.7334700">
        <ele>563.4</ele>
        <time>2018-09-14T18:06:01Z</time>
      </trkpt>
      <trkpt lat="-24.8451370" lon="-53.7334600">
        <ele>563.4</ele>
        <time>2018-09-14T18:06:02Z</time>
      </trkpt>
      <trkpt lat="-24.8451780" lon="-53.7334500">
        <ele>562.6</ele>
        <time>2018-09-14T18:06:03Z</time>
      </trkpt>
      <trkpt lat="-24.8452190" lon="-53.7334400">
        <ele>561.7</ele>
        <time>2018-09-14T18:06:04Z</time>
      </trkpt>
      <trkpt lat="-24.8452600" lon="-53.7334310">
        <ele>561.2</ele>
        <time>2018-09-14T18:06:05Z</time>
      </trkpt>
      <trkpt lat="-24.8452990" lon="-53.7334210">
        <ele>560.8</ele>
        <time>2018-09-14T18:06:06Z</time>
      </trkpt>
      <trkpt lat="-24.8453380" lon="-53.7334110">
        <ele>560.6</ele>
        <time>2018-09-14T18:06:07Z</time>
      </trkpt>
      <trkpt lat="-24.8453770" lon="-53.7334010">
        <ele>560.7</ele>
        <time>2018-09-14T18:06:08Z</time>
      </trkpt>
      <trkpt lat="-24.8454170" lon="-53.7333900">
        <ele>560.7</ele>
        <time>2018-09-14T18:06:09Z</time>
      </trkpt>
      <trkpt lat="-24.8454570" lon="-53.7333800">
        <ele>561.1</ele>
        <time>2018-09-14T18:06:10Z</time>
      </trkpt>
      <trkpt lat="-24.8454970" lon="-53.7333720">
        <ele>561.4</ele>
        <time>2018-09-14T18:06:11Z</time>
      </trkpt>
      <trkpt lat="-24.8455370" lon="-53.7333630">
        <ele>561.6</ele>
        <time>2018-09-14T18:06:12Z</time>
      </trkpt>
      <trkpt lat="-24.8455740" lon="-53.7333550">
        <ele>561.8</ele>
        <time>2018-09-14T18:06:13Z</time>
      </trkpt>
      <trkpt lat="-24.8456070" lon="-53.7333470">
        <ele>562.0</ele>
        <time>2018-09-14T18:06:14Z</time>
      </trkpt>
      <trkpt lat="-24.8456420" lon="-53.7333370">
        <ele>562.2</ele>
        <time>2018-09-14T18:06:15Z</time>
      </trkpt>
      <trkpt lat="-24.8456810" lon="-53.7333260">
        <ele>562.4</ele>
        <time>2018-09-14T18:06:16Z</time>
      </trkpt>
      <trkpt lat="-24.8457230" lon="-53.7333130">
        <ele>562.6</ele>
        <time>2018-09-14T18:06:17Z</time>
      </trkpt>
      <trkpt lat="-24.8457660" lon="-53.7333020">
        <ele>562.8</ele>
        <time>2018-09-14T18:06:18Z</time>
      </trkpt>
      <trkpt lat="-24.8458090" lon="-53.7332910">
        <ele>563.0</ele>
        <time>2018-09-14T18:06:19Z</time>
      </trkpt>
      <trkpt lat="-24.8458520" lon="-53.7332810">
        <ele>563.2</ele>
        <time>2018-09-14T18:06:20Z</time>
      </trkpt>
      <trkpt lat="-24.8458950" lon="-53.7332710">
        <ele>563.5</ele>
        <time>2018-09-14T18:06:21Z</time>
      </trkpt>
      <trkpt lat="-24.8459370" lon="-53.7332610">
        <ele>563.8</ele>
        <time>2018-09-14T18:06:22Z</time>
      </trkpt>
      <trkpt lat="-24.8459800" lon="-53.7332520">
        <ele>564.2</ele>
        <time>2018-09-14T18:06:23Z</time>
      </trkpt>
      <trkpt lat="-24.8460220" lon="-53.7332420">
        <ele>564.5</ele>
        <time>2018-09-14T18:06:24Z</time>
      </trkpt>
      <trkpt lat="-24.8460620" lon="-53.7332320">
        <ele>565.0</ele>
        <time>2018-09-14T18:06:25Z</time>
      </trkpt>
      <trkpt lat="-24.8461010" lon="-53.7332200">
        <ele>565.4</ele>
        <time>2018-09-14T18:06:26Z</time>
      </trkpt>
      <trkpt lat="-24.8461410" lon="-53.7332090">
        <ele>565.7</ele>
        <time>2018-09-14T18:06:27Z</time>
      </trkpt>
      <trkpt lat="-24.8461800" lon="-53.7331980">
        <ele>565.8</ele>
        <time>2018-09-14T18:06:28Z</time>
      </trkpt>
      <trkpt lat="-24.8462200" lon="-53.7331870">
        <ele>565.9</ele>
        <time>2018-09-14T18:06:29Z</time>
      </trkpt>
      <trkpt lat="-24.8462580" lon="-53.7331760">
        <ele>566.0</ele>
        <time>2018-09-14T18:06:30Z</time>
      </trkpt>
      <trkpt lat="-24.8462960" lon="-53.7331650">
        <ele>566.1</ele>
        <time>2018-09-14T18:06:31Z</time>
      </trkpt>
      <trkpt lat="-24.8463330" lon="-53.7331540">
        <ele>566.0</ele>
        <time>2018-09-14T18:06:32Z</time>
      </trkpt>
      <trkpt lat="-24.8463670" lon="-53.7331440">
        <ele>565.8</ele>
        <time>2018-09-14T18:06:33Z</time>
      </trkpt>
      <trkpt lat="-24.8463970" lon="-53.7331340">
        <ele>565.8</ele>
        <time>2018-09-14T18:06:34Z</time>
      </trkpt>
      <trkpt lat="-24.8464250" lon="-53.7331260">
        <ele>565.7</ele>
        <time>2018-09-14T18:06:35Z</time>
      </trkpt>
      <trkpt lat="-24.8464550" lon="-53.7331180">
        <ele>565.7</ele>
        <time>2018-09-14T18:06:36Z</time>
      </trkpt>
      <trkpt lat="-24.8464900" lon="-53.7331080">
        <ele>565.6</ele>
        <time>2018-09-14T18:06:37Z</time>
      </trkpt>
      <trkpt lat="-24.8465280" lon="-53.7330980">
        <ele>565.6</ele>
        <time>2018-09-14T18:06:38Z</time>
      </trkpt>
      <trkpt lat="-24.8465680" lon="-53.7330890">
        <ele>565.6</ele>
        <time>2018-09-14T18:06:39Z</time>
      </trkpt>
      <trkpt lat="-24.8466080" lon="-53.7330790">
        <ele>565.8</ele>
        <time>2018-09-14T18:06:40Z</time>
      </trkpt>
      <trkpt lat="-24.8466480" lon="-53.7330680">
        <ele>566.0</ele>
        <time>2018-09-14T18:06:41Z</time>
      </trkpt>
      <trkpt lat="-24.8466850" lon="-53.7330570">
        <ele>566.3</ele>
        <time>2018-09-14T18:06:42Z</time>
      </trkpt>
      <trkpt lat="-24.8467230" lon="-53.7330470">
        <ele>566.5</ele>
        <time>2018-09-14T18:06:43Z</time>
      </trkpt>
      <trkpt lat="-24.8467600" lon="-53.7330380">
        <ele>566.5</ele>
        <time>2018-09-14T18:06:44Z</time>
      </trkpt>
      <trkpt lat="-24.8467970" lon="-53.7330280">
        <ele>566.5</ele>
        <time>2018-09-14T18:06:45Z</time>
      </trkpt>
      <trkpt lat="-24.8468350" lon="-53.7330200">
        <ele>566.4</ele>
        <time>2018-09-14T18:06:46Z</time>
      </trkpt>
      <trkpt lat="-24.8468720" lon="-53.7330110">
        <ele>566.4</ele>
        <time>2018-09-14T18:06:47Z</time>
      </trkpt>
      <trkpt lat="-24.8469090" lon="-53.7330020">
        <ele>566.4</ele>
        <time>2018-09-14T18:06:48Z</time>
      </trkpt>
      <trkpt lat="-24.8469450" lon="-53.7329930">
        <ele>566.6</ele>
        <time>2018-09-14T18:06:49Z</time>
      </trkpt>
      <trkpt lat="-24.8469800" lon="-53.7329840">
        <ele>566.8</ele>
        <time>2018-09-14T18:06:50Z</time>
      </trkpt>
      <trkpt lat="-24.8470130" lon="-53.7329760">
        <ele>567.0</ele>
        <time>2018-09-14T18:06:51Z</time>
      </trkpt>
      <trkpt lat="-24.8470470" lon="-53.7329680">
        <ele>567.2</ele>
        <time>2018-09-14T18:06:52Z</time>
      </trkpt>
      <trkpt lat="-24.8470790" lon="-53.7329600">
        <ele>567.4</ele>
        <time>2018-09-14T18:06:53Z</time>
      </trkpt>
      <trkpt lat="-24.8471110" lon="-53.7329520">
        <ele>567.6</ele>
        <time>2018-09-14T18:06:54Z</time>
      </trkpt>
      <trkpt lat="-24.8471430" lon="-53.7329440">
        <ele>567.8</ele>
        <time>2018-09-14T18:06:55Z</time>
      </trkpt>
      <trkpt lat="-24.8471740" lon="-53.7329370">
        <ele>568.0</ele>
        <time>2018-09-14T18:06:56Z</time>
      </trkpt>
      <trkpt lat="-24.8472030" lon="-53.7329300">
        <ele>568.2</ele>
        <time>2018-09-14T18:06:57Z</time>
      </trkpt>
      <trkpt lat="-24.8472310" lon="-53.7329230">
        <ele>568.4</ele>
        <time>2018-09-14T18:06:58Z</time>
      </trkpt>
      <trkpt lat="-24.8472620" lon="-53.7329150">
        <ele>568.7</ele>
        <time>2018-09-14T18:06:59Z</time>
      </trkpt>
      <trkpt lat="-24.8472960" lon="-53.7329080">
        <ele>569.0</ele>
        <time>2018-09-14T18:07:00Z</time>
      </trkpt>
      <trkpt lat="-24.8473330" lon="-53.7328980">
        <ele>569.3</ele>
        <time>2018-09-14T18:07:01Z</time>
      </trkpt>
      <trkpt lat="-24.8473720" lon="-53.7328890">
        <ele>569.7</ele>
        <time>2018-09-14T18:07:02Z</time>
      </trkpt>
      <trkpt lat="-24.8474100" lon="-53.7328790">
        <ele>570.0</ele>
        <time>2018-09-14T18:07:03Z</time>
      </trkpt>
      <trkpt lat="-24.8474480" lon="-53.7328710">
        <ele>570.1</ele>
        <time>2018-09-14T18:07:04Z</time>
      </trkpt>
      <trkpt lat="-24.8474840" lon="-53.7328620">
        <ele>570.1</ele>
        <time>2018-09-14T18:07:05Z</time>
      </trkpt>
      <trkpt lat="-24.8475180" lon="-53.7328520">
        <ele>570.1</ele>
        <time>2018-09-14T18:07:06Z</time>
      </trkpt>
      <trkpt lat="-24.8475520" lon="-53.7328440">
        <ele>570.4</ele>
        <time>2018-09-14T18:07:07Z</time>
      </trkpt>
      <trkpt lat="-24.8475860" lon="-53.7328370">
        <ele>570.6</ele>
        <time>2018-09-14T18:07:08Z</time>
      </trkpt>
      <trkpt lat="-24.8476200" lon="-53.7328300">
        <ele>570.9</ele>
        <time>2018-09-14T18:07:09Z</time>
      </trkpt>
      <trkpt lat="-24.8476530" lon="-53.7328210">
        <ele>571.1</ele>
        <time>2018-09-14T18:07:10Z</time>
      </trkpt>
      <trkpt lat="-24.8476870" lon="-53.7328120">
        <ele>571.3</ele>
        <time>2018-09-14T18:07:11Z</time>
      </trkpt>
      <trkpt lat="-24.8477210" lon="-53.7328030">
        <ele>571.5</ele>
        <time>2018-09-14T18:07:12Z</time>
      </trkpt>
      <trkpt lat="-24.8477540" lon="-53.7327930">
        <ele>571.8</ele>
        <time>2018-09-14T18:07:13Z</time>
      </trkpt>
      <trkpt lat="-24.8477880" lon="-53.7327830">
        <ele>572.0</ele>
        <time>2018-09-14T18:07:14Z</time>
      </trkpt>
      <trkpt lat="-24.8478220" lon="-53.7327750">
        <ele>572.1</ele>
        <time>2018-09-14T18:07:15Z</time>
      </trkpt>
      <trkpt lat="-24.8478560" lon="-53.7327680">
        <ele>572.2</ele>
        <time>2018-09-14T18:07:16Z</time>
      </trkpt>
      <trkpt lat="-24.8478900" lon="-53.7327590">
        <ele>572.4</ele>
        <time>2018-09-14T18:07:17Z</time>
      </trkpt>
      <trkpt lat="-24.8479230" lon="-53.7327510">
        <ele>572.5</ele>
        <time>2018-09-14T18:07:18Z</time>
      </trkpt>
      <trkpt lat="-24.8479540" lon="-53.7327440">
        <ele>572.7</ele>
        <time>2018-09-14T18:07:19Z</time>
      </trkpt>
      <trkpt lat="-24.8479830" lon="-53.7327360">
        <ele>572.7</ele>
        <time>2018-09-14T18:07:20Z</time>
      </trkpt>
      <trkpt lat="-24.8480120" lon="-53.7327280">
        <ele>572.8</ele>
        <time>2018-09-14T18:07:21Z</time>
      </trkpt>
      <trkpt lat="-24.8480450" lon="-53.7327180">
        <ele>572.8</ele>
        <time>2018-09-14T18:07:22Z</time>
      </trkpt>
      <trkpt lat="-24.8480810" lon="-53.7327080">
        <ele>572.6</ele>
        <time>2018-09-14T18:07:23Z</time>
      </trkpt>
      <trkpt lat="-24.8481180" lon="-53.7326980">
        <ele>572.5</ele>
        <time>2018-09-14T18:07:24Z</time>
      </trkpt>
      <trkpt lat="-24.8481550" lon="-53.7326890">
        <ele>572.2</ele>
        <time>2018-09-14T18:07:25Z</time>
      </trkpt>
      <trkpt lat="-24.8481910" lon="-53.7326790">
        <ele>571.8</ele>
        <time>2018-09-14T18:07:26Z</time>
      </trkpt>
      <trkpt lat="-24.8482270" lon="-53.7326680">
        <ele>571.5</ele>
        <time>2018-09-14T18:07:27Z</time>
      </trkpt>
      <trkpt lat="-24.8482630" lon="-53.7326590">
        <ele>571.3</ele>
        <time>2018-09-14T18:07:28Z</time>
      </trkpt>
      <trkpt lat="-24.8482990" lon="-53.7326490">
        <ele>571.1</ele>
        <time>2018-09-14T18:07:29Z</time>
      </trkpt>
      <trkpt lat="-24.8483730" lon="-53.7326280">
        <ele>570.9</ele>
        <time>2018-09-14T18:07:30Z</time>
      </trkpt>
      <trkpt lat="-24.8484110" lon="-53.7326190">
        <ele>570.8</ele>
        <time>2018-09-14T18:07:31Z</time>
      </trkpt>
      <trkpt lat="-24.8484490" lon="-53.7326080">
        <ele>570.8</ele>
        <time>2018-09-14T18:07:32Z</time>
      </trkpt>
      <trkpt lat="-24.8484880" lon="-53.7325980">
        <ele>570.8</ele>
        <time>2018-09-14T18:07:33Z</time>
      </trkpt>
      <trkpt lat="-24.8485250" lon="-53.7325860">
        <ele>570.8</ele>
        <time>2018-09-14T18:07:34Z</time>
      </trkpt>
      <trkpt lat="-24.8485630" lon="-53.7325750">
        <ele>570.8</ele>
        <time>2018-09-14T18:07:35Z</time>
      </trkpt>
      <trkpt lat="-24.8486020" lon="-53.7325630">
        <ele>570.8</ele>
        <time>2018-09-14T18:07:36Z</time>
      </trkpt>
      <trkpt lat="-24.8486410" lon="-53.7325530">
        <ele>570.8</ele>
        <time>2018-09-14T18:07:37Z</time>
      </trkpt>
      <trkpt lat="-24.8487160" lon="-53.7325330">
        <ele>571.3</ele>
        <time>2018-09-14T18:07:39Z</time>
      </trkpt>
      <trkpt lat="-24.8487530" lon="-53.7325240">
        <ele>571.7</ele>
        <time>2018-09-14T18:07:40Z</time>
      </trkpt>
      <trkpt lat="-24.8487910" lon="-53.7325130">
        <ele>572.2</ele>
        <time>2018-09-14T18:07:41Z</time>
      </trkpt>
      <trkpt lat="-24.8488280" lon="-53.7325020">
        <ele>572.6</ele>
        <time>2018-09-14T18:07:42Z</time>
      </trkpt>
      <trkpt lat="-24.8488660" lon="-53.7324910">
        <ele>572.9</ele>
        <time>2018-09-14T18:07:43Z</time>
      </trkpt>
      <trkpt lat="-24.8489040" lon="-53.7324800">
        <ele>573.2</ele>
        <time>2018-09-14T18:07:44Z</time>
      </trkpt>
      <trkpt lat="-24.8489420" lon="-53.7324680">
        <ele>573.3</ele>
        <time>2018-09-14T18:07:45Z</time>
      </trkpt>
      <trkpt lat="-24.8489810" lon="-53.7324570">
        <ele>573.4</ele>
        <time>2018-09-14T18:07:46Z</time>
      </trkpt>
      <trkpt lat="-24.8490210" lon="-53.7324460">
        <ele>573.6</ele>
        <time>2018-09-14T18:07:47Z</time>
      </trkpt>
      <trkpt lat="-24.8490600" lon="-53.7324360">
        <ele>573.8</ele>
        <time>2018-09-14T18:07:48Z</time>
      </trkpt>
      <trkpt lat="-24.8490990" lon="-53.7324220">
        <ele>574.1</ele>
        <time>2018-09-14T18:07:49Z</time>
      </trkpt>
      <trkpt lat="-24.8491370" lon="-53.7324090">
        <ele>574.3</ele>
        <time>2018-09-14T18:07:50Z</time>
      </trkpt>
      <trkpt lat="-24.8491770" lon="-53.7323970">
        <ele>574.6</ele>
        <time>2018-09-14T18:07:51Z</time>
      </trkpt>
      <trkpt lat="-24.8492180" lon="-53.7323850">
        <ele>574.7</ele>
        <time>2018-09-14T18:07:52Z</time>
      </trkpt>
      <trkpt lat="-24.8492590" lon="-53.7323740">
        <ele>574.8</ele>
        <time>2018-09-14T18:07:53Z</time>
      </trkpt>
      <trkpt lat="-24.8493010" lon="-53.7323630">
        <ele>574.8</ele>
        <time>2018-09-14T18:07:54Z</time>
      </trkpt>
      <trkpt lat="-24.8493430" lon="-53.7323500">
        <ele>574.8</ele>
        <time>2018-09-14T18:07:55Z</time>
      </trkpt>
      <trkpt lat="-24.8493850" lon="-53.7323370">
        <ele>575.0</ele>
        <time>2018-09-14T18:07:56Z</time>
      </trkpt>
      <trkpt lat="-24.8494280" lon="-53.7323250">
        <ele>575.1</ele>
        <time>2018-09-14T18:07:57Z</time>
      </trkpt>
      <trkpt lat="-24.8494720" lon="-53.7323140">
        <ele>575.4</ele>
        <time>2018-09-14T18:07:58Z</time>
      </trkpt>
      <trkpt lat="-24.8495160" lon="-53.7323000">
        <ele>575.6</ele>
        <time>2018-09-14T18:07:59Z</time>
      </trkpt>
      <trkpt lat="-24.8495600" lon="-53.7322850">
        <ele>575.8</ele>
        <time>2018-09-14T18:08:00Z</time>
      </trkpt>
      <trkpt lat="-24.8496050" lon="-53.7322710">
        <ele>576.0</ele>
        <time>2018-09-14T18:08:01Z</time>
      </trkpt>
      <trkpt lat="-24.8496500" lon="-53.7322580">
        <ele>576.0</ele>
        <time>2018-09-14T18:08:02Z</time>
      </trkpt>
      <trkpt lat="-24.8496940" lon="-53.7322440">
        <ele>576.1</ele>
        <time>2018-09-14T18:08:03Z</time>
      </trkpt>
      <trkpt lat="-24.8497400" lon="-53.7322300">
        <ele>576.3</ele>
        <time>2018-09-14T18:08:04Z</time>
      </trkpt>
      <trkpt lat="-24.8497860" lon="-53.7322160">
        <ele>576.6</ele>
        <time>2018-09-14T18:08:05Z</time>
      </trkpt>
      <trkpt lat="-24.8498320" lon="-53.7322010">
        <ele>576.8</ele>
        <time>2018-09-14T18:08:06Z</time>
      </trkpt>
      <trkpt lat="-24.8498790" lon="-53.7321850">
        <ele>576.9</ele>
        <time>2018-09-14T18:08:07Z</time>
      </trkpt>
      <trkpt lat="-24.8499250" lon="-53.7321700">
        <ele>576.7</ele>
        <time>2018-09-14T18:08:08Z</time>
      </trkpt>
      <trkpt lat="-24.8499720" lon="-53.7321560">
        <ele>576.5</ele>
        <time>2018-09-14T18:08:09Z</time>
      </trkpt>
      <trkpt lat="-24.8500190" lon="-53.7321410">
        <ele>576.2</ele>
        <time>2018-09-14T18:08:10Z</time>
      </trkpt>
      <trkpt lat="-24.8500650" lon="-53.7321270">
        <ele>575.7</ele>
        <time>2018-09-14T18:08:11Z</time>
      </trkpt>
      <trkpt lat="-24.8501120" lon="-53.7321120">
        <ele>575.1</ele>
        <time>2018-09-14T18:08:12Z</time>
      </trkpt>
      <trkpt lat="-24.8501590" lon="-53.7320970">
        <ele>574.9</ele>
        <time>2018-09-14T18:08:13Z</time>
      </trkpt>
      <trkpt lat="-24.8502050" lon="-53.7320830">
        <ele>574.9</ele>
        <time>2018-09-14T18:08:14Z</time>
      </trkpt>
      <trkpt lat="-24.8502520" lon="-53.7320700">
        <ele>575.1</ele>
        <time>2018-09-14T18:08:15Z</time>
      </trkpt>
      <trkpt lat="-24.8502980" lon="-53.7320570">
        <ele>575.3</ele>
        <time>2018-09-14T18:08:16Z</time>
      </trkpt>
      <trkpt lat="-24.8503450" lon="-53.7320430">
        <ele>575.5</ele>
        <time>2018-09-14T18:08:17Z</time>
      </trkpt>
      <trkpt lat="-24.8503920" lon="-53.7320290">
        <ele>575.7</ele>
        <time>2018-09-14T18:08:18Z</time>
      </trkpt>
      <trkpt lat="-24.8504400" lon="-53.7320160">
        <ele>575.8</ele>
        <time>2018-09-14T18:08:19Z</time>
      </trkpt>
      <trkpt lat="-24.8504890" lon="-53.7320030">
        <ele>575.8</ele>
        <time>2018-09-14T18:08:20Z</time>
      </trkpt>
      <trkpt lat="-24.8505380" lon="-53.7319900">
        <ele>575.8</ele>
        <time>2018-09-14T18:08:21Z</time>
      </trkpt>
      <trkpt lat="-24.8505860" lon="-53.7319730">
        <ele>575.8</ele>
        <time>2018-09-14T18:08:22Z</time>
      </trkpt>
      <trkpt lat="-24.8506340" lon="-53.7319550">
        <ele>575.8</ele>
        <time>2018-09-14T18:08:23Z</time>
      </trkpt>
      <trkpt lat="-24.8506800" lon="-53.7319350">
        <ele>575.7</ele>
        <time>2018-09-14T18:08:24Z</time>
      </trkpt>
      <trkpt lat="-24.8507250" lon="-53.7319120">
        <ele>575.5</ele>
        <time>2018-09-14T18:08:25Z</time>
      </trkpt>
      <trkpt lat="-24.8507690" lon="-53.7318880">
        <ele>575.1</ele>
        <time>2018-09-14T18:08:26Z</time>
      </trkpt>
      <trkpt lat="-24.8508120" lon="-53.7318630">
        <ele>574.6</ele>
        <time>2018-09-14T18:08:27Z</time>
      </trkpt>
      <trkpt lat="-24.8508540" lon="-53.7318360">
        <ele>574.2</ele>
        <time>2018-09-14T18:08:28Z</time>
      </trkpt>
      <trkpt lat="-24.8508950" lon="-53.7318060">
        <ele>574.0</ele>
        <time>2018-09-14T18:08:29Z</time>
      </trkpt>
      <trkpt lat="-24.8509370" lon="-53.7317760">
        <ele>573.8</ele>
        <time>2018-09-14T18:08:30Z</time>
      </trkpt>
      <trkpt lat="-24.8509800" lon="-53.7317440">
        <ele>573.8</ele>
        <time>2018-09-14T18:08:31Z</time>
      </trkpt>
      <trkpt lat="-24.8510250" lon="-53.7317100">
        <ele>573.9</ele>
        <time>2018-09-14T18:08:32Z</time>
      </trkpt>
      <trkpt lat="-24.8510690" lon="-53.7316760">
        <ele>574.0</ele>
        <time>2018-09-14T18:08:33Z</time>
      </trkpt>
      <trkpt lat="-24.8511120" lon="-53.7316420">
        <ele>573.9</ele>
        <time>2018-09-14T18:08:34Z</time>
      </trkpt>
      <trkpt lat="-24.8511570" lon="-53.7316050">
        <ele>573.9</ele>
        <time>2018-09-14T18:08:35Z</time>
      </trkpt>
      <trkpt lat="-24.8512060" lon="-53.7315630">
        <ele>573.8</ele>
        <time>2018-09-14T18:08:36Z</time>
      </trkpt>
      <trkpt lat="-24.8512600" lon="-53.7315190">
        <ele>573.5</ele>
        <time>2018-09-14T18:08:37Z</time>
      </trkpt>
      <trkpt lat="-24.8513150" lon="-53.7314740">
        <ele>573.3</ele>
        <time>2018-09-14T18:08:38Z</time>
      </trkpt>
      <trkpt lat="-24.8513710" lon="-53.7314280">
        <ele>573.3</ele>
        <time>2018-09-14T18:08:39Z</time>
      </trkpt>
      <trkpt lat="-24.8514280" lon="-53.7313830">
        <ele>573.6</ele>
        <time>2018-09-14T18:08:40Z</time>
      </trkpt>
      <trkpt lat="-24.8514840" lon="-53.7313360">
        <ele>574.1</ele>
        <time>2018-09-14T18:08:41Z</time>
      </trkpt>
      <trkpt lat="-24.8515380" lon="-53.7312890">
        <ele>575.0</ele>
        <time>2018-09-14T18:08:42Z</time>
      </trkpt>
      <trkpt lat="-24.8515880" lon="-53.7312430">
        <ele>575.6</ele>
        <time>2018-09-14T18:08:43Z</time>
      </trkpt>
      <trkpt lat="-24.8516370" lon="-53.7311980">
        <ele>576.2</ele>
        <time>2018-09-14T18:08:44Z</time>
      </trkpt>
      <trkpt lat="-24.8516850" lon="-53.7311540">
        <ele>576.7</ele>
        <time>2018-09-14T18:08:45Z</time>
      </trkpt>
      <trkpt lat="-24.8517310" lon="-53.7311130">
        <ele>576.8</ele>
        <time>2018-09-14T18:08:46Z</time>
      </trkpt>
      <trkpt lat="-24.8517750" lon="-53.7310700">
        <ele>576.7</ele>
        <time>2018-09-14T18:08:47Z</time>
      </trkpt>
      <trkpt lat="-24.8518190" lon="-53.7310280">
        <ele>576.5</ele>
        <time>2018-09-14T18:08:48Z</time>
      </trkpt>
      <trkpt lat="-24.8518620" lon="-53.7309880">
        <ele>576.3</ele>
        <time>2018-09-14T18:08:49Z</time>
      </trkpt>
      <trkpt lat="-24.8519040" lon="-53.7309510">
        <ele>576.0</ele>
        <time>2018-09-14T18:08:50Z</time>
      </trkpt>
      <trkpt lat="-24.8519440" lon="-53.7309160">
        <ele>576.1</ele>
        <time>2018-09-14T18:08:51Z</time>
      </trkpt>
      <trkpt lat="-24.8519810" lon="-53.7308840">
        <ele>576.1</ele>
        <time>2018-09-14T18:08:52Z</time>
      </trkpt>
      <trkpt lat="-24.8520160" lon="-53.7308510">
        <ele>576.2</ele>
        <time>2018-09-14T18:08:53Z</time>
      </trkpt>
      <trkpt lat="-24.8520520" lon="-53.7308150">
        <ele>576.2</ele>
        <time>2018-09-14T18:08:54Z</time>
      </trkpt>
      <trkpt lat="-24.8520920" lon="-53.7307770">
        <ele>575.9</ele>
        <time>2018-09-14T18:08:55Z</time>
      </trkpt>
      <trkpt lat="-24.8521330" lon="-53.7307410">
        <ele>575.8</ele>
        <time>2018-09-14T18:08:56Z</time>
      </trkpt>
      <trkpt lat="-24.8521730" lon="-53.7307060">
        <ele>575.8</ele>
        <time>2018-09-14T18:08:57Z</time>
      </trkpt>
      <trkpt lat="-24.8522100" lon="-53.7306700">
        <ele>576.1</ele>
        <time>2018-09-14T18:08:58Z</time>
      </trkpt>
      <trkpt lat="-24.8522450" lon="-53.7306350">
        <ele>576.4</ele>
        <time>2018-09-14T18:08:59Z</time>
      </trkpt>
      <trkpt lat="-24.8522770" lon="-53.7306040">
        <ele>576.6</ele>
        <time>2018-09-14T18:09:00Z</time>
      </trkpt>
      <trkpt lat="-24.8523030" lon="-53.7305790">
        <ele>576.8</ele>
        <time>2018-09-14T18:09:01Z</time>
      </trkpt>
      <trkpt lat="-24.8523240" lon="-53.7305560">
        <ele>577.0</ele>
        <time>2018-09-14T18:09:02Z</time>
      </trkpt>
      <trkpt lat="-24.8523450" lon="-53.7305330">
        <ele>577.4</ele>
        <time>2018-09-14T18:09:03Z</time>
      </trkpt>
      <trkpt lat="-24.8523680" lon="-53.7305070">
        <ele>577.7</ele>
        <time>2018-09-14T18:09:04Z</time>
      </trkpt>
      <trkpt lat="-24.8523940" lon="-53.7304800">
        <ele>578.1</ele>
        <time>2018-09-14T18:09:05Z</time>
      </trkpt>
      <trkpt lat="-24.8524210" lon="-53.7304530">
        <ele>578.4</ele>
        <time>2018-09-14T18:09:06Z</time>
      </trkpt>
      <trkpt lat="-24.8524480" lon="-53.7304270">
        <ele>578.7</ele>
        <time>2018-09-14T18:09:07Z</time>
      </trkpt>
      <trkpt lat="-24.8524730" lon="-53.7304010">
        <ele>579.0</ele>
        <time>2018-09-14T18:09:08Z</time>
      </trkpt>
      <trkpt lat="-24.8524970" lon="-53.7303770">
        <ele>579.3</ele>
        <time>2018-09-14T18:09:09Z</time>
      </trkpt>
      <trkpt lat="-24.8525180" lon="-53.7303540">
        <ele>579.5</ele>
        <time>2018-09-14T18:09:10Z</time>
      </trkpt>
      <trkpt lat="-24.8525390" lon="-53.7303310">
        <ele>579.5</ele>
        <time>2018-09-14T18:09:11Z</time>
      </trkpt>
      <trkpt lat="-24.8525570" lon="-53.7303090">
        <ele>579.6</ele>
        <time>2018-09-14T18:09:12Z</time>
      </trkpt>
      <trkpt lat="-24.8525720" lon="-53.7302870">
        <ele>579.6</ele>
        <time>2018-09-14T18:09:13Z</time>
      </trkpt>
      <trkpt lat="-24.8525830" lon="-53.7302630">
        <ele>579.6</ele>
        <time>2018-09-14T18:09:14Z</time>
      </trkpt>
      <trkpt lat="-24.8525900" lon="-53.7302370">
        <ele>579.7</ele>
        <time>2018-09-14T18:09:15Z</time>
      </trkpt>
      <trkpt lat="-24.8525940" lon="-53.7302110">
        <ele>579.7</ele>
        <time>2018-09-14T18:09:16Z</time>
      </trkpt>
      <trkpt lat="-24.8525900" lon="-53.7301880">
        <ele>579.7</ele>
        <time>2018-09-14T18:09:17Z</time>
      </trkpt>
      <trkpt lat="-24.8525820" lon="-53.7301680">
        <ele>579.6</ele>
        <time>2018-09-14T18:09:18Z</time>
      </trkpt>
      <trkpt lat="-24.8525710" lon="-53.7301480">
        <ele>579.6</ele>
        <time>2018-09-14T18:09:19Z</time>
      </trkpt>
      <trkpt lat="-24.8525550" lon="-53.7301280">
        <ele>580.1</ele>
        <time>2018-09-14T18:09:20Z</time>
      </trkpt>
      <trkpt lat="-24.8525380" lon="-53.7301020">
        <ele>580.2</ele>
        <time>2018-09-14T18:09:21Z</time>
      </trkpt>
      <trkpt lat="-24.8525260" lon="-53.7300730">
        <ele>580.3</ele>
        <time>2018-09-14T18:09:22Z</time>
      </trkpt>
      <trkpt lat="-24.8525110" lon="-53.7300440">
        <ele>580.6</ele>
        <time>2018-09-14T18:09:23Z</time>
      </trkpt>
      <trkpt lat="-24.8524940" lon="-53.7300120">
        <ele>580.6</ele>
        <time>2018-09-14T18:09:24Z</time>
      </trkpt>
      <trkpt lat="-24.8524730" lon="-53.7299810">
        <ele>580.6</ele>
        <time>2018-09-14T18:09:25Z</time>
      </trkpt>
      <trkpt lat="-24.8524500" lon="-53.7299520">
        <ele>580.4</ele>
        <time>2018-09-14T18:09:26Z</time>
      </trkpt>
      <trkpt lat="-24.8524260" lon="-53.7299230">
        <ele>580.1</ele>
        <time>2018-09-14T18:09:27Z</time>
      </trkpt>
      <trkpt lat="-24.8524030" lon="-53.7298890">
        <ele>579.8</ele>
        <time>2018-09-14T18:09:28Z</time>
      </trkpt>
      <trkpt lat="-24.8523810" lon="-53.7298460">
        <ele>579.6</ele>
        <time>2018-09-14T18:09:29Z</time>
      </trkpt>
      <trkpt lat="-24.8523580" lon="-53.7298030">
        <ele>579.2</ele>
        <time>2018-09-14T18:09:30Z</time>
      </trkpt>
      <trkpt lat="-24.8523310" lon="-53.7297610">
        <ele>579.2</ele>
        <time>2018-09-14T18:09:31Z</time>
      </trkpt>
      <trkpt lat="-24.8523030" lon="-53.7297180">
        <ele>579.3</ele>
        <time>2018-09-14T18:09:32Z</time>
      </trkpt>
      <trkpt lat="-24.8522740" lon="-53.7296770">
        <ele>579.6</ele>
        <time>2018-09-14T18:09:33Z</time>
      </trkpt>
      <trkpt lat="-24.8522460" lon="-53.7296340">
        <ele>579.9</ele>
        <time>2018-09-14T18:09:34Z</time>
      </trkpt>
      <trkpt lat="-24.8522170" lon="-53.7295900">
        <ele>580.1</ele>
        <time>2018-09-14T18:09:35Z</time>
      </trkpt>
      <trkpt lat="-24.8521870" lon="-53.7295470">
        <ele>580.1</ele>
        <time>2018-09-14T18:09:36Z</time>
      </trkpt>
      <trkpt lat="-24.8521590" lon="-53.7295070">
        <ele>580.0</ele>
        <time>2018-09-14T18:09:37Z</time>
      </trkpt>
      <trkpt lat="-24.8521290" lon="-53.7294650">
        <ele>580.0</ele>
        <time>2018-09-14T18:09:38Z</time>
      </trkpt>
      <trkpt lat="-24.8521010" lon="-53.7294280">
        <ele>580.2</ele>
        <time>2018-09-14T18:09:39Z</time>
      </trkpt>
      <trkpt lat="-24.8521010" lon="-53.7294280">
        <ele>580.2</ele>
        <time>2018-09-14T18:09:40Z</time>
      </trkpt>
      <trkpt lat="-24.8520740" lon="-53.7293940">
        <ele>580.2</ele>
        <time>2018-09-14T18:09:41Z</time>
      </trkpt>
      <trkpt lat="-24.8520450" lon="-53.7293530">
        <ele>580.1</ele>
        <time>2018-09-14T18:09:42Z</time>
      </trkpt>
      <trkpt lat="-24.8520230" lon="-53.7293160">
        <ele>580.1</ele>
        <time>2018-09-14T18:09:43Z</time>
      </trkpt>
      <trkpt lat="-24.8519980" lon="-53.7292570">
        <ele>580.2</ele>
        <time>2018-09-14T18:09:44Z</time>
      </trkpt>
      <trkpt lat="-24.8519740" lon="-53.7292140">
        <ele>580.3</ele>
        <time>2018-09-14T18:09:45Z</time>
      </trkpt>
      <trkpt lat="-24.8519440" lon="-53.7291730">
        <ele>580.3</ele>
        <time>2018-09-14T18:09:46Z</time>
      </trkpt>
      <trkpt lat="-24.8519140" lon="-53.7291380">
        <ele>580.3</ele>
        <time>2018-09-14T18:09:47Z</time>
      </trkpt>
      <trkpt lat="-24.8518850" lon="-53.7290990">
        <ele>580.3</ele>
        <time>2018-09-14T18:09:48Z</time>
      </trkpt>
      <trkpt lat="-24.8518620" lon="-53.7290420">
        <ele>580.2</ele>
        <time>2018-09-14T18:09:49Z</time>
      </trkpt>
      <trkpt lat="-24.8518380" lon="-53.7289900">
        <ele>580.2</ele>
        <time>2018-09-14T18:09:50Z</time>
      </trkpt>
      <trkpt lat="-24.8518140" lon="-53.7289410">
        <ele>580.2</ele>
        <time>2018-09-14T18:09:51Z</time>
      </trkpt>
      <trkpt lat="-24.8517890" lon="-53.7288920">
        <ele>580.2</ele>
        <time>2018-09-14T18:09:52Z</time>
      </trkpt>
      <trkpt lat="-24.8517620" lon="-53.7288550">
        <ele>580.3</ele>
        <time>2018-09-14T18:09:53Z</time>
      </trkpt>
      <trkpt lat="-24.8517380" lon="-53.7288070">
        <ele>580.4</ele>
        <time>2018-09-14T18:09:54Z</time>
      </trkpt>
      <trkpt lat="-24.8517140" lon="-53.7287650">
        <ele>580.4</ele>
        <time>2018-09-14T18:09:55Z</time>
      </trkpt>
      <trkpt lat="-24.8516900" lon="-53.7287240">
        <ele>580.4</ele>
        <time>2018-09-14T18:09:56Z</time>
      </trkpt>
      <trkpt lat="-24.8516640" lon="-53.7286870">
        <ele>580.4</ele>
        <time>2018-09-14T18:09:57Z</time>
      </trkpt>
      <trkpt lat="-24.8516400" lon="-53.7286410">
        <ele>580.4</ele>
        <time>2018-09-14T18:09:58Z</time>
      </trkpt>
      <trkpt lat="-24.8516180" lon="-53.7286030">
        <ele>580.3</ele>
        <time>2018-09-14T18:09:59Z</time>
      </trkpt>
      <trkpt lat="-24.8515950" lon="-53.7285670">
        <ele>580.3</ele>
        <time>2018-09-14T18:10:00Z</time>
      </trkpt>
      <trkpt lat="-24.8515730" lon="-53.7285260">
        <ele>580.4</ele>
        <time>2018-09-14T18:10:01Z</time>
      </trkpt>
      <trkpt lat="-24.8515530" lon="-53.7284890">
        <ele>580.4</ele>
        <time>2018-09-14T18:10:02Z</time>
      </trkpt>
      <trkpt lat="-24.8515320" lon="-53.7284540">
        <ele>580.4</ele>
        <time>2018-09-14T18:10:03Z</time>
      </trkpt>
      <trkpt lat="-24.8515100" lon="-53.7284150">
        <ele>580.4</ele>
        <time>2018-09-14T18:10:04Z</time>
      </trkpt>
      <trkpt lat="-24.8514870" lon="-53.7283790">
        <ele>580.3</ele>
        <time>2018-09-14T18:10:05Z</time>
      </trkpt>
      <trkpt lat="-24.8514620" lon="-53.7283420">
        <ele>580.3</ele>
        <time>2018-09-14T18:10:06Z</time>
      </trkpt>
      <trkpt lat="-24.8514370" lon="-53.7283020">
        <ele>580.3</ele>
        <time>2018-09-14T18:10:07Z</time>
      </trkpt>
      <trkpt lat="-24.8514110" lon="-53.7282690">
        <ele>580.3</ele>
        <time>2018-09-14T18:10:08Z</time>
      </trkpt>
      <trkpt lat="-24.8513830" lon="-53.7282380">
        <ele>580.4</ele>
        <time>2018-09-14T18:10:09Z</time>
      </trkpt>
      <trkpt lat="-24.8513560" lon="-53.7282080">
        <ele>580.6</ele>
        <time>2018-09-14T18:10:10Z</time>
      </trkpt>
      <trkpt lat="-24.8513260" lon="-53.7281770">
        <ele>580.6</ele>
        <time>2018-09-14T18:10:11Z</time>
      </trkpt>
      <trkpt lat="-24.8512920" lon="-53.7281420">
        <ele>580.6</ele>
        <time>2018-09-14T18:10:12Z</time>
      </trkpt>
      <trkpt lat="-24.8512600" lon="-53.7281080">
        <ele>580.5</ele>
        <time>2018-09-14T18:10:13Z</time>
      </trkpt>
      <trkpt lat="-24.8512270" lon="-53.7280760">
        <ele>580.1</ele>
        <time>2018-09-14T18:10:14Z</time>
      </trkpt>
      <trkpt lat="-24.8511970" lon="-53.7280400">
        <ele>579.6</ele>
        <time>2018-09-14T18:10:15Z</time>
      </trkpt>
      <trkpt lat="-24.8511640" lon="-53.7280090">
        <ele>579.8</ele>
        <time>2018-09-14T18:10:16Z</time>
      </trkpt>
      <trkpt lat="-24.8511310" lon="-53.7279800">
        <ele>579.7</ele>
        <time>2018-09-14T18:10:17Z</time>
      </trkpt>
      <trkpt lat="-24.8510980" lon="-53.7279570">
        <ele>579.3</ele>
        <time>2018-09-14T18:10:18Z</time>
      </trkpt>
      <trkpt lat="-24.8510630" lon="-53.7279330">
        <ele>578.9</ele>
        <time>2018-09-14T18:10:19Z</time>
      </trkpt>
      <trkpt lat="-24.8510280" lon="-53.7279050">
        <ele>578.0</ele>
        <time>2018-09-14T18:10:20Z</time>
      </trkpt>
      <trkpt lat="-24.8509950" lon="-53.7278800">
        <ele>577.2</ele>
        <time>2018-09-14T18:10:21Z</time>
      </trkpt>
      <trkpt lat="-24.8509620" lon="-53.7278550">
        <ele>576.2</ele>
        <time>2018-09-14T18:10:22Z</time>
      </trkpt>
      <trkpt lat="-24.8509280" lon="-53.7278300">
        <ele>576.2</ele>
        <time>2018-09-14T18:10:23Z</time>
      </trkpt>
      <trkpt lat="-24.8508940" lon="-53.7278050">
        <ele>575.5</ele>
        <time>2018-09-14T18:10:24Z</time>
      </trkpt>
      <trkpt lat="-24.8508590" lon="-53.7277800">
        <ele>574.9</ele>
        <time>2018-09-14T18:10:25Z</time>
      </trkpt>
      <trkpt lat="-24.8508250" lon="-53.7277540">
        <ele>574.7</ele>
        <time>2018-09-14T18:10:26Z</time>
      </trkpt>
      <trkpt lat="-24.8507930" lon="-53.7277300">
        <ele>574.7</ele>
        <time>2018-09-14T18:10:27Z</time>
      </trkpt>
      <trkpt lat="-24.8507610" lon="-53.7277050">
        <ele>574.4</ele>
        <time>2018-09-14T18:10:28Z</time>
      </trkpt>
      <trkpt lat="-24.8507260" lon="-53.7276790">
        <ele>574.8</ele>
        <time>2018-09-14T18:10:29Z</time>
      </trkpt>
      <trkpt lat="-24.8506910" lon="-53.7276510">
        <ele>574.9</ele>
        <time>2018-09-14T18:10:30Z</time>
      </trkpt>
      <trkpt lat="-24.8506550" lon="-53.7276260">
        <ele>575.6</ele>
        <time>2018-09-14T18:10:31Z</time>
      </trkpt>
      <trkpt lat="-24.8506220" lon="-53.7276010">
        <ele>576.5</ele>
        <time>2018-09-14T18:10:32Z</time>
      </trkpt>
      <trkpt lat="-24.8505890" lon="-53.7275750">
        <ele>576.6</ele>
        <time>2018-09-14T18:10:33Z</time>
      </trkpt>
      <trkpt lat="-24.8505570" lon="-53.7275470">
        <ele>577.3</ele>
        <time>2018-09-14T18:10:34Z</time>
      </trkpt>
      <trkpt lat="-24.8505280" lon="-53.7275210">
        <ele>577.8</ele>
        <time>2018-09-14T18:10:35Z</time>
      </trkpt>
      <trkpt lat="-24.8504970" lon="-53.7274950">
        <ele>578.1</ele>
        <time>2018-09-14T18:10:36Z</time>
      </trkpt>
      <trkpt lat="-24.8504620" lon="-53.7274740">
        <ele>578.4</ele>
        <time>2018-09-14T18:10:37Z</time>
      </trkpt>
      <trkpt lat="-24.8504260" lon="-53.7274540">
        <ele>578.7</ele>
        <time>2018-09-14T18:10:38Z</time>
      </trkpt>
      <trkpt lat="-24.8503880" lon="-53.7274360">
        <ele>579.2</ele>
        <time>2018-09-14T18:10:39Z</time>
      </trkpt>
      <trkpt lat="-24.8503510" lon="-53.7274180">
        <ele>579.5</ele>
        <time>2018-09-14T18:10:40Z</time>
      </trkpt>
      <trkpt lat="-24.8503130" lon="-53.7274020">
        <ele>579.6</ele>
        <time>2018-09-14T18:10:41Z</time>
      </trkpt>
      <trkpt lat="-24.8502740" lon="-53.7273850">
        <ele>579.8</ele>
        <time>2018-09-14T18:10:42Z</time>
      </trkpt>
      <trkpt lat="-24.8502350" lon="-53.7273690">
        <ele>579.7</ele>
        <time>2018-09-14T18:10:43Z</time>
      </trkpt>
      <trkpt lat="-24.8501940" lon="-53.7273550">
        <ele>579.5</ele>
        <time>2018-09-14T18:10:44Z</time>
      </trkpt>
      <trkpt lat="-24.8501540" lon="-53.7273450">
        <ele>579.4</ele>
        <time>2018-09-14T18:10:45Z</time>
      </trkpt>
      <trkpt lat="-24.8501160" lon="-53.7273360">
        <ele>579.1</ele>
        <time>2018-09-14T18:10:46Z</time>
      </trkpt>
      <trkpt lat="-24.8500770" lon="-53.7273280">
        <ele>578.9</ele>
        <time>2018-09-14T18:10:47Z</time>
      </trkpt>
      <trkpt lat="-24.8500340" lon="-53.7273200">
        <ele>578.7</ele>
        <time>2018-09-14T18:10:48Z</time>
      </trkpt>
      <trkpt lat="-24.8499910" lon="-53.7273120">
        <ele>578.7</ele>
        <time>2018-09-14T18:10:49Z</time>
      </trkpt>
      <trkpt lat="-24.8499460" lon="-53.7273040">
        <ele>578.9</ele>
        <time>2018-09-14T18:10:50Z</time>
      </trkpt>
      <trkpt lat="-24.8499020" lon="-53.7272950">
        <ele>579.0</ele>
        <time>2018-09-14T18:10:51Z</time>
      </trkpt>
      <trkpt lat="-24.8498560" lon="-53.7272860">
        <ele>579.0</ele>
        <time>2018-09-14T18:10:52Z</time>
      </trkpt>
      <trkpt lat="-24.8498110" lon="-53.7272760">
        <ele>579.0</ele>
        <time>2018-09-14T18:10:53Z</time>
      </trkpt>
      <trkpt lat="-24.8497700" lon="-53.7272680">
        <ele>579.0</ele>
        <time>2018-09-14T18:10:54Z</time>
      </trkpt>
      <trkpt lat="-24.8497330" lon="-53.7272610">
        <ele>579.3</ele>
        <time>2018-09-14T18:10:55Z</time>
      </trkpt>
      <trkpt lat="-24.8496950" lon="-53.7272540">
        <ele>579.2</ele>
        <time>2018-09-14T18:10:56Z</time>
      </trkpt>
      <trkpt lat="-24.8496530" lon="-53.7272460">
        <ele>579.2</ele>
        <time>2018-09-14T18:10:57Z</time>
      </trkpt>
      <trkpt lat="-24.8496090" lon="-53.7272360">
        <ele>579.2</ele>
        <time>2018-09-14T18:10:58Z</time>
      </trkpt>
      <trkpt lat="-24.8495200" lon="-53.7272180">
        <ele>579.4</ele>
        <time>2018-09-14T18:10:59Z</time>
      </trkpt>
      <trkpt lat="-24.8494760" lon="-53.7272080">
        <ele>579.5</ele>
        <time>2018-09-14T18:11:01Z</time>
      </trkpt>
      <trkpt lat="-24.8494310" lon="-53.7272000">
        <ele>579.7</ele>
        <time>2018-09-14T18:11:02Z</time>
      </trkpt>
      <trkpt lat="-24.8493850" lon="-53.7271920">
        <ele>579.9</ele>
        <time>2018-09-14T18:11:03Z</time>
      </trkpt>
      <trkpt lat="-24.8493410" lon="-53.7271850">
        <ele>580.2</ele>
        <time>2018-09-14T18:11:04Z</time>
      </trkpt>
      <trkpt lat="-24.8492980" lon="-53.7271770">
        <ele>580.9</ele>
        <time>2018-09-14T18:11:05Z</time>
      </trkpt>
      <trkpt lat="-24.8492540" lon="-53.7271690">
        <ele>581.0</ele>
        <time>2018-09-14T18:11:06Z</time>
      </trkpt>
      <trkpt lat="-24.8492090" lon="-53.7271620">
        <ele>580.6</ele>
        <time>2018-09-14T18:11:07Z</time>
      </trkpt>
      <trkpt lat="-24.8491630" lon="-53.7271560">
        <ele>580.2</ele>
        <time>2018-09-14T18:11:08Z</time>
      </trkpt>
      <trkpt lat="-24.8491180" lon="-53.7271480">
        <ele>579.8</ele>
        <time>2018-09-14T18:11:09Z</time>
      </trkpt>
      <trkpt lat="-24.8490730" lon="-53.7271400">
        <ele>579.2</ele>
        <time>2018-09-14T18:11:10Z</time>
      </trkpt>
      <trkpt lat="-24.8490270" lon="-53.7271320">
        <ele>579.1</ele>
        <time>2018-09-14T18:11:11Z</time>
      </trkpt>
      <trkpt lat="-24.8489820" lon="-53.7271270">
        <ele>578.6</ele>
        <time>2018-09-14T18:11:12Z</time>
      </trkpt>
      <trkpt lat="-24.8489370" lon="-53.7271190">
        <ele>578.0</ele>
        <time>2018-09-14T18:11:13Z</time>
      </trkpt>
      <trkpt lat="-24.8488910" lon="-53.7271100">
        <ele>577.8</ele>
        <time>2018-09-14T18:11:14Z</time>
      </trkpt>
      <trkpt lat="-24.8488450" lon="-53.7271000">
        <ele>577.6</ele>
        <time>2018-09-14T18:11:15Z</time>
      </trkpt>
      <trkpt lat="-24.8488000" lon="-53.7270900">
        <ele>578.0</ele>
        <time>2018-09-14T18:11:16Z</time>
      </trkpt>
      <trkpt lat="-24.8487530" lon="-53.7270810">
        <ele>577.7</ele>
        <time>2018-09-14T18:11:17Z</time>
      </trkpt>
      <trkpt lat="-24.8486620" lon="-53.7270590">
        <ele>577.1</ele>
        <time>2018-09-14T18:11:18Z</time>
      </trkpt>
      <trkpt lat="-24.8486170" lon="-53.7270480">
        <ele>577.5</ele>
        <time>2018-09-14T18:11:19Z</time>
      </trkpt>
      <trkpt lat="-24.8485730" lon="-53.7270360">
        <ele>577.5</ele>
        <time>2018-09-14T18:11:20Z</time>
      </trkpt>
      <trkpt lat="-24.8485300" lon="-53.7270230">
        <ele>577.5</ele>
        <time>2018-09-14T18:11:21Z</time>
      </trkpt>
      <trkpt lat="-24.8484880" lon="-53.7270060">
        <ele>578.2</ele>
        <time>2018-09-14T18:11:22Z</time>
      </trkpt>
      <trkpt lat="-24.8484460" lon="-53.7269880">
        <ele>578.4</ele>
        <time>2018-09-14T18:11:23Z</time>
      </trkpt>
      <trkpt lat="-24.8484050" lon="-53.7269690">
        <ele>578.7</ele>
        <time>2018-09-14T18:11:24Z</time>
      </trkpt>
      <trkpt lat="-24.8483640" lon="-53.7269460">
        <ele>579.1</ele>
        <time>2018-09-14T18:11:25Z</time>
      </trkpt>
      <trkpt lat="-24.8483250" lon="-53.7269230">
        <ele>579.2</ele>
        <time>2018-09-14T18:11:26Z</time>
      </trkpt>
      <trkpt lat="-24.8482870" lon="-53.7268970">
        <ele>579.3</ele>
        <time>2018-09-14T18:11:27Z</time>
      </trkpt>
      <trkpt lat="-24.8482500" lon="-53.7268700">
        <ele>579.4</ele>
        <time>2018-09-14T18:11:28Z</time>
      </trkpt>
      <trkpt lat="-24.8482140" lon="-53.7268400">
        <ele>579.7</ele>
        <time>2018-09-14T18:11:29Z</time>
      </trkpt>
      <trkpt lat="-24.8481770" lon="-53.7268080">
        <ele>580.1</ele>
        <time>2018-09-14T18:11:30Z</time>
      </trkpt>
      <trkpt lat="-24.8481430" lon="-53.7267760">
        <ele>580.3</ele>
        <time>2018-09-14T18:11:31Z</time>
      </trkpt>
      <trkpt lat="-24.8481090" lon="-53.7267430">
        <ele>580.3</ele>
        <time>2018-09-14T18:11:32Z</time>
      </trkpt>
      <trkpt lat="-24.8480460" lon="-53.7266750">
        <ele>580.1</ele>
        <time>2018-09-14T18:11:34Z</time>
      </trkpt>
      <trkpt lat="-24.8480150" lon="-53.7266420">
        <ele>580.0</ele>
        <time>2018-09-14T18:11:35Z</time>
      </trkpt>
      <trkpt lat="-24.8479850" lon="-53.7266070">
        <ele>580.0</ele>
        <time>2018-09-14T18:11:36Z</time>
      </trkpt>
      <trkpt lat="-24.8479560" lon="-53.7265730">
        <ele>580.3</ele>
        <time>2018-09-14T18:11:37Z</time>
      </trkpt>
      <trkpt lat="-24.8479270" lon="-53.7265380">
        <ele>580.5</ele>
        <time>2018-09-14T18:11:38Z</time>
      </trkpt>
      <trkpt lat="-24.8479020" lon="-53.7265010">
        <ele>580.8</ele>
        <time>2018-09-14T18:11:39Z</time>
      </trkpt>
      <trkpt lat="-24.8478790" lon="-53.7264640">
        <ele>581.2</ele>
        <time>2018-09-14T18:11:40Z</time>
      </trkpt>
      <trkpt lat="-24.8478520" lon="-53.7264270">
        <ele>581.5</ele>
        <time>2018-09-14T18:11:41Z</time>
      </trkpt>
      <trkpt lat="-24.8478230" lon="-53.7263940">
        <ele>581.7</ele>
        <time>2018-09-14T18:11:42Z</time>
      </trkpt>
      <trkpt lat="-24.8477940" lon="-53.7263600">
        <ele>581.9</ele>
        <time>2018-09-14T18:11:43Z</time>
      </trkpt>
      <trkpt lat="-24.8477660" lon="-53.7263260">
        <ele>581.9</ele>
        <time>2018-09-14T18:11:44Z</time>
      </trkpt>
      <trkpt lat="-24.8477350" lon="-53.7262910">
        <ele>582.2</ele>
        <time>2018-09-14T18:11:45Z</time>
      </trkpt>
      <trkpt lat="-24.8477040" lon="-53.7262560">
        <ele>582.5</ele>
        <time>2018-09-14T18:11:46Z</time>
      </trkpt>
      <trkpt lat="-24.8476710" lon="-53.7262210">
        <ele>582.8</ele>
        <time>2018-09-14T18:11:47Z</time>
      </trkpt>
      <trkpt lat="-24.8476380" lon="-53.7261860">
        <ele>583.1</ele>
        <time>2018-09-14T18:11:48Z</time>
      </trkpt>
      <trkpt lat="-24.8476050" lon="-53.7261510">
        <ele>583.0</ele>
        <time>2018-09-14T18:11:49Z</time>
      </trkpt>
      <trkpt lat="-24.8475720" lon="-53.7261160">
        <ele>583.2</ele>
        <time>2018-09-14T18:11:50Z</time>
      </trkpt>
      <trkpt lat="-24.8475380" lon="-53.7260820">
        <ele>583.3</ele>
        <time>2018-09-14T18:11:51Z</time>
      </trkpt>
      <trkpt lat="-24.8475030" lon="-53.7260490">
        <ele>583.6</ele>
        <time>2018-09-14T18:11:52Z</time>
      </trkpt>
      <trkpt lat="-24.8474690" lon="-53.7260150">
        <ele>583.7</ele>
        <time>2018-09-14T18:11:53Z</time>
      </trkpt>
      <trkpt lat="-24.8474350" lon="-53.7259800">
        <ele>583.4</ele>
        <time>2018-09-14T18:11:54Z</time>
      </trkpt>
      <trkpt lat="-24.8474020" lon="-53.7259450">
        <ele>583.0</ele>
        <time>2018-09-14T18:11:55Z</time>
      </trkpt>
      <trkpt lat="-24.8473680" lon="-53.7259100">
        <ele>582.5</ele>
        <time>2018-09-14T18:11:56Z</time>
      </trkpt>
      <trkpt lat="-24.8473350" lon="-53.7258740">
        <ele>582.1</ele>
        <time>2018-09-14T18:11:57Z</time>
      </trkpt>
      <trkpt lat="-24.8473020" lon="-53.7258390">
        <ele>582.1</ele>
        <time>2018-09-14T18:11:58Z</time>
      </trkpt>
      <trkpt lat="-24.8472690" lon="-53.7258060">
        <ele>582.1</ele>
        <time>2018-09-14T18:11:59Z</time>
      </trkpt>
      <trkpt lat="-24.8472370" lon="-53.7257710">
        <ele>582.3</ele>
        <time>2018-09-14T18:12:00Z</time>
      </trkpt>
      <trkpt lat="-24.8472040" lon="-53.7257350">
        <ele>582.4</ele>
        <time>2018-09-14T18:12:01Z</time>
      </trkpt>
      <trkpt lat="-24.8471720" lon="-53.7257000">
        <ele>582.6</ele>
        <time>2018-09-14T18:12:02Z</time>
      </trkpt>
      <trkpt lat="-24.8471400" lon="-53.7256660">
        <ele>582.9</ele>
        <time>2018-09-14T18:12:03Z</time>
      </trkpt>
      <trkpt lat="-24.8471070" lon="-53.7256320">
        <ele>583.4</ele>
        <time>2018-09-14T18:12:04Z</time>
      </trkpt>
      <trkpt lat="-24.8470750" lon="-53.7255970">
        <ele>583.4</ele>
        <time>2018-09-14T18:12:05Z</time>
      </trkpt>
      <trkpt lat="-24.8470440" lon="-53.7255630">
        <ele>583.9</ele>
        <time>2018-09-14T18:12:06Z</time>
      </trkpt>
      <trkpt lat="-24.8470120" lon="-53.7255290">
        <ele>584.1</ele>
        <time>2018-09-14T18:12:07Z</time>
      </trkpt>
      <trkpt lat="-24.8469800" lon="-53.7254950">
        <ele>584.2</ele>
        <time>2018-09-14T18:12:08Z</time>
      </trkpt>
      <trkpt lat="-24.8469480" lon="-53.7254610">
        <ele>584.3</ele>
        <time>2018-09-14T18:12:09Z</time>
      </trkpt>
      <trkpt lat="-24.8469170" lon="-53.7254270">
        <ele>584.3</ele>
        <time>2018-09-14T18:12:10Z</time>
      </trkpt>
      <trkpt lat="-24.8468850" lon="-53.7253950">
        <ele>584.6</ele>
        <time>2018-09-14T18:12:11Z</time>
      </trkpt>
      <trkpt lat="-24.8468560" lon="-53.7253640">
        <ele>585.0</ele>
        <time>2018-09-14T18:12:12Z</time>
      </trkpt>
      <trkpt lat="-24.8468280" lon="-53.7253320">
        <ele>585.3</ele>
        <time>2018-09-14T18:12:13Z</time>
      </trkpt>
      <trkpt lat="-24.8467980" lon="-53.7253010">
        <ele>585.1</ele>
        <time>2018-09-14T18:12:14Z</time>
      </trkpt>
      <trkpt lat="-24.8467680" lon="-53.7252690">
        <ele>585.3</ele>
        <time>2018-09-14T18:12:15Z</time>
      </trkpt>
      <trkpt lat="-24.8467370" lon="-53.7252370">
        <ele>585.3</ele>
        <time>2018-09-14T18:12:16Z</time>
      </trkpt>
      <trkpt lat="-24.8467080" lon="-53.7252050">
        <ele>585.1</ele>
        <time>2018-09-14T18:12:17Z</time>
      </trkpt>
      <trkpt lat="-24.8466770" lon="-53.7251730">
        <ele>585.2</ele>
        <time>2018-09-14T18:12:18Z</time>
      </trkpt>
      <trkpt lat="-24.8466460" lon="-53.7251420">
        <ele>585.4</ele>
        <time>2018-09-14T18:12:19Z</time>
      </trkpt>
      <trkpt lat="-24.8466160" lon="-53.7251090">
        <ele>585.3</ele>
        <time>2018-09-14T18:12:20Z</time>
      </trkpt>
      <trkpt lat="-24.8465860" lon="-53.7250780">
        <ele>585.1</ele>
        <time>2018-09-14T18:12:21Z</time>
      </trkpt>
      <trkpt lat="-24.8465560" lon="-53.7250460">
        <ele>584.6</ele>
        <time>2018-09-14T18:12:22Z</time>
      </trkpt>
      <trkpt lat="-24.8465260" lon="-53.7250150">
        <ele>584.4</ele>
        <time>2018-09-14T18:12:23Z</time>
      </trkpt>
      <trkpt lat="-24.8464940" lon="-53.7249830">
        <ele>584.4</ele>
        <time>2018-09-14T18:12:24Z</time>
      </trkpt>
      <trkpt lat="-24.8464640" lon="-53.7249500">
        <ele>584.3</ele>
        <time>2018-09-14T18:12:25Z</time>
      </trkpt>
      <trkpt lat="-24.8464340" lon="-53.7249180">
        <ele>584.3</ele>
        <time>2018-09-14T18:12:26Z</time>
      </trkpt>
      <trkpt lat="-24.8464050" lon="-53.7248870">
        <ele>584.5</ele>
        <time>2018-09-14T18:12:27Z</time>
      </trkpt>
      <trkpt lat="-24.8463760" lon="-53.7248550">
        <ele>584.6</ele>
        <time>2018-09-14T18:12:28Z</time>
      </trkpt>
      <trkpt lat="-24.8463480" lon="-53.7248250">
        <ele>584.5</ele>
        <time>2018-09-14T18:12:29Z</time>
      </trkpt>
      <trkpt lat="-24.8463210" lon="-53.7247940">
        <ele>584.2</ele>
        <time>2018-09-14T18:12:30Z</time>
      </trkpt>
      <trkpt lat="-24.8462930" lon="-53.7247660">
        <ele>584.2</ele>
        <time>2018-09-14T18:12:31Z</time>
      </trkpt>
      <trkpt lat="-24.8462660" lon="-53.7247380">
        <ele>583.8</ele>
        <time>2018-09-14T18:12:32Z</time>
      </trkpt>
      <trkpt lat="-24.8462410" lon="-53.7247110">
        <ele>583.4</ele>
        <time>2018-09-14T18:12:33Z</time>
      </trkpt>
      <trkpt lat="-24.8462180" lon="-53.7246830">
        <ele>583.3</ele>
        <time>2018-09-14T18:12:34Z</time>
      </trkpt>
      <trkpt lat="-24.8461960" lon="-53.7246560">
        <ele>583.2</ele>
        <time>2018-09-14T18:12:35Z</time>
      </trkpt>
      <trkpt lat="-24.8461750" lon="-53.7246300">
        <ele>583.4</ele>
        <time>2018-09-14T18:12:36Z</time>
      </trkpt>
      <trkpt lat="-24.8461510" lon="-53.7246060">
        <ele>583.4</ele>
        <time>2018-09-14T18:12:37Z</time>
      </trkpt>
      <trkpt lat="-24.8461270" lon="-53.7245820">
        <ele>583.8</ele>
        <time>2018-09-14T18:12:38Z</time>
      </trkpt>
      <trkpt lat="-24.8461050" lon="-53.7245560">
        <ele>584.2</ele>
        <time>2018-09-14T18:12:39Z</time>
      </trkpt>
      <trkpt lat="-24.8460820" lon="-53.7245280">
        <ele>584.4</ele>
        <time>2018-09-14T18:12:40Z</time>
      </trkpt>
      <trkpt lat="-24.8460580" lon="-53.7244980">
        <ele>584.9</ele>
        <time>2018-09-14T18:12:41Z</time>
      </trkpt>
      <trkpt lat="-24.8460340" lon="-53.7244690">
        <ele>585.2</ele>
        <time>2018-09-14T18:12:42Z</time>
      </trkpt>
      <trkpt lat="-24.8460160" lon="-53.7244400">
        <ele>585.4</ele>
        <time>2018-09-14T18:12:43Z</time>
      </trkpt>
      <trkpt lat="-24.8460030" lon="-53.7244050">
        <ele>585.8</ele>
        <time>2018-09-14T18:12:44Z</time>
      </trkpt>
      <trkpt lat="-24.8459970" lon="-53.7243660">
        <ele>586.3</ele>
        <time>2018-09-14T18:12:45Z</time>
      </trkpt>
      <trkpt lat="-24.8459990" lon="-53.7243290">
        <ele>586.8</ele>
        <time>2018-09-14T18:12:46Z</time>
      </trkpt>
      <trkpt lat="-24.8460080" lon="-53.7242940">
        <ele>587.4</ele>
        <time>2018-09-14T18:12:47Z</time>
      </trkpt>
      <trkpt lat="-24.8460240" lon="-53.7242610">
        <ele>587.1</ele>
        <time>2018-09-14T18:12:48Z</time>
      </trkpt>
      <trkpt lat="-24.8460420" lon="-53.7242300">
        <ele>587.6</ele>
        <time>2018-09-14T18:12:49Z</time>
      </trkpt>
      <trkpt lat="-24.8460580" lon="-53.7242030">
        <ele>588.1</ele>
        <time>2018-09-14T18:12:50Z</time>
      </trkpt>
      <trkpt lat="-24.8460730" lon="-53.7241790">
        <ele>587.8</ele>
        <time>2018-09-14T18:12:51Z</time>
      </trkpt>
      <trkpt lat="-24.8460910" lon="-53.7241530">
        <ele>588.4</ele>
        <time>2018-09-14T18:12:52Z</time>
      </trkpt>
      <trkpt lat="-24.8461120" lon="-53.7241250">
        <ele>588.7</ele>
        <time>2018-09-14T18:12:53Z</time>
      </trkpt>
      <trkpt lat="-24.8461340" lon="-53.7240970">
        <ele>588.7</ele>
        <time>2018-09-14T18:12:54Z</time>
      </trkpt>
      <trkpt lat="-24.8461570" lon="-53.7240690">
        <ele>588.9</ele>
        <time>2018-09-14T18:12:55Z</time>
      </trkpt>
      <trkpt lat="-24.8461790" lon="-53.7240390">
        <ele>589.0</ele>
        <time>2018-09-14T18:12:56Z</time>
      </trkpt>
      <trkpt lat="-24.8462010" lon="-53.7240070">
        <ele>589.0</ele>
        <time>2018-09-14T18:12:57Z</time>
      </trkpt>
      <trkpt lat="-24.8462240" lon="-53.7239770">
        <ele>588.9</ele>
        <time>2018-09-14T18:12:58Z</time>
      </trkpt>
      <trkpt lat="-24.8462470" lon="-53.7239470">
        <ele>589.1</ele>
        <time>2018-09-14T18:12:59Z</time>
      </trkpt>
      <trkpt lat="-24.8462690" lon="-53.7239170">
        <ele>589.1</ele>
        <time>2018-09-14T18:13:00Z</time>
      </trkpt>
      <trkpt lat="-24.8462910" lon="-53.7238870">
        <ele>589.1</ele>
        <time>2018-09-14T18:13:01Z</time>
      </trkpt>
      <trkpt lat="-24.8463120" lon="-53.7238580">
        <ele>589.1</ele>
        <time>2018-09-14T18:13:02Z</time>
      </trkpt>
      <trkpt lat="-24.8463320" lon="-53.7238290">
        <ele>589.0</ele>
        <time>2018-09-14T18:13:03Z</time>
      </trkpt>
      <trkpt lat="-24.8463520" lon="-53.7237980">
        <ele>589.0</ele>
        <time>2018-09-14T18:13:04Z</time>
      </trkpt>
      <trkpt lat="-24.8463710" lon="-53.7237700">
        <ele>589.1</ele>
        <time>2018-09-14T18:13:05Z</time>
      </trkpt>
      <trkpt lat="-24.8463900" lon="-53.7237400">
        <ele>589.5</ele>
        <time>2018-09-14T18:13:06Z</time>
      </trkpt>
      <trkpt lat="-24.8464070" lon="-53.7237130">
        <ele>589.5</ele>
        <time>2018-09-14T18:13:07Z</time>
      </trkpt>
      <trkpt lat="-24.8464200" lon="-53.7236890">
        <ele>589.9</ele>
        <time>2018-09-14T18:13:08Z</time>
      </trkpt>
      <trkpt lat="-24.8464320" lon="-53.7236670">
        <ele>589.9</ele>
        <time>2018-09-14T18:13:09Z</time>
      </trkpt>
      <trkpt lat="-24.8464480" lon="-53.7236450">
        <ele>590.6</ele>
        <time>2018-09-14T18:13:10Z</time>
      </trkpt>
      <trkpt lat="-24.8464660" lon="-53.7236200">
        <ele>590.3</ele>
        <time>2018-09-14T18:13:11Z</time>
      </trkpt>
      <trkpt lat="-24.8464850" lon="-53.7235930">
        <ele>590.8</ele>
        <time>2018-09-14T18:13:12Z</time>
      </trkpt>
      <trkpt lat="-24.8465040" lon="-53.7235640">
        <ele>590.7</ele>
        <time>2018-09-14T18:13:13Z</time>
      </trkpt>
      <trkpt lat="-24.8465240" lon="-53.7235340">
        <ele>590.7</ele>
        <time>2018-09-14T18:13:14Z</time>
      </trkpt>
      <trkpt lat="-24.8465440" lon="-53.7235040">
        <ele>590.4</ele>
        <time>2018-09-14T18:13:15Z</time>
      </trkpt>
      <trkpt lat="-24.8465650" lon="-53.7234750">
        <ele>590.6</ele>
        <time>2018-09-14T18:13:16Z</time>
      </trkpt>
      <trkpt lat="-24.8465860" lon="-53.7234460">
        <ele>590.2</ele>
        <time>2018-09-14T18:13:17Z</time>
      </trkpt>
      <trkpt lat="-24.8466070" lon="-53.7234180">
        <ele>590.5</ele>
        <time>2018-09-14T18:13:18Z</time>
      </trkpt>
      <trkpt lat="-24.8466260" lon="-53.7233890">
        <ele>590.8</ele>
        <time>2018-09-14T18:13:19Z</time>
      </trkpt>
      <trkpt lat="-24.8466430" lon="-53.7233590">
        <ele>591.0</ele>
        <time>2018-09-14T18:13:20Z</time>
      </trkpt>
      <trkpt lat="-24.8466590" lon="-53.7233340">
        <ele>591.1</ele>
        <time>2018-09-14T18:13:21Z</time>
      </trkpt>
      <trkpt lat="-24.8466720" lon="-53.7233120">
        <ele>591.1</ele>
        <time>2018-09-14T18:13:22Z</time>
      </trkpt>
      <trkpt lat="-24.8466890" lon="-53.7232890">
        <ele>591.2</ele>
        <time>2018-09-14T18:13:23Z</time>
      </trkpt>
      <trkpt lat="-24.8467080" lon="-53.7232650">
        <ele>591.1</ele>
        <time>2018-09-14T18:13:24Z</time>
      </trkpt>
      <trkpt lat="-24.8467280" lon="-53.7232400">
        <ele>591.1</ele>
        <time>2018-09-14T18:13:25Z</time>
      </trkpt>
      <trkpt lat="-24.8467280" lon="-53.7232400">
        <ele>591.1</ele>
        <time>2018-09-14T18:13:26Z</time>
      </trkpt>
      <trkpt lat="-24.8467460" lon="-53.7232130">
        <ele>590.8</ele>
        <time>2018-09-14T18:13:27Z</time>
      </trkpt>
      <trkpt lat="-24.8467610" lon="-53.7231860">
        <ele>590.5</ele>
        <time>2018-09-14T18:13:28Z</time>
      </trkpt>
      <trkpt lat="-24.8467780" lon="-53.7231600">
        <ele>590.5</ele>
        <time>2018-09-14T18:13:29Z</time>
      </trkpt>
      <trkpt lat="-24.8467940" lon="-53.7231340">
        <ele>590.0</ele>
        <time>2018-09-14T18:13:30Z</time>
      </trkpt>
      <trkpt lat="-24.8468070" lon="-53.7231100">
        <ele>590.1</ele>
        <time>2018-09-14T18:13:31Z</time>
      </trkpt>
      <trkpt lat="-24.8468210" lon="-53.7230890">
        <ele>590.0</ele>
        <time>2018-09-14T18:13:32Z</time>
      </trkpt>
      <trkpt lat="-24.8468370" lon="-53.7230680">
        <ele>590.0</ele>
        <time>2018-09-14T18:13:33Z</time>
      </trkpt>
      <trkpt lat="-24.8468550" lon="-53.7230420">
        <ele>590.3</ele>
        <time>2018-09-14T18:13:34Z</time>
      </trkpt>
      <trkpt lat="-24.8468720" lon="-53.7230130">
        <ele>590.4</ele>
        <time>2018-09-14T18:13:35Z</time>
      </trkpt>
      <trkpt lat="-24.8468880" lon="-53.7229850">
        <ele>590.6</ele>
        <time>2018-09-14T18:13:36Z</time>
      </trkpt>
      <trkpt lat="-24.8469030" lon="-53.7229560">
        <ele>590.7</ele>
        <time>2018-09-14T18:13:37Z</time>
      </trkpt>
      <trkpt lat="-24.8469180" lon="-53.7229280">
        <ele>590.9</ele>
        <time>2018-09-14T18:13:38Z</time>
      </trkpt>
      <trkpt lat="-24.8469330" lon="-53.7228990">
        <ele>590.9</ele>
        <time>2018-09-14T18:13:39Z</time>
      </trkpt>
      <trkpt lat="-24.8469470" lon="-53.7228710">
        <ele>591.0</ele>
        <time>2018-09-14T18:13:40Z</time>
      </trkpt>
      <trkpt lat="-24.8469600" lon="-53.7228470">
        <ele>591.1</ele>
        <time>2018-09-14T18:13:41Z</time>
      </trkpt>
      <trkpt lat="-24.8469730" lon="-53.7228280">
        <ele>591.3</ele>
        <time>2018-09-14T18:13:42Z</time>
      </trkpt>
      <trkpt lat="-24.8469840" lon="-53.7228060">
        <ele>591.4</ele>
        <time>2018-09-14T18:13:43Z</time>
      </trkpt>
      <trkpt lat="-24.8469980" lon="-53.7227790">
        <ele>591.9</ele>
        <time>2018-09-14T18:13:44Z</time>
      </trkpt>
      <trkpt lat="-24.8470180" lon="-53.7227560">
        <ele>592.3</ele>
        <time>2018-09-14T18:13:45Z</time>
      </trkpt>
      <trkpt lat="-24.8470390" lon="-53.7227350">
        <ele>592.6</ele>
        <time>2018-09-14T18:13:46Z</time>
      </trkpt>
      <trkpt lat="-24.8470580" lon="-53.7227130">
        <ele>593.0</ele>
        <time>2018-09-14T18:13:47Z</time>
      </trkpt>
      <trkpt lat="-24.8470740" lon="-53.7226910">
        <ele>593.2</ele>
        <time>2018-09-14T18:13:48Z</time>
      </trkpt>
      <trkpt lat="-24.8470910" lon="-53.7226680">
        <ele>593.5</ele>
        <time>2018-09-14T18:13:49Z</time>
      </trkpt>
      <trkpt lat="-24.8471090" lon="-53.7226440">
        <ele>593.5</ele>
        <time>2018-09-14T18:13:50Z</time>
      </trkpt>
      <trkpt lat="-24.8471230" lon="-53.7226210">
        <ele>593.8</ele>
        <time>2018-09-14T18:13:51Z</time>
      </trkpt>
      <trkpt lat="-24.8471370" lon="-53.7226000">
        <ele>593.8</ele>
        <time>2018-09-14T18:13:52Z</time>
      </trkpt>
      <trkpt lat="-24.8471520" lon="-53.7225750">
        <ele>594.4</ele>
        <time>2018-09-14T18:13:53Z</time>
      </trkpt>
      <trkpt lat="-24.8471710" lon="-53.7225510">
        <ele>594.4</ele>
        <time>2018-09-14T18:13:54Z</time>
      </trkpt>
      <trkpt lat="-24.8471900" lon="-53.7225250">
        <ele>595.1</ele>
        <time>2018-09-14T18:13:55Z</time>
      </trkpt>
      <trkpt lat="-24.8472100" lon="-53.7224980">
        <ele>595.4</ele>
        <time>2018-09-14T18:13:56Z</time>
      </trkpt>
      <trkpt lat="-24.8472320" lon="-53.7224700">
        <ele>595.7</ele>
        <time>2018-09-14T18:13:57Z</time>
      </trkpt>
      <trkpt lat="-24.8472540" lon="-53.7224420">
        <ele>595.9</ele>
        <time>2018-09-14T18:13:58Z</time>
      </trkpt>
      <trkpt lat="-24.8472750" lon="-53.7224150">
        <ele>596.1</ele>
        <time>2018-09-14T18:13:59Z</time>
      </trkpt>
      <trkpt lat="-24.8472950" lon="-53.7223880">
        <ele>596.2</ele>
        <time>2018-09-14T18:14:00Z</time>
      </trkpt>
      <trkpt lat="-24.8473160" lon="-53.7223610">
        <ele>596.3</ele>
        <time>2018-09-14T18:14:01Z</time>
      </trkpt>
      <trkpt lat="-24.8473360" lon="-53.7223340">
        <ele>596.3</ele>
        <time>2018-09-14T18:14:02Z</time>
      </trkpt>
      <trkpt lat="-24.8473550" lon="-53.7223110">
        <ele>596.4</ele>
        <time>2018-09-14T18:14:03Z</time>
      </trkpt>
      <trkpt lat="-24.8473720" lon="-53.7222890">
        <ele>596.4</ele>
        <time>2018-09-14T18:14:04Z</time>
      </trkpt>
      <trkpt lat="-24.8473870" lon="-53.7222620">
        <ele>596.8</ele>
        <time>2018-09-14T18:14:05Z</time>
      </trkpt>
      <trkpt lat="-24.8474030" lon="-53.7222350">
        <ele>597.0</ele>
        <time>2018-09-14T18:14:06Z</time>
      </trkpt>
      <trkpt lat="-24.8474190" lon="-53.7222090">
        <ele>597.0</ele>
        <time>2018-09-14T18:14:07Z</time>
      </trkpt>
      <trkpt lat="-24.8474350" lon="-53.7221820">
        <ele>597.4</ele>
        <time>2018-09-14T18:14:08Z</time>
      </trkpt>
      <trkpt lat="-24.8474530" lon="-53.7221560">
        <ele>597.7</ele>
        <time>2018-09-14T18:14:09Z</time>
      </trkpt>
      <trkpt lat="-24.8474710" lon="-53.7221270">
        <ele>597.7</ele>
        <time>2018-09-14T18:14:10Z</time>
      </trkpt>
      <trkpt lat="-24.8474880" lon="-53.7221000">
        <ele>597.9</ele>
        <time>2018-09-14T18:14:11Z</time>
      </trkpt>
      <trkpt lat="-24.8475020" lon="-53.7220790">
        <ele>597.9</ele>
        <time>2018-09-14T18:14:12Z</time>
      </trkpt>
      <trkpt lat="-24.8475160" lon="-53.7220550">
        <ele>598.0</ele>
        <time>2018-09-14T18:14:13Z</time>
      </trkpt>
      <trkpt lat="-24.8475320" lon="-53.7220300">
        <ele>598.1</ele>
        <time>2018-09-14T18:14:14Z</time>
      </trkpt>
      <trkpt lat="-24.8475490" lon="-53.7220020">
        <ele>598.2</ele>
        <time>2018-09-14T18:14:15Z</time>
      </trkpt>
      <trkpt lat="-24.8475660" lon="-53.7219710">
        <ele>598.2</ele>
        <time>2018-09-14T18:14:16Z</time>
      </trkpt>
      <trkpt lat="-24.8475810" lon="-53.7219380">
        <ele>598.3</ele>
        <time>2018-09-14T18:14:17Z</time>
      </trkpt>
      <trkpt lat="-24.8475950" lon="-53.7219020">
        <ele>598.4</ele>
        <time>2018-09-14T18:14:18Z</time>
      </trkpt>
      <trkpt lat="-24.8476100" lon="-53.7218700">
        <ele>598.4</ele>
        <time>2018-09-14T18:14:19Z</time>
      </trkpt>
      <trkpt lat="-24.8476260" lon="-53.7218420">
        <ele>598.8</ele>
        <time>2018-09-14T18:14:20Z</time>
      </trkpt>
      <trkpt lat="-24.8476450" lon="-53.7218170">
        <ele>598.8</ele>
        <time>2018-09-14T18:14:21Z</time>
      </trkpt>
      <trkpt lat="-24.8476650" lon="-53.7217930">
        <ele>599.3</ele>
        <time>2018-09-14T18:14:22Z</time>
      </trkpt>
      <trkpt lat="-24.8476880" lon="-53.7217690">
        <ele>599.6</ele>
        <time>2018-09-14T18:14:23Z</time>
      </trkpt>
      <trkpt lat="-24.8477110" lon="-53.7217440">
        <ele>599.8</ele>
        <time>2018-09-14T18:14:24Z</time>
      </trkpt>
      <trkpt lat="-24.8477350" lon="-53.7217160">
        <ele>600.2</ele>
        <time>2018-09-14T18:14:25Z</time>
      </trkpt>
      <trkpt lat="-24.8477560" lon="-53.7216880">
        <ele>600.3</ele>
        <time>2018-09-14T18:14:26Z</time>
      </trkpt>
      <trkpt lat="-24.8477730" lon="-53.7216620">
        <ele>600.5</ele>
        <time>2018-09-14T18:14:27Z</time>
      </trkpt>
      <trkpt lat="-24.8477840" lon="-53.7216370">
        <ele>600.8</ele>
        <time>2018-09-14T18:14:28Z</time>
      </trkpt>
      <trkpt lat="-24.8477920" lon="-53.7216120">
        <ele>600.8</ele>
        <time>2018-09-14T18:14:29Z</time>
      </trkpt>
      <trkpt lat="-24.8478070" lon="-53.7215840">
        <ele>601.0</ele>
        <time>2018-09-14T18:14:30Z</time>
      </trkpt>
      <trkpt lat="-24.8478250" lon="-53.7215550">
        <ele>601.2</ele>
        <time>2018-09-14T18:14:31Z</time>
      </trkpt>
      <trkpt lat="-24.8478450" lon="-53.7215250">
        <ele>601.2</ele>
        <time>2018-09-14T18:14:32Z</time>
      </trkpt>
      <trkpt lat="-24.8478640" lon="-53.7214970">
        <ele>601.5</ele>
        <time>2018-09-14T18:14:33Z</time>
      </trkpt>
      <trkpt lat="-24.8478840" lon="-53.7214690">
        <ele>601.7</ele>
        <time>2018-09-14T18:14:34Z</time>
      </trkpt>
      <trkpt lat="-24.8479000" lon="-53.7214440">
        <ele>601.8</ele>
        <time>2018-09-14T18:14:35Z</time>
      </trkpt>
      <trkpt lat="-24.8479130" lon="-53.7214200">
        <ele>602.0</ele>
        <time>2018-09-14T18:14:36Z</time>
      </trkpt>
      <trkpt lat="-24.8479300" lon="-53.7213970">
        <ele>602.0</ele>
        <time>2018-09-14T18:14:37Z</time>
      </trkpt>
      <trkpt lat="-24.8479490" lon="-53.7213700">
        <ele>602.2</ele>
        <time>2018-09-14T18:14:38Z</time>
      </trkpt>
      <trkpt lat="-24.8479700" lon="-53.7213420">
        <ele>602.5</ele>
        <time>2018-09-14T18:14:39Z</time>
      </trkpt>
      <trkpt lat="-24.8479900" lon="-53.7213150">
        <ele>602.6</ele>
        <time>2018-09-14T18:14:40Z</time>
      </trkpt>
      <trkpt lat="-24.8480100" lon="-53.7212860">
        <ele>603.1</ele>
        <time>2018-09-14T18:14:41Z</time>
      </trkpt>
      <trkpt lat="-24.8480310" lon="-53.7212560">
        <ele>603.7</ele>
        <time>2018-09-14T18:14:42Z</time>
      </trkpt>
      <trkpt lat="-24.8480510" lon="-53.7212280">
        <ele>603.9</ele>
        <time>2018-09-14T18:14:43Z</time>
      </trkpt>
      <trkpt lat="-24.8480720" lon="-53.7211990">
        <ele>604.5</ele>
        <time>2018-09-14T18:14:44Z</time>
      </trkpt>
      <trkpt lat="-24.8480920" lon="-53.7211720">
        <ele>604.8</ele>
        <time>2018-09-14T18:14:45Z</time>
      </trkpt>
      <trkpt lat="-24.8481110" lon="-53.7211470">
        <ele>605.2</ele>
        <time>2018-09-14T18:14:46Z</time>
      </trkpt>
      <trkpt lat="-24.8481270" lon="-53.7211220">
        <ele>605.8</ele>
        <time>2018-09-14T18:14:47Z</time>
      </trkpt>
      <trkpt lat="-24.8481390" lon="-53.7210970">
        <ele>605.8</ele>
        <time>2018-09-14T18:14:48Z</time>
      </trkpt>
      <trkpt lat="-24.8481560" lon="-53.7210710">
        <ele>606.0</ele>
        <time>2018-09-14T18:14:49Z</time>
      </trkpt>
      <trkpt lat="-24.8481770" lon="-53.7210460">
        <ele>606.1</ele>
        <time>2018-09-14T18:14:50Z</time>
      </trkpt>
      <trkpt lat="-24.8481980" lon="-53.7210210">
        <ele>606.3</ele>
        <time>2018-09-14T18:14:51Z</time>
      </trkpt>
      <trkpt lat="-24.8482190" lon="-53.7209960">
        <ele>606.9</ele>
        <time>2018-09-14T18:14:52Z</time>
      </trkpt>
      <trkpt lat="-24.8482390" lon="-53.7209700">
        <ele>606.9</ele>
        <time>2018-09-14T18:14:53Z</time>
      </trkpt>
      <trkpt lat="-24.8482570" lon="-53.7209440">
        <ele>607.7</ele>
        <time>2018-09-14T18:14:54Z</time>
      </trkpt>
      <trkpt lat="-24.8482760" lon="-53.7209180">
        <ele>607.7</ele>
        <time>2018-09-14T18:14:55Z</time>
      </trkpt>
      <trkpt lat="-24.8482950" lon="-53.7208920">
        <ele>608.5</ele>
        <time>2018-09-14T18:14:56Z</time>
      </trkpt>
      <trkpt lat="-24.8483140" lon="-53.7208680">
        <ele>609.1</ele>
        <time>2018-09-14T18:14:57Z</time>
      </trkpt>
      <trkpt lat="-24.8483330" lon="-53.7208480">
        <ele>609.3</ele>
        <time>2018-09-14T18:14:58Z</time>
      </trkpt>
      <trkpt lat="-24.8483660" lon="-53.7208090">
        <ele>610.0</ele>
        <time>2018-09-14T18:14:59Z</time>
      </trkpt>
      <trkpt lat="-24.8483830" lon="-53.7207880">
        <ele>610.0</ele>
        <time>2018-09-14T18:15:01Z</time>
      </trkpt>
      <trkpt lat="-24.8484000" lon="-53.7207670">
        <ele>610.5</ele>
        <time>2018-09-14T18:15:02Z</time>
      </trkpt>
      <trkpt lat="-24.8484200" lon="-53.7207470">
        <ele>610.5</ele>
        <time>2018-09-14T18:15:03Z</time>
      </trkpt>
      <trkpt lat="-24.8484410" lon="-53.7207250">
        <ele>611.1</ele>
        <time>2018-09-14T18:15:04Z</time>
      </trkpt>
      <trkpt lat="-24.8484610" lon="-53.7207020">
        <ele>611.1</ele>
        <time>2018-09-14T18:15:05Z</time>
      </trkpt>
      <trkpt lat="-24.8484790" lon="-53.7206770">
        <ele>611.5</ele>
        <time>2018-09-14T18:15:06Z</time>
      </trkpt>
      <trkpt lat="-24.8484960" lon="-53.7206520">
        <ele>611.9</ele>
        <time>2018-09-14T18:15:07Z</time>
      </trkpt>
      <trkpt lat="-24.8485290" lon="-53.7206050">
        <ele>612.0</ele>
        <time>2018-09-14T18:15:08Z</time>
      </trkpt>
      <trkpt lat="-24.8485650" lon="-53.7205550">
        <ele>611.9</ele>
        <time>2018-09-14T18:15:10Z</time>
      </trkpt>
      <trkpt lat="-24.8485790" lon="-53.7205330">
        <ele>611.9</ele>
        <time>2018-09-14T18:15:11Z</time>
      </trkpt>
      <trkpt lat="-24.8485890" lon="-53.7205150">
        <ele>612.2</ele>
        <time>2018-09-14T18:15:12Z</time>
      </trkpt>
      <trkpt lat="-24.8485990" lon="-53.7204960">
        <ele>611.8</ele>
        <time>2018-09-14T18:15:13Z</time>
      </trkpt>
      <trkpt lat="-24.8486150" lon="-53.7204760">
        <ele>612.3</ele>
        <time>2018-09-14T18:15:14Z</time>
      </trkpt>
      <trkpt lat="-24.8486330" lon="-53.7204520">
        <ele>612.0</ele>
        <time>2018-09-14T18:15:15Z</time>
      </trkpt>
      <trkpt lat="-24.8486440" lon="-53.7204260">
        <ele>612.6</ele>
        <time>2018-09-14T18:15:16Z</time>
      </trkpt>
      <trkpt lat="-24.8486530" lon="-53.7203980">
        <ele>612.6</ele>
        <time>2018-09-14T18:15:17Z</time>
      </trkpt>
      <trkpt lat="-24.8486580" lon="-53.7203720">
        <ele>613.2</ele>
        <time>2018-09-14T18:15:18Z</time>
      </trkpt>
      <trkpt lat="-24.8486630" lon="-53.7203450">
        <ele>613.6</ele>
        <time>2018-09-14T18:15:19Z</time>
      </trkpt>
      <trkpt lat="-24.8486740" lon="-53.7203180">
        <ele>613.4</ele>
        <time>2018-09-14T18:15:20Z</time>
      </trkpt>
      <trkpt lat="-24.8486880" lon="-53.7202920">
        <ele>613.7</ele>
        <time>2018-09-14T18:15:21Z</time>
      </trkpt>
      <trkpt lat="-24.8487000" lon="-53.7202650">
        <ele>613.7</ele>
        <time>2018-09-14T18:15:22Z</time>
      </trkpt>
      <trkpt lat="-24.8487110" lon="-53.7202370">
        <ele>613.6</ele>
        <time>2018-09-14T18:15:23Z</time>
      </trkpt>
      <trkpt lat="-24.8487270" lon="-53.7202100">
        <ele>613.6</ele>
        <time>2018-09-14T18:15:24Z</time>
      </trkpt>
      <trkpt lat="-24.8487440" lon="-53.7201820">
        <ele>613.7</ele>
        <time>2018-09-14T18:15:25Z</time>
      </trkpt>
      <trkpt lat="-24.8487610" lon="-53.7201580">
        <ele>613.7</ele>
        <time>2018-09-14T18:15:26Z</time>
      </trkpt>
      <trkpt lat="-24.8487730" lon="-53.7201400">
        <ele>613.8</ele>
        <time>2018-09-14T18:15:27Z</time>
      </trkpt>
      <trkpt lat="-24.8487830" lon="-53.7201250">
        <ele>613.9</ele>
        <time>2018-09-14T18:15:28Z</time>
      </trkpt>
      <trkpt lat="-24.8488100" lon="-53.7200950">
        <ele>614.1</ele>
        <time>2018-09-14T18:15:30Z</time>
      </trkpt>
      <trkpt lat="-24.8488270" lon="-53.7200750">
        <ele>614.1</ele>
        <time>2018-09-14T18:15:31Z</time>
      </trkpt>
      <trkpt lat="-24.8488440" lon="-53.7200530">
        <ele>614.4</ele>
        <time>2018-09-14T18:15:32Z</time>
      </trkpt>
      <trkpt lat="-24.8488610" lon="-53.7200300">
        <ele>614.4</ele>
        <time>2018-09-14T18:15:33Z</time>
      </trkpt>
      <trkpt lat="-24.8488810" lon="-53.7200050">
        <ele>615.1</ele>
        <time>2018-09-14T18:15:34Z</time>
      </trkpt>
      <trkpt lat="-24.8489010" lon="-53.7199780">
        <ele>615.1</ele>
        <time>2018-09-14T18:15:35Z</time>
      </trkpt>
      <trkpt lat="-24.8489190" lon="-53.7199500">
        <ele>615.7</ele>
        <time>2018-09-14T18:15:36Z</time>
      </trkpt>
      <trkpt lat="-24.8489380" lon="-53.7199210">
        <ele>616.0</ele>
        <time>2018-09-14T18:15:37Z</time>
      </trkpt>
      <trkpt lat="-24.8489610" lon="-53.7198920">
        <ele>616.1</ele>
        <time>2018-09-14T18:15:38Z</time>
      </trkpt>
      <trkpt lat="-24.8489830" lon="-53.7198630">
        <ele>616.4</ele>
        <time>2018-09-14T18:15:39Z</time>
      </trkpt>
      <trkpt lat="-24.8490000" lon="-53.7198330">
        <ele>616.7</ele>
        <time>2018-09-14T18:15:40Z</time>
      </trkpt>
      <trkpt lat="-24.8490160" lon="-53.7198080">
        <ele>616.7</ele>
        <time>2018-09-14T18:15:41Z</time>
      </trkpt>
      <trkpt lat="-24.8490290" lon="-53.7197880">
        <ele>617.5</ele>
        <time>2018-09-14T18:15:42Z</time>
      </trkpt>
      <trkpt lat="-24.8490350" lon="-53.7197710">
        <ele>617.5</ele>
        <time>2018-09-14T18:15:43Z</time>
      </trkpt>
      <trkpt lat="-24.8490450" lon="-53.7197560">
        <ele>617.5</ele>
        <time>2018-09-14T18:15:44Z</time>
      </trkpt>
      <trkpt lat="-24.8490550" lon="-53.7197370">
        <ele>618.2</ele>
        <time>2018-09-14T18:15:45Z</time>
      </trkpt>
      <trkpt lat="-24.8490680" lon="-53.7197160">
        <ele>618.4</ele>
        <time>2018-09-14T18:15:46Z</time>
      </trkpt>
      <trkpt lat="-24.8490850" lon="-53.7196950">
        <ele>619.1</ele>
        <time>2018-09-14T18:15:47Z</time>
      </trkpt>
      <trkpt lat="-24.8491040" lon="-53.7196740">
        <ele>619.2</ele>
        <time>2018-09-14T18:15:48Z</time>
      </trkpt>
      <trkpt lat="-24.8491210" lon="-53.7196500">
        <ele>619.7</ele>
        <time>2018-09-14T18:15:49Z</time>
      </trkpt>
      <trkpt lat="-24.8491360" lon="-53.7196250">
        <ele>620.1</ele>
        <time>2018-09-14T18:15:50Z</time>
      </trkpt>
      <trkpt lat="-24.8491510" lon="-53.7195990">
        <ele>620.1</ele>
        <time>2018-09-14T18:15:51Z</time>
      </trkpt>
      <trkpt lat="-24.8491690" lon="-53.7195730">
        <ele>620.4</ele>
        <time>2018-09-14T18:15:52Z</time>
      </trkpt>
      <trkpt lat="-24.8491870" lon="-53.7195480">
        <ele>620.4</ele>
        <time>2018-09-14T18:15:53Z</time>
      </trkpt>
      <trkpt lat="-24.8492080" lon="-53.7195220">
        <ele>620.7</ele>
        <time>2018-09-14T18:15:54Z</time>
      </trkpt>
      <trkpt lat="-24.8492280" lon="-53.7194980">
        <ele>620.8</ele>
        <time>2018-09-14T18:15:55Z</time>
      </trkpt>
      <trkpt lat="-24.8492450" lon="-53.7194770">
        <ele>621.0</ele>
        <time>2018-09-14T18:15:56Z</time>
      </trkpt>
      <trkpt lat="-24.8492620" lon="-53.7194570">
        <ele>620.9</ele>
        <time>2018-09-14T18:15:57Z</time>
      </trkpt>
      <trkpt lat="-24.8492720" lon="-53.7194370">
        <ele>621.0</ele>
        <time>2018-09-14T18:15:58Z</time>
      </trkpt>
      <trkpt lat="-24.8492810" lon="-53.7194160">
        <ele>621.0</ele>
        <time>2018-09-14T18:15:59Z</time>
      </trkpt>
      <trkpt lat="-24.8492940" lon="-53.7193930">
        <ele>620.9</ele>
        <time>2018-09-14T18:16:00Z</time>
      </trkpt>
      <trkpt lat="-24.8493110" lon="-53.7193650">
        <ele>620.9</ele>
        <time>2018-09-14T18:16:01Z</time>
      </trkpt>
      <trkpt lat="-24.8493300" lon="-53.7193360">
        <ele>620.9</ele>
        <time>2018-09-14T18:16:02Z</time>
      </trkpt>
      <trkpt lat="-24.8493500" lon="-53.7193060">
        <ele>621.0</ele>
        <time>2018-09-14T18:16:03Z</time>
      </trkpt>
      <trkpt lat="-24.8493710" lon="-53.7192770">
        <ele>621.1</ele>
        <time>2018-09-14T18:16:04Z</time>
      </trkpt>
      <trkpt lat="-24.8493930" lon="-53.7192460">
        <ele>621.1</ele>
        <time>2018-09-14T18:16:05Z</time>
      </trkpt>
      <trkpt lat="-24.8494190" lon="-53.7192130">
        <ele>621.2</ele>
        <time>2018-09-14T18:16:06Z</time>
      </trkpt>
      <trkpt lat="-24.8494440" lon="-53.7191800">
        <ele>621.2</ele>
        <time>2018-09-14T18:16:07Z</time>
      </trkpt>
      <trkpt lat="-24.8494710" lon="-53.7191490">
        <ele>620.9</ele>
        <time>2018-09-14T18:16:08Z</time>
      </trkpt>
      <trkpt lat="-24.8494920" lon="-53.7191150">
        <ele>620.6</ele>
        <time>2018-09-14T18:16:09Z</time>
      </trkpt>
      <trkpt lat="-24.8495150" lon="-53.7190830">
        <ele>620.6</ele>
        <time>2018-09-14T18:16:10Z</time>
      </trkpt>
      <trkpt lat="-24.8495360" lon="-53.7190570">
        <ele>620.4</ele>
        <time>2018-09-14T18:16:11Z</time>
      </trkpt>
      <trkpt lat="-24.8495500" lon="-53.7190340">
        <ele>620.4</ele>
        <time>2018-09-14T18:16:12Z</time>
      </trkpt>
      <trkpt lat="-24.8495640" lon="-53.7190120">
        <ele>620.2</ele>
        <time>2018-09-14T18:16:13Z</time>
      </trkpt>
      <trkpt lat="-24.8495810" lon="-53.7189880">
        <ele>620.2</ele>
        <time>2018-09-14T18:16:14Z</time>
      </trkpt>
      <trkpt lat="-24.8496010" lon="-53.7189610">
        <ele>620.2</ele>
        <time>2018-09-14T18:16:15Z</time>
      </trkpt>
      <trkpt lat="-24.8496200" lon="-53.7189310">
        <ele>619.9</ele>
        <time>2018-09-14T18:16:16Z</time>
      </trkpt>
      <trkpt lat="-24.8496400" lon="-53.7189000">
        <ele>620.0</ele>
        <time>2018-09-14T18:16:17Z</time>
      </trkpt>
      <trkpt lat="-24.8496600" lon="-53.7188680">
        <ele>619.8</ele>
        <time>2018-09-14T18:16:18Z</time>
      </trkpt>
      <trkpt lat="-24.8496800" lon="-53.7188350">
        <ele>619.8</ele>
        <time>2018-09-14T18:16:19Z</time>
      </trkpt>
      <trkpt lat="-24.8497010" lon="-53.7188020">
        <ele>619.5</ele>
        <time>2018-09-14T18:16:20Z</time>
      </trkpt>
      <trkpt lat="-24.8497220" lon="-53.7187680">
        <ele>619.2</ele>
        <time>2018-09-14T18:16:21Z</time>
      </trkpt>
      <trkpt lat="-24.8497440" lon="-53.7187330">
        <ele>619.2</ele>
        <time>2018-09-14T18:16:22Z</time>
      </trkpt>
      <trkpt lat="-24.8497660" lon="-53.7186980">
        <ele>619.0</ele>
        <time>2018-09-14T18:16:23Z</time>
      </trkpt>
      <trkpt lat="-24.8497880" lon="-53.7186640">
        <ele>619.0</ele>
        <time>2018-09-14T18:16:24Z</time>
      </trkpt>
      <trkpt lat="-24.8498110" lon="-53.7186290">
        <ele>619.1</ele>
        <time>2018-09-14T18:16:25Z</time>
      </trkpt>
      <trkpt lat="-24.8498340" lon="-53.7185940">
        <ele>619.3</ele>
        <time>2018-09-14T18:16:26Z</time>
      </trkpt>
      <trkpt lat="-24.8498550" lon="-53.7185590">
        <ele>619.3</ele>
        <time>2018-09-14T18:16:27Z</time>
      </trkpt>
      <trkpt lat="-24.8498780" lon="-53.7185230">
        <ele>619.3</ele>
        <time>2018-09-14T18:16:28Z</time>
      </trkpt>
      <trkpt lat="-24.8499020" lon="-53.7184870">
        <ele>619.3</ele>
        <time>2018-09-14T18:16:29Z</time>
      </trkpt>
      <trkpt lat="-24.8499240" lon="-53.7184520">
        <ele>619.1</ele>
        <time>2018-09-14T18:16:30Z</time>
      </trkpt>
      <trkpt lat="-24.8499500" lon="-53.7184210">
        <ele>619.1</ele>
        <time>2018-09-14T18:16:31Z</time>
      </trkpt>
      <trkpt lat="-24.8499750" lon="-53.7183890">
        <ele>619.0</ele>
        <time>2018-09-14T18:16:32Z</time>
      </trkpt>
      <trkpt lat="-24.8500010" lon="-53.7183560">
        <ele>619.0</ele>
        <time>2018-09-14T18:16:33Z</time>
      </trkpt>
      <trkpt lat="-24.8500200" lon="-53.7183260">
        <ele>619.0</ele>
        <time>2018-09-14T18:16:34Z</time>
      </trkpt>
      <trkpt lat="-24.8500400" lon="-53.7182960">
        <ele>619.1</ele>
        <time>2018-09-14T18:16:35Z</time>
      </trkpt>
      <trkpt lat="-24.8500640" lon="-53.7182650">
        <ele>619.1</ele>
        <time>2018-09-14T18:16:36Z</time>
      </trkpt>
      <trkpt lat="-24.8500870" lon="-53.7182330">
        <ele>619.4</ele>
        <time>2018-09-14T18:16:37Z</time>
      </trkpt>
      <trkpt lat="-24.8501090" lon="-53.7182020">
        <ele>619.4</ele>
        <time>2018-09-14T18:16:38Z</time>
      </trkpt>
      <trkpt lat="-24.8501290" lon="-53.7181720">
        <ele>619.6</ele>
        <time>2018-09-14T18:16:39Z</time>
      </trkpt>
      <trkpt lat="-24.8501480" lon="-53.7181430">
        <ele>619.5</ele>
        <time>2018-09-14T18:16:40Z</time>
      </trkpt>
      <trkpt lat="-24.8501650" lon="-53.7181130">
        <ele>619.4</ele>
        <time>2018-09-14T18:16:41Z</time>
      </trkpt>
      <trkpt lat="-24.8501860" lon="-53.7180860">
        <ele>619.4</ele>
        <time>2018-09-14T18:16:42Z</time>
      </trkpt>
      <trkpt lat="-24.8502080" lon="-53.7180560">
        <ele>619.2</ele>
        <time>2018-09-14T18:16:43Z</time>
      </trkpt>
      <trkpt lat="-24.8502270" lon="-53.7180250">
        <ele>618.9</ele>
        <time>2018-09-14T18:16:44Z</time>
      </trkpt>
      <trkpt lat="-24.8502450" lon="-53.7179920">
        <ele>618.7</ele>
        <time>2018-09-14T18:16:45Z</time>
      </trkpt>
      <trkpt lat="-24.8502600" lon="-53.7179590">
        <ele>618.7</ele>
        <time>2018-09-14T18:16:46Z</time>
      </trkpt>
      <trkpt lat="-24.8502750" lon="-53.7179250">
        <ele>618.7</ele>
        <time>2018-09-14T18:16:47Z</time>
      </trkpt>
      <trkpt lat="-24.8502930" lon="-53.7178920">
        <ele>618.5</ele>
        <time>2018-09-14T18:16:48Z</time>
      </trkpt>
      <trkpt lat="-24.8503120" lon="-53.7178620">
        <ele>618.8</ele>
        <time>2018-09-14T18:16:49Z</time>
      </trkpt>
      <trkpt lat="-24.8503300" lon="-53.7178290">
        <ele>618.8</ele>
        <time>2018-09-14T18:16:50Z</time>
      </trkpt>
      <trkpt lat="-24.8503510" lon="-53.7178000">
        <ele>619.3</ele>
        <time>2018-09-14T18:16:51Z</time>
      </trkpt>
      <trkpt lat="-24.8503720" lon="-53.7177700">
        <ele>619.2</ele>
        <time>2018-09-14T18:16:52Z</time>
      </trkpt>
      <trkpt lat="-24.8503920" lon="-53.7177390">
        <ele>619.6</ele>
        <time>2018-09-14T18:16:53Z</time>
      </trkpt>
      <trkpt lat="-24.8504120" lon="-53.7177070">
        <ele>619.5</ele>
        <time>2018-09-14T18:16:54Z</time>
      </trkpt>
      <trkpt lat="-24.8504320" lon="-53.7176750">
        <ele>619.5</ele>
        <time>2018-09-14T18:16:55Z</time>
      </trkpt>
      <trkpt lat="-24.8504510" lon="-53.7176410">
        <ele>619.2</ele>
        <time>2018-09-14T18:16:56Z</time>
      </trkpt>
      <trkpt lat="-24.8504720" lon="-53.7176060">
        <ele>619.1</ele>
        <time>2018-09-14T18:16:57Z</time>
      </trkpt>
      <trkpt lat="-24.8504940" lon="-53.7175700">
        <ele>619.1</ele>
        <time>2018-09-14T18:16:58Z</time>
      </trkpt>
      <trkpt lat="-24.8505180" lon="-53.7175340">
        <ele>619.1</ele>
        <time>2018-09-14T18:16:59Z</time>
      </trkpt>
      <trkpt lat="-24.8505430" lon="-53.7174990">
        <ele>619.2</ele>
        <time>2018-09-14T18:17:00Z</time>
      </trkpt>
      <trkpt lat="-24.8505660" lon="-53.7174630">
        <ele>618.9</ele>
        <time>2018-09-14T18:17:01Z</time>
      </trkpt>
      <trkpt lat="-24.8505880" lon="-53.7174270">
        <ele>619.2</ele>
        <time>2018-09-14T18:17:02Z</time>
      </trkpt>
      <trkpt lat="-24.8506090" lon="-53.7173910">
        <ele>619.1</ele>
        <time>2018-09-14T18:17:03Z</time>
      </trkpt>
      <trkpt lat="-24.8506310" lon="-53.7173560">
        <ele>619.6</ele>
        <time>2018-09-14T18:17:04Z</time>
      </trkpt>
      <trkpt lat="-24.8506550" lon="-53.7173230">
        <ele>619.9</ele>
        <time>2018-09-14T18:17:05Z</time>
      </trkpt>
      <trkpt lat="-24.8506780" lon="-53.7172890">
        <ele>619.8</ele>
        <time>2018-09-14T18:17:06Z</time>
      </trkpt>
      <trkpt lat="-24.8507020" lon="-53.7172570">
        <ele>619.8</ele>
        <time>2018-09-14T18:17:07Z</time>
      </trkpt>
      <trkpt lat="-24.8507260" lon="-53.7172260">
        <ele>619.8</ele>
        <time>2018-09-14T18:17:08Z</time>
      </trkpt>
      <trkpt lat="-24.8507490" lon="-53.7171950">
        <ele>619.6</ele>
        <time>2018-09-14T18:17:09Z</time>
      </trkpt>
      <trkpt lat="-24.8507710" lon="-53.7171630">
        <ele>619.0</ele>
        <time>2018-09-14T18:17:10Z</time>
      </trkpt>
      <trkpt lat="-24.8507930" lon="-53.7171330">
        <ele>618.7</ele>
        <time>2018-09-14T18:17:11Z</time>
      </trkpt>
      <trkpt lat="-24.8508160" lon="-53.7171020">
        <ele>619.0</ele>
        <time>2018-09-14T18:17:12Z</time>
      </trkpt>
      <trkpt lat="-24.8508390" lon="-53.7170710">
        <ele>618.6</ele>
        <time>2018-09-14T18:17:13Z</time>
      </trkpt>
      <trkpt lat="-24.8508390" lon="-53.7170710">
        <ele>618.6</ele>
        <time>2018-09-14T18:17:14Z</time>
      </trkpt>
      <trkpt lat="-24.8508830" lon="-53.7170050">
        <ele>618.2</ele>
        <time>2018-09-14T18:17:15Z</time>
      </trkpt>
      <trkpt lat="-24.8509060" lon="-53.7169680">
        <ele>618.5</ele>
        <time>2018-09-14T18:17:16Z</time>
      </trkpt>
      <trkpt lat="-24.8509340" lon="-53.7169260">
        <ele>618.5</ele>
        <time>2018-09-14T18:17:17Z</time>
      </trkpt>
      <trkpt lat="-24.8509640" lon="-53.7168820">
        <ele>618.3</ele>
        <time>2018-09-14T18:17:18Z</time>
      </trkpt>
      <trkpt lat="-24.8509960" lon="-53.7168400">
        <ele>618.3</ele>
        <time>2018-09-14T18:17:19Z</time>
      </trkpt>
      <trkpt lat="-24.8509960" lon="-53.7168400">
        <ele>618.3</ele>
        <time>2018-09-14T18:17:20Z</time>
      </trkpt>
      <trkpt lat="-24.8510260" lon="-53.7168000">
        <ele>618.3</ele>
        <time>2018-09-14T18:17:21Z</time>
      </trkpt>
      <trkpt lat="-24.8510570" lon="-53.7167600">
        <ele>618.1</ele>
        <time>2018-09-14T18:17:22Z</time>
      </trkpt>
      <trkpt lat="-24.8510860" lon="-53.7167210">
        <ele>617.8</ele>
        <time>2018-09-14T18:17:23Z</time>
      </trkpt>
      <trkpt lat="-24.8511140" lon="-53.7166810">
        <ele>617.5</ele>
        <time>2018-09-14T18:17:24Z</time>
      </trkpt>
      <trkpt lat="-24.8511400" lon="-53.7166430">
        <ele>617.3</ele>
        <time>2018-09-14T18:17:25Z</time>
      </trkpt>
      <trkpt lat="-24.8511640" lon="-53.7166050">
        <ele>616.9</ele>
        <time>2018-09-14T18:17:26Z</time>
      </trkpt>
      <trkpt lat="-24.8511890" lon="-53.7165620">
        <ele>616.7</ele>
        <time>2018-09-14T18:17:27Z</time>
      </trkpt>
      <trkpt lat="-24.8512180" lon="-53.7165140">
        <ele>616.0</ele>
        <time>2018-09-14T18:17:28Z</time>
      </trkpt>
      <trkpt lat="-24.8512520" lon="-53.7164650">
        <ele>615.4</ele>
        <time>2018-09-14T18:17:29Z</time>
      </trkpt>
      <trkpt lat="-24.8512860" lon="-53.7164160">
        <ele>615.0</ele>
        <time>2018-09-14T18:17:30Z</time>
      </trkpt>
      <trkpt lat="-24.8513180" lon="-53.7163680">
        <ele>614.7</ele>
        <time>2018-09-14T18:17:31Z</time>
      </trkpt>
      <trkpt lat="-24.8513480" lon="-53.7163220">
        <ele>614.5</ele>
        <time>2018-09-14T18:17:32Z</time>
      </trkpt>
      <trkpt lat="-24.8513820" lon="-53.7162770">
        <ele>614.1</ele>
        <time>2018-09-14T18:17:33Z</time>
      </trkpt>
      <trkpt lat="-24.8514190" lon="-53.7162250">
        <ele>614.2</ele>
        <time>2018-09-14T18:17:34Z</time>
      </trkpt>
      <trkpt lat="-24.8514580" lon="-53.7161690">
        <ele>614.5</ele>
        <time>2018-09-14T18:17:35Z</time>
      </trkpt>
      <trkpt lat="-24.8514970" lon="-53.7161130">
        <ele>614.9</ele>
        <time>2018-09-14T18:17:36Z</time>
      </trkpt>
      <trkpt lat="-24.8515350" lon="-53.7160600">
        <ele>615.2</ele>
        <time>2018-09-14T18:17:37Z</time>
      </trkpt>
      <trkpt lat="-24.8515710" lon="-53.7160060">
        <ele>615.4</ele>
        <time>2018-09-14T18:17:38Z</time>
      </trkpt>
      <trkpt lat="-24.8516100" lon="-53.7159470">
        <ele>615.4</ele>
        <time>2018-09-14T18:17:39Z</time>
      </trkpt>
      <trkpt lat="-24.8516500" lon="-53.7158850">
        <ele>615.0</ele>
        <time>2018-09-14T18:17:40Z</time>
      </trkpt>
      <trkpt lat="-24.8516890" lon="-53.7158240">
        <ele>614.6</ele>
        <time>2018-09-14T18:17:41Z</time>
      </trkpt>
      <trkpt lat="-24.8517300" lon="-53.7157620">
        <ele>613.9</ele>
        <time>2018-09-14T18:17:42Z</time>
      </trkpt>
      <trkpt lat="-24.8517770" lon="-53.7156970">
        <ele>613.8</ele>
        <time>2018-09-14T18:17:43Z</time>
      </trkpt>
      <trkpt lat="-24.8518260" lon="-53.7156320">
        <ele>613.2</ele>
        <time>2018-09-14T18:17:44Z</time>
      </trkpt>
      <trkpt lat="-24.8518700" lon="-53.7155690">
        <ele>612.3</ele>
        <time>2018-09-14T18:17:45Z</time>
      </trkpt>
      <trkpt lat="-24.8519180" lon="-53.7155010">
        <ele>610.7</ele>
        <time>2018-09-14T18:17:46Z</time>
      </trkpt>
      <trkpt lat="-24.8519650" lon="-53.7154310">
        <ele>610.2</ele>
        <time>2018-09-14T18:17:47Z</time>
      </trkpt>
      <trkpt lat="-24.8520120" lon="-53.7153610">
        <ele>609.6</ele>
        <time>2018-09-14T18:17:48Z</time>
      </trkpt>
      <trkpt lat="-24.8520570" lon="-53.7152930">
        <ele>608.7</ele>
        <time>2018-09-14T18:17:49Z</time>
      </trkpt>
      <trkpt lat="-24.8521070" lon="-53.7152200">
        <ele>608.1</ele>
        <time>2018-09-14T18:17:50Z</time>
      </trkpt>
      <trkpt lat="-24.8521590" lon="-53.7151470">
        <ele>607.7</ele>
        <time>2018-09-14T18:17:51Z</time>
      </trkpt>
      <trkpt lat="-24.8522100" lon="-53.7150750">
        <ele>607.3</ele>
        <time>2018-09-14T18:17:52Z</time>
      </trkpt>
      <trkpt lat="-24.8522630" lon="-53.7150050">
        <ele>607.1</ele>
        <time>2018-09-14T18:17:53Z</time>
      </trkpt>
      <trkpt lat="-24.8523140" lon="-53.7149370">
        <ele>606.1</ele>
        <time>2018-09-14T18:17:54Z</time>
      </trkpt>
      <trkpt lat="-24.8523700" lon="-53.7148710">
        <ele>605.5</ele>
        <time>2018-09-14T18:17:55Z</time>
      </trkpt>
      <trkpt lat="-24.8524260" lon="-53.7148060">
        <ele>604.8</ele>
        <time>2018-09-14T18:17:56Z</time>
      </trkpt>
      <trkpt lat="-24.8524810" lon="-53.7147420">
        <ele>604.9</ele>
        <time>2018-09-14T18:17:57Z</time>
      </trkpt>
      <trkpt lat="-24.8525310" lon="-53.7146730">
        <ele>604.9</ele>
        <time>2018-09-14T18:17:58Z</time>
      </trkpt>
      <trkpt lat="-24.8525780" lon="-53.7145980">
        <ele>604.8</ele>
        <time>2018-09-14T18:17:59Z</time>
      </trkpt>
      <trkpt lat="-24.8526240" lon="-53.7145230">
        <ele>605.1</ele>
        <time>2018-09-14T18:18:00Z</time>
      </trkpt>
      <trkpt lat="-24.8526710" lon="-53.7144500">
        <ele>605.5</ele>
        <time>2018-09-14T18:18:01Z</time>
      </trkpt>
      <trkpt lat="-24.8527190" lon="-53.7143800">
        <ele>605.3</ele>
        <time>2018-09-14T18:18:02Z</time>
      </trkpt>
      <trkpt lat="-24.8527660" lon="-53.7143110">
        <ele>605.2</ele>
        <time>2018-09-14T18:18:03Z</time>
      </trkpt>
      <trkpt lat="-24.8528120" lon="-53.7142440">
        <ele>605.4</ele>
        <time>2018-09-14T18:18:04Z</time>
      </trkpt>
      <trkpt lat="-24.8528550" lon="-53.7141770">
        <ele>605.8</ele>
        <time>2018-09-14T18:18:05Z</time>
      </trkpt>
      <trkpt lat="-24.8528950" lon="-53.7141120">
        <ele>605.9</ele>
        <time>2018-09-14T18:18:06Z</time>
      </trkpt>
      <trkpt lat="-24.8529330" lon="-53.7140520">
        <ele>605.9</ele>
        <time>2018-09-14T18:18:07Z</time>
      </trkpt>
      <trkpt lat="-24.8529690" lon="-53.7139980">
        <ele>605.6</ele>
        <time>2018-09-14T18:18:08Z</time>
      </trkpt>
      <trkpt lat="-24.8530050" lon="-53.7139470">
        <ele>605.7</ele>
        <time>2018-09-14T18:18:09Z</time>
      </trkpt>
      <trkpt lat="-24.8530420" lon="-53.7139010">
        <ele>605.9</ele>
        <time>2018-09-14T18:18:10Z</time>
      </trkpt>
      <trkpt lat="-24.8530770" lon="-53.7138560">
        <ele>606.1</ele>
        <time>2018-09-14T18:18:11Z</time>
      </trkpt>
      <trkpt lat="-24.8531090" lon="-53.7138070">
        <ele>606.4</ele>
        <time>2018-09-14T18:18:12Z</time>
      </trkpt>
      <trkpt lat="-24.8531420" lon="-53.7137580">
        <ele>606.5</ele>
        <time>2018-09-14T18:18:13Z</time>
      </trkpt>
      <trkpt lat="-24.8531760" lon="-53.7137090">
        <ele>606.9</ele>
        <time>2018-09-14T18:18:14Z</time>
      </trkpt>
      <trkpt lat="-24.8532090" lon="-53.7136600">
        <ele>607.1</ele>
        <time>2018-09-14T18:18:15Z</time>
      </trkpt>
      <trkpt lat="-24.8532420" lon="-53.7136110">
        <ele>607.0</ele>
        <time>2018-09-14T18:18:16Z</time>
      </trkpt>
      <trkpt lat="-24.8532750" lon="-53.7135610">
        <ele>606.8</ele>
        <time>2018-09-14T18:18:17Z</time>
      </trkpt>
      <trkpt lat="-24.8533060" lon="-53.7135090">
        <ele>606.8</ele>
        <time>2018-09-14T18:18:18Z</time>
      </trkpt>
      <trkpt lat="-24.8533360" lon="-53.7134570">
        <ele>606.8</ele>
        <time>2018-09-14T18:18:19Z</time>
      </trkpt>
      <trkpt lat="-24.8533670" lon="-53.7134080">
        <ele>607.1</ele>
        <time>2018-09-14T18:18:20Z</time>
      </trkpt>
      <trkpt lat="-24.8533970" lon="-53.7133600">
        <ele>607.6</ele>
        <time>2018-09-14T18:18:21Z</time>
      </trkpt>
      <trkpt lat="-24.8534270" lon="-53.7133140">
        <ele>607.8</ele>
        <time>2018-09-14T18:18:22Z</time>
      </trkpt>
      <trkpt lat="-24.8534550" lon="-53.7132690">
        <ele>607.7</ele>
        <time>2018-09-14T18:18:23Z</time>
      </trkpt>
      <trkpt lat="-24.8534820" lon="-53.7132240">
        <ele>607.6</ele>
        <time>2018-09-14T18:18:24Z</time>
      </trkpt>
      <trkpt lat="-24.8535100" lon="-53.7131790">
        <ele>607.5</ele>
        <time>2018-09-14T18:18:25Z</time>
      </trkpt>
      <trkpt lat="-24.8535370" lon="-53.7131370">
        <ele>607.4</ele>
        <time>2018-09-14T18:18:26Z</time>
      </trkpt>
      <trkpt lat="-24.8535640" lon="-53.7130960">
        <ele>607.3</ele>
        <time>2018-09-14T18:18:27Z</time>
      </trkpt>
      <trkpt lat="-24.8535900" lon="-53.7130550">
        <ele>607.5</ele>
        <time>2018-09-14T18:18:28Z</time>
      </trkpt>
      <trkpt lat="-24.8536170" lon="-53.7130140">
        <ele>607.8</ele>
        <time>2018-09-14T18:18:29Z</time>
      </trkpt>
      <trkpt lat="-24.8536440" lon="-53.7129760">
        <ele>607.8</ele>
        <time>2018-09-14T18:18:30Z</time>
      </trkpt>
      <trkpt lat="-24.8536700" lon="-53.7129380">
        <ele>608.3</ele>
        <time>2018-09-14T18:18:31Z</time>
      </trkpt>
      <trkpt lat="-24.8536940" lon="-53.7128990">
        <ele>608.8</ele>
        <time>2018-09-14T18:18:32Z</time>
      </trkpt>
      <trkpt lat="-24.8537180" lon="-53.7128620">
        <ele>608.7</ele>
        <time>2018-09-14T18:18:33Z</time>
      </trkpt>
      <trkpt lat="-24.8537410" lon="-53.7128280">
        <ele>609.1</ele>
        <time>2018-09-14T18:18:34Z</time>
      </trkpt>
      <trkpt lat="-24.8537650" lon="-53.7127970">
        <ele>608.9</ele>
        <time>2018-09-14T18:18:35Z</time>
      </trkpt>
      <trkpt lat="-24.8537860" lon="-53.7127670">
        <ele>609.2</ele>
        <time>2018-09-14T18:18:36Z</time>
      </trkpt>
      <trkpt lat="-24.8538060" lon="-53.7127390">
        <ele>608.9</ele>
        <time>2018-09-14T18:18:37Z</time>
      </trkpt>
      <trkpt lat="-24.8538230" lon="-53.7127130">
        <ele>608.8</ele>
        <time>2018-09-14T18:18:38Z</time>
      </trkpt>
      <trkpt lat="-24.8538340" lon="-53.7126870">
        <ele>608.8</ele>
        <time>2018-09-14T18:18:39Z</time>
      </trkpt>
      <trkpt lat="-24.8538390" lon="-53.7126580">
        <ele>608.5</ele>
        <time>2018-09-14T18:18:40Z</time>
      </trkpt>
      <trkpt lat="-24.8538440" lon="-53.7126270">
        <ele>608.3</ele>
        <time>2018-09-14T18:18:41Z</time>
      </trkpt>
      <trkpt lat="-24.8538480" lon="-53.7125940">
        <ele>608.4</ele>
        <time>2018-09-14T18:18:42Z</time>
      </trkpt>
      <trkpt lat="-24.8538510" lon="-53.7125600">
        <ele>608.2</ele>
        <time>2018-09-14T18:18:43Z</time>
      </trkpt>
      <trkpt lat="-24.8538460" lon="-53.7125300">
        <ele>608.1</ele>
        <time>2018-09-14T18:18:44Z</time>
      </trkpt>
      <trkpt lat="-24.8538320" lon="-53.7125050">
        <ele>608.1</ele>
        <time>2018-09-14T18:18:45Z</time>
      </trkpt>
      <trkpt lat="-24.8538110" lon="-53.7124870">
        <ele>608.2</ele>
        <time>2018-09-14T18:18:46Z</time>
      </trkpt>
      <trkpt lat="-24.8537920" lon="-53.7124780">
        <ele>608.1</ele>
        <time>2018-09-14T18:18:47Z</time>
      </trkpt>
      <trkpt lat="-24.8537830" lon="-53.7124760">
        <ele>608.1</ele>
        <time>2018-09-14T18:18:48Z</time>
      </trkpt>
      <trkpt lat="-24.8537810" lon="-53.7124760">
        <ele>608.1</ele>
        <time>2018-09-14T18:18:49Z</time>
      </trkpt>
      <trkpt lat="-24.8537800" lon="-53.7124760">
        <ele>608.2</ele>
        <time>2018-09-14T18:18:50Z</time>
      </trkpt>
      <trkpt lat="-24.8537700" lon="-53.7124800">
        <ele>608.2</ele>
        <time>2018-09-14T18:20:50Z</time>
      </trkpt>
      <trkpt lat="-24.8537690" lon="-53.7124850">
        <ele>608.2</ele>
        <time>2018-09-14T18:20:51Z</time>
      </trkpt>
      <trkpt lat="-24.8537710" lon="-53.7124900">
        <ele>608.2</ele>
        <time>2018-09-14T18:20:52Z</time>
      </trkpt>
      <trkpt lat="-24.8537750" lon="-53.7124880">
        <ele>608.2</ele>
        <time>2018-09-14T18:20:53Z</time>
      </trkpt>
      <trkpt lat="-24.8537770" lon="-53.7124870">
        <ele>608.2</ele>
        <time>2018-09-14T18:20:54Z</time>
      </trkpt>
      <trkpt lat="-24.8537810" lon="-53.7124920">
        <ele>608.2</ele>
        <time>2018-09-14T18:20:55Z</time>
      </trkpt>
      <trkpt lat="-24.8537890" lon="-53.7124970">
        <ele>608.2</ele>
        <time>2018-09-14T18:20:56Z</time>
      </trkpt>
      <trkpt lat="-24.8537970" lon="-53.7125040">
        <ele>608.2</ele>
        <time>2018-09-14T18:20:57Z</time>
      </trkpt>
      <trkpt lat="-24.8538090" lon="-53.7125110">
        <ele>608.2</ele>
        <time>2018-09-14T18:20:58Z</time>
      </trkpt>
      <trkpt lat="-24.8538260" lon="-53.7125180">
        <ele>608.2</ele>
        <time>2018-09-14T18:20:59Z</time>
      </trkpt>
      <trkpt lat="-24.8538480" lon="-53.7125250">
        <ele>608.3</ele>
        <time>2018-09-14T18:21:00Z</time>
      </trkpt>
      <trkpt lat="-24.8538700" lon="-53.7125330">
        <ele>608.3</ele>
        <time>2018-09-14T18:21:01Z</time>
      </trkpt>
      <trkpt lat="-24.8538990" lon="-53.7125450">
        <ele>608.4</ele>
        <time>2018-09-14T18:21:02Z</time>
      </trkpt>
      <trkpt lat="-24.8539290" lon="-53.7125590">
        <ele>608.4</ele>
        <time>2018-09-14T18:21:03Z</time>
      </trkpt>
      <trkpt lat="-24.8539540" lon="-53.7125710">
        <ele>608.4</ele>
        <time>2018-09-14T18:21:04Z</time>
      </trkpt>
      <trkpt lat="-24.8539780" lon="-53.7125810">
        <ele>608.2</ele>
        <time>2018-09-14T18:21:05Z</time>
      </trkpt>
      <trkpt lat="-24.8540010" lon="-53.7125900">
        <ele>608.4</ele>
        <time>2018-09-14T18:21:06Z</time>
      </trkpt>
      <trkpt lat="-24.8540230" lon="-53.7126020">
        <ele>608.2</ele>
        <time>2018-09-14T18:21:07Z</time>
      </trkpt>
      <trkpt lat="-24.8540500" lon="-53.7126140">
        <ele>607.9</ele>
        <time>2018-09-14T18:21:08Z</time>
      </trkpt>
      <trkpt lat="-24.8540790" lon="-53.7126250">
        <ele>607.9</ele>
        <time>2018-09-14T18:21:09Z</time>
      </trkpt>
      <trkpt lat="-24.8540790" lon="-53.7126250">
        <ele>607.9</ele>
        <time>2018-09-14T18:21:10Z</time>
      </trkpt>
      <trkpt lat="-24.8541080" lon="-53.7126370">
        <ele>607.9</ele>
        <time>2018-09-14T18:21:11Z</time>
      </trkpt>
      <trkpt lat="-24.8541370" lon="-53.7126510">
        <ele>607.7</ele>
        <time>2018-09-14T18:21:12Z</time>
      </trkpt>
      <trkpt lat="-24.8541680" lon="-53.7126650">
        <ele>607.6</ele>
        <time>2018-09-14T18:21:13Z</time>
      </trkpt>
      <trkpt lat="-24.8541970" lon="-53.7126770">
        <ele>607.9</ele>
        <time>2018-09-14T18:21:14Z</time>
      </trkpt>
      <trkpt lat="-24.8542210" lon="-53.7126890">
        <ele>607.9</ele>
        <time>2018-09-14T18:21:15Z</time>
      </trkpt>
      <trkpt lat="-24.8542520" lon="-53.7127010">
        <ele>608.0</ele>
        <time>2018-09-14T18:21:16Z</time>
      </trkpt>
      <trkpt lat="-24.8542860" lon="-53.7127140">
        <ele>608.2</ele>
        <time>2018-09-14T18:21:17Z</time>
      </trkpt>
      <trkpt lat="-24.8543200" lon="-53.7127270">
        <ele>608.6</ele>
        <time>2018-09-14T18:21:18Z</time>
      </trkpt>
      <trkpt lat="-24.8543510" lon="-53.7127410">
        <ele>608.6</ele>
        <time>2018-09-14T18:21:19Z</time>
      </trkpt>
      <trkpt lat="-24.8543790" lon="-53.7127520">
        <ele>608.9</ele>
        <time>2018-09-14T18:21:20Z</time>
      </trkpt>
      <trkpt lat="-24.8544050" lon="-53.7127640">
        <ele>609.6</ele>
        <time>2018-09-14T18:21:21Z</time>
      </trkpt>
      <trkpt lat="-24.8544290" lon="-53.7127730">
        <ele>609.6</ele>
        <time>2018-09-14T18:21:22Z</time>
      </trkpt>
      <trkpt lat="-24.8544500" lon="-53.7127810">
        <ele>609.9</ele>
        <time>2018-09-14T18:21:23Z</time>
      </trkpt>
      <trkpt lat="-24.8544730" lon="-53.7127890">
        <ele>610.1</ele>
        <time>2018-09-14T18:21:24Z</time>
      </trkpt>
      <trkpt lat="-24.8544960" lon="-53.7127980">
        <ele>610.1</ele>
        <time>2018-09-14T18:21:25Z</time>
      </trkpt>
      <trkpt lat="-24.8545220" lon="-53.7128100">
        <ele>610.7</ele>
        <time>2018-09-14T18:21:26Z</time>
      </trkpt>
      <trkpt lat="-24.8545500" lon="-53.7128200">
        <ele>610.7</ele>
        <time>2018-09-14T18:21:27Z</time>
      </trkpt>
      <trkpt lat="-24.8545820" lon="-53.7128310">
        <ele>610.8</ele>
        <time>2018-09-14T18:21:28Z</time>
      </trkpt>
      <trkpt lat="-24.8546140" lon="-53.7128400">
        <ele>610.9</ele>
        <time>2018-09-14T18:21:29Z</time>
      </trkpt>
      <trkpt lat="-24.8546450" lon="-53.7128500">
        <ele>611.4</ele>
        <time>2018-09-14T18:21:30Z</time>
      </trkpt>
      <trkpt lat="-24.8546760" lon="-53.7128590">
        <ele>611.8</ele>
        <time>2018-09-14T18:21:31Z</time>
      </trkpt>
      <trkpt lat="-24.8547050" lon="-53.7128680">
        <ele>612.2</ele>
        <time>2018-09-14T18:21:32Z</time>
      </trkpt>
      <trkpt lat="-24.8547340" lon="-53.7128790">
        <ele>612.2</ele>
        <time>2018-09-14T18:21:33Z</time>
      </trkpt>
      <trkpt lat="-24.8547620" lon="-53.7128900">
        <ele>612.6</ele>
        <time>2018-09-14T18:21:34Z</time>
      </trkpt>
      <trkpt lat="-24.8547900" lon="-53.7129010">
        <ele>612.6</ele>
        <time>2018-09-14T18:21:35Z</time>
      </trkpt>
      <trkpt lat="-24.8548190" lon="-53.7129090">
        <ele>612.6</ele>
        <time>2018-09-14T18:21:36Z</time>
      </trkpt>
      <trkpt lat="-24.8548480" lon="-53.7129100">
        <ele>612.6</ele>
        <time>2018-09-14T18:21:37Z</time>
      </trkpt>
      <trkpt lat="-24.8548750" lon="-53.7129060">
        <ele>612.6</ele>
        <time>2018-09-14T18:21:38Z</time>
      </trkpt>
      <trkpt lat="-24.8549000" lon="-53.7128990">
        <ele>612.6</ele>
        <time>2018-09-14T18:21:39Z</time>
      </trkpt>
      <trkpt lat="-24.8549190" lon="-53.7128800">
        <ele>612.7</ele>
        <time>2018-09-14T18:21:40Z</time>
      </trkpt>
      <trkpt lat="-24.8549260" lon="-53.7128540">
        <ele>612.7</ele>
        <time>2018-09-14T18:21:41Z</time>
      </trkpt>
      <trkpt lat="-24.8549240" lon="-53.7128280">
        <ele>612.8</ele>
        <time>2018-09-14T18:21:42Z</time>
      </trkpt>
      <trkpt lat="-24.8549230" lon="-53.7128070">
        <ele>612.8</ele>
        <time>2018-09-14T18:21:43Z</time>
      </trkpt>
      <trkpt lat="-24.8549210" lon="-53.7127870">
        <ele>612.8</ele>
        <time>2018-09-14T18:21:44Z</time>
      </trkpt>
      <trkpt lat="-24.8549180" lon="-53.7127670">
        <ele>612.8</ele>
        <time>2018-09-14T18:21:45Z</time>
      </trkpt>
      <trkpt lat="-24.8549160" lon="-53.7127450">
        <ele>612.7</ele>
        <time>2018-09-14T18:21:46Z</time>
      </trkpt>
      <trkpt lat="-24.8549140" lon="-53.7127220">
        <ele>612.7</ele>
        <time>2018-09-14T18:21:47Z</time>
      </trkpt>
      <trkpt lat="-24.8549120" lon="-53.7127000">
        <ele>612.5</ele>
        <time>2018-09-14T18:21:48Z</time>
      </trkpt>
      <trkpt lat="-24.8549110" lon="-53.7126770">
        <ele>612.5</ele>
        <time>2018-09-14T18:21:49Z</time>
      </trkpt>
      <trkpt lat="-24.8549110" lon="-53.7126520">
        <ele>612.3</ele>
        <time>2018-09-14T18:21:50Z</time>
      </trkpt>
      <trkpt lat="-24.8549120" lon="-53.7126250">
        <ele>612.0</ele>
        <time>2018-09-14T18:21:51Z</time>
      </trkpt>
      <trkpt lat="-24.8549140" lon="-53.7125950">
        <ele>612.0</ele>
        <time>2018-09-14T18:21:52Z</time>
      </trkpt>
      <trkpt lat="-24.8549170" lon="-53.7125620">
        <ele>611.7</ele>
        <time>2018-09-14T18:21:53Z</time>
      </trkpt>
      <trkpt lat="-24.8549230" lon="-53.7125290">
        <ele>611.4</ele>
        <time>2018-09-14T18:21:54Z</time>
      </trkpt>
      <trkpt lat="-24.8549310" lon="-53.7124940">
        <ele>611.1</ele>
        <time>2018-09-14T18:21:55Z</time>
      </trkpt>
      <trkpt lat="-24.8549400" lon="-53.7124580">
        <ele>611.2</ele>
        <time>2018-09-14T18:21:56Z</time>
      </trkpt>
      <trkpt lat="-24.8549500" lon="-53.7124210">
        <ele>611.2</ele>
        <time>2018-09-14T18:21:57Z</time>
      </trkpt>
      <trkpt lat="-24.8549600" lon="-53.7123840">
        <ele>611.0</ele>
        <time>2018-09-14T18:21:58Z</time>
      </trkpt>
      <trkpt lat="-24.8549700" lon="-53.7123470">
        <ele>610.9</ele>
        <time>2018-09-14T18:21:59Z</time>
      </trkpt>
      <trkpt lat="-24.8549800" lon="-53.7123090">
        <ele>610.9</ele>
        <time>2018-09-14T18:22:00Z</time>
      </trkpt>
      <trkpt lat="-24.8549890" lon="-53.7122710">
        <ele>610.8</ele>
        <time>2018-09-14T18:22:01Z</time>
      </trkpt>
      <trkpt lat="-24.8550000" lon="-53.7122320">
        <ele>610.7</ele>
        <time>2018-09-14T18:22:02Z</time>
      </trkpt>
      <trkpt lat="-24.8550110" lon="-53.7121960">
        <ele>610.7</ele>
        <time>2018-09-14T18:22:03Z</time>
      </trkpt>
      <trkpt lat="-24.8550220" lon="-53.7121600">
        <ele>610.7</ele>
        <time>2018-09-14T18:22:04Z</time>
      </trkpt>
      <trkpt lat="-24.8550360" lon="-53.7121220">
        <ele>610.7</ele>
        <time>2018-09-14T18:22:05Z</time>
      </trkpt>
      <trkpt lat="-24.8550500" lon="-53.7120750">
        <ele>610.8</ele>
        <time>2018-09-14T18:22:06Z</time>
      </trkpt>
      <trkpt lat="-24.8550640" lon="-53.7120240">
        <ele>610.8</ele>
        <time>2018-09-14T18:22:07Z</time>
      </trkpt>
      <trkpt lat="-24.8550760" lon="-53.7119730">
        <ele>610.8</ele>
        <time>2018-09-14T18:22:08Z</time>
      </trkpt>
      <trkpt lat="-24.8550880" lon="-53.7119210">
        <ele>610.8</ele>
        <time>2018-09-14T18:22:09Z</time>
      </trkpt>
      <trkpt lat="-24.8550990" lon="-53.7118730">
        <ele>610.8</ele>
        <time>2018-09-14T18:22:10Z</time>
      </trkpt>
      <trkpt lat="-24.8551100" lon="-53.7118250">
        <ele>610.9</ele>
        <time>2018-09-14T18:22:11Z</time>
      </trkpt>
      <trkpt lat="-24.8551230" lon="-53.7117740">
        <ele>610.9</ele>
        <time>2018-09-14T18:22:12Z</time>
      </trkpt>
      <trkpt lat="-24.8551380" lon="-53.7117150">
        <ele>610.7</ele>
        <time>2018-09-14T18:22:13Z</time>
      </trkpt>
      <trkpt lat="-24.8551550" lon="-53.7116520">
        <ele>610.5</ele>
        <time>2018-09-14T18:22:14Z</time>
      </trkpt>
      <trkpt lat="-24.8551740" lon="-53.7115880">
        <ele>609.9</ele>
        <time>2018-09-14T18:22:15Z</time>
      </trkpt>
      <trkpt lat="-24.8551930" lon="-53.7115200">
        <ele>609.5</ele>
        <time>2018-09-14T18:22:16Z</time>
      </trkpt>
      <trkpt lat="-24.8552120" lon="-53.7114500">
        <ele>608.5</ele>
        <time>2018-09-14T18:22:17Z</time>
      </trkpt>
      <trkpt lat="-24.8552330" lon="-53.7113780">
        <ele>607.6</ele>
        <time>2018-09-14T18:22:18Z</time>
      </trkpt>
      <trkpt lat="-24.8552550" lon="-53.7113050">
        <ele>607.2</ele>
        <time>2018-09-14T18:22:19Z</time>
      </trkpt>
      <trkpt lat="-24.8552770" lon="-53.7112330">
        <ele>606.6</ele>
        <time>2018-09-14T18:22:20Z</time>
      </trkpt>
      <trkpt lat="-24.8552980" lon="-53.7111620">
        <ele>605.9</ele>
        <time>2018-09-14T18:22:21Z</time>
      </trkpt>
      <trkpt lat="-24.8553170" lon="-53.7110900">
        <ele>605.6</ele>
        <time>2018-09-14T18:22:22Z</time>
      </trkpt>
      <trkpt lat="-24.8553370" lon="-53.7110110">
        <ele>604.8</ele>
        <time>2018-09-14T18:22:23Z</time>
      </trkpt>
      <trkpt lat="-24.8553570" lon="-53.7109240">
        <ele>604.2</ele>
        <time>2018-09-14T18:22:24Z</time>
      </trkpt>
      <trkpt lat="-24.8553780" lon="-53.7108330">
        <ele>603.9</ele>
        <time>2018-09-14T18:22:25Z</time>
      </trkpt>
      <trkpt lat="-24.8554030" lon="-53.7107420">
        <ele>604.0</ele>
        <time>2018-09-14T18:22:26Z</time>
      </trkpt>
      <trkpt lat="-24.8554280" lon="-53.7106560">
        <ele>603.8</ele>
        <time>2018-09-14T18:22:27Z</time>
      </trkpt>
      <trkpt lat="-24.8554510" lon="-53.7105810">
        <ele>603.8</ele>
        <time>2018-09-14T18:22:28Z</time>
      </trkpt>
      <trkpt lat="-24.8554710" lon="-53.7105170">
        <ele>603.4</ele>
        <time>2018-09-14T18:22:29Z</time>
      </trkpt>
      <trkpt lat="-24.8554910" lon="-53.7104570">
        <ele>603.4</ele>
        <time>2018-09-14T18:22:30Z</time>
      </trkpt>
      <trkpt lat="-24.8555150" lon="-53.7103950">
        <ele>602.9</ele>
        <time>2018-09-14T18:22:31Z</time>
      </trkpt>
      <trkpt lat="-24.8555460" lon="-53.7103360">
        <ele>603.1</ele>
        <time>2018-09-14T18:22:32Z</time>
      </trkpt>
      <trkpt lat="-24.8555870" lon="-53.7102880">
        <ele>603.3</ele>
        <time>2018-09-14T18:22:33Z</time>
      </trkpt>
      <trkpt lat="-24.8556310" lon="-53.7102450">
        <ele>603.6</ele>
        <time>2018-09-14T18:22:34Z</time>
      </trkpt>
      <trkpt lat="-24.8556780" lon="-53.7102100">
        <ele>603.8</ele>
        <time>2018-09-14T18:22:35Z</time>
      </trkpt>
      <trkpt lat="-24.8557260" lon="-53.7101810">
        <ele>603.9</ele>
        <time>2018-09-14T18:22:36Z</time>
      </trkpt>
      <trkpt lat="-24.8557750" lon="-53.7101550">
        <ele>604.0</ele>
        <time>2018-09-14T18:22:37Z</time>
      </trkpt>
      <trkpt lat="-24.8558240" lon="-53.7101330">
        <ele>604.1</ele>
        <time>2018-09-14T18:22:38Z</time>
      </trkpt>
      <trkpt lat="-24.8558750" lon="-53.7101140">
        <ele>604.1</ele>
        <time>2018-09-14T18:22:39Z</time>
      </trkpt>
      <trkpt lat="-24.8559240" lon="-53.7100940">
        <ele>604.2</ele>
        <time>2018-09-14T18:22:40Z</time>
      </trkpt>
      <trkpt lat="-24.8559720" lon="-53.7100730">
        <ele>604.3</ele>
        <time>2018-09-14T18:22:41Z</time>
      </trkpt>
      <trkpt lat="-24.8560220" lon="-53.7100520">
        <ele>604.3</ele>
        <time>2018-09-14T18:22:42Z</time>
      </trkpt>
      <trkpt lat="-24.8560730" lon="-53.7100330">
        <ele>604.4</ele>
        <time>2018-09-14T18:22:43Z</time>
      </trkpt>
      <trkpt lat="-24.8561260" lon="-53.7100160">
        <ele>604.4</ele>
        <time>2018-09-14T18:22:44Z</time>
      </trkpt>
      <trkpt lat="-24.8561810" lon="-53.7099990">
        <ele>604.5</ele>
        <time>2018-09-14T18:22:45Z</time>
      </trkpt>
      <trkpt lat="-24.8562350" lon="-53.7099810">
        <ele>604.5</ele>
        <time>2018-09-14T18:22:46Z</time>
      </trkpt>
      <trkpt lat="-24.8562890" lon="-53.7099610">
        <ele>604.6</ele>
        <time>2018-09-14T18:22:47Z</time>
      </trkpt>
      <trkpt lat="-24.8563410" lon="-53.7099400">
        <ele>604.6</ele>
        <time>2018-09-14T18:22:48Z</time>
      </trkpt>
      <trkpt lat="-24.8563940" lon="-53.7099200">
        <ele>604.7</ele>
        <time>2018-09-14T18:22:49Z</time>
      </trkpt>
      <trkpt lat="-24.8564440" lon="-53.7099000">
        <ele>604.7</ele>
        <time>2018-09-14T18:22:50Z</time>
      </trkpt>
      <trkpt lat="-24.8564930" lon="-53.7098790">
        <ele>604.8</ele>
        <time>2018-09-14T18:22:51Z</time>
      </trkpt>
      <trkpt lat="-24.8565410" lon="-53.7098580">
        <ele>604.8</ele>
        <time>2018-09-14T18:22:52Z</time>
      </trkpt>
      <trkpt lat="-24.8565910" lon="-53.7098380">
        <ele>604.9</ele>
        <time>2018-09-14T18:22:53Z</time>
      </trkpt>
      <trkpt lat="-24.8566900" lon="-53.7097960">
        <ele>605.2</ele>
        <time>2018-09-14T18:22:54Z</time>
      </trkpt>
      <trkpt lat="-24.8567390" lon="-53.7097730">
        <ele>605.4</ele>
        <time>2018-09-14T18:22:55Z</time>
      </trkpt>
      <trkpt lat="-24.8567870" lon="-53.7097490">
        <ele>605.6</ele>
        <time>2018-09-14T18:22:56Z</time>
      </trkpt>
      <trkpt lat="-24.8568340" lon="-53.7097250">
        <ele>605.8</ele>
        <time>2018-09-14T18:22:57Z</time>
      </trkpt>
      <trkpt lat="-24.8568810" lon="-53.7097010">
        <ele>606.0</ele>
        <time>2018-09-14T18:22:58Z</time>
      </trkpt>
      <trkpt lat="-24.8569280" lon="-53.7096760">
        <ele>606.2</ele>
        <time>2018-09-14T18:22:59Z</time>
      </trkpt>
      <trkpt lat="-24.8569740" lon="-53.7096510">
        <ele>606.4</ele>
        <time>2018-09-14T18:23:00Z</time>
      </trkpt>
      <trkpt lat="-24.8570200" lon="-53.7096270">
        <ele>606.4</ele>
        <time>2018-09-14T18:23:01Z</time>
      </trkpt>
      <trkpt lat="-24.8571100" lon="-53.7095780">
        <ele>606.5</ele>
        <time>2018-09-14T18:23:03Z</time>
      </trkpt>
      <trkpt lat="-24.8571540" lon="-53.7095530">
        <ele>606.6</ele>
        <time>2018-09-14T18:23:04Z</time>
      </trkpt>
      <trkpt lat="-24.8571960" lon="-53.7095270">
        <ele>606.6</ele>
        <time>2018-09-14T18:23:05Z</time>
      </trkpt>
      <trkpt lat="-24.8572380" lon="-53.7095020">
        <ele>606.7</ele>
        <time>2018-09-14T18:23:06Z</time>
      </trkpt>
      <trkpt lat="-24.8572800" lon="-53.7094790">
        <ele>606.7</ele>
        <time>2018-09-14T18:23:07Z</time>
      </trkpt>
      <trkpt lat="-24.8573210" lon="-53.7094570">
        <ele>606.7</ele>
        <time>2018-09-14T18:23:08Z</time>
      </trkpt>
      <trkpt lat="-24.8573620" lon="-53.7094340">
        <ele>606.7</ele>
        <time>2018-09-14T18:23:09Z</time>
      </trkpt>
      <trkpt lat="-24.8574020" lon="-53.7094110">
        <ele>606.8</ele>
        <time>2018-09-14T18:23:10Z</time>
      </trkpt>
      <trkpt lat="-24.8574420" lon="-53.7093870">
        <ele>606.8</ele>
        <time>2018-09-14T18:23:11Z</time>
      </trkpt>
      <trkpt lat="-24.8574810" lon="-53.7093620">
        <ele>606.8</ele>
        <time>2018-09-14T18:23:12Z</time>
      </trkpt>
      <trkpt lat="-24.8575210" lon="-53.7093380">
        <ele>606.8</ele>
        <time>2018-09-14T18:23:13Z</time>
      </trkpt>
      <trkpt lat="-24.8575610" lon="-53.7093150">
        <ele>606.8</ele>
        <time>2018-09-14T18:23:14Z</time>
      </trkpt>
      <trkpt lat="-24.8575990" lon="-53.7092920">
        <ele>606.8</ele>
        <time>2018-09-14T18:23:15Z</time>
      </trkpt>
      <trkpt lat="-24.8576380" lon="-53.7092670">
        <ele>606.9</ele>
        <time>2018-09-14T18:23:16Z</time>
      </trkpt>
      <trkpt lat="-24.8576770" lon="-53.7092420">
        <ele>606.9</ele>
        <time>2018-09-14T18:23:17Z</time>
      </trkpt>
      <trkpt lat="-24.8577170" lon="-53.7092160">
        <ele>606.9</ele>
        <time>2018-09-14T18:23:18Z</time>
      </trkpt>
      <trkpt lat="-24.8577550" lon="-53.7091910">
        <ele>606.9</ele>
        <time>2018-09-14T18:23:19Z</time>
      </trkpt>
      <trkpt lat="-24.8577910" lon="-53.7091660">
        <ele>606.9</ele>
        <time>2018-09-14T18:23:20Z</time>
      </trkpt>
      <trkpt lat="-24.8578270" lon="-53.7091410">
        <ele>606.9</ele>
        <time>2018-09-14T18:23:21Z</time>
      </trkpt>
      <trkpt lat="-24.8578620" lon="-53.7091160">
        <ele>606.9</ele>
        <time>2018-09-14T18:23:22Z</time>
      </trkpt>
      <trkpt lat="-24.8579000" lon="-53.7090880">
        <ele>607.0</ele>
        <time>2018-09-14T18:23:23Z</time>
      </trkpt>
      <trkpt lat="-24.8579390" lon="-53.7090590">
        <ele>607.0</ele>
        <time>2018-09-14T18:23:24Z</time>
      </trkpt>
      <trkpt lat="-24.8579780" lon="-53.7090270">
        <ele>607.0</ele>
        <time>2018-09-14T18:23:25Z</time>
      </trkpt>
      <trkpt lat="-24.8580190" lon="-53.7089970">
        <ele>607.0</ele>
        <time>2018-09-14T18:23:26Z</time>
      </trkpt>
      <trkpt lat="-24.8580600" lon="-53.7089670">
        <ele>607.0</ele>
        <time>2018-09-14T18:23:27Z</time>
      </trkpt>
      <trkpt lat="-24.8581030" lon="-53.7089380">
        <ele>607.0</ele>
        <time>2018-09-14T18:23:28Z</time>
      </trkpt>
      <trkpt lat="-24.8581460" lon="-53.7089080">
        <ele>607.1</ele>
        <time>2018-09-14T18:23:29Z</time>
      </trkpt>
      <trkpt lat="-24.8581890" lon="-53.7088770">
        <ele>607.1</ele>
        <time>2018-09-14T18:23:30Z</time>
      </trkpt>
      <trkpt lat="-24.8582320" lon="-53.7088460">
        <ele>607.1</ele>
        <time>2018-09-14T18:23:31Z</time>
      </trkpt>
      <trkpt lat="-24.8582750" lon="-53.7088140">
        <ele>607.2</ele>
        <time>2018-09-14T18:23:32Z</time>
      </trkpt>
      <trkpt lat="-24.8583180" lon="-53.7087840">
        <ele>607.2</ele>
        <time>2018-09-14T18:23:33Z</time>
      </trkpt>
      <trkpt lat="-24.8583620" lon="-53.7087560">
        <ele>607.2</ele>
        <time>2018-09-14T18:23:34Z</time>
      </trkpt>
      <trkpt lat="-24.8584040" lon="-53.7087280">
        <ele>607.2</ele>
        <time>2018-09-14T18:23:35Z</time>
      </trkpt>
      <trkpt lat="-24.8584470" lon="-53.7087000">
        <ele>607.3</ele>
        <time>2018-09-14T18:23:36Z</time>
      </trkpt>
      <trkpt lat="-24.8584900" lon="-53.7086720">
        <ele>607.3</ele>
        <time>2018-09-14T18:23:37Z</time>
      </trkpt>
      <trkpt lat="-24.8585320" lon="-53.7086440">
        <ele>607.3</ele>
        <time>2018-09-14T18:23:38Z</time>
      </trkpt>
      <trkpt lat="-24.8585750" lon="-53.7086170">
        <ele>607.4</ele>
        <time>2018-09-14T18:23:39Z</time>
      </trkpt>
      <trkpt lat="-24.8586170" lon="-53.7085890">
        <ele>607.4</ele>
        <time>2018-09-14T18:23:40Z</time>
      </trkpt>
      <trkpt lat="-24.8586570" lon="-53.7085620">
        <ele>607.6</ele>
        <time>2018-09-14T18:23:41Z</time>
      </trkpt>
      <trkpt lat="-24.8586950" lon="-53.7085370">
        <ele>607.8</ele>
        <time>2018-09-14T18:23:42Z</time>
      </trkpt>
      <trkpt lat="-24.8587310" lon="-53.7085090">
        <ele>608.0</ele>
        <time>2018-09-14T18:23:43Z</time>
      </trkpt>
      <trkpt lat="-24.8587680" lon="-53.7084830">
        <ele>608.2</ele>
        <time>2018-09-14T18:23:44Z</time>
      </trkpt>
      <trkpt lat="-24.8588060" lon="-53.7084570">
        <ele>608.4</ele>
        <time>2018-09-14T18:23:45Z</time>
      </trkpt>
      <trkpt lat="-24.8588450" lon="-53.7084310">
        <ele>608.5</ele>
        <time>2018-09-14T18:23:46Z</time>
      </trkpt>
      <trkpt lat="-24.8588850" lon="-53.7084050">
        <ele>608.7</ele>
        <time>2018-09-14T18:23:47Z</time>
      </trkpt>
      <trkpt lat="-24.8589260" lon="-53.7083790">
        <ele>608.8</ele>
        <time>2018-09-14T18:23:48Z</time>
      </trkpt>
      <trkpt lat="-24.8589680" lon="-53.7083530">
        <ele>608.9</ele>
        <time>2018-09-14T18:23:49Z</time>
      </trkpt>
      <trkpt lat="-24.8590100" lon="-53.7083260">
        <ele>609.0</ele>
        <time>2018-09-14T18:23:50Z</time>
      </trkpt>
      <trkpt lat="-24.8590510" lon="-53.7082990">
        <ele>609.1</ele>
        <time>2018-09-14T18:23:51Z</time>
      </trkpt>
      <trkpt lat="-24.8590920" lon="-53.7082720">
        <ele>609.2</ele>
        <time>2018-09-14T18:23:52Z</time>
      </trkpt>
      <trkpt lat="-24.8591330" lon="-53.7082440">
        <ele>609.3</ele>
        <time>2018-09-14T18:23:53Z</time>
      </trkpt>
      <trkpt lat="-24.8591740" lon="-53.7082160">
        <ele>609.3</ele>
        <time>2018-09-14T18:23:54Z</time>
      </trkpt>
      <trkpt lat="-24.8592160" lon="-53.7081870">
        <ele>609.4</ele>
        <time>2018-09-14T18:23:55Z</time>
      </trkpt>
      <trkpt lat="-24.8592590" lon="-53.7081590">
        <ele>609.5</ele>
        <time>2018-09-14T18:23:56Z</time>
      </trkpt>
      <trkpt lat="-24.8593020" lon="-53.7081300">
        <ele>609.6</ele>
        <time>2018-09-14T18:23:57Z</time>
      </trkpt>
      <trkpt lat="-24.8593460" lon="-53.7081010">
        <ele>609.6</ele>
        <time>2018-09-14T18:23:58Z</time>
      </trkpt>
      <trkpt lat="-24.8593910" lon="-53.7080710">
        <ele>609.7</ele>
        <time>2018-09-14T18:23:59Z</time>
      </trkpt>
      <trkpt lat="-24.8594360" lon="-53.7080410">
        <ele>609.8</ele>
        <time>2018-09-14T18:24:00Z</time>
      </trkpt>
      <trkpt lat="-24.8594790" lon="-53.7080120">
        <ele>609.9</ele>
        <time>2018-09-14T18:24:01Z</time>
      </trkpt>
      <trkpt lat="-24.8595200" lon="-53.7079850">
        <ele>610.1</ele>
        <time>2018-09-14T18:24:02Z</time>
      </trkpt>
      <trkpt lat="-24.8595590" lon="-53.7079590">
        <ele>610.4</ele>
        <time>2018-09-14T18:24:03Z</time>
      </trkpt>
      <trkpt lat="-24.8595990" lon="-53.7079340">
        <ele>610.6</ele>
        <time>2018-09-14T18:24:04Z</time>
      </trkpt>
      <trkpt lat="-24.8596390" lon="-53.7079060">
        <ele>610.8</ele>
        <time>2018-09-14T18:24:05Z</time>
      </trkpt>
      <trkpt lat="-24.8596820" lon="-53.7078810">
        <ele>611.1</ele>
        <time>2018-09-14T18:24:06Z</time>
      </trkpt>
      <trkpt lat="-24.8597250" lon="-53.7078580">
        <ele>611.2</ele>
        <time>2018-09-14T18:24:07Z</time>
      </trkpt>
      <trkpt lat="-24.8597680" lon="-53.7078350">
        <ele>611.2</ele>
        <time>2018-09-14T18:24:08Z</time>
      </trkpt>
      <trkpt lat="-24.8598120" lon="-53.7078100">
        <ele>611.3</ele>
        <time>2018-09-14T18:24:09Z</time>
      </trkpt>
      <trkpt lat="-24.8598550" lon="-53.7077840">
        <ele>611.4</ele>
        <time>2018-09-14T18:24:10Z</time>
      </trkpt>
      <trkpt lat="-24.8598970" lon="-53.7077560">
        <ele>611.5</ele>
        <time>2018-09-14T18:24:11Z</time>
      </trkpt>
      <trkpt lat="-24.8599380" lon="-53.7077290">
        <ele>611.5</ele>
        <time>2018-09-14T18:24:12Z</time>
      </trkpt>
      <trkpt lat="-24.8599800" lon="-53.7077040">
        <ele>611.6</ele>
        <time>2018-09-14T18:24:13Z</time>
      </trkpt>
      <trkpt lat="-24.8600210" lon="-53.7076800">
        <ele>611.6</ele>
        <time>2018-09-14T18:24:14Z</time>
      </trkpt>
      <trkpt lat="-24.8600610" lon="-53.7076540">
        <ele>611.7</ele>
        <time>2018-09-14T18:24:15Z</time>
      </trkpt>
      <trkpt lat="-24.8601010" lon="-53.7076280">
        <ele>611.7</ele>
        <time>2018-09-14T18:24:16Z</time>
      </trkpt>
      <trkpt lat="-24.8601380" lon="-53.7076020">
        <ele>611.8</ele>
        <time>2018-09-14T18:24:17Z</time>
      </trkpt>
      <trkpt lat="-24.8601720" lon="-53.7075760">
        <ele>611.8</ele>
        <time>2018-09-14T18:24:18Z</time>
      </trkpt>
      <trkpt lat="-24.8602040" lon="-53.7075480">
        <ele>611.9</ele>
        <time>2018-09-14T18:24:19Z</time>
      </trkpt>
      <trkpt lat="-24.8602370" lon="-53.7075200">
        <ele>611.9</ele>
        <time>2018-09-14T18:24:20Z</time>
      </trkpt>
      <trkpt lat="-24.8602720" lon="-53.7074920">
        <ele>612.0</ele>
        <time>2018-09-14T18:24:21Z</time>
      </trkpt>
      <trkpt lat="-24.8603070" lon="-53.7074630">
        <ele>612.1</ele>
        <time>2018-09-14T18:24:22Z</time>
      </trkpt>
      <trkpt lat="-24.8603430" lon="-53.7074320">
        <ele>612.3</ele>
        <time>2018-09-14T18:24:23Z</time>
      </trkpt>
      <trkpt lat="-24.8603790" lon="-53.7073990">
        <ele>612.5</ele>
        <time>2018-09-14T18:24:24Z</time>
      </trkpt>
      <trkpt lat="-24.8604160" lon="-53.7073660">
        <ele>612.8</ele>
        <time>2018-09-14T18:24:25Z</time>
      </trkpt>
      <trkpt lat="-24.8604540" lon="-53.7073310">
        <ele>613.1</ele>
        <time>2018-09-14T18:24:26Z</time>
      </trkpt>
      <trkpt lat="-24.8604920" lon="-53.7072970">
        <ele>613.3</ele>
        <time>2018-09-14T18:24:27Z</time>
      </trkpt>
      <trkpt lat="-24.8605290" lon="-53.7072610">
        <ele>613.5</ele>
        <time>2018-09-14T18:24:28Z</time>
      </trkpt>
      <trkpt lat="-24.8605660" lon="-53.7072250">
        <ele>613.7</ele>
        <time>2018-09-14T18:24:29Z</time>
      </trkpt>
      <trkpt lat="-24.8606030" lon="-53.7071890">
        <ele>613.7</ele>
        <time>2018-09-14T18:24:30Z</time>
      </trkpt>
      <trkpt lat="-24.8606400" lon="-53.7071520">
        <ele>613.8</ele>
        <time>2018-09-14T18:24:31Z</time>
      </trkpt>
      <trkpt lat="-24.8606770" lon="-53.7071170">
        <ele>613.8</ele>
        <time>2018-09-14T18:24:32Z</time>
      </trkpt>
      <trkpt lat="-24.8607140" lon="-53.7070820">
        <ele>613.8</ele>
        <time>2018-09-14T18:24:33Z</time>
      </trkpt>
      <trkpt lat="-24.8607510" lon="-53.7070460">
        <ele>613.9</ele>
        <time>2018-09-14T18:24:34Z</time>
      </trkpt>
      <trkpt lat="-24.8607870" lon="-53.7070110">
        <ele>613.9</ele>
        <time>2018-09-14T18:24:35Z</time>
      </trkpt>
      <trkpt lat="-24.8608220" lon="-53.7069760">
        <ele>613.9</ele>
        <time>2018-09-14T18:24:36Z</time>
      </trkpt>
      <trkpt lat="-24.8608570" lon="-53.7069410">
        <ele>613.9</ele>
        <time>2018-09-14T18:24:37Z</time>
      </trkpt>
      <trkpt lat="-24.8608940" lon="-53.7069070">
        <ele>614.0</ele>
        <time>2018-09-14T18:24:38Z</time>
      </trkpt>
      <trkpt lat="-24.8609290" lon="-53.7068720">
        <ele>614.0</ele>
        <time>2018-09-14T18:24:39Z</time>
      </trkpt>
      <trkpt lat="-24.8609650" lon="-53.7068370">
        <ele>614.0</ele>
        <time>2018-09-14T18:24:40Z</time>
      </trkpt>
      <trkpt lat="-24.8610010" lon="-53.7068030">
        <ele>614.1</ele>
        <time>2018-09-14T18:24:41Z</time>
      </trkpt>
      <trkpt lat="-24.8610370" lon="-53.7067680">
        <ele>614.1</ele>
        <time>2018-09-14T18:24:42Z</time>
      </trkpt>
      <trkpt lat="-24.8610720" lon="-53.7067330">
        <ele>614.1</ele>
        <time>2018-09-14T18:24:43Z</time>
      </trkpt>
      <trkpt lat="-24.8611070" lon="-53.7066990">
        <ele>614.2</ele>
        <time>2018-09-14T18:24:44Z</time>
      </trkpt>
      <trkpt lat="-24.8611420" lon="-53.7066650">
        <ele>614.2</ele>
        <time>2018-09-14T18:24:45Z</time>
      </trkpt>
      <trkpt lat="-24.8611770" lon="-53.7066330">
        <ele>614.2</ele>
        <time>2018-09-14T18:24:46Z</time>
      </trkpt>
      <trkpt lat="-24.8612120" lon="-53.7066010">
        <ele>614.3</ele>
        <time>2018-09-14T18:24:47Z</time>
      </trkpt>
      <trkpt lat="-24.8612450" lon="-53.7065700">
        <ele>614.3</ele>
        <time>2018-09-14T18:24:48Z</time>
      </trkpt>
      <trkpt lat="-24.8612750" lon="-53.7065370">
        <ele>614.3</ele>
        <time>2018-09-14T18:24:49Z</time>
      </trkpt>
      <trkpt lat="-24.8613050" lon="-53.7065050">
        <ele>614.4</ele>
        <time>2018-09-14T18:24:50Z</time>
      </trkpt>
      <trkpt lat="-24.8613350" lon="-53.7064730">
        <ele>614.5</ele>
        <time>2018-09-14T18:24:51Z</time>
      </trkpt>
      <trkpt lat="-24.8613660" lon="-53.7064420">
        <ele>614.5</ele>
        <time>2018-09-14T18:24:52Z</time>
      </trkpt>
      <trkpt lat="-24.8613970" lon="-53.7064100">
        <ele>614.6</ele>
        <time>2018-09-14T18:24:53Z</time>
      </trkpt>
      <trkpt lat="-24.8614260" lon="-53.7063750">
        <ele>614.6</ele>
        <time>2018-09-14T18:24:54Z</time>
      </trkpt>
      <trkpt lat="-24.8614560" lon="-53.7063410">
        <ele>614.7</ele>
        <time>2018-09-14T18:24:55Z</time>
      </trkpt>
      <trkpt lat="-24.8614870" lon="-53.7063100">
        <ele>614.8</ele>
        <time>2018-09-14T18:24:56Z</time>
      </trkpt>
      <trkpt lat="-24.8615190" lon="-53.7062800">
        <ele>614.8</ele>
        <time>2018-09-14T18:24:57Z</time>
      </trkpt>
      <trkpt lat="-24.8615530" lon="-53.7062510">
        <ele>614.9</ele>
        <time>2018-09-14T18:24:58Z</time>
      </trkpt>
      <trkpt lat="-24.8615890" lon="-53.7062230">
        <ele>615.1</ele>
        <time>2018-09-14T18:24:59Z</time>
      </trkpt>
      <trkpt lat="-24.8616270" lon="-53.7061960">
        <ele>615.4</ele>
        <time>2018-09-14T18:25:00Z</time>
      </trkpt>
      <trkpt lat="-24.8616650" lon="-53.7061680">
        <ele>615.6</ele>
        <time>2018-09-14T18:25:01Z</time>
      </trkpt>
      <trkpt lat="-24.8617020" lon="-53.7061390">
        <ele>615.8</ele>
        <time>2018-09-14T18:25:02Z</time>
      </trkpt>
      <trkpt lat="-24.8617390" lon="-53.7061080">
        <ele>616.0</ele>
        <time>2018-09-14T18:25:03Z</time>
      </trkpt>
      <trkpt lat="-24.8617390" lon="-53.7061080">
        <ele>616.0</ele>
        <time>2018-09-14T18:25:04Z</time>
      </trkpt>
      <trkpt lat="-24.8618110" lon="-53.7060460">
        <ele>616.2</ele>
        <time>2018-09-14T18:25:05Z</time>
      </trkpt>
      <trkpt lat="-24.8618110" lon="-53.7060460">
        <ele>616.2</ele>
        <time>2018-09-14T18:25:06Z</time>
      </trkpt>
      <trkpt lat="-24.8618450" lon="-53.7060180">
        <ele>616.3</ele>
        <time>2018-09-14T18:25:07Z</time>
      </trkpt>
      <trkpt lat="-24.8618760" lon="-53.7059920">
        <ele>616.3</ele>
        <time>2018-09-14T18:25:08Z</time>
      </trkpt>
      <trkpt lat="-24.8619070" lon="-53.7059660">
        <ele>616.4</ele>
        <time>2018-09-14T18:25:09Z</time>
      </trkpt>
      <trkpt lat="-24.8619380" lon="-53.7059390">
        <ele>616.5</ele>
        <time>2018-09-14T18:25:10Z</time>
      </trkpt>
      <trkpt lat="-24.8619710" lon="-53.7059130">
        <ele>616.5</ele>
        <time>2018-09-14T18:25:11Z</time>
      </trkpt>
      <trkpt lat="-24.8620050" lon="-53.7058860">
        <ele>616.6</ele>
        <time>2018-09-14T18:25:12Z</time>
      </trkpt>
      <trkpt lat="-24.8620400" lon="-53.7058580">
        <ele>616.7</ele>
        <time>2018-09-14T18:25:13Z</time>
      </trkpt>
      <trkpt lat="-24.8620750" lon="-53.7058310">
        <ele>616.8</ele>
        <time>2018-09-14T18:25:14Z</time>
      </trkpt>
      <trkpt lat="-24.8621100" lon="-53.7058040">
        <ele>616.9</ele>
        <time>2018-09-14T18:25:15Z</time>
      </trkpt>
      <trkpt lat="-24.8621420" lon="-53.7057770">
        <ele>617.0</ele>
        <time>2018-09-14T18:25:16Z</time>
      </trkpt>
      <trkpt lat="-24.8621720" lon="-53.7057530">
        <ele>617.2</ele>
        <time>2018-09-14T18:25:17Z</time>
      </trkpt>
      <trkpt lat="-24.8621980" lon="-53.7057320">
        <ele>617.3</ele>
        <time>2018-09-14T18:25:18Z</time>
      </trkpt>
      <trkpt lat="-24.8622230" lon="-53.7057120">
        <ele>617.5</ele>
        <time>2018-09-14T18:25:19Z</time>
      </trkpt>
      <trkpt lat="-24.8622500" lon="-53.7056910">
        <ele>617.7</ele>
        <time>2018-09-14T18:25:20Z</time>
      </trkpt>
      <trkpt lat="-24.8622780" lon="-53.7056700">
        <ele>617.9</ele>
        <time>2018-09-14T18:25:21Z</time>
      </trkpt>
      <trkpt lat="-24.8623080" lon="-53.7056470">
        <ele>618.1</ele>
        <time>2018-09-14T18:25:22Z</time>
      </trkpt>
      <trkpt lat="-24.8623390" lon="-53.7056250">
        <ele>618.3</ele>
        <time>2018-09-14T18:25:23Z</time>
      </trkpt>
      <trkpt lat="-24.8623710" lon="-53.7056040">
        <ele>618.4</ele>
        <time>2018-09-14T18:25:24Z</time>
      </trkpt>
      <trkpt lat="-24.8624020" lon="-53.7055810">
        <ele>618.5</ele>
        <time>2018-09-14T18:25:25Z</time>
      </trkpt>
      <trkpt lat="-24.8624330" lon="-53.7055570">
        <ele>618.6</ele>
        <time>2018-09-14T18:25:26Z</time>
      </trkpt>
      <trkpt lat="-24.8624640" lon="-53.7055350">
        <ele>618.7</ele>
        <time>2018-09-14T18:25:27Z</time>
      </trkpt>
      <trkpt lat="-24.8624940" lon="-53.7055150">
        <ele>618.8</ele>
        <time>2018-09-14T18:25:28Z</time>
      </trkpt>
      <trkpt lat="-24.8625230" lon="-53.7054950">
        <ele>618.8</ele>
        <time>2018-09-14T18:25:29Z</time>
      </trkpt>
      <trkpt lat="-24.8625490" lon="-53.7054760">
        <ele>618.9</ele>
        <time>2018-09-14T18:25:30Z</time>
      </trkpt>
      <trkpt lat="-24.8625740" lon="-53.7054570">
        <ele>619.0</ele>
        <time>2018-09-14T18:25:31Z</time>
      </trkpt>
      <trkpt lat="-24.8625980" lon="-53.7054390">
        <ele>619.0</ele>
        <time>2018-09-14T18:25:32Z</time>
      </trkpt>
      <trkpt lat="-24.8626200" lon="-53.7054230">
        <ele>619.1</ele>
        <time>2018-09-14T18:25:33Z</time>
      </trkpt>
      <trkpt lat="-24.8626380" lon="-53.7054090">
        <ele>619.1</ele>
        <time>2018-09-14T18:25:34Z</time>
      </trkpt>
      <trkpt lat="-24.8626560" lon="-53.7053960">
        <ele>619.2</ele>
        <time>2018-09-14T18:25:35Z</time>
      </trkpt>
      <trkpt lat="-24.8626750" lon="-53.7053830">
        <ele>619.2</ele>
        <time>2018-09-14T18:25:36Z</time>
      </trkpt>
      <trkpt lat="-24.8626960" lon="-53.7053650">
        <ele>619.3</ele>
        <time>2018-09-14T18:25:37Z</time>
      </trkpt>
      <trkpt lat="-24.8627200" lon="-53.7053470">
        <ele>619.3</ele>
        <time>2018-09-14T18:25:38Z</time>
      </trkpt>
      <trkpt lat="-24.8627450" lon="-53.7053260">
        <ele>619.4</ele>
        <time>2018-09-14T18:25:39Z</time>
      </trkpt>
      <trkpt lat="-24.8627700" lon="-53.7053060">
        <ele>619.5</ele>
        <time>2018-09-14T18:25:40Z</time>
      </trkpt>
      <trkpt lat="-24.8627950" lon="-53.7052870">
        <ele>619.6</ele>
        <time>2018-09-14T18:25:41Z</time>
      </trkpt>
      <trkpt lat="-24.8628200" lon="-53.7052680">
        <ele>619.9</ele>
        <time>2018-09-14T18:25:42Z</time>
      </trkpt>
      <trkpt lat="-24.8628440" lon="-53.7052500">
        <ele>620.1</ele>
        <time>2018-09-14T18:25:43Z</time>
      </trkpt>
      <trkpt lat="-24.8628690" lon="-53.7052330">
        <ele>620.5</ele>
        <time>2018-09-14T18:25:44Z</time>
      </trkpt>
      <trkpt lat="-24.8628920" lon="-53.7052170">
        <ele>620.8</ele>
        <time>2018-09-14T18:25:45Z</time>
      </trkpt>
      <trkpt lat="-24.8629140" lon="-53.7052010">
        <ele>621.1</ele>
        <time>2018-09-14T18:25:46Z</time>
      </trkpt>
      <trkpt lat="-24.8629310" lon="-53.7051880">
        <ele>621.3</ele>
        <time>2018-09-14T18:25:47Z</time>
      </trkpt>
      <trkpt lat="-24.8629460" lon="-53.7051740">
        <ele>621.5</ele>
        <time>2018-09-14T18:25:48Z</time>
      </trkpt>
      <trkpt lat="-24.8629640" lon="-53.7051610">
        <ele>621.8</ele>
        <time>2018-09-14T18:25:49Z</time>
      </trkpt>
      <trkpt lat="-24.8629830" lon="-53.7051470">
        <ele>622.0</ele>
        <time>2018-09-14T18:25:50Z</time>
      </trkpt>
      <trkpt lat="-24.8630050" lon="-53.7051300">
        <ele>622.3</ele>
        <time>2018-09-14T18:25:51Z</time>
      </trkpt>
      <trkpt lat="-24.8630280" lon="-53.7051120">
        <ele>622.6</ele>
        <time>2018-09-14T18:25:52Z</time>
      </trkpt>
      <trkpt lat="-24.8630520" lon="-53.7050930">
        <ele>622.8</ele>
        <time>2018-09-14T18:25:53Z</time>
      </trkpt>
      <trkpt lat="-24.8630770" lon="-53.7050750">
        <ele>623.1</ele>
        <time>2018-09-14T18:25:54Z</time>
      </trkpt>
      <trkpt lat="-24.8631020" lon="-53.7050570">
        <ele>623.4</ele>
        <time>2018-09-14T18:25:55Z</time>
      </trkpt>
      <trkpt lat="-24.8631270" lon="-53.7050390">
        <ele>623.6</ele>
        <time>2018-09-14T18:25:56Z</time>
      </trkpt>
      <trkpt lat="-24.8631520" lon="-53.7050220">
        <ele>623.7</ele>
        <time>2018-09-14T18:25:57Z</time>
      </trkpt>
      <trkpt lat="-24.8631780" lon="-53.7050060">
        <ele>623.8</ele>
        <time>2018-09-14T18:25:58Z</time>
      </trkpt>
      <trkpt lat="-24.8632020" lon="-53.7049910">
        <ele>624.0</ele>
        <time>2018-09-14T18:25:59Z</time>
      </trkpt>
      <trkpt lat="-24.8632250" lon="-53.7049730">
        <ele>624.1</ele>
        <time>2018-09-14T18:26:00Z</time>
      </trkpt>
      <trkpt lat="-24.8632490" lon="-53.7049550">
        <ele>624.4</ele>
        <time>2018-09-14T18:26:01Z</time>
      </trkpt>
      <trkpt lat="-24.8632730" lon="-53.7049360">
        <ele>624.7</ele>
        <time>2018-09-14T18:26:02Z</time>
      </trkpt>
      <trkpt lat="-24.8632940" lon="-53.7049180">
        <ele>624.9</ele>
        <time>2018-09-14T18:26:03Z</time>
      </trkpt>
      <trkpt lat="-24.8633100" lon="-53.7049010">
        <ele>625.1</ele>
        <time>2018-09-14T18:26:04Z</time>
      </trkpt>
      <trkpt lat="-24.8633220" lon="-53.7048840">
        <ele>625.2</ele>
        <time>2018-09-14T18:26:05Z</time>
      </trkpt>
      <trkpt lat="-24.8633270" lon="-53.7048680">
        <ele>625.3</ele>
        <time>2018-09-14T18:26:06Z</time>
      </trkpt>
      <trkpt lat="-24.8633280" lon="-53.7048490">
        <ele>625.4</ele>
        <time>2018-09-14T18:26:07Z</time>
      </trkpt>
      <trkpt lat="-24.8633340" lon="-53.7048280">
        <ele>625.5</ele>
        <time>2018-09-14T18:26:08Z</time>
      </trkpt>
      <trkpt lat="-24.8633450" lon="-53.7048100">
        <ele>625.6</ele>
        <time>2018-09-14T18:26:09Z</time>
      </trkpt>
      <trkpt lat="-24.8633610" lon="-53.7047990">
        <ele>625.6</ele>
        <time>2018-09-14T18:26:10Z</time>
      </trkpt>
      <trkpt lat="-24.8633790" lon="-53.7047970">
        <ele>625.7</ele>
        <time>2018-09-14T18:26:11Z</time>
      </trkpt>
      <trkpt lat="-24.8633940" lon="-53.7048040">
        <ele>625.7</ele>
        <time>2018-09-14T18:26:12Z</time>
      </trkpt>
      <trkpt lat="-24.8634080" lon="-53.7048130">
        <ele>625.8</ele>
        <time>2018-09-14T18:26:13Z</time>
      </trkpt>
      <trkpt lat="-24.8634230" lon="-53.7048180">
        <ele>625.8</ele>
        <time>2018-09-14T18:26:14Z</time>
      </trkpt>
      <trkpt lat="-24.8634360" lon="-53.7048130">
        <ele>625.8</ele>
        <time>2018-09-14T18:26:15Z</time>
      </trkpt>
      <trkpt lat="-24.8634390" lon="-53.7048020">
        <ele>625.8</ele>
        <time>2018-09-14T18:26:16Z</time>
      </trkpt>
      <trkpt lat="-24.8634380" lon="-53.7047970">
        <ele>625.8</ele>
        <time>2018-09-14T18:26:17Z</time>
      </trkpt>
      <trkpt lat="-24.8634390" lon="-53.7047970">
        <ele>625.8</ele>
        <time>2018-09-14T18:26:18Z</time>
      </trkpt>
      <trkpt lat="-24.8634390" lon="-53.7047970">
        <ele>625.8</ele>
        <time>2018-09-14T18:26:19Z</time>
      </trkpt>
      <trkpt lat="-24.8634390" lon="-53.7047960">
        <ele>625.8</ele>
        <time>2018-09-14T18:26:20Z</time>
      </trkpt>
      <trkpt lat="-24.8634260" lon="-53.7047960">
        <ele>625.8</ele>
        <time>2018-09-14T18:26:56Z</time>
      </trkpt>
      <trkpt lat="-24.8634240" lon="-53.7047950">
        <ele>625.9</ele>
        <time>2018-09-14T18:26:57Z</time>
      </trkpt>
      <trkpt lat="-24.8634220" lon="-53.7047930">
        <ele>625.9</ele>
        <time>2018-09-14T18:26:58Z</time>
      </trkpt>
      <trkpt lat="-24.8634170" lon="-53.7047890">
        <ele>625.9</ele>
        <time>2018-09-14T18:27:14Z</time>
      </trkpt>
      <trkpt lat="-24.8634180" lon="-53.7047880">
        <ele>625.9</ele>
        <time>2018-09-14T18:27:15Z</time>
      </trkpt>
      <trkpt lat="-24.8634180" lon="-53.7047880">
        <ele>625.9</ele>
        <time>2018-09-14T18:27:16Z</time>
      </trkpt>
      <trkpt lat="-24.8634170" lon="-53.7047900">
        <ele>625.9</ele>
        <time>2018-09-14T18:27:21Z</time>
      </trkpt>
      <trkpt lat="-24.8634150" lon="-53.7047900">
        <ele>625.9</ele>
        <time>2018-09-14T18:27:22Z</time>
      </trkpt>
      <trkpt lat="-24.8634120" lon="-53.7047920">
        <ele>625.9</ele>
        <time>2018-09-14T18:27:23Z</time>
      </trkpt>
      <trkpt lat="-24.8634100" lon="-53.7047950">
        <ele>625.9</ele>
        <time>2018-09-14T18:27:24Z</time>
      </trkpt>
      <trkpt lat="-24.8634100" lon="-53.7047960">
        <ele>625.9</ele>
        <time>2018-09-14T18:27:25Z</time>
      </trkpt>
      <trkpt lat="-24.8634120" lon="-53.7047960">
        <ele>625.9</ele>
        <time>2018-09-14T18:27:26Z</time>
      </trkpt>
      <trkpt lat="-24.8634160" lon="-53.7047960">
        <ele>625.9</ele>
        <time>2018-09-14T18:27:29Z</time>
      </trkpt>
      <trkpt lat="-24.8634160" lon="-53.7047940">
        <ele>625.9</ele>
        <time>2018-09-14T18:27:30Z</time>
      </trkpt>
      <trkpt lat="-24.8634150" lon="-53.7047930">
        <ele>625.9</ele>
        <time>2018-09-14T18:27:31Z</time>
      </trkpt>
      <trkpt lat="-24.8634160" lon="-53.7047920">
        <ele>625.9</ele>
        <time>2018-09-14T18:27:32Z</time>
      </trkpt>
      <trkpt lat="-24.8634170" lon="-53.7047920">
        <ele>625.9</ele>
        <time>2018-09-14T18:27:33Z</time>
      </trkpt>
      <trkpt lat="-24.8634170" lon="-53.7047930">
        <ele>625.9</ele>
        <time>2018-09-14T18:27:34Z</time>
      </trkpt>
      <trkpt lat="-24.8634110" lon="-53.7048110">
        <ele>625.9</ele>
        <time>2018-09-14T18:32:27Z</time>
      </trkpt>
      <trkpt lat="-24.8634110" lon="-53.7048110">
        <ele>625.9</ele>
        <time>2018-09-14T18:32:28Z</time>
      </trkpt>
      <trkpt lat="-24.8634100" lon="-53.7048120">
        <ele>625.9</ele>
        <time>2018-09-14T18:32:29Z</time>
      </trkpt>
      <trkpt lat="-24.8634120" lon="-53.7048110">
        <ele>625.9</ele>
        <time>2018-09-14T18:32:30Z</time>
      </trkpt>
      <trkpt lat="-24.8634140" lon="-53.7048140">
        <ele>626.0</ele>
        <time>2018-09-14T18:32:31Z</time>
      </trkpt>
      <trkpt lat="-24.8634140" lon="-53.7048150">
        <ele>626.0</ele>
        <time>2018-09-14T18:32:32Z</time>
      </trkpt>
      <trkpt lat="-24.8634140" lon="-53.7048140">
        <ele>626.0</ele>
        <time>2018-09-14T18:32:33Z</time>
      </trkpt>
      <trkpt lat="-24.8634110" lon="-53.7048110">
        <ele>626.0</ele>
        <time>2018-09-14T18:32:36Z</time>
      </trkpt>
      <trkpt lat="-24.8634100" lon="-53.7048100">
        <ele>626.0</ele>
        <time>2018-09-14T18:32:37Z</time>
      </trkpt>
      <trkpt lat="-24.8634100" lon="-53.7048100">
        <ele>626.0</ele>
        <time>2018-09-14T18:32:38Z</time>
      </trkpt>
      <trkpt lat="-24.8634070" lon="-53.7048090">
        <ele>626.0</ele>
        <time>2018-09-14T18:32:40Z</time>
      </trkpt>
      <trkpt lat="-24.8634050" lon="-53.7048100">
        <ele>626.0</ele>
        <time>2018-09-14T18:32:41Z</time>
      </trkpt>
      <trkpt lat="-24.8634040" lon="-53.7048110">
        <ele>626.0</ele>
        <time>2018-09-14T18:32:42Z</time>
      </trkpt>
      <trkpt lat="-24.8634040" lon="-53.7048110">
        <ele>626.0</ele>
        <time>2018-09-14T18:32:43Z</time>
      </trkpt>
      <trkpt lat="-24.8633940" lon="-53.7047990">
        <ele>626.0</ele>
        <time>2018-09-14T18:34:19Z</time>
      </trkpt>
      <trkpt lat="-24.8633830" lon="-53.7047930">
        <ele>626.0</ele>
        <time>2018-09-14T18:34:20Z</time>
      </trkpt>
      <trkpt lat="-24.8633690" lon="-53.7047890">
        <ele>626.0</ele>
        <time>2018-09-14T18:34:21Z</time>
      </trkpt>
      <trkpt lat="-24.8633500" lon="-53.7047820">
        <ele>626.0</ele>
        <time>2018-09-14T18:34:22Z</time>
      </trkpt>
      <trkpt lat="-24.8633270" lon="-53.7047700">
        <ele>626.0</ele>
        <time>2018-09-14T18:34:23Z</time>
      </trkpt>
      <trkpt lat="-24.8633040" lon="-53.7047570">
        <ele>625.5</ele>
        <time>2018-09-14T18:34:24Z</time>
      </trkpt>
      <trkpt lat="-24.8632830" lon="-53.7047400">
        <ele>624.9</ele>
        <time>2018-09-14T18:34:25Z</time>
      </trkpt>
      <trkpt lat="-24.8632640" lon="-53.7047220">
        <ele>624.6</ele>
        <time>2018-09-14T18:34:26Z</time>
      </trkpt>
      <trkpt lat="-24.8632470" lon="-53.7047030">
        <ele>624.5</ele>
        <time>2018-09-14T18:34:27Z</time>
      </trkpt>
      <trkpt lat="-24.8632290" lon="-53.7046830">
        <ele>624.4</ele>
        <time>2018-09-14T18:34:28Z</time>
      </trkpt>
      <trkpt lat="-24.8632080" lon="-53.7046640">
        <ele>624.2</ele>
        <time>2018-09-14T18:34:29Z</time>
      </trkpt>
      <trkpt lat="-24.8631900" lon="-53.7046420">
        <ele>624.2</ele>
        <time>2018-09-14T18:34:30Z</time>
      </trkpt>
      <trkpt lat="-24.8631740" lon="-53.7046150">
        <ele>624.2</ele>
        <time>2018-09-14T18:34:31Z</time>
      </trkpt>
      <trkpt lat="-24.8631610" lon="-53.7045860">
        <ele>624.2</ele>
        <time>2018-09-14T18:34:32Z</time>
      </trkpt>
      <trkpt lat="-24.8631500" lon="-53.7045560">
        <ele>624.3</ele>
        <time>2018-09-14T18:34:33Z</time>
      </trkpt>
      <trkpt lat="-24.8631380" lon="-53.7045250">
        <ele>624.4</ele>
        <time>2018-09-14T18:34:34Z</time>
      </trkpt>
      <trkpt lat="-24.8631270" lon="-53.7044940">
        <ele>624.6</ele>
        <time>2018-09-14T18:34:35Z</time>
      </trkpt>
      <trkpt lat="-24.8631170" lon="-53.7044620">
        <ele>624.6</ele>
        <time>2018-09-14T18:34:36Z</time>
      </trkpt>
      <trkpt lat="-24.8631070" lon="-53.7044300">
        <ele>624.7</ele>
        <time>2018-09-14T18:34:37Z</time>
      </trkpt>
      <trkpt lat="-24.8630960" lon="-53.7043980">
        <ele>624.7</ele>
        <time>2018-09-14T18:34:38Z</time>
      </trkpt>
      <trkpt lat="-24.8630780" lon="-53.7043320">
        <ele>624.9</ele>
        <time>2018-09-14T18:34:39Z</time>
      </trkpt>
      <trkpt lat="-24.8630690" lon="-53.7042980">
        <ele>624.9</ele>
        <time>2018-09-14T18:34:40Z</time>
      </trkpt>
      <trkpt lat="-24.8630560" lon="-53.7042650">
        <ele>625.0</ele>
        <time>2018-09-14T18:34:41Z</time>
      </trkpt>
      <trkpt lat="-24.8630310" lon="-53.7041940">
        <ele>625.1</ele>
        <time>2018-09-14T18:34:43Z</time>
      </trkpt>
      <trkpt lat="-24.8630190" lon="-53.7041590">
        <ele>625.1</ele>
        <time>2018-09-14T18:34:44Z</time>
      </trkpt>
      <trkpt lat="-24.8630050" lon="-53.7041230">
        <ele>625.0</ele>
        <time>2018-09-14T18:34:45Z</time>
      </trkpt>
      <trkpt lat="-24.8629910" lon="-53.7040870">
        <ele>624.9</ele>
        <time>2018-09-14T18:34:46Z</time>
      </trkpt>
      <trkpt lat="-24.8629760" lon="-53.7040510">
        <ele>624.8</ele>
        <time>2018-09-14T18:34:47Z</time>
      </trkpt>
      <trkpt lat="-24.8629610" lon="-53.7040150">
        <ele>624.7</ele>
        <time>2018-09-14T18:34:48Z</time>
      </trkpt>
      <trkpt lat="-24.8629440" lon="-53.7039780">
        <ele>624.7</ele>
        <time>2018-09-14T18:34:49Z</time>
      </trkpt>
      <trkpt lat="-24.8629280" lon="-53.7039400">
        <ele>624.7</ele>
        <time>2018-09-14T18:34:50Z</time>
      </trkpt>
      <trkpt lat="-24.8629120" lon="-53.7039020">
        <ele>624.7</ele>
        <time>2018-09-14T18:34:51Z</time>
      </trkpt>
      <trkpt lat="-24.8628970" lon="-53.7038630">
        <ele>624.7</ele>
        <time>2018-09-14T18:34:52Z</time>
      </trkpt>
      <trkpt lat="-24.8628830" lon="-53.7038240">
        <ele>624.7</ele>
        <time>2018-09-14T18:34:53Z</time>
      </trkpt>
      <trkpt lat="-24.8628690" lon="-53.7037840">
        <ele>624.7</ele>
        <time>2018-09-14T18:34:54Z</time>
      </trkpt>
      <trkpt lat="-24.8628550" lon="-53.7037430">
        <ele>624.9</ele>
        <time>2018-09-14T18:34:55Z</time>
      </trkpt>
      <trkpt lat="-24.8628410" lon="-53.7037030">
        <ele>625.1</ele>
        <time>2018-09-14T18:34:56Z</time>
      </trkpt>
      <trkpt lat="-24.8628270" lon="-53.7036620">
        <ele>625.2</ele>
        <time>2018-09-14T18:34:57Z</time>
      </trkpt>
      <trkpt lat="-24.8628120" lon="-53.7036210">
        <ele>625.3</ele>
        <time>2018-09-14T18:34:58Z</time>
      </trkpt>
      <trkpt lat="-24.8627980" lon="-53.7035790">
        <ele>625.4</ele>
        <time>2018-09-14T18:34:59Z</time>
      </trkpt>
      <trkpt lat="-24.8627840" lon="-53.7035370">
        <ele>625.5</ele>
        <time>2018-09-14T18:35:00Z</time>
      </trkpt>
      <trkpt lat="-24.8627550" lon="-53.7034550">
        <ele>625.5</ele>
        <time>2018-09-14T18:35:02Z</time>
      </trkpt>
      <trkpt lat="-24.8627400" lon="-53.7034150">
        <ele>625.4</ele>
        <time>2018-09-14T18:35:03Z</time>
      </trkpt>
      <trkpt lat="-24.8627260" lon="-53.7033750">
        <ele>625.3</ele>
        <time>2018-09-14T18:35:04Z</time>
      </trkpt>
      <trkpt lat="-24.8627110" lon="-53.7033340">
        <ele>625.0</ele>
        <time>2018-09-14T18:35:05Z</time>
      </trkpt>
      <trkpt lat="-24.8626970" lon="-53.7032940">
        <ele>624.9</ele>
        <time>2018-09-14T18:35:06Z</time>
      </trkpt>
      <trkpt lat="-24.8626830" lon="-53.7032530">
        <ele>625.0</ele>
        <time>2018-09-14T18:35:07Z</time>
      </trkpt>
      <trkpt lat="-24.8626680" lon="-53.7032120">
        <ele>625.0</ele>
        <time>2018-09-14T18:35:08Z</time>
      </trkpt>
      <trkpt lat="-24.8626530" lon="-53.7031700">
        <ele>625.2</ele>
        <time>2018-09-14T18:35:09Z</time>
      </trkpt>
      <trkpt lat="-24.8626380" lon="-53.7031270">
        <ele>625.5</ele>
        <time>2018-09-14T18:35:10Z</time>
      </trkpt>
      <trkpt lat="-24.8626240" lon="-53.7030840">
        <ele>625.8</ele>
        <time>2018-09-14T18:35:11Z</time>
      </trkpt>
      <trkpt lat="-24.8626110" lon="-53.7030410">
        <ele>626.2</ele>
        <time>2018-09-14T18:35:12Z</time>
      </trkpt>
      <trkpt lat="-24.8625970" lon="-53.7030000">
        <ele>626.2</ele>
        <time>2018-09-14T18:35:13Z</time>
      </trkpt>
      <trkpt lat="-24.8625860" lon="-53.7029570">
        <ele>626.1</ele>
        <time>2018-09-14T18:35:14Z</time>
      </trkpt>
      <trkpt lat="-24.8625730" lon="-53.7029140">
        <ele>625.9</ele>
        <time>2018-09-14T18:35:15Z</time>
      </trkpt>
      <trkpt lat="-24.8625600" lon="-53.7028720">
        <ele>625.7</ele>
        <time>2018-09-14T18:35:16Z</time>
      </trkpt>
      <trkpt lat="-24.8625450" lon="-53.7028300">
        <ele>625.4</ele>
        <time>2018-09-14T18:35:17Z</time>
      </trkpt>
      <trkpt lat="-24.8625320" lon="-53.7027880">
        <ele>625.1</ele>
        <time>2018-09-14T18:35:18Z</time>
      </trkpt>
      <trkpt lat="-24.8625200" lon="-53.7027460">
        <ele>624.7</ele>
        <time>2018-09-14T18:35:19Z</time>
      </trkpt>
      <trkpt lat="-24.8625080" lon="-53.7027030">
        <ele>624.4</ele>
        <time>2018-09-14T18:35:20Z</time>
      </trkpt>
      <trkpt lat="-24.8624810" lon="-53.7026170">
        <ele>624.1</ele>
        <time>2018-09-14T18:35:22Z</time>
      </trkpt>
      <trkpt lat="-24.8624650" lon="-53.7025730">
        <ele>624.0</ele>
        <time>2018-09-14T18:35:23Z</time>
      </trkpt>
      <trkpt lat="-24.8624480" lon="-53.7025300">
        <ele>623.9</ele>
        <time>2018-09-14T18:35:24Z</time>
      </trkpt>
      <trkpt lat="-24.8624320" lon="-53.7024880">
        <ele>623.8</ele>
        <time>2018-09-14T18:35:25Z</time>
      </trkpt>
      <trkpt lat="-24.8624160" lon="-53.7024460">
        <ele>623.9</ele>
        <time>2018-09-14T18:35:26Z</time>
      </trkpt>
      <trkpt lat="-24.8624010" lon="-53.7024040">
        <ele>624.1</ele>
        <time>2018-09-14T18:35:27Z</time>
      </trkpt>
      <trkpt lat="-24.8623860" lon="-53.7023620">
        <ele>624.1</ele>
        <time>2018-09-14T18:35:28Z</time>
      </trkpt>
      <trkpt lat="-24.8623720" lon="-53.7023210">
        <ele>624.2</ele>
        <time>2018-09-14T18:35:29Z</time>
      </trkpt>
      <trkpt lat="-24.8623570" lon="-53.7022810">
        <ele>624.3</ele>
        <time>2018-09-14T18:35:30Z</time>
      </trkpt>
      <trkpt lat="-24.8623420" lon="-53.7022400">
        <ele>624.4</ele>
        <time>2018-09-14T18:35:31Z</time>
      </trkpt>
      <trkpt lat="-24.8623280" lon="-53.7021980">
        <ele>624.6</ele>
        <time>2018-09-14T18:35:32Z</time>
      </trkpt>
      <trkpt lat="-24.8623150" lon="-53.7021570">
        <ele>624.8</ele>
        <time>2018-09-14T18:35:33Z</time>
      </trkpt>
      <trkpt lat="-24.8623010" lon="-53.7021160">
        <ele>624.8</ele>
        <time>2018-09-14T18:35:34Z</time>
      </trkpt>
      <trkpt lat="-24.8622880" lon="-53.7020730">
        <ele>624.9</ele>
        <time>2018-09-14T18:35:35Z</time>
      </trkpt>
      <trkpt lat="-24.8622760" lon="-53.7020300">
        <ele>625.0</ele>
        <time>2018-09-14T18:35:36Z</time>
      </trkpt>
      <trkpt lat="-24.8622660" lon="-53.7019870">
        <ele>625.1</ele>
        <time>2018-09-14T18:35:37Z</time>
      </trkpt>
      <trkpt lat="-24.8622560" lon="-53.7019430">
        <ele>625.2</ele>
        <time>2018-09-14T18:35:38Z</time>
      </trkpt>
      <trkpt lat="-24.8622450" lon="-53.7019000">
        <ele>625.3</ele>
        <time>2018-09-14T18:35:39Z</time>
      </trkpt>
      <trkpt lat="-24.8622350" lon="-53.7018560">
        <ele>625.4</ele>
        <time>2018-09-14T18:35:40Z</time>
      </trkpt>
      <trkpt lat="-24.8622270" lon="-53.7018120">
        <ele>625.7</ele>
        <time>2018-09-14T18:35:41Z</time>
      </trkpt>
      <trkpt lat="-24.8622200" lon="-53.7017670">
        <ele>625.8</ele>
        <time>2018-09-14T18:35:42Z</time>
      </trkpt>
      <trkpt lat="-24.8622130" lon="-53.7017230">
        <ele>625.8</ele>
        <time>2018-09-14T18:35:43Z</time>
      </trkpt>
      <trkpt lat="-24.8622090" lon="-53.7016770">
        <ele>625.8</ele>
        <time>2018-09-14T18:35:44Z</time>
      </trkpt>
      <trkpt lat="-24.8622060" lon="-53.7016320">
        <ele>625.6</ele>
        <time>2018-09-14T18:35:45Z</time>
      </trkpt>
      <trkpt lat="-24.8622040" lon="-53.7015860">
        <ele>625.5</ele>
        <time>2018-09-14T18:35:46Z</time>
      </trkpt>
      <trkpt lat="-24.8622030" lon="-53.7015400">
        <ele>625.3</ele>
        <time>2018-09-14T18:35:47Z</time>
      </trkpt>
      <trkpt lat="-24.8622020" lon="-53.7014940">
        <ele>625.1</ele>
        <time>2018-09-14T18:35:48Z</time>
      </trkpt>
      <trkpt lat="-24.8622010" lon="-53.7014500">
        <ele>624.7</ele>
        <time>2018-09-14T18:35:49Z</time>
      </trkpt>
      <trkpt lat="-24.8622010" lon="-53.7014050">
        <ele>624.5</ele>
        <time>2018-09-14T18:35:50Z</time>
      </trkpt>
      <trkpt lat="-24.8622020" lon="-53.7013600">
        <ele>624.2</ele>
        <time>2018-09-14T18:35:51Z</time>
      </trkpt>
      <trkpt lat="-24.8622000" lon="-53.7013160">
        <ele>624.0</ele>
        <time>2018-09-14T18:35:52Z</time>
      </trkpt>
      <trkpt lat="-24.8621960" lon="-53.7012750">
        <ele>623.8</ele>
        <time>2018-09-14T18:35:53Z</time>
      </trkpt>
      <trkpt lat="-24.8621880" lon="-53.7012360">
        <ele>623.6</ele>
        <time>2018-09-14T18:35:54Z</time>
      </trkpt>
      <trkpt lat="-24.8621780" lon="-53.7011980">
        <ele>623.3</ele>
        <time>2018-09-14T18:35:55Z</time>
      </trkpt>
      <trkpt lat="-24.8621630" lon="-53.7011630">
        <ele>623.0</ele>
        <time>2018-09-14T18:35:56Z</time>
      </trkpt>
      <trkpt lat="-24.8621450" lon="-53.7011300">
        <ele>622.9</ele>
        <time>2018-09-14T18:35:57Z</time>
      </trkpt>
      <trkpt lat="-24.8621250" lon="-53.7010970">
        <ele>622.8</ele>
        <time>2018-09-14T18:35:58Z</time>
      </trkpt>
      <trkpt lat="-24.8621030" lon="-53.7010650">
        <ele>622.8</ele>
        <time>2018-09-14T18:35:59Z</time>
      </trkpt>
      <trkpt lat="-24.8620780" lon="-53.7010360">
        <ele>622.8</ele>
        <time>2018-09-14T18:36:00Z</time>
      </trkpt>
      <trkpt lat="-24.8620480" lon="-53.7010110">
        <ele>622.9</ele>
        <time>2018-09-14T18:36:01Z</time>
      </trkpt>
      <trkpt lat="-24.8620130" lon="-53.7009930">
        <ele>623.0</ele>
        <time>2018-09-14T18:36:02Z</time>
      </trkpt>
      <trkpt lat="-24.8619750" lon="-53.7009810">
        <ele>623.0</ele>
        <time>2018-09-14T18:36:03Z</time>
      </trkpt>
      <trkpt lat="-24.8619350" lon="-53.7009710">
        <ele>623.0</ele>
        <time>2018-09-14T18:36:04Z</time>
      </trkpt>
      <trkpt lat="-24.8618940" lon="-53.7009610">
        <ele>623.0</ele>
        <time>2018-09-14T18:36:05Z</time>
      </trkpt>
      <trkpt lat="-24.8618510" lon="-53.7009530">
        <ele>622.9</ele>
        <time>2018-09-14T18:36:06Z</time>
      </trkpt>
      <trkpt lat="-24.8618080" lon="-53.7009460">
        <ele>623.0</ele>
        <time>2018-09-14T18:36:07Z</time>
      </trkpt>
      <trkpt lat="-24.8617650" lon="-53.7009410">
        <ele>623.0</ele>
        <time>2018-09-14T18:36:08Z</time>
      </trkpt>
      <trkpt lat="-24.8617220" lon="-53.7009360">
        <ele>623.0</ele>
        <time>2018-09-14T18:36:09Z</time>
      </trkpt>
      <trkpt lat="-24.8616780" lon="-53.7009300">
        <ele>622.9</ele>
        <time>2018-09-14T18:36:10Z</time>
      </trkpt>
      <trkpt lat="-24.8616340" lon="-53.7009260">
        <ele>622.8</ele>
        <time>2018-09-14T18:36:11Z</time>
      </trkpt>
      <trkpt lat="-24.8615900" lon="-53.7009230">
        <ele>622.8</ele>
        <time>2018-09-14T18:36:12Z</time>
      </trkpt>
      <trkpt lat="-24.8615450" lon="-53.7009190">
        <ele>622.7</ele>
        <time>2018-09-14T18:36:13Z</time>
      </trkpt>
      <trkpt lat="-24.8615010" lon="-53.7009150">
        <ele>622.6</ele>
        <time>2018-09-14T18:36:14Z</time>
      </trkpt>
      <trkpt lat="-24.8614550" lon="-53.7009080">
        <ele>622.3</ele>
        <time>2018-09-14T18:36:15Z</time>
      </trkpt>
      <trkpt lat="-24.8614090" lon="-53.7008980">
        <ele>622.2</ele>
        <time>2018-09-14T18:36:16Z</time>
      </trkpt>
      <trkpt lat="-24.8613630" lon="-53.7008840">
        <ele>622.3</ele>
        <time>2018-09-14T18:36:17Z</time>
      </trkpt>
      <trkpt lat="-24.8613180" lon="-53.7008670">
        <ele>622.6</ele>
        <time>2018-09-14T18:36:18Z</time>
      </trkpt>
      <trkpt lat="-24.8612740" lon="-53.7008470">
        <ele>622.9</ele>
        <time>2018-09-14T18:36:19Z</time>
      </trkpt>
      <trkpt lat="-24.8612290" lon="-53.7008290">
        <ele>623.2</ele>
        <time>2018-09-14T18:36:20Z</time>
      </trkpt>
      <trkpt lat="-24.8611830" lon="-53.7008090">
        <ele>623.5</ele>
        <time>2018-09-14T18:36:21Z</time>
      </trkpt>
      <trkpt lat="-24.8611380" lon="-53.7007880">
        <ele>623.7</ele>
        <time>2018-09-14T18:36:22Z</time>
      </trkpt>
      <trkpt lat="-24.8610920" lon="-53.7007670">
        <ele>624.0</ele>
        <time>2018-09-14T18:36:23Z</time>
      </trkpt>
      <trkpt lat="-24.8610470" lon="-53.7007420">
        <ele>624.2</ele>
        <time>2018-09-14T18:36:24Z</time>
      </trkpt>
      <trkpt lat="-24.8610030" lon="-53.7007170">
        <ele>624.3</ele>
        <time>2018-09-14T18:36:25Z</time>
      </trkpt>
      <trkpt lat="-24.8609580" lon="-53.7006930">
        <ele>624.2</ele>
        <time>2018-09-14T18:36:26Z</time>
      </trkpt>
      <trkpt lat="-24.8609130" lon="-53.7006680">
        <ele>624.3</ele>
        <time>2018-09-14T18:36:27Z</time>
      </trkpt>
      <trkpt lat="-24.8608680" lon="-53.7006430">
        <ele>624.3</ele>
        <time>2018-09-14T18:36:28Z</time>
      </trkpt>
      <trkpt lat="-24.8608230" lon="-53.7006180">
        <ele>624.4</ele>
        <time>2018-09-14T18:36:29Z</time>
      </trkpt>
      <trkpt lat="-24.8607780" lon="-53.7005930">
        <ele>624.5</ele>
        <time>2018-09-14T18:36:30Z</time>
      </trkpt>
      <trkpt lat="-24.8607340" lon="-53.7005690">
        <ele>624.9</ele>
        <time>2018-09-14T18:36:31Z</time>
      </trkpt>
      <trkpt lat="-24.8606900" lon="-53.7005430">
        <ele>625.2</ele>
        <time>2018-09-14T18:36:32Z</time>
      </trkpt>
      <trkpt lat="-24.8606480" lon="-53.7005150">
        <ele>625.3</ele>
        <time>2018-09-14T18:36:33Z</time>
      </trkpt>
      <trkpt lat="-24.8606060" lon="-53.7004890">
        <ele>625.2</ele>
        <time>2018-09-14T18:36:34Z</time>
      </trkpt>
      <trkpt lat="-24.8605630" lon="-53.7004650">
        <ele>624.9</ele>
        <time>2018-09-14T18:36:35Z</time>
      </trkpt>
      <trkpt lat="-24.8605200" lon="-53.7004420">
        <ele>624.7</ele>
        <time>2018-09-14T18:36:36Z</time>
      </trkpt>
      <trkpt lat="-24.8604780" lon="-53.7004180">
        <ele>624.5</ele>
        <time>2018-09-14T18:36:37Z</time>
      </trkpt>
      <trkpt lat="-24.8604360" lon="-53.7003940">
        <ele>624.3</ele>
        <time>2018-09-14T18:36:38Z</time>
      </trkpt>
      <trkpt lat="-24.8603940" lon="-53.7003690">
        <ele>624.2</ele>
        <time>2018-09-14T18:36:39Z</time>
      </trkpt>
      <trkpt lat="-24.8603520" lon="-53.7003440">
        <ele>623.8</ele>
        <time>2018-09-14T18:36:40Z</time>
      </trkpt>
      <trkpt lat="-24.8603110" lon="-53.7003180">
        <ele>623.5</ele>
        <time>2018-09-14T18:36:41Z</time>
      </trkpt>
      <trkpt lat="-24.8602710" lon="-53.7002930">
        <ele>623.3</ele>
        <time>2018-09-14T18:36:42Z</time>
      </trkpt>
      <trkpt lat="-24.8602310" lon="-53.7002700">
        <ele>623.1</ele>
        <time>2018-09-14T18:36:43Z</time>
      </trkpt>
      <trkpt lat="-24.8601910" lon="-53.7002470">
        <ele>623.1</ele>
        <time>2018-09-14T18:36:44Z</time>
      </trkpt>
      <trkpt lat="-24.8601500" lon="-53.7002230">
        <ele>623.3</ele>
        <time>2018-09-14T18:36:45Z</time>
      </trkpt>
      <trkpt lat="-24.8601100" lon="-53.7002000">
        <ele>623.6</ele>
        <time>2018-09-14T18:36:46Z</time>
      </trkpt>
      <trkpt lat="-24.8600690" lon="-53.7001770">
        <ele>624.1</ele>
        <time>2018-09-14T18:36:47Z</time>
      </trkpt>
      <trkpt lat="-24.8600690" lon="-53.7001770">
        <ele>624.1</ele>
        <time>2018-09-14T18:36:48Z</time>
      </trkpt>
      <trkpt lat="-24.8599860" lon="-53.7001300">
        <ele>625.0</ele>
        <time>2018-09-14T18:36:49Z</time>
      </trkpt>
      <trkpt lat="-24.8599860" lon="-53.7001300">
        <ele>625.0</ele>
        <time>2018-09-14T18:36:50Z</time>
      </trkpt>
      <trkpt lat="-24.8599460" lon="-53.7001060">
        <ele>625.4</ele>
        <time>2018-09-14T18:36:51Z</time>
      </trkpt>
      <trkpt lat="-24.8599040" lon="-53.7000830">
        <ele>625.7</ele>
        <time>2018-09-14T18:36:52Z</time>
      </trkpt>
      <trkpt lat="-24.8598630" lon="-53.7000580">
        <ele>626.0</ele>
        <time>2018-09-14T18:36:53Z</time>
      </trkpt>
      <trkpt lat="-24.8598230" lon="-53.7000340">
        <ele>626.2</ele>
        <time>2018-09-14T18:36:54Z</time>
      </trkpt>
      <trkpt lat="-24.8597820" lon="-53.7000110">
        <ele>626.4</ele>
        <time>2018-09-14T18:36:55Z</time>
      </trkpt>
      <trkpt lat="-24.8597410" lon="-53.6999880">
        <ele>626.5</ele>
        <time>2018-09-14T18:36:56Z</time>
      </trkpt>
      <trkpt lat="-24.8596990" lon="-53.6999650">
        <ele>626.5</ele>
        <time>2018-09-14T18:36:57Z</time>
      </trkpt>
      <trkpt lat="-24.8596570" lon="-53.6999410">
        <ele>626.5</ele>
        <time>2018-09-14T18:36:58Z</time>
      </trkpt>
      <trkpt lat="-24.8596140" lon="-53.6999180">
        <ele>626.4</ele>
        <time>2018-09-14T18:36:59Z</time>
      </trkpt>
      <trkpt lat="-24.8595700" lon="-53.6998960">
        <ele>626.3</ele>
        <time>2018-09-14T18:37:00Z</time>
      </trkpt>
      <trkpt lat="-24.8595270" lon="-53.6998700">
        <ele>626.2</ele>
        <time>2018-09-14T18:37:01Z</time>
      </trkpt>
      <trkpt lat="-24.8594840" lon="-53.6998460">
        <ele>626.0</ele>
        <time>2018-09-14T18:37:02Z</time>
      </trkpt>
      <trkpt lat="-24.8594400" lon="-53.6998230">
        <ele>625.6</ele>
        <time>2018-09-14T18:37:03Z</time>
      </trkpt>
      <trkpt lat="-24.8593950" lon="-53.6998000">
        <ele>625.0</ele>
        <time>2018-09-14T18:37:04Z</time>
      </trkpt>
      <trkpt lat="-24.8593510" lon="-53.6997770">
        <ele>624.4</ele>
        <time>2018-09-14T18:37:05Z</time>
      </trkpt>
      <trkpt lat="-24.8593080" lon="-53.6997520">
        <ele>623.7</ele>
        <time>2018-09-14T18:37:06Z</time>
      </trkpt>
      <trkpt lat="-24.8592630" lon="-53.6997280">
        <ele>623.2</ele>
        <time>2018-09-14T18:37:07Z</time>
      </trkpt>
      <trkpt lat="-24.8592190" lon="-53.6997050">
        <ele>622.9</ele>
        <time>2018-09-14T18:37:08Z</time>
      </trkpt>
      <trkpt lat="-24.8591750" lon="-53.6996830">
        <ele>622.8</ele>
        <time>2018-09-14T18:37:09Z</time>
      </trkpt>
      <trkpt lat="-24.8591300" lon="-53.6996620">
        <ele>622.8</ele>
        <time>2018-09-14T18:37:10Z</time>
      </trkpt>
      <trkpt lat="-24.8590840" lon="-53.6996410">
        <ele>622.7</ele>
        <time>2018-09-14T18:37:11Z</time>
      </trkpt>
      <trkpt lat="-24.8590380" lon="-53.6996200">
        <ele>622.6</ele>
        <time>2018-09-14T18:37:12Z</time>
      </trkpt>
      <trkpt lat="-24.8589920" lon="-53.6995980">
        <ele>622.4</ele>
        <time>2018-09-14T18:37:13Z</time>
      </trkpt>
      <trkpt lat="-24.8589470" lon="-53.6995750">
        <ele>622.3</ele>
        <time>2018-09-14T18:37:14Z</time>
      </trkpt>
      <trkpt lat="-24.8589010" lon="-53.6995540">
        <ele>622.4</ele>
        <time>2018-09-14T18:37:15Z</time>
      </trkpt>
      <trkpt lat="-24.8588540" lon="-53.6995330">
        <ele>622.5</ele>
        <time>2018-09-14T18:37:16Z</time>
      </trkpt>
      <trkpt lat="-24.8588070" lon="-53.6995120">
        <ele>622.6</ele>
        <time>2018-09-14T18:37:17Z</time>
      </trkpt>
      <trkpt lat="-24.8587590" lon="-53.6994920">
        <ele>623.0</ele>
        <time>2018-09-14T18:37:18Z</time>
      </trkpt>
      <trkpt lat="-24.8587120" lon="-53.6994710">
        <ele>623.4</ele>
        <time>2018-09-14T18:37:19Z</time>
      </trkpt>
      <trkpt lat="-24.8586630" lon="-53.6994500">
        <ele>624.0</ele>
        <time>2018-09-14T18:37:20Z</time>
      </trkpt>
      <trkpt lat="-24.8586150" lon="-53.6994300">
        <ele>624.6</ele>
        <time>2018-09-14T18:37:21Z</time>
      </trkpt>
      <trkpt lat="-24.8585650" lon="-53.6994110">
        <ele>625.1</ele>
        <time>2018-09-14T18:37:22Z</time>
      </trkpt>
      <trkpt lat="-24.8585160" lon="-53.6993920">
        <ele>625.4</ele>
        <time>2018-09-14T18:37:23Z</time>
      </trkpt>
      <trkpt lat="-24.8584660" lon="-53.6993750">
        <ele>625.7</ele>
        <time>2018-09-14T18:37:24Z</time>
      </trkpt>
      <trkpt lat="-24.8584170" lon="-53.6993590">
        <ele>625.8</ele>
        <time>2018-09-14T18:37:25Z</time>
      </trkpt>
      <trkpt lat="-24.8583690" lon="-53.6993420">
        <ele>625.9</ele>
        <time>2018-09-14T18:37:26Z</time>
      </trkpt>
      <trkpt lat="-24.8583210" lon="-53.6993260">
        <ele>626.1</ele>
        <time>2018-09-14T18:37:27Z</time>
      </trkpt>
      <trkpt lat="-24.8582730" lon="-53.6993100">
        <ele>626.2</ele>
        <time>2018-09-14T18:37:28Z</time>
      </trkpt>
      <trkpt lat="-24.8582260" lon="-53.6992940">
        <ele>626.2</ele>
        <time>2018-09-14T18:37:29Z</time>
      </trkpt>
      <trkpt lat="-24.8581810" lon="-53.6992790">
        <ele>626.3</ele>
        <time>2018-09-14T18:37:30Z</time>
      </trkpt>
      <trkpt lat="-24.8581340" lon="-53.6992640">
        <ele>626.4</ele>
        <time>2018-09-14T18:37:31Z</time>
      </trkpt>
      <trkpt lat="-24.8580880" lon="-53.6992500">
        <ele>626.4</ele>
        <time>2018-09-14T18:37:32Z</time>
      </trkpt>
      <trkpt lat="-24.8580410" lon="-53.6992380">
        <ele>626.4</ele>
        <time>2018-09-14T18:37:33Z</time>
      </trkpt>
      <trkpt lat="-24.8579950" lon="-53.6992250">
        <ele>626.4</ele>
        <time>2018-09-14T18:37:34Z</time>
      </trkpt>
      <trkpt lat="-24.8579500" lon="-53.6992120">
        <ele>626.3</ele>
        <time>2018-09-14T18:37:35Z</time>
      </trkpt>
      <trkpt lat="-24.8579040" lon="-53.6992000">
        <ele>626.3</ele>
        <time>2018-09-14T18:37:36Z</time>
      </trkpt>
      <trkpt lat="-24.8578590" lon="-53.6991870">
        <ele>626.3</ele>
        <time>2018-09-14T18:37:37Z</time>
      </trkpt>
      <trkpt lat="-24.8578130" lon="-53.6991740">
        <ele>626.1</ele>
        <time>2018-09-14T18:37:38Z</time>
      </trkpt>
      <trkpt lat="-24.8577680" lon="-53.6991600">
        <ele>625.9</ele>
        <time>2018-09-14T18:37:39Z</time>
      </trkpt>
      <trkpt lat="-24.8577240" lon="-53.6991450">
        <ele>625.6</ele>
        <time>2018-09-14T18:37:40Z</time>
      </trkpt>
      <trkpt lat="-24.8576800" lon="-53.6991320">
        <ele>625.5</ele>
        <time>2018-09-14T18:37:41Z</time>
      </trkpt>
      <trkpt lat="-24.8576340" lon="-53.6991190">
        <ele>625.5</ele>
        <time>2018-09-14T18:37:42Z</time>
      </trkpt>
      <trkpt lat="-24.8575880" lon="-53.6991050">
        <ele>625.5</ele>
        <time>2018-09-14T18:37:43Z</time>
      </trkpt>
      <trkpt lat="-24.8575420" lon="-53.6990890">
        <ele>625.6</ele>
        <time>2018-09-14T18:37:44Z</time>
      </trkpt>
      <trkpt lat="-24.8574970" lon="-53.6990710">
        <ele>625.5</ele>
        <time>2018-09-14T18:37:45Z</time>
      </trkpt>
      <trkpt lat="-24.8574510" lon="-53.6990530">
        <ele>625.5</ele>
        <time>2018-09-14T18:37:46Z</time>
      </trkpt>
      <trkpt lat="-24.8574060" lon="-53.6990350">
        <ele>625.2</ele>
        <time>2018-09-14T18:37:47Z</time>
      </trkpt>
      <trkpt lat="-24.8573610" lon="-53.6990150">
        <ele>624.9</ele>
        <time>2018-09-14T18:37:48Z</time>
      </trkpt>
      <trkpt lat="-24.8573170" lon="-53.6989940">
        <ele>624.6</ele>
        <time>2018-09-14T18:37:49Z</time>
      </trkpt>
      <trkpt lat="-24.8572720" lon="-53.6989730">
        <ele>624.4</ele>
        <time>2018-09-14T18:37:50Z</time>
      </trkpt>
      <trkpt lat="-24.8572280" lon="-53.6989510">
        <ele>624.4</ele>
        <time>2018-09-14T18:37:51Z</time>
      </trkpt>
      <trkpt lat="-24.8571830" lon="-53.6989290">
        <ele>624.5</ele>
        <time>2018-09-14T18:37:52Z</time>
      </trkpt>
      <trkpt lat="-24.8571390" lon="-53.6989060">
        <ele>624.6</ele>
        <time>2018-09-14T18:37:53Z</time>
      </trkpt>
      <trkpt lat="-24.8570960" lon="-53.6988820">
        <ele>624.6</ele>
        <time>2018-09-14T18:37:54Z</time>
      </trkpt>
      <trkpt lat="-24.8570530" lon="-53.6988560">
        <ele>624.7</ele>
        <time>2018-09-14T18:37:55Z</time>
      </trkpt>
      <trkpt lat="-24.8570110" lon="-53.6988320">
        <ele>624.5</ele>
        <time>2018-09-14T18:37:56Z</time>
      </trkpt>
      <trkpt lat="-24.8569680" lon="-53.6988050">
        <ele>624.2</ele>
        <time>2018-09-14T18:37:57Z</time>
      </trkpt>
      <trkpt lat="-24.8569280" lon="-53.6987760">
        <ele>624.0</ele>
        <time>2018-09-14T18:37:58Z</time>
      </trkpt>
      <trkpt lat="-24.8568880" lon="-53.6987470">
        <ele>623.8</ele>
        <time>2018-09-14T18:37:59Z</time>
      </trkpt>
      <trkpt lat="-24.8568490" lon="-53.6987170">
        <ele>623.3</ele>
        <time>2018-09-14T18:38:00Z</time>
      </trkpt>
      <trkpt lat="-24.8568100" lon="-53.6986870">
        <ele>623.0</ele>
        <time>2018-09-14T18:38:01Z</time>
      </trkpt>
      <trkpt lat="-24.8567720" lon="-53.6986560">
        <ele>623.1</ele>
        <time>2018-09-14T18:38:02Z</time>
      </trkpt>
      <trkpt lat="-24.8567350" lon="-53.6986220">
        <ele>623.1</ele>
        <time>2018-09-14T18:38:03Z</time>
      </trkpt>
      <trkpt lat="-24.8567000" lon="-53.6985850">
        <ele>623.0</ele>
        <time>2018-09-14T18:38:04Z</time>
      </trkpt>
      <trkpt lat="-24.8566660" lon="-53.6985480">
        <ele>623.0</ele>
        <time>2018-09-14T18:38:05Z</time>
      </trkpt>
      <trkpt lat="-24.8566320" lon="-53.6985100">
        <ele>622.9</ele>
        <time>2018-09-14T18:38:06Z</time>
      </trkpt>
      <trkpt lat="-24.8565980" lon="-53.6984710">
        <ele>623.1</ele>
        <time>2018-09-14T18:38:07Z</time>
      </trkpt>
      <trkpt lat="-24.8565660" lon="-53.6984300">
        <ele>623.2</ele>
        <time>2018-09-14T18:38:08Z</time>
      </trkpt>
      <trkpt lat="-24.8565370" lon="-53.6983890">
        <ele>623.4</ele>
        <time>2018-09-14T18:38:09Z</time>
      </trkpt>
      <trkpt lat="-24.8565090" lon="-53.6983480">
        <ele>623.6</ele>
        <time>2018-09-14T18:38:10Z</time>
      </trkpt>
      <trkpt lat="-24.8564820" lon="-53.6983080">
        <ele>623.9</ele>
        <time>2018-09-14T18:38:11Z</time>
      </trkpt>
      <trkpt lat="-24.8564550" lon="-53.6982670">
        <ele>624.1</ele>
        <time>2018-09-14T18:38:12Z</time>
      </trkpt>
      <trkpt lat="-24.8564280" lon="-53.6982250">
        <ele>624.1</ele>
        <time>2018-09-14T18:38:13Z</time>
      </trkpt>
      <trkpt lat="-24.8564030" lon="-53.6981810">
        <ele>624.1</ele>
        <time>2018-09-14T18:38:14Z</time>
      </trkpt>
      <trkpt lat="-24.8563800" lon="-53.6981360">
        <ele>624.0</ele>
        <time>2018-09-14T18:38:15Z</time>
      </trkpt>
      <trkpt lat="-24.8563580" lon="-53.6980910">
        <ele>624.0</ele>
        <time>2018-09-14T18:38:16Z</time>
      </trkpt>
      <trkpt lat="-24.8563380" lon="-53.6980440">
        <ele>624.1</ele>
        <time>2018-09-14T18:38:17Z</time>
      </trkpt>
      <trkpt lat="-24.8563190" lon="-53.6979960">
        <ele>624.0</ele>
        <time>2018-09-14T18:38:18Z</time>
      </trkpt>
      <trkpt lat="-24.8563000" lon="-53.6979470">
        <ele>623.9</ele>
        <time>2018-09-14T18:38:19Z</time>
      </trkpt>
      <trkpt lat="-24.8562830" lon="-53.6978960">
        <ele>623.9</ele>
        <time>2018-09-14T18:38:20Z</time>
      </trkpt>
      <trkpt lat="-24.8562670" lon="-53.6978460">
        <ele>623.9</ele>
        <time>2018-09-14T18:38:21Z</time>
      </trkpt>
      <trkpt lat="-24.8562510" lon="-53.6977940">
        <ele>623.9</ele>
        <time>2018-09-14T18:38:22Z</time>
      </trkpt>
      <trkpt lat="-24.8562360" lon="-53.6977410">
        <ele>623.9</ele>
        <time>2018-09-14T18:38:23Z</time>
      </trkpt>
      <trkpt lat="-24.8562240" lon="-53.6976870">
        <ele>623.7</ele>
        <time>2018-09-14T18:38:24Z</time>
      </trkpt>
      <trkpt lat="-24.8562150" lon="-53.6976330">
        <ele>623.5</ele>
        <time>2018-09-14T18:38:25Z</time>
      </trkpt>
      <trkpt lat="-24.8562070" lon="-53.6975800">
        <ele>623.2</ele>
        <time>2018-09-14T18:38:26Z</time>
      </trkpt>
      <trkpt lat="-24.8561980" lon="-53.6975270">
        <ele>623.2</ele>
        <time>2018-09-14T18:38:27Z</time>
      </trkpt>
      <trkpt lat="-24.8561800" lon="-53.6974220">
        <ele>623.3</ele>
        <time>2018-09-14T18:38:28Z</time>
      </trkpt>
      <trkpt lat="-24.8561700" lon="-53.6973700">
        <ele>623.3</ele>
        <time>2018-09-14T18:38:29Z</time>
      </trkpt>
      <trkpt lat="-24.8561590" lon="-53.6973160">
        <ele>623.3</ele>
        <time>2018-09-14T18:38:30Z</time>
      </trkpt>
      <trkpt lat="-24.8561470" lon="-53.6972620">
        <ele>623.4</ele>
        <time>2018-09-14T18:38:31Z</time>
      </trkpt>
      <trkpt lat="-24.8561330" lon="-53.6972100">
        <ele>623.5</ele>
        <time>2018-09-14T18:38:32Z</time>
      </trkpt>
      <trkpt lat="-24.8561180" lon="-53.6971580">
        <ele>623.2</ele>
        <time>2018-09-14T18:38:33Z</time>
      </trkpt>
      <trkpt lat="-24.8561020" lon="-53.6971060">
        <ele>623.0</ele>
        <time>2018-09-14T18:38:34Z</time>
      </trkpt>
      <trkpt lat="-24.8560880" lon="-53.6970540">
        <ele>623.0</ele>
        <time>2018-09-14T18:38:35Z</time>
      </trkpt>
      <trkpt lat="-24.8560740" lon="-53.6970020">
        <ele>623.1</ele>
        <time>2018-09-14T18:38:36Z</time>
      </trkpt>
      <trkpt lat="-24.8560440" lon="-53.6969010">
        <ele>623.3</ele>
        <time>2018-09-14T18:38:38Z</time>
      </trkpt>
      <trkpt lat="-24.8560280" lon="-53.6968510">
        <ele>623.3</ele>
        <time>2018-09-14T18:38:39Z</time>
      </trkpt>
      <trkpt lat="-24.8560130" lon="-53.6968010">
        <ele>623.0</ele>
        <time>2018-09-14T18:38:40Z</time>
      </trkpt>
      <trkpt lat="-24.8559970" lon="-53.6967490">
        <ele>622.6</ele>
        <time>2018-09-14T18:38:41Z</time>
      </trkpt>
      <trkpt lat="-24.8559820" lon="-53.6966990">
        <ele>622.3</ele>
        <time>2018-09-14T18:38:42Z</time>
      </trkpt>
      <trkpt lat="-24.8559680" lon="-53.6966500">
        <ele>622.2</ele>
        <time>2018-09-14T18:38:43Z</time>
      </trkpt>
      <trkpt lat="-24.8559520" lon="-53.6966010">
        <ele>622.4</ele>
        <time>2018-09-14T18:38:44Z</time>
      </trkpt>
      <trkpt lat="-24.8559360" lon="-53.6965520">
        <ele>622.6</ele>
        <time>2018-09-14T18:38:45Z</time>
      </trkpt>
      <trkpt lat="-24.8559220" lon="-53.6965030">
        <ele>622.9</ele>
        <time>2018-09-14T18:38:46Z</time>
      </trkpt>
      <trkpt lat="-24.8559060" lon="-53.6964530">
        <ele>623.3</ele>
        <time>2018-09-14T18:38:47Z</time>
      </trkpt>
      <trkpt lat="-24.8558920" lon="-53.6964050">
        <ele>623.6</ele>
        <time>2018-09-14T18:38:48Z</time>
      </trkpt>
      <trkpt lat="-24.8558790" lon="-53.6963570">
        <ele>624.0</ele>
        <time>2018-09-14T18:38:49Z</time>
      </trkpt>
      <trkpt lat="-24.8558650" lon="-53.6963090">
        <ele>624.4</ele>
        <time>2018-09-14T18:38:50Z</time>
      </trkpt>
      <trkpt lat="-24.8558510" lon="-53.6962610">
        <ele>624.6</ele>
        <time>2018-09-14T18:38:51Z</time>
      </trkpt>
      <trkpt lat="-24.8558360" lon="-53.6962130">
        <ele>624.7</ele>
        <time>2018-09-14T18:38:52Z</time>
      </trkpt>
      <trkpt lat="-24.8558220" lon="-53.6961640">
        <ele>624.7</ele>
        <time>2018-09-14T18:38:53Z</time>
      </trkpt>
      <trkpt lat="-24.8558090" lon="-53.6961150">
        <ele>624.7</ele>
        <time>2018-09-14T18:38:54Z</time>
      </trkpt>
      <trkpt lat="-24.8557960" lon="-53.6960660">
        <ele>624.8</ele>
        <time>2018-09-14T18:38:55Z</time>
      </trkpt>
      <trkpt lat="-24.8557820" lon="-53.6960160">
        <ele>624.9</ele>
        <time>2018-09-14T18:38:56Z</time>
      </trkpt>
      <trkpt lat="-24.8557690" lon="-53.6959660">
        <ele>625.0</ele>
        <time>2018-09-14T18:38:57Z</time>
      </trkpt>
      <trkpt lat="-24.8557600" lon="-53.6959170">
        <ele>625.1</ele>
        <time>2018-09-14T18:38:58Z</time>
      </trkpt>
      <trkpt lat="-24.8557540" lon="-53.6958660">
        <ele>625.2</ele>
        <time>2018-09-14T18:38:59Z</time>
      </trkpt>
      <trkpt lat="-24.8557460" lon="-53.6958190">
        <ele>625.1</ele>
        <time>2018-09-14T18:39:00Z</time>
      </trkpt>
      <trkpt lat="-24.8557410" lon="-53.6957720">
        <ele>624.9</ele>
        <time>2018-09-14T18:39:01Z</time>
      </trkpt>
      <trkpt lat="-24.8557360" lon="-53.6957270">
        <ele>624.7</ele>
        <time>2018-09-14T18:39:02Z</time>
      </trkpt>
      <trkpt lat="-24.8557290" lon="-53.6956850">
        <ele>624.5</ele>
        <time>2018-09-14T18:39:03Z</time>
      </trkpt>
      <trkpt lat="-24.8557170" lon="-53.6956480">
        <ele>624.4</ele>
        <time>2018-09-14T18:39:04Z</time>
      </trkpt>
      <trkpt lat="-24.8557030" lon="-53.6956220">
        <ele>624.3</ele>
        <time>2018-09-14T18:39:05Z</time>
      </trkpt>
      <trkpt lat="-24.8556910" lon="-53.6956070">
        <ele>624.2</ele>
        <time>2018-09-14T18:39:06Z</time>
      </trkpt>
      <trkpt lat="-24.8556770" lon="-53.6955950">
        <ele>624.2</ele>
        <time>2018-09-14T18:39:07Z</time>
      </trkpt>
      <trkpt lat="-24.8556610" lon="-53.6955810">
        <ele>624.1</ele>
        <time>2018-09-14T18:39:08Z</time>
      </trkpt>
      <trkpt lat="-24.8556460" lon="-53.6955700">
        <ele>624.0</ele>
        <time>2018-09-14T18:39:09Z</time>
      </trkpt>
      <trkpt lat="-24.8556390" lon="-53.6955660">
        <ele>624.0</ele>
        <time>2018-09-14T18:39:10Z</time>
      </trkpt>
      <trkpt lat="-24.8556360" lon="-53.6955630">
        <ele>624.0</ele>
        <time>2018-09-14T18:39:11Z</time>
      </trkpt>
      <trkpt lat="-24.8556360" lon="-53.6955620">
        <ele>624.0</ele>
        <time>2018-09-14T18:39:12Z</time>
      </trkpt>
      <trkpt lat="-24.8556360" lon="-53.6955630">
        <ele>624.0</ele>
        <time>2018-09-14T18:39:13Z</time>
      </trkpt>
      <trkpt lat="-24.8556270" lon="-53.6955680">
        <ele>624.0</ele>
        <time>2018-09-14T18:40:42Z</time>
      </trkpt>
      <trkpt lat="-24.8556230" lon="-53.6955590">
        <ele>624.0</ele>
        <time>2018-09-14T18:40:43Z</time>
      </trkpt>
      <trkpt lat="-24.8556150" lon="-53.6955520">
        <ele>624.0</ele>
        <time>2018-09-14T18:40:44Z</time>
      </trkpt>
      <trkpt lat="-24.8555990" lon="-53.6955370">
        <ele>624.0</ele>
        <time>2018-09-14T18:40:45Z</time>
      </trkpt>
      <trkpt lat="-24.8555770" lon="-53.6955160">
        <ele>623.8</ele>
        <time>2018-09-14T18:40:46Z</time>
      </trkpt>
      <trkpt lat="-24.8555490" lon="-53.6954890">
        <ele>623.5</ele>
        <time>2018-09-14T18:40:47Z</time>
      </trkpt>
      <trkpt lat="-24.8555140" lon="-53.6954590">
        <ele>623.1</ele>
        <time>2018-09-14T18:40:48Z</time>
      </trkpt>
      <trkpt lat="-24.8554750" lon="-53.6954290">
        <ele>622.4</ele>
        <time>2018-09-14T18:40:49Z</time>
      </trkpt>
      <trkpt lat="-24.8554350" lon="-53.6954000">
        <ele>621.8</ele>
        <time>2018-09-14T18:40:50Z</time>
      </trkpt>
      <trkpt lat="-24.8553940" lon="-53.6953700">
        <ele>621.3</ele>
        <time>2018-09-14T18:40:51Z</time>
      </trkpt>
      <trkpt lat="-24.8553530" lon="-53.6953430">
        <ele>621.0</ele>
        <time>2018-09-14T18:40:52Z</time>
      </trkpt>
      <trkpt lat="-24.8553110" lon="-53.6953170">
        <ele>620.8</ele>
        <time>2018-09-14T18:40:53Z</time>
      </trkpt>
      <trkpt lat="-24.8552700" lon="-53.6952930">
        <ele>620.6</ele>
        <time>2018-09-14T18:40:54Z</time>
      </trkpt>
      <trkpt lat="-24.8552300" lon="-53.6952690">
        <ele>620.5</ele>
        <time>2018-09-14T18:40:55Z</time>
      </trkpt>
      <trkpt lat="-24.8551930" lon="-53.6952470">
        <ele>620.3</ele>
        <time>2018-09-14T18:40:56Z</time>
      </trkpt>
      <trkpt lat="-24.8551580" lon="-53.6952260">
        <ele>620.0</ele>
        <time>2018-09-14T18:40:57Z</time>
      </trkpt>
      <trkpt lat="-24.8551200" lon="-53.6952030">
        <ele>619.7</ele>
        <time>2018-09-14T18:40:58Z</time>
      </trkpt>
      <trkpt lat="-24.8550740" lon="-53.6951770">
        <ele>619.3</ele>
        <time>2018-09-14T18:40:59Z</time>
      </trkpt>
      <trkpt lat="-24.8550240" lon="-53.6951460">
        <ele>619.0</ele>
        <time>2018-09-14T18:41:00Z</time>
      </trkpt>
      <trkpt lat="-24.8549730" lon="-53.6951130">
        <ele>618.8</ele>
        <time>2018-09-14T18:41:01Z</time>
      </trkpt>
      <trkpt lat="-24.8549210" lon="-53.6950800">
        <ele>618.8</ele>
        <time>2018-09-14T18:41:02Z</time>
      </trkpt>
      <trkpt lat="-24.8548680" lon="-53.6950480">
        <ele>618.9</ele>
        <time>2018-09-14T18:41:03Z</time>
      </trkpt>
      <trkpt lat="-24.8548180" lon="-53.6950170">
        <ele>618.9</ele>
        <time>2018-09-14T18:41:04Z</time>
      </trkpt>
      <trkpt lat="-24.8547660" lon="-53.6949880">
        <ele>618.7</ele>
        <time>2018-09-14T18:41:05Z</time>
      </trkpt>
      <trkpt lat="-24.8547100" lon="-53.6949580">
        <ele>618.1</ele>
        <time>2018-09-14T18:41:06Z</time>
      </trkpt>
      <trkpt lat="-24.8546500" lon="-53.6949270">
        <ele>617.2</ele>
        <time>2018-09-14T18:41:07Z</time>
      </trkpt>
      <trkpt lat="-24.8545920" lon="-53.6948950">
        <ele>616.1</ele>
        <time>2018-09-14T18:41:08Z</time>
      </trkpt>
      <trkpt lat="-24.8545320" lon="-53.6948610">
        <ele>615.0</ele>
        <time>2018-09-14T18:41:09Z</time>
      </trkpt>
      <trkpt lat="-24.8544760" lon="-53.6948320">
        <ele>614.1</ele>
        <time>2018-09-14T18:41:10Z</time>
      </trkpt>
      <trkpt lat="-24.8544200" lon="-53.6948020">
        <ele>613.2</ele>
        <time>2018-09-14T18:41:11Z</time>
      </trkpt>
      <trkpt lat="-24.8543540" lon="-53.6947670">
        <ele>612.0</ele>
        <time>2018-09-14T18:41:12Z</time>
      </trkpt>
      <trkpt lat="-24.8542850" lon="-53.6947300">
        <ele>611.3</ele>
        <time>2018-09-14T18:41:13Z</time>
      </trkpt>
      <trkpt lat="-24.8542170" lon="-53.6946910">
        <ele>611.2</ele>
        <time>2018-09-14T18:41:14Z</time>
      </trkpt>
      <trkpt lat="-24.8541490" lon="-53.6946520">
        <ele>611.2</ele>
        <time>2018-09-14T18:41:15Z</time>
      </trkpt>
      <trkpt lat="-24.8540810" lon="-53.6946130">
        <ele>611.3</ele>
        <time>2018-09-14T18:41:16Z</time>
      </trkpt>
      <trkpt lat="-24.8540160" lon="-53.6945750">
        <ele>611.4</ele>
        <time>2018-09-14T18:41:17Z</time>
      </trkpt>
      <trkpt lat="-24.8539510" lon="-53.6945380">
        <ele>611.5</ele>
        <time>2018-09-14T18:41:18Z</time>
      </trkpt>
      <trkpt lat="-24.8538800" lon="-53.6944960">
        <ele>611.6</ele>
        <time>2018-09-14T18:41:19Z</time>
      </trkpt>
      <trkpt lat="-24.8538070" lon="-53.6944530">
        <ele>611.6</ele>
        <time>2018-09-14T18:41:20Z</time>
      </trkpt>
      <trkpt lat="-24.8537360" lon="-53.6944110">
        <ele>611.3</ele>
        <time>2018-09-14T18:41:21Z</time>
      </trkpt>
      <trkpt lat="-24.8536650" lon="-53.6943690">
        <ele>610.9</ele>
        <time>2018-09-14T18:41:22Z</time>
      </trkpt>
      <trkpt lat="-24.8535890" lon="-53.6943250">
        <ele>610.4</ele>
        <time>2018-09-14T18:41:23Z</time>
      </trkpt>
      <trkpt lat="-24.8535120" lon="-53.6942790">
        <ele>610.0</ele>
        <time>2018-09-14T18:41:24Z</time>
      </trkpt>
      <trkpt lat="-24.8534370" lon="-53.6942350">
        <ele>609.6</ele>
        <time>2018-09-14T18:41:25Z</time>
      </trkpt>
      <trkpt lat="-24.8533610" lon="-53.6941910">
        <ele>609.2</ele>
        <time>2018-09-14T18:41:26Z</time>
      </trkpt>
      <trkpt lat="-24.8532790" lon="-53.6941420">
        <ele>608.6</ele>
        <time>2018-09-14T18:41:27Z</time>
      </trkpt>
      <trkpt lat="-24.8531940" lon="-53.6940920">
        <ele>608.0</ele>
        <time>2018-09-14T18:41:28Z</time>
      </trkpt>
      <trkpt lat="-24.8531080" lon="-53.6940450">
        <ele>607.4</ele>
        <time>2018-09-14T18:41:29Z</time>
      </trkpt>
      <trkpt lat="-24.8530230" lon="-53.6940000">
        <ele>607.1</ele>
        <time>2018-09-14T18:41:30Z</time>
      </trkpt>
      <trkpt lat="-24.8529370" lon="-53.6939560">
        <ele>607.2</ele>
        <time>2018-09-14T18:41:31Z</time>
      </trkpt>
      <trkpt lat="-24.8528440" lon="-53.6939100">
        <ele>607.4</ele>
        <time>2018-09-14T18:41:32Z</time>
      </trkpt>
      <trkpt lat="-24.8527500" lon="-53.6938630">
        <ele>607.5</ele>
        <time>2018-09-14T18:41:33Z</time>
      </trkpt>
      <trkpt lat="-24.8526590" lon="-53.6938170">
        <ele>606.8</ele>
        <time>2018-09-14T18:41:34Z</time>
      </trkpt>
      <trkpt lat="-24.8525660" lon="-53.6937690">
        <ele>605.7</ele>
        <time>2018-09-14T18:41:35Z</time>
      </trkpt>
      <trkpt lat="-24.8524690" lon="-53.6937160">
        <ele>605.0</ele>
        <time>2018-09-14T18:41:36Z</time>
      </trkpt>
      <trkpt lat="-24.8523760" lon="-53.6936610">
        <ele>604.6</ele>
        <time>2018-09-14T18:41:37Z</time>
      </trkpt>
      <trkpt lat="-24.8522940" lon="-53.6936130">
        <ele>604.2</ele>
        <time>2018-09-14T18:41:38Z</time>
      </trkpt>
      <trkpt lat="-24.8522140" lon="-53.6935660">
        <ele>603.5</ele>
        <time>2018-09-14T18:41:39Z</time>
      </trkpt>
      <trkpt lat="-24.8521300" lon="-53.6935170">
        <ele>602.5</ele>
        <time>2018-09-14T18:41:40Z</time>
      </trkpt>
      <trkpt lat="-24.8520520" lon="-53.6934680">
        <ele>601.5</ele>
        <time>2018-09-14T18:41:41Z</time>
      </trkpt>
      <trkpt lat="-24.8519800" lon="-53.6934240">
        <ele>600.7</ele>
        <time>2018-09-14T18:41:42Z</time>
      </trkpt>
      <trkpt lat="-24.8519020" lon="-53.6933790">
        <ele>599.8</ele>
        <time>2018-09-14T18:41:43Z</time>
      </trkpt>
      <trkpt lat="-24.8518240" lon="-53.6933340">
        <ele>599.0</ele>
        <time>2018-09-14T18:41:44Z</time>
      </trkpt>
      <trkpt lat="-24.8517550" lon="-53.6932970">
        <ele>598.5</ele>
        <time>2018-09-14T18:41:45Z</time>
      </trkpt>
      <trkpt lat="-24.8516840" lon="-53.6932570">
        <ele>598.2</ele>
        <time>2018-09-14T18:41:46Z</time>
      </trkpt>
      <trkpt lat="-24.8516130" lon="-53.6932160">
        <ele>598.4</ele>
        <time>2018-09-14T18:41:47Z</time>
      </trkpt>
      <trkpt lat="-24.8515490" lon="-53.6931790">
        <ele>598.3</ele>
        <time>2018-09-14T18:41:48Z</time>
      </trkpt>
      <trkpt lat="-24.8514940" lon="-53.6931450">
        <ele>598.2</ele>
        <time>2018-09-14T18:41:49Z</time>
      </trkpt>
      <trkpt lat="-24.8514350" lon="-53.6931050">
        <ele>598.1</ele>
        <time>2018-09-14T18:41:50Z</time>
      </trkpt>
      <trkpt lat="-24.8513700" lon="-53.6930490">
        <ele>597.5</ele>
        <time>2018-09-14T18:41:51Z</time>
      </trkpt>
      <trkpt lat="-24.8513130" lon="-53.6929820">
        <ele>596.6</ele>
        <time>2018-09-14T18:41:52Z</time>
      </trkpt>
      <trkpt lat="-24.8512660" lon="-53.6929050">
        <ele>595.8</ele>
        <time>2018-09-14T18:41:53Z</time>
      </trkpt>
      <trkpt lat="-24.8512360" lon="-53.6928240">
        <ele>595.0</ele>
        <time>2018-09-14T18:41:54Z</time>
      </trkpt>
      <trkpt lat="-24.8512200" lon="-53.6927410">
        <ele>595.3</ele>
        <time>2018-09-14T18:41:55Z</time>
      </trkpt>
      <trkpt lat="-24.8512120" lon="-53.6926590">
        <ele>595.8</ele>
        <time>2018-09-14T18:41:56Z</time>
      </trkpt>
      <trkpt lat="-24.8512040" lon="-53.6925800">
        <ele>596.3</ele>
        <time>2018-09-14T18:41:57Z</time>
      </trkpt>
      <trkpt lat="-24.8511940" lon="-53.6925040">
        <ele>596.6</ele>
        <time>2018-09-14T18:41:58Z</time>
      </trkpt>
      <trkpt lat="-24.8511670" lon="-53.6923660">
        <ele>596.8</ele>
        <time>2018-09-14T18:41:59Z</time>
      </trkpt>
      <trkpt lat="-24.8511520" lon="-53.6923020">
        <ele>596.9</ele>
        <time>2018-09-14T18:42:01Z</time>
      </trkpt>
      <trkpt lat="-24.8511360" lon="-53.6922420">
        <ele>597.1</ele>
        <time>2018-09-14T18:42:02Z</time>
      </trkpt>
      <trkpt lat="-24.8511230" lon="-53.6921830">
        <ele>597.4</ele>
        <time>2018-09-14T18:42:03Z</time>
      </trkpt>
      <trkpt lat="-24.8511100" lon="-53.6921240">
        <ele>598.0</ele>
        <time>2018-09-14T18:42:04Z</time>
      </trkpt>
      <trkpt lat="-24.8510930" lon="-53.6920650">
        <ele>598.5</ele>
        <time>2018-09-14T18:42:05Z</time>
      </trkpt>
      <trkpt lat="-24.8510740" lon="-53.6920060">
        <ele>598.9</ele>
        <time>2018-09-14T18:42:06Z</time>
      </trkpt>
      <trkpt lat="-24.8510510" lon="-53.6919490">
        <ele>598.7</ele>
        <time>2018-09-14T18:42:07Z</time>
      </trkpt>
      <trkpt lat="-24.8510260" lon="-53.6918910">
        <ele>598.3</ele>
        <time>2018-09-14T18:42:08Z</time>
      </trkpt>
      <trkpt lat="-24.8510000" lon="-53.6918360">
        <ele>598.3</ele>
        <time>2018-09-14T18:42:09Z</time>
      </trkpt>
      <trkpt lat="-24.8509720" lon="-53.6917800">
        <ele>598.1</ele>
        <time>2018-09-14T18:42:10Z</time>
      </trkpt>
      <trkpt lat="-24.8509120" lon="-53.6916710">
        <ele>597.1</ele>
        <time>2018-09-14T18:42:11Z</time>
      </trkpt>
      <trkpt lat="-24.8508800" lon="-53.6916190">
        <ele>596.6</ele>
        <time>2018-09-14T18:42:12Z</time>
      </trkpt>
      <trkpt lat="-24.8508460" lon="-53.6915670">
        <ele>596.1</ele>
        <time>2018-09-14T18:42:13Z</time>
      </trkpt>
      <trkpt lat="-24.8508100" lon="-53.6915170">
        <ele>595.8</ele>
        <time>2018-09-14T18:42:14Z</time>
      </trkpt>
      <trkpt lat="-24.8507720" lon="-53.6914670">
        <ele>595.6</ele>
        <time>2018-09-14T18:42:15Z</time>
      </trkpt>
      <trkpt lat="-24.8507340" lon="-53.6914180">
        <ele>595.4</ele>
        <time>2018-09-14T18:42:16Z</time>
      </trkpt>
      <trkpt lat="-24.8506950" lon="-53.6913690">
        <ele>595.3</ele>
        <time>2018-09-14T18:42:17Z</time>
      </trkpt>
      <trkpt lat="-24.8506530" lon="-53.6913230">
        <ele>594.9</ele>
        <time>2018-09-14T18:42:18Z</time>
      </trkpt>
      <trkpt lat="-24.8506110" lon="-53.6912770">
        <ele>594.7</ele>
        <time>2018-09-14T18:42:19Z</time>
      </trkpt>
      <trkpt lat="-24.8505680" lon="-53.6912320">
        <ele>594.6</ele>
        <time>2018-09-14T18:42:20Z</time>
      </trkpt>
      <trkpt lat="-24.8505230" lon="-53.6911880">
        <ele>595.3</ele>
        <time>2018-09-14T18:42:21Z</time>
      </trkpt>
      <trkpt lat="-24.8504310" lon="-53.6911050">
        <ele>596.6</ele>
        <time>2018-09-14T18:42:23Z</time>
      </trkpt>
      <trkpt lat="-24.8503850" lon="-53.6910640">
        <ele>597.4</ele>
        <time>2018-09-14T18:42:24Z</time>
      </trkpt>
      <trkpt lat="-24.8503380" lon="-53.6910240">
        <ele>598.0</ele>
        <time>2018-09-14T18:42:25Z</time>
      </trkpt>
      <trkpt lat="-24.8502900" lon="-53.6909860">
        <ele>598.0</ele>
        <time>2018-09-14T18:42:26Z</time>
      </trkpt>
      <trkpt lat="-24.8502400" lon="-53.6909490">
        <ele>597.9</ele>
        <time>2018-09-14T18:42:27Z</time>
      </trkpt>
      <trkpt lat="-24.8501900" lon="-53.6909130">
        <ele>597.8</ele>
        <time>2018-09-14T18:42:28Z</time>
      </trkpt>
      <trkpt lat="-24.8501410" lon="-53.6908760">
        <ele>597.5</ele>
        <time>2018-09-14T18:42:29Z</time>
      </trkpt>
      <trkpt lat="-24.8500910" lon="-53.6908400">
        <ele>597.7</ele>
        <time>2018-09-14T18:42:30Z</time>
      </trkpt>
      <trkpt lat="-24.8500400" lon="-53.6908050">
        <ele>597.5</ele>
        <time>2018-09-14T18:42:31Z</time>
      </trkpt>
      <trkpt lat="-24.8499900" lon="-53.6907680">
        <ele>596.9</ele>
        <time>2018-09-14T18:42:32Z</time>
      </trkpt>
      <trkpt lat="-24.8499420" lon="-53.6907300">
        <ele>596.3</ele>
        <time>2018-09-14T18:42:33Z</time>
      </trkpt>
      <trkpt lat="-24.8498950" lon="-53.6906900">
        <ele>595.8</ele>
        <time>2018-09-14T18:42:34Z</time>
      </trkpt>
      <trkpt lat="-24.8498490" lon="-53.6906490">
        <ele>595.6</ele>
        <time>2018-09-14T18:42:35Z</time>
      </trkpt>
      <trkpt lat="-24.8498040" lon="-53.6906070">
        <ele>595.5</ele>
        <time>2018-09-14T18:42:36Z</time>
      </trkpt>
      <trkpt lat="-24.8497610" lon="-53.6905630">
        <ele>595.3</ele>
        <time>2018-09-14T18:42:37Z</time>
      </trkpt>
      <trkpt lat="-24.8497220" lon="-53.6905160">
        <ele>595.1</ele>
        <time>2018-09-14T18:42:38Z</time>
      </trkpt>
      <trkpt lat="-24.8496850" lon="-53.6904650">
        <ele>594.7</ele>
        <time>2018-09-14T18:42:39Z</time>
      </trkpt>
      <trkpt lat="-24.8496520" lon="-53.6904130">
        <ele>594.4</ele>
        <time>2018-09-14T18:42:40Z</time>
      </trkpt>
      <trkpt lat="-24.8496210" lon="-53.6903580">
        <ele>594.3</ele>
        <time>2018-09-14T18:42:41Z</time>
      </trkpt>
      <trkpt lat="-24.8495960" lon="-53.6903000">
        <ele>594.3</ele>
        <time>2018-09-14T18:42:42Z</time>
      </trkpt>
      <trkpt lat="-24.8495750" lon="-53.6902400">
        <ele>594.3</ele>
        <time>2018-09-14T18:42:43Z</time>
      </trkpt>
      <trkpt lat="-24.8495570" lon="-53.6901800">
        <ele>594.1</ele>
        <time>2018-09-14T18:42:44Z</time>
      </trkpt>
      <trkpt lat="-24.8495440" lon="-53.6901180">
        <ele>594.6</ele>
        <time>2018-09-14T18:42:45Z</time>
      </trkpt>
      <trkpt lat="-24.8495370" lon="-53.6900560">
        <ele>595.1</ele>
        <time>2018-09-14T18:42:46Z</time>
      </trkpt>
      <trkpt lat="-24.8495340" lon="-53.6899930">
        <ele>595.5</ele>
        <time>2018-09-14T18:42:47Z</time>
      </trkpt>
      <trkpt lat="-24.8495340" lon="-53.6899300">
        <ele>596.0</ele>
        <time>2018-09-14T18:42:48Z</time>
      </trkpt>
      <trkpt lat="-24.8495400" lon="-53.6898680">
        <ele>596.2</ele>
        <time>2018-09-14T18:42:49Z</time>
      </trkpt>
      <trkpt lat="-24.8495510" lon="-53.6898070">
        <ele>596.2</ele>
        <time>2018-09-14T18:42:50Z</time>
      </trkpt>
      <trkpt lat="-24.8495650" lon="-53.6897470">
        <ele>596.4</ele>
        <time>2018-09-14T18:42:51Z</time>
      </trkpt>
      <trkpt lat="-24.8495820" lon="-53.6896880">
        <ele>596.6</ele>
        <time>2018-09-14T18:42:52Z</time>
      </trkpt>
      <trkpt lat="-24.8495990" lon="-53.6896280">
        <ele>596.8</ele>
        <time>2018-09-14T18:42:53Z</time>
      </trkpt>
      <trkpt lat="-24.8496200" lon="-53.6895700">
        <ele>596.8</ele>
        <time>2018-09-14T18:42:54Z</time>
      </trkpt>
      <trkpt lat="-24.8496450" lon="-53.6895140">
        <ele>596.6</ele>
        <time>2018-09-14T18:42:55Z</time>
      </trkpt>
      <trkpt lat="-24.8496720" lon="-53.6894620">
        <ele>596.3</ele>
        <time>2018-09-14T18:42:56Z</time>
      </trkpt>
      <trkpt lat="-24.8497030" lon="-53.6894140">
        <ele>596.2</ele>
        <time>2018-09-14T18:42:57Z</time>
      </trkpt>
      <trkpt lat="-24.8497330" lon="-53.6893670">
        <ele>596.1</ele>
        <time>2018-09-14T18:42:58Z</time>
      </trkpt>
      <trkpt lat="-24.8497580" lon="-53.6893220">
        <ele>596.1</ele>
        <time>2018-09-14T18:42:59Z</time>
      </trkpt>
      <trkpt lat="-24.8497780" lon="-53.6892790">
        <ele>596.0</ele>
        <time>2018-09-14T18:43:00Z</time>
      </trkpt>
      <trkpt lat="-24.8497980" lon="-53.6892360">
        <ele>595.9</ele>
        <time>2018-09-14T18:43:01Z</time>
      </trkpt>
      <trkpt lat="-24.8498150" lon="-53.6891960">
        <ele>595.6</ele>
        <time>2018-09-14T18:43:02Z</time>
      </trkpt>
      <trkpt lat="-24.8498320" lon="-53.6891580">
        <ele>595.3</ele>
        <time>2018-09-14T18:43:03Z</time>
      </trkpt>
      <trkpt lat="-24.8498470" lon="-53.6891180">
        <ele>595.1</ele>
        <time>2018-09-14T18:43:04Z</time>
      </trkpt>
      <trkpt lat="-24.8498630" lon="-53.6890780">
        <ele>594.9</ele>
        <time>2018-09-14T18:43:05Z</time>
      </trkpt>
      <trkpt lat="-24.8498760" lon="-53.6890360">
        <ele>595.0</ele>
        <time>2018-09-14T18:43:06Z</time>
      </trkpt>
      <trkpt lat="-24.8498930" lon="-53.6889960">
        <ele>595.0</ele>
        <time>2018-09-14T18:43:07Z</time>
      </trkpt>
      <trkpt lat="-24.8499120" lon="-53.6889540">
        <ele>595.1</ele>
        <time>2018-09-14T18:43:08Z</time>
      </trkpt>
      <trkpt lat="-24.8499300" lon="-53.6889120">
        <ele>595.0</ele>
        <time>2018-09-14T18:43:09Z</time>
      </trkpt>
      <trkpt lat="-24.8499460" lon="-53.6888680">
        <ele>594.9</ele>
        <time>2018-09-14T18:43:10Z</time>
      </trkpt>
      <trkpt lat="-24.8499610" lon="-53.6888230">
        <ele>594.7</ele>
        <time>2018-09-14T18:43:11Z</time>
      </trkpt>
      <trkpt lat="-24.8499750" lon="-53.6887770">
        <ele>594.6</ele>
        <time>2018-09-14T18:43:12Z</time>
      </trkpt>
      <trkpt lat="-24.8499870" lon="-53.6887310">
        <ele>594.4</ele>
        <time>2018-09-14T18:43:13Z</time>
      </trkpt>
      <trkpt lat="-24.8499970" lon="-53.6886820">
        <ele>594.4</ele>
        <time>2018-09-14T18:43:14Z</time>
      </trkpt>
      <trkpt lat="-24.8500050" lon="-53.6886310">
        <ele>594.3</ele>
        <time>2018-09-14T18:43:15Z</time>
      </trkpt>
      <trkpt lat="-24.8500100" lon="-53.6885790">
        <ele>594.1</ele>
        <time>2018-09-14T18:43:16Z</time>
      </trkpt>
      <trkpt lat="-24.8500140" lon="-53.6885260">
        <ele>593.8</ele>
        <time>2018-09-14T18:43:17Z</time>
      </trkpt>
      <trkpt lat="-24.8500160" lon="-53.6884730">
        <ele>593.5</ele>
        <time>2018-09-14T18:43:18Z</time>
      </trkpt>
      <trkpt lat="-24.8500160" lon="-53.6884190">
        <ele>593.1</ele>
        <time>2018-09-14T18:43:19Z</time>
      </trkpt>
      <trkpt lat="-24.8500130" lon="-53.6883650">
        <ele>592.9</ele>
        <time>2018-09-14T18:43:20Z</time>
      </trkpt>
      <trkpt lat="-24.8500100" lon="-53.6883110">
        <ele>592.9</ele>
        <time>2018-09-14T18:43:21Z</time>
      </trkpt>
      <trkpt lat="-24.8500060" lon="-53.6882560">
        <ele>592.9</ele>
        <time>2018-09-14T18:43:22Z</time>
      </trkpt>
      <trkpt lat="-24.8500020" lon="-53.6882000">
        <ele>593.0</ele>
        <time>2018-09-14T18:43:23Z</time>
      </trkpt>
      <trkpt lat="-24.8499960" lon="-53.6881460">
        <ele>592.9</ele>
        <time>2018-09-14T18:43:24Z</time>
      </trkpt>
      <trkpt lat="-24.8499890" lon="-53.6880930">
        <ele>592.9</ele>
        <time>2018-09-14T18:43:25Z</time>
      </trkpt>
      <trkpt lat="-24.8499820" lon="-53.6880400">
        <ele>592.9</ele>
        <time>2018-09-14T18:43:26Z</time>
      </trkpt>
      <trkpt lat="-24.8499750" lon="-53.6879870">
        <ele>593.0</ele>
        <time>2018-09-14T18:43:27Z</time>
      </trkpt>
      <trkpt lat="-24.8499670" lon="-53.6879330">
        <ele>593.1</ele>
        <time>2018-09-14T18:43:28Z</time>
      </trkpt>
      <trkpt lat="-24.8499590" lon="-53.6878790">
        <ele>593.2</ele>
        <time>2018-09-14T18:43:29Z</time>
      </trkpt>
      <trkpt lat="-24.8499500" lon="-53.6878240">
        <ele>593.5</ele>
        <time>2018-09-14T18:43:30Z</time>
      </trkpt>
      <trkpt lat="-24.8499410" lon="-53.6877690">
        <ele>593.7</ele>
        <time>2018-09-14T18:43:31Z</time>
      </trkpt>
      <trkpt lat="-24.8499320" lon="-53.6877130">
        <ele>594.0</ele>
        <time>2018-09-14T18:43:32Z</time>
      </trkpt>
      <trkpt lat="-24.8499210" lon="-53.6876600">
        <ele>594.3</ele>
        <time>2018-09-14T18:43:33Z</time>
      </trkpt>
      <trkpt lat="-24.8499100" lon="-53.6876060">
        <ele>594.7</ele>
        <time>2018-09-14T18:43:34Z</time>
      </trkpt>
      <trkpt lat="-24.8498990" lon="-53.6875510">
        <ele>594.9</ele>
        <time>2018-09-14T18:43:35Z</time>
      </trkpt>
      <trkpt lat="-24.8498880" lon="-53.6874970">
        <ele>595.0</ele>
        <time>2018-09-14T18:43:36Z</time>
      </trkpt>
      <trkpt lat="-24.8498760" lon="-53.6874430">
        <ele>595.0</ele>
        <time>2018-09-14T18:43:37Z</time>
      </trkpt>
      <trkpt lat="-24.8498640" lon="-53.6873890">
        <ele>594.7</ele>
        <time>2018-09-14T18:43:38Z</time>
      </trkpt>
      <trkpt lat="-24.8498530" lon="-53.6873340">
        <ele>594.6</ele>
        <time>2018-09-14T18:43:39Z</time>
      </trkpt>
      <trkpt lat="-24.8498440" lon="-53.6872780">
        <ele>594.5</ele>
        <time>2018-09-14T18:43:40Z</time>
      </trkpt>
      <trkpt lat="-24.8498350" lon="-53.6872230">
        <ele>594.3</ele>
        <time>2018-09-14T18:43:41Z</time>
      </trkpt>
      <trkpt lat="-24.8498260" lon="-53.6871670">
        <ele>594.4</ele>
        <time>2018-09-14T18:43:42Z</time>
      </trkpt>
      <trkpt lat="-24.8498170" lon="-53.6871110">
        <ele>594.5</ele>
        <time>2018-09-14T18:43:43Z</time>
      </trkpt>
      <trkpt lat="-24.8498100" lon="-53.6870550">
        <ele>594.7</ele>
        <time>2018-09-14T18:43:44Z</time>
      </trkpt>
      <trkpt lat="-24.8498040" lon="-53.6869990">
        <ele>595.0</ele>
        <time>2018-09-14T18:43:45Z</time>
      </trkpt>
      <trkpt lat="-24.8497990" lon="-53.6869430">
        <ele>595.0</ele>
        <time>2018-09-14T18:43:46Z</time>
      </trkpt>
      <trkpt lat="-24.8497930" lon="-53.6868850">
        <ele>595.0</ele>
        <time>2018-09-14T18:43:47Z</time>
      </trkpt>
      <trkpt lat="-24.8497890" lon="-53.6868280">
        <ele>595.0</ele>
        <time>2018-09-14T18:43:48Z</time>
      </trkpt>
      <trkpt lat="-24.8497870" lon="-53.6867710">
        <ele>595.0</ele>
        <time>2018-09-14T18:43:49Z</time>
      </trkpt>
      <trkpt lat="-24.8497870" lon="-53.6867150">
        <ele>595.0</ele>
        <time>2018-09-14T18:43:50Z</time>
      </trkpt>
      <trkpt lat="-24.8497870" lon="-53.6866580">
        <ele>595.0</ele>
        <time>2018-09-14T18:43:51Z</time>
      </trkpt>
      <trkpt lat="-24.8497860" lon="-53.6866010">
        <ele>595.0</ele>
        <time>2018-09-14T18:43:52Z</time>
      </trkpt>
      <trkpt lat="-24.8497880" lon="-53.6865450">
        <ele>595.0</ele>
        <time>2018-09-14T18:43:53Z</time>
      </trkpt>
      <trkpt lat="-24.8497900" lon="-53.6864890">
        <ele>595.0</ele>
        <time>2018-09-14T18:43:54Z</time>
      </trkpt>
      <trkpt lat="-24.8497920" lon="-53.6864340">
        <ele>595.0</ele>
        <time>2018-09-14T18:43:55Z</time>
      </trkpt>
      <trkpt lat="-24.8497940" lon="-53.6863780">
        <ele>595.1</ele>
        <time>2018-09-14T18:43:56Z</time>
      </trkpt>
      <trkpt lat="-24.8497960" lon="-53.6863210">
        <ele>594.9</ele>
        <time>2018-09-14T18:43:57Z</time>
      </trkpt>
      <trkpt lat="-24.8498000" lon="-53.6862650">
        <ele>594.7</ele>
        <time>2018-09-14T18:43:58Z</time>
      </trkpt>
      <trkpt lat="-24.8498050" lon="-53.6862090">
        <ele>594.4</ele>
        <time>2018-09-14T18:43:59Z</time>
      </trkpt>
      <trkpt lat="-24.8498080" lon="-53.6861520">
        <ele>594.1</ele>
        <time>2018-09-14T18:44:00Z</time>
      </trkpt>
      <trkpt lat="-24.8498120" lon="-53.6860950">
        <ele>593.7</ele>
        <time>2018-09-14T18:44:01Z</time>
      </trkpt>
      <trkpt lat="-24.8498160" lon="-53.6860380">
        <ele>593.5</ele>
        <time>2018-09-14T18:44:02Z</time>
      </trkpt>
      <trkpt lat="-24.8498210" lon="-53.6859820">
        <ele>593.4</ele>
        <time>2018-09-14T18:44:03Z</time>
      </trkpt>
      <trkpt lat="-24.8498270" lon="-53.6859260">
        <ele>593.4</ele>
        <time>2018-09-14T18:44:04Z</time>
      </trkpt>
      <trkpt lat="-24.8498340" lon="-53.6858690">
        <ele>593.4</ele>
        <time>2018-09-14T18:44:05Z</time>
      </trkpt>
      <trkpt lat="-24.8498440" lon="-53.6858140">
        <ele>593.7</ele>
        <time>2018-09-14T18:44:06Z</time>
      </trkpt>
      <trkpt lat="-24.8498560" lon="-53.6857610">
        <ele>593.6</ele>
        <time>2018-09-14T18:44:07Z</time>
      </trkpt>
      <trkpt lat="-24.8498690" lon="-53.6857070">
        <ele>593.4</ele>
        <time>2018-09-14T18:44:08Z</time>
      </trkpt>
      <trkpt lat="-24.8498820" lon="-53.6856540">
        <ele>593.8</ele>
        <time>2018-09-14T18:44:09Z</time>
      </trkpt>
      <trkpt lat="-24.8498970" lon="-53.6856020">
        <ele>593.7</ele>
        <time>2018-09-14T18:44:10Z</time>
      </trkpt>
      <trkpt lat="-24.8499130" lon="-53.6855490">
        <ele>593.3</ele>
        <time>2018-09-14T18:44:11Z</time>
      </trkpt>
      <trkpt lat="-24.8499310" lon="-53.6854980">
        <ele>593.3</ele>
        <time>2018-09-14T18:44:12Z</time>
      </trkpt>
      <trkpt lat="-24.8499470" lon="-53.6854470">
        <ele>592.9</ele>
        <time>2018-09-14T18:44:13Z</time>
      </trkpt>
      <trkpt lat="-24.8499640" lon="-53.6853960">
        <ele>592.7</ele>
        <time>2018-09-14T18:44:14Z</time>
      </trkpt>
      <trkpt lat="-24.8499820" lon="-53.6853440">
        <ele>592.4</ele>
        <time>2018-09-14T18:44:15Z</time>
      </trkpt>
      <trkpt lat="-24.8499820" lon="-53.6853440">
        <ele>592.4</ele>
        <time>2018-09-14T18:44:16Z</time>
      </trkpt>
      <trkpt lat="-24.8499980" lon="-53.6852920">
        <ele>592.5</ele>
        <time>2018-09-14T18:44:17Z</time>
      </trkpt>
      <trkpt lat="-24.8500170" lon="-53.6852400">
        <ele>592.7</ele>
        <time>2018-09-14T18:44:18Z</time>
      </trkpt>
      <trkpt lat="-24.8500380" lon="-53.6851890">
        <ele>593.4</ele>
        <time>2018-09-14T18:44:19Z</time>
      </trkpt>
      <trkpt lat="-24.8500600" lon="-53.6851370">
        <ele>593.8</ele>
        <time>2018-09-14T18:44:20Z</time>
      </trkpt>
      <trkpt lat="-24.8500820" lon="-53.6850840">
        <ele>594.2</ele>
        <time>2018-09-14T18:44:21Z</time>
      </trkpt>
      <trkpt lat="-24.8501040" lon="-53.6850320">
        <ele>594.2</ele>
        <time>2018-09-14T18:44:22Z</time>
      </trkpt>
      <trkpt lat="-24.8501270" lon="-53.6849790">
        <ele>594.3</ele>
        <time>2018-09-14T18:44:23Z</time>
      </trkpt>
      <trkpt lat="-24.8501500" lon="-53.6849260">
        <ele>594.6</ele>
        <time>2018-09-14T18:44:24Z</time>
      </trkpt>
      <trkpt lat="-24.8501740" lon="-53.6848750">
        <ele>594.6</ele>
        <time>2018-09-14T18:44:25Z</time>
      </trkpt>
      <trkpt lat="-24.8502010" lon="-53.6848250">
        <ele>594.9</ele>
        <time>2018-09-14T18:44:26Z</time>
      </trkpt>
      <trkpt lat="-24.8502280" lon="-53.6847760">
        <ele>595.1</ele>
        <time>2018-09-14T18:44:27Z</time>
      </trkpt>
      <trkpt lat="-24.8502550" lon="-53.6847280">
        <ele>595.1</ele>
        <time>2018-09-14T18:44:28Z</time>
      </trkpt>
      <trkpt lat="-24.8502840" lon="-53.6846810">
        <ele>595.1</ele>
        <time>2018-09-14T18:44:29Z</time>
      </trkpt>
      <trkpt lat="-24.8503140" lon="-53.6846350">
        <ele>595.0</ele>
        <time>2018-09-14T18:44:30Z</time>
      </trkpt>
      <trkpt lat="-24.8503440" lon="-53.6845890">
        <ele>594.9</ele>
        <time>2018-09-14T18:44:31Z</time>
      </trkpt>
      <trkpt lat="-24.8503740" lon="-53.6845440">
        <ele>594.7</ele>
        <time>2018-09-14T18:44:32Z</time>
      </trkpt>
      <trkpt lat="-24.8504050" lon="-53.6845020">
        <ele>594.6</ele>
        <time>2018-09-14T18:44:33Z</time>
      </trkpt>
      <trkpt lat="-24.8504370" lon="-53.6844620">
        <ele>594.5</ele>
        <time>2018-09-14T18:44:34Z</time>
      </trkpt>
      <trkpt lat="-24.8504690" lon="-53.6844220">
        <ele>594.5</ele>
        <time>2018-09-14T18:44:35Z</time>
      </trkpt>
      <trkpt lat="-24.8505020" lon="-53.6843820">
        <ele>594.5</ele>
        <time>2018-09-14T18:44:36Z</time>
      </trkpt>
      <trkpt lat="-24.8505360" lon="-53.6843410">
        <ele>594.3</ele>
        <time>2018-09-14T18:44:37Z</time>
      </trkpt>
      <trkpt lat="-24.8505740" lon="-53.6843040">
        <ele>594.2</ele>
        <time>2018-09-14T18:44:38Z</time>
      </trkpt>
      <trkpt lat="-24.8506130" lon="-53.6842670">
        <ele>594.2</ele>
        <time>2018-09-14T18:44:39Z</time>
      </trkpt>
      <trkpt lat="-24.8506530" lon="-53.6842310">
        <ele>593.9</ele>
        <time>2018-09-14T18:44:40Z</time>
      </trkpt>
      <trkpt lat="-24.8506940" lon="-53.6841960">
        <ele>594.1</ele>
        <time>2018-09-14T18:44:41Z</time>
      </trkpt>
      <trkpt lat="-24.8507360" lon="-53.6841640">
        <ele>594.4</ele>
        <time>2018-09-14T18:44:42Z</time>
      </trkpt>
      <trkpt lat="-24.8507780" lon="-53.6841320">
        <ele>594.8</ele>
        <time>2018-09-14T18:44:43Z</time>
      </trkpt>
      <trkpt lat="-24.8508230" lon="-53.6841040">
        <ele>595.0</ele>
        <time>2018-09-14T18:44:44Z</time>
      </trkpt>
      <trkpt lat="-24.8508680" lon="-53.6840760">
        <ele>594.9</ele>
        <time>2018-09-14T18:44:45Z</time>
      </trkpt>
      <trkpt lat="-24.8509140" lon="-53.6840490">
        <ele>594.9</ele>
        <time>2018-09-14T18:44:46Z</time>
      </trkpt>
      <trkpt lat="-24.8509590" lon="-53.6840200">
        <ele>594.5</ele>
        <time>2018-09-14T18:44:47Z</time>
      </trkpt>
      <trkpt lat="-24.8510050" lon="-53.6839930">
        <ele>594.5</ele>
        <time>2018-09-14T18:44:48Z</time>
      </trkpt>
      <trkpt lat="-24.8510510" lon="-53.6839670">
        <ele>594.8</ele>
        <time>2018-09-14T18:44:49Z</time>
      </trkpt>
      <trkpt lat="-24.8510970" lon="-53.6839430">
        <ele>594.8</ele>
        <time>2018-09-14T18:44:50Z</time>
      </trkpt>
      <trkpt lat="-24.8511440" lon="-53.6839200">
        <ele>595.0</ele>
        <time>2018-09-14T18:44:51Z</time>
      </trkpt>
      <trkpt lat="-24.8511900" lon="-53.6838970">
        <ele>595.0</ele>
        <time>2018-09-14T18:44:52Z</time>
      </trkpt>
      <trkpt lat="-24.8512370" lon="-53.6838740">
        <ele>595.0</ele>
        <time>2018-09-14T18:44:53Z</time>
      </trkpt>
      <trkpt lat="-24.8512840" lon="-53.6838500">
        <ele>595.5</ele>
        <time>2018-09-14T18:44:54Z</time>
      </trkpt>
      <trkpt lat="-24.8513320" lon="-53.6838270">
        <ele>595.4</ele>
        <time>2018-09-14T18:44:55Z</time>
      </trkpt>
      <trkpt lat="-24.8513810" lon="-53.6838070">
        <ele>595.5</ele>
        <time>2018-09-14T18:44:56Z</time>
      </trkpt>
      <trkpt lat="-24.8514310" lon="-53.6837880">
        <ele>595.2</ele>
        <time>2018-09-14T18:44:57Z</time>
      </trkpt>
      <trkpt lat="-24.8514810" lon="-53.6837690">
        <ele>595.1</ele>
        <time>2018-09-14T18:44:58Z</time>
      </trkpt>
      <trkpt lat="-24.8515310" lon="-53.6837490">
        <ele>595.0</ele>
        <time>2018-09-14T18:44:59Z</time>
      </trkpt>
      <trkpt lat="-24.8515820" lon="-53.6837320">
        <ele>594.8</ele>
        <time>2018-09-14T18:45:00Z</time>
      </trkpt>
      <trkpt lat="-24.8516350" lon="-53.6837160">
        <ele>595.1</ele>
        <time>2018-09-14T18:45:01Z</time>
      </trkpt>
      <trkpt lat="-24.8516860" lon="-53.6836990">
        <ele>595.4</ele>
        <time>2018-09-14T18:45:02Z</time>
      </trkpt>
      <trkpt lat="-24.8517370" lon="-53.6836820">
        <ele>595.6</ele>
        <time>2018-09-14T18:45:03Z</time>
      </trkpt>
      <trkpt lat="-24.8517880" lon="-53.6836670">
        <ele>595.8</ele>
        <time>2018-09-14T18:45:04Z</time>
      </trkpt>
      <trkpt lat="-24.8518400" lon="-53.6836530">
        <ele>595.5</ele>
        <time>2018-09-14T18:45:05Z</time>
      </trkpt>
      <trkpt lat="-24.8518910" lon="-53.6836380">
        <ele>595.4</ele>
        <time>2018-09-14T18:45:06Z</time>
      </trkpt>
      <trkpt lat="-24.8519430" lon="-53.6836230">
        <ele>595.4</ele>
        <time>2018-09-14T18:45:07Z</time>
      </trkpt>
      <trkpt lat="-24.8519940" lon="-53.6836080">
        <ele>595.1</ele>
        <time>2018-09-14T18:45:08Z</time>
      </trkpt>
      <trkpt lat="-24.8520450" lon="-53.6835950">
        <ele>595.1</ele>
        <time>2018-09-14T18:45:09Z</time>
      </trkpt>
      <trkpt lat="-24.8520940" lon="-53.6835830">
        <ele>595.1</ele>
        <time>2018-09-14T18:45:10Z</time>
      </trkpt>
      <trkpt lat="-24.8521430" lon="-53.6835710">
        <ele>595.3</ele>
        <time>2018-09-14T18:45:11Z</time>
      </trkpt>
      <trkpt lat="-24.8521920" lon="-53.6835600">
        <ele>595.6</ele>
        <time>2018-09-14T18:45:12Z</time>
      </trkpt>
      <trkpt lat="-24.8522400" lon="-53.6835490">
        <ele>595.8</ele>
        <time>2018-09-14T18:45:13Z</time>
      </trkpt>
      <trkpt lat="-24.8522890" lon="-53.6835370">
        <ele>596.0</ele>
        <time>2018-09-14T18:45:14Z</time>
      </trkpt>
      <trkpt lat="-24.8523370" lon="-53.6835250">
        <ele>595.5</ele>
        <time>2018-09-14T18:45:15Z</time>
      </trkpt>
      <trkpt lat="-24.8523850" lon="-53.6835110">
        <ele>595.4</ele>
        <time>2018-09-14T18:45:16Z</time>
      </trkpt>
      <trkpt lat="-24.8524340" lon="-53.6834970">
        <ele>595.2</ele>
        <time>2018-09-14T18:45:17Z</time>
      </trkpt>
      <trkpt lat="-24.8524830" lon="-53.6834840">
        <ele>594.4</ele>
        <time>2018-09-14T18:45:18Z</time>
      </trkpt>
      <trkpt lat="-24.8525320" lon="-53.6834710">
        <ele>594.1</ele>
        <time>2018-09-14T18:45:19Z</time>
      </trkpt>
      <trkpt lat="-24.8525800" lon="-53.6834580">
        <ele>594.1</ele>
        <time>2018-09-14T18:45:20Z</time>
      </trkpt>
      <trkpt lat="-24.8526280" lon="-53.6834440">
        <ele>593.6</ele>
        <time>2018-09-14T18:45:21Z</time>
      </trkpt>
      <trkpt lat="-24.8526760" lon="-53.6834290">
        <ele>593.9</ele>
        <time>2018-09-14T18:45:22Z</time>
      </trkpt>
      <trkpt lat="-24.8527230" lon="-53.6834140">
        <ele>594.4</ele>
        <time>2018-09-14T18:45:23Z</time>
      </trkpt>
      <trkpt lat="-24.8527700" lon="-53.6834020">
        <ele>593.9</ele>
        <time>2018-09-14T18:45:24Z</time>
      </trkpt>
      <trkpt lat="-24.8528170" lon="-53.6833880">
        <ele>594.0</ele>
        <time>2018-09-14T18:45:25Z</time>
      </trkpt>
      <trkpt lat="-24.8528630" lon="-53.6833740">
        <ele>593.9</ele>
        <time>2018-09-14T18:45:26Z</time>
      </trkpt>
      <trkpt lat="-24.8529110" lon="-53.6833620">
        <ele>593.6</ele>
        <time>2018-09-14T18:45:27Z</time>
      </trkpt>
      <trkpt lat="-24.8529590" lon="-53.6833510">
        <ele>593.5</ele>
        <time>2018-09-14T18:45:28Z</time>
      </trkpt>
      <trkpt lat="-24.8530070" lon="-53.6833400">
        <ele>593.5</ele>
        <time>2018-09-14T18:45:29Z</time>
      </trkpt>
      <trkpt lat="-24.8530550" lon="-53.6833280">
        <ele>593.7</ele>
        <time>2018-09-14T18:45:30Z</time>
      </trkpt>
      <trkpt lat="-24.8531060" lon="-53.6833170">
        <ele>593.7</ele>
        <time>2018-09-14T18:45:31Z</time>
      </trkpt>
      <trkpt lat="-24.8531570" lon="-53.6833070">
        <ele>594.3</ele>
        <time>2018-09-14T18:45:32Z</time>
      </trkpt>
      <trkpt lat="-24.8532080" lon="-53.6832970">
        <ele>594.5</ele>
        <time>2018-09-14T18:45:33Z</time>
      </trkpt>
      <trkpt lat="-24.8532580" lon="-53.6832830">
        <ele>594.7</ele>
        <time>2018-09-14T18:45:34Z</time>
      </trkpt>
      <trkpt lat="-24.8533080" lon="-53.6832680">
        <ele>594.3</ele>
        <time>2018-09-14T18:45:35Z</time>
      </trkpt>
      <trkpt lat="-24.8533590" lon="-53.6832530">
        <ele>594.3</ele>
        <time>2018-09-14T18:45:36Z</time>
      </trkpt>
      <trkpt lat="-24.8534110" lon="-53.6832400">
        <ele>594.3</ele>
        <time>2018-09-14T18:45:37Z</time>
      </trkpt>
      <trkpt lat="-24.8534630" lon="-53.6832270">
        <ele>593.8</ele>
        <time>2018-09-14T18:45:38Z</time>
      </trkpt>
      <trkpt lat="-24.8535150" lon="-53.6832150">
        <ele>593.8</ele>
        <time>2018-09-14T18:45:39Z</time>
      </trkpt>
      <trkpt lat="-24.8535670" lon="-53.6832030">
        <ele>593.8</ele>
        <time>2018-09-14T18:45:40Z</time>
      </trkpt>
      <trkpt lat="-24.8536200" lon="-53.6831930">
        <ele>593.8</ele>
        <time>2018-09-14T18:45:41Z</time>
      </trkpt>
      <trkpt lat="-24.8536730" lon="-53.6831840">
        <ele>593.3</ele>
        <time>2018-09-14T18:45:42Z</time>
      </trkpt>
      <trkpt lat="-24.8537270" lon="-53.6831740">
        <ele>593.4</ele>
        <time>2018-09-14T18:45:43Z</time>
      </trkpt>
      <trkpt lat="-24.8537800" lon="-53.6831660">
        <ele>593.6</ele>
        <time>2018-09-14T18:45:44Z</time>
      </trkpt>
      <trkpt lat="-24.8538340" lon="-53.6831560">
        <ele>593.6</ele>
        <time>2018-09-14T18:45:45Z</time>
      </trkpt>
      <trkpt lat="-24.8538870" lon="-53.6831460">
        <ele>593.3</ele>
        <time>2018-09-14T18:45:46Z</time>
      </trkpt>
      <trkpt lat="-24.8539390" lon="-53.6831370">
        <ele>593.2</ele>
        <time>2018-09-14T18:45:47Z</time>
      </trkpt>
      <trkpt lat="-24.8539900" lon="-53.6831260">
        <ele>593.3</ele>
        <time>2018-09-14T18:45:48Z</time>
      </trkpt>
      <trkpt lat="-24.8540390" lon="-53.6831130">
        <ele>593.5</ele>
        <time>2018-09-14T18:45:49Z</time>
      </trkpt>
      <trkpt lat="-24.8540880" lon="-53.6831000">
        <ele>593.9</ele>
        <time>2018-09-14T18:45:50Z</time>
      </trkpt>
      <trkpt lat="-24.8541370" lon="-53.6830900">
        <ele>594.2</ele>
        <time>2018-09-14T18:45:51Z</time>
      </trkpt>
      <trkpt lat="-24.8541850" lon="-53.6830810">
        <ele>594.4</ele>
        <time>2018-09-14T18:45:52Z</time>
      </trkpt>
      <trkpt lat="-24.8542330" lon="-53.6830720">
        <ele>594.7</ele>
        <time>2018-09-14T18:45:53Z</time>
      </trkpt>
      <trkpt lat="-24.8542800" lon="-53.6830640">
        <ele>595.2</ele>
        <time>2018-09-14T18:45:54Z</time>
      </trkpt>
      <trkpt lat="-24.8543280" lon="-53.6830540">
        <ele>595.3</ele>
        <time>2018-09-14T18:45:55Z</time>
      </trkpt>
      <trkpt lat="-24.8543740" lon="-53.6830450">
        <ele>595.6</ele>
        <time>2018-09-14T18:45:56Z</time>
      </trkpt>
      <trkpt lat="-24.8544220" lon="-53.6830380">
        <ele>595.8</ele>
        <time>2018-09-14T18:45:57Z</time>
      </trkpt>
      <trkpt lat="-24.8545160" lon="-53.6830280">
        <ele>596.1</ele>
        <time>2018-09-14T18:45:58Z</time>
      </trkpt>
      <trkpt lat="-24.8545630" lon="-53.6830210">
        <ele>596.0</ele>
        <time>2018-09-14T18:45:59Z</time>
      </trkpt>
      <trkpt lat="-24.8546090" lon="-53.6830110">
        <ele>595.9</ele>
        <time>2018-09-14T18:46:00Z</time>
      </trkpt>
      <trkpt lat="-24.8546550" lon="-53.6830030">
        <ele>595.7</ele>
        <time>2018-09-14T18:46:01Z</time>
      </trkpt>
      <trkpt lat="-24.8547010" lon="-53.6829970">
        <ele>595.6</ele>
        <time>2018-09-14T18:46:02Z</time>
      </trkpt>
      <trkpt lat="-24.8547480" lon="-53.6829910">
        <ele>595.6</ele>
        <time>2018-09-14T18:46:03Z</time>
      </trkpt>
      <trkpt lat="-24.8547950" lon="-53.6829850">
        <ele>595.8</ele>
        <time>2018-09-14T18:46:04Z</time>
      </trkpt>
      <trkpt lat="-24.8548420" lon="-53.6829790">
        <ele>596.2</ele>
        <time>2018-09-14T18:46:05Z</time>
      </trkpt>
      <trkpt lat="-24.8548900" lon="-53.6829730">
        <ele>596.2</ele>
        <time>2018-09-14T18:46:06Z</time>
      </trkpt>
      <trkpt lat="-24.8549380" lon="-53.6829660">
        <ele>596.8</ele>
        <time>2018-09-14T18:46:07Z</time>
      </trkpt>
      <trkpt lat="-24.8549860" lon="-53.6829580">
        <ele>597.0</ele>
        <time>2018-09-14T18:46:08Z</time>
      </trkpt>
      <trkpt lat="-24.8550330" lon="-53.6829500">
        <ele>597.1</ele>
        <time>2018-09-14T18:46:09Z</time>
      </trkpt>
      <trkpt lat="-24.8550800" lon="-53.6829430">
        <ele>597.1</ele>
        <time>2018-09-14T18:46:10Z</time>
      </trkpt>
      <trkpt lat="-24.8551270" lon="-53.6829350">
        <ele>597.1</ele>
        <time>2018-09-14T18:46:11Z</time>
      </trkpt>
      <trkpt lat="-24.8551730" lon="-53.6829260">
        <ele>597.0</ele>
        <time>2018-09-14T18:46:12Z</time>
      </trkpt>
      <trkpt lat="-24.8552200" lon="-53.6829180">
        <ele>597.0</ele>
        <time>2018-09-14T18:46:13Z</time>
      </trkpt>
      <trkpt lat="-24.8552670" lon="-53.6829110">
        <ele>597.0</ele>
        <time>2018-09-14T18:46:14Z</time>
      </trkpt>
      <trkpt lat="-24.8553140" lon="-53.6829030">
        <ele>597.1</ele>
        <time>2018-09-14T18:46:15Z</time>
      </trkpt>
      <trkpt lat="-24.8553600" lon="-53.6828960">
        <ele>597.0</ele>
        <time>2018-09-14T18:46:16Z</time>
      </trkpt>
      <trkpt lat="-24.8554490" lon="-53.6828810">
        <ele>596.4</ele>
        <time>2018-09-14T18:46:18Z</time>
      </trkpt>
      <trkpt lat="-24.8554910" lon="-53.6828730">
        <ele>596.1</ele>
        <time>2018-09-14T18:46:19Z</time>
      </trkpt>
      <trkpt lat="-24.8555310" lon="-53.6828640">
        <ele>595.9</ele>
        <time>2018-09-14T18:46:20Z</time>
      </trkpt>
      <trkpt lat="-24.8555700" lon="-53.6828550">
        <ele>595.9</ele>
        <time>2018-09-14T18:46:21Z</time>
      </trkpt>
      <trkpt lat="-24.8556090" lon="-53.6828480">
        <ele>596.0</ele>
        <time>2018-09-14T18:46:22Z</time>
      </trkpt>
      <trkpt lat="-24.8556460" lon="-53.6828420">
        <ele>596.0</ele>
        <time>2018-09-14T18:46:23Z</time>
      </trkpt>
      <trkpt lat="-24.8556820" lon="-53.6828360">
        <ele>595.9</ele>
        <time>2018-09-14T18:46:24Z</time>
      </trkpt>
      <trkpt lat="-24.8557190" lon="-53.6828280">
        <ele>595.8</ele>
        <time>2018-09-14T18:46:25Z</time>
      </trkpt>
      <trkpt lat="-24.8557580" lon="-53.6828230">
        <ele>595.6</ele>
        <time>2018-09-14T18:46:26Z</time>
      </trkpt>
      <trkpt lat="-24.8557960" lon="-53.6828230">
        <ele>595.3</ele>
        <time>2018-09-14T18:46:27Z</time>
      </trkpt>
      <trkpt lat="-24.8558320" lon="-53.6828220">
        <ele>595.1</ele>
        <time>2018-09-14T18:46:28Z</time>
      </trkpt>
      <trkpt lat="-24.8558650" lon="-53.6828230">
        <ele>594.9</ele>
        <time>2018-09-14T18:46:29Z</time>
      </trkpt>
      <trkpt lat="-24.8558940" lon="-53.6828230">
        <ele>594.7</ele>
        <time>2018-09-14T18:46:30Z</time>
      </trkpt>
      <trkpt lat="-24.8559200" lon="-53.6828200">
        <ele>594.6</ele>
        <time>2018-09-14T18:46:31Z</time>
      </trkpt>
      <trkpt lat="-24.8559410" lon="-53.6828140">
        <ele>594.4</ele>
        <time>2018-09-14T18:46:32Z</time>
      </trkpt>
      <trkpt lat="-24.8559590" lon="-53.6828060">
        <ele>594.4</ele>
        <time>2018-09-14T18:46:33Z</time>
      </trkpt>
      <trkpt lat="-24.8559740" lon="-53.6827940">
        <ele>594.4</ele>
        <time>2018-09-14T18:46:34Z</time>
      </trkpt>
      <trkpt lat="-24.8559870" lon="-53.6827830">
        <ele>594.4</ele>
        <time>2018-09-14T18:46:35Z</time>
      </trkpt>
      <trkpt lat="-24.8559980" lon="-53.6827780">
        <ele>594.4</ele>
        <time>2018-09-14T18:46:36Z</time>
      </trkpt>
      <trkpt lat="-24.8560080" lon="-53.6827740">
        <ele>594.4</ele>
        <time>2018-09-14T18:46:37Z</time>
      </trkpt>
      <trkpt lat="-24.8560170" lon="-53.6827710">
        <ele>594.4</ele>
        <time>2018-09-14T18:46:38Z</time>
      </trkpt>
      <trkpt lat="-24.8560270" lon="-53.6827720">
        <ele>594.4</ele>
        <time>2018-09-14T18:46:39Z</time>
      </trkpt>
      <trkpt lat="-24.8560360" lon="-53.6827750">
        <ele>594.5</ele>
        <time>2018-09-14T18:46:40Z</time>
      </trkpt>
      <trkpt lat="-24.8560440" lon="-53.6827790">
        <ele>594.5</ele>
        <time>2018-09-14T18:46:41Z</time>
      </trkpt>
      <trkpt lat="-24.8560500" lon="-53.6827810">
        <ele>594.4</ele>
        <time>2018-09-14T18:46:42Z</time>
      </trkpt>
      <trkpt lat="-24.8560520" lon="-53.6827810">
        <ele>594.4</ele>
        <time>2018-09-14T18:46:43Z</time>
      </trkpt>
      <trkpt lat="-24.8560520" lon="-53.6827810">
        <ele>594.4</ele>
        <time>2018-09-14T18:46:44Z</time>
      </trkpt>
      <trkpt lat="-24.8560560" lon="-53.6827870">
        <ele>594.4</ele>
        <time>2018-09-14T18:46:54Z</time>
      </trkpt>
      <trkpt lat="-24.8560560" lon="-53.6827920">
        <ele>594.4</ele>
        <time>2018-09-14T18:46:55Z</time>
      </trkpt>
      <trkpt lat="-24.8560560" lon="-53.6827950">
        <ele>594.4</ele>
        <time>2018-09-14T18:46:56Z</time>
      </trkpt>
      <trkpt lat="-24.8560570" lon="-53.6827960">
        <ele>594.4</ele>
        <time>2018-09-14T18:46:57Z</time>
      </trkpt>
      <trkpt lat="-24.8560500" lon="-53.6828200">
        <ele>594.4</ele>
        <time>2018-09-14T18:48:01Z</time>
      </trkpt>
      <trkpt lat="-24.8560490" lon="-53.6828210">
        <ele>594.4</ele>
        <time>2018-09-14T18:48:02Z</time>
      </trkpt>
      <trkpt lat="-24.8560480" lon="-53.6828220">
        <ele>594.4</ele>
        <time>2018-09-14T18:48:03Z</time>
      </trkpt>
      <trkpt lat="-24.8560490" lon="-53.6828220">
        <ele>594.4</ele>
        <time>2018-09-14T18:48:04Z</time>
      </trkpt>
      <trkpt lat="-24.8560420" lon="-53.6828080">
        <ele>594.4</ele>
        <time>2018-09-14T18:48:49Z</time>
      </trkpt>
      <trkpt lat="-24.8560310" lon="-53.6828060">
        <ele>594.5</ele>
        <time>2018-09-14T18:48:50Z</time>
      </trkpt>
      <trkpt lat="-24.8560190" lon="-53.6828050">
        <ele>594.4</ele>
        <time>2018-09-14T18:48:51Z</time>
      </trkpt>
      <trkpt lat="-24.8560020" lon="-53.6828090">
        <ele>594.4</ele>
        <time>2018-09-14T18:48:52Z</time>
      </trkpt>
      <trkpt lat="-24.8559830" lon="-53.6828160">
        <ele>594.4</ele>
        <time>2018-09-14T18:48:53Z</time>
      </trkpt>
      <trkpt lat="-24.8559620" lon="-53.6828200">
        <ele>594.4</ele>
        <time>2018-09-14T18:48:54Z</time>
      </trkpt>
      <trkpt lat="-24.8559370" lon="-53.6828220">
        <ele>594.4</ele>
        <time>2018-09-14T18:48:55Z</time>
      </trkpt>
      <trkpt lat="-24.8559050" lon="-53.6828230">
        <ele>594.5</ele>
        <time>2018-09-14T18:48:56Z</time>
      </trkpt>
      <trkpt lat="-24.8558650" lon="-53.6828250">
        <ele>594.8</ele>
        <time>2018-09-14T18:48:57Z</time>
      </trkpt>
      <trkpt lat="-24.8558210" lon="-53.6828290">
        <ele>595.1</ele>
        <time>2018-09-14T18:48:58Z</time>
      </trkpt>
      <trkpt lat="-24.8557720" lon="-53.6828370">
        <ele>595.4</ele>
        <time>2018-09-14T18:48:59Z</time>
      </trkpt>
      <trkpt lat="-24.8557180" lon="-53.6828470">
        <ele>595.7</ele>
        <time>2018-09-14T18:49:00Z</time>
      </trkpt>
      <trkpt lat="-24.8556660" lon="-53.6828560">
        <ele>596.1</ele>
        <time>2018-09-14T18:49:01Z</time>
      </trkpt>
      <trkpt lat="-24.8556120" lon="-53.6828670">
        <ele>596.0</ele>
        <time>2018-09-14T18:49:02Z</time>
      </trkpt>
      <trkpt lat="-24.8555540" lon="-53.6828790">
        <ele>596.0</ele>
        <time>2018-09-14T18:49:03Z</time>
      </trkpt>
      <trkpt lat="-24.8554970" lon="-53.6828910">
        <ele>596.3</ele>
        <time>2018-09-14T18:49:04Z</time>
      </trkpt>
      <trkpt lat="-24.8554420" lon="-53.6829000">
        <ele>596.8</ele>
        <time>2018-09-14T18:49:05Z</time>
      </trkpt>
      <trkpt lat="-24.8553880" lon="-53.6829080">
        <ele>597.0</ele>
        <time>2018-09-14T18:49:06Z</time>
      </trkpt>
      <trkpt lat="-24.8553360" lon="-53.6829160">
        <ele>597.1</ele>
        <time>2018-09-14T18:49:07Z</time>
      </trkpt>
      <trkpt lat="-24.8552860" lon="-53.6829250">
        <ele>597.1</ele>
        <time>2018-09-14T18:49:08Z</time>
      </trkpt>
      <trkpt lat="-24.8552360" lon="-53.6829340">
        <ele>597.0</ele>
        <time>2018-09-14T18:49:09Z</time>
      </trkpt>
      <trkpt lat="-24.8551870" lon="-53.6829430">
        <ele>597.0</ele>
        <time>2018-09-14T18:49:10Z</time>
      </trkpt>
      <trkpt lat="-24.8551370" lon="-53.6829520">
        <ele>597.1</ele>
        <time>2018-09-14T18:49:11Z</time>
      </trkpt>
      <trkpt lat="-24.8550860" lon="-53.6829580">
        <ele>597.2</ele>
        <time>2018-09-14T18:49:12Z</time>
      </trkpt>
      <trkpt lat="-24.8550350" lon="-53.6829650">
        <ele>597.1</ele>
        <time>2018-09-14T18:49:13Z</time>
      </trkpt>
      <trkpt lat="-24.8549840" lon="-53.6829720">
        <ele>597.0</ele>
        <time>2018-09-14T18:49:14Z</time>
      </trkpt>
      <trkpt lat="-24.8549330" lon="-53.6829800">
        <ele>596.9</ele>
        <time>2018-09-14T18:49:15Z</time>
      </trkpt>
      <trkpt lat="-24.8548810" lon="-53.6829880">
        <ele>596.6</ele>
        <time>2018-09-14T18:49:16Z</time>
      </trkpt>
      <trkpt lat="-24.8548290" lon="-53.6829960">
        <ele>596.2</ele>
        <time>2018-09-14T18:49:17Z</time>
      </trkpt>
      <trkpt lat="-24.8547760" lon="-53.6830030">
        <ele>595.6</ele>
        <time>2018-09-14T18:49:18Z</time>
      </trkpt>
      <trkpt lat="-24.8547240" lon="-53.6830110">
        <ele>595.6</ele>
        <time>2018-09-14T18:49:19Z</time>
      </trkpt>
      <trkpt lat="-24.8546710" lon="-53.6830200">
        <ele>595.8</ele>
        <time>2018-09-14T18:49:20Z</time>
      </trkpt>
      <trkpt lat="-24.8546200" lon="-53.6830280">
        <ele>596.0</ele>
        <time>2018-09-14T18:49:21Z</time>
      </trkpt>
      <trkpt lat="-24.8545680" lon="-53.6830360">
        <ele>596.1</ele>
        <time>2018-09-14T18:49:22Z</time>
      </trkpt>
      <trkpt lat="-24.8545170" lon="-53.6830420">
        <ele>596.1</ele>
        <time>2018-09-14T18:49:23Z</time>
      </trkpt>
      <trkpt lat="-24.8544650" lon="-53.6830490">
        <ele>596.0</ele>
        <time>2018-09-14T18:49:24Z</time>
      </trkpt>
      <trkpt lat="-24.8544150" lon="-53.6830570">
        <ele>595.9</ele>
        <time>2018-09-14T18:49:25Z</time>
      </trkpt>
      <trkpt lat="-24.8543640" lon="-53.6830640">
        <ele>595.8</ele>
        <time>2018-09-14T18:49:26Z</time>
      </trkpt>
      <trkpt lat="-24.8543140" lon="-53.6830740">
        <ele>595.2</ele>
        <time>2018-09-14T18:49:27Z</time>
      </trkpt>
      <trkpt lat="-24.8542630" lon="-53.6830850">
        <ele>595.0</ele>
        <time>2018-09-14T18:49:28Z</time>
      </trkpt>
      <trkpt lat="-24.8542120" lon="-53.6830950">
        <ele>594.7</ele>
        <time>2018-09-14T18:49:29Z</time>
      </trkpt>
      <trkpt lat="-24.8541610" lon="-53.6831040">
        <ele>594.5</ele>
        <time>2018-09-14T18:49:30Z</time>
      </trkpt>
      <trkpt lat="-24.8541100" lon="-53.6831140">
        <ele>594.1</ele>
        <time>2018-09-14T18:49:31Z</time>
      </trkpt>
      <trkpt lat="-24.8540600" lon="-53.6831260">
        <ele>593.8</ele>
        <time>2018-09-14T18:49:32Z</time>
      </trkpt>
      <trkpt lat="-24.8540090" lon="-53.6831380">
        <ele>593.5</ele>
        <time>2018-09-14T18:49:33Z</time>
      </trkpt>
      <trkpt lat="-24.8539580" lon="-53.6831490">
        <ele>593.5</ele>
        <time>2018-09-14T18:49:34Z</time>
      </trkpt>
      <trkpt lat="-24.8539070" lon="-53.6831610">
        <ele>593.5</ele>
        <time>2018-09-14T18:49:35Z</time>
      </trkpt>
      <trkpt lat="-24.8538570" lon="-53.6831720">
        <ele>593.6</ele>
        <time>2018-09-14T18:49:36Z</time>
      </trkpt>
      <trkpt lat="-24.8538060" lon="-53.6831800">
        <ele>593.6</ele>
        <time>2018-09-14T18:49:37Z</time>
      </trkpt>
      <trkpt lat="-24.8537560" lon="-53.6831880">
        <ele>593.5</ele>
        <time>2018-09-14T18:49:38Z</time>
      </trkpt>
      <trkpt lat="-24.8537060" lon="-53.6831980">
        <ele>593.9</ele>
        <time>2018-09-14T18:49:39Z</time>
      </trkpt>
      <trkpt lat="-24.8536570" lon="-53.6832070">
        <ele>593.8</ele>
        <time>2018-09-14T18:49:40Z</time>
      </trkpt>
      <trkpt lat="-24.8536080" lon="-53.6832160">
        <ele>593.8</ele>
        <time>2018-09-14T18:49:41Z</time>
      </trkpt>
      <trkpt lat="-24.8535590" lon="-53.6832260">
        <ele>593.8</ele>
        <time>2018-09-14T18:49:42Z</time>
      </trkpt>
      <trkpt lat="-24.8535100" lon="-53.6832360">
        <ele>594.4</ele>
        <time>2018-09-14T18:49:43Z</time>
      </trkpt>
      <trkpt lat="-24.8534620" lon="-53.6832460">
        <ele>594.4</ele>
        <time>2018-09-14T18:49:44Z</time>
      </trkpt>
      <trkpt lat="-24.8534140" lon="-53.6832570">
        <ele>594.3</ele>
        <time>2018-09-14T18:49:45Z</time>
      </trkpt>
      <trkpt lat="-24.8533180" lon="-53.6832820">
        <ele>594.8</ele>
        <time>2018-09-14T18:49:46Z</time>
      </trkpt>
      <trkpt lat="-24.8532710" lon="-53.6832960">
        <ele>594.8</ele>
        <time>2018-09-14T18:49:47Z</time>
      </trkpt>
      <trkpt lat="-24.8532230" lon="-53.6833070">
        <ele>594.6</ele>
        <time>2018-09-14T18:49:48Z</time>
      </trkpt>
      <trkpt lat="-24.8531740" lon="-53.6833190">
        <ele>594.3</ele>
        <time>2018-09-14T18:49:49Z</time>
      </trkpt>
      <trkpt lat="-24.8530780" lon="-53.6833450">
        <ele>593.9</ele>
        <time>2018-09-14T18:49:51Z</time>
      </trkpt>
      <trkpt lat="-24.8530300" lon="-53.6833590">
        <ele>593.7</ele>
        <time>2018-09-14T18:49:52Z</time>
      </trkpt>
      <trkpt lat="-24.8529800" lon="-53.6833730">
        <ele>593.8</ele>
        <time>2018-09-14T18:49:53Z</time>
      </trkpt>
      <trkpt lat="-24.8529300" lon="-53.6833860">
        <ele>593.8</ele>
        <time>2018-09-14T18:49:54Z</time>
      </trkpt>
      <trkpt lat="-24.8528810" lon="-53.6833980">
        <ele>593.9</ele>
        <time>2018-09-14T18:49:55Z</time>
      </trkpt>
      <trkpt lat="-24.8528310" lon="-53.6834110">
        <ele>594.4</ele>
        <time>2018-09-14T18:49:56Z</time>
      </trkpt>
      <trkpt lat="-24.8527810" lon="-53.6834240">
        <ele>594.5</ele>
        <time>2018-09-14T18:49:57Z</time>
      </trkpt>
      <trkpt lat="-24.8527310" lon="-53.6834390">
        <ele>594.4</ele>
        <time>2018-09-14T18:49:58Z</time>
      </trkpt>
      <trkpt lat="-24.8526810" lon="-53.6834530">
        <ele>594.7</ele>
        <time>2018-09-14T18:49:59Z</time>
      </trkpt>
      <trkpt lat="-24.8526310" lon="-53.6834680">
        <ele>594.3</ele>
        <time>2018-09-14T18:50:00Z</time>
      </trkpt>
      <trkpt lat="-24.8525810" lon="-53.6834820">
        <ele>594.1</ele>
        <time>2018-09-14T18:50:01Z</time>
      </trkpt>
      <trkpt lat="-24.8525300" lon="-53.6834960">
        <ele>594.9</ele>
        <time>2018-09-14T18:50:02Z</time>
      </trkpt>
      <trkpt lat="-24.8524800" lon="-53.6835100">
        <ele>595.1</ele>
        <time>2018-09-14T18:50:03Z</time>
      </trkpt>
      <trkpt lat="-24.8524290" lon="-53.6835250">
        <ele>595.3</ele>
        <time>2018-09-14T18:50:04Z</time>
      </trkpt>
      <trkpt lat="-24.8523780" lon="-53.6835370">
        <ele>595.9</ele>
        <time>2018-09-14T18:50:05Z</time>
      </trkpt>
      <trkpt lat="-24.8523260" lon="-53.6835500">
        <ele>596.0</ele>
        <time>2018-09-14T18:50:06Z</time>
      </trkpt>
      <trkpt lat="-24.8522750" lon="-53.6835620">
        <ele>596.0</ele>
        <time>2018-09-14T18:50:07Z</time>
      </trkpt>
      <trkpt lat="-24.8522250" lon="-53.6835750">
        <ele>595.9</ele>
        <time>2018-09-14T18:50:08Z</time>
      </trkpt>
      <trkpt lat="-24.8521740" lon="-53.6835890">
        <ele>595.8</ele>
        <time>2018-09-14T18:50:09Z</time>
      </trkpt>
      <trkpt lat="-24.8520730" lon="-53.6836160">
        <ele>595.1</ele>
        <time>2018-09-14T18:50:11Z</time>
      </trkpt>
      <trkpt lat="-24.8520240" lon="-53.6836290">
        <ele>595.5</ele>
        <time>2018-09-14T18:50:12Z</time>
      </trkpt>
      <trkpt lat="-24.8519740" lon="-53.6836420">
        <ele>595.4</ele>
        <time>2018-09-14T18:50:13Z</time>
      </trkpt>
      <trkpt lat="-24.8519250" lon="-53.6836550">
        <ele>595.5</ele>
        <time>2018-09-14T18:50:14Z</time>
      </trkpt>
      <trkpt lat="-24.8518760" lon="-53.6836690">
        <ele>595.7</ele>
        <time>2018-09-14T18:50:15Z</time>
      </trkpt>
      <trkpt lat="-24.8518260" lon="-53.6836830">
        <ele>595.8</ele>
        <time>2018-09-14T18:50:16Z</time>
      </trkpt>
      <trkpt lat="-24.8517760" lon="-53.6836970">
        <ele>595.8</ele>
        <time>2018-09-14T18:50:17Z</time>
      </trkpt>
      <trkpt lat="-24.8517270" lon="-53.6837090">
        <ele>595.7</ele>
        <time>2018-09-14T18:50:18Z</time>
      </trkpt>
      <trkpt lat="-24.8516780" lon="-53.6837220">
        <ele>595.4</ele>
        <time>2018-09-14T18:50:19Z</time>
      </trkpt>
      <trkpt lat="-24.8516300" lon="-53.6837390">
        <ele>595.2</ele>
        <time>2018-09-14T18:50:20Z</time>
      </trkpt>
      <trkpt lat="-24.8515820" lon="-53.6837560">
        <ele>595.0</ele>
        <time>2018-09-14T18:50:21Z</time>
      </trkpt>
      <trkpt lat="-24.8515360" lon="-53.6837730">
        <ele>595.0</ele>
        <time>2018-09-14T18:50:22Z</time>
      </trkpt>
      <trkpt lat="-24.8514880" lon="-53.6837910">
        <ele>595.1</ele>
        <time>2018-09-14T18:50:23Z</time>
      </trkpt>
      <trkpt lat="-24.8514400" lon="-53.6838090">
        <ele>595.5</ele>
        <time>2018-09-14T18:50:24Z</time>
      </trkpt>
      <trkpt lat="-24.8513930" lon="-53.6838290">
        <ele>595.5</ele>
        <time>2018-09-14T18:50:25Z</time>
      </trkpt>
      <trkpt lat="-24.8513470" lon="-53.6838490">
        <ele>595.7</ele>
        <time>2018-09-14T18:50:26Z</time>
      </trkpt>
      <trkpt lat="-24.8513010" lon="-53.6838710">
        <ele>595.6</ele>
        <time>2018-09-14T18:50:27Z</time>
      </trkpt>
      <trkpt lat="-24.8512540" lon="-53.6838920">
        <ele>595.6</ele>
        <time>2018-09-14T18:50:28Z</time>
      </trkpt>
      <trkpt lat="-24.8512070" lon="-53.6839150">
        <ele>595.4</ele>
        <time>2018-09-14T18:50:29Z</time>
      </trkpt>
      <trkpt lat="-24.8511600" lon="-53.6839380">
        <ele>595.1</ele>
        <time>2018-09-14T18:50:30Z</time>
      </trkpt>
      <trkpt lat="-24.8511130" lon="-53.6839620">
        <ele>594.8</ele>
        <time>2018-09-14T18:50:31Z</time>
      </trkpt>
      <trkpt lat="-24.8510680" lon="-53.6839880">
        <ele>594.8</ele>
        <time>2018-09-14T18:50:32Z</time>
      </trkpt>
      <trkpt lat="-24.8510220" lon="-53.6840140">
        <ele>594.8</ele>
        <time>2018-09-14T18:50:33Z</time>
      </trkpt>
      <trkpt lat="-24.8509760" lon="-53.6840390">
        <ele>594.6</ele>
        <time>2018-09-14T18:50:34Z</time>
      </trkpt>
      <trkpt lat="-24.8509290" lon="-53.6840660">
        <ele>594.9</ele>
        <time>2018-09-14T18:50:35Z</time>
      </trkpt>
      <trkpt lat="-24.8508820" lon="-53.6840930">
        <ele>595.2</ele>
        <time>2018-09-14T18:50:36Z</time>
      </trkpt>
      <trkpt lat="-24.8508370" lon="-53.6841230">
        <ele>595.1</ele>
        <time>2018-09-14T18:50:37Z</time>
      </trkpt>
      <trkpt lat="-24.8507920" lon="-53.6841530">
        <ele>594.8</ele>
        <time>2018-09-14T18:50:38Z</time>
      </trkpt>
      <trkpt lat="-24.8507470" lon="-53.6841840">
        <ele>594.4</ele>
        <time>2018-09-14T18:50:39Z</time>
      </trkpt>
      <trkpt lat="-24.8507030" lon="-53.6842160">
        <ele>594.1</ele>
        <time>2018-09-14T18:50:40Z</time>
      </trkpt>
      <trkpt lat="-24.8506590" lon="-53.6842510">
        <ele>594.0</ele>
        <time>2018-09-14T18:50:41Z</time>
      </trkpt>
      <trkpt lat="-24.8506180" lon="-53.6842890">
        <ele>594.1</ele>
        <time>2018-09-14T18:50:42Z</time>
      </trkpt>
      <trkpt lat="-24.8505770" lon="-53.6843290">
        <ele>594.4</ele>
        <time>2018-09-14T18:50:43Z</time>
      </trkpt>
      <trkpt lat="-24.8505380" lon="-53.6843710">
        <ele>594.7</ele>
        <time>2018-09-14T18:50:44Z</time>
      </trkpt>
      <trkpt lat="-24.8505000" lon="-53.6844150">
        <ele>594.8</ele>
        <time>2018-09-14T18:50:45Z</time>
      </trkpt>
      <trkpt lat="-24.8504650" lon="-53.6844590">
        <ele>594.9</ele>
        <time>2018-09-14T18:50:46Z</time>
      </trkpt>
      <trkpt lat="-24.8504300" lon="-53.6845050">
        <ele>594.9</ele>
        <time>2018-09-14T18:50:47Z</time>
      </trkpt>
      <trkpt lat="-24.8503970" lon="-53.6845500">
        <ele>594.9</ele>
        <time>2018-09-14T18:50:48Z</time>
      </trkpt>
      <trkpt lat="-24.8503650" lon="-53.6845960">
        <ele>594.9</ele>
        <time>2018-09-14T18:50:49Z</time>
      </trkpt>
      <trkpt lat="-24.8503340" lon="-53.6846420">
        <ele>595.0</ele>
        <time>2018-09-14T18:50:50Z</time>
      </trkpt>
      <trkpt lat="-24.8503060" lon="-53.6846900">
        <ele>595.0</ele>
        <time>2018-09-14T18:50:51Z</time>
      </trkpt>
      <trkpt lat="-24.8502780" lon="-53.6847380">
        <ele>595.1</ele>
        <time>2018-09-14T18:50:52Z</time>
      </trkpt>
      <trkpt lat="-24.8502520" lon="-53.6847850">
        <ele>595.1</ele>
        <time>2018-09-14T18:50:53Z</time>
      </trkpt>
      <trkpt lat="-24.8502250" lon="-53.6848320">
        <ele>594.9</ele>
        <time>2018-09-14T18:50:54Z</time>
      </trkpt>
      <trkpt lat="-24.8502000" lon="-53.6848800">
        <ele>594.9</ele>
        <time>2018-09-14T18:50:55Z</time>
      </trkpt>
      <trkpt lat="-24.8501750" lon="-53.6849290">
        <ele>594.6</ele>
        <time>2018-09-14T18:50:56Z</time>
      </trkpt>
      <trkpt lat="-24.8501520" lon="-53.6849790">
        <ele>594.6</ele>
        <time>2018-09-14T18:50:57Z</time>
      </trkpt>
      <trkpt lat="-24.8501290" lon="-53.6850270">
        <ele>594.4</ele>
        <time>2018-09-14T18:50:58Z</time>
      </trkpt>
      <trkpt lat="-24.8501060" lon="-53.6850760">
        <ele>594.3</ele>
        <time>2018-09-14T18:50:59Z</time>
      </trkpt>
      <trkpt lat="-24.8500860" lon="-53.6851260">
        <ele>594.1</ele>
        <time>2018-09-14T18:51:00Z</time>
      </trkpt>
      <trkpt lat="-24.8500670" lon="-53.6851740">
        <ele>593.5</ele>
        <time>2018-09-14T18:51:01Z</time>
      </trkpt>
      <trkpt lat="-24.8500470" lon="-53.6852220">
        <ele>593.2</ele>
        <time>2018-09-14T18:51:02Z</time>
      </trkpt>
      <trkpt lat="-24.8500290" lon="-53.6852690">
        <ele>592.6</ele>
        <time>2018-09-14T18:51:03Z</time>
      </trkpt>
      <trkpt lat="-24.8500130" lon="-53.6853150">
        <ele>592.5</ele>
        <time>2018-09-14T18:51:04Z</time>
      </trkpt>
      <trkpt lat="-24.8499970" lon="-53.6853600">
        <ele>592.7</ele>
        <time>2018-09-14T18:51:05Z</time>
      </trkpt>
      <trkpt lat="-24.8499820" lon="-53.6854050">
        <ele>592.8</ele>
        <time>2018-09-14T18:51:06Z</time>
      </trkpt>
      <trkpt lat="-24.8499670" lon="-53.6854510">
        <ele>593.2</ele>
        <time>2018-09-14T18:51:07Z</time>
      </trkpt>
      <trkpt lat="-24.8499530" lon="-53.6854960">
        <ele>593.4</ele>
        <time>2018-09-14T18:51:08Z</time>
      </trkpt>
      <trkpt lat="-24.8499350" lon="-53.6855400">
        <ele>593.7</ele>
        <time>2018-09-14T18:51:09Z</time>
      </trkpt>
      <trkpt lat="-24.8499180" lon="-53.6855840">
        <ele>594.0</ele>
        <time>2018-09-14T18:51:10Z</time>
      </trkpt>
      <trkpt lat="-24.8499040" lon="-53.6856300">
        <ele>593.8</ele>
        <time>2018-09-14T18:51:11Z</time>
      </trkpt>
      <trkpt lat="-24.8498920" lon="-53.6856770">
        <ele>593.9</ele>
        <time>2018-09-14T18:51:12Z</time>
      </trkpt>
      <trkpt lat="-24.8498820" lon="-53.6857250">
        <ele>594.0</ele>
        <time>2018-09-14T18:51:13Z</time>
      </trkpt>
      <trkpt lat="-24.8498710" lon="-53.6857720">
        <ele>593.7</ele>
        <time>2018-09-14T18:51:14Z</time>
      </trkpt>
      <trkpt lat="-24.8498620" lon="-53.6858210">
        <ele>593.8</ele>
        <time>2018-09-14T18:51:15Z</time>
      </trkpt>
      <trkpt lat="-24.8498550" lon="-53.6858690">
        <ele>593.8</ele>
        <time>2018-09-14T18:51:16Z</time>
      </trkpt>
      <trkpt lat="-24.8498480" lon="-53.6859180">
        <ele>593.8</ele>
        <time>2018-09-14T18:51:17Z</time>
      </trkpt>
      <trkpt lat="-24.8498410" lon="-53.6859670">
        <ele>593.8</ele>
        <time>2018-09-14T18:51:18Z</time>
      </trkpt>
      <trkpt lat="-24.8498350" lon="-53.6860170">
        <ele>593.5</ele>
        <time>2018-09-14T18:51:19Z</time>
      </trkpt>
      <trkpt lat="-24.8498310" lon="-53.6860680">
        <ele>593.7</ele>
        <time>2018-09-14T18:51:20Z</time>
      </trkpt>
      <trkpt lat="-24.8498270" lon="-53.6861180">
        <ele>594.0</ele>
        <time>2018-09-14T18:51:21Z</time>
      </trkpt>
      <trkpt lat="-24.8498240" lon="-53.6861690">
        <ele>594.2</ele>
        <time>2018-09-14T18:51:22Z</time>
      </trkpt>
      <trkpt lat="-24.8498200" lon="-53.6862200">
        <ele>594.5</ele>
        <time>2018-09-14T18:51:23Z</time>
      </trkpt>
      <trkpt lat="-24.8498170" lon="-53.6862700">
        <ele>594.7</ele>
        <time>2018-09-14T18:51:24Z</time>
      </trkpt>
      <trkpt lat="-24.8498130" lon="-53.6863210">
        <ele>595.0</ele>
        <time>2018-09-14T18:51:25Z</time>
      </trkpt>
      <trkpt lat="-24.8498110" lon="-53.6863730">
        <ele>595.1</ele>
        <time>2018-09-14T18:51:26Z</time>
      </trkpt>
      <trkpt lat="-24.8498090" lon="-53.6864260">
        <ele>595.1</ele>
        <time>2018-09-14T18:51:27Z</time>
      </trkpt>
      <trkpt lat="-24.8498050" lon="-53.6864790">
        <ele>595.1</ele>
        <time>2018-09-14T18:51:28Z</time>
      </trkpt>
      <trkpt lat="-24.8498030" lon="-53.6865330">
        <ele>595.0</ele>
        <time>2018-09-14T18:51:29Z</time>
      </trkpt>
      <trkpt lat="-24.8498000" lon="-53.6865860">
        <ele>595.0</ele>
        <time>2018-09-14T18:51:30Z</time>
      </trkpt>
      <trkpt lat="-24.8497980" lon="-53.6866410">
        <ele>595.0</ele>
        <time>2018-09-14T18:51:31Z</time>
      </trkpt>
      <trkpt lat="-24.8498000" lon="-53.6866940">
        <ele>595.1</ele>
        <time>2018-09-14T18:51:32Z</time>
      </trkpt>
      <trkpt lat="-24.8498040" lon="-53.6867470">
        <ele>595.1</ele>
        <time>2018-09-14T18:51:33Z</time>
      </trkpt>
      <trkpt lat="-24.8498050" lon="-53.6867990">
        <ele>595.1</ele>
        <time>2018-09-14T18:51:34Z</time>
      </trkpt>
      <trkpt lat="-24.8498080" lon="-53.6868520">
        <ele>595.1</ele>
        <time>2018-09-14T18:51:35Z</time>
      </trkpt>
      <trkpt lat="-24.8498110" lon="-53.6869050">
        <ele>595.1</ele>
        <time>2018-09-14T18:51:36Z</time>
      </trkpt>
      <trkpt lat="-24.8498160" lon="-53.6869560">
        <ele>595.1</ele>
        <time>2018-09-14T18:51:37Z</time>
      </trkpt>
      <trkpt lat="-24.8498210" lon="-53.6870080">
        <ele>595.0</ele>
        <time>2018-09-14T18:51:38Z</time>
      </trkpt>
      <trkpt lat="-24.8498270" lon="-53.6870600">
        <ele>594.7</ele>
        <time>2018-09-14T18:51:39Z</time>
      </trkpt>
      <trkpt lat="-24.8498330" lon="-53.6871110">
        <ele>594.6</ele>
        <time>2018-09-14T18:51:40Z</time>
      </trkpt>
      <trkpt lat="-24.8498410" lon="-53.6871620">
        <ele>594.7</ele>
        <time>2018-09-14T18:51:41Z</time>
      </trkpt>
      <trkpt lat="-24.8498500" lon="-53.6872110">
        <ele>594.6</ele>
        <time>2018-09-14T18:51:42Z</time>
      </trkpt>
      <trkpt lat="-24.8498590" lon="-53.6872600">
        <ele>594.6</ele>
        <time>2018-09-14T18:51:43Z</time>
      </trkpt>
      <trkpt lat="-24.8498680" lon="-53.6873080">
        <ele>594.6</ele>
        <time>2018-09-14T18:51:44Z</time>
      </trkpt>
      <trkpt lat="-24.8498770" lon="-53.6873540">
        <ele>595.0</ele>
        <time>2018-09-14T18:51:45Z</time>
      </trkpt>
      <trkpt lat="-24.8498860" lon="-53.6874000">
        <ele>595.0</ele>
        <time>2018-09-14T18:51:46Z</time>
      </trkpt>
      <trkpt lat="-24.8498950" lon="-53.6874480">
        <ele>595.1</ele>
        <time>2018-09-14T18:51:47Z</time>
      </trkpt>
      <trkpt lat="-24.8499050" lon="-53.6874960">
        <ele>595.1</ele>
        <time>2018-09-14T18:51:48Z</time>
      </trkpt>
      <trkpt lat="-24.8499140" lon="-53.6875450">
        <ele>595.0</ele>
        <time>2018-09-14T18:51:49Z</time>
      </trkpt>
      <trkpt lat="-24.8499240" lon="-53.6875940">
        <ele>594.8</ele>
        <time>2018-09-14T18:51:50Z</time>
      </trkpt>
      <trkpt lat="-24.8499350" lon="-53.6876440">
        <ele>594.6</ele>
        <time>2018-09-14T18:51:51Z</time>
      </trkpt>
      <trkpt lat="-24.8499470" lon="-53.6876940">
        <ele>594.4</ele>
        <time>2018-09-14T18:51:52Z</time>
      </trkpt>
      <trkpt lat="-24.8499570" lon="-53.6877440">
        <ele>594.1</ele>
        <time>2018-09-14T18:51:53Z</time>
      </trkpt>
      <trkpt lat="-24.8499650" lon="-53.6877950">
        <ele>593.8</ele>
        <time>2018-09-14T18:51:54Z</time>
      </trkpt>
      <trkpt lat="-24.8499650" lon="-53.6877950">
        <ele>593.8</ele>
        <time>2018-09-14T18:51:55Z</time>
      </trkpt>
      <trkpt lat="-24.8499720" lon="-53.6878480">
        <ele>593.5</ele>
        <time>2018-09-14T18:51:56Z</time>
      </trkpt>
      <trkpt lat="-24.8499810" lon="-53.6878990">
        <ele>593.3</ele>
        <time>2018-09-14T18:51:57Z</time>
      </trkpt>
      <trkpt lat="-24.8499890" lon="-53.6879490">
        <ele>593.1</ele>
        <time>2018-09-14T18:51:58Z</time>
      </trkpt>
      <trkpt lat="-24.8499970" lon="-53.6879990">
        <ele>593.0</ele>
        <time>2018-09-14T18:51:59Z</time>
      </trkpt>
      <trkpt lat="-24.8500040" lon="-53.6880490">
        <ele>592.9</ele>
        <time>2018-09-14T18:52:00Z</time>
      </trkpt>
      <trkpt lat="-24.8500100" lon="-53.6881000">
        <ele>592.9</ele>
        <time>2018-09-14T18:52:01Z</time>
      </trkpt>
      <trkpt lat="-24.8500150" lon="-53.6881510">
        <ele>593.0</ele>
        <time>2018-09-14T18:52:02Z</time>
      </trkpt>
      <trkpt lat="-24.8500210" lon="-53.6882010">
        <ele>593.0</ele>
        <time>2018-09-14T18:52:03Z</time>
      </trkpt>
      <trkpt lat="-24.8500270" lon="-53.6882520">
        <ele>593.0</ele>
        <time>2018-09-14T18:52:04Z</time>
      </trkpt>
      <trkpt lat="-24.8500320" lon="-53.6883020">
        <ele>593.0</ele>
        <time>2018-09-14T18:52:05Z</time>
      </trkpt>
      <trkpt lat="-24.8500370" lon="-53.6883520">
        <ele>593.0</ele>
        <time>2018-09-14T18:52:06Z</time>
      </trkpt>
      <trkpt lat="-24.8500410" lon="-53.6884030">
        <ele>593.1</ele>
        <time>2018-09-14T18:52:07Z</time>
      </trkpt>
      <trkpt lat="-24.8500420" lon="-53.6884530">
        <ele>593.3</ele>
        <time>2018-09-14T18:52:08Z</time>
      </trkpt>
      <trkpt lat="-24.8500410" lon="-53.6885030">
        <ele>593.5</ele>
        <time>2018-09-14T18:52:09Z</time>
      </trkpt>
      <trkpt lat="-24.8500370" lon="-53.6885540">
        <ele>593.8</ele>
        <time>2018-09-14T18:52:10Z</time>
      </trkpt>
      <trkpt lat="-24.8500320" lon="-53.6886040">
        <ele>594.4</ele>
        <time>2018-09-14T18:52:11Z</time>
      </trkpt>
      <trkpt lat="-24.8500270" lon="-53.6886550">
        <ele>594.5</ele>
        <time>2018-09-14T18:52:12Z</time>
      </trkpt>
      <trkpt lat="-24.8500190" lon="-53.6887060">
        <ele>594.6</ele>
        <time>2018-09-14T18:52:13Z</time>
      </trkpt>
      <trkpt lat="-24.8500090" lon="-53.6887560">
        <ele>594.8</ele>
        <time>2018-09-14T18:52:14Z</time>
      </trkpt>
      <trkpt lat="-24.8499970" lon="-53.6888080">
        <ele>594.8</ele>
        <time>2018-09-14T18:52:15Z</time>
      </trkpt>
      <trkpt lat="-24.8499830" lon="-53.6888580">
        <ele>595.0</ele>
        <time>2018-09-14T18:52:16Z</time>
      </trkpt>
      <trkpt lat="-24.8499660" lon="-53.6889080">
        <ele>595.1</ele>
        <time>2018-09-14T18:52:17Z</time>
      </trkpt>
      <trkpt lat="-24.8499480" lon="-53.6889590">
        <ele>595.2</ele>
        <time>2018-09-14T18:52:18Z</time>
      </trkpt>
      <trkpt lat="-24.8499290" lon="-53.6890120">
        <ele>595.2</ele>
        <time>2018-09-14T18:52:19Z</time>
      </trkpt>
      <trkpt lat="-24.8499070" lon="-53.6890650">
        <ele>595.0</ele>
        <time>2018-09-14T18:52:20Z</time>
      </trkpt>
      <trkpt lat="-24.8498850" lon="-53.6891180">
        <ele>594.9</ele>
        <time>2018-09-14T18:52:21Z</time>
      </trkpt>
      <trkpt lat="-24.8498620" lon="-53.6891700">
        <ele>595.0</ele>
        <time>2018-09-14T18:52:22Z</time>
      </trkpt>
      <trkpt lat="-24.8498370" lon="-53.6892230">
        <ele>595.3</ele>
        <time>2018-09-14T18:52:23Z</time>
      </trkpt>
      <trkpt lat="-24.8498110" lon="-53.6892730">
        <ele>595.7</ele>
        <time>2018-09-14T18:52:24Z</time>
      </trkpt>
      <trkpt lat="-24.8497850" lon="-53.6893200">
        <ele>596.0</ele>
        <time>2018-09-14T18:52:25Z</time>
      </trkpt>
      <trkpt lat="-24.8497590" lon="-53.6893650">
        <ele>596.1</ele>
        <time>2018-09-14T18:52:26Z</time>
      </trkpt>
      <trkpt lat="-24.8497340" lon="-53.6894080">
        <ele>596.1</ele>
        <time>2018-09-14T18:52:27Z</time>
      </trkpt>
      <trkpt lat="-24.8497080" lon="-53.6894490">
        <ele>596.1</ele>
        <time>2018-09-14T18:52:28Z</time>
      </trkpt>
      <trkpt lat="-24.8496830" lon="-53.6894900">
        <ele>596.3</ele>
        <time>2018-09-14T18:52:29Z</time>
      </trkpt>
      <trkpt lat="-24.8496580" lon="-53.6895310">
        <ele>596.4</ele>
        <time>2018-09-14T18:52:30Z</time>
      </trkpt>
      <trkpt lat="-24.8496370" lon="-53.6895740">
        <ele>596.6</ele>
        <time>2018-09-14T18:52:31Z</time>
      </trkpt>
      <trkpt lat="-24.8496190" lon="-53.6896180">
        <ele>596.8</ele>
        <time>2018-09-14T18:52:32Z</time>
      </trkpt>
      <trkpt lat="-24.8496030" lon="-53.6896630">
        <ele>596.8</ele>
        <time>2018-09-14T18:52:33Z</time>
      </trkpt>
      <trkpt lat="-24.8495870" lon="-53.6897070">
        <ele>596.7</ele>
        <time>2018-09-14T18:52:34Z</time>
      </trkpt>
      <trkpt lat="-24.8495730" lon="-53.6897510">
        <ele>596.5</ele>
        <time>2018-09-14T18:52:35Z</time>
      </trkpt>
      <trkpt lat="-24.8495620" lon="-53.6897980">
        <ele>596.4</ele>
        <time>2018-09-14T18:52:36Z</time>
      </trkpt>
      <trkpt lat="-24.8495540" lon="-53.6898450">
        <ele>596.2</ele>
        <time>2018-09-14T18:52:37Z</time>
      </trkpt>
      <trkpt lat="-24.8495480" lon="-53.6898920">
        <ele>596.2</ele>
        <time>2018-09-14T18:52:38Z</time>
      </trkpt>
      <trkpt lat="-24.8495440" lon="-53.6899390">
        <ele>596.2</ele>
        <time>2018-09-14T18:52:39Z</time>
      </trkpt>
      <trkpt lat="-24.8495420" lon="-53.6899880">
        <ele>595.9</ele>
        <time>2018-09-14T18:52:40Z</time>
      </trkpt>
      <trkpt lat="-24.8495420" lon="-53.6900370">
        <ele>595.5</ele>
        <time>2018-09-14T18:52:41Z</time>
      </trkpt>
      <trkpt lat="-24.8495460" lon="-53.6900850">
        <ele>595.2</ele>
        <time>2018-09-14T18:52:42Z</time>
      </trkpt>
      <trkpt lat="-24.8495520" lon="-53.6901340">
        <ele>594.8</ele>
        <time>2018-09-14T18:52:43Z</time>
      </trkpt>
      <trkpt lat="-24.8495610" lon="-53.6901810">
        <ele>594.4</ele>
        <time>2018-09-14T18:52:44Z</time>
      </trkpt>
      <trkpt lat="-24.8495720" lon="-53.6902270">
        <ele>594.1</ele>
        <time>2018-09-14T18:52:45Z</time>
      </trkpt>
      <trkpt lat="-24.8495860" lon="-53.6902720">
        <ele>594.3</ele>
        <time>2018-09-14T18:52:46Z</time>
      </trkpt>
      <trkpt lat="-24.8496030" lon="-53.6903180">
        <ele>594.4</ele>
        <time>2018-09-14T18:52:47Z</time>
      </trkpt>
      <trkpt lat="-24.8496230" lon="-53.6903610">
        <ele>594.3</ele>
        <time>2018-09-14T18:52:48Z</time>
      </trkpt>
      <trkpt lat="-24.8496450" lon="-53.6904030">
        <ele>594.3</ele>
        <time>2018-09-14T18:52:49Z</time>
      </trkpt>
      <trkpt lat="-24.8496690" lon="-53.6904440">
        <ele>594.4</ele>
        <time>2018-09-14T18:52:50Z</time>
      </trkpt>
      <trkpt lat="-24.8496940" lon="-53.6904840">
        <ele>594.6</ele>
        <time>2018-09-14T18:52:51Z</time>
      </trkpt>
      <trkpt lat="-24.8497220" lon="-53.6905220">
        <ele>594.9</ele>
        <time>2018-09-14T18:52:52Z</time>
      </trkpt>
      <trkpt lat="-24.8497530" lon="-53.6905590">
        <ele>595.1</ele>
        <time>2018-09-14T18:52:53Z</time>
      </trkpt>
      <trkpt lat="-24.8497860" lon="-53.6905940">
        <ele>595.3</ele>
        <time>2018-09-14T18:52:54Z</time>
      </trkpt>
      <trkpt lat="-24.8498210" lon="-53.6906290">
        <ele>595.4</ele>
        <time>2018-09-14T18:52:55Z</time>
      </trkpt>
      <trkpt lat="-24.8498560" lon="-53.6906620">
        <ele>595.6</ele>
        <time>2018-09-14T18:52:56Z</time>
      </trkpt>
      <trkpt lat="-24.8498920" lon="-53.6906940">
        <ele>595.7</ele>
        <time>2018-09-14T18:52:57Z</time>
      </trkpt>
      <trkpt lat="-24.8499300" lon="-53.6907250">
        <ele>595.9</ele>
        <time>2018-09-14T18:52:58Z</time>
      </trkpt>
      <trkpt lat="-24.8499680" lon="-53.6907550">
        <ele>596.3</ele>
        <time>2018-09-14T18:52:59Z</time>
      </trkpt>
      <trkpt lat="-24.8500060" lon="-53.6907850">
        <ele>596.8</ele>
        <time>2018-09-14T18:53:00Z</time>
      </trkpt>
      <trkpt lat="-24.8500450" lon="-53.6908150">
        <ele>597.3</ele>
        <time>2018-09-14T18:53:01Z</time>
      </trkpt>
      <trkpt lat="-24.8500840" lon="-53.6908460">
        <ele>597.8</ele>
        <time>2018-09-14T18:53:02Z</time>
      </trkpt>
      <trkpt lat="-24.8501240" lon="-53.6908760">
        <ele>597.6</ele>
        <time>2018-09-14T18:53:03Z</time>
      </trkpt>
      <trkpt lat="-24.8501640" lon="-53.6909060">
        <ele>597.6</ele>
        <time>2018-09-14T18:53:04Z</time>
      </trkpt>
      <trkpt lat="-24.8502040" lon="-53.6909350">
        <ele>597.7</ele>
        <time>2018-09-14T18:53:05Z</time>
      </trkpt>
      <trkpt lat="-24.8502430" lon="-53.6909650">
        <ele>597.9</ele>
        <time>2018-09-14T18:53:06Z</time>
      </trkpt>
      <trkpt lat="-24.8502820" lon="-53.6909940">
        <ele>597.9</ele>
        <time>2018-09-14T18:53:07Z</time>
      </trkpt>
      <trkpt lat="-24.8503210" lon="-53.6910220">
        <ele>598.0</ele>
        <time>2018-09-14T18:53:08Z</time>
      </trkpt>
      <trkpt lat="-24.8503590" lon="-53.6910520">
        <ele>597.9</ele>
        <time>2018-09-14T18:53:09Z</time>
      </trkpt>
      <trkpt lat="-24.8503970" lon="-53.6910820">
        <ele>597.5</ele>
        <time>2018-09-14T18:53:10Z</time>
      </trkpt>
      <trkpt lat="-24.8504350" lon="-53.6911130">
        <ele>596.8</ele>
        <time>2018-09-14T18:53:11Z</time>
      </trkpt>
      <trkpt lat="-24.8504720" lon="-53.6911430">
        <ele>596.3</ele>
        <time>2018-09-14T18:53:12Z</time>
      </trkpt>
      <trkpt lat="-24.8505060" lon="-53.6911760">
        <ele>595.8</ele>
        <time>2018-09-14T18:53:13Z</time>
      </trkpt>
      <trkpt lat="-24.8505380" lon="-53.6912090">
        <ele>595.3</ele>
        <time>2018-09-14T18:53:14Z</time>
      </trkpt>
      <trkpt lat="-24.8505690" lon="-53.6912410">
        <ele>594.8</ele>
        <time>2018-09-14T18:53:15Z</time>
      </trkpt>
      <trkpt lat="-24.8506010" lon="-53.6912730">
        <ele>594.6</ele>
        <time>2018-09-14T18:53:16Z</time>
      </trkpt>
      <trkpt lat="-24.8506320" lon="-53.6913060">
        <ele>594.7</ele>
        <time>2018-09-14T18:53:17Z</time>
      </trkpt>
      <trkpt lat="-24.8506590" lon="-53.6913400">
        <ele>594.9</ele>
        <time>2018-09-14T18:53:18Z</time>
      </trkpt>
      <trkpt lat="-24.8506880" lon="-53.6913730">
        <ele>595.1</ele>
        <time>2018-09-14T18:53:19Z</time>
      </trkpt>
      <trkpt lat="-24.8507160" lon="-53.6914070">
        <ele>595.3</ele>
        <time>2018-09-14T18:53:20Z</time>
      </trkpt>
      <trkpt lat="-24.8507440" lon="-53.6914440">
        <ele>595.4</ele>
        <time>2018-09-14T18:53:21Z</time>
      </trkpt>
      <trkpt lat="-24.8507730" lon="-53.6914800">
        <ele>595.5</ele>
        <time>2018-09-14T18:53:22Z</time>
      </trkpt>
      <trkpt lat="-24.8508040" lon="-53.6915160">
        <ele>595.7</ele>
        <time>2018-09-14T18:53:23Z</time>
      </trkpt>
      <trkpt lat="-24.8508330" lon="-53.6915540">
        <ele>595.9</ele>
        <time>2018-09-14T18:53:24Z</time>
      </trkpt>
      <trkpt lat="-24.8508620" lon="-53.6915940">
        <ele>596.1</ele>
        <time>2018-09-14T18:53:25Z</time>
      </trkpt>
      <trkpt lat="-24.8508910" lon="-53.6916370">
        <ele>596.6</ele>
        <time>2018-09-14T18:53:26Z</time>
      </trkpt>
      <trkpt lat="-24.8509180" lon="-53.6916790">
        <ele>597.0</ele>
        <time>2018-09-14T18:53:27Z</time>
      </trkpt>
      <trkpt lat="-24.8509440" lon="-53.6917240">
        <ele>597.6</ele>
        <time>2018-09-14T18:53:28Z</time>
      </trkpt>
      <trkpt lat="-24.8509680" lon="-53.6917690">
        <ele>598.0</ele>
        <time>2018-09-14T18:53:29Z</time>
      </trkpt>
      <trkpt lat="-24.8509910" lon="-53.6918160">
        <ele>598.2</ele>
        <time>2018-09-14T18:53:30Z</time>
      </trkpt>
      <trkpt lat="-24.8510140" lon="-53.6918630">
        <ele>598.3</ele>
        <time>2018-09-14T18:53:31Z</time>
      </trkpt>
      <trkpt lat="-24.8510380" lon="-53.6919100">
        <ele>598.3</ele>
        <time>2018-09-14T18:53:32Z</time>
      </trkpt>
      <trkpt lat="-24.8510600" lon="-53.6919580">
        <ele>598.7</ele>
        <time>2018-09-14T18:53:33Z</time>
      </trkpt>
      <trkpt lat="-24.8510800" lon="-53.6920080">
        <ele>599.0</ele>
        <time>2018-09-14T18:53:34Z</time>
      </trkpt>
      <trkpt lat="-24.8510990" lon="-53.6920590">
        <ele>598.6</ele>
        <time>2018-09-14T18:53:35Z</time>
      </trkpt>
      <trkpt lat="-24.8511140" lon="-53.6921110">
        <ele>598.2</ele>
        <time>2018-09-14T18:53:36Z</time>
      </trkpt>
      <trkpt lat="-24.8511300" lon="-53.6921640">
        <ele>597.6</ele>
        <time>2018-09-14T18:53:37Z</time>
      </trkpt>
      <trkpt lat="-24.8511590" lon="-53.6922720">
        <ele>596.9</ele>
        <time>2018-09-14T18:53:38Z</time>
      </trkpt>
      <trkpt lat="-24.8511720" lon="-53.6923280">
        <ele>596.8</ele>
        <time>2018-09-14T18:53:39Z</time>
      </trkpt>
      <trkpt lat="-24.8511850" lon="-53.6923830">
        <ele>596.8</ele>
        <time>2018-09-14T18:53:40Z</time>
      </trkpt>
      <trkpt lat="-24.8511960" lon="-53.6924380">
        <ele>596.8</ele>
        <time>2018-09-14T18:53:41Z</time>
      </trkpt>
      <trkpt lat="-24.8512070" lon="-53.6924940">
        <ele>596.6</ele>
        <time>2018-09-14T18:53:42Z</time>
      </trkpt>
      <trkpt lat="-24.8512170" lon="-53.6925490">
        <ele>596.4</ele>
        <time>2018-09-14T18:53:43Z</time>
      </trkpt>
      <trkpt lat="-24.8512250" lon="-53.6926060">
        <ele>596.1</ele>
        <time>2018-09-14T18:53:44Z</time>
      </trkpt>
      <trkpt lat="-24.8512330" lon="-53.6926610">
        <ele>595.8</ele>
        <time>2018-09-14T18:53:45Z</time>
      </trkpt>
      <trkpt lat="-24.8512420" lon="-53.6927710">
        <ele>595.2</ele>
        <time>2018-09-14T18:53:47Z</time>
      </trkpt>
      <trkpt lat="-24.8512430" lon="-53.6928250">
        <ele>595.0</ele>
        <time>2018-09-14T18:53:48Z</time>
      </trkpt>
      <trkpt lat="-24.8512410" lon="-53.6928760">
        <ele>595.0</ele>
        <time>2018-09-14T18:53:49Z</time>
      </trkpt>
      <trkpt lat="-24.8512380" lon="-53.6929230">
        <ele>595.2</ele>
        <time>2018-09-14T18:53:50Z</time>
      </trkpt>
      <trkpt lat="-24.8512310" lon="-53.6929690">
        <ele>595.5</ele>
        <time>2018-09-14T18:53:51Z</time>
      </trkpt>
      <trkpt lat="-24.8512200" lon="-53.6930140">
        <ele>595.8</ele>
        <time>2018-09-14T18:53:52Z</time>
      </trkpt>
      <trkpt lat="-24.8512050" lon="-53.6930630">
        <ele>596.1</ele>
        <time>2018-09-14T18:53:53Z</time>
      </trkpt>
      <trkpt lat="-24.8511880" lon="-53.6931190">
        <ele>596.4</ele>
        <time>2018-09-14T18:53:54Z</time>
      </trkpt>
      <trkpt lat="-24.8511680" lon="-53.6931750">
        <ele>596.8</ele>
        <time>2018-09-14T18:53:55Z</time>
      </trkpt>
      <trkpt lat="-24.8511500" lon="-53.6932350">
        <ele>597.1</ele>
        <time>2018-09-14T18:53:56Z</time>
      </trkpt>
      <trkpt lat="-24.8511410" lon="-53.6932940">
        <ele>597.4</ele>
        <time>2018-09-14T18:53:57Z</time>
      </trkpt>
      <trkpt lat="-24.8511380" lon="-53.6933520">
        <ele>597.7</ele>
        <time>2018-09-14T18:53:58Z</time>
      </trkpt>
      <trkpt lat="-24.8511390" lon="-53.6934090">
        <ele>597.8</ele>
        <time>2018-09-14T18:53:59Z</time>
      </trkpt>
      <trkpt lat="-24.8511430" lon="-53.6934640">
        <ele>598.0</ele>
        <time>2018-09-14T18:54:00Z</time>
      </trkpt>
      <trkpt lat="-24.8511480" lon="-53.6935190">
        <ele>598.2</ele>
        <time>2018-09-14T18:54:01Z</time>
      </trkpt>
      <trkpt lat="-24.8511560" lon="-53.6935720">
        <ele>598.3</ele>
        <time>2018-09-14T18:54:02Z</time>
      </trkpt>
      <trkpt lat="-24.8511660" lon="-53.6936220">
        <ele>598.5</ele>
        <time>2018-09-14T18:54:03Z</time>
      </trkpt>
      <trkpt lat="-24.8511780" lon="-53.6936700">
        <ele>598.5</ele>
        <time>2018-09-14T18:54:04Z</time>
      </trkpt>
      <trkpt lat="-24.8511900" lon="-53.6937160">
        <ele>598.6</ele>
        <time>2018-09-14T18:54:05Z</time>
      </trkpt>
      <trkpt lat="-24.8512030" lon="-53.6937620">
        <ele>598.7</ele>
        <time>2018-09-14T18:54:06Z</time>
      </trkpt>
      <trkpt lat="-24.8512140" lon="-53.6938070">
        <ele>598.8</ele>
        <time>2018-09-14T18:54:07Z</time>
      </trkpt>
      <trkpt lat="-24.8512260" lon="-53.6938510">
        <ele>599.0</ele>
        <time>2018-09-14T18:54:08Z</time>
      </trkpt>
      <trkpt lat="-24.8512380" lon="-53.6938940">
        <ele>599.2</ele>
        <time>2018-09-14T18:54:09Z</time>
      </trkpt>
      <trkpt lat="-24.8512500" lon="-53.6939360">
        <ele>599.5</ele>
        <time>2018-09-14T18:54:10Z</time>
      </trkpt>
      <trkpt lat="-24.8512620" lon="-53.6939790">
        <ele>599.8</ele>
        <time>2018-09-14T18:54:11Z</time>
      </trkpt>
      <trkpt lat="-24.8512740" lon="-53.6940230">
        <ele>600.0</ele>
        <time>2018-09-14T18:54:12Z</time>
      </trkpt>
      <trkpt lat="-24.8512870" lon="-53.6940650">
        <ele>600.2</ele>
        <time>2018-09-14T18:54:13Z</time>
      </trkpt>
      <trkpt lat="-24.8512990" lon="-53.6941100">
        <ele>600.2</ele>
        <time>2018-09-14T18:54:14Z</time>
      </trkpt>
      <trkpt lat="-24.8513090" lon="-53.6941550">
        <ele>599.7</ele>
        <time>2018-09-14T18:54:15Z</time>
      </trkpt>
      <trkpt lat="-24.8513220" lon="-53.6942020">
        <ele>599.3</ele>
        <time>2018-09-14T18:54:16Z</time>
      </trkpt>
      <trkpt lat="-24.8513340" lon="-53.6942500">
        <ele>599.1</ele>
        <time>2018-09-14T18:54:17Z</time>
      </trkpt>
      <trkpt lat="-24.8513450" lon="-53.6942990">
        <ele>598.9</ele>
        <time>2018-09-14T18:54:18Z</time>
      </trkpt>
      <trkpt lat="-24.8513530" lon="-53.6943470">
        <ele>598.7</ele>
        <time>2018-09-14T18:54:19Z</time>
      </trkpt>
      <trkpt lat="-24.8513610" lon="-53.6943950">
        <ele>598.5</ele>
        <time>2018-09-14T18:54:20Z</time>
      </trkpt>
      <trkpt lat="-24.8513690" lon="-53.6944440">
        <ele>598.5</ele>
        <time>2018-09-14T18:54:21Z</time>
      </trkpt>
      <trkpt lat="-24.8513760" lon="-53.6944930">
        <ele>598.6</ele>
        <time>2018-09-14T18:54:22Z</time>
      </trkpt>
      <trkpt lat="-24.8513830" lon="-53.6945430">
        <ele>598.6</ele>
        <time>2018-09-14T18:54:23Z</time>
      </trkpt>
      <trkpt lat="-24.8513880" lon="-53.6945920">
        <ele>598.6</ele>
        <time>2018-09-14T18:54:24Z</time>
      </trkpt>
      <trkpt lat="-24.8513960" lon="-53.6946910">
        <ele>598.0</ele>
        <time>2018-09-14T18:54:26Z</time>
      </trkpt>
      <trkpt lat="-24.8513960" lon="-53.6947410">
        <ele>597.8</ele>
        <time>2018-09-14T18:54:27Z</time>
      </trkpt>
      <trkpt lat="-24.8513960" lon="-53.6947920">
        <ele>597.7</ele>
        <time>2018-09-14T18:54:28Z</time>
      </trkpt>
      <trkpt lat="-24.8513960" lon="-53.6948440">
        <ele>597.7</ele>
        <time>2018-09-14T18:54:29Z</time>
      </trkpt>
      <trkpt lat="-24.8513930" lon="-53.6948950">
        <ele>597.8</ele>
        <time>2018-09-14T18:54:30Z</time>
      </trkpt>
      <trkpt lat="-24.8513880" lon="-53.6949450">
        <ele>597.9</ele>
        <time>2018-09-14T18:54:31Z</time>
      </trkpt>
      <trkpt lat="-24.8513810" lon="-53.6949940">
        <ele>597.2</ele>
        <time>2018-09-14T18:54:32Z</time>
      </trkpt>
      <trkpt lat="-24.8513730" lon="-53.6950420">
        <ele>596.5</ele>
        <time>2018-09-14T18:54:33Z</time>
      </trkpt>
      <trkpt lat="-24.8513620" lon="-53.6950870">
        <ele>596.0</ele>
        <time>2018-09-14T18:54:34Z</time>
      </trkpt>
      <trkpt lat="-24.8513490" lon="-53.6951300">
        <ele>595.5</ele>
        <time>2018-09-14T18:54:35Z</time>
      </trkpt>
      <trkpt lat="-24.8513330" lon="-53.6951740">
        <ele>595.2</ele>
        <time>2018-09-14T18:54:36Z</time>
      </trkpt>
      <trkpt lat="-24.8513140" lon="-53.6952180">
        <ele>595.0</ele>
        <time>2018-09-14T18:54:37Z</time>
      </trkpt>
      <trkpt lat="-24.8512950" lon="-53.6952620">
        <ele>594.9</ele>
        <time>2018-09-14T18:54:38Z</time>
      </trkpt>
      <trkpt lat="-24.8512740" lon="-53.6953090">
        <ele>594.7</ele>
        <time>2018-09-14T18:54:39Z</time>
      </trkpt>
      <trkpt lat="-24.8512520" lon="-53.6953570">
        <ele>594.5</ele>
        <time>2018-09-14T18:54:40Z</time>
      </trkpt>
      <trkpt lat="-24.8512260" lon="-53.6954030">
        <ele>594.2</ele>
        <time>2018-09-14T18:54:41Z</time>
      </trkpt>
      <trkpt lat="-24.8511990" lon="-53.6954470">
        <ele>594.0</ele>
        <time>2018-09-14T18:54:42Z</time>
      </trkpt>
      <trkpt lat="-24.8511740" lon="-53.6954890">
        <ele>593.9</ele>
        <time>2018-09-14T18:54:43Z</time>
      </trkpt>
      <trkpt lat="-24.8511530" lon="-53.6955240">
        <ele>593.8</ele>
        <time>2018-09-14T18:54:44Z</time>
      </trkpt>
      <trkpt lat="-24.8511330" lon="-53.6955510">
        <ele>593.8</ele>
        <time>2018-09-14T18:54:45Z</time>
      </trkpt>
      <trkpt lat="-24.8511150" lon="-53.6955720">
        <ele>593.9</ele>
        <time>2018-09-14T18:54:46Z</time>
      </trkpt>
      <trkpt lat="-24.8511000" lon="-53.6955930">
        <ele>593.9</ele>
        <time>2018-09-14T18:54:47Z</time>
      </trkpt>
      <trkpt lat="-24.8510870" lon="-53.6956100">
        <ele>593.9</ele>
        <time>2018-09-14T18:54:48Z</time>
      </trkpt>
      <trkpt lat="-24.8510780" lon="-53.6956260">
        <ele>594.0</ele>
        <time>2018-09-14T18:54:49Z</time>
      </trkpt>
      <trkpt lat="-24.8510690" lon="-53.6956400">
        <ele>594.0</ele>
        <time>2018-09-14T18:54:50Z</time>
      </trkpt>
      <trkpt lat="-24.8510590" lon="-53.6956560">
        <ele>594.0</ele>
        <time>2018-09-14T18:54:51Z</time>
      </trkpt>
      <trkpt lat="-24.8510460" lon="-53.6956740">
        <ele>594.0</ele>
        <time>2018-09-14T18:54:52Z</time>
      </trkpt>
      <trkpt lat="-24.8510330" lon="-53.6956910">
        <ele>594.0</ele>
        <time>2018-09-14T18:54:53Z</time>
      </trkpt>
      <trkpt lat="-24.8510200" lon="-53.6957080">
        <ele>594.0</ele>
        <time>2018-09-14T18:54:54Z</time>
      </trkpt>
      <trkpt lat="-24.8510060" lon="-53.6957280">
        <ele>594.1</ele>
        <time>2018-09-14T18:54:55Z</time>
      </trkpt>
      <trkpt lat="-24.8509930" lon="-53.6957480">
        <ele>594.3</ele>
        <time>2018-09-14T18:54:56Z</time>
      </trkpt>
      <trkpt lat="-24.8509790" lon="-53.6957680">
        <ele>594.4</ele>
        <time>2018-09-14T18:54:57Z</time>
      </trkpt>
      <trkpt lat="-24.8509640" lon="-53.6957910">
        <ele>594.6</ele>
        <time>2018-09-14T18:54:58Z</time>
      </trkpt>
      <trkpt lat="-24.8509470" lon="-53.6958130">
        <ele>594.8</ele>
        <time>2018-09-14T18:54:59Z</time>
      </trkpt>
      <trkpt lat="-24.8509310" lon="-53.6958370">
        <ele>594.9</ele>
        <time>2018-09-14T18:55:00Z</time>
      </trkpt>
      <trkpt lat="-24.8509130" lon="-53.6958640">
        <ele>595.0</ele>
        <time>2018-09-14T18:55:01Z</time>
      </trkpt>
      <trkpt lat="-24.8508940" lon="-53.6958870">
        <ele>595.1</ele>
        <time>2018-09-14T18:55:02Z</time>
      </trkpt>
      <trkpt lat="-24.8508740" lon="-53.6959110">
        <ele>595.1</ele>
        <time>2018-09-14T18:55:03Z</time>
      </trkpt>
      <trkpt lat="-24.8508540" lon="-53.6959340">
        <ele>595.1</ele>
        <time>2018-09-14T18:55:04Z</time>
      </trkpt>
      <trkpt lat="-24.8508350" lon="-53.6959570">
        <ele>595.3</ele>
        <time>2018-09-14T18:55:05Z</time>
      </trkpt>
      <trkpt lat="-24.8508160" lon="-53.6959820">
        <ele>595.6</ele>
        <time>2018-09-14T18:55:06Z</time>
      </trkpt>
      <trkpt lat="-24.8507960" lon="-53.6960070">
        <ele>596.0</ele>
        <time>2018-09-14T18:55:07Z</time>
      </trkpt>
      <trkpt lat="-24.8507770" lon="-53.6960300">
        <ele>596.3</ele>
        <time>2018-09-14T18:55:08Z</time>
      </trkpt>
      <trkpt lat="-24.8507600" lon="-53.6960540">
        <ele>596.7</ele>
        <time>2018-09-14T18:55:09Z</time>
      </trkpt>
      <trkpt lat="-24.8507420" lon="-53.6960780">
        <ele>597.0</ele>
        <time>2018-09-14T18:55:10Z</time>
      </trkpt>
      <trkpt lat="-24.8507230" lon="-53.6961030">
        <ele>597.3</ele>
        <time>2018-09-14T18:55:11Z</time>
      </trkpt>
      <trkpt lat="-24.8507030" lon="-53.6961310">
        <ele>597.5</ele>
        <time>2018-09-14T18:55:12Z</time>
      </trkpt>
      <trkpt lat="-24.8506830" lon="-53.6961590">
        <ele>597.6</ele>
        <time>2018-09-14T18:55:13Z</time>
      </trkpt>
      <trkpt lat="-24.8506620" lon="-53.6961850">
        <ele>597.6</ele>
        <time>2018-09-14T18:55:14Z</time>
      </trkpt>
      <trkpt lat="-24.8506420" lon="-53.6962110">
        <ele>597.6</ele>
        <time>2018-09-14T18:55:15Z</time>
      </trkpt>
      <trkpt lat="-24.8506230" lon="-53.6962360">
        <ele>597.5</ele>
        <time>2018-09-14T18:55:16Z</time>
      </trkpt>
      <trkpt lat="-24.8506040" lon="-53.6962590">
        <ele>597.5</ele>
        <time>2018-09-14T18:55:17Z</time>
      </trkpt>
      <trkpt lat="-24.8505860" lon="-53.6962820">
        <ele>597.6</ele>
        <time>2018-09-14T18:55:18Z</time>
      </trkpt>
      <trkpt lat="-24.8505680" lon="-53.6963060">
        <ele>597.7</ele>
        <time>2018-09-14T18:55:19Z</time>
      </trkpt>
      <trkpt lat="-24.8505500" lon="-53.6963290">
        <ele>597.8</ele>
        <time>2018-09-14T18:55:20Z</time>
      </trkpt>
      <trkpt lat="-24.8505320" lon="-53.6963500">
        <ele>597.7</ele>
        <time>2018-09-14T18:55:21Z</time>
      </trkpt>
      <trkpt lat="-24.8505140" lon="-53.6963720">
        <ele>597.6</ele>
        <time>2018-09-14T18:55:22Z</time>
      </trkpt>
      <trkpt lat="-24.8504980" lon="-53.6963940">
        <ele>597.5</ele>
        <time>2018-09-14T18:55:23Z</time>
      </trkpt>
      <trkpt lat="-24.8504820" lon="-53.6964160">
        <ele>597.5</ele>
        <time>2018-09-14T18:55:24Z</time>
      </trkpt>
      <trkpt lat="-24.8504670" lon="-53.6964390">
        <ele>597.6</ele>
        <time>2018-09-14T18:55:25Z</time>
      </trkpt>
      <trkpt lat="-24.8504530" lon="-53.6964610">
        <ele>597.7</ele>
        <time>2018-09-14T18:55:26Z</time>
      </trkpt>
      <trkpt lat="-24.8504380" lon="-53.6964820">
        <ele>597.8</ele>
        <time>2018-09-14T18:55:27Z</time>
      </trkpt>
      <trkpt lat="-24.8504230" lon="-53.6965020">
        <ele>598.1</ele>
        <time>2018-09-14T18:55:28Z</time>
      </trkpt>
      <trkpt lat="-24.8504070" lon="-53.6965210">
        <ele>598.3</ele>
        <time>2018-09-14T18:55:29Z</time>
      </trkpt>
      <trkpt lat="-24.8503910" lon="-53.6965410">
        <ele>598.5</ele>
        <time>2018-09-14T18:55:30Z</time>
      </trkpt>
      <trkpt lat="-24.8503770" lon="-53.6965590">
        <ele>598.7</ele>
        <time>2018-09-14T18:55:31Z</time>
      </trkpt>
      <trkpt lat="-24.8503640" lon="-53.6965760">
        <ele>598.9</ele>
        <time>2018-09-14T18:55:32Z</time>
      </trkpt>
      <trkpt lat="-24.8503520" lon="-53.6965960">
        <ele>599.0</ele>
        <time>2018-09-14T18:55:33Z</time>
      </trkpt>
      <trkpt lat="-24.8503400" lon="-53.6966130">
        <ele>599.1</ele>
        <time>2018-09-14T18:55:34Z</time>
      </trkpt>
      <trkpt lat="-24.8503280" lon="-53.6966310">
        <ele>599.2</ele>
        <time>2018-09-14T18:55:35Z</time>
      </trkpt>
      <trkpt lat="-24.8503170" lon="-53.6966510">
        <ele>599.5</ele>
        <time>2018-09-14T18:55:36Z</time>
      </trkpt>
      <trkpt lat="-24.8503040" lon="-53.6966720">
        <ele>599.7</ele>
        <time>2018-09-14T18:55:37Z</time>
      </trkpt>
      <trkpt lat="-24.8502900" lon="-53.6966950">
        <ele>600.0</ele>
        <time>2018-09-14T18:55:38Z</time>
      </trkpt>
      <trkpt lat="-24.8502750" lon="-53.6967190">
        <ele>600.2</ele>
        <time>2018-09-14T18:55:39Z</time>
      </trkpt>
      <trkpt lat="-24.8502590" lon="-53.6967410">
        <ele>600.4</ele>
        <time>2018-09-14T18:55:40Z</time>
      </trkpt>
      <trkpt lat="-24.8502450" lon="-53.6967630">
        <ele>600.5</ele>
        <time>2018-09-14T18:55:41Z</time>
      </trkpt>
      <trkpt lat="-24.8502320" lon="-53.6967840">
        <ele>600.7</ele>
        <time>2018-09-14T18:55:42Z</time>
      </trkpt>
      <trkpt lat="-24.8502180" lon="-53.6968020">
        <ele>600.8</ele>
        <time>2018-09-14T18:55:43Z</time>
      </trkpt>
      <trkpt lat="-24.8502040" lon="-53.6968180">
        <ele>600.9</ele>
        <time>2018-09-14T18:55:44Z</time>
      </trkpt>
      <trkpt lat="-24.8501910" lon="-53.6968350">
        <ele>601.0</ele>
        <time>2018-09-14T18:55:45Z</time>
      </trkpt>
      <trkpt lat="-24.8501910" lon="-53.6968350">
        <ele>601.0</ele>
        <time>2018-09-14T18:55:46Z</time>
      </trkpt>
      <trkpt lat="-24.8501800" lon="-53.6968530">
        <ele>601.1</ele>
        <time>2018-09-14T18:55:47Z</time>
      </trkpt>
      <trkpt lat="-24.8501670" lon="-53.6968710">
        <ele>601.2</ele>
        <time>2018-09-14T18:55:48Z</time>
      </trkpt>
      <trkpt lat="-24.8501550" lon="-53.6968870">
        <ele>601.2</ele>
        <time>2018-09-14T18:55:49Z</time>
      </trkpt>
      <trkpt lat="-24.8501440" lon="-53.6969050">
        <ele>601.3</ele>
        <time>2018-09-14T18:55:50Z</time>
      </trkpt>
      <trkpt lat="-24.8501320" lon="-53.6969220">
        <ele>601.3</ele>
        <time>2018-09-14T18:55:51Z</time>
      </trkpt>
      <trkpt lat="-24.8501210" lon="-53.6969380">
        <ele>601.4</ele>
        <time>2018-09-14T18:55:52Z</time>
      </trkpt>
      <trkpt lat="-24.8501100" lon="-53.6969560">
        <ele>601.5</ele>
        <time>2018-09-14T18:55:53Z</time>
      </trkpt>
      <trkpt lat="-24.8500970" lon="-53.6969750">
        <ele>601.6</ele>
        <time>2018-09-14T18:55:54Z</time>
      </trkpt>
      <trkpt lat="-24.8500820" lon="-53.6969970">
        <ele>601.8</ele>
        <time>2018-09-14T18:55:55Z</time>
      </trkpt>
      <trkpt lat="-24.8500660" lon="-53.6970200">
        <ele>601.9</ele>
        <time>2018-09-14T18:55:56Z</time>
      </trkpt>
      <trkpt lat="-24.8500500" lon="-53.6970450">
        <ele>602.1</ele>
        <time>2018-09-14T18:55:57Z</time>
      </trkpt>
      <trkpt lat="-24.8500330" lon="-53.6970680">
        <ele>602.3</ele>
        <time>2018-09-14T18:55:58Z</time>
      </trkpt>
      <trkpt lat="-24.8500150" lon="-53.6970890">
        <ele>602.5</ele>
        <time>2018-09-14T18:55:59Z</time>
      </trkpt>
      <trkpt lat="-24.8499980" lon="-53.6971110">
        <ele>602.7</ele>
        <time>2018-09-14T18:56:00Z</time>
      </trkpt>
      <trkpt lat="-24.8499830" lon="-53.6971330">
        <ele>602.7</ele>
        <time>2018-09-14T18:56:01Z</time>
      </trkpt>
      <trkpt lat="-24.8499660" lon="-53.6971550">
        <ele>602.8</ele>
        <time>2018-09-14T18:56:02Z</time>
      </trkpt>
      <trkpt lat="-24.8499490" lon="-53.6971770">
        <ele>602.9</ele>
        <time>2018-09-14T18:56:03Z</time>
      </trkpt>
      <trkpt lat="-24.8499330" lon="-53.6971980">
        <ele>602.9</ele>
        <time>2018-09-14T18:56:04Z</time>
      </trkpt>
      <trkpt lat="-24.8499170" lon="-53.6972190">
        <ele>602.8</ele>
        <time>2018-09-14T18:56:05Z</time>
      </trkpt>
      <trkpt lat="-24.8499010" lon="-53.6972390">
        <ele>602.7</ele>
        <time>2018-09-14T18:56:06Z</time>
      </trkpt>
      <trkpt lat="-24.8498850" lon="-53.6972590">
        <ele>602.6</ele>
        <time>2018-09-14T18:56:07Z</time>
      </trkpt>
      <trkpt lat="-24.8498690" lon="-53.6972780">
        <ele>602.8</ele>
        <time>2018-09-14T18:56:08Z</time>
      </trkpt>
      <trkpt lat="-24.8498540" lon="-53.6972950">
        <ele>603.0</ele>
        <time>2018-09-14T18:56:09Z</time>
      </trkpt>
      <trkpt lat="-24.8498400" lon="-53.6973100">
        <ele>603.2</ele>
        <time>2018-09-14T18:56:10Z</time>
      </trkpt>
      <trkpt lat="-24.8498240" lon="-53.6973260">
        <ele>603.3</ele>
        <time>2018-09-14T18:56:11Z</time>
      </trkpt>
      <trkpt lat="-24.8498100" lon="-53.6973420">
        <ele>603.5</ele>
        <time>2018-09-14T18:56:12Z</time>
      </trkpt>
      <trkpt lat="-24.8497970" lon="-53.6973600">
        <ele>603.8</ele>
        <time>2018-09-14T18:56:13Z</time>
      </trkpt>
      <trkpt lat="-24.8497830" lon="-53.6973780">
        <ele>604.0</ele>
        <time>2018-09-14T18:56:14Z</time>
      </trkpt>
      <trkpt lat="-24.8497650" lon="-53.6973990">
        <ele>604.2</ele>
        <time>2018-09-14T18:56:15Z</time>
      </trkpt>
      <trkpt lat="-24.8497460" lon="-53.6974220">
        <ele>604.5</ele>
        <time>2018-09-14T18:56:16Z</time>
      </trkpt>
      <trkpt lat="-24.8497230" lon="-53.6974450">
        <ele>604.9</ele>
        <time>2018-09-14T18:56:17Z</time>
      </trkpt>
      <trkpt lat="-24.8497010" lon="-53.6974700">
        <ele>605.2</ele>
        <time>2018-09-14T18:56:18Z</time>
      </trkpt>
      <trkpt lat="-24.8496780" lon="-53.6974950">
        <ele>605.3</ele>
        <time>2018-09-14T18:56:19Z</time>
      </trkpt>
      <trkpt lat="-24.8496550" lon="-53.6975190">
        <ele>605.2</ele>
        <time>2018-09-14T18:56:20Z</time>
      </trkpt>
      <trkpt lat="-24.8496330" lon="-53.6975430">
        <ele>605.2</ele>
        <time>2018-09-14T18:56:21Z</time>
      </trkpt>
      <trkpt lat="-24.8496090" lon="-53.6975650">
        <ele>605.0</ele>
        <time>2018-09-14T18:56:22Z</time>
      </trkpt>
      <trkpt lat="-24.8495860" lon="-53.6975870">
        <ele>604.8</ele>
        <time>2018-09-14T18:56:23Z</time>
      </trkpt>
      <trkpt lat="-24.8495640" lon="-53.6976100">
        <ele>604.6</ele>
        <time>2018-09-14T18:56:24Z</time>
      </trkpt>
      <trkpt lat="-24.8495420" lon="-53.6976340">
        <ele>604.4</ele>
        <time>2018-09-14T18:56:25Z</time>
      </trkpt>
      <trkpt lat="-24.8495210" lon="-53.6976580">
        <ele>604.2</ele>
        <time>2018-09-14T18:56:26Z</time>
      </trkpt>
      <trkpt lat="-24.8494990" lon="-53.6976830">
        <ele>604.0</ele>
        <time>2018-09-14T18:56:27Z</time>
      </trkpt>
      <trkpt lat="-24.8494780" lon="-53.6977060">
        <ele>603.9</ele>
        <time>2018-09-14T18:56:28Z</time>
      </trkpt>
      <trkpt lat="-24.8494570" lon="-53.6977300">
        <ele>603.8</ele>
        <time>2018-09-14T18:56:29Z</time>
      </trkpt>
      <trkpt lat="-24.8494360" lon="-53.6977550">
        <ele>603.7</ele>
        <time>2018-09-14T18:56:30Z</time>
      </trkpt>
      <trkpt lat="-24.8494160" lon="-53.6977820">
        <ele>603.6</ele>
        <time>2018-09-14T18:56:31Z</time>
      </trkpt>
      <trkpt lat="-24.8493940" lon="-53.6978080">
        <ele>603.6</ele>
        <time>2018-09-14T18:56:32Z</time>
      </trkpt>
      <trkpt lat="-24.8493710" lon="-53.6978340">
        <ele>603.6</ele>
        <time>2018-09-14T18:56:33Z</time>
      </trkpt>
      <trkpt lat="-24.8493480" lon="-53.6978610">
        <ele>603.2</ele>
        <time>2018-09-14T18:56:34Z</time>
      </trkpt>
      <trkpt lat="-24.8493250" lon="-53.6978880">
        <ele>602.9</ele>
        <time>2018-09-14T18:56:35Z</time>
      </trkpt>
      <trkpt lat="-24.8493030" lon="-53.6979160">
        <ele>602.8</ele>
        <time>2018-09-14T18:56:36Z</time>
      </trkpt>
      <trkpt lat="-24.8492820" lon="-53.6979440">
        <ele>602.9</ele>
        <time>2018-09-14T18:56:37Z</time>
      </trkpt>
      <trkpt lat="-24.8492610" lon="-53.6979720">
        <ele>602.9</ele>
        <time>2018-09-14T18:56:38Z</time>
      </trkpt>
      <trkpt lat="-24.8492410" lon="-53.6979990">
        <ele>602.9</ele>
        <time>2018-09-14T18:56:39Z</time>
      </trkpt>
      <trkpt lat="-24.8492200" lon="-53.6980270">
        <ele>603.0</ele>
        <time>2018-09-14T18:56:40Z</time>
      </trkpt>
      <trkpt lat="-24.8492010" lon="-53.6980550">
        <ele>603.0</ele>
        <time>2018-09-14T18:56:41Z</time>
      </trkpt>
      <trkpt lat="-24.8491820" lon="-53.6980830">
        <ele>602.9</ele>
        <time>2018-09-14T18:56:42Z</time>
      </trkpt>
      <trkpt lat="-24.8491630" lon="-53.6981110">
        <ele>602.8</ele>
        <time>2018-09-14T18:56:43Z</time>
      </trkpt>
      <trkpt lat="-24.8491420" lon="-53.6981390">
        <ele>602.6</ele>
        <time>2018-09-14T18:56:44Z</time>
      </trkpt>
      <trkpt lat="-24.8491220" lon="-53.6981670">
        <ele>602.6</ele>
        <time>2018-09-14T18:56:45Z</time>
      </trkpt>
      <trkpt lat="-24.8491040" lon="-53.6981950">
        <ele>602.5</ele>
        <time>2018-09-14T18:56:46Z</time>
      </trkpt>
      <trkpt lat="-24.8490840" lon="-53.6982220">
        <ele>602.5</ele>
        <time>2018-09-14T18:56:47Z</time>
      </trkpt>
      <trkpt lat="-24.8490640" lon="-53.6982500">
        <ele>602.6</ele>
        <time>2018-09-14T18:56:48Z</time>
      </trkpt>
      <trkpt lat="-24.8490420" lon="-53.6982780">
        <ele>602.7</ele>
        <time>2018-09-14T18:56:49Z</time>
      </trkpt>
      <trkpt lat="-24.8490210" lon="-53.6983080">
        <ele>602.9</ele>
        <time>2018-09-14T18:56:50Z</time>
      </trkpt>
      <trkpt lat="-24.8490000" lon="-53.6983370">
        <ele>603.2</ele>
        <time>2018-09-14T18:56:51Z</time>
      </trkpt>
      <trkpt lat="-24.8489800" lon="-53.6983670">
        <ele>603.4</ele>
        <time>2018-09-14T18:56:52Z</time>
      </trkpt>
      <trkpt lat="-24.8489590" lon="-53.6983970">
        <ele>603.6</ele>
        <time>2018-09-14T18:56:53Z</time>
      </trkpt>
      <trkpt lat="-24.8489380" lon="-53.6984270">
        <ele>603.8</ele>
        <time>2018-09-14T18:56:54Z</time>
      </trkpt>
      <trkpt lat="-24.8489160" lon="-53.6984560">
        <ele>604.1</ele>
        <time>2018-09-14T18:56:55Z</time>
      </trkpt>
      <trkpt lat="-24.8488940" lon="-53.6984850">
        <ele>604.3</ele>
        <time>2018-09-14T18:56:56Z</time>
      </trkpt>
      <trkpt lat="-24.8488730" lon="-53.6985140">
        <ele>604.5</ele>
        <time>2018-09-14T18:56:57Z</time>
      </trkpt>
      <trkpt lat="-24.8488510" lon="-53.6985420">
        <ele>604.6</ele>
        <time>2018-09-14T18:56:58Z</time>
      </trkpt>
      <trkpt lat="-24.8488290" lon="-53.6985700">
        <ele>604.6</ele>
        <time>2018-09-14T18:56:59Z</time>
      </trkpt>
      <trkpt lat="-24.8488070" lon="-53.6985990">
        <ele>604.6</ele>
        <time>2018-09-14T18:57:00Z</time>
      </trkpt>
      <trkpt lat="-24.8487850" lon="-53.6986280">
        <ele>604.5</ele>
        <time>2018-09-14T18:57:01Z</time>
      </trkpt>
      <trkpt lat="-24.8487640" lon="-53.6986570">
        <ele>604.5</ele>
        <time>2018-09-14T18:57:02Z</time>
      </trkpt>
      <trkpt lat="-24.8487430" lon="-53.6986860">
        <ele>604.5</ele>
        <time>2018-09-14T18:57:03Z</time>
      </trkpt>
      <trkpt lat="-24.8487220" lon="-53.6987160">
        <ele>604.5</ele>
        <time>2018-09-14T18:57:04Z</time>
      </trkpt>
      <trkpt lat="-24.8487010" lon="-53.6987450">
        <ele>604.6</ele>
        <time>2018-09-14T18:57:05Z</time>
      </trkpt>
      <trkpt lat="-24.8486800" lon="-53.6987760">
        <ele>604.5</ele>
        <time>2018-09-14T18:57:06Z</time>
      </trkpt>
      <trkpt lat="-24.8486570" lon="-53.6988050">
        <ele>604.3</ele>
        <time>2018-09-14T18:57:07Z</time>
      </trkpt>
      <trkpt lat="-24.8486350" lon="-53.6988330">
        <ele>604.1</ele>
        <time>2018-09-14T18:57:08Z</time>
      </trkpt>
      <trkpt lat="-24.8486130" lon="-53.6988630">
        <ele>603.9</ele>
        <time>2018-09-14T18:57:09Z</time>
      </trkpt>
      <trkpt lat="-24.8485910" lon="-53.6988930">
        <ele>603.7</ele>
        <time>2018-09-14T18:57:10Z</time>
      </trkpt>
      <trkpt lat="-24.8485700" lon="-53.6989230">
        <ele>603.6</ele>
        <time>2018-09-14T18:57:11Z</time>
      </trkpt>
      <trkpt lat="-24.8485490" lon="-53.6989510">
        <ele>603.5</ele>
        <time>2018-09-14T18:57:12Z</time>
      </trkpt>
      <trkpt lat="-24.8485280" lon="-53.6989790">
        <ele>603.4</ele>
        <time>2018-09-14T18:57:13Z</time>
      </trkpt>
      <trkpt lat="-24.8485070" lon="-53.6990080">
        <ele>603.6</ele>
        <time>2018-09-14T18:57:14Z</time>
      </trkpt>
      <trkpt lat="-24.8484880" lon="-53.6990370">
        <ele>603.8</ele>
        <time>2018-09-14T18:57:15Z</time>
      </trkpt>
      <trkpt lat="-24.8484680" lon="-53.6990660">
        <ele>604.1</ele>
        <time>2018-09-14T18:57:16Z</time>
      </trkpt>
      <trkpt lat="-24.8484500" lon="-53.6990940">
        <ele>604.1</ele>
        <time>2018-09-14T18:57:17Z</time>
      </trkpt>
      <trkpt lat="-24.8484310" lon="-53.6991220">
        <ele>604.2</ele>
        <time>2018-09-14T18:57:18Z</time>
      </trkpt>
      <trkpt lat="-24.8484120" lon="-53.6991510">
        <ele>604.2</ele>
        <time>2018-09-14T18:57:19Z</time>
      </trkpt>
      <trkpt lat="-24.8483940" lon="-53.6991790">
        <ele>604.1</ele>
        <time>2018-09-14T18:57:20Z</time>
      </trkpt>
      <trkpt lat="-24.8483760" lon="-53.6992070">
        <ele>604.0</ele>
        <time>2018-09-14T18:57:21Z</time>
      </trkpt>
      <trkpt lat="-24.8483580" lon="-53.6992340">
        <ele>603.9</ele>
        <time>2018-09-14T18:57:22Z</time>
      </trkpt>
      <trkpt lat="-24.8483410" lon="-53.6992610">
        <ele>603.8</ele>
        <time>2018-09-14T18:57:23Z</time>
      </trkpt>
      <trkpt lat="-24.8483220" lon="-53.6992900">
        <ele>603.8</ele>
        <time>2018-09-14T18:57:24Z</time>
      </trkpt>
      <trkpt lat="-24.8483030" lon="-53.6993200">
        <ele>603.8</ele>
        <time>2018-09-14T18:57:25Z</time>
      </trkpt>
      <trkpt lat="-24.8482830" lon="-53.6993500">
        <ele>603.8</ele>
        <time>2018-09-14T18:57:26Z</time>
      </trkpt>
      <trkpt lat="-24.8482630" lon="-53.6993780">
        <ele>603.9</ele>
        <time>2018-09-14T18:57:27Z</time>
      </trkpt>
      <trkpt lat="-24.8482220" lon="-53.6994360">
        <ele>603.9</ele>
        <time>2018-09-14T18:57:28Z</time>
      </trkpt>
      <trkpt lat="-24.8482020" lon="-53.6994650">
        <ele>603.8</ele>
        <time>2018-09-14T18:57:29Z</time>
      </trkpt>
      <trkpt lat="-24.8481830" lon="-53.6994940">
        <ele>603.8</ele>
        <time>2018-09-14T18:57:30Z</time>
      </trkpt>
      <trkpt lat="-24.8481640" lon="-53.6995230">
        <ele>603.7</ele>
        <time>2018-09-14T18:57:31Z</time>
      </trkpt>
      <trkpt lat="-24.8481450" lon="-53.6995520">
        <ele>603.6</ele>
        <time>2018-09-14T18:57:32Z</time>
      </trkpt>
      <trkpt lat="-24.8481270" lon="-53.6995800">
        <ele>603.7</ele>
        <time>2018-09-14T18:57:33Z</time>
      </trkpt>
      <trkpt lat="-24.8481090" lon="-53.6996090">
        <ele>603.7</ele>
        <time>2018-09-14T18:57:34Z</time>
      </trkpt>
      <trkpt lat="-24.8480910" lon="-53.6996360">
        <ele>603.8</ele>
        <time>2018-09-14T18:57:35Z</time>
      </trkpt>
      <trkpt lat="-24.8480710" lon="-53.6996640">
        <ele>604.1</ele>
        <time>2018-09-14T18:57:36Z</time>
      </trkpt>
      <trkpt lat="-24.8480510" lon="-53.6996920">
        <ele>604.3</ele>
        <time>2018-09-14T18:57:37Z</time>
      </trkpt>
      <trkpt lat="-24.8480320" lon="-53.6997210">
        <ele>604.6</ele>
        <time>2018-09-14T18:57:38Z</time>
      </trkpt>
      <trkpt lat="-24.8480140" lon="-53.6997490">
        <ele>604.9</ele>
        <time>2018-09-14T18:57:39Z</time>
      </trkpt>
      <trkpt lat="-24.8479960" lon="-53.6997770">
        <ele>605.1</ele>
        <time>2018-09-14T18:57:40Z</time>
      </trkpt>
      <trkpt lat="-24.8479610" lon="-53.6998320">
        <ele>605.4</ele>
        <time>2018-09-14T18:57:42Z</time>
      </trkpt>
      <trkpt lat="-24.8479430" lon="-53.6998580">
        <ele>605.5</ele>
        <time>2018-09-14T18:57:43Z</time>
      </trkpt>
      <trkpt lat="-24.8479250" lon="-53.6998840">
        <ele>605.5</ele>
        <time>2018-09-14T18:57:44Z</time>
      </trkpt>
      <trkpt lat="-24.8479060" lon="-53.6999110">
        <ele>605.3</ele>
        <time>2018-09-14T18:57:45Z</time>
      </trkpt>
      <trkpt lat="-24.8478870" lon="-53.6999370">
        <ele>605.2</ele>
        <time>2018-09-14T18:57:46Z</time>
      </trkpt>
      <trkpt lat="-24.8478680" lon="-53.6999650">
        <ele>605.2</ele>
        <time>2018-09-14T18:57:47Z</time>
      </trkpt>
      <trkpt lat="-24.8478490" lon="-53.6999940">
        <ele>605.3</ele>
        <time>2018-09-14T18:57:48Z</time>
      </trkpt>
      <trkpt lat="-24.8478310" lon="-53.7000230">
        <ele>605.3</ele>
        <time>2018-09-14T18:57:49Z</time>
      </trkpt>
      <trkpt lat="-24.8478120" lon="-53.7000510">
        <ele>605.4</ele>
        <time>2018-09-14T18:57:50Z</time>
      </trkpt>
      <trkpt lat="-24.8477930" lon="-53.7000800">
        <ele>605.5</ele>
        <time>2018-09-14T18:57:51Z</time>
      </trkpt>
      <trkpt lat="-24.8477750" lon="-53.7001100">
        <ele>605.6</ele>
        <time>2018-09-14T18:57:52Z</time>
      </trkpt>
      <trkpt lat="-24.8477560" lon="-53.7001390">
        <ele>605.9</ele>
        <time>2018-09-14T18:57:53Z</time>
      </trkpt>
      <trkpt lat="-24.8477390" lon="-53.7001680">
        <ele>606.2</ele>
        <time>2018-09-14T18:57:54Z</time>
      </trkpt>
      <trkpt lat="-24.8477240" lon="-53.7001950">
        <ele>606.5</ele>
        <time>2018-09-14T18:57:55Z</time>
      </trkpt>
      <trkpt lat="-24.8477100" lon="-53.7002170">
        <ele>606.6</ele>
        <time>2018-09-14T18:57:56Z</time>
      </trkpt>
      <trkpt lat="-24.8476970" lon="-53.7002360">
        <ele>606.7</ele>
        <time>2018-09-14T18:57:57Z</time>
      </trkpt>
      <trkpt lat="-24.8476840" lon="-53.7002550">
        <ele>606.8</ele>
        <time>2018-09-14T18:57:58Z</time>
      </trkpt>
      <trkpt lat="-24.8476710" lon="-53.7002760">
        <ele>606.9</ele>
        <time>2018-09-14T18:57:59Z</time>
      </trkpt>
      <trkpt lat="-24.8476570" lon="-53.7003000">
        <ele>607.0</ele>
        <time>2018-09-14T18:58:00Z</time>
      </trkpt>
      <trkpt lat="-24.8476410" lon="-53.7003270">
        <ele>607.1</ele>
        <time>2018-09-14T18:58:01Z</time>
      </trkpt>
      <trkpt lat="-24.8476240" lon="-53.7003550">
        <ele>607.1</ele>
        <time>2018-09-14T18:58:02Z</time>
      </trkpt>
      <trkpt lat="-24.8476070" lon="-53.7003820">
        <ele>607.3</ele>
        <time>2018-09-14T18:58:03Z</time>
      </trkpt>
      <trkpt lat="-24.8475880" lon="-53.7004090">
        <ele>607.4</ele>
        <time>2018-09-14T18:58:04Z</time>
      </trkpt>
      <trkpt lat="-24.8475690" lon="-53.7004370">
        <ele>607.6</ele>
        <time>2018-09-14T18:58:05Z</time>
      </trkpt>
      <trkpt lat="-24.8475490" lon="-53.7004640">
        <ele>608.0</ele>
        <time>2018-09-14T18:58:06Z</time>
      </trkpt>
      <trkpt lat="-24.8475300" lon="-53.7004910">
        <ele>608.4</ele>
        <time>2018-09-14T18:58:07Z</time>
      </trkpt>
      <trkpt lat="-24.8475120" lon="-53.7005180">
        <ele>608.8</ele>
        <time>2018-09-14T18:58:08Z</time>
      </trkpt>
      <trkpt lat="-24.8474930" lon="-53.7005460">
        <ele>609.1</ele>
        <time>2018-09-14T18:58:09Z</time>
      </trkpt>
      <trkpt lat="-24.8474740" lon="-53.7005730">
        <ele>609.4</ele>
        <time>2018-09-14T18:58:10Z</time>
      </trkpt>
      <trkpt lat="-24.8474540" lon="-53.7006010">
        <ele>609.7</ele>
        <time>2018-09-14T18:58:11Z</time>
      </trkpt>
      <trkpt lat="-24.8474360" lon="-53.7006290">
        <ele>609.9</ele>
        <time>2018-09-14T18:58:12Z</time>
      </trkpt>
      <trkpt lat="-24.8474190" lon="-53.7006530">
        <ele>610.2</ele>
        <time>2018-09-14T18:58:13Z</time>
      </trkpt>
      <trkpt lat="-24.8474030" lon="-53.7006730">
        <ele>610.4</ele>
        <time>2018-09-14T18:58:14Z</time>
      </trkpt>
      <trkpt lat="-24.8473910" lon="-53.7006910">
        <ele>610.5</ele>
        <time>2018-09-14T18:58:15Z</time>
      </trkpt>
      <trkpt lat="-24.8473780" lon="-53.7007090">
        <ele>610.7</ele>
        <time>2018-09-14T18:58:16Z</time>
      </trkpt>
      <trkpt lat="-24.8473620" lon="-53.7007290">
        <ele>610.9</ele>
        <time>2018-09-14T18:58:17Z</time>
      </trkpt>
      <trkpt lat="-24.8473430" lon="-53.7007530">
        <ele>611.2</ele>
        <time>2018-09-14T18:58:18Z</time>
      </trkpt>
      <trkpt lat="-24.8473230" lon="-53.7007790">
        <ele>611.5</ele>
        <time>2018-09-14T18:58:19Z</time>
      </trkpt>
      <trkpt lat="-24.8473020" lon="-53.7008050">
        <ele>611.9</ele>
        <time>2018-09-14T18:58:20Z</time>
      </trkpt>
      <trkpt lat="-24.8472810" lon="-53.7008310">
        <ele>612.2</ele>
        <time>2018-09-14T18:58:21Z</time>
      </trkpt>
      <trkpt lat="-24.8472610" lon="-53.7008550">
        <ele>612.3</ele>
        <time>2018-09-14T18:58:22Z</time>
      </trkpt>
      <trkpt lat="-24.8472420" lon="-53.7008810">
        <ele>612.3</ele>
        <time>2018-09-14T18:58:23Z</time>
      </trkpt>
      <trkpt lat="-24.8472240" lon="-53.7009080">
        <ele>612.4</ele>
        <time>2018-09-14T18:58:24Z</time>
      </trkpt>
      <trkpt lat="-24.8472070" lon="-53.7009320">
        <ele>612.3</ele>
        <time>2018-09-14T18:58:25Z</time>
      </trkpt>
      <trkpt lat="-24.8471930" lon="-53.7009530">
        <ele>612.3</ele>
        <time>2018-09-14T18:58:26Z</time>
      </trkpt>
      <trkpt lat="-24.8471790" lon="-53.7009710">
        <ele>612.3</ele>
        <time>2018-09-14T18:58:27Z</time>
      </trkpt>
      <trkpt lat="-24.8471660" lon="-53.7009880">
        <ele>612.2</ele>
        <time>2018-09-14T18:58:28Z</time>
      </trkpt>
      <trkpt lat="-24.8471530" lon="-53.7010050">
        <ele>612.2</ele>
        <time>2018-09-14T18:58:29Z</time>
      </trkpt>
      <trkpt lat="-24.8471390" lon="-53.7010220">
        <ele>612.2</ele>
        <time>2018-09-14T18:58:30Z</time>
      </trkpt>
      <trkpt lat="-24.8471230" lon="-53.7010380">
        <ele>612.2</ele>
        <time>2018-09-14T18:58:31Z</time>
      </trkpt>
      <trkpt lat="-24.8471060" lon="-53.7010550">
        <ele>612.3</ele>
        <time>2018-09-14T18:58:32Z</time>
      </trkpt>
      <trkpt lat="-24.8470880" lon="-53.7010700">
        <ele>612.4</ele>
        <time>2018-09-14T18:58:33Z</time>
      </trkpt>
      <trkpt lat="-24.8470690" lon="-53.7010830">
        <ele>612.4</ele>
        <time>2018-09-14T18:58:34Z</time>
      </trkpt>
      <trkpt lat="-24.8470470" lon="-53.7010920">
        <ele>612.5</ele>
        <time>2018-09-14T18:58:35Z</time>
      </trkpt>
      <trkpt lat="-24.8470220" lon="-53.7010970">
        <ele>612.6</ele>
        <time>2018-09-14T18:58:36Z</time>
      </trkpt>
      <trkpt lat="-24.8469950" lon="-53.7010970">
        <ele>612.5</ele>
        <time>2018-09-14T18:58:37Z</time>
      </trkpt>
      <trkpt lat="-24.8469680" lon="-53.7010950">
        <ele>612.4</ele>
        <time>2018-09-14T18:58:38Z</time>
      </trkpt>
      <trkpt lat="-24.8469410" lon="-53.7010930">
        <ele>612.3</ele>
        <time>2018-09-14T18:58:39Z</time>
      </trkpt>
      <trkpt lat="-24.8469150" lon="-53.7010910">
        <ele>612.3</ele>
        <time>2018-09-14T18:58:40Z</time>
      </trkpt>
      <trkpt lat="-24.8468910" lon="-53.7010890">
        <ele>612.3</ele>
        <time>2018-09-14T18:58:41Z</time>
      </trkpt>
      <trkpt lat="-24.8468680" lon="-53.7010860">
        <ele>612.2</ele>
        <time>2018-09-14T18:58:42Z</time>
      </trkpt>
      <trkpt lat="-24.8468460" lon="-53.7010840">
        <ele>612.2</ele>
        <time>2018-09-14T18:58:43Z</time>
      </trkpt>
      <trkpt lat="-24.8468250" lon="-53.7010820">
        <ele>612.1</ele>
        <time>2018-09-14T18:58:44Z</time>
      </trkpt>
      <trkpt lat="-24.8468050" lon="-53.7010810">
        <ele>612.1</ele>
        <time>2018-09-14T18:58:45Z</time>
      </trkpt>
      <trkpt lat="-24.8467870" lon="-53.7010810">
        <ele>612.0</ele>
        <time>2018-09-14T18:58:46Z</time>
      </trkpt>
      <trkpt lat="-24.8467670" lon="-53.7010800">
        <ele>612.0</ele>
        <time>2018-09-14T18:58:47Z</time>
      </trkpt>
      <trkpt lat="-24.8467440" lon="-53.7010780">
        <ele>611.9</ele>
        <time>2018-09-14T18:58:48Z</time>
      </trkpt>
      <trkpt lat="-24.8467210" lon="-53.7010810">
        <ele>611.8</ele>
        <time>2018-09-14T18:58:49Z</time>
      </trkpt>
      <trkpt lat="-24.8467020" lon="-53.7010840">
        <ele>611.8</ele>
        <time>2018-09-14T18:58:50Z</time>
      </trkpt>
      <trkpt lat="-24.8466880" lon="-53.7010820">
        <ele>611.7</ele>
        <time>2018-09-14T18:58:51Z</time>
      </trkpt>
      <trkpt lat="-24.8466850" lon="-53.7010810">
        <ele>611.7</ele>
        <time>2018-09-14T18:58:52Z</time>
      </trkpt>
      <trkpt lat="-24.8466850" lon="-53.7010820">
        <ele>611.7</ele>
        <time>2018-09-14T18:58:53Z</time>
      </trkpt>
      <trkpt lat="-24.8466710" lon="-53.7010760">
        <ele>611.6</ele>
        <time>2018-09-14T18:59:42Z</time>
      </trkpt>
      <trkpt lat="-24.8466630" lon="-53.7010700">
        <ele>611.5</ele>
        <time>2018-09-14T18:59:43Z</time>
      </trkpt>
      <trkpt lat="-24.8466510" lon="-53.7010680">
        <ele>611.4</ele>
        <time>2018-09-14T18:59:44Z</time>
      </trkpt>
      <trkpt lat="-24.8466330" lon="-53.7010690">
        <ele>611.3</ele>
        <time>2018-09-14T18:59:45Z</time>
      </trkpt>
      <trkpt lat="-24.8466150" lon="-53.7010700">
        <ele>611.1</ele>
        <time>2018-09-14T18:59:46Z</time>
      </trkpt>
      <trkpt lat="-24.8465960" lon="-53.7010750">
        <ele>611.0</ele>
        <time>2018-09-14T18:59:47Z</time>
      </trkpt>
      <trkpt lat="-24.8465760" lon="-53.7010750">
        <ele>610.9</ele>
        <time>2018-09-14T18:59:48Z</time>
      </trkpt>
      <trkpt lat="-24.8465580" lon="-53.7010710">
        <ele>610.8</ele>
        <time>2018-09-14T18:59:49Z</time>
      </trkpt>
      <trkpt lat="-24.8465370" lon="-53.7010660">
        <ele>610.6</ele>
        <time>2018-09-14T18:59:50Z</time>
      </trkpt>
      <trkpt lat="-24.8465120" lon="-53.7010590">
        <ele>610.5</ele>
        <time>2018-09-14T18:59:51Z</time>
      </trkpt>
      <trkpt lat="-24.8464820" lon="-53.7010510">
        <ele>610.6</ele>
        <time>2018-09-14T18:59:52Z</time>
      </trkpt>
      <trkpt lat="-24.8464490" lon="-53.7010410">
        <ele>610.6</ele>
        <time>2018-09-14T18:59:53Z</time>
      </trkpt>
      <trkpt lat="-24.8464130" lon="-53.7010310">
        <ele>610.6</ele>
        <time>2018-09-14T18:59:54Z</time>
      </trkpt>
      <trkpt lat="-24.8463760" lon="-53.7010210">
        <ele>610.4</ele>
        <time>2018-09-14T18:59:55Z</time>
      </trkpt>
      <trkpt lat="-24.8463390" lon="-53.7010110">
        <ele>610.1</ele>
        <time>2018-09-14T18:59:56Z</time>
      </trkpt>
      <trkpt lat="-24.8463010" lon="-53.7010010">
        <ele>609.6</ele>
        <time>2018-09-14T18:59:57Z</time>
      </trkpt>
      <trkpt lat="-24.8462630" lon="-53.7009900">
        <ele>609.1</ele>
        <time>2018-09-14T18:59:58Z</time>
      </trkpt>
      <trkpt lat="-24.8462260" lon="-53.7009800">
        <ele>608.7</ele>
        <time>2018-09-14T18:59:59Z</time>
      </trkpt>
      <trkpt lat="-24.8461890" lon="-53.7009700">
        <ele>608.4</ele>
        <time>2018-09-14T19:00:00Z</time>
      </trkpt>
      <trkpt lat="-24.8461520" lon="-53.7009600">
        <ele>608.4</ele>
        <time>2018-09-14T19:00:01Z</time>
      </trkpt>
      <trkpt lat="-24.8461150" lon="-53.7009520">
        <ele>608.4</ele>
        <time>2018-09-14T19:00:02Z</time>
      </trkpt>
      <trkpt lat="-24.8460780" lon="-53.7009450">
        <ele>608.5</ele>
        <time>2018-09-14T19:00:03Z</time>
      </trkpt>
      <trkpt lat="-24.8460430" lon="-53.7009400">
        <ele>608.6</ele>
        <time>2018-09-14T19:00:04Z</time>
      </trkpt>
      <trkpt lat="-24.8460070" lon="-53.7009340">
        <ele>608.7</ele>
        <time>2018-09-14T19:00:05Z</time>
      </trkpt>
      <trkpt lat="-24.8459660" lon="-53.7009280">
        <ele>608.7</ele>
        <time>2018-09-14T19:00:06Z</time>
      </trkpt>
      <trkpt lat="-24.8459220" lon="-53.7009220">
        <ele>608.7</ele>
        <time>2018-09-14T19:00:07Z</time>
      </trkpt>
      <trkpt lat="-24.8458740" lon="-53.7009170">
        <ele>608.8</ele>
        <time>2018-09-14T19:00:08Z</time>
      </trkpt>
      <trkpt lat="-24.8458270" lon="-53.7009140">
        <ele>608.9</ele>
        <time>2018-09-14T19:00:09Z</time>
      </trkpt>
      <trkpt lat="-24.8457800" lon="-53.7009110">
        <ele>608.8</ele>
        <time>2018-09-14T19:00:10Z</time>
      </trkpt>
      <trkpt lat="-24.8457320" lon="-53.7009070">
        <ele>608.7</ele>
        <time>2018-09-14T19:00:11Z</time>
      </trkpt>
      <trkpt lat="-24.8456860" lon="-53.7009020">
        <ele>608.4</ele>
        <time>2018-09-14T19:00:12Z</time>
      </trkpt>
      <trkpt lat="-24.8456410" lon="-53.7008980">
        <ele>608.2</ele>
        <time>2018-09-14T19:00:13Z</time>
      </trkpt>
      <trkpt lat="-24.8455970" lon="-53.7008940">
        <ele>608.0</ele>
        <time>2018-09-14T19:00:14Z</time>
      </trkpt>
      <trkpt lat="-24.8455530" lon="-53.7008920">
        <ele>607.9</ele>
        <time>2018-09-14T19:00:15Z</time>
      </trkpt>
      <trkpt lat="-24.8455090" lon="-53.7008900">
        <ele>607.8</ele>
        <time>2018-09-14T19:00:16Z</time>
      </trkpt>
      <trkpt lat="-24.8454650" lon="-53.7008890">
        <ele>607.8</ele>
        <time>2018-09-14T19:00:17Z</time>
      </trkpt>
      <trkpt lat="-24.8454230" lon="-53.7008880">
        <ele>607.4</ele>
        <time>2018-09-14T19:00:18Z</time>
      </trkpt>
      <trkpt lat="-24.8453780" lon="-53.7008860">
        <ele>607.0</ele>
        <time>2018-09-14T19:00:19Z</time>
      </trkpt>
      <trkpt lat="-24.8453270" lon="-53.7008820">
        <ele>606.5</ele>
        <time>2018-09-14T19:00:20Z</time>
      </trkpt>
      <trkpt lat="-24.8452710" lon="-53.7008780">
        <ele>606.1</ele>
        <time>2018-09-14T19:00:21Z</time>
      </trkpt>
      <trkpt lat="-24.8452150" lon="-53.7008740">
        <ele>605.9</ele>
        <time>2018-09-14T19:00:22Z</time>
      </trkpt>
      <trkpt lat="-24.8451560" lon="-53.7008720">
        <ele>605.8</ele>
        <time>2018-09-14T19:00:23Z</time>
      </trkpt>
      <trkpt lat="-24.8450990" lon="-53.7008710">
        <ele>605.9</ele>
        <time>2018-09-14T19:00:24Z</time>
      </trkpt>
      <trkpt lat="-24.8450410" lon="-53.7008700">
        <ele>605.9</ele>
        <time>2018-09-14T19:00:25Z</time>
      </trkpt>
      <trkpt lat="-24.8449850" lon="-53.7008690">
        <ele>605.9</ele>
        <time>2018-09-14T19:00:26Z</time>
      </trkpt>
      <trkpt lat="-24.8449300" lon="-53.7008680">
        <ele>605.9</ele>
        <time>2018-09-14T19:00:27Z</time>
      </trkpt>
      <trkpt lat="-24.8448780" lon="-53.7008680">
        <ele>606.1</ele>
        <time>2018-09-14T19:00:28Z</time>
      </trkpt>
      <trkpt lat="-24.8448280" lon="-53.7008680">
        <ele>606.3</ele>
        <time>2018-09-14T19:00:29Z</time>
      </trkpt>
      <trkpt lat="-24.8447770" lon="-53.7008680">
        <ele>606.6</ele>
        <time>2018-09-14T19:00:30Z</time>
      </trkpt>
      <trkpt lat="-24.8447210" lon="-53.7008670">
        <ele>607.0</ele>
        <time>2018-09-14T19:00:31Z</time>
      </trkpt>
      <trkpt lat="-24.8446610" lon="-53.7008650">
        <ele>607.3</ele>
        <time>2018-09-14T19:00:32Z</time>
      </trkpt>
      <trkpt lat="-24.8445990" lon="-53.7008660">
        <ele>607.3</ele>
        <time>2018-09-14T19:00:33Z</time>
      </trkpt>
      <trkpt lat="-24.8445400" lon="-53.7008660">
        <ele>607.2</ele>
        <time>2018-09-14T19:00:34Z</time>
      </trkpt>
      <trkpt lat="-24.8444830" lon="-53.7008660">
        <ele>606.9</ele>
        <time>2018-09-14T19:00:35Z</time>
      </trkpt>
      <trkpt lat="-24.8444260" lon="-53.7008660">
        <ele>606.6</ele>
        <time>2018-09-14T19:00:36Z</time>
      </trkpt>
      <trkpt lat="-24.8443620" lon="-53.7008660">
        <ele>606.2</ele>
        <time>2018-09-14T19:00:37Z</time>
      </trkpt>
      <trkpt lat="-24.8442960" lon="-53.7008660">
        <ele>605.6</ele>
        <time>2018-09-14T19:00:38Z</time>
      </trkpt>
      <trkpt lat="-24.8442310" lon="-53.7008650">
        <ele>604.3</ele>
        <time>2018-09-14T19:00:39Z</time>
      </trkpt>
      <trkpt lat="-24.8441660" lon="-53.7008640">
        <ele>603.3</ele>
        <time>2018-09-14T19:00:40Z</time>
      </trkpt>
      <trkpt lat="-24.8441060" lon="-53.7008630">
        <ele>602.7</ele>
        <time>2018-09-14T19:00:41Z</time>
      </trkpt>
      <trkpt lat="-24.8440450" lon="-53.7008620">
        <ele>601.9</ele>
        <time>2018-09-14T19:00:42Z</time>
      </trkpt>
      <trkpt lat="-24.8439780" lon="-53.7008560">
        <ele>601.0</ele>
        <time>2018-09-14T19:00:43Z</time>
      </trkpt>
      <trkpt lat="-24.8439070" lon="-53.7008510">
        <ele>600.0</ele>
        <time>2018-09-14T19:00:44Z</time>
      </trkpt>
      <trkpt lat="-24.8438360" lon="-53.7008470">
        <ele>598.9</ele>
        <time>2018-09-14T19:00:45Z</time>
      </trkpt>
      <trkpt lat="-24.8437660" lon="-53.7008430">
        <ele>598.6</ele>
        <time>2018-09-14T19:00:46Z</time>
      </trkpt>
      <trkpt lat="-24.8436970" lon="-53.7008400">
        <ele>598.4</ele>
        <time>2018-09-14T19:00:47Z</time>
      </trkpt>
      <trkpt lat="-24.8436310" lon="-53.7008380">
        <ele>598.0</ele>
        <time>2018-09-14T19:00:48Z</time>
      </trkpt>
      <trkpt lat="-24.8435620" lon="-53.7008360">
        <ele>597.6</ele>
        <time>2018-09-14T19:00:49Z</time>
      </trkpt>
      <trkpt lat="-24.8434880" lon="-53.7008330">
        <ele>597.4</ele>
        <time>2018-09-14T19:00:50Z</time>
      </trkpt>
      <trkpt lat="-24.8434120" lon="-53.7008280">
        <ele>597.5</ele>
        <time>2018-09-14T19:00:51Z</time>
      </trkpt>
      <trkpt lat="-24.8433360" lon="-53.7008260">
        <ele>597.6</ele>
        <time>2018-09-14T19:00:52Z</time>
      </trkpt>
      <trkpt lat="-24.8432610" lon="-53.7008230">
        <ele>597.9</ele>
        <time>2018-09-14T19:00:53Z</time>
      </trkpt>
      <trkpt lat="-24.8431900" lon="-53.7008200">
        <ele>598.0</ele>
        <time>2018-09-14T19:00:54Z</time>
      </trkpt>
      <trkpt lat="-24.8431130" lon="-53.7008190">
        <ele>598.2</ele>
        <time>2018-09-14T19:00:55Z</time>
      </trkpt>
      <trkpt lat="-24.8430320" lon="-53.7008190">
        <ele>598.4</ele>
        <time>2018-09-14T19:00:56Z</time>
      </trkpt>
      <trkpt lat="-24.8429520" lon="-53.7008200">
        <ele>599.1</ele>
        <time>2018-09-14T19:00:57Z</time>
      </trkpt>
      <trkpt lat="-24.8428730" lon="-53.7008200">
        <ele>599.4</ele>
        <time>2018-09-14T19:00:58Z</time>
      </trkpt>
      <trkpt lat="-24.8427190" lon="-53.7008200">
        <ele>599.4</ele>
        <time>2018-09-14T19:00:59Z</time>
      </trkpt>
      <trkpt lat="-24.8426460" lon="-53.7008210">
        <ele>599.4</ele>
        <time>2018-09-14T19:01:01Z</time>
      </trkpt>
      <trkpt lat="-24.8425770" lon="-53.7008250">
        <ele>599.6</ele>
        <time>2018-09-14T19:01:02Z</time>
      </trkpt>
      <trkpt lat="-24.8425050" lon="-53.7008260">
        <ele>600.1</ele>
        <time>2018-09-14T19:01:03Z</time>
      </trkpt>
      <trkpt lat="-24.8424300" lon="-53.7008250">
        <ele>600.5</ele>
        <time>2018-09-14T19:01:04Z</time>
      </trkpt>
      <trkpt lat="-24.8423540" lon="-53.7008230">
        <ele>600.7</ele>
        <time>2018-09-14T19:01:05Z</time>
      </trkpt>
      <trkpt lat="-24.8422780" lon="-53.7008200">
        <ele>600.6</ele>
        <time>2018-09-14T19:01:06Z</time>
      </trkpt>
      <trkpt lat="-24.8422030" lon="-53.7008180">
        <ele>600.2</ele>
        <time>2018-09-14T19:01:07Z</time>
      </trkpt>
      <trkpt lat="-24.8421300" lon="-53.7008190">
        <ele>599.7</ele>
        <time>2018-09-14T19:01:08Z</time>
      </trkpt>
      <trkpt lat="-24.8420590" lon="-53.7008230">
        <ele>599.7</ele>
        <time>2018-09-14T19:01:09Z</time>
      </trkpt>
      <trkpt lat="-24.8419900" lon="-53.7008310">
        <ele>599.6</ele>
        <time>2018-09-14T19:01:10Z</time>
      </trkpt>
      <trkpt lat="-24.8419230" lon="-53.7008420">
        <ele>599.5</ele>
        <time>2018-09-14T19:01:11Z</time>
      </trkpt>
      <trkpt lat="-24.8418580" lon="-53.7008570">
        <ele>599.2</ele>
        <time>2018-09-14T19:01:12Z</time>
      </trkpt>
      <trkpt lat="-24.8417950" lon="-53.7008750">
        <ele>598.7</ele>
        <time>2018-09-14T19:01:13Z</time>
      </trkpt>
      <trkpt lat="-24.8417340" lon="-53.7008950">
        <ele>598.3</ele>
        <time>2018-09-14T19:01:14Z</time>
      </trkpt>
      <trkpt lat="-24.8416750" lon="-53.7009180">
        <ele>597.9</ele>
        <time>2018-09-14T19:01:15Z</time>
      </trkpt>
      <trkpt lat="-24.8416160" lon="-53.7009400">
        <ele>597.6</ele>
        <time>2018-09-14T19:01:16Z</time>
      </trkpt>
      <trkpt lat="-24.8415580" lon="-53.7009600">
        <ele>597.3</ele>
        <time>2018-09-14T19:01:17Z</time>
      </trkpt>
      <trkpt lat="-24.8415020" lon="-53.7009790">
        <ele>597.1</ele>
        <time>2018-09-14T19:01:18Z</time>
      </trkpt>
      <trkpt lat="-24.8414490" lon="-53.7009980">
        <ele>596.8</ele>
        <time>2018-09-14T19:01:19Z</time>
      </trkpt>
      <trkpt lat="-24.8413420" lon="-53.7010340">
        <ele>595.5</ele>
        <time>2018-09-14T19:01:20Z</time>
      </trkpt>
      <trkpt lat="-24.8412860" lon="-53.7010550">
        <ele>595.2</ele>
        <time>2018-09-14T19:01:21Z</time>
      </trkpt>
      <trkpt lat="-24.8412310" lon="-53.7010780">
        <ele>595.5</ele>
        <time>2018-09-14T19:01:22Z</time>
      </trkpt>
      <trkpt lat="-24.8411740" lon="-53.7011010">
        <ele>595.6</ele>
        <time>2018-09-14T19:01:23Z</time>
      </trkpt>
      <trkpt lat="-24.8411160" lon="-53.7011190">
        <ele>595.6</ele>
        <time>2018-09-14T19:01:24Z</time>
      </trkpt>
      <trkpt lat="-24.8409990" lon="-53.7011460">
        <ele>595.6</ele>
        <time>2018-09-14T19:01:26Z</time>
      </trkpt>
      <trkpt lat="-24.8409400" lon="-53.7011570">
        <ele>596.2</ele>
        <time>2018-09-14T19:01:27Z</time>
      </trkpt>
      <trkpt lat="-24.8408810" lon="-53.7011680">
        <ele>596.4</ele>
        <time>2018-09-14T19:01:28Z</time>
      </trkpt>
      <trkpt lat="-24.8408230" lon="-53.7011780">
        <ele>596.4</ele>
        <time>2018-09-14T19:01:29Z</time>
      </trkpt>
      <trkpt lat="-24.8407660" lon="-53.7011860">
        <ele>596.3</ele>
        <time>2018-09-14T19:01:30Z</time>
      </trkpt>
      <trkpt lat="-24.8407090" lon="-53.7011910">
        <ele>596.4</ele>
        <time>2018-09-14T19:01:31Z</time>
      </trkpt>
      <trkpt lat="-24.8406530" lon="-53.7011950">
        <ele>596.6</ele>
        <time>2018-09-14T19:01:32Z</time>
      </trkpt>
      <trkpt lat="-24.8405980" lon="-53.7011980">
        <ele>597.3</ele>
        <time>2018-09-14T19:01:33Z</time>
      </trkpt>
      <trkpt lat="-24.8405420" lon="-53.7012020">
        <ele>597.5</ele>
        <time>2018-09-14T19:01:34Z</time>
      </trkpt>
      <trkpt lat="-24.8404860" lon="-53.7012070">
        <ele>597.6</ele>
        <time>2018-09-14T19:01:35Z</time>
      </trkpt>
      <trkpt lat="-24.8404310" lon="-53.7012140">
        <ele>597.4</ele>
        <time>2018-09-14T19:01:36Z</time>
      </trkpt>
      <trkpt lat="-24.8403780" lon="-53.7012190">
        <ele>597.1</ele>
        <time>2018-09-14T19:01:37Z</time>
      </trkpt>
      <trkpt lat="-24.8403250" lon="-53.7012220">
        <ele>596.5</ele>
        <time>2018-09-14T19:01:38Z</time>
      </trkpt>
      <trkpt lat="-24.8402730" lon="-53.7012250">
        <ele>596.3</ele>
        <time>2018-09-14T19:01:39Z</time>
      </trkpt>
      <trkpt lat="-24.8402210" lon="-53.7012300">
        <ele>596.1</ele>
        <time>2018-09-14T19:01:40Z</time>
      </trkpt>
      <trkpt lat="-24.8401680" lon="-53.7012360">
        <ele>596.1</ele>
        <time>2018-09-14T19:01:41Z</time>
      </trkpt>
      <trkpt lat="-24.8401160" lon="-53.7012430">
        <ele>596.1</ele>
        <time>2018-09-14T19:01:42Z</time>
      </trkpt>
      <trkpt lat="-24.8400630" lon="-53.7012480">
        <ele>596.1</ele>
        <time>2018-09-14T19:01:43Z</time>
      </trkpt>
      <trkpt lat="-24.8400110" lon="-53.7012540">
        <ele>596.0</ele>
        <time>2018-09-14T19:01:44Z</time>
      </trkpt>
      <trkpt lat="-24.8399580" lon="-53.7012610">
        <ele>595.7</ele>
        <time>2018-09-14T19:01:45Z</time>
      </trkpt>
      <trkpt lat="-24.8399050" lon="-53.7012670">
        <ele>595.8</ele>
        <time>2018-09-14T19:01:46Z</time>
      </trkpt>
      <trkpt lat="-24.8398510" lon="-53.7012720">
        <ele>596.0</ele>
        <time>2018-09-14T19:01:47Z</time>
      </trkpt>
      <trkpt lat="-24.8397980" lon="-53.7012770">
        <ele>596.2</ele>
        <time>2018-09-14T19:01:48Z</time>
      </trkpt>
      <trkpt lat="-24.8397460" lon="-53.7012830">
        <ele>596.8</ele>
        <time>2018-09-14T19:01:49Z</time>
      </trkpt>
      <trkpt lat="-24.8396940" lon="-53.7012900">
        <ele>597.0</ele>
        <time>2018-09-14T19:01:50Z</time>
      </trkpt>
      <trkpt lat="-24.8396420" lon="-53.7012960">
        <ele>597.3</ele>
        <time>2018-09-14T19:01:51Z</time>
      </trkpt>
      <trkpt lat="-24.8395920" lon="-53.7013040">
        <ele>597.2</ele>
        <time>2018-09-14T19:01:52Z</time>
      </trkpt>
      <trkpt lat="-24.8395400" lon="-53.7013110">
        <ele>597.4</ele>
        <time>2018-09-14T19:01:53Z</time>
      </trkpt>
      <trkpt lat="-24.8394890" lon="-53.7013170">
        <ele>597.5</ele>
        <time>2018-09-14T19:01:54Z</time>
      </trkpt>
      <trkpt lat="-24.8394380" lon="-53.7013240">
        <ele>597.2</ele>
        <time>2018-09-14T19:01:55Z</time>
      </trkpt>
      <trkpt lat="-24.8393860" lon="-53.7013310">
        <ele>596.9</ele>
        <time>2018-09-14T19:01:56Z</time>
      </trkpt>
      <trkpt lat="-24.8393350" lon="-53.7013370">
        <ele>596.4</ele>
        <time>2018-09-14T19:01:57Z</time>
      </trkpt>
      <trkpt lat="-24.8392840" lon="-53.7013430">
        <ele>596.0</ele>
        <time>2018-09-14T19:01:58Z</time>
      </trkpt>
      <trkpt lat="-24.8392330" lon="-53.7013480">
        <ele>595.1</ele>
        <time>2018-09-14T19:01:59Z</time>
      </trkpt>
      <trkpt lat="-24.8391820" lon="-53.7013540">
        <ele>594.8</ele>
        <time>2018-09-14T19:02:00Z</time>
      </trkpt>
      <trkpt lat="-24.8391300" lon="-53.7013590">
        <ele>594.6</ele>
        <time>2018-09-14T19:02:01Z</time>
      </trkpt>
      <trkpt lat="-24.8390780" lon="-53.7013640">
        <ele>594.4</ele>
        <time>2018-09-14T19:02:02Z</time>
      </trkpt>
      <trkpt lat="-24.8390270" lon="-53.7013680">
        <ele>594.4</ele>
        <time>2018-09-14T19:02:03Z</time>
      </trkpt>
      <trkpt lat="-24.8389760" lon="-53.7013730">
        <ele>594.5</ele>
        <time>2018-09-14T19:02:04Z</time>
      </trkpt>
      <trkpt lat="-24.8389240" lon="-53.7013800">
        <ele>594.9</ele>
        <time>2018-09-14T19:02:05Z</time>
      </trkpt>
      <trkpt lat="-24.8388730" lon="-53.7013870">
        <ele>595.2</ele>
        <time>2018-09-14T19:02:06Z</time>
      </trkpt>
      <trkpt lat="-24.8388210" lon="-53.7013910">
        <ele>595.4</ele>
        <time>2018-09-14T19:02:07Z</time>
      </trkpt>
      <trkpt lat="-24.8387700" lon="-53.7013940">
        <ele>595.4</ele>
        <time>2018-09-14T19:02:08Z</time>
      </trkpt>
      <trkpt lat="-24.8387200" lon="-53.7013980">
        <ele>595.4</ele>
        <time>2018-09-14T19:02:09Z</time>
      </trkpt>
      <trkpt lat="-24.8386690" lon="-53.7014030">
        <ele>595.3</ele>
        <time>2018-09-14T19:02:10Z</time>
      </trkpt>
      <trkpt lat="-24.8386180" lon="-53.7014070">
        <ele>595.3</ele>
        <time>2018-09-14T19:02:11Z</time>
      </trkpt>
      <trkpt lat="-24.8385670" lon="-53.7014100">
        <ele>595.3</ele>
        <time>2018-09-14T19:02:12Z</time>
      </trkpt>
      <trkpt lat="-24.8385160" lon="-53.7014120">
        <ele>595.2</ele>
        <time>2018-09-14T19:02:13Z</time>
      </trkpt>
      <trkpt lat="-24.8384650" lon="-53.7014160">
        <ele>595.2</ele>
        <time>2018-09-14T19:02:14Z</time>
      </trkpt>
      <trkpt lat="-24.8384140" lon="-53.7014180">
        <ele>595.1</ele>
        <time>2018-09-14T19:02:15Z</time>
      </trkpt>
      <trkpt lat="-24.8383640" lon="-53.7014220">
        <ele>595.2</ele>
        <time>2018-09-14T19:02:16Z</time>
      </trkpt>
      <trkpt lat="-24.8383140" lon="-53.7014260">
        <ele>595.3</ele>
        <time>2018-09-14T19:02:17Z</time>
      </trkpt>
      <trkpt lat="-24.8382620" lon="-53.7014290">
        <ele>595.8</ele>
        <time>2018-09-14T19:02:18Z</time>
      </trkpt>
      <trkpt lat="-24.8382100" lon="-53.7014290">
        <ele>596.1</ele>
        <time>2018-09-14T19:02:19Z</time>
      </trkpt>
      <trkpt lat="-24.8381580" lon="-53.7014300">
        <ele>596.3</ele>
        <time>2018-09-14T19:02:20Z</time>
      </trkpt>
      <trkpt lat="-24.8381060" lon="-53.7014320">
        <ele>596.7</ele>
        <time>2018-09-14T19:02:21Z</time>
      </trkpt>
      <trkpt lat="-24.8380540" lon="-53.7014340">
        <ele>596.8</ele>
        <time>2018-09-14T19:02:22Z</time>
      </trkpt>
      <trkpt lat="-24.8380040" lon="-53.7014370">
        <ele>596.9</ele>
        <time>2018-09-14T19:02:23Z</time>
      </trkpt>
      <trkpt lat="-24.8379550" lon="-53.7014410">
        <ele>596.9</ele>
        <time>2018-09-14T19:02:24Z</time>
      </trkpt>
      <trkpt lat="-24.8379040" lon="-53.7014440">
        <ele>596.9</ele>
        <time>2018-09-14T19:02:25Z</time>
      </trkpt>
      <trkpt lat="-24.8378500" lon="-53.7014470">
        <ele>596.9</ele>
        <time>2018-09-14T19:02:26Z</time>
      </trkpt>
      <trkpt lat="-24.8377940" lon="-53.7014510">
        <ele>596.8</ele>
        <time>2018-09-14T19:02:27Z</time>
      </trkpt>
      <trkpt lat="-24.8377380" lon="-53.7014540">
        <ele>596.7</ele>
        <time>2018-09-14T19:02:28Z</time>
      </trkpt>
      <trkpt lat="-24.8376840" lon="-53.7014560">
        <ele>596.3</ele>
        <time>2018-09-14T19:02:29Z</time>
      </trkpt>
      <trkpt lat="-24.8376300" lon="-53.7014600">
        <ele>596.1</ele>
        <time>2018-09-14T19:02:30Z</time>
      </trkpt>
      <trkpt lat="-24.8375770" lon="-53.7014640">
        <ele>595.8</ele>
        <time>2018-09-14T19:02:31Z</time>
      </trkpt>
      <trkpt lat="-24.8375250" lon="-53.7014670">
        <ele>595.2</ele>
        <time>2018-09-14T19:02:32Z</time>
      </trkpt>
      <trkpt lat="-24.8374720" lon="-53.7014700">
        <ele>594.9</ele>
        <time>2018-09-14T19:02:33Z</time>
      </trkpt>
      <trkpt lat="-24.8374180" lon="-53.7014750">
        <ele>594.4</ele>
        <time>2018-09-14T19:02:34Z</time>
      </trkpt>
      <trkpt lat="-24.8373640" lon="-53.7014790">
        <ele>593.4</ele>
        <time>2018-09-14T19:02:35Z</time>
      </trkpt>
      <trkpt lat="-24.8373090" lon="-53.7014820">
        <ele>592.9</ele>
        <time>2018-09-14T19:02:36Z</time>
      </trkpt>
      <trkpt lat="-24.8372560" lon="-53.7014860">
        <ele>591.9</ele>
        <time>2018-09-14T19:02:37Z</time>
      </trkpt>
      <trkpt lat="-24.8372040" lon="-53.7014910">
        <ele>591.5</ele>
        <time>2018-09-14T19:02:38Z</time>
      </trkpt>
      <trkpt lat="-24.8371540" lon="-53.7014950">
        <ele>591.0</ele>
        <time>2018-09-14T19:02:39Z</time>
      </trkpt>
      <trkpt lat="-24.8371060" lon="-53.7014990">
        <ele>590.6</ele>
        <time>2018-09-14T19:02:40Z</time>
      </trkpt>
      <trkpt lat="-24.8370580" lon="-53.7015030">
        <ele>589.8</ele>
        <time>2018-09-14T19:02:41Z</time>
      </trkpt>
      <trkpt lat="-24.8370060" lon="-53.7015080">
        <ele>589.4</ele>
        <time>2018-09-14T19:02:42Z</time>
      </trkpt>
      <trkpt lat="-24.8369540" lon="-53.7015130">
        <ele>589.1</ele>
        <time>2018-09-14T19:02:43Z</time>
      </trkpt>
      <trkpt lat="-24.8368990" lon="-53.7015180">
        <ele>588.7</ele>
        <time>2018-09-14T19:02:44Z</time>
      </trkpt>
      <trkpt lat="-24.8368430" lon="-53.7015230">
        <ele>588.5</ele>
        <time>2018-09-14T19:02:45Z</time>
      </trkpt>
      <trkpt lat="-24.8367860" lon="-53.7015270">
        <ele>587.8</ele>
        <time>2018-09-14T19:02:46Z</time>
      </trkpt>
      <trkpt lat="-24.8367270" lon="-53.7015310">
        <ele>587.3</ele>
        <time>2018-09-14T19:02:47Z</time>
      </trkpt>
      <trkpt lat="-24.8366680" lon="-53.7015340">
        <ele>586.6</ele>
        <time>2018-09-14T19:02:48Z</time>
      </trkpt>
      <trkpt lat="-24.8366120" lon="-53.7015390">
        <ele>586.5</ele>
        <time>2018-09-14T19:02:49Z</time>
      </trkpt>
      <trkpt lat="-24.8365540" lon="-53.7015440">
        <ele>586.5</ele>
        <time>2018-09-14T19:02:50Z</time>
      </trkpt>
      <trkpt lat="-24.8364940" lon="-53.7015500">
        <ele>586.4</ele>
        <time>2018-09-14T19:02:51Z</time>
      </trkpt>
      <trkpt lat="-24.8364320" lon="-53.7015570">
        <ele>586.1</ele>
        <time>2018-09-14T19:02:52Z</time>
      </trkpt>
      <trkpt lat="-24.8363710" lon="-53.7015600">
        <ele>586.0</ele>
        <time>2018-09-14T19:02:53Z</time>
      </trkpt>
      <trkpt lat="-24.8363100" lon="-53.7015650">
        <ele>586.9</ele>
        <time>2018-09-14T19:02:54Z</time>
      </trkpt>
      <trkpt lat="-24.8362470" lon="-53.7015710">
        <ele>587.4</ele>
        <time>2018-09-14T19:02:55Z</time>
      </trkpt>
      <trkpt lat="-24.8361850" lon="-53.7015770">
        <ele>588.2</ele>
        <time>2018-09-14T19:02:56Z</time>
      </trkpt>
      <trkpt lat="-24.8361250" lon="-53.7015850">
        <ele>588.1</ele>
        <time>2018-09-14T19:02:57Z</time>
      </trkpt>
      <trkpt lat="-24.8360670" lon="-53.7015900">
        <ele>587.9</ele>
        <time>2018-09-14T19:02:58Z</time>
      </trkpt>
      <trkpt lat="-24.8360120" lon="-53.7015950">
        <ele>587.7</ele>
        <time>2018-09-14T19:02:59Z</time>
      </trkpt>
      <trkpt lat="-24.8359560" lon="-53.7016010">
        <ele>587.3</ele>
        <time>2018-09-14T19:03:00Z</time>
      </trkpt>
      <trkpt lat="-24.8358960" lon="-53.7016080">
        <ele>586.7</ele>
        <time>2018-09-14T19:03:01Z</time>
      </trkpt>
      <trkpt lat="-24.8358350" lon="-53.7016110">
        <ele>585.8</ele>
        <time>2018-09-14T19:03:02Z</time>
      </trkpt>
      <trkpt lat="-24.8357730" lon="-53.7016140">
        <ele>584.9</ele>
        <time>2018-09-14T19:03:03Z</time>
      </trkpt>
      <trkpt lat="-24.8357110" lon="-53.7016180">
        <ele>584.5</ele>
        <time>2018-09-14T19:03:04Z</time>
      </trkpt>
      <trkpt lat="-24.8356500" lon="-53.7016230">
        <ele>583.9</ele>
        <time>2018-09-14T19:03:05Z</time>
      </trkpt>
      <trkpt lat="-24.8355900" lon="-53.7016280">
        <ele>583.7</ele>
        <time>2018-09-14T19:03:06Z</time>
      </trkpt>
      <trkpt lat="-24.8355310" lon="-53.7016320">
        <ele>583.5</ele>
        <time>2018-09-14T19:03:07Z</time>
      </trkpt>
      <trkpt lat="-24.8354750" lon="-53.7016370">
        <ele>583.5</ele>
        <time>2018-09-14T19:03:08Z</time>
      </trkpt>
      <trkpt lat="-24.8354180" lon="-53.7016420">
        <ele>583.8</ele>
        <time>2018-09-14T19:03:09Z</time>
      </trkpt>
      <trkpt lat="-24.8353570" lon="-53.7016470">
        <ele>583.9</ele>
        <time>2018-09-14T19:03:10Z</time>
      </trkpt>
      <trkpt lat="-24.8352950" lon="-53.7016510">
        <ele>584.1</ele>
        <time>2018-09-14T19:03:11Z</time>
      </trkpt>
      <trkpt lat="-24.8352340" lon="-53.7016560">
        <ele>584.3</ele>
        <time>2018-09-14T19:03:12Z</time>
      </trkpt>
      <trkpt lat="-24.8351730" lon="-53.7016620">
        <ele>584.5</ele>
        <time>2018-09-14T19:03:13Z</time>
      </trkpt>
      <trkpt lat="-24.8351110" lon="-53.7016670">
        <ele>584.6</ele>
        <time>2018-09-14T19:03:14Z</time>
      </trkpt>
      <trkpt lat="-24.8350500" lon="-53.7016730">
        <ele>584.5</ele>
        <time>2018-09-14T19:03:15Z</time>
      </trkpt>
      <trkpt lat="-24.8349890" lon="-53.7016780">
        <ele>584.5</ele>
        <time>2018-09-14T19:03:16Z</time>
      </trkpt>
      <trkpt lat="-24.8349300" lon="-53.7016840">
        <ele>584.5</ele>
        <time>2018-09-14T19:03:17Z</time>
      </trkpt>
      <trkpt lat="-24.8348730" lon="-53.7016900">
        <ele>584.9</ele>
        <time>2018-09-14T19:03:18Z</time>
      </trkpt>
      <trkpt lat="-24.8348170" lon="-53.7016940">
        <ele>585.1</ele>
        <time>2018-09-14T19:03:19Z</time>
      </trkpt>
      <trkpt lat="-24.8347640" lon="-53.7016990">
        <ele>585.3</ele>
        <time>2018-09-14T19:03:20Z</time>
      </trkpt>
      <trkpt lat="-24.8347130" lon="-53.7017030">
        <ele>585.2</ele>
        <time>2018-09-14T19:03:21Z</time>
      </trkpt>
      <trkpt lat="-24.8346590" lon="-53.7017070">
        <ele>585.1</ele>
        <time>2018-09-14T19:03:22Z</time>
      </trkpt>
      <trkpt lat="-24.8346590" lon="-53.7017070">
        <ele>585.0</ele>
        <time>2018-09-14T19:03:23Z</time>
      </trkpt>
      <trkpt lat="-24.8346020" lon="-53.7017130">
        <ele>584.6</ele>
        <time>2018-09-14T19:03:24Z</time>
      </trkpt>
      <trkpt lat="-24.8345440" lon="-53.7017180">
        <ele>584.3</ele>
        <time>2018-09-14T19:03:25Z</time>
      </trkpt>
      <trkpt lat="-24.8344860" lon="-53.7017220">
        <ele>583.6</ele>
        <time>2018-09-14T19:03:26Z</time>
      </trkpt>
      <trkpt lat="-24.8344280" lon="-53.7017270">
        <ele>583.2</ele>
        <time>2018-09-14T19:03:27Z</time>
      </trkpt>
      <trkpt lat="-24.8343700" lon="-53.7017300">
        <ele>583.0</ele>
        <time>2018-09-14T19:03:28Z</time>
      </trkpt>
      <trkpt lat="-24.8343140" lon="-53.7017340">
        <ele>582.7</ele>
        <time>2018-09-14T19:03:29Z</time>
      </trkpt>
      <trkpt lat="-24.8342570" lon="-53.7017390">
        <ele>582.2</ele>
        <time>2018-09-14T19:03:30Z</time>
      </trkpt>
      <trkpt lat="-24.8342020" lon="-53.7017420">
        <ele>582.0</ele>
        <time>2018-09-14T19:03:31Z</time>
      </trkpt>
      <trkpt lat="-24.8341460" lon="-53.7017450">
        <ele>581.7</ele>
        <time>2018-09-14T19:03:32Z</time>
      </trkpt>
      <trkpt lat="-24.8340910" lon="-53.7017470">
        <ele>581.1</ele>
        <time>2018-09-14T19:03:33Z</time>
      </trkpt>
      <trkpt lat="-24.8340360" lon="-53.7017470">
        <ele>580.9</ele>
        <time>2018-09-14T19:03:34Z</time>
      </trkpt>
      <trkpt lat="-24.8339830" lon="-53.7017480">
        <ele>580.7</ele>
        <time>2018-09-14T19:03:35Z</time>
      </trkpt>
      <trkpt lat="-24.8339320" lon="-53.7017490">
        <ele>580.7</ele>
        <time>2018-09-14T19:03:36Z</time>
      </trkpt>
      <trkpt lat="-24.8338830" lon="-53.7017500">
        <ele>580.7</ele>
        <time>2018-09-14T19:03:37Z</time>
      </trkpt>
      <trkpt lat="-24.8338350" lon="-53.7017470">
        <ele>580.8</ele>
        <time>2018-09-14T19:03:38Z</time>
      </trkpt>
      <trkpt lat="-24.8337850" lon="-53.7017370">
        <ele>580.8</ele>
        <time>2018-09-14T19:03:39Z</time>
      </trkpt>
      <trkpt lat="-24.8337360" lon="-53.7017180">
        <ele>581.0</ele>
        <time>2018-09-14T19:03:40Z</time>
      </trkpt>
      <trkpt lat="-24.8336870" lon="-53.7016970">
        <ele>580.9</ele>
        <time>2018-09-14T19:03:41Z</time>
      </trkpt>
      <trkpt lat="-24.8336390" lon="-53.7016770">
        <ele>580.9</ele>
        <time>2018-09-14T19:03:42Z</time>
      </trkpt>
      <trkpt lat="-24.8335910" lon="-53.7016540">
        <ele>580.2</ele>
        <time>2018-09-14T19:03:43Z</time>
      </trkpt>
      <trkpt lat="-24.8335450" lon="-53.7016300">
        <ele>580.2</ele>
        <time>2018-09-14T19:03:44Z</time>
      </trkpt>
      <trkpt lat="-24.8334980" lon="-53.7016080">
        <ele>579.9</ele>
        <time>2018-09-14T19:03:45Z</time>
      </trkpt>
      <trkpt lat="-24.8334500" lon="-53.7015910">
        <ele>580.0</ele>
        <time>2018-09-14T19:03:46Z</time>
      </trkpt>
      <trkpt lat="-24.8334000" lon="-53.7015800">
        <ele>579.2</ele>
        <time>2018-09-14T19:03:47Z</time>
      </trkpt>
      <trkpt lat="-24.8333490" lon="-53.7015710">
        <ele>578.7</ele>
        <time>2018-09-14T19:03:48Z</time>
      </trkpt>
      <trkpt lat="-24.8332990" lon="-53.7015650">
        <ele>578.1</ele>
        <time>2018-09-14T19:03:49Z</time>
      </trkpt>
      <trkpt lat="-24.8332480" lon="-53.7015620">
        <ele>577.6</ele>
        <time>2018-09-14T19:03:50Z</time>
      </trkpt>
      <trkpt lat="-24.8331960" lon="-53.7015640">
        <ele>576.9</ele>
        <time>2018-09-14T19:03:51Z</time>
      </trkpt>
      <trkpt lat="-24.8331420" lon="-53.7015680">
        <ele>576.7</ele>
        <time>2018-09-14T19:03:52Z</time>
      </trkpt>
      <trkpt lat="-24.8330880" lon="-53.7015710">
        <ele>576.2</ele>
        <time>2018-09-14T19:03:53Z</time>
      </trkpt>
      <trkpt lat="-24.8330330" lon="-53.7015720">
        <ele>575.9</ele>
        <time>2018-09-14T19:03:54Z</time>
      </trkpt>
      <trkpt lat="-24.8329770" lon="-53.7015710">
        <ele>575.6</ele>
        <time>2018-09-14T19:03:55Z</time>
      </trkpt>
      <trkpt lat="-24.8329220" lon="-53.7015630">
        <ele>575.2</ele>
        <time>2018-09-14T19:03:56Z</time>
      </trkpt>
      <trkpt lat="-24.8328650" lon="-53.7015560">
        <ele>575.6</ele>
        <time>2018-09-14T19:03:57Z</time>
      </trkpt>
      <trkpt lat="-24.8328140" lon="-53.7015410">
        <ele>575.7</ele>
        <time>2018-09-14T19:03:58Z</time>
      </trkpt>
      <trkpt lat="-24.8327630" lon="-53.7015220">
        <ele>575.9</ele>
        <time>2018-09-14T19:03:59Z</time>
      </trkpt>
      <trkpt lat="-24.8327080" lon="-53.7014990">
        <ele>576.6</ele>
        <time>2018-09-14T19:04:00Z</time>
      </trkpt>
      <trkpt lat="-24.8326480" lon="-53.7014780">
        <ele>577.2</ele>
        <time>2018-09-14T19:04:01Z</time>
      </trkpt>
      <trkpt lat="-24.8325840" lon="-53.7014590">
        <ele>578.1</ele>
        <time>2018-09-14T19:04:02Z</time>
      </trkpt>
      <trkpt lat="-24.8325190" lon="-53.7014430">
        <ele>578.3</ele>
        <time>2018-09-14T19:04:03Z</time>
      </trkpt>
      <trkpt lat="-24.8324550" lon="-53.7014280">
        <ele>579.2</ele>
        <time>2018-09-14T19:04:04Z</time>
      </trkpt>
      <trkpt lat="-24.8323930" lon="-53.7014180">
        <ele>579.4</ele>
        <time>2018-09-14T19:04:05Z</time>
      </trkpt>
      <trkpt lat="-24.8323300" lon="-53.7014030">
        <ele>579.8</ele>
        <time>2018-09-14T19:04:06Z</time>
      </trkpt>
      <trkpt lat="-24.8322670" lon="-53.7013830">
        <ele>580.7</ele>
        <time>2018-09-14T19:04:07Z</time>
      </trkpt>
      <trkpt lat="-24.8322040" lon="-53.7013600">
        <ele>581.0</ele>
        <time>2018-09-14T19:04:08Z</time>
      </trkpt>
      <trkpt lat="-24.8321470" lon="-53.7013260">
        <ele>581.5</ele>
        <time>2018-09-14T19:04:09Z</time>
      </trkpt>
      <trkpt lat="-24.8320890" lon="-53.7012920">
        <ele>581.5</ele>
        <time>2018-09-14T19:04:10Z</time>
      </trkpt>
      <trkpt lat="-24.8320340" lon="-53.7012520">
        <ele>580.9</ele>
        <time>2018-09-14T19:04:11Z</time>
      </trkpt>
      <trkpt lat="-24.8319800" lon="-53.7012140">
        <ele>580.6</ele>
        <time>2018-09-14T19:04:12Z</time>
      </trkpt>
      <trkpt lat="-24.8319300" lon="-53.7011700">
        <ele>580.4</ele>
        <time>2018-09-14T19:04:13Z</time>
      </trkpt>
      <trkpt lat="-24.8318820" lon="-53.7011250">
        <ele>579.8</ele>
        <time>2018-09-14T19:04:14Z</time>
      </trkpt>
      <trkpt lat="-24.8318350" lon="-53.7010780">
        <ele>579.6</ele>
        <time>2018-09-14T19:04:15Z</time>
      </trkpt>
      <trkpt lat="-24.8317900" lon="-53.7010290">
        <ele>579.4</ele>
        <time>2018-09-14T19:04:16Z</time>
      </trkpt>
      <trkpt lat="-24.8317440" lon="-53.7009810">
        <ele>579.2</ele>
        <time>2018-09-14T19:04:17Z</time>
      </trkpt>
      <trkpt lat="-24.8317020" lon="-53.7009290">
        <ele>578.8</ele>
        <time>2018-09-14T19:04:18Z</time>
      </trkpt>
      <trkpt lat="-24.8316580" lon="-53.7008790">
        <ele>578.4</ele>
        <time>2018-09-14T19:04:19Z</time>
      </trkpt>
      <trkpt lat="-24.8316170" lon="-53.7008260">
        <ele>578.3</ele>
        <time>2018-09-14T19:04:20Z</time>
      </trkpt>
      <trkpt lat="-24.8315750" lon="-53.7007740">
        <ele>578.4</ele>
        <time>2018-09-14T19:04:21Z</time>
      </trkpt>
      <trkpt lat="-24.8315320" lon="-53.7007210">
        <ele>578.5</ele>
        <time>2018-09-14T19:04:22Z</time>
      </trkpt>
      <trkpt lat="-24.8314920" lon="-53.7006680">
        <ele>578.3</ele>
        <time>2018-09-14T19:04:23Z</time>
      </trkpt>
      <trkpt lat="-24.8314500" lon="-53.7006160">
        <ele>577.9</ele>
        <time>2018-09-14T19:04:24Z</time>
      </trkpt>
      <trkpt lat="-24.8314080" lon="-53.7005640">
        <ele>577.4</ele>
        <time>2018-09-14T19:04:25Z</time>
      </trkpt>
      <trkpt lat="-24.8313660" lon="-53.7005120">
        <ele>576.9</ele>
        <time>2018-09-14T19:04:26Z</time>
      </trkpt>
      <trkpt lat="-24.8313250" lon="-53.7004600">
        <ele>576.5</ele>
        <time>2018-09-14T19:04:27Z</time>
      </trkpt>
      <trkpt lat="-24.8312840" lon="-53.7004090">
        <ele>576.2</ele>
        <time>2018-09-14T19:04:28Z</time>
      </trkpt>
      <trkpt lat="-24.8312400" lon="-53.7003640">
        <ele>576.1</ele>
        <time>2018-09-14T19:04:29Z</time>
      </trkpt>
      <trkpt lat="-24.8311930" lon="-53.7003250">
        <ele>575.8</ele>
        <time>2018-09-14T19:04:30Z</time>
      </trkpt>
      <trkpt lat="-24.8311400" lon="-53.7002930">
        <ele>575.8</ele>
        <time>2018-09-14T19:04:31Z</time>
      </trkpt>
      <trkpt lat="-24.8310790" lon="-53.7002670">
        <ele>575.7</ele>
        <time>2018-09-14T19:04:32Z</time>
      </trkpt>
      <trkpt lat="-24.8310130" lon="-53.7002470">
        <ele>575.4</ele>
        <time>2018-09-14T19:04:33Z</time>
      </trkpt>
      <trkpt lat="-24.8309430" lon="-53.7002340">
        <ele>574.9</ele>
        <time>2018-09-14T19:04:34Z</time>
      </trkpt>
      <trkpt lat="-24.8308720" lon="-53.7002260">
        <ele>574.3</ele>
        <time>2018-09-14T19:04:35Z</time>
      </trkpt>
      <trkpt lat="-24.8308010" lon="-53.7002220">
        <ele>573.5</ele>
        <time>2018-09-14T19:04:36Z</time>
      </trkpt>
      <trkpt lat="-24.8307290" lon="-53.7002170">
        <ele>572.5</ele>
        <time>2018-09-14T19:04:37Z</time>
      </trkpt>
      <trkpt lat="-24.8306580" lon="-53.7002140">
        <ele>571.7</ele>
        <time>2018-09-14T19:04:38Z</time>
      </trkpt>
      <trkpt lat="-24.8305880" lon="-53.7002120">
        <ele>571.3</ele>
        <time>2018-09-14T19:04:39Z</time>
      </trkpt>
      <trkpt lat="-24.8305180" lon="-53.7002130">
        <ele>571.0</ele>
        <time>2018-09-14T19:04:40Z</time>
      </trkpt>
      <trkpt lat="-24.8304480" lon="-53.7002180">
        <ele>570.5</ele>
        <time>2018-09-14T19:04:41Z</time>
      </trkpt>
      <trkpt lat="-24.8303800" lon="-53.7002260">
        <ele>569.7</ele>
        <time>2018-09-14T19:04:42Z</time>
      </trkpt>
      <trkpt lat="-24.8303130" lon="-53.7002360">
        <ele>569.0</ele>
        <time>2018-09-14T19:04:43Z</time>
      </trkpt>
      <trkpt lat="-24.8302470" lon="-53.7002470">
        <ele>568.7</ele>
        <time>2018-09-14T19:04:44Z</time>
      </trkpt>
      <trkpt lat="-24.8301850" lon="-53.7002600">
        <ele>568.6</ele>
        <time>2018-09-14T19:04:45Z</time>
      </trkpt>
      <trkpt lat="-24.8301250" lon="-53.7002720">
        <ele>568.5</ele>
        <time>2018-09-14T19:04:46Z</time>
      </trkpt>
      <trkpt lat="-24.8300630" lon="-53.7002830">
        <ele>568.6</ele>
        <time>2018-09-14T19:04:47Z</time>
      </trkpt>
      <trkpt lat="-24.8299930" lon="-53.7002920">
        <ele>568.7</ele>
        <time>2018-09-14T19:04:48Z</time>
      </trkpt>
      <trkpt lat="-24.8299210" lon="-53.7002970">
        <ele>568.5</ele>
        <time>2018-09-14T19:04:49Z</time>
      </trkpt>
      <trkpt lat="-24.8298470" lon="-53.7003000">
        <ele>568.0</ele>
        <time>2018-09-14T19:04:50Z</time>
      </trkpt>
      <trkpt lat="-24.8297740" lon="-53.7003000">
        <ele>568.0</ele>
        <time>2018-09-14T19:04:51Z</time>
      </trkpt>
      <trkpt lat="-24.8297010" lon="-53.7002970">
        <ele>568.0</ele>
        <time>2018-09-14T19:04:52Z</time>
      </trkpt>
      <trkpt lat="-24.8296280" lon="-53.7002940">
        <ele>568.0</ele>
        <time>2018-09-14T19:04:53Z</time>
      </trkpt>
      <trkpt lat="-24.8295530" lon="-53.7002920">
        <ele>568.0</ele>
        <time>2018-09-14T19:04:54Z</time>
      </trkpt>
      <trkpt lat="-24.8294790" lon="-53.7002890">
        <ele>568.0</ele>
        <time>2018-09-14T19:04:55Z</time>
      </trkpt>
      <trkpt lat="-24.8294050" lon="-53.7002860">
        <ele>568.1</ele>
        <time>2018-09-14T19:04:56Z</time>
      </trkpt>
      <trkpt lat="-24.8293320" lon="-53.7002860">
        <ele>567.9</ele>
        <time>2018-09-14T19:04:57Z</time>
      </trkpt>
      <trkpt lat="-24.8292590" lon="-53.7002860">
        <ele>567.4</ele>
        <time>2018-09-14T19:04:58Z</time>
      </trkpt>
      <trkpt lat="-24.8291160" lon="-53.7002890">
        <ele>566.9</ele>
        <time>2018-09-14T19:04:59Z</time>
      </trkpt>
      <trkpt lat="-24.8290470" lon="-53.7002910">
        <ele>567.0</ele>
        <time>2018-09-14T19:05:01Z</time>
      </trkpt>
      <trkpt lat="-24.8289780" lon="-53.7002960">
        <ele>567.1</ele>
        <time>2018-09-14T19:05:02Z</time>
      </trkpt>
      <trkpt lat="-24.8289110" lon="-53.7003000">
        <ele>566.9</ele>
        <time>2018-09-14T19:05:03Z</time>
      </trkpt>
      <trkpt lat="-24.8288450" lon="-53.7003020">
        <ele>566.6</ele>
        <time>2018-09-14T19:05:04Z</time>
      </trkpt>
      <trkpt lat="-24.8287810" lon="-53.7003030">
        <ele>566.3</ele>
        <time>2018-09-14T19:05:05Z</time>
      </trkpt>
      <trkpt lat="-24.8287170" lon="-53.7003040">
        <ele>566.0</ele>
        <time>2018-09-14T19:05:06Z</time>
      </trkpt>
      <trkpt lat="-24.8286560" lon="-53.7003060">
        <ele>566.0</ele>
        <time>2018-09-14T19:05:07Z</time>
      </trkpt>
      <trkpt lat="-24.8285370" lon="-53.7003080">
        <ele>565.9</ele>
        <time>2018-09-14T19:05:08Z</time>
      </trkpt>
      <trkpt lat="-24.8284790" lon="-53.7003060">
        <ele>565.6</ele>
        <time>2018-09-14T19:05:09Z</time>
      </trkpt>
      <trkpt lat="-24.8284180" lon="-53.7003050">
        <ele>565.2</ele>
        <time>2018-09-14T19:05:10Z</time>
      </trkpt>
      <trkpt lat="-24.8283550" lon="-53.7003040">
        <ele>565.2</ele>
        <time>2018-09-14T19:05:11Z</time>
      </trkpt>
      <trkpt lat="-24.8282910" lon="-53.7003020">
        <ele>565.2</ele>
        <time>2018-09-14T19:05:12Z</time>
      </trkpt>
      <trkpt lat="-24.8282260" lon="-53.7003010">
        <ele>565.1</ele>
        <time>2018-09-14T19:05:13Z</time>
      </trkpt>
      <trkpt lat="-24.8281610" lon="-53.7003000">
        <ele>564.7</ele>
        <time>2018-09-14T19:05:14Z</time>
      </trkpt>
      <trkpt lat="-24.8280970" lon="-53.7002990">
        <ele>564.3</ele>
        <time>2018-09-14T19:05:15Z</time>
      </trkpt>
      <trkpt lat="-24.8280330" lon="-53.7002970">
        <ele>563.9</ele>
        <time>2018-09-14T19:05:16Z</time>
      </trkpt>
      <trkpt lat="-24.8279690" lon="-53.7002950">
        <ele>563.4</ele>
        <time>2018-09-14T19:05:17Z</time>
      </trkpt>
      <trkpt lat="-24.8279050" lon="-53.7002930">
        <ele>562.9</ele>
        <time>2018-09-14T19:05:18Z</time>
      </trkpt>
      <trkpt lat="-24.8278420" lon="-53.7002920">
        <ele>562.5</ele>
        <time>2018-09-14T19:05:19Z</time>
      </trkpt>
      <trkpt lat="-24.8277790" lon="-53.7002910">
        <ele>562.1</ele>
        <time>2018-09-14T19:05:20Z</time>
      </trkpt>
      <trkpt lat="-24.8276560" lon="-53.7002890">
        <ele>562.0</ele>
        <time>2018-09-14T19:05:22Z</time>
      </trkpt>
      <trkpt lat="-24.8275940" lon="-53.7002860">
        <ele>562.2</ele>
        <time>2018-09-14T19:05:23Z</time>
      </trkpt>
      <trkpt lat="-24.8275330" lon="-53.7002830">
        <ele>562.4</ele>
        <time>2018-09-14T19:05:24Z</time>
      </trkpt>
      <trkpt lat="-24.8274730" lon="-53.7002830">
        <ele>562.8</ele>
        <time>2018-09-14T19:05:25Z</time>
      </trkpt>
      <trkpt lat="-24.8274130" lon="-53.7002820">
        <ele>563.3</ele>
        <time>2018-09-14T19:05:26Z</time>
      </trkpt>
      <trkpt lat="-24.8273530" lon="-53.7002810">
        <ele>563.8</ele>
        <time>2018-09-14T19:05:27Z</time>
      </trkpt>
      <trkpt lat="-24.8272950" lon="-53.7002810">
        <ele>563.8</ele>
        <time>2018-09-14T19:05:28Z</time>
      </trkpt>
      <trkpt lat="-24.8272360" lon="-53.7002820">
        <ele>563.6</ele>
        <time>2018-09-14T19:05:29Z</time>
      </trkpt>
      <trkpt lat="-24.8271770" lon="-53.7002840">
        <ele>563.3</ele>
        <time>2018-09-14T19:05:30Z</time>
      </trkpt>
      <trkpt lat="-24.8271170" lon="-53.7002870">
        <ele>562.9</ele>
        <time>2018-09-14T19:05:31Z</time>
      </trkpt>
      <trkpt lat="-24.8270590" lon="-53.7002900">
        <ele>562.5</ele>
        <time>2018-09-14T19:05:32Z</time>
      </trkpt>
      <trkpt lat="-24.8270000" lon="-53.7002950">
        <ele>562.0</ele>
        <time>2018-09-14T19:05:33Z</time>
      </trkpt>
      <trkpt lat="-24.8269430" lon="-53.7003020">
        <ele>561.7</ele>
        <time>2018-09-14T19:05:34Z</time>
      </trkpt>
      <trkpt lat="-24.8268860" lon="-53.7003100">
        <ele>561.4</ele>
        <time>2018-09-14T19:05:35Z</time>
      </trkpt>
      <trkpt lat="-24.8268290" lon="-53.7003130">
        <ele>561.2</ele>
        <time>2018-09-14T19:05:36Z</time>
      </trkpt>
      <trkpt lat="-24.8267730" lon="-53.7003150">
        <ele>561.2</ele>
        <time>2018-09-14T19:05:37Z</time>
      </trkpt>
      <trkpt lat="-24.8267180" lon="-53.7003160">
        <ele>561.2</ele>
        <time>2018-09-14T19:05:38Z</time>
      </trkpt>
      <trkpt lat="-24.8266630" lon="-53.7003180">
        <ele>561.2</ele>
        <time>2018-09-14T19:05:39Z</time>
      </trkpt>
      <trkpt lat="-24.8265560" lon="-53.7003220">
        <ele>561.3</ele>
        <time>2018-09-14T19:05:41Z</time>
      </trkpt>
      <trkpt lat="-24.8265040" lon="-53.7003230">
        <ele>561.4</ele>
        <time>2018-09-14T19:05:42Z</time>
      </trkpt>
      <trkpt lat="-24.8264530" lon="-53.7003240">
        <ele>561.8</ele>
        <time>2018-09-14T19:05:43Z</time>
      </trkpt>
      <trkpt lat="-24.8264010" lon="-53.7003230">
        <ele>562.4</ele>
        <time>2018-09-14T19:05:44Z</time>
      </trkpt>
      <trkpt lat="-24.8263500" lon="-53.7003220">
        <ele>563.0</ele>
        <time>2018-09-14T19:05:45Z</time>
      </trkpt>
      <trkpt lat="-24.8262980" lon="-53.7003210">
        <ele>563.6</ele>
        <time>2018-09-14T19:05:46Z</time>
      </trkpt>
      <trkpt lat="-24.8262460" lon="-53.7003210">
        <ele>564.1</ele>
        <time>2018-09-14T19:05:47Z</time>
      </trkpt>
      <trkpt lat="-24.8261930" lon="-53.7003200">
        <ele>564.6</ele>
        <time>2018-09-14T19:05:48Z</time>
      </trkpt>
      <trkpt lat="-24.8261410" lon="-53.7003200">
        <ele>564.9</ele>
        <time>2018-09-14T19:05:49Z</time>
      </trkpt>
      <trkpt lat="-24.8260880" lon="-53.7003190">
        <ele>565.2</ele>
        <time>2018-09-14T19:05:50Z</time>
      </trkpt>
      <trkpt lat="-24.8260360" lon="-53.7003180">
        <ele>565.2</ele>
        <time>2018-09-14T19:05:51Z</time>
      </trkpt>
      <trkpt lat="-24.8259820" lon="-53.7003180">
        <ele>565.3</ele>
        <time>2018-09-14T19:05:52Z</time>
      </trkpt>
      <trkpt lat="-24.8259290" lon="-53.7003180">
        <ele>565.3</ele>
        <time>2018-09-14T19:05:53Z</time>
      </trkpt>
      <trkpt lat="-24.8258750" lon="-53.7003180">
        <ele>565.4</ele>
        <time>2018-09-14T19:05:54Z</time>
      </trkpt>
      <trkpt lat="-24.8258210" lon="-53.7003160">
        <ele>565.4</ele>
        <time>2018-09-14T19:05:55Z</time>
      </trkpt>
      <trkpt lat="-24.8257680" lon="-53.7003130">
        <ele>565.5</ele>
        <time>2018-09-14T19:05:56Z</time>
      </trkpt>
      <trkpt lat="-24.8257200" lon="-53.7003120">
        <ele>565.5</ele>
        <time>2018-09-14T19:05:57Z</time>
      </trkpt>
      <trkpt lat="-24.8256740" lon="-53.7003140">
        <ele>565.5</ele>
        <time>2018-09-14T19:05:58Z</time>
      </trkpt>
      <trkpt lat="-24.8256280" lon="-53.7003170">
        <ele>565.5</ele>
        <time>2018-09-14T19:05:59Z</time>
      </trkpt>
      <trkpt lat="-24.8255800" lon="-53.7003180">
        <ele>565.5</ele>
        <time>2018-09-14T19:06:00Z</time>
      </trkpt>
      <trkpt lat="-24.8255310" lon="-53.7003170">
        <ele>565.4</ele>
        <time>2018-09-14T19:06:01Z</time>
      </trkpt>
      <trkpt lat="-24.8254800" lon="-53.7003180">
        <ele>565.3</ele>
        <time>2018-09-14T19:06:02Z</time>
      </trkpt>
      <trkpt lat="-24.8254300" lon="-53.7003200">
        <ele>565.3</ele>
        <time>2018-09-14T19:06:03Z</time>
      </trkpt>
      <trkpt lat="-24.8253780" lon="-53.7003230">
        <ele>565.3</ele>
        <time>2018-09-14T19:06:04Z</time>
      </trkpt>
      <trkpt lat="-24.8253270" lon="-53.7003260">
        <ele>565.4</ele>
        <time>2018-09-14T19:06:05Z</time>
      </trkpt>
      <trkpt lat="-24.8252760" lon="-53.7003300">
        <ele>565.4</ele>
        <time>2018-09-14T19:06:06Z</time>
      </trkpt>
      <trkpt lat="-24.8252300" lon="-53.7003340">
        <ele>565.4</ele>
        <time>2018-09-14T19:06:07Z</time>
      </trkpt>
      <trkpt lat="-24.8251880" lon="-53.7003370">
        <ele>565.4</ele>
        <time>2018-09-14T19:06:08Z</time>
      </trkpt>
      <trkpt lat="-24.8251540" lon="-53.7003400">
        <ele>565.5</ele>
        <time>2018-09-14T19:06:09Z</time>
      </trkpt>
      <trkpt lat="-24.8251240" lon="-53.7003410">
        <ele>565.6</ele>
        <time>2018-09-14T19:06:10Z</time>
      </trkpt>
      <trkpt lat="-24.8250930" lon="-53.7003430">
        <ele>565.7</ele>
        <time>2018-09-14T19:06:11Z</time>
      </trkpt>
      <trkpt lat="-24.8250600" lon="-53.7003450">
        <ele>565.9</ele>
        <time>2018-09-14T19:06:12Z</time>
      </trkpt>
      <trkpt lat="-24.8250260" lon="-53.7003470">
        <ele>566.1</ele>
        <time>2018-09-14T19:06:13Z</time>
      </trkpt>
      <trkpt lat="-24.8249910" lon="-53.7003490">
        <ele>566.3</ele>
        <time>2018-09-14T19:06:14Z</time>
      </trkpt>
      <trkpt lat="-24.8249590" lon="-53.7003490">
        <ele>566.5</ele>
        <time>2018-09-14T19:06:15Z</time>
      </trkpt>
      <trkpt lat="-24.8249290" lon="-53.7003500">
        <ele>566.8</ele>
        <time>2018-09-14T19:06:16Z</time>
      </trkpt>
      <trkpt lat="-24.8249020" lon="-53.7003510">
        <ele>567.1</ele>
        <time>2018-09-14T19:06:17Z</time>
      </trkpt>
      <trkpt lat="-24.8248770" lon="-53.7003510">
        <ele>567.3</ele>
        <time>2018-09-14T19:06:18Z</time>
      </trkpt>
      <trkpt lat="-24.8248530" lon="-53.7003510">
        <ele>567.4</ele>
        <time>2018-09-14T19:06:19Z</time>
      </trkpt>
      <trkpt lat="-24.8248280" lon="-53.7003510">
        <ele>567.5</ele>
        <time>2018-09-14T19:06:20Z</time>
      </trkpt>
      <trkpt lat="-24.8247980" lon="-53.7003520">
        <ele>567.5</ele>
        <time>2018-09-14T19:06:21Z</time>
      </trkpt>
      <trkpt lat="-24.8247650" lon="-53.7003530">
        <ele>567.5</ele>
        <time>2018-09-14T19:06:22Z</time>
      </trkpt>
      <trkpt lat="-24.8247300" lon="-53.7003530">
        <ele>567.4</ele>
        <time>2018-09-14T19:06:23Z</time>
      </trkpt>
      <trkpt lat="-24.8246950" lon="-53.7003520">
        <ele>567.3</ele>
        <time>2018-09-14T19:06:24Z</time>
      </trkpt>
      <trkpt lat="-24.8246580" lon="-53.7003510">
        <ele>567.1</ele>
        <time>2018-09-14T19:06:25Z</time>
      </trkpt>
      <trkpt lat="-24.8246210" lon="-53.7003490">
        <ele>566.9</ele>
        <time>2018-09-14T19:06:26Z</time>
      </trkpt>
      <trkpt lat="-24.8245840" lon="-53.7003470">
        <ele>566.7</ele>
        <time>2018-09-14T19:06:27Z</time>
      </trkpt>
      <trkpt lat="-24.8245470" lon="-53.7003440">
        <ele>566.5</ele>
        <time>2018-09-14T19:06:28Z</time>
      </trkpt>
      <trkpt lat="-24.8245090" lon="-53.7003430">
        <ele>566.3</ele>
        <time>2018-09-14T19:06:29Z</time>
      </trkpt>
      <trkpt lat="-24.8244720" lon="-53.7003410">
        <ele>566.3</ele>
        <time>2018-09-14T19:06:30Z</time>
      </trkpt>
      <trkpt lat="-24.8244340" lon="-53.7003390">
        <ele>566.3</ele>
        <time>2018-09-14T19:06:31Z</time>
      </trkpt>
      <trkpt lat="-24.8243960" lon="-53.7003370">
        <ele>566.3</ele>
        <time>2018-09-14T19:06:32Z</time>
      </trkpt>
      <trkpt lat="-24.8243580" lon="-53.7003350">
        <ele>566.3</ele>
        <time>2018-09-14T19:06:33Z</time>
      </trkpt>
      <trkpt lat="-24.8243190" lon="-53.7003320">
        <ele>566.3</ele>
        <time>2018-09-14T19:06:34Z</time>
      </trkpt>
      <trkpt lat="-24.8242790" lon="-53.7003290">
        <ele>566.3</ele>
        <time>2018-09-14T19:06:35Z</time>
      </trkpt>
      <trkpt lat="-24.8242380" lon="-53.7003280">
        <ele>566.3</ele>
        <time>2018-09-14T19:06:36Z</time>
      </trkpt>
      <trkpt lat="-24.8241970" lon="-53.7003270">
        <ele>566.5</ele>
        <time>2018-09-14T19:06:37Z</time>
      </trkpt>
      <trkpt lat="-24.8241550" lon="-53.7003260">
        <ele>566.7</ele>
        <time>2018-09-14T19:06:38Z</time>
      </trkpt>
      <trkpt lat="-24.8241140" lon="-53.7003240">
        <ele>567.0</ele>
        <time>2018-09-14T19:06:39Z</time>
      </trkpt>
      <trkpt lat="-24.8240730" lon="-53.7003230">
        <ele>567.3</ele>
        <time>2018-09-14T19:06:40Z</time>
      </trkpt>
      <trkpt lat="-24.8240320" lon="-53.7003210">
        <ele>567.6</ele>
        <time>2018-09-14T19:06:41Z</time>
      </trkpt>
      <trkpt lat="-24.8239900" lon="-53.7003180">
        <ele>567.9</ele>
        <time>2018-09-14T19:06:42Z</time>
      </trkpt>
      <trkpt lat="-24.8239490" lon="-53.7003140">
        <ele>568.2</ele>
        <time>2018-09-14T19:06:43Z</time>
      </trkpt>
      <trkpt lat="-24.8239080" lon="-53.7003110">
        <ele>568.4</ele>
        <time>2018-09-14T19:06:44Z</time>
      </trkpt>
      <trkpt lat="-24.8238660" lon="-53.7003080">
        <ele>568.3</ele>
        <time>2018-09-14T19:06:45Z</time>
      </trkpt>
      <trkpt lat="-24.8238240" lon="-53.7003050">
        <ele>568.1</ele>
        <time>2018-09-14T19:06:46Z</time>
      </trkpt>
      <trkpt lat="-24.8237810" lon="-53.7003020">
        <ele>567.9</ele>
        <time>2018-09-14T19:06:47Z</time>
      </trkpt>
      <trkpt lat="-24.8237370" lon="-53.7002990">
        <ele>567.6</ele>
        <time>2018-09-14T19:06:48Z</time>
      </trkpt>
      <trkpt lat="-24.8236930" lon="-53.7002960">
        <ele>567.4</ele>
        <time>2018-09-14T19:06:49Z</time>
      </trkpt>
      <trkpt lat="-24.8236470" lon="-53.7002920">
        <ele>567.2</ele>
        <time>2018-09-14T19:06:50Z</time>
      </trkpt>
      <trkpt lat="-24.8236020" lon="-53.7002890">
        <ele>566.9</ele>
        <time>2018-09-14T19:06:51Z</time>
      </trkpt>
      <trkpt lat="-24.8235550" lon="-53.7002860">
        <ele>566.6</ele>
        <time>2018-09-14T19:06:52Z</time>
      </trkpt>
      <trkpt lat="-24.8235090" lon="-53.7002840">
        <ele>566.3</ele>
        <time>2018-09-14T19:06:53Z</time>
      </trkpt>
      <trkpt lat="-24.8234660" lon="-53.7002810">
        <ele>566.1</ele>
        <time>2018-09-14T19:06:54Z</time>
      </trkpt>
      <trkpt lat="-24.8234230" lon="-53.7002790">
        <ele>566.0</ele>
        <time>2018-09-14T19:06:55Z</time>
      </trkpt>
      <trkpt lat="-24.8233810" lon="-53.7002770">
        <ele>565.9</ele>
        <time>2018-09-14T19:06:56Z</time>
      </trkpt>
      <trkpt lat="-24.8233350" lon="-53.7002760">
        <ele>565.9</ele>
        <time>2018-09-14T19:06:57Z</time>
      </trkpt>
      <trkpt lat="-24.8232860" lon="-53.7002730">
        <ele>565.9</ele>
        <time>2018-09-14T19:06:58Z</time>
      </trkpt>
      <trkpt lat="-24.8232330" lon="-53.7002700">
        <ele>566.0</ele>
        <time>2018-09-14T19:06:59Z</time>
      </trkpt>
      <trkpt lat="-24.8231760" lon="-53.7002670">
        <ele>566.0</ele>
        <time>2018-09-14T19:07:00Z</time>
      </trkpt>
      <trkpt lat="-24.8231180" lon="-53.7002660">
        <ele>566.0</ele>
        <time>2018-09-14T19:07:01Z</time>
      </trkpt>
      <trkpt lat="-24.8230560" lon="-53.7002670">
        <ele>565.8</ele>
        <time>2018-09-14T19:07:02Z</time>
      </trkpt>
      <trkpt lat="-24.8229930" lon="-53.7002700">
        <ele>565.5</ele>
        <time>2018-09-14T19:07:03Z</time>
      </trkpt>
      <trkpt lat="-24.8229310" lon="-53.7002740">
        <ele>565.0</ele>
        <time>2018-09-14T19:07:04Z</time>
      </trkpt>
      <trkpt lat="-24.8228680" lon="-53.7002800">
        <ele>564.7</ele>
        <time>2018-09-14T19:07:05Z</time>
      </trkpt>
      <trkpt lat="-24.8228050" lon="-53.7002870">
        <ele>564.4</ele>
        <time>2018-09-14T19:07:06Z</time>
      </trkpt>
      <trkpt lat="-24.8227440" lon="-53.7002960">
        <ele>564.1</ele>
        <time>2018-09-14T19:07:07Z</time>
      </trkpt>
      <trkpt lat="-24.8226860" lon="-53.7003050">
        <ele>563.8</ele>
        <time>2018-09-14T19:07:08Z</time>
      </trkpt>
      <trkpt lat="-24.8226230" lon="-53.7003130">
        <ele>563.4</ele>
        <time>2018-09-14T19:07:09Z</time>
      </trkpt>
      <trkpt lat="-24.8226230" lon="-53.7003130">
        <ele>563.4</ele>
        <time>2018-09-14T19:07:10Z</time>
      </trkpt>
      <trkpt lat="-24.8225550" lon="-53.7003180">
        <ele>563.2</ele>
        <time>2018-09-14T19:07:11Z</time>
      </trkpt>
      <trkpt lat="-24.8224840" lon="-53.7003220">
        <ele>562.8</ele>
        <time>2018-09-14T19:07:12Z</time>
      </trkpt>
      <trkpt lat="-24.8224160" lon="-53.7003220">
        <ele>562.4</ele>
        <time>2018-09-14T19:07:13Z</time>
      </trkpt>
      <trkpt lat="-24.8223450" lon="-53.7003200">
        <ele>562.1</ele>
        <time>2018-09-14T19:07:14Z</time>
      </trkpt>
      <trkpt lat="-24.8222750" lon="-53.7003170">
        <ele>562.2</ele>
        <time>2018-09-14T19:07:15Z</time>
      </trkpt>
      <trkpt lat="-24.8222100" lon="-53.7003150">
        <ele>562.2</ele>
        <time>2018-09-14T19:07:16Z</time>
      </trkpt>
      <trkpt lat="-24.8221520" lon="-53.7003150">
        <ele>562.1</ele>
        <time>2018-09-14T19:07:17Z</time>
      </trkpt>
      <trkpt lat="-24.8220940" lon="-53.7003170">
        <ele>561.8</ele>
        <time>2018-09-14T19:07:18Z</time>
      </trkpt>
      <trkpt lat="-24.8220320" lon="-53.7003180">
        <ele>561.3</ele>
        <time>2018-09-14T19:07:19Z</time>
      </trkpt>
      <trkpt lat="-24.8219650" lon="-53.7003190">
        <ele>561.3</ele>
        <time>2018-09-14T19:07:20Z</time>
      </trkpt>
      <trkpt lat="-24.8218970" lon="-53.7003210">
        <ele>561.4</ele>
        <time>2018-09-14T19:07:21Z</time>
      </trkpt>
      <trkpt lat="-24.8218340" lon="-53.7003210">
        <ele>561.4</ele>
        <time>2018-09-14T19:07:22Z</time>
      </trkpt>
      <trkpt lat="-24.8217780" lon="-53.7003200">
        <ele>561.4</ele>
        <time>2018-09-14T19:07:23Z</time>
      </trkpt>
      <trkpt lat="-24.8217170" lon="-53.7003200">
        <ele>561.7</ele>
        <time>2018-09-14T19:07:24Z</time>
      </trkpt>
      <trkpt lat="-24.8216500" lon="-53.7003190">
        <ele>562.2</ele>
        <time>2018-09-14T19:07:25Z</time>
      </trkpt>
      <trkpt lat="-24.8215800" lon="-53.7003170">
        <ele>562.8</ele>
        <time>2018-09-14T19:07:26Z</time>
      </trkpt>
      <trkpt lat="-24.8215080" lon="-53.7003150">
        <ele>563.1</ele>
        <time>2018-09-14T19:07:27Z</time>
      </trkpt>
      <trkpt lat="-24.8214350" lon="-53.7003130">
        <ele>563.3</ele>
        <time>2018-09-14T19:07:28Z</time>
      </trkpt>
      <trkpt lat="-24.8213610" lon="-53.7003090">
        <ele>563.7</ele>
        <time>2018-09-14T19:07:29Z</time>
      </trkpt>
      <trkpt lat="-24.8212930" lon="-53.7003100">
        <ele>564.3</ele>
        <time>2018-09-14T19:07:30Z</time>
      </trkpt>
      <trkpt lat="-24.8212310" lon="-53.7003120">
        <ele>564.6</ele>
        <time>2018-09-14T19:07:31Z</time>
      </trkpt>
      <trkpt lat="-24.8211730" lon="-53.7003150">
        <ele>564.3</ele>
        <time>2018-09-14T19:07:32Z</time>
      </trkpt>
      <trkpt lat="-24.8211130" lon="-53.7003180">
        <ele>563.8</ele>
        <time>2018-09-14T19:07:33Z</time>
      </trkpt>
      <trkpt lat="-24.8210530" lon="-53.7003200">
        <ele>563.0</ele>
        <time>2018-09-14T19:07:34Z</time>
      </trkpt>
      <trkpt lat="-24.8209950" lon="-53.7003210">
        <ele>562.1</ele>
        <time>2018-09-14T19:07:35Z</time>
      </trkpt>
      <trkpt lat="-24.8209380" lon="-53.7003220">
        <ele>561.2</ele>
        <time>2018-09-14T19:07:36Z</time>
      </trkpt>
      <trkpt lat="-24.8208770" lon="-53.7003200">
        <ele>560.1</ele>
        <time>2018-09-14T19:07:37Z</time>
      </trkpt>
      <trkpt lat="-24.8208140" lon="-53.7003180">
        <ele>558.8</ele>
        <time>2018-09-14T19:07:38Z</time>
      </trkpt>
      <trkpt lat="-24.8207560" lon="-53.7003140">
        <ele>557.7</ele>
        <time>2018-09-14T19:07:39Z</time>
      </trkpt>
      <trkpt lat="-24.8207100" lon="-53.7003090">
        <ele>557.2</ele>
        <time>2018-09-14T19:07:40Z</time>
      </trkpt>
      <trkpt lat="-24.8206790" lon="-53.7003040">
        <ele>556.9</ele>
        <time>2018-09-14T19:07:41Z</time>
      </trkpt>
      <trkpt lat="-24.8206630" lon="-53.7003030">
        <ele>556.8</ele>
        <time>2018-09-14T19:07:42Z</time>
      </trkpt>
      <trkpt lat="-24.8206600" lon="-53.7003040">
        <ele>556.8</ele>
        <time>2018-09-14T19:07:43Z</time>
      </trkpt>
      <trkpt lat="-24.8206590" lon="-53.7003040">
        <ele>556.8</ele>
        <time>2018-09-14T19:07:44Z</time>
      </trkpt>
      <trkpt lat="-24.8206580" lon="-53.7003050">
        <ele>556.8</ele>
        <time>2018-09-14T19:07:45Z</time>
      </trkpt>
      <trkpt lat="-24.8206450" lon="-53.7003140">
        <ele>556.7</ele>
        <time>2018-09-14T19:08:59Z</time>
      </trkpt>
      <trkpt lat="-24.8206350" lon="-53.7003150">
        <ele>556.6</ele>
        <time>2018-09-14T19:09:00Z</time>
      </trkpt>
      <trkpt lat="-24.8206230" lon="-53.7003190">
        <ele>556.5</ele>
        <time>2018-09-14T19:09:01Z</time>
      </trkpt>
      <trkpt lat="-24.8206040" lon="-53.7003210">
        <ele>556.3</ele>
        <time>2018-09-14T19:09:02Z</time>
      </trkpt>
      <trkpt lat="-24.8205790" lon="-53.7003220">
        <ele>556.1</ele>
        <time>2018-09-14T19:09:03Z</time>
      </trkpt>
      <trkpt lat="-24.8205500" lon="-53.7003240">
        <ele>555.9</ele>
        <time>2018-09-14T19:09:04Z</time>
      </trkpt>
      <trkpt lat="-24.8205190" lon="-53.7003250">
        <ele>555.6</ele>
        <time>2018-09-14T19:09:05Z</time>
      </trkpt>
      <trkpt lat="-24.8204900" lon="-53.7003250">
        <ele>555.4</ele>
        <time>2018-09-14T19:09:06Z</time>
      </trkpt>
      <trkpt lat="-24.8204680" lon="-53.7003230">
        <ele>555.3</ele>
        <time>2018-09-14T19:09:07Z</time>
      </trkpt>
      <trkpt lat="-24.8204580" lon="-53.7003220">
        <ele>555.2</ele>
        <time>2018-09-14T19:09:08Z</time>
      </trkpt>
      <trkpt lat="-24.8204560" lon="-53.7003230">
        <ele>555.2</ele>
        <time>2018-09-14T19:09:09Z</time>
      </trkpt>
      <trkpt lat="-24.8204570" lon="-53.7003250">
        <ele>555.2</ele>
        <time>2018-09-14T19:09:10Z</time>
      </trkpt>
      <trkpt lat="-24.8204570" lon="-53.7003250">
        <ele>555.2</ele>
        <time>2018-09-14T19:09:12Z</time>
      </trkpt>
      <trkpt lat="-24.8204660" lon="-53.7003150">
        <ele>555.3</ele>
        <time>2018-09-14T19:09:45Z</time>
      </trkpt>
      <trkpt lat="-24.8204700" lon="-53.7003110">
        <ele>555.3</ele>
        <time>2018-09-14T19:09:46Z</time>
      </trkpt>
      <trkpt lat="-24.8204720" lon="-53.7003090">
        <ele>555.3</ele>
        <time>2018-09-14T19:09:47Z</time>
      </trkpt>
      <trkpt lat="-24.8204730" lon="-53.7003080">
        <ele>555.3</ele>
        <time>2018-09-14T19:09:48Z</time>
      </trkpt>
      <trkpt lat="-24.8204730" lon="-53.7003080">
        <ele>555.3</ele>
        <time>2018-09-14T19:09:49Z</time>
      </trkpt>
      <trkpt lat="-24.8204700" lon="-53.7003030">
        <ele>555.3</ele>
        <time>2018-09-14T19:10:13Z</time>
      </trkpt>
      <trkpt lat="-24.8204650" lon="-53.7003010">
        <ele>555.3</ele>
        <time>2018-09-14T19:10:14Z</time>
      </trkpt>
      <trkpt lat="-24.8204540" lon="-53.7003010">
        <ele>555.2</ele>
        <time>2018-09-14T19:10:15Z</time>
      </trkpt>
      <trkpt lat="-24.8204400" lon="-53.7003030">
        <ele>555.1</ele>
        <time>2018-09-14T19:10:16Z</time>
      </trkpt>
      <trkpt lat="-24.8204200" lon="-53.7003060">
        <ele>555.0</ele>
        <time>2018-09-14T19:10:17Z</time>
      </trkpt>
      <trkpt lat="-24.8203950" lon="-53.7003090">
        <ele>555.0</ele>
        <time>2018-09-14T19:10:18Z</time>
      </trkpt>
      <trkpt lat="-24.8203630" lon="-53.7003090">
        <ele>554.9</ele>
        <time>2018-09-14T19:10:19Z</time>
      </trkpt>
      <trkpt lat="-24.8203250" lon="-53.7003110">
        <ele>554.7</ele>
        <time>2018-09-14T19:10:20Z</time>
      </trkpt>
      <trkpt lat="-24.8202860" lon="-53.7003140">
        <ele>554.6</ele>
        <time>2018-09-14T19:10:21Z</time>
      </trkpt>
      <trkpt lat="-24.8202480" lon="-53.7003140">
        <ele>554.5</ele>
        <time>2018-09-14T19:10:22Z</time>
      </trkpt>
      <trkpt lat="-24.8202070" lon="-53.7003160">
        <ele>554.2</ele>
        <time>2018-09-14T19:10:23Z</time>
      </trkpt>
      <trkpt lat="-24.8201590" lon="-53.7003190">
        <ele>553.9</ele>
        <time>2018-09-14T19:10:24Z</time>
      </trkpt>
      <trkpt lat="-24.8201040" lon="-53.7003180">
        <ele>553.5</ele>
        <time>2018-09-14T19:10:25Z</time>
      </trkpt>
      <trkpt lat="-24.8200440" lon="-53.7003160">
        <ele>553.0</ele>
        <time>2018-09-14T19:10:26Z</time>
      </trkpt>
      <trkpt lat="-24.8199840" lon="-53.7003120">
        <ele>552.7</ele>
        <time>2018-09-14T19:10:27Z</time>
      </trkpt>
      <trkpt lat="-24.8199220" lon="-53.7003090">
        <ele>552.4</ele>
        <time>2018-09-14T19:10:28Z</time>
      </trkpt>
      <trkpt lat="-24.8198610" lon="-53.7003080">
        <ele>551.9</ele>
        <time>2018-09-14T19:10:29Z</time>
      </trkpt>
      <trkpt lat="-24.8198010" lon="-53.7003070">
        <ele>551.5</ele>
        <time>2018-09-14T19:10:30Z</time>
      </trkpt>
      <trkpt lat="-24.8197430" lon="-53.7003070">
        <ele>551.1</ele>
        <time>2018-09-14T19:10:31Z</time>
      </trkpt>
      <trkpt lat="-24.8196830" lon="-53.7003100">
        <ele>550.9</ele>
        <time>2018-09-14T19:10:32Z</time>
      </trkpt>
      <trkpt lat="-24.8196160" lon="-53.7003140">
        <ele>550.7</ele>
        <time>2018-09-14T19:10:33Z</time>
      </trkpt>
      <trkpt lat="-24.8195440" lon="-53.7003160">
        <ele>550.6</ele>
        <time>2018-09-14T19:10:34Z</time>
      </trkpt>
      <trkpt lat="-24.8194690" lon="-53.7003180">
        <ele>550.4</ele>
        <time>2018-09-14T19:10:35Z</time>
      </trkpt>
      <trkpt lat="-24.8193930" lon="-53.7003200">
        <ele>550.3</ele>
        <time>2018-09-14T19:10:36Z</time>
      </trkpt>
      <trkpt lat="-24.8193150" lon="-53.7003220">
        <ele>550.0</ele>
        <time>2018-09-14T19:10:37Z</time>
      </trkpt>
      <trkpt lat="-24.8192370" lon="-53.7003210">
        <ele>549.6</ele>
        <time>2018-09-14T19:10:38Z</time>
      </trkpt>
      <trkpt lat="-24.8191570" lon="-53.7003190">
        <ele>549.1</ele>
        <time>2018-09-14T19:10:39Z</time>
      </trkpt>
      <trkpt lat="-24.8190760" lon="-53.7003170">
        <ele>548.5</ele>
        <time>2018-09-14T19:10:40Z</time>
      </trkpt>
      <trkpt lat="-24.8189950" lon="-53.7003150">
        <ele>548.1</ele>
        <time>2018-09-14T19:10:41Z</time>
      </trkpt>
      <trkpt lat="-24.8189150" lon="-53.7003120">
        <ele>547.7</ele>
        <time>2018-09-14T19:10:42Z</time>
      </trkpt>
      <trkpt lat="-24.8188350" lon="-53.7003100">
        <ele>547.5</ele>
        <time>2018-09-14T19:10:43Z</time>
      </trkpt>
      <trkpt lat="-24.8187560" lon="-53.7003090">
        <ele>547.2</ele>
        <time>2018-09-14T19:10:44Z</time>
      </trkpt>
      <trkpt lat="-24.8186790" lon="-53.7003110">
        <ele>546.8</ele>
        <time>2018-09-14T19:10:45Z</time>
      </trkpt>
      <trkpt lat="-24.8186030" lon="-53.7003130">
        <ele>546.4</ele>
        <time>2018-09-14T19:10:46Z</time>
      </trkpt>
      <trkpt lat="-24.8185230" lon="-53.7003180">
        <ele>545.9</ele>
        <time>2018-09-14T19:10:47Z</time>
      </trkpt>
      <trkpt lat="-24.8184410" lon="-53.7003210">
        <ele>545.8</ele>
        <time>2018-09-14T19:10:48Z</time>
      </trkpt>
      <trkpt lat="-24.8183610" lon="-53.7003230">
        <ele>545.6</ele>
        <time>2018-09-14T19:10:49Z</time>
      </trkpt>
      <trkpt lat="-24.8182800" lon="-53.7003240">
        <ele>545.5</ele>
        <time>2018-09-14T19:10:50Z</time>
      </trkpt>
      <trkpt lat="-24.8181970" lon="-53.7003230">
        <ele>545.4</ele>
        <time>2018-09-14T19:10:51Z</time>
      </trkpt>
      <trkpt lat="-24.8181150" lon="-53.7003220">
        <ele>545.3</ele>
        <time>2018-09-14T19:10:52Z</time>
      </trkpt>
      <trkpt lat="-24.8180330" lon="-53.7003200">
        <ele>545.1</ele>
        <time>2018-09-14T19:10:53Z</time>
      </trkpt>
      <trkpt lat="-24.8179520" lon="-53.7003180">
        <ele>545.0</ele>
        <time>2018-09-14T19:10:54Z</time>
      </trkpt>
      <trkpt lat="-24.8178720" lon="-53.7003170">
        <ele>544.7</ele>
        <time>2018-09-14T19:10:55Z</time>
      </trkpt>
      <trkpt lat="-24.8177950" lon="-53.7003160">
        <ele>544.3</ele>
        <time>2018-09-14T19:10:56Z</time>
      </trkpt>
      <trkpt lat="-24.8177180" lon="-53.7003160">
        <ele>543.9</ele>
        <time>2018-09-14T19:10:57Z</time>
      </trkpt>
      <trkpt lat="-24.8176440" lon="-53.7003180">
        <ele>543.6</ele>
        <time>2018-09-14T19:10:58Z</time>
      </trkpt>
      <trkpt lat="-24.8176440" lon="-53.7003180">
        <ele>543.6</ele>
        <time>2018-09-14T19:10:59Z</time>
      </trkpt>
      <trkpt lat="-24.8175730" lon="-53.7003200">
        <ele>543.5</ele>
        <time>2018-09-14T19:11:00Z</time>
      </trkpt>
      <trkpt lat="-24.8175050" lon="-53.7003210">
        <ele>543.5</ele>
        <time>2018-09-14T19:11:01Z</time>
      </trkpt>
      <trkpt lat="-24.8174350" lon="-53.7003220">
        <ele>543.4</ele>
        <time>2018-09-14T19:11:02Z</time>
      </trkpt>
      <trkpt lat="-24.8173620" lon="-53.7003220">
        <ele>543.3</ele>
        <time>2018-09-14T19:11:03Z</time>
      </trkpt>
      <trkpt lat="-24.8172890" lon="-53.7003170">
        <ele>543.2</ele>
        <time>2018-09-14T19:11:04Z</time>
      </trkpt>
      <trkpt lat="-24.8172160" lon="-53.7003140">
        <ele>543.2</ele>
        <time>2018-09-14T19:11:05Z</time>
      </trkpt>
      <trkpt lat="-24.8171440" lon="-53.7003140">
        <ele>543.1</ele>
        <time>2018-09-14T19:11:06Z</time>
      </trkpt>
      <trkpt lat="-24.8170730" lon="-53.7003140">
        <ele>543.0</ele>
        <time>2018-09-14T19:11:07Z</time>
      </trkpt>
      <trkpt lat="-24.8170030" lon="-53.7003140">
        <ele>542.9</ele>
        <time>2018-09-14T19:11:08Z</time>
      </trkpt>
      <trkpt lat="-24.8169340" lon="-53.7003130">
        <ele>542.9</ele>
        <time>2018-09-14T19:11:09Z</time>
      </trkpt>
      <trkpt lat="-24.8168660" lon="-53.7003120">
        <ele>542.8</ele>
        <time>2018-09-14T19:11:10Z</time>
      </trkpt>
      <trkpt lat="-24.8167990" lon="-53.7003110">
        <ele>542.7</ele>
        <time>2018-09-14T19:11:11Z</time>
      </trkpt>
      <trkpt lat="-24.8167340" lon="-53.7003120">
        <ele>542.7</ele>
        <time>2018-09-14T19:11:12Z</time>
      </trkpt>
      <trkpt lat="-24.8166690" lon="-53.7003120">
        <ele>542.6</ele>
        <time>2018-09-14T19:11:13Z</time>
      </trkpt>
      <trkpt lat="-24.8166040" lon="-53.7003100">
        <ele>542.5</ele>
        <time>2018-09-14T19:11:14Z</time>
      </trkpt>
      <trkpt lat="-24.8165420" lon="-53.7003110">
        <ele>542.4</ele>
        <time>2018-09-14T19:11:15Z</time>
      </trkpt>
      <trkpt lat="-24.8164810" lon="-53.7003120">
        <ele>542.3</ele>
        <time>2018-09-14T19:11:16Z</time>
      </trkpt>
      <trkpt lat="-24.8164200" lon="-53.7003140">
        <ele>542.1</ele>
        <time>2018-09-14T19:11:17Z</time>
      </trkpt>
      <trkpt lat="-24.8163570" lon="-53.7003140">
        <ele>541.8</ele>
        <time>2018-09-14T19:11:18Z</time>
      </trkpt>
      <trkpt lat="-24.8162930" lon="-53.7003130">
        <ele>541.5</ele>
        <time>2018-09-14T19:11:19Z</time>
      </trkpt>
      <trkpt lat="-24.8162280" lon="-53.7003120">
        <ele>541.2</ele>
        <time>2018-09-14T19:11:20Z</time>
      </trkpt>
      <trkpt lat="-24.8161630" lon="-53.7003110">
        <ele>541.1</ele>
        <time>2018-09-14T19:11:21Z</time>
      </trkpt>
      <trkpt lat="-24.8160980" lon="-53.7003110">
        <ele>540.9</ele>
        <time>2018-09-14T19:11:22Z</time>
      </trkpt>
      <trkpt lat="-24.8160330" lon="-53.7003110">
        <ele>540.8</ele>
        <time>2018-09-14T19:11:23Z</time>
      </trkpt>
      <trkpt lat="-24.8159680" lon="-53.7003100">
        <ele>540.8</ele>
        <time>2018-09-14T19:11:24Z</time>
      </trkpt>
      <trkpt lat="-24.8159040" lon="-53.7003080">
        <ele>540.7</ele>
        <time>2018-09-14T19:11:25Z</time>
      </trkpt>
      <trkpt lat="-24.8158390" lon="-53.7003070">
        <ele>540.6</ele>
        <time>2018-09-14T19:11:26Z</time>
      </trkpt>
      <trkpt lat="-24.8157750" lon="-53.7003080">
        <ele>540.6</ele>
        <time>2018-09-14T19:11:27Z</time>
      </trkpt>
      <trkpt lat="-24.8157120" lon="-53.7003060">
        <ele>540.6</ele>
        <time>2018-09-14T19:11:28Z</time>
      </trkpt>
      <trkpt lat="-24.8156510" lon="-53.7003050">
        <ele>540.6</ele>
        <time>2018-09-14T19:11:29Z</time>
      </trkpt>
      <trkpt lat="-24.8155910" lon="-53.7003060">
        <ele>540.5</ele>
        <time>2018-09-14T19:11:30Z</time>
      </trkpt>
      <trkpt lat="-24.8155300" lon="-53.7003060">
        <ele>540.5</ele>
        <time>2018-09-14T19:11:31Z</time>
      </trkpt>
      <trkpt lat="-24.8154700" lon="-53.7003070">
        <ele>540.5</ele>
        <time>2018-09-14T19:11:32Z</time>
      </trkpt>
      <trkpt lat="-24.8154080" lon="-53.7003070">
        <ele>540.5</ele>
        <time>2018-09-14T19:11:33Z</time>
      </trkpt>
      <trkpt lat="-24.8153460" lon="-53.7003070">
        <ele>540.4</ele>
        <time>2018-09-14T19:11:34Z</time>
      </trkpt>
      <trkpt lat="-24.8152850" lon="-53.7003060">
        <ele>540.4</ele>
        <time>2018-09-14T19:11:35Z</time>
      </trkpt>
      <trkpt lat="-24.8152230" lon="-53.7003060">
        <ele>540.4</ele>
        <time>2018-09-14T19:11:36Z</time>
      </trkpt>
      <trkpt lat="-24.8151620" lon="-53.7003050">
        <ele>540.4</ele>
        <time>2018-09-14T19:11:37Z</time>
      </trkpt>
      <trkpt lat="-24.8151020" lon="-53.7003040">
        <ele>540.4</ele>
        <time>2018-09-14T19:11:38Z</time>
      </trkpt>
      <trkpt lat="-24.8150410" lon="-53.7003040">
        <ele>540.4</ele>
        <time>2018-09-14T19:11:39Z</time>
      </trkpt>
      <trkpt lat="-24.8149810" lon="-53.7003050">
        <ele>540.4</ele>
        <time>2018-09-14T19:11:40Z</time>
      </trkpt>
      <trkpt lat="-24.8149210" lon="-53.7003040">
        <ele>540.4</ele>
        <time>2018-09-14T19:11:41Z</time>
      </trkpt>
      <trkpt lat="-24.8148610" lon="-53.7003040">
        <ele>540.4</ele>
        <time>2018-09-14T19:11:42Z</time>
      </trkpt>
      <trkpt lat="-24.8148020" lon="-53.7003040">
        <ele>540.4</ele>
        <time>2018-09-14T19:11:43Z</time>
      </trkpt>
      <trkpt lat="-24.8147430" lon="-53.7003040">
        <ele>540.4</ele>
        <time>2018-09-14T19:11:44Z</time>
      </trkpt>
      <trkpt lat="-24.8146850" lon="-53.7003040">
        <ele>540.4</ele>
        <time>2018-09-14T19:11:45Z</time>
      </trkpt>
      <trkpt lat="-24.8146270" lon="-53.7003040">
        <ele>540.4</ele>
        <time>2018-09-14T19:11:46Z</time>
      </trkpt>
      <trkpt lat="-24.8145710" lon="-53.7003040">
        <ele>540.3</ele>
        <time>2018-09-14T19:11:47Z</time>
      </trkpt>
      <trkpt lat="-24.8145130" lon="-53.7003050">
        <ele>540.3</ele>
        <time>2018-09-14T19:11:48Z</time>
      </trkpt>
      <trkpt lat="-24.8144560" lon="-53.7003050">
        <ele>540.3</ele>
        <time>2018-09-14T19:11:49Z</time>
      </trkpt>
      <trkpt lat="-24.8143990" lon="-53.7003060">
        <ele>540.3</ele>
        <time>2018-09-14T19:11:50Z</time>
      </trkpt>
      <trkpt lat="-24.8143430" lon="-53.7003060">
        <ele>540.3</ele>
        <time>2018-09-14T19:11:51Z</time>
      </trkpt>
      <trkpt lat="-24.8142860" lon="-53.7003050">
        <ele>540.3</ele>
        <time>2018-09-14T19:11:52Z</time>
      </trkpt>
      <trkpt lat="-24.8142290" lon="-53.7003050">
        <ele>540.2</ele>
        <time>2018-09-14T19:11:53Z</time>
      </trkpt>
      <trkpt lat="-24.8141710" lon="-53.7003060">
        <ele>540.1</ele>
        <time>2018-09-14T19:11:54Z</time>
      </trkpt>
      <trkpt lat="-24.8141140" lon="-53.7003050">
        <ele>539.9</ele>
        <time>2018-09-14T19:11:55Z</time>
      </trkpt>
      <trkpt lat="-24.8140570" lon="-53.7003050">
        <ele>539.8</ele>
        <time>2018-09-14T19:11:56Z</time>
      </trkpt>
      <trkpt lat="-24.8140000" lon="-53.7003040">
        <ele>539.5</ele>
        <time>2018-09-14T19:11:57Z</time>
      </trkpt>
      <trkpt lat="-24.8139440" lon="-53.7003040">
        <ele>539.0</ele>
        <time>2018-09-14T19:11:58Z</time>
      </trkpt>
      <trkpt lat="-24.8138880" lon="-53.7003050">
        <ele>538.5</ele>
        <time>2018-09-14T19:11:59Z</time>
      </trkpt>
      <trkpt lat="-24.8138340" lon="-53.7003070">
        <ele>538.3</ele>
        <time>2018-09-14T19:12:00Z</time>
      </trkpt>
      <trkpt lat="-24.8137820" lon="-53.7003080">
        <ele>538.1</ele>
        <time>2018-09-14T19:12:01Z</time>
      </trkpt>
      <trkpt lat="-24.8137320" lon="-53.7003080">
        <ele>538.0</ele>
        <time>2018-09-14T19:12:02Z</time>
      </trkpt>
      <trkpt lat="-24.8136770" lon="-53.7003100">
        <ele>537.9</ele>
        <time>2018-09-14T19:12:03Z</time>
      </trkpt>
      <trkpt lat="-24.8136170" lon="-53.7003100">
        <ele>537.7</ele>
        <time>2018-09-14T19:12:04Z</time>
      </trkpt>
      <trkpt lat="-24.8135540" lon="-53.7003100">
        <ele>537.4</ele>
        <time>2018-09-14T19:12:05Z</time>
      </trkpt>
      <trkpt lat="-24.8134910" lon="-53.7003100">
        <ele>537.0</ele>
        <time>2018-09-14T19:12:06Z</time>
      </trkpt>
      <trkpt lat="-24.8134270" lon="-53.7003110">
        <ele>536.6</ele>
        <time>2018-09-14T19:12:07Z</time>
      </trkpt>
      <trkpt lat="-24.8133620" lon="-53.7003100">
        <ele>536.5</ele>
        <time>2018-09-14T19:12:08Z</time>
      </trkpt>
      <trkpt lat="-24.8132970" lon="-53.7003080">
        <ele>536.3</ele>
        <time>2018-09-14T19:12:09Z</time>
      </trkpt>
      <trkpt lat="-24.8132300" lon="-53.7003060">
        <ele>536.3</ele>
        <time>2018-09-14T19:12:10Z</time>
      </trkpt>
      <trkpt lat="-24.8131620" lon="-53.7003030">
        <ele>536.3</ele>
        <time>2018-09-14T19:12:11Z</time>
      </trkpt>
      <trkpt lat="-24.8130940" lon="-53.7002990">
        <ele>536.4</ele>
        <time>2018-09-14T19:12:12Z</time>
      </trkpt>
      <trkpt lat="-24.8130250" lon="-53.7002960">
        <ele>536.4</ele>
        <time>2018-09-14T19:12:13Z</time>
      </trkpt>
      <trkpt lat="-24.8129550" lon="-53.7002930">
        <ele>536.6</ele>
        <time>2018-09-14T19:12:14Z</time>
      </trkpt>
      <trkpt lat="-24.8128860" lon="-53.7002910">
        <ele>536.9</ele>
        <time>2018-09-14T19:12:15Z</time>
      </trkpt>
      <trkpt lat="-24.8128190" lon="-53.7002900">
        <ele>537.2</ele>
        <time>2018-09-14T19:12:16Z</time>
      </trkpt>
      <trkpt lat="-24.8127520" lon="-53.7002930">
        <ele>537.7</ele>
        <time>2018-09-14T19:12:17Z</time>
      </trkpt>
      <trkpt lat="-24.8126870" lon="-53.7003030">
        <ele>538.3</ele>
        <time>2018-09-14T19:12:18Z</time>
      </trkpt>
      <trkpt lat="-24.8126270" lon="-53.7003260">
        <ele>539.0</ele>
        <time>2018-09-14T19:12:19Z</time>
      </trkpt>
      <trkpt lat="-24.8125750" lon="-53.7003600">
        <ele>539.6</ele>
        <time>2018-09-14T19:12:20Z</time>
      </trkpt>
      <trkpt lat="-24.8125340" lon="-53.7004060">
        <ele>540.2</ele>
        <time>2018-09-14T19:12:21Z</time>
      </trkpt>
      <trkpt lat="-24.8125050" lon="-53.7004610">
        <ele>540.8</ele>
        <time>2018-09-14T19:12:22Z</time>
      </trkpt>
      <trkpt lat="-24.8124850" lon="-53.7005190">
        <ele>541.4</ele>
        <time>2018-09-14T19:12:23Z</time>
      </trkpt>
      <trkpt lat="-24.8124730" lon="-53.7005760">
        <ele>541.9</ele>
        <time>2018-09-14T19:12:24Z</time>
      </trkpt>
      <trkpt lat="-24.8124700" lon="-53.7006300">
        <ele>542.4</ele>
        <time>2018-09-14T19:12:25Z</time>
      </trkpt>
      <trkpt lat="-24.8124700" lon="-53.7006800">
        <ele>542.8</ele>
        <time>2018-09-14T19:12:26Z</time>
      </trkpt>
      <trkpt lat="-24.8124700" lon="-53.7007240">
        <ele>543.2</ele>
        <time>2018-09-14T19:12:27Z</time>
      </trkpt>
      <trkpt lat="-24.8124720" lon="-53.7007640">
        <ele>543.6</ele>
        <time>2018-09-14T19:12:28Z</time>
      </trkpt>
      <trkpt lat="-24.8124750" lon="-53.7008010">
        <ele>543.9</ele>
        <time>2018-09-14T19:12:29Z</time>
      </trkpt>
      <trkpt lat="-24.8124780" lon="-53.7008370">
        <ele>544.2</ele>
        <time>2018-09-14T19:12:30Z</time>
      </trkpt>
      <trkpt lat="-24.8124800" lon="-53.7008680">
        <ele>544.5</ele>
        <time>2018-09-14T19:12:31Z</time>
      </trkpt>
      <trkpt lat="-24.8124820" lon="-53.7008970">
        <ele>544.7</ele>
        <time>2018-09-14T19:12:32Z</time>
      </trkpt>
      <trkpt lat="-24.8124840" lon="-53.7009250">
        <ele>544.9</ele>
        <time>2018-09-14T19:12:33Z</time>
      </trkpt>
      <trkpt lat="-24.8124850" lon="-53.7009520">
        <ele>545.1</ele>
        <time>2018-09-14T19:12:34Z</time>
      </trkpt>
      <trkpt lat="-24.8124860" lon="-53.7009790">
        <ele>545.4</ele>
        <time>2018-09-14T19:12:35Z</time>
      </trkpt>
      <trkpt lat="-24.8124880" lon="-53.7010050">
        <ele>545.6</ele>
        <time>2018-09-14T19:12:36Z</time>
      </trkpt>
      <trkpt lat="-24.8124880" lon="-53.7010330">
        <ele>545.8</ele>
        <time>2018-09-14T19:12:37Z</time>
      </trkpt>
      <trkpt lat="-24.8124890" lon="-53.7010600">
        <ele>546.0</ele>
        <time>2018-09-14T19:12:38Z</time>
      </trkpt>
      <trkpt lat="-24.8124900" lon="-53.7010880">
        <ele>546.2</ele>
        <time>2018-09-14T19:12:39Z</time>
      </trkpt>
      <trkpt lat="-24.8124910" lon="-53.7011150">
        <ele>546.4</ele>
        <time>2018-09-14T19:12:40Z</time>
      </trkpt>
      <trkpt lat="-24.8124890" lon="-53.7011420">
        <ele>546.6</ele>
        <time>2018-09-14T19:12:41Z</time>
      </trkpt>
      <trkpt lat="-24.8124900" lon="-53.7011680">
        <ele>546.8</ele>
        <time>2018-09-14T19:12:42Z</time>
      </trkpt>
      <trkpt lat="-24.8124920" lon="-53.7011940">
        <ele>547.0</ele>
        <time>2018-09-14T19:12:43Z</time>
      </trkpt>
      <trkpt lat="-24.8124930" lon="-53.7012180">
        <ele>547.2</ele>
        <time>2018-09-14T19:12:44Z</time>
      </trkpt>
      <trkpt lat="-24.8124920" lon="-53.7012410">
        <ele>547.4</ele>
        <time>2018-09-14T19:12:45Z</time>
      </trkpt>
      <trkpt lat="-24.8124930" lon="-53.7012660">
        <ele>547.6</ele>
        <time>2018-09-14T19:12:46Z</time>
      </trkpt>
      <trkpt lat="-24.8124930" lon="-53.7013120">
        <ele>547.9</ele>
        <time>2018-09-14T19:12:47Z</time>
      </trkpt>
      <trkpt lat="-24.8124930" lon="-53.7013350">
        <ele>548.0</ele>
        <time>2018-09-14T19:12:48Z</time>
      </trkpt>
      <trkpt lat="-24.8124920" lon="-53.7013570">
        <ele>548.2</ele>
        <time>2018-09-14T19:12:49Z</time>
      </trkpt>
      <trkpt lat="-24.8124900" lon="-53.7013800">
        <ele>548.4</ele>
        <time>2018-09-14T19:12:50Z</time>
      </trkpt>
      <trkpt lat="-24.8124900" lon="-53.7014030">
        <ele>548.5</ele>
        <time>2018-09-14T19:12:51Z</time>
      </trkpt>
      <trkpt lat="-24.8124910" lon="-53.7014270">
        <ele>548.7</ele>
        <time>2018-09-14T19:12:52Z</time>
      </trkpt>
      <trkpt lat="-24.8124910" lon="-53.7014510">
        <ele>548.8</ele>
        <time>2018-09-14T19:12:53Z</time>
      </trkpt>
      <trkpt lat="-24.8124910" lon="-53.7014740">
        <ele>549.0</ele>
        <time>2018-09-14T19:12:54Z</time>
      </trkpt>
      <trkpt lat="-24.8124900" lon="-53.7014970">
        <ele>549.1</ele>
        <time>2018-09-14T19:12:55Z</time>
      </trkpt>
      <trkpt lat="-24.8124890" lon="-53.7015190">
        <ele>549.3</ele>
        <time>2018-09-14T19:12:56Z</time>
      </trkpt>
      <trkpt lat="-24.8124890" lon="-53.7015420">
        <ele>549.4</ele>
        <time>2018-09-14T19:12:57Z</time>
      </trkpt>
      <trkpt lat="-24.8124890" lon="-53.7015610">
        <ele>549.6</ele>
        <time>2018-09-14T19:12:58Z</time>
      </trkpt>
      <trkpt lat="-24.8124880" lon="-53.7015790">
        <ele>549.7</ele>
        <time>2018-09-14T19:12:59Z</time>
      </trkpt>
      <trkpt lat="-24.8124890" lon="-53.7015950">
        <ele>549.8</ele>
        <time>2018-09-14T19:13:00Z</time>
      </trkpt>
      <trkpt lat="-24.8124890" lon="-53.7016120">
        <ele>549.9</ele>
        <time>2018-09-14T19:13:01Z</time>
      </trkpt>
      <trkpt lat="-24.8124920" lon="-53.7016310">
        <ele>550.0</ele>
        <time>2018-09-14T19:13:02Z</time>
      </trkpt>
      <trkpt lat="-24.8125020" lon="-53.7016690">
        <ele>550.3</ele>
        <time>2018-09-14T19:13:04Z</time>
      </trkpt>
      <trkpt lat="-24.8125030" lon="-53.7016890">
        <ele>550.4</ele>
        <time>2018-09-14T19:13:05Z</time>
      </trkpt>
      <trkpt lat="-24.8125040" lon="-53.7017080">
        <ele>550.5</ele>
        <time>2018-09-14T19:13:06Z</time>
      </trkpt>
      <trkpt lat="-24.8125040" lon="-53.7017280">
        <ele>550.6</ele>
        <time>2018-09-14T19:13:07Z</time>
      </trkpt>
      <trkpt lat="-24.8125030" lon="-53.7017470">
        <ele>550.8</ele>
        <time>2018-09-14T19:13:08Z</time>
      </trkpt>
      <trkpt lat="-24.8125040" lon="-53.7017650">
        <ele>550.9</ele>
        <time>2018-09-14T19:13:09Z</time>
      </trkpt>
      <trkpt lat="-24.8125060" lon="-53.7017830">
        <ele>551.0</ele>
        <time>2018-09-14T19:13:10Z</time>
      </trkpt>
      <trkpt lat="-24.8125050" lon="-53.7018010">
        <ele>551.1</ele>
        <time>2018-09-14T19:13:11Z</time>
      </trkpt>
      <trkpt lat="-24.8125030" lon="-53.7018180">
        <ele>551.2</ele>
        <time>2018-09-14T19:13:12Z</time>
      </trkpt>
      <trkpt lat="-24.8125020" lon="-53.7018340">
        <ele>551.3</ele>
        <time>2018-09-14T19:13:13Z</time>
      </trkpt>
      <trkpt lat="-24.8125040" lon="-53.7018490">
        <ele>551.4</ele>
        <time>2018-09-14T19:13:14Z</time>
      </trkpt>
      <trkpt lat="-24.8125030" lon="-53.7018640">
        <ele>551.5</ele>
        <time>2018-09-14T19:13:15Z</time>
      </trkpt>
      <trkpt lat="-24.8125020" lon="-53.7018780">
        <ele>551.5</ele>
        <time>2018-09-14T19:13:16Z</time>
      </trkpt>
      <trkpt lat="-24.8125010" lon="-53.7018910">
        <ele>551.6</ele>
        <time>2018-09-14T19:13:17Z</time>
      </trkpt>
      <trkpt lat="-24.8125020" lon="-53.7019050">
        <ele>551.7</ele>
        <time>2018-09-14T19:13:18Z</time>
      </trkpt>
      <trkpt lat="-24.8125040" lon="-53.7019200">
        <ele>551.8</ele>
        <time>2018-09-14T19:13:19Z</time>
      </trkpt>
      <trkpt lat="-24.8125060" lon="-53.7019350">
        <ele>551.8</ele>
        <time>2018-09-14T19:13:20Z</time>
      </trkpt>
      <trkpt lat="-24.8125050" lon="-53.7019500">
        <ele>551.9</ele>
        <time>2018-09-14T19:13:21Z</time>
      </trkpt>
      <trkpt lat="-24.8125040" lon="-53.7019660">
        <ele>552.0</ele>
        <time>2018-09-14T19:13:22Z</time>
      </trkpt>
      <trkpt lat="-24.8125030" lon="-53.7019840">
        <ele>552.1</ele>
        <time>2018-09-14T19:13:23Z</time>
      </trkpt>
      <trkpt lat="-24.8125020" lon="-53.7020000">
        <ele>552.2</ele>
        <time>2018-09-14T19:13:24Z</time>
      </trkpt>
      <trkpt lat="-24.8125020" lon="-53.7020160">
        <ele>552.2</ele>
        <time>2018-09-14T19:13:25Z</time>
      </trkpt>
      <trkpt lat="-24.8125020" lon="-53.7020320">
        <ele>552.3</ele>
        <time>2018-09-14T19:13:26Z</time>
      </trkpt>
      <trkpt lat="-24.8125020" lon="-53.7020480">
        <ele>552.4</ele>
        <time>2018-09-14T19:13:27Z</time>
      </trkpt>
      <trkpt lat="-24.8125050" lon="-53.7020630">
        <ele>552.4</ele>
        <time>2018-09-14T19:13:28Z</time>
      </trkpt>
      <trkpt lat="-24.8125050" lon="-53.7020800">
        <ele>552.5</ele>
        <time>2018-09-14T19:13:29Z</time>
      </trkpt>
      <trkpt lat="-24.8125060" lon="-53.7020990">
        <ele>552.6</ele>
        <time>2018-09-14T19:13:30Z</time>
      </trkpt>
      <trkpt lat="-24.8125050" lon="-53.7021170">
        <ele>552.6</ele>
        <time>2018-09-14T19:13:31Z</time>
      </trkpt>
      <trkpt lat="-24.8125050" lon="-53.7021340">
        <ele>552.7</ele>
        <time>2018-09-14T19:13:32Z</time>
      </trkpt>
      <trkpt lat="-24.8125050" lon="-53.7021500">
        <ele>552.8</ele>
        <time>2018-09-14T19:13:33Z</time>
      </trkpt>
      <trkpt lat="-24.8125060" lon="-53.7021650">
        <ele>552.8</ele>
        <time>2018-09-14T19:13:34Z</time>
      </trkpt>
      <trkpt lat="-24.8125060" lon="-53.7021810">
        <ele>552.8</ele>
        <time>2018-09-14T19:13:35Z</time>
      </trkpt>
      <trkpt lat="-24.8125060" lon="-53.7021960">
        <ele>552.8</ele>
        <time>2018-09-14T19:13:36Z</time>
      </trkpt>
      <trkpt lat="-24.8125060" lon="-53.7022130">
        <ele>552.9</ele>
        <time>2018-09-14T19:13:37Z</time>
      </trkpt>
      <trkpt lat="-24.8125070" lon="-53.7022300">
        <ele>552.9</ele>
        <time>2018-09-14T19:13:38Z</time>
      </trkpt>
      <trkpt lat="-24.8125070" lon="-53.7022470">
        <ele>552.9</ele>
        <time>2018-09-14T19:13:39Z</time>
      </trkpt>
      <trkpt lat="-24.8125070" lon="-53.7022650">
        <ele>552.9</ele>
        <time>2018-09-14T19:13:40Z</time>
      </trkpt>
      <trkpt lat="-24.8125070" lon="-53.7022840">
        <ele>553.0</ele>
        <time>2018-09-14T19:13:41Z</time>
      </trkpt>
      <trkpt lat="-24.8125070" lon="-53.7023030">
        <ele>553.0</ele>
        <time>2018-09-14T19:13:42Z</time>
      </trkpt>
      <trkpt lat="-24.8125080" lon="-53.7023220">
        <ele>553.0</ele>
        <time>2018-09-14T19:13:43Z</time>
      </trkpt>
      <trkpt lat="-24.8125080" lon="-53.7023400">
        <ele>553.1</ele>
        <time>2018-09-14T19:13:44Z</time>
      </trkpt>
      <trkpt lat="-24.8125080" lon="-53.7023570">
        <ele>553.1</ele>
        <time>2018-09-14T19:13:45Z</time>
      </trkpt>
      <trkpt lat="-24.8125080" lon="-53.7023760">
        <ele>553.1</ele>
        <time>2018-09-14T19:13:46Z</time>
      </trkpt>
      <trkpt lat="-24.8125090" lon="-53.7023930">
        <ele>553.1</ele>
        <time>2018-09-14T19:13:47Z</time>
      </trkpt>
      <trkpt lat="-24.8125110" lon="-53.7024110">
        <ele>553.1</ele>
        <time>2018-09-14T19:13:48Z</time>
      </trkpt>
      <trkpt lat="-24.8125110" lon="-53.7024280">
        <ele>553.1</ele>
        <time>2018-09-14T19:13:49Z</time>
      </trkpt>
      <trkpt lat="-24.8125100" lon="-53.7024460">
        <ele>553.1</ele>
        <time>2018-09-14T19:13:50Z</time>
      </trkpt>
      <trkpt lat="-24.8125090" lon="-53.7024650">
        <ele>553.1</ele>
        <time>2018-09-14T19:13:51Z</time>
      </trkpt>
      <trkpt lat="-24.8125090" lon="-53.7024830">
        <ele>553.1</ele>
        <time>2018-09-14T19:13:52Z</time>
      </trkpt>
      <trkpt lat="-24.8125120" lon="-53.7025010">
        <ele>553.1</ele>
        <time>2018-09-14T19:13:53Z</time>
      </trkpt>
      <trkpt lat="-24.8125130" lon="-53.7025200">
        <ele>553.1</ele>
        <time>2018-09-14T19:13:54Z</time>
      </trkpt>
      <trkpt lat="-24.8125120" lon="-53.7025380">
        <ele>553.1</ele>
        <time>2018-09-14T19:13:55Z</time>
      </trkpt>
      <trkpt lat="-24.8125120" lon="-53.7025550">
        <ele>553.1</ele>
        <time>2018-09-14T19:13:56Z</time>
      </trkpt>
      <trkpt lat="-24.8125130" lon="-53.7025720">
        <ele>553.1</ele>
        <time>2018-09-14T19:13:57Z</time>
      </trkpt>
      <trkpt lat="-24.8125140" lon="-53.7025900">
        <ele>553.1</ele>
        <time>2018-09-14T19:13:58Z</time>
      </trkpt>
      <trkpt lat="-24.8125130" lon="-53.7026090">
        <ele>553.1</ele>
        <time>2018-09-14T19:13:59Z</time>
      </trkpt>
      <trkpt lat="-24.8125120" lon="-53.7026290">
        <ele>553.2</ele>
        <time>2018-09-14T19:14:00Z</time>
      </trkpt>
      <trkpt lat="-24.8125120" lon="-53.7026490">
        <ele>553.2</ele>
        <time>2018-09-14T19:14:01Z</time>
      </trkpt>
      <trkpt lat="-24.8125110" lon="-53.7026680">
        <ele>553.2</ele>
        <time>2018-09-14T19:14:02Z</time>
      </trkpt>
      <trkpt lat="-24.8125120" lon="-53.7026890">
        <ele>553.2</ele>
        <time>2018-09-14T19:14:03Z</time>
      </trkpt>
      <trkpt lat="-24.8125120" lon="-53.7027110">
        <ele>553.2</ele>
        <time>2018-09-14T19:14:04Z</time>
      </trkpt>
      <trkpt lat="-24.8125110" lon="-53.7027350">
        <ele>553.2</ele>
        <time>2018-09-14T19:14:05Z</time>
      </trkpt>
      <trkpt lat="-24.8125100" lon="-53.7027590">
        <ele>553.2</ele>
        <time>2018-09-14T19:14:06Z</time>
      </trkpt>
      <trkpt lat="-24.8125100" lon="-53.7027840">
        <ele>553.2</ele>
        <time>2018-09-14T19:14:07Z</time>
      </trkpt>
      <trkpt lat="-24.8125100" lon="-53.7028070">
        <ele>553.2</ele>
        <time>2018-09-14T19:14:08Z</time>
      </trkpt>
      <trkpt lat="-24.8125090" lon="-53.7028300">
        <ele>553.2</ele>
        <time>2018-09-14T19:14:09Z</time>
      </trkpt>
      <trkpt lat="-24.8125080" lon="-53.7028540">
        <ele>553.2</ele>
        <time>2018-09-14T19:14:10Z</time>
      </trkpt>
      <trkpt lat="-24.8125080" lon="-53.7028760">
        <ele>553.2</ele>
        <time>2018-09-14T19:14:11Z</time>
      </trkpt>
      <trkpt lat="-24.8125080" lon="-53.7028980">
        <ele>553.1</ele>
        <time>2018-09-14T19:14:12Z</time>
      </trkpt>
      <trkpt lat="-24.8125070" lon="-53.7029200">
        <ele>553.1</ele>
        <time>2018-09-14T19:14:13Z</time>
      </trkpt>
      <trkpt lat="-24.8125060" lon="-53.7029410">
        <ele>553.1</ele>
        <time>2018-09-14T19:14:14Z</time>
      </trkpt>
      <trkpt lat="-24.8125050" lon="-53.7029620">
        <ele>553.1</ele>
        <time>2018-09-14T19:14:15Z</time>
      </trkpt>
      <trkpt lat="-24.8125050" lon="-53.7029830">
        <ele>553.1</ele>
        <time>2018-09-14T19:14:16Z</time>
      </trkpt>
      <trkpt lat="-24.8125040" lon="-53.7030030">
        <ele>553.1</ele>
        <time>2018-09-14T19:14:17Z</time>
      </trkpt>
      <trkpt lat="-24.8125030" lon="-53.7030210">
        <ele>553.1</ele>
        <time>2018-09-14T19:14:18Z</time>
      </trkpt>
      <trkpt lat="-24.8125020" lon="-53.7030350">
        <ele>553.1</ele>
        <time>2018-09-14T19:14:19Z</time>
      </trkpt>
      <trkpt lat="-24.8125020" lon="-53.7030460">
        <ele>553.1</ele>
        <time>2018-09-14T19:14:20Z</time>
      </trkpt>
      <trkpt lat="-24.8125010" lon="-53.7030520">
        <ele>553.1</ele>
        <time>2018-09-14T19:14:21Z</time>
      </trkpt>
      <trkpt lat="-24.8124990" lon="-53.7030590">
        <ele>553.1</ele>
        <time>2018-09-14T19:14:22Z</time>
      </trkpt>
      <trkpt lat="-24.8124970" lon="-53.7030670">
        <ele>553.1</ele>
        <time>2018-09-14T19:14:23Z</time>
      </trkpt>
      <trkpt lat="-24.8124950" lon="-53.7030750">
        <ele>553.1</ele>
        <time>2018-09-14T19:14:24Z</time>
      </trkpt>
      <trkpt lat="-24.8124910" lon="-53.7030790">
        <ele>553.1</ele>
        <time>2018-09-14T19:14:25Z</time>
      </trkpt>
      <trkpt lat="-24.8124890" lon="-53.7030810">
        <ele>553.1</ele>
        <time>2018-09-14T19:14:26Z</time>
      </trkpt>
      <trkpt lat="-24.8124880" lon="-53.7030820">
        <ele>553.0</ele>
        <time>2018-09-14T19:14:27Z</time>
      </trkpt>
      <trkpt lat="-24.8124810" lon="-53.7030740">
        <ele>553.0</ele>
        <time>2018-09-14T19:16:27Z</time>
      </trkpt>
      <trkpt lat="-24.8124800" lon="-53.7030750">
        <ele>553.0</ele>
        <time>2018-09-14T19:16:28Z</time>
      </trkpt>
      <trkpt lat="-24.8124790" lon="-53.7030760">
        <ele>553.0</ele>
        <time>2018-09-14T19:16:29Z</time>
      </trkpt>
      <trkpt lat="-24.8124820" lon="-53.7030810">
        <ele>553.0</ele>
        <time>2018-09-14T19:17:04Z</time>
      </trkpt>
      <trkpt lat="-24.8124830" lon="-53.7030850">
        <ele>553.0</ele>
        <time>2018-09-14T19:17:05Z</time>
      </trkpt>
      <trkpt lat="-24.8124830" lon="-53.7030930">
        <ele>553.0</ele>
        <time>2018-09-14T19:17:06Z</time>
      </trkpt>
      <trkpt lat="-24.8124820" lon="-53.7031060">
        <ele>553.0</ele>
        <time>2018-09-14T19:17:07Z</time>
      </trkpt>
      <trkpt lat="-24.8124820" lon="-53.7031190">
        <ele>553.0</ele>
        <time>2018-09-14T19:17:08Z</time>
      </trkpt>
      <trkpt lat="-24.8124830" lon="-53.7031370">
        <ele>553.0</ele>
        <time>2018-09-14T19:17:09Z</time>
      </trkpt>
      <trkpt lat="-24.8124830" lon="-53.7031610">
        <ele>552.9</ele>
        <time>2018-09-14T19:17:10Z</time>
      </trkpt>
      <trkpt lat="-24.8124820" lon="-53.7031870">
        <ele>552.9</ele>
        <time>2018-09-14T19:17:11Z</time>
      </trkpt>
      <trkpt lat="-24.8124810" lon="-53.7032150">
        <ele>552.7</ele>
        <time>2018-09-14T19:17:12Z</time>
      </trkpt>
      <trkpt lat="-24.8124810" lon="-53.7032420">
        <ele>552.6</ele>
        <time>2018-09-14T19:17:13Z</time>
      </trkpt>
      <trkpt lat="-24.8124820" lon="-53.7032700">
        <ele>552.3</ele>
        <time>2018-09-14T19:17:14Z</time>
      </trkpt>
      <trkpt lat="-24.8124800" lon="-53.7032970">
        <ele>552.1</ele>
        <time>2018-09-14T19:17:15Z</time>
      </trkpt>
      <trkpt lat="-24.8124800" lon="-53.7033240">
        <ele>551.9</ele>
        <time>2018-09-14T19:17:16Z</time>
      </trkpt>
      <trkpt lat="-24.8124790" lon="-53.7033510">
        <ele>551.7</ele>
        <time>2018-09-14T19:17:17Z</time>
      </trkpt>
      <trkpt lat="-24.8124790" lon="-53.7033770">
        <ele>551.4</ele>
        <time>2018-09-14T19:17:18Z</time>
      </trkpt>
      <trkpt lat="-24.8124780" lon="-53.7034060">
        <ele>551.2</ele>
        <time>2018-09-14T19:17:19Z</time>
      </trkpt>
      <trkpt lat="-24.8124800" lon="-53.7034360">
        <ele>551.1</ele>
        <time>2018-09-14T19:17:20Z</time>
      </trkpt>
      <trkpt lat="-24.8124810" lon="-53.7034680">
        <ele>550.9</ele>
        <time>2018-09-14T19:17:21Z</time>
      </trkpt>
      <trkpt lat="-24.8124820" lon="-53.7035050">
        <ele>550.7</ele>
        <time>2018-09-14T19:17:22Z</time>
      </trkpt>
      <trkpt lat="-24.8124830" lon="-53.7035460">
        <ele>550.4</ele>
        <time>2018-09-14T19:17:23Z</time>
      </trkpt>
      <trkpt lat="-24.8124830" lon="-53.7035900">
        <ele>550.0</ele>
        <time>2018-09-14T19:17:24Z</time>
      </trkpt>
      <trkpt lat="-24.8124830" lon="-53.7036390">
        <ele>549.6</ele>
        <time>2018-09-14T19:17:25Z</time>
      </trkpt>
      <trkpt lat="-24.8124840" lon="-53.7036910">
        <ele>549.1</ele>
        <time>2018-09-14T19:17:26Z</time>
      </trkpt>
      <trkpt lat="-24.8124850" lon="-53.7037440">
        <ele>548.5</ele>
        <time>2018-09-14T19:17:27Z</time>
      </trkpt>
      <trkpt lat="-24.8124850" lon="-53.7038000">
        <ele>547.9</ele>
        <time>2018-09-14T19:17:28Z</time>
      </trkpt>
      <trkpt lat="-24.8124850" lon="-53.7038560">
        <ele>547.3</ele>
        <time>2018-09-14T19:17:29Z</time>
      </trkpt>
      <trkpt lat="-24.8124850" lon="-53.7039190">
        <ele>546.8</ele>
        <time>2018-09-14T19:17:30Z</time>
      </trkpt>
      <trkpt lat="-24.8124850" lon="-53.7039890">
        <ele>546.3</ele>
        <time>2018-09-14T19:17:31Z</time>
      </trkpt>
      <trkpt lat="-24.8124860" lon="-53.7040610">
        <ele>545.7</ele>
        <time>2018-09-14T19:17:32Z</time>
      </trkpt>
      <trkpt lat="-24.8124860" lon="-53.7041350">
        <ele>545.0</ele>
        <time>2018-09-14T19:17:33Z</time>
      </trkpt>
      <trkpt lat="-24.8124860" lon="-53.7042100">
        <ele>544.3</ele>
        <time>2018-09-14T19:17:34Z</time>
      </trkpt>
      <trkpt lat="-24.8124860" lon="-53.7042840">
        <ele>543.6</ele>
        <time>2018-09-14T19:17:35Z</time>
      </trkpt>
      <trkpt lat="-24.8124860" lon="-53.7043530">
        <ele>543.0</ele>
        <time>2018-09-14T19:17:36Z</time>
      </trkpt>
      <trkpt lat="-24.8124860" lon="-53.7044140">
        <ele>542.4</ele>
        <time>2018-09-14T19:17:37Z</time>
      </trkpt>
      <trkpt lat="-24.8124860" lon="-53.7044750">
        <ele>541.8</ele>
        <time>2018-09-14T19:17:38Z</time>
      </trkpt>
      <trkpt lat="-24.8124850" lon="-53.7045410">
        <ele>541.2</ele>
        <time>2018-09-14T19:17:39Z</time>
      </trkpt>
      <trkpt lat="-24.8124850" lon="-53.7046120">
        <ele>540.5</ele>
        <time>2018-09-14T19:17:40Z</time>
      </trkpt>
      <trkpt lat="-24.8124840" lon="-53.7046850">
        <ele>540.0</ele>
        <time>2018-09-14T19:17:41Z</time>
      </trkpt>
      <trkpt lat="-24.8124830" lon="-53.7047580">
        <ele>539.5</ele>
        <time>2018-09-14T19:17:42Z</time>
      </trkpt>
      <trkpt lat="-24.8124820" lon="-53.7048340">
        <ele>538.9</ele>
        <time>2018-09-14T19:17:43Z</time>
      </trkpt>
      <trkpt lat="-24.8124820" lon="-53.7049120">
        <ele>537.8</ele>
        <time>2018-09-14T19:17:44Z</time>
      </trkpt>
      <trkpt lat="-24.8124820" lon="-53.7049840">
        <ele>536.9</ele>
        <time>2018-09-14T19:17:45Z</time>
      </trkpt>
      <trkpt lat="-24.8124810" lon="-53.7050470">
        <ele>536.0</ele>
        <time>2018-09-14T19:17:46Z</time>
      </trkpt>
      <trkpt lat="-24.8124820" lon="-53.7051080">
        <ele>535.4</ele>
        <time>2018-09-14T19:17:47Z</time>
      </trkpt>
      <trkpt lat="-24.8124830" lon="-53.7051710">
        <ele>535.1</ele>
        <time>2018-09-14T19:17:48Z</time>
      </trkpt>
      <trkpt lat="-24.8124840" lon="-53.7052390">
        <ele>534.8</ele>
        <time>2018-09-14T19:17:49Z</time>
      </trkpt>
      <trkpt lat="-24.8124830" lon="-53.7053110">
        <ele>534.3</ele>
        <time>2018-09-14T19:17:50Z</time>
      </trkpt>
      <trkpt lat="-24.8124820" lon="-53.7053850">
        <ele>533.4</ele>
        <time>2018-09-14T19:17:51Z</time>
      </trkpt>
      <trkpt lat="-24.8124830" lon="-53.7054570">
        <ele>532.7</ele>
        <time>2018-09-14T19:17:52Z</time>
      </trkpt>
      <trkpt lat="-24.8124840" lon="-53.7055240">
        <ele>532.1</ele>
        <time>2018-09-14T19:17:53Z</time>
      </trkpt>
      <trkpt lat="-24.8124850" lon="-53.7055900">
        <ele>531.3</ele>
        <time>2018-09-14T19:17:54Z</time>
      </trkpt>
      <trkpt lat="-24.8124870" lon="-53.7056590">
        <ele>530.7</ele>
        <time>2018-09-14T19:17:55Z</time>
      </trkpt>
      <trkpt lat="-24.8124900" lon="-53.7057330">
        <ele>530.0</ele>
        <time>2018-09-14T19:17:56Z</time>
      </trkpt>
      <trkpt lat="-24.8124930" lon="-53.7058090">
        <ele>528.9</ele>
        <time>2018-09-14T19:17:57Z</time>
      </trkpt>
      <trkpt lat="-24.8124960" lon="-53.7058830">
        <ele>528.3</ele>
        <time>2018-09-14T19:17:58Z</time>
      </trkpt>
      <trkpt lat="-24.8124990" lon="-53.7059490">
        <ele>527.5</ele>
        <time>2018-09-14T19:17:59Z</time>
      </trkpt>
      <trkpt lat="-24.8125010" lon="-53.7060090">
        <ele>526.7</ele>
        <time>2018-09-14T19:18:00Z</time>
      </trkpt>
      <trkpt lat="-24.8125060" lon="-53.7060730">
        <ele>526.2</ele>
        <time>2018-09-14T19:18:01Z</time>
      </trkpt>
      <trkpt lat="-24.8125080" lon="-53.7061420">
        <ele>525.4</ele>
        <time>2018-09-14T19:18:02Z</time>
      </trkpt>
      <trkpt lat="-24.8125090" lon="-53.7062160">
        <ele>524.4</ele>
        <time>2018-09-14T19:18:03Z</time>
      </trkpt>
      <trkpt lat="-24.8125090" lon="-53.7062870">
        <ele>523.8</ele>
        <time>2018-09-14T19:18:04Z</time>
      </trkpt>
      <trkpt lat="-24.8125100" lon="-53.7063510">
        <ele>523.0</ele>
        <time>2018-09-14T19:18:05Z</time>
      </trkpt>
      <trkpt lat="-24.8125100" lon="-53.7064130">
        <ele>522.2</ele>
        <time>2018-09-14T19:18:06Z</time>
      </trkpt>
      <trkpt lat="-24.8125080" lon="-53.7064780">
        <ele>521.6</ele>
        <time>2018-09-14T19:18:07Z</time>
      </trkpt>
      <trkpt lat="-24.8125060" lon="-53.7065480">
        <ele>520.8</ele>
        <time>2018-09-14T19:18:08Z</time>
      </trkpt>
      <trkpt lat="-24.8125030" lon="-53.7066190">
        <ele>519.7</ele>
        <time>2018-09-14T19:18:09Z</time>
      </trkpt>
      <trkpt lat="-24.8125010" lon="-53.7066840">
        <ele>518.7</ele>
        <time>2018-09-14T19:18:10Z</time>
      </trkpt>
      <trkpt lat="-24.8124990" lon="-53.7067420">
        <ele>517.9</ele>
        <time>2018-09-14T19:18:11Z</time>
      </trkpt>
      <trkpt lat="-24.8124970" lon="-53.7067950">
        <ele>517.5</ele>
        <time>2018-09-14T19:18:12Z</time>
      </trkpt>
      <trkpt lat="-24.8124960" lon="-53.7068480">
        <ele>517.2</ele>
        <time>2018-09-14T19:18:13Z</time>
      </trkpt>
      <trkpt lat="-24.8124960" lon="-53.7069060">
        <ele>516.7</ele>
        <time>2018-09-14T19:18:14Z</time>
      </trkpt>
      <trkpt lat="-24.8124960" lon="-53.7069660">
        <ele>516.1</ele>
        <time>2018-09-14T19:18:15Z</time>
      </trkpt>
      <trkpt lat="-24.8124950" lon="-53.7070270">
        <ele>515.2</ele>
        <time>2018-09-14T19:18:16Z</time>
      </trkpt>
      <trkpt lat="-24.8124960" lon="-53.7070850">
        <ele>514.2</ele>
        <time>2018-09-14T19:18:17Z</time>
      </trkpt>
      <trkpt lat="-24.8124970" lon="-53.7071390">
        <ele>513.4</ele>
        <time>2018-09-14T19:18:18Z</time>
      </trkpt>
      <trkpt lat="-24.8124970" lon="-53.7071910">
        <ele>512.6</ele>
        <time>2018-09-14T19:18:19Z</time>
      </trkpt>
      <trkpt lat="-24.8124990" lon="-53.7072450">
        <ele>511.8</ele>
        <time>2018-09-14T19:18:20Z</time>
      </trkpt>
      <trkpt lat="-24.8125000" lon="-53.7072990">
        <ele>511.0</ele>
        <time>2018-09-14T19:18:21Z</time>
      </trkpt>
      <trkpt lat="-24.8125020" lon="-53.7073530">
        <ele>510.2</ele>
        <time>2018-09-14T19:18:22Z</time>
      </trkpt>
      <trkpt lat="-24.8125060" lon="-53.7074040">
        <ele>509.7</ele>
        <time>2018-09-14T19:18:23Z</time>
      </trkpt>
      <trkpt lat="-24.8125110" lon="-53.7074520">
        <ele>508.9</ele>
        <time>2018-09-14T19:18:24Z</time>
      </trkpt>
      <trkpt lat="-24.8125160" lon="-53.7074960">
        <ele>508.2</ele>
        <time>2018-09-14T19:18:25Z</time>
      </trkpt>
      <trkpt lat="-24.8125170" lon="-53.7075400">
        <ele>507.5</ele>
        <time>2018-09-14T19:18:26Z</time>
      </trkpt>
      <trkpt lat="-24.8125220" lon="-53.7075880">
        <ele>506.7</ele>
        <time>2018-09-14T19:18:27Z</time>
      </trkpt>
      <trkpt lat="-24.8125260" lon="-53.7076450">
        <ele>505.8</ele>
        <time>2018-09-14T19:18:28Z</time>
      </trkpt>
      <trkpt lat="-24.8125230" lon="-53.7077080">
        <ele>504.9</ele>
        <time>2018-09-14T19:18:29Z</time>
      </trkpt>
      <trkpt lat="-24.8125090" lon="-53.7077770">
        <ele>504.1</ele>
        <time>2018-09-14T19:18:30Z</time>
      </trkpt>
      <trkpt lat="-24.8124860" lon="-53.7078510">
        <ele>503.4</ele>
        <time>2018-09-14T19:18:31Z</time>
      </trkpt>
      <trkpt lat="-24.8124550" lon="-53.7079220">
        <ele>503.2</ele>
        <time>2018-09-14T19:18:32Z</time>
      </trkpt>
      <trkpt lat="-24.8124160" lon="-53.7079900">
        <ele>503.1</ele>
        <time>2018-09-14T19:18:33Z</time>
      </trkpt>
      <trkpt lat="-24.8123700" lon="-53.7080560">
        <ele>503.0</ele>
        <time>2018-09-14T19:18:34Z</time>
      </trkpt>
      <trkpt lat="-24.8123280" lon="-53.7081300">
        <ele>503.0</ele>
        <time>2018-09-14T19:18:35Z</time>
      </trkpt>
      <trkpt lat="-24.8122940" lon="-53.7082150">
        <ele>503.1</ele>
        <time>2018-09-14T19:18:36Z</time>
      </trkpt>
      <trkpt lat="-24.8122730" lon="-53.7083100">
        <ele>503.4</ele>
        <time>2018-09-14T19:18:37Z</time>
      </trkpt>
      <trkpt lat="-24.8122670" lon="-53.7084080">
        <ele>503.9</ele>
        <time>2018-09-14T19:18:38Z</time>
      </trkpt>
      <trkpt lat="-24.8122750" lon="-53.7085040">
        <ele>504.3</ele>
        <time>2018-09-14T19:18:39Z</time>
      </trkpt>
      <trkpt lat="-24.8122850" lon="-53.7085960">
        <ele>504.8</ele>
        <time>2018-09-14T19:18:40Z</time>
      </trkpt>
      <trkpt lat="-24.8122870" lon="-53.7086830">
        <ele>505.2</ele>
        <time>2018-09-14T19:18:41Z</time>
      </trkpt>
      <trkpt lat="-24.8122770" lon="-53.7087600">
        <ele>505.5</ele>
        <time>2018-09-14T19:18:42Z</time>
      </trkpt>
      <trkpt lat="-24.8122770" lon="-53.7087600">
        <ele>505.5</ele>
        <time>2018-09-14T19:18:43Z</time>
      </trkpt>
      <trkpt lat="-24.8122590" lon="-53.7088270">
        <ele>505.8</ele>
        <time>2018-09-14T19:18:44Z</time>
      </trkpt>
      <trkpt lat="-24.8122350" lon="-53.7088820">
        <ele>505.9</ele>
        <time>2018-09-14T19:18:45Z</time>
      </trkpt>
      <trkpt lat="-24.8122110" lon="-53.7089250">
        <ele>506.0</ele>
        <time>2018-09-14T19:18:46Z</time>
      </trkpt>
      <trkpt lat="-24.8121900" lon="-53.7089580">
        <ele>506.1</ele>
        <time>2018-09-14T19:18:47Z</time>
      </trkpt>
      <trkpt lat="-24.8121710" lon="-53.7089820">
        <ele>506.1</ele>
        <time>2018-09-14T19:18:48Z</time>
      </trkpt>
      <trkpt lat="-24.8121530" lon="-53.7090060">
        <ele>506.2</ele>
        <time>2018-09-14T19:18:49Z</time>
      </trkpt>
      <trkpt lat="-24.8121350" lon="-53.7090290">
        <ele>506.2</ele>
        <time>2018-09-14T19:18:50Z</time>
      </trkpt>
      <trkpt lat="-24.8121150" lon="-53.7090530">
        <ele>506.2</ele>
        <time>2018-09-14T19:18:51Z</time>
      </trkpt>
      <trkpt lat="-24.8120950" lon="-53.7090790">
        <ele>506.2</ele>
        <time>2018-09-14T19:18:52Z</time>
      </trkpt>
      <trkpt lat="-24.8120710" lon="-53.7091060">
        <ele>506.2</ele>
        <time>2018-09-14T19:18:53Z</time>
      </trkpt>
      <trkpt lat="-24.8120460" lon="-53.7091320">
        <ele>506.2</ele>
        <time>2018-09-14T19:18:54Z</time>
      </trkpt>
      <trkpt lat="-24.8120230" lon="-53.7091560">
        <ele>506.3</ele>
        <time>2018-09-14T19:18:55Z</time>
      </trkpt>
      <trkpt lat="-24.8119980" lon="-53.7091770">
        <ele>506.3</ele>
        <time>2018-09-14T19:18:56Z</time>
      </trkpt>
      <trkpt lat="-24.8119730" lon="-53.7091990">
        <ele>506.3</ele>
        <time>2018-09-14T19:18:57Z</time>
      </trkpt>
      <trkpt lat="-24.8119500" lon="-53.7092180">
        <ele>506.3</ele>
        <time>2018-09-14T19:18:58Z</time>
      </trkpt>
      <trkpt lat="-24.8119260" lon="-53.7092360">
        <ele>506.3</ele>
        <time>2018-09-14T19:18:59Z</time>
      </trkpt>
      <trkpt lat="-24.8119030" lon="-53.7092540">
        <ele>506.3</ele>
        <time>2018-09-14T19:19:00Z</time>
      </trkpt>
      <trkpt lat="-24.8118800" lon="-53.7092700">
        <ele>506.3</ele>
        <time>2018-09-14T19:19:01Z</time>
      </trkpt>
      <trkpt lat="-24.8118560" lon="-53.7092860">
        <ele>506.4</ele>
        <time>2018-09-14T19:19:02Z</time>
      </trkpt>
      <trkpt lat="-24.8118310" lon="-53.7093030">
        <ele>506.4</ele>
        <time>2018-09-14T19:19:03Z</time>
      </trkpt>
      <trkpt lat="-24.8118060" lon="-53.7093210">
        <ele>506.4</ele>
        <time>2018-09-14T19:19:04Z</time>
      </trkpt>
      <trkpt lat="-24.8117810" lon="-53.7093400">
        <ele>506.4</ele>
        <time>2018-09-14T19:19:05Z</time>
      </trkpt>
      <trkpt lat="-24.8117560" lon="-53.7093590">
        <ele>506.4</ele>
        <time>2018-09-14T19:19:06Z</time>
      </trkpt>
      <trkpt lat="-24.8117290" lon="-53.7093790">
        <ele>506.4</ele>
        <time>2018-09-14T19:19:07Z</time>
      </trkpt>
      <trkpt lat="-24.8117020" lon="-53.7094000">
        <ele>506.4</ele>
        <time>2018-09-14T19:19:08Z</time>
      </trkpt>
      <trkpt lat="-24.8116740" lon="-53.7094220">
        <ele>506.4</ele>
        <time>2018-09-14T19:19:09Z</time>
      </trkpt>
      <trkpt lat="-24.8116440" lon="-53.7094440">
        <ele>506.5</ele>
        <time>2018-09-14T19:19:10Z</time>
      </trkpt>
      <trkpt lat="-24.8116130" lon="-53.7094670">
        <ele>506.5</ele>
        <time>2018-09-14T19:19:11Z</time>
      </trkpt>
      <trkpt lat="-24.8115820" lon="-53.7094900">
        <ele>506.5</ele>
        <time>2018-09-14T19:19:12Z</time>
      </trkpt>
      <trkpt lat="-24.8115510" lon="-53.7095140">
        <ele>506.5</ele>
        <time>2018-09-14T19:19:13Z</time>
      </trkpt>
      <trkpt lat="-24.8115190" lon="-53.7095390">
        <ele>506.5</ele>
        <time>2018-09-14T19:19:14Z</time>
      </trkpt>
      <trkpt lat="-24.8114870" lon="-53.7095640">
        <ele>506.5</ele>
        <time>2018-09-14T19:19:15Z</time>
      </trkpt>
      <trkpt lat="-24.8114550" lon="-53.7095890">
        <ele>506.5</ele>
        <time>2018-09-14T19:19:16Z</time>
      </trkpt>
      <trkpt lat="-24.8114230" lon="-53.7096150">
        <ele>506.5</ele>
        <time>2018-09-14T19:19:17Z</time>
      </trkpt>
      <trkpt lat="-24.8113910" lon="-53.7096420">
        <ele>506.5</ele>
        <time>2018-09-14T19:19:18Z</time>
      </trkpt>
      <trkpt lat="-24.8113580" lon="-53.7096680">
        <ele>506.5</ele>
        <time>2018-09-14T19:19:19Z</time>
      </trkpt>
      <trkpt lat="-24.8113250" lon="-53.7096950">
        <ele>506.5</ele>
        <time>2018-09-14T19:19:20Z</time>
      </trkpt>
      <trkpt lat="-24.8112910" lon="-53.7097210">
        <ele>506.5</ele>
        <time>2018-09-14T19:19:21Z</time>
      </trkpt>
      <trkpt lat="-24.8112570" lon="-53.7097480">
        <ele>506.5</ele>
        <time>2018-09-14T19:19:22Z</time>
      </trkpt>
      <trkpt lat="-24.8112220" lon="-53.7097740">
        <ele>506.5</ele>
        <time>2018-09-14T19:19:23Z</time>
      </trkpt>
      <trkpt lat="-24.8111860" lon="-53.7098010">
        <ele>506.5</ele>
        <time>2018-09-14T19:19:24Z</time>
      </trkpt>
      <trkpt lat="-24.8111510" lon="-53.7098290">
        <ele>506.5</ele>
        <time>2018-09-14T19:19:25Z</time>
      </trkpt>
      <trkpt lat="-24.8111160" lon="-53.7098550">
        <ele>506.5</ele>
        <time>2018-09-14T19:19:26Z</time>
      </trkpt>
      <trkpt lat="-24.8110800" lon="-53.7098820">
        <ele>506.5</ele>
        <time>2018-09-14T19:19:27Z</time>
      </trkpt>
      <trkpt lat="-24.8110450" lon="-53.7099090">
        <ele>506.5</ele>
        <time>2018-09-14T19:19:28Z</time>
      </trkpt>
      <trkpt lat="-24.8110080" lon="-53.7099360">
        <ele>506.5</ele>
        <time>2018-09-14T19:19:29Z</time>
      </trkpt>
      <trkpt lat="-24.8109720" lon="-53.7099620">
        <ele>506.5</ele>
        <time>2018-09-14T19:19:30Z</time>
      </trkpt>
      <trkpt lat="-24.8109360" lon="-53.7099880">
        <ele>506.5</ele>
        <time>2018-09-14T19:19:31Z</time>
      </trkpt>
      <trkpt lat="-24.8109000" lon="-53.7100140">
        <ele>506.5</ele>
        <time>2018-09-14T19:19:32Z</time>
      </trkpt>
      <trkpt lat="-24.8108660" lon="-53.7100410">
        <ele>506.5</ele>
        <time>2018-09-14T19:19:33Z</time>
      </trkpt>
      <trkpt lat="-24.8108340" lon="-53.7100720">
        <ele>506.5</ele>
        <time>2018-09-14T19:19:34Z</time>
      </trkpt>
      <trkpt lat="-24.8108040" lon="-53.7101010">
        <ele>506.5</ele>
        <time>2018-09-14T19:19:35Z</time>
      </trkpt>
      <trkpt lat="-24.8107720" lon="-53.7101270">
        <ele>506.5</ele>
        <time>2018-09-14T19:19:36Z</time>
      </trkpt>
      <trkpt lat="-24.8107370" lon="-53.7101500">
        <ele>506.5</ele>
        <time>2018-09-14T19:19:37Z</time>
      </trkpt>
      <trkpt lat="-24.8107020" lon="-53.7101730">
        <ele>506.5</ele>
        <time>2018-09-14T19:19:38Z</time>
      </trkpt>
      <trkpt lat="-24.8106670" lon="-53.7101990">
        <ele>506.5</ele>
        <time>2018-09-14T19:19:39Z</time>
      </trkpt>
      <trkpt lat="-24.8106320" lon="-53.7102280">
        <ele>506.4</ele>
        <time>2018-09-14T19:19:40Z</time>
      </trkpt>
      <trkpt lat="-24.8105950" lon="-53.7102560">
        <ele>506.4</ele>
        <time>2018-09-14T19:19:41Z</time>
      </trkpt>
      <trkpt lat="-24.8105570" lon="-53.7102830">
        <ele>506.4</ele>
        <time>2018-09-14T19:19:42Z</time>
      </trkpt>
      <trkpt lat="-24.8105200" lon="-53.7103100">
        <ele>506.4</ele>
        <time>2018-09-14T19:19:43Z</time>
      </trkpt>
      <trkpt lat="-24.8104820" lon="-53.7103360">
        <ele>506.4</ele>
        <time>2018-09-14T19:19:44Z</time>
      </trkpt>
      <trkpt lat="-24.8104450" lon="-53.7103640">
        <ele>506.4</ele>
        <time>2018-09-14T19:19:45Z</time>
      </trkpt>
      <trkpt lat="-24.8104080" lon="-53.7103910">
        <ele>506.4</ele>
        <time>2018-09-14T19:19:46Z</time>
      </trkpt>
      <trkpt lat="-24.8103700" lon="-53.7104160">
        <ele>506.4</ele>
        <time>2018-09-14T19:19:47Z</time>
      </trkpt>
      <trkpt lat="-24.8103340" lon="-53.7104430">
        <ele>506.4</ele>
        <time>2018-09-14T19:19:48Z</time>
      </trkpt>
      <trkpt lat="-24.8102970" lon="-53.7104700">
        <ele>506.4</ele>
        <time>2018-09-14T19:19:49Z</time>
      </trkpt>
      <trkpt lat="-24.8102610" lon="-53.7104980">
        <ele>506.4</ele>
        <time>2018-09-14T19:19:50Z</time>
      </trkpt>
      <trkpt lat="-24.8102240" lon="-53.7105250">
        <ele>506.4</ele>
        <time>2018-09-14T19:19:51Z</time>
      </trkpt>
      <trkpt lat="-24.8101880" lon="-53.7105520">
        <ele>506.4</ele>
        <time>2018-09-14T19:19:52Z</time>
      </trkpt>
      <trkpt lat="-24.8101510" lon="-53.7105790">
        <ele>506.4</ele>
        <time>2018-09-14T19:19:53Z</time>
      </trkpt>
      <trkpt lat="-24.8101140" lon="-53.7106070">
        <ele>506.4</ele>
        <time>2018-09-14T19:19:54Z</time>
      </trkpt>
      <trkpt lat="-24.8100770" lon="-53.7106350">
        <ele>506.4</ele>
        <time>2018-09-14T19:19:55Z</time>
      </trkpt>
      <trkpt lat="-24.8100410" lon="-53.7106630">
        <ele>506.4</ele>
        <time>2018-09-14T19:19:56Z</time>
      </trkpt>
      <trkpt lat="-24.8100040" lon="-53.7106920">
        <ele>506.4</ele>
        <time>2018-09-14T19:19:57Z</time>
      </trkpt>
      <trkpt lat="-24.8099680" lon="-53.7107210">
        <ele>506.4</ele>
        <time>2018-09-14T19:19:58Z</time>
      </trkpt>
      <trkpt lat="-24.8099320" lon="-53.7107490">
        <ele>506.4</ele>
        <time>2018-09-14T19:19:59Z</time>
      </trkpt>
      <trkpt lat="-24.8098980" lon="-53.7107780">
        <ele>506.4</ele>
        <time>2018-09-14T19:20:00Z</time>
      </trkpt>
      <trkpt lat="-24.8098650" lon="-53.7108070">
        <ele>506.4</ele>
        <time>2018-09-14T19:20:01Z</time>
      </trkpt>
      <trkpt lat="-24.8098320" lon="-53.7108350">
        <ele>506.4</ele>
        <time>2018-09-14T19:20:02Z</time>
      </trkpt>
      <trkpt lat="-24.8097990" lon="-53.7108630">
        <ele>506.4</ele>
        <time>2018-09-14T19:20:03Z</time>
      </trkpt>
      <trkpt lat="-24.8097670" lon="-53.7108920">
        <ele>506.4</ele>
        <time>2018-09-14T19:20:04Z</time>
      </trkpt>
      <trkpt lat="-24.8097350" lon="-53.7109220">
        <ele>506.4</ele>
        <time>2018-09-14T19:20:05Z</time>
      </trkpt>
      <trkpt lat="-24.8097040" lon="-53.7109510">
        <ele>506.4</ele>
        <time>2018-09-14T19:20:06Z</time>
      </trkpt>
      <trkpt lat="-24.8096740" lon="-53.7109820">
        <ele>506.4</ele>
        <time>2018-09-14T19:20:07Z</time>
      </trkpt>
      <trkpt lat="-24.8096440" lon="-53.7110130">
        <ele>506.4</ele>
        <time>2018-09-14T19:20:08Z</time>
      </trkpt>
      <trkpt lat="-24.8096150" lon="-53.7110460">
        <ele>506.4</ele>
        <time>2018-09-14T19:20:09Z</time>
      </trkpt>
      <trkpt lat="-24.8095880" lon="-53.7110790">
        <ele>506.4</ele>
        <time>2018-09-14T19:20:10Z</time>
      </trkpt>
      <trkpt lat="-24.8095630" lon="-53.7111130">
        <ele>506.4</ele>
        <time>2018-09-14T19:20:11Z</time>
      </trkpt>
      <trkpt lat="-24.8095350" lon="-53.7111420">
        <ele>506.4</ele>
        <time>2018-09-14T19:20:12Z</time>
      </trkpt>
      <trkpt lat="-24.8095080" lon="-53.7111720">
        <ele>506.4</ele>
        <time>2018-09-14T19:20:13Z</time>
      </trkpt>
      <trkpt lat="-24.8094820" lon="-53.7112040">
        <ele>506.4</ele>
        <time>2018-09-14T19:20:14Z</time>
      </trkpt>
      <trkpt lat="-24.8094590" lon="-53.7112380">
        <ele>506.4</ele>
        <time>2018-09-14T19:20:15Z</time>
      </trkpt>
      <trkpt lat="-24.8094360" lon="-53.7112740">
        <ele>506.4</ele>
        <time>2018-09-14T19:20:16Z</time>
      </trkpt>
      <trkpt lat="-24.8094130" lon="-53.7113070">
        <ele>506.4</ele>
        <time>2018-09-14T19:20:17Z</time>
      </trkpt>
      <trkpt lat="-24.8093890" lon="-53.7113410">
        <ele>506.4</ele>
        <time>2018-09-14T19:20:18Z</time>
      </trkpt>
      <trkpt lat="-24.8093660" lon="-53.7113760">
        <ele>506.4</ele>
        <time>2018-09-14T19:20:19Z</time>
      </trkpt>
      <trkpt lat="-24.8093460" lon="-53.7114110">
        <ele>506.3</ele>
        <time>2018-09-14T19:20:20Z</time>
      </trkpt>
      <trkpt lat="-24.8093260" lon="-53.7114490">
        <ele>506.3</ele>
        <time>2018-09-14T19:20:21Z</time>
      </trkpt>
      <trkpt lat="-24.8093070" lon="-53.7114870">
        <ele>506.3</ele>
        <time>2018-09-14T19:20:22Z</time>
      </trkpt>
      <trkpt lat="-24.8092880" lon="-53.7115250">
        <ele>506.3</ele>
        <time>2018-09-14T19:20:23Z</time>
      </trkpt>
      <trkpt lat="-24.8092700" lon="-53.7115640">
        <ele>506.3</ele>
        <time>2018-09-14T19:20:24Z</time>
      </trkpt>
      <trkpt lat="-24.8092540" lon="-53.7116020">
        <ele>506.3</ele>
        <time>2018-09-14T19:20:25Z</time>
      </trkpt>
      <trkpt lat="-24.8092390" lon="-53.7116420">
        <ele>506.3</ele>
        <time>2018-09-14T19:20:26Z</time>
      </trkpt>
      <trkpt lat="-24.8092230" lon="-53.7116810">
        <ele>506.3</ele>
        <time>2018-09-14T19:20:27Z</time>
      </trkpt>
      <trkpt lat="-24.8092080" lon="-53.7117190">
        <ele>506.3</ele>
        <time>2018-09-14T19:20:28Z</time>
      </trkpt>
      <trkpt lat="-24.8091950" lon="-53.7117590">
        <ele>506.3</ele>
        <time>2018-09-14T19:20:29Z</time>
      </trkpt>
      <trkpt lat="-24.8091690" lon="-53.7118390">
        <ele>506.3</ele>
        <time>2018-09-14T19:20:30Z</time>
      </trkpt>
      <trkpt lat="-24.8091460" lon="-53.7119210">
        <ele>506.3</ele>
        <time>2018-09-14T19:20:32Z</time>
      </trkpt>
      <trkpt lat="-24.8091370" lon="-53.7119620">
        <ele>506.3</ele>
        <time>2018-09-14T19:20:33Z</time>
      </trkpt>
      <trkpt lat="-24.8091270" lon="-53.7120040">
        <ele>506.3</ele>
        <time>2018-09-14T19:20:34Z</time>
      </trkpt>
      <trkpt lat="-24.8091150" lon="-53.7120460">
        <ele>506.3</ele>
        <time>2018-09-14T19:20:35Z</time>
      </trkpt>
      <trkpt lat="-24.8091030" lon="-53.7120880">
        <ele>506.3</ele>
        <time>2018-09-14T19:20:36Z</time>
      </trkpt>
      <trkpt lat="-24.8090940" lon="-53.7121310">
        <ele>506.3</ele>
        <time>2018-09-14T19:20:37Z</time>
      </trkpt>
      <trkpt lat="-24.8090840" lon="-53.7121740">
        <ele>506.3</ele>
        <time>2018-09-14T19:20:38Z</time>
      </trkpt>
      <trkpt lat="-24.8090740" lon="-53.7122160">
        <ele>506.3</ele>
        <time>2018-09-14T19:20:39Z</time>
      </trkpt>
      <trkpt lat="-24.8090640" lon="-53.7122590">
        <ele>506.3</ele>
        <time>2018-09-14T19:20:40Z</time>
      </trkpt>
      <trkpt lat="-24.8090550" lon="-53.7123030">
        <ele>506.3</ele>
        <time>2018-09-14T19:20:41Z</time>
      </trkpt>
      <trkpt lat="-24.8090460" lon="-53.7123470">
        <ele>506.3</ele>
        <time>2018-09-14T19:20:42Z</time>
      </trkpt>
      <trkpt lat="-24.8090390" lon="-53.7123910">
        <ele>506.3</ele>
        <time>2018-09-14T19:20:43Z</time>
      </trkpt>
      <trkpt lat="-24.8090330" lon="-53.7124350">
        <ele>506.3</ele>
        <time>2018-09-14T19:20:44Z</time>
      </trkpt>
      <trkpt lat="-24.8090260" lon="-53.7124810">
        <ele>506.3</ele>
        <time>2018-09-14T19:20:45Z</time>
      </trkpt>
      <trkpt lat="-24.8090200" lon="-53.7125250">
        <ele>506.3</ele>
        <time>2018-09-14T19:20:46Z</time>
      </trkpt>
      <trkpt lat="-24.8090150" lon="-53.7125710">
        <ele>506.3</ele>
        <time>2018-09-14T19:20:47Z</time>
      </trkpt>
      <trkpt lat="-24.8090100" lon="-53.7126160">
        <ele>506.3</ele>
        <time>2018-09-14T19:20:48Z</time>
      </trkpt>
      <trkpt lat="-24.8090060" lon="-53.7126610">
        <ele>506.3</ele>
        <time>2018-09-14T19:20:49Z</time>
      </trkpt>
      <trkpt lat="-24.8089990" lon="-53.7127520">
        <ele>506.3</ele>
        <time>2018-09-14T19:20:51Z</time>
      </trkpt>
      <trkpt lat="-24.8089980" lon="-53.7127980">
        <ele>506.3</ele>
        <time>2018-09-14T19:20:52Z</time>
      </trkpt>
      <trkpt lat="-24.8089970" lon="-53.7128440">
        <ele>506.3</ele>
        <time>2018-09-14T19:20:53Z</time>
      </trkpt>
      <trkpt lat="-24.8089960" lon="-53.7128890">
        <ele>506.3</ele>
        <time>2018-09-14T19:20:54Z</time>
      </trkpt>
      <trkpt lat="-24.8089950" lon="-53.7129340">
        <ele>506.3</ele>
        <time>2018-09-14T19:20:55Z</time>
      </trkpt>
      <trkpt lat="-24.8089950" lon="-53.7129810">
        <ele>506.3</ele>
        <time>2018-09-14T19:20:56Z</time>
      </trkpt>
      <trkpt lat="-24.8089970" lon="-53.7130270">
        <ele>506.3</ele>
        <time>2018-09-14T19:20:57Z</time>
      </trkpt>
      <trkpt lat="-24.8090000" lon="-53.7130720">
        <ele>506.3</ele>
        <time>2018-09-14T19:20:58Z</time>
      </trkpt>
      <trkpt lat="-24.8090010" lon="-53.7131180">
        <ele>506.3</ele>
        <time>2018-09-14T19:20:59Z</time>
      </trkpt>
      <trkpt lat="-24.8090030" lon="-53.7131650">
        <ele>506.3</ele>
        <time>2018-09-14T19:21:00Z</time>
      </trkpt>
      <trkpt lat="-24.8090060" lon="-53.7132120">
        <ele>506.3</ele>
        <time>2018-09-14T19:21:01Z</time>
      </trkpt>
      <trkpt lat="-24.8090110" lon="-53.7132600">
        <ele>506.3</ele>
        <time>2018-09-14T19:21:02Z</time>
      </trkpt>
      <trkpt lat="-24.8090150" lon="-53.7133080">
        <ele>506.3</ele>
        <time>2018-09-14T19:21:03Z</time>
      </trkpt>
      <trkpt lat="-24.8090200" lon="-53.7133560">
        <ele>506.3</ele>
        <time>2018-09-14T19:21:04Z</time>
      </trkpt>
      <trkpt lat="-24.8090250" lon="-53.7134040">
        <ele>506.3</ele>
        <time>2018-09-14T19:21:05Z</time>
      </trkpt>
      <trkpt lat="-24.8090300" lon="-53.7134510">
        <ele>506.3</ele>
        <time>2018-09-14T19:21:06Z</time>
      </trkpt>
      <trkpt lat="-24.8090360" lon="-53.7134990">
        <ele>506.3</ele>
        <time>2018-09-14T19:21:07Z</time>
      </trkpt>
      <trkpt lat="-24.8090420" lon="-53.7135470">
        <ele>506.4</ele>
        <time>2018-09-14T19:21:08Z</time>
      </trkpt>
      <trkpt lat="-24.8090480" lon="-53.7135950">
        <ele>506.4</ele>
        <time>2018-09-14T19:21:09Z</time>
      </trkpt>
      <trkpt lat="-24.8090560" lon="-53.7136430">
        <ele>506.4</ele>
        <time>2018-09-14T19:21:10Z</time>
      </trkpt>
      <trkpt lat="-24.8090630" lon="-53.7136910">
        <ele>506.4</ele>
        <time>2018-09-14T19:21:11Z</time>
      </trkpt>
      <trkpt lat="-24.8090700" lon="-53.7137390">
        <ele>506.4</ele>
        <time>2018-09-14T19:21:12Z</time>
      </trkpt>
      <trkpt lat="-24.8090790" lon="-53.7137870">
        <ele>506.4</ele>
        <time>2018-09-14T19:21:13Z</time>
      </trkpt>
      <trkpt lat="-24.8090880" lon="-53.7138360">
        <ele>506.4</ele>
        <time>2018-09-14T19:21:14Z</time>
      </trkpt>
      <trkpt lat="-24.8091000" lon="-53.7138840">
        <ele>506.5</ele>
        <time>2018-09-14T19:21:15Z</time>
      </trkpt>
      <trkpt lat="-24.8091120" lon="-53.7139320">
        <ele>506.6</ele>
        <time>2018-09-14T19:21:16Z</time>
      </trkpt>
      <trkpt lat="-24.8091240" lon="-53.7139810">
        <ele>506.7</ele>
        <time>2018-09-14T19:21:17Z</time>
      </trkpt>
      <trkpt lat="-24.8091380" lon="-53.7140300">
        <ele>506.9</ele>
        <time>2018-09-14T19:21:18Z</time>
      </trkpt>
      <trkpt lat="-24.8091500" lon="-53.7140810">
        <ele>507.1</ele>
        <time>2018-09-14T19:21:19Z</time>
      </trkpt>
      <trkpt lat="-24.8091650" lon="-53.7141310">
        <ele>507.3</ele>
        <time>2018-09-14T19:21:20Z</time>
      </trkpt>
      <trkpt lat="-24.8091800" lon="-53.7141800">
        <ele>507.5</ele>
        <time>2018-09-14T19:21:21Z</time>
      </trkpt>
      <trkpt lat="-24.8091940" lon="-53.7142270">
        <ele>507.8</ele>
        <time>2018-09-14T19:21:22Z</time>
      </trkpt>
      <trkpt lat="-24.8092090" lon="-53.7142720">
        <ele>508.0</ele>
        <time>2018-09-14T19:21:23Z</time>
      </trkpt>
      <trkpt lat="-24.8092240" lon="-53.7143160">
        <ele>508.3</ele>
        <time>2018-09-14T19:21:24Z</time>
      </trkpt>
      <trkpt lat="-24.8092390" lon="-53.7143590">
        <ele>508.5</ele>
        <time>2018-09-14T19:21:25Z</time>
      </trkpt>
      <trkpt lat="-24.8092540" lon="-53.7144000">
        <ele>508.7</ele>
        <time>2018-09-14T19:21:26Z</time>
      </trkpt>
      <trkpt lat="-24.8092690" lon="-53.7144390">
        <ele>508.9</ele>
        <time>2018-09-14T19:21:27Z</time>
      </trkpt>
      <trkpt lat="-24.8092860" lon="-53.7144770">
        <ele>509.1</ele>
        <time>2018-09-14T19:21:28Z</time>
      </trkpt>
      <trkpt lat="-24.8093040" lon="-53.7145140">
        <ele>509.3</ele>
        <time>2018-09-14T19:21:29Z</time>
      </trkpt>
      <trkpt lat="-24.8093210" lon="-53.7145490">
        <ele>509.5</ele>
        <time>2018-09-14T19:21:30Z</time>
      </trkpt>
      <trkpt lat="-24.8093370" lon="-53.7145850">
        <ele>509.6</ele>
        <time>2018-09-14T19:21:31Z</time>
      </trkpt>
      <trkpt lat="-24.8093530" lon="-53.7146180">
        <ele>509.7</ele>
        <time>2018-09-14T19:21:32Z</time>
      </trkpt>
      <trkpt lat="-24.8093710" lon="-53.7146500">
        <ele>509.8</ele>
        <time>2018-09-14T19:21:33Z</time>
      </trkpt>
      <trkpt lat="-24.8093900" lon="-53.7146810">
        <ele>509.8</ele>
        <time>2018-09-14T19:21:34Z</time>
      </trkpt>
      <trkpt lat="-24.8094080" lon="-53.7147130">
        <ele>509.9</ele>
        <time>2018-09-14T19:21:35Z</time>
      </trkpt>
      <trkpt lat="-24.8094230" lon="-53.7147440">
        <ele>510.0</ele>
        <time>2018-09-14T19:21:36Z</time>
      </trkpt>
      <trkpt lat="-24.8094380" lon="-53.7147740">
        <ele>510.0</ele>
        <time>2018-09-14T19:21:37Z</time>
      </trkpt>
      <trkpt lat="-24.8094520" lon="-53.7148020">
        <ele>510.1</ele>
        <time>2018-09-14T19:21:38Z</time>
      </trkpt>
      <trkpt lat="-24.8094660" lon="-53.7148310">
        <ele>510.1</ele>
        <time>2018-09-14T19:21:39Z</time>
      </trkpt>
      <trkpt lat="-24.8094790" lon="-53.7148590">
        <ele>510.2</ele>
        <time>2018-09-14T19:21:40Z</time>
      </trkpt>
      <trkpt lat="-24.8094920" lon="-53.7148870">
        <ele>510.2</ele>
        <time>2018-09-14T19:21:41Z</time>
      </trkpt>
      <trkpt lat="-24.8095060" lon="-53.7149170">
        <ele>510.3</ele>
        <time>2018-09-14T19:21:42Z</time>
      </trkpt>
      <trkpt lat="-24.8095180" lon="-53.7149480">
        <ele>510.3</ele>
        <time>2018-09-14T19:21:43Z</time>
      </trkpt>
      <trkpt lat="-24.8095290" lon="-53.7149820">
        <ele>510.3</ele>
        <time>2018-09-14T19:21:44Z</time>
      </trkpt>
      <trkpt lat="-24.8095400" lon="-53.7150150">
        <ele>510.3</ele>
        <time>2018-09-14T19:21:45Z</time>
      </trkpt>
      <trkpt lat="-24.8095480" lon="-53.7150520">
        <ele>510.4</ele>
        <time>2018-09-14T19:21:46Z</time>
      </trkpt>
      <trkpt lat="-24.8095550" lon="-53.7150880">
        <ele>510.4</ele>
        <time>2018-09-14T19:21:47Z</time>
      </trkpt>
      <trkpt lat="-24.8095620" lon="-53.7151250">
        <ele>510.4</ele>
        <time>2018-09-14T19:21:48Z</time>
      </trkpt>
      <trkpt lat="-24.8095680" lon="-53.7151620">
        <ele>510.4</ele>
        <time>2018-09-14T19:21:49Z</time>
      </trkpt>
      <trkpt lat="-24.8095720" lon="-53.7151990">
        <ele>510.4</ele>
        <time>2018-09-14T19:21:50Z</time>
      </trkpt>
      <trkpt lat="-24.8095750" lon="-53.7152360">
        <ele>510.5</ele>
        <time>2018-09-14T19:21:51Z</time>
      </trkpt>
      <trkpt lat="-24.8095790" lon="-53.7152720">
        <ele>510.5</ele>
        <time>2018-09-14T19:21:52Z</time>
      </trkpt>
      <trkpt lat="-24.8095820" lon="-53.7153080">
        <ele>510.5</ele>
        <time>2018-09-14T19:21:53Z</time>
      </trkpt>
      <trkpt lat="-24.8095830" lon="-53.7153440">
        <ele>510.5</ele>
        <time>2018-09-14T19:21:54Z</time>
      </trkpt>
      <trkpt lat="-24.8095820" lon="-53.7153780">
        <ele>510.5</ele>
        <time>2018-09-14T19:21:55Z</time>
      </trkpt>
      <trkpt lat="-24.8095780" lon="-53.7154130">
        <ele>510.5</ele>
        <time>2018-09-14T19:21:56Z</time>
      </trkpt>
      <trkpt lat="-24.8095750" lon="-53.7154500">
        <ele>510.6</ele>
        <time>2018-09-14T19:21:57Z</time>
      </trkpt>
      <trkpt lat="-24.8095700" lon="-53.7154880">
        <ele>510.6</ele>
        <time>2018-09-14T19:21:58Z</time>
      </trkpt>
      <trkpt lat="-24.8095640" lon="-53.7155260">
        <ele>510.6</ele>
        <time>2018-09-14T19:21:59Z</time>
      </trkpt>
      <trkpt lat="-24.8095590" lon="-53.7155620">
        <ele>510.6</ele>
        <time>2018-09-14T19:22:00Z</time>
      </trkpt>
      <trkpt lat="-24.8095540" lon="-53.7155990">
        <ele>510.6</ele>
        <time>2018-09-14T19:22:01Z</time>
      </trkpt>
      <trkpt lat="-24.8095480" lon="-53.7156350">
        <ele>510.7</ele>
        <time>2018-09-14T19:22:02Z</time>
      </trkpt>
      <trkpt lat="-24.8095440" lon="-53.7156700">
        <ele>510.7</ele>
        <time>2018-09-14T19:22:03Z</time>
      </trkpt>
      <trkpt lat="-24.8095390" lon="-53.7157050">
        <ele>510.8</ele>
        <time>2018-09-14T19:22:04Z</time>
      </trkpt>
      <trkpt lat="-24.8095360" lon="-53.7157390">
        <ele>510.9</ele>
        <time>2018-09-14T19:22:05Z</time>
      </trkpt>
      <trkpt lat="-24.8095330" lon="-53.7157740">
        <ele>511.0</ele>
        <time>2018-09-14T19:22:06Z</time>
      </trkpt>
      <trkpt lat="-24.8095300" lon="-53.7158080">
        <ele>511.0</ele>
        <time>2018-09-14T19:22:07Z</time>
      </trkpt>
      <trkpt lat="-24.8095250" lon="-53.7158420">
        <ele>511.1</ele>
        <time>2018-09-14T19:22:08Z</time>
      </trkpt>
      <trkpt lat="-24.8095200" lon="-53.7158760">
        <ele>511.2</ele>
        <time>2018-09-14T19:22:09Z</time>
      </trkpt>
      <trkpt lat="-24.8095170" lon="-53.7159100">
        <ele>511.3</ele>
        <time>2018-09-14T19:22:10Z</time>
      </trkpt>
      <trkpt lat="-24.8095150" lon="-53.7159450">
        <ele>511.4</ele>
        <time>2018-09-14T19:22:11Z</time>
      </trkpt>
      <trkpt lat="-24.8095150" lon="-53.7159790">
        <ele>511.5</ele>
        <time>2018-09-14T19:22:12Z</time>
      </trkpt>
      <trkpt lat="-24.8095150" lon="-53.7160120">
        <ele>511.6</ele>
        <time>2018-09-14T19:22:13Z</time>
      </trkpt>
      <trkpt lat="-24.8095140" lon="-53.7160440">
        <ele>511.7</ele>
        <time>2018-09-14T19:22:14Z</time>
      </trkpt>
      <trkpt lat="-24.8095160" lon="-53.7160760">
        <ele>511.7</ele>
        <time>2018-09-14T19:22:15Z</time>
      </trkpt>
      <trkpt lat="-24.8095180" lon="-53.7161090">
        <ele>511.8</ele>
        <time>2018-09-14T19:22:16Z</time>
      </trkpt>
      <trkpt lat="-24.8095190" lon="-53.7161420">
        <ele>511.8</ele>
        <time>2018-09-14T19:22:17Z</time>
      </trkpt>
      <trkpt lat="-24.8095210" lon="-53.7161740">
        <ele>511.9</ele>
        <time>2018-09-14T19:22:18Z</time>
      </trkpt>
      <trkpt lat="-24.8095240" lon="-53.7162050">
        <ele>511.9</ele>
        <time>2018-09-14T19:22:19Z</time>
      </trkpt>
      <trkpt lat="-24.8095270" lon="-53.7162370">
        <ele>511.9</ele>
        <time>2018-09-14T19:22:20Z</time>
      </trkpt>
      <trkpt lat="-24.8095300" lon="-53.7162680">
        <ele>512.0</ele>
        <time>2018-09-14T19:22:21Z</time>
      </trkpt>
      <trkpt lat="-24.8095320" lon="-53.7163020">
        <ele>512.0</ele>
        <time>2018-09-14T19:22:22Z</time>
      </trkpt>
      <trkpt lat="-24.8095350" lon="-53.7163360">
        <ele>512.0</ele>
        <time>2018-09-14T19:22:23Z</time>
      </trkpt>
      <trkpt lat="-24.8095360" lon="-53.7163700">
        <ele>512.0</ele>
        <time>2018-09-14T19:22:24Z</time>
      </trkpt>
      <trkpt lat="-24.8095370" lon="-53.7164020">
        <ele>512.1</ele>
        <time>2018-09-14T19:22:25Z</time>
      </trkpt>
      <trkpt lat="-24.8095370" lon="-53.7164350">
        <ele>512.1</ele>
        <time>2018-09-14T19:22:26Z</time>
      </trkpt>
      <trkpt lat="-24.8095370" lon="-53.7164650">
        <ele>512.1</ele>
        <time>2018-09-14T19:22:27Z</time>
      </trkpt>
      <trkpt lat="-24.8095340" lon="-53.7164970">
        <ele>512.1</ele>
        <time>2018-09-14T19:22:28Z</time>
      </trkpt>
      <trkpt lat="-24.8095310" lon="-53.7165280">
        <ele>512.1</ele>
        <time>2018-09-14T19:22:29Z</time>
      </trkpt>
      <trkpt lat="-24.8095250" lon="-53.7165580">
        <ele>512.2</ele>
        <time>2018-09-14T19:22:30Z</time>
      </trkpt>
      <trkpt lat="-24.8095180" lon="-53.7165860">
        <ele>512.2</ele>
        <time>2018-09-14T19:22:31Z</time>
      </trkpt>
      <trkpt lat="-24.8095080" lon="-53.7166120">
        <ele>512.2</ele>
        <time>2018-09-14T19:22:32Z</time>
      </trkpt>
      <trkpt lat="-24.8094970" lon="-53.7166400">
        <ele>512.2</ele>
        <time>2018-09-14T19:22:33Z</time>
      </trkpt>
      <trkpt lat="-24.8094830" lon="-53.7166690">
        <ele>512.2</ele>
        <time>2018-09-14T19:22:34Z</time>
      </trkpt>
      <trkpt lat="-24.8094680" lon="-53.7166980">
        <ele>512.3</ele>
        <time>2018-09-14T19:22:35Z</time>
      </trkpt>
      <trkpt lat="-24.8094680" lon="-53.7166980">
        <ele>512.3</ele>
        <time>2018-09-14T19:22:36Z</time>
      </trkpt>
      <trkpt lat="-24.8094510" lon="-53.7167260">
        <ele>512.3</ele>
        <time>2018-09-14T19:22:37Z</time>
      </trkpt>
      <trkpt lat="-24.8094290" lon="-53.7167520">
        <ele>512.3</ele>
        <time>2018-09-14T19:22:38Z</time>
      </trkpt>
      <trkpt lat="-24.8094040" lon="-53.7167760">
        <ele>512.3</ele>
        <time>2018-09-14T19:22:39Z</time>
      </trkpt>
      <trkpt lat="-24.8093750" lon="-53.7167950">
        <ele>512.3</ele>
        <time>2018-09-14T19:22:40Z</time>
      </trkpt>
      <trkpt lat="-24.8093450" lon="-53.7168130">
        <ele>512.4</ele>
        <time>2018-09-14T19:22:41Z</time>
      </trkpt>
      <trkpt lat="-24.8093160" lon="-53.7168310">
        <ele>512.4</ele>
        <time>2018-09-14T19:22:42Z</time>
      </trkpt>
      <trkpt lat="-24.8092840" lon="-53.7168440">
        <ele>512.5</ele>
        <time>2018-09-14T19:22:43Z</time>
      </trkpt>
      <trkpt lat="-24.8092530" lon="-53.7168560">
        <ele>512.6</ele>
        <time>2018-09-14T19:22:44Z</time>
      </trkpt>
      <trkpt lat="-24.8092210" lon="-53.7168700">
        <ele>512.7</ele>
        <time>2018-09-14T19:22:45Z</time>
      </trkpt>
      <trkpt lat="-24.8091900" lon="-53.7168830">
        <ele>512.8</ele>
        <time>2018-09-14T19:22:46Z</time>
      </trkpt>
      <trkpt lat="-24.8091570" lon="-53.7168940">
        <ele>512.9</ele>
        <time>2018-09-14T19:22:47Z</time>
      </trkpt>
      <trkpt lat="-24.8091240" lon="-53.7169050">
        <ele>513.0</ele>
        <time>2018-09-14T19:22:48Z</time>
      </trkpt>
      <trkpt lat="-24.8090880" lon="-53.7169180">
        <ele>513.1</ele>
        <time>2018-09-14T19:22:49Z</time>
      </trkpt>
      <trkpt lat="-24.8090500" lon="-53.7169340">
        <ele>513.3</ele>
        <time>2018-09-14T19:22:50Z</time>
      </trkpt>
      <trkpt lat="-24.8090140" lon="-53.7169510">
        <ele>513.5</ele>
        <time>2018-09-14T19:22:51Z</time>
      </trkpt>
      <trkpt lat="-24.8089770" lon="-53.7169680">
        <ele>513.7</ele>
        <time>2018-09-14T19:22:52Z</time>
      </trkpt>
      <trkpt lat="-24.8089430" lon="-53.7169860">
        <ele>513.8</ele>
        <time>2018-09-14T19:22:53Z</time>
      </trkpt>
      <trkpt lat="-24.8089110" lon="-53.7170060">
        <ele>514.0</ele>
        <time>2018-09-14T19:22:54Z</time>
      </trkpt>
      <trkpt lat="-24.8088820" lon="-53.7170260">
        <ele>514.2</ele>
        <time>2018-09-14T19:22:55Z</time>
      </trkpt>
      <trkpt lat="-24.8088530" lon="-53.7170490">
        <ele>514.4</ele>
        <time>2018-09-14T19:22:56Z</time>
      </trkpt>
      <trkpt lat="-24.8088260" lon="-53.7170720">
        <ele>514.5</ele>
        <time>2018-09-14T19:22:57Z</time>
      </trkpt>
      <trkpt lat="-24.8088000" lon="-53.7170970">
        <ele>514.7</ele>
        <time>2018-09-14T19:22:58Z</time>
      </trkpt>
      <trkpt lat="-24.8087770" lon="-53.7171240">
        <ele>514.9</ele>
        <time>2018-09-14T19:22:59Z</time>
      </trkpt>
      <trkpt lat="-24.8087560" lon="-53.7171510">
        <ele>515.1</ele>
        <time>2018-09-14T19:23:00Z</time>
      </trkpt>
      <trkpt lat="-24.8087390" lon="-53.7171780">
        <ele>515.2</ele>
        <time>2018-09-14T19:23:01Z</time>
      </trkpt>
      <trkpt lat="-24.8087210" lon="-53.7172040">
        <ele>515.4</ele>
        <time>2018-09-14T19:23:02Z</time>
      </trkpt>
      <trkpt lat="-24.8087090" lon="-53.7172310">
        <ele>515.6</ele>
        <time>2018-09-14T19:23:03Z</time>
      </trkpt>
      <trkpt lat="-24.8086960" lon="-53.7172600">
        <ele>515.8</ele>
        <time>2018-09-14T19:23:04Z</time>
      </trkpt>
      <trkpt lat="-24.8086850" lon="-53.7172890">
        <ele>515.9</ele>
        <time>2018-09-14T19:23:05Z</time>
      </trkpt>
      <trkpt lat="-24.8086750" lon="-53.7173170">
        <ele>516.1</ele>
        <time>2018-09-14T19:23:06Z</time>
      </trkpt>
      <trkpt lat="-24.8086650" lon="-53.7173460">
        <ele>516.3</ele>
        <time>2018-09-14T19:23:07Z</time>
      </trkpt>
      <trkpt lat="-24.8086560" lon="-53.7173730">
        <ele>516.4</ele>
        <time>2018-09-14T19:23:08Z</time>
      </trkpt>
      <trkpt lat="-24.8086480" lon="-53.7173990">
        <ele>516.6</ele>
        <time>2018-09-14T19:23:09Z</time>
      </trkpt>
      <trkpt lat="-24.8086440" lon="-53.7174230">
        <ele>516.7</ele>
        <time>2018-09-14T19:23:10Z</time>
      </trkpt>
      <trkpt lat="-24.8086420" lon="-53.7174480">
        <ele>516.9</ele>
        <time>2018-09-14T19:23:11Z</time>
      </trkpt>
      <trkpt lat="-24.8086400" lon="-53.7174710">
        <ele>517.0</ele>
        <time>2018-09-14T19:23:12Z</time>
      </trkpt>
      <trkpt lat="-24.8086390" lon="-53.7174960">
        <ele>517.1</ele>
        <time>2018-09-14T19:23:13Z</time>
      </trkpt>
      <trkpt lat="-24.8086390" lon="-53.7175200">
        <ele>517.3</ele>
        <time>2018-09-14T19:23:14Z</time>
      </trkpt>
      <trkpt lat="-24.8086380" lon="-53.7175430">
        <ele>517.4</ele>
        <time>2018-09-14T19:23:15Z</time>
      </trkpt>
      <trkpt lat="-24.8086400" lon="-53.7175660">
        <ele>517.6</ele>
        <time>2018-09-14T19:23:16Z</time>
      </trkpt>
      <trkpt lat="-24.8086430" lon="-53.7175880">
        <ele>517.7</ele>
        <time>2018-09-14T19:23:17Z</time>
      </trkpt>
      <trkpt lat="-24.8086460" lon="-53.7176100">
        <ele>517.8</ele>
        <time>2018-09-14T19:23:18Z</time>
      </trkpt>
      <trkpt lat="-24.8086500" lon="-53.7176310">
        <ele>518.0</ele>
        <time>2018-09-14T19:23:19Z</time>
      </trkpt>
      <trkpt lat="-24.8086550" lon="-53.7176500">
        <ele>518.1</ele>
        <time>2018-09-14T19:23:20Z</time>
      </trkpt>
      <trkpt lat="-24.8086610" lon="-53.7176700">
        <ele>518.2</ele>
        <time>2018-09-14T19:23:21Z</time>
      </trkpt>
      <trkpt lat="-24.8086670" lon="-53.7176910">
        <ele>518.3</ele>
        <time>2018-09-14T19:23:22Z</time>
      </trkpt>
      <trkpt lat="-24.8086750" lon="-53.7177130">
        <ele>518.5</ele>
        <time>2018-09-14T19:23:23Z</time>
      </trkpt>
      <trkpt lat="-24.8086830" lon="-53.7177320">
        <ele>518.6</ele>
        <time>2018-09-14T19:23:24Z</time>
      </trkpt>
      <trkpt lat="-24.8086920" lon="-53.7177470">
        <ele>518.7</ele>
        <time>2018-09-14T19:23:25Z</time>
      </trkpt>
      <trkpt lat="-24.8087010" lon="-53.7177620">
        <ele>518.8</ele>
        <time>2018-09-14T19:23:26Z</time>
      </trkpt>
      <trkpt lat="-24.8087090" lon="-53.7177760">
        <ele>518.9</ele>
        <time>2018-09-14T19:23:27Z</time>
      </trkpt>
      <trkpt lat="-24.8087170" lon="-53.7177920">
        <ele>519.0</ele>
        <time>2018-09-14T19:23:28Z</time>
      </trkpt>
      <trkpt lat="-24.8087250" lon="-53.7178060">
        <ele>519.1</ele>
        <time>2018-09-14T19:23:29Z</time>
      </trkpt>
      <trkpt lat="-24.8087330" lon="-53.7178220">
        <ele>519.3</ele>
        <time>2018-09-14T19:23:30Z</time>
      </trkpt>
      <trkpt lat="-24.8087430" lon="-53.7178390">
        <ele>519.4</ele>
        <time>2018-09-14T19:23:31Z</time>
      </trkpt>
      <trkpt lat="-24.8087530" lon="-53.7178550">
        <ele>519.5</ele>
        <time>2018-09-14T19:23:32Z</time>
      </trkpt>
      <trkpt lat="-24.8087650" lon="-53.7178730">
        <ele>519.6</ele>
        <time>2018-09-14T19:23:33Z</time>
      </trkpt>
      <trkpt lat="-24.8087760" lon="-53.7178900">
        <ele>519.8</ele>
        <time>2018-09-14T19:23:34Z</time>
      </trkpt>
      <trkpt lat="-24.8087870" lon="-53.7179070">
        <ele>519.9</ele>
        <time>2018-09-14T19:23:35Z</time>
      </trkpt>
      <trkpt lat="-24.8087970" lon="-53.7179250">
        <ele>520.0</ele>
        <time>2018-09-14T19:23:36Z</time>
      </trkpt>
      <trkpt lat="-24.8088070" lon="-53.7179430">
        <ele>520.1</ele>
        <time>2018-09-14T19:23:37Z</time>
      </trkpt>
      <trkpt lat="-24.8088170" lon="-53.7179610">
        <ele>520.3</ele>
        <time>2018-09-14T19:23:38Z</time>
      </trkpt>
      <trkpt lat="-24.8088280" lon="-53.7179800">
        <ele>520.4</ele>
        <time>2018-09-14T19:23:39Z</time>
      </trkpt>
      <trkpt lat="-24.8088380" lon="-53.7179960">
        <ele>520.5</ele>
        <time>2018-09-14T19:23:40Z</time>
      </trkpt>
      <trkpt lat="-24.8088470" lon="-53.7180110">
        <ele>520.6</ele>
        <time>2018-09-14T19:23:41Z</time>
      </trkpt>
      <trkpt lat="-24.8088550" lon="-53.7180260">
        <ele>520.7</ele>
        <time>2018-09-14T19:23:42Z</time>
      </trkpt>
      <trkpt lat="-24.8088620" lon="-53.7180400">
        <ele>520.8</ele>
        <time>2018-09-14T19:23:43Z</time>
      </trkpt>
      <trkpt lat="-24.8088690" lon="-53.7180550">
        <ele>520.9</ele>
        <time>2018-09-14T19:23:44Z</time>
      </trkpt>
      <trkpt lat="-24.8088770" lon="-53.7180710">
        <ele>521.0</ele>
        <time>2018-09-14T19:23:45Z</time>
      </trkpt>
      <trkpt lat="-24.8088850" lon="-53.7180870">
        <ele>521.1</ele>
        <time>2018-09-14T19:23:46Z</time>
      </trkpt>
      <trkpt lat="-24.8088920" lon="-53.7181030">
        <ele>521.3</ele>
        <time>2018-09-14T19:23:47Z</time>
      </trkpt>
      <trkpt lat="-24.8088970" lon="-53.7181200">
        <ele>521.4</ele>
        <time>2018-09-14T19:23:48Z</time>
      </trkpt>
      <trkpt lat="-24.8089030" lon="-53.7181370">
        <ele>521.5</ele>
        <time>2018-09-14T19:23:49Z</time>
      </trkpt>
      <trkpt lat="-24.8089080" lon="-53.7181540">
        <ele>521.6</ele>
        <time>2018-09-14T19:23:50Z</time>
      </trkpt>
      <trkpt lat="-24.8089130" lon="-53.7181710">
        <ele>521.7</ele>
        <time>2018-09-14T19:23:51Z</time>
      </trkpt>
      <trkpt lat="-24.8089190" lon="-53.7181880">
        <ele>521.8</ele>
        <time>2018-09-14T19:23:52Z</time>
      </trkpt>
      <trkpt lat="-24.8089250" lon="-53.7182040">
        <ele>521.9</ele>
        <time>2018-09-14T19:23:53Z</time>
      </trkpt>
      <trkpt lat="-24.8089310" lon="-53.7182190">
        <ele>522.0</ele>
        <time>2018-09-14T19:23:54Z</time>
      </trkpt>
      <trkpt lat="-24.8089370" lon="-53.7182330">
        <ele>522.1</ele>
        <time>2018-09-14T19:23:55Z</time>
      </trkpt>
      <trkpt lat="-24.8089430" lon="-53.7182480">
        <ele>522.2</ele>
        <time>2018-09-14T19:23:56Z</time>
      </trkpt>
      <trkpt lat="-24.8089460" lon="-53.7182640">
        <ele>522.3</ele>
        <time>2018-09-14T19:23:57Z</time>
      </trkpt>
      <trkpt lat="-24.8089500" lon="-53.7182780">
        <ele>522.4</ele>
        <time>2018-09-14T19:23:58Z</time>
      </trkpt>
      <trkpt lat="-24.8089620" lon="-53.7183060">
        <ele>522.6</ele>
        <time>2018-09-14T19:23:59Z</time>
      </trkpt>
      <trkpt lat="-24.8089690" lon="-53.7183180">
        <ele>522.6</ele>
        <time>2018-09-14T19:24:01Z</time>
      </trkpt>
      <trkpt lat="-24.8089740" lon="-53.7183320">
        <ele>522.7</ele>
        <time>2018-09-14T19:24:02Z</time>
      </trkpt>
      <trkpt lat="-24.8089790" lon="-53.7183450">
        <ele>522.8</ele>
        <time>2018-09-14T19:24:03Z</time>
      </trkpt>
      <trkpt lat="-24.8089840" lon="-53.7183600">
        <ele>522.9</ele>
        <time>2018-09-14T19:24:04Z</time>
      </trkpt>
      <trkpt lat="-24.8089910" lon="-53.7183750">
        <ele>523.0</ele>
        <time>2018-09-14T19:24:05Z</time>
      </trkpt>
      <trkpt lat="-24.8089950" lon="-53.7183900">
        <ele>523.1</ele>
        <time>2018-09-14T19:24:06Z</time>
      </trkpt>
      <trkpt lat="-24.8089960" lon="-53.7184060">
        <ele>523.2</ele>
        <time>2018-09-14T19:24:07Z</time>
      </trkpt>
      <trkpt lat="-24.8090000" lon="-53.7184210">
        <ele>523.3</ele>
        <time>2018-09-14T19:24:08Z</time>
      </trkpt>
      <trkpt lat="-24.8090060" lon="-53.7184380">
        <ele>523.4</ele>
        <time>2018-09-14T19:24:09Z</time>
      </trkpt>
      <trkpt lat="-24.8090110" lon="-53.7184530">
        <ele>523.5</ele>
        <time>2018-09-14T19:24:10Z</time>
      </trkpt>
      <trkpt lat="-24.8090170" lon="-53.7184660">
        <ele>523.6</ele>
        <time>2018-09-14T19:24:11Z</time>
      </trkpt>
      <trkpt lat="-24.8090200" lon="-53.7184810">
        <ele>523.7</ele>
        <time>2018-09-14T19:24:12Z</time>
      </trkpt>
      <trkpt lat="-24.8090260" lon="-53.7184950">
        <ele>523.8</ele>
        <time>2018-09-14T19:24:13Z</time>
      </trkpt>
      <trkpt lat="-24.8090310" lon="-53.7185090">
        <ele>523.9</ele>
        <time>2018-09-14T19:24:14Z</time>
      </trkpt>
      <trkpt lat="-24.8090370" lon="-53.7185220">
        <ele>524.0</ele>
        <time>2018-09-14T19:24:15Z</time>
      </trkpt>
      <trkpt lat="-24.8090420" lon="-53.7185350">
        <ele>524.1</ele>
        <time>2018-09-14T19:24:16Z</time>
      </trkpt>
      <trkpt lat="-24.8090470" lon="-53.7185490">
        <ele>524.2</ele>
        <time>2018-09-14T19:24:17Z</time>
      </trkpt>
      <trkpt lat="-24.8090510" lon="-53.7185640">
        <ele>524.3</ele>
        <time>2018-09-14T19:24:18Z</time>
      </trkpt>
      <trkpt lat="-24.8090550" lon="-53.7185780">
        <ele>524.3</ele>
        <time>2018-09-14T19:24:19Z</time>
      </trkpt>
      <trkpt lat="-24.8090650" lon="-53.7186100">
        <ele>524.5</ele>
        <time>2018-09-14T19:24:20Z</time>
      </trkpt>
      <trkpt lat="-24.8090720" lon="-53.7186260">
        <ele>524.7</ele>
        <time>2018-09-14T19:24:21Z</time>
      </trkpt>
      <trkpt lat="-24.8090780" lon="-53.7186420">
        <ele>524.8</ele>
        <time>2018-09-14T19:24:22Z</time>
      </trkpt>
      <trkpt lat="-24.8090830" lon="-53.7186580">
        <ele>524.9</ele>
        <time>2018-09-14T19:24:23Z</time>
      </trkpt>
      <trkpt lat="-24.8090900" lon="-53.7186740">
        <ele>525.0</ele>
        <time>2018-09-14T19:24:24Z</time>
      </trkpt>
      <trkpt lat="-24.8090950" lon="-53.7186900">
        <ele>525.1</ele>
        <time>2018-09-14T19:24:25Z</time>
      </trkpt>
      <trkpt lat="-24.8091060" lon="-53.7187230">
        <ele>525.3</ele>
        <time>2018-09-14T19:24:27Z</time>
      </trkpt>
      <trkpt lat="-24.8091130" lon="-53.7187380">
        <ele>525.4</ele>
        <time>2018-09-14T19:24:28Z</time>
      </trkpt>
      <trkpt lat="-24.8091210" lon="-53.7187530">
        <ele>525.5</ele>
        <time>2018-09-14T19:24:29Z</time>
      </trkpt>
      <trkpt lat="-24.8091270" lon="-53.7187680">
        <ele>525.6</ele>
        <time>2018-09-14T19:24:30Z</time>
      </trkpt>
      <trkpt lat="-24.8091340" lon="-53.7187830">
        <ele>525.7</ele>
        <time>2018-09-14T19:24:31Z</time>
      </trkpt>
      <trkpt lat="-24.8091410" lon="-53.7187960">
        <ele>525.8</ele>
        <time>2018-09-14T19:24:32Z</time>
      </trkpt>
      <trkpt lat="-24.8091460" lon="-53.7188090">
        <ele>525.9</ele>
        <time>2018-09-14T19:24:33Z</time>
      </trkpt>
      <trkpt lat="-24.8091500" lon="-53.7188230">
        <ele>526.0</ele>
        <time>2018-09-14T19:24:34Z</time>
      </trkpt>
      <trkpt lat="-24.8091540" lon="-53.7188380">
        <ele>526.1</ele>
        <time>2018-09-14T19:24:35Z</time>
      </trkpt>
      <trkpt lat="-24.8091600" lon="-53.7188530">
        <ele>526.2</ele>
        <time>2018-09-14T19:24:36Z</time>
      </trkpt>
      <trkpt lat="-24.8091650" lon="-53.7188690">
        <ele>526.3</ele>
        <time>2018-09-14T19:24:37Z</time>
      </trkpt>
      <trkpt lat="-24.8091700" lon="-53.7188850">
        <ele>526.4</ele>
        <time>2018-09-14T19:24:38Z</time>
      </trkpt>
      <trkpt lat="-24.8091770" lon="-53.7189010">
        <ele>526.5</ele>
        <time>2018-09-14T19:24:39Z</time>
      </trkpt>
      <trkpt lat="-24.8091840" lon="-53.7189170">
        <ele>526.6</ele>
        <time>2018-09-14T19:24:40Z</time>
      </trkpt>
      <trkpt lat="-24.8091920" lon="-53.7189310">
        <ele>526.7</ele>
        <time>2018-09-14T19:24:41Z</time>
      </trkpt>
      <trkpt lat="-24.8092000" lon="-53.7189460">
        <ele>526.8</ele>
        <time>2018-09-14T19:24:42Z</time>
      </trkpt>
      <trkpt lat="-24.8092070" lon="-53.7189600">
        <ele>526.9</ele>
        <time>2018-09-14T19:24:43Z</time>
      </trkpt>
      <trkpt lat="-24.8092140" lon="-53.7189750">
        <ele>527.0</ele>
        <time>2018-09-14T19:24:44Z</time>
      </trkpt>
      <trkpt lat="-24.8092190" lon="-53.7189900">
        <ele>527.1</ele>
        <time>2018-09-14T19:24:45Z</time>
      </trkpt>
      <trkpt lat="-24.8092260" lon="-53.7190040">
        <ele>527.1</ele>
        <time>2018-09-14T19:24:46Z</time>
      </trkpt>
      <trkpt lat="-24.8092330" lon="-53.7190180">
        <ele>527.2</ele>
        <time>2018-09-14T19:24:47Z</time>
      </trkpt>
      <trkpt lat="-24.8092390" lon="-53.7190320">
        <ele>527.3</ele>
        <time>2018-09-14T19:24:48Z</time>
      </trkpt>
      <trkpt lat="-24.8092440" lon="-53.7190460">
        <ele>527.4</ele>
        <time>2018-09-14T19:24:49Z</time>
      </trkpt>
      <trkpt lat="-24.8092500" lon="-53.7190600">
        <ele>527.5</ele>
        <time>2018-09-14T19:24:50Z</time>
      </trkpt>
      <trkpt lat="-24.8092580" lon="-53.7190730">
        <ele>527.6</ele>
        <time>2018-09-14T19:24:51Z</time>
      </trkpt>
      <trkpt lat="-24.8092650" lon="-53.7190880">
        <ele>527.7</ele>
        <time>2018-09-14T19:24:52Z</time>
      </trkpt>
      <trkpt lat="-24.8092720" lon="-53.7191040">
        <ele>527.8</ele>
        <time>2018-09-14T19:24:53Z</time>
      </trkpt>
      <trkpt lat="-24.8092800" lon="-53.7191190">
        <ele>527.9</ele>
        <time>2018-09-14T19:24:54Z</time>
      </trkpt>
      <trkpt lat="-24.8092880" lon="-53.7191340">
        <ele>528.0</ele>
        <time>2018-09-14T19:24:55Z</time>
      </trkpt>
      <trkpt lat="-24.8092970" lon="-53.7191480">
        <ele>528.1</ele>
        <time>2018-09-14T19:24:56Z</time>
      </trkpt>
      <trkpt lat="-24.8093040" lon="-53.7191610">
        <ele>528.2</ele>
        <time>2018-09-14T19:24:57Z</time>
      </trkpt>
      <trkpt lat="-24.8093110" lon="-53.7191740">
        <ele>528.3</ele>
        <time>2018-09-14T19:24:58Z</time>
      </trkpt>
      <trkpt lat="-24.8093170" lon="-53.7191870">
        <ele>528.3</ele>
        <time>2018-09-14T19:24:59Z</time>
      </trkpt>
      <trkpt lat="-24.8093240" lon="-53.7192000">
        <ele>528.4</ele>
        <time>2018-09-14T19:25:00Z</time>
      </trkpt>
      <trkpt lat="-24.8093310" lon="-53.7192120">
        <ele>528.5</ele>
        <time>2018-09-14T19:25:01Z</time>
      </trkpt>
      <trkpt lat="-24.8093400" lon="-53.7192230">
        <ele>528.6</ele>
        <time>2018-09-14T19:25:02Z</time>
      </trkpt>
      <trkpt lat="-24.8093480" lon="-53.7192340">
        <ele>528.7</ele>
        <time>2018-09-14T19:25:03Z</time>
      </trkpt>
      <trkpt lat="-24.8093550" lon="-53.7192440">
        <ele>528.7</ele>
        <time>2018-09-14T19:25:04Z</time>
      </trkpt>
      <trkpt lat="-24.8093630" lon="-53.7192560">
        <ele>528.8</ele>
        <time>2018-09-14T19:25:05Z</time>
      </trkpt>
      <trkpt lat="-24.8093700" lon="-53.7192710">
        <ele>528.9</ele>
        <time>2018-09-14T19:25:06Z</time>
      </trkpt>
      <trkpt lat="-24.8093760" lon="-53.7192870">
        <ele>529.0</ele>
        <time>2018-09-14T19:25:07Z</time>
      </trkpt>
      <trkpt lat="-24.8093840" lon="-53.7193020">
        <ele>529.1</ele>
        <time>2018-09-14T19:25:08Z</time>
      </trkpt>
      <trkpt lat="-24.8093940" lon="-53.7193170">
        <ele>529.2</ele>
        <time>2018-09-14T19:25:09Z</time>
      </trkpt>
      <trkpt lat="-24.8094030" lon="-53.7193330">
        <ele>529.3</ele>
        <time>2018-09-14T19:25:10Z</time>
      </trkpt>
      <trkpt lat="-24.8094110" lon="-53.7193490">
        <ele>529.4</ele>
        <time>2018-09-14T19:25:11Z</time>
      </trkpt>
      <trkpt lat="-24.8094200" lon="-53.7193660">
        <ele>529.5</ele>
        <time>2018-09-14T19:25:12Z</time>
      </trkpt>
      <trkpt lat="-24.8094300" lon="-53.7193820">
        <ele>529.6</ele>
        <time>2018-09-14T19:25:13Z</time>
      </trkpt>
      <trkpt lat="-24.8094390" lon="-53.7193980">
        <ele>529.7</ele>
        <time>2018-09-14T19:25:14Z</time>
      </trkpt>
      <trkpt lat="-24.8094480" lon="-53.7194140">
        <ele>529.7</ele>
        <time>2018-09-14T19:25:15Z</time>
      </trkpt>
      <trkpt lat="-24.8094560" lon="-53.7194290">
        <ele>529.8</ele>
        <time>2018-09-14T19:25:16Z</time>
      </trkpt>
      <trkpt lat="-24.8094650" lon="-53.7194430">
        <ele>529.9</ele>
        <time>2018-09-14T19:25:17Z</time>
      </trkpt>
      <trkpt lat="-24.8094740" lon="-53.7194580">
        <ele>530.0</ele>
        <time>2018-09-14T19:25:18Z</time>
      </trkpt>
      <trkpt lat="-24.8094830" lon="-53.7194710">
        <ele>530.0</ele>
        <time>2018-09-14T19:25:19Z</time>
      </trkpt>
      <trkpt lat="-24.8094920" lon="-53.7194870">
        <ele>530.1</ele>
        <time>2018-09-14T19:25:20Z</time>
      </trkpt>
      <trkpt lat="-24.8095020" lon="-53.7195020">
        <ele>530.2</ele>
        <time>2018-09-14T19:25:21Z</time>
      </trkpt>
      <trkpt lat="-24.8095110" lon="-53.7195180">
        <ele>530.3</ele>
        <time>2018-09-14T19:25:22Z</time>
      </trkpt>
      <trkpt lat="-24.8095200" lon="-53.7195340">
        <ele>530.4</ele>
        <time>2018-09-14T19:25:23Z</time>
      </trkpt>
      <trkpt lat="-24.8095280" lon="-53.7195470">
        <ele>530.4</ele>
        <time>2018-09-14T19:25:24Z</time>
      </trkpt>
      <trkpt lat="-24.8095360" lon="-53.7195600">
        <ele>530.5</ele>
        <time>2018-09-14T19:25:25Z</time>
      </trkpt>
      <trkpt lat="-24.8095450" lon="-53.7195740">
        <ele>530.6</ele>
        <time>2018-09-14T19:25:26Z</time>
      </trkpt>
      <trkpt lat="-24.8095510" lon="-53.7195890">
        <ele>530.7</ele>
        <time>2018-09-14T19:25:27Z</time>
      </trkpt>
      <trkpt lat="-24.8095600" lon="-53.7196060">
        <ele>530.8</ele>
        <time>2018-09-14T19:25:28Z</time>
      </trkpt>
      <trkpt lat="-24.8095680" lon="-53.7196230">
        <ele>530.9</ele>
        <time>2018-09-14T19:25:29Z</time>
      </trkpt>
      <trkpt lat="-24.8095770" lon="-53.7196410">
        <ele>531.0</ele>
        <time>2018-09-14T19:25:30Z</time>
      </trkpt>
      <trkpt lat="-24.8095870" lon="-53.7196570">
        <ele>531.2</ele>
        <time>2018-09-14T19:25:31Z</time>
      </trkpt>
      <trkpt lat="-24.8095960" lon="-53.7196750">
        <ele>531.3</ele>
        <time>2018-09-14T19:25:32Z</time>
      </trkpt>
      <trkpt lat="-24.8096050" lon="-53.7196920">
        <ele>531.4</ele>
        <time>2018-09-14T19:25:33Z</time>
      </trkpt>
      <trkpt lat="-24.8096130" lon="-53.7197080">
        <ele>531.5</ele>
        <time>2018-09-14T19:25:34Z</time>
      </trkpt>
      <trkpt lat="-24.8096220" lon="-53.7197250">
        <ele>531.6</ele>
        <time>2018-09-14T19:25:35Z</time>
      </trkpt>
      <trkpt lat="-24.8096310" lon="-53.7197420">
        <ele>531.7</ele>
        <time>2018-09-14T19:25:36Z</time>
      </trkpt>
      <trkpt lat="-24.8096400" lon="-53.7197570">
        <ele>531.8</ele>
        <time>2018-09-14T19:25:37Z</time>
      </trkpt>
      <trkpt lat="-24.8096490" lon="-53.7197720">
        <ele>531.9</ele>
        <time>2018-09-14T19:25:38Z</time>
      </trkpt>
      <trkpt lat="-24.8096580" lon="-53.7197870">
        <ele>532.0</ele>
        <time>2018-09-14T19:25:39Z</time>
      </trkpt>
      <trkpt lat="-24.8096650" lon="-53.7198020">
        <ele>532.1</ele>
        <time>2018-09-14T19:25:40Z</time>
      </trkpt>
      <trkpt lat="-24.8096730" lon="-53.7198170">
        <ele>532.2</ele>
        <time>2018-09-14T19:25:41Z</time>
      </trkpt>
      <trkpt lat="-24.8096810" lon="-53.7198300">
        <ele>532.2</ele>
        <time>2018-09-14T19:25:42Z</time>
      </trkpt>
      <trkpt lat="-24.8096900" lon="-53.7198430">
        <ele>532.3</ele>
        <time>2018-09-14T19:25:43Z</time>
      </trkpt>
      <trkpt lat="-24.8096980" lon="-53.7198580">
        <ele>532.4</ele>
        <time>2018-09-14T19:25:44Z</time>
      </trkpt>
      <trkpt lat="-24.8097070" lon="-53.7198740">
        <ele>532.5</ele>
        <time>2018-09-14T19:25:45Z</time>
      </trkpt>
      <trkpt lat="-24.8097150" lon="-53.7198900">
        <ele>532.6</ele>
        <time>2018-09-14T19:25:46Z</time>
      </trkpt>
      <trkpt lat="-24.8097260" lon="-53.7199070">
        <ele>532.7</ele>
        <time>2018-09-14T19:25:47Z</time>
      </trkpt>
      <trkpt lat="-24.8097360" lon="-53.7199250">
        <ele>532.8</ele>
        <time>2018-09-14T19:25:48Z</time>
      </trkpt>
      <trkpt lat="-24.8097470" lon="-53.7199430">
        <ele>532.9</ele>
        <time>2018-09-14T19:25:49Z</time>
      </trkpt>
      <trkpt lat="-24.8097580" lon="-53.7199620">
        <ele>533.0</ele>
        <time>2018-09-14T19:25:50Z</time>
      </trkpt>
      <trkpt lat="-24.8097690" lon="-53.7199810">
        <ele>533.1</ele>
        <time>2018-09-14T19:25:51Z</time>
      </trkpt>
      <trkpt lat="-24.8097790" lon="-53.7200000">
        <ele>533.2</ele>
        <time>2018-09-14T19:25:52Z</time>
      </trkpt>
      <trkpt lat="-24.8097890" lon="-53.7200180">
        <ele>533.3</ele>
        <time>2018-09-14T19:25:53Z</time>
      </trkpt>
      <trkpt lat="-24.8097980" lon="-53.7200360">
        <ele>533.4</ele>
        <time>2018-09-14T19:25:54Z</time>
      </trkpt>
      <trkpt lat="-24.8098080" lon="-53.7200540">
        <ele>533.5</ele>
        <time>2018-09-14T19:25:55Z</time>
      </trkpt>
      <trkpt lat="-24.8098190" lon="-53.7200710">
        <ele>533.6</ele>
        <time>2018-09-14T19:25:56Z</time>
      </trkpt>
      <trkpt lat="-24.8098290" lon="-53.7200900">
        <ele>533.7</ele>
        <time>2018-09-14T19:25:57Z</time>
      </trkpt>
      <trkpt lat="-24.8098390" lon="-53.7201070">
        <ele>533.7</ele>
        <time>2018-09-14T19:25:58Z</time>
      </trkpt>
      <trkpt lat="-24.8098500" lon="-53.7201250">
        <ele>533.8</ele>
        <time>2018-09-14T19:25:59Z</time>
      </trkpt>
      <trkpt lat="-24.8098610" lon="-53.7201410">
        <ele>533.9</ele>
        <time>2018-09-14T19:26:00Z</time>
      </trkpt>
      <trkpt lat="-24.8098690" lon="-53.7201580">
        <ele>534.0</ele>
        <time>2018-09-14T19:26:01Z</time>
      </trkpt>
      <trkpt lat="-24.8098800" lon="-53.7201760">
        <ele>534.0</ele>
        <time>2018-09-14T19:26:02Z</time>
      </trkpt>
      <trkpt lat="-24.8098890" lon="-53.7201920">
        <ele>534.1</ele>
        <time>2018-09-14T19:26:03Z</time>
      </trkpt>
      <trkpt lat="-24.8098990" lon="-53.7202090">
        <ele>534.2</ele>
        <time>2018-09-14T19:26:04Z</time>
      </trkpt>
      <trkpt lat="-24.8099100" lon="-53.7202280">
        <ele>534.3</ele>
        <time>2018-09-14T19:26:05Z</time>
      </trkpt>
      <trkpt lat="-24.8099200" lon="-53.7202480">
        <ele>534.4</ele>
        <time>2018-09-14T19:26:06Z</time>
      </trkpt>
      <trkpt lat="-24.8099310" lon="-53.7202680">
        <ele>534.4</ele>
        <time>2018-09-14T19:26:07Z</time>
      </trkpt>
      <trkpt lat="-24.8099420" lon="-53.7202890">
        <ele>534.5</ele>
        <time>2018-09-14T19:26:08Z</time>
      </trkpt>
      <trkpt lat="-24.8099530" lon="-53.7203080">
        <ele>534.6</ele>
        <time>2018-09-14T19:26:09Z</time>
      </trkpt>
      <trkpt lat="-24.8099630" lon="-53.7203280">
        <ele>534.7</ele>
        <time>2018-09-14T19:26:10Z</time>
      </trkpt>
      <trkpt lat="-24.8099730" lon="-53.7203470">
        <ele>534.8</ele>
        <time>2018-09-14T19:26:11Z</time>
      </trkpt>
      <trkpt lat="-24.8099830" lon="-53.7203670">
        <ele>534.8</ele>
        <time>2018-09-14T19:26:12Z</time>
      </trkpt>
      <trkpt lat="-24.8099930" lon="-53.7203860">
        <ele>534.9</ele>
        <time>2018-09-14T19:26:13Z</time>
      </trkpt>
      <trkpt lat="-24.8100030" lon="-53.7204050">
        <ele>535.0</ele>
        <time>2018-09-14T19:26:14Z</time>
      </trkpt>
      <trkpt lat="-24.8100110" lon="-53.7204250">
        <ele>535.1</ele>
        <time>2018-09-14T19:26:15Z</time>
      </trkpt>
      <trkpt lat="-24.8100200" lon="-53.7204440">
        <ele>535.1</ele>
        <time>2018-09-14T19:26:16Z</time>
      </trkpt>
      <trkpt lat="-24.8100310" lon="-53.7204630">
        <ele>535.2</ele>
        <time>2018-09-14T19:26:17Z</time>
      </trkpt>
      <trkpt lat="-24.8100410" lon="-53.7204810">
        <ele>535.3</ele>
        <time>2018-09-14T19:26:18Z</time>
      </trkpt>
      <trkpt lat="-24.8100490" lon="-53.7205010">
        <ele>535.4</ele>
        <time>2018-09-14T19:26:19Z</time>
      </trkpt>
      <trkpt lat="-24.8100580" lon="-53.7205180">
        <ele>535.4</ele>
        <time>2018-09-14T19:26:20Z</time>
      </trkpt>
      <trkpt lat="-24.8100580" lon="-53.7205180">
        <ele>535.4</ele>
        <time>2018-09-14T19:26:21Z</time>
      </trkpt>
      <trkpt lat="-24.8100670" lon="-53.7205340">
        <ele>535.5</ele>
        <time>2018-09-14T19:26:22Z</time>
      </trkpt>
      <trkpt lat="-24.8100740" lon="-53.7205500">
        <ele>535.5</ele>
        <time>2018-09-14T19:26:23Z</time>
      </trkpt>
      <trkpt lat="-24.8100820" lon="-53.7205650">
        <ele>535.6</ele>
        <time>2018-09-14T19:26:24Z</time>
      </trkpt>
      <trkpt lat="-24.8100910" lon="-53.7205810">
        <ele>535.7</ele>
        <time>2018-09-14T19:26:25Z</time>
      </trkpt>
      <trkpt lat="-24.8101010" lon="-53.7206000">
        <ele>535.7</ele>
        <time>2018-09-14T19:26:26Z</time>
      </trkpt>
      <trkpt lat="-24.8101120" lon="-53.7206200">
        <ele>535.8</ele>
        <time>2018-09-14T19:26:27Z</time>
      </trkpt>
      <trkpt lat="-24.8101240" lon="-53.7206390">
        <ele>535.9</ele>
        <time>2018-09-14T19:26:28Z</time>
      </trkpt>
      <trkpt lat="-24.8101330" lon="-53.7206600">
        <ele>536.0</ele>
        <time>2018-09-14T19:26:29Z</time>
      </trkpt>
      <trkpt lat="-24.8101430" lon="-53.7206800">
        <ele>536.1</ele>
        <time>2018-09-14T19:26:30Z</time>
      </trkpt>
      <trkpt lat="-24.8101520" lon="-53.7207010">
        <ele>536.2</ele>
        <time>2018-09-14T19:26:31Z</time>
      </trkpt>
      <trkpt lat="-24.8101620" lon="-53.7207210">
        <ele>536.2</ele>
        <time>2018-09-14T19:26:32Z</time>
      </trkpt>
      <trkpt lat="-24.8101730" lon="-53.7207410">
        <ele>536.3</ele>
        <time>2018-09-14T19:26:33Z</time>
      </trkpt>
      <trkpt lat="-24.8101830" lon="-53.7207590">
        <ele>536.4</ele>
        <time>2018-09-14T19:26:34Z</time>
      </trkpt>
      <trkpt lat="-24.8101920" lon="-53.7207770">
        <ele>536.5</ele>
        <time>2018-09-14T19:26:35Z</time>
      </trkpt>
      <trkpt lat="-24.8102010" lon="-53.7207960">
        <ele>536.6</ele>
        <time>2018-09-14T19:26:36Z</time>
      </trkpt>
      <trkpt lat="-24.8102100" lon="-53.7208150">
        <ele>536.6</ele>
        <time>2018-09-14T19:26:37Z</time>
      </trkpt>
      <trkpt lat="-24.8102170" lon="-53.7208350">
        <ele>536.7</ele>
        <time>2018-09-14T19:26:38Z</time>
      </trkpt>
      <trkpt lat="-24.8102270" lon="-53.7208530">
        <ele>536.8</ele>
        <time>2018-09-14T19:26:39Z</time>
      </trkpt>
      <trkpt lat="-24.8102360" lon="-53.7208700">
        <ele>536.9</ele>
        <time>2018-09-14T19:26:40Z</time>
      </trkpt>
      <trkpt lat="-24.8102460" lon="-53.7208860">
        <ele>536.9</ele>
        <time>2018-09-14T19:26:41Z</time>
      </trkpt>
      <trkpt lat="-24.8102550" lon="-53.7209030">
        <ele>537.0</ele>
        <time>2018-09-14T19:26:42Z</time>
      </trkpt>
      <trkpt lat="-24.8102640" lon="-53.7209210">
        <ele>537.1</ele>
        <time>2018-09-14T19:26:43Z</time>
      </trkpt>
      <trkpt lat="-24.8102740" lon="-53.7209400">
        <ele>537.1</ele>
        <time>2018-09-14T19:26:44Z</time>
      </trkpt>
      <trkpt lat="-24.8102840" lon="-53.7209590">
        <ele>537.2</ele>
        <time>2018-09-14T19:26:45Z</time>
      </trkpt>
      <trkpt lat="-24.8102940" lon="-53.7209790">
        <ele>537.3</ele>
        <time>2018-09-14T19:26:46Z</time>
      </trkpt>
      <trkpt lat="-24.8103030" lon="-53.7210000">
        <ele>537.4</ele>
        <time>2018-09-14T19:26:47Z</time>
      </trkpt>
      <trkpt lat="-24.8103130" lon="-53.7210210">
        <ele>537.5</ele>
        <time>2018-09-14T19:26:48Z</time>
      </trkpt>
      <trkpt lat="-24.8103230" lon="-53.7210420">
        <ele>537.5</ele>
        <time>2018-09-14T19:26:49Z</time>
      </trkpt>
      <trkpt lat="-24.8103330" lon="-53.7210620">
        <ele>537.6</ele>
        <time>2018-09-14T19:26:50Z</time>
      </trkpt>
      <trkpt lat="-24.8103430" lon="-53.7210830">
        <ele>537.7</ele>
        <time>2018-09-14T19:26:51Z</time>
      </trkpt>
      <trkpt lat="-24.8103510" lon="-53.7211020">
        <ele>537.8</ele>
        <time>2018-09-14T19:26:52Z</time>
      </trkpt>
      <trkpt lat="-24.8103600" lon="-53.7211210">
        <ele>537.8</ele>
        <time>2018-09-14T19:26:53Z</time>
      </trkpt>
      <trkpt lat="-24.8103700" lon="-53.7211390">
        <ele>537.9</ele>
        <time>2018-09-14T19:26:54Z</time>
      </trkpt>
      <trkpt lat="-24.8103800" lon="-53.7211580">
        <ele>537.9</ele>
        <time>2018-09-14T19:26:55Z</time>
      </trkpt>
      <trkpt lat="-24.8103900" lon="-53.7211760">
        <ele>538.0</ele>
        <time>2018-09-14T19:26:56Z</time>
      </trkpt>
      <trkpt lat="-24.8103990" lon="-53.7211950">
        <ele>538.0</ele>
        <time>2018-09-14T19:26:57Z</time>
      </trkpt>
      <trkpt lat="-24.8104070" lon="-53.7212140">
        <ele>538.0</ele>
        <time>2018-09-14T19:26:58Z</time>
      </trkpt>
      <trkpt lat="-24.8104150" lon="-53.7212320">
        <ele>538.1</ele>
        <time>2018-09-14T19:26:59Z</time>
      </trkpt>
      <trkpt lat="-24.8104230" lon="-53.7212480">
        <ele>538.1</ele>
        <time>2018-09-14T19:27:00Z</time>
      </trkpt>
      <trkpt lat="-24.8104320" lon="-53.7212620">
        <ele>538.1</ele>
        <time>2018-09-14T19:27:01Z</time>
      </trkpt>
      <trkpt lat="-24.8104400" lon="-53.7212770">
        <ele>538.1</ele>
        <time>2018-09-14T19:27:02Z</time>
      </trkpt>
      <trkpt lat="-24.8104490" lon="-53.7212940">
        <ele>538.2</ele>
        <time>2018-09-14T19:27:03Z</time>
      </trkpt>
      <trkpt lat="-24.8104580" lon="-53.7213130">
        <ele>538.2</ele>
        <time>2018-09-14T19:27:04Z</time>
      </trkpt>
      <trkpt lat="-24.8104660" lon="-53.7213320">
        <ele>538.2</ele>
        <time>2018-09-14T19:27:05Z</time>
      </trkpt>
      <trkpt lat="-24.8104760" lon="-53.7213530">
        <ele>538.3</ele>
        <time>2018-09-14T19:27:06Z</time>
      </trkpt>
      <trkpt lat="-24.8104860" lon="-53.7213740">
        <ele>538.3</ele>
        <time>2018-09-14T19:27:07Z</time>
      </trkpt>
      <trkpt lat="-24.8104980" lon="-53.7213960">
        <ele>538.3</ele>
        <time>2018-09-14T19:27:08Z</time>
      </trkpt>
      <trkpt lat="-24.8105080" lon="-53.7214180">
        <ele>538.4</ele>
        <time>2018-09-14T19:27:09Z</time>
      </trkpt>
      <trkpt lat="-24.8105190" lon="-53.7214390">
        <ele>538.4</ele>
        <time>2018-09-14T19:27:10Z</time>
      </trkpt>
      <trkpt lat="-24.8105290" lon="-53.7214610">
        <ele>538.5</ele>
        <time>2018-09-14T19:27:11Z</time>
      </trkpt>
      <trkpt lat="-24.8105380" lon="-53.7214820">
        <ele>538.5</ele>
        <time>2018-09-14T19:27:12Z</time>
      </trkpt>
      <trkpt lat="-24.8105490" lon="-53.7215020">
        <ele>538.5</ele>
        <time>2018-09-14T19:27:13Z</time>
      </trkpt>
      <trkpt lat="-24.8105600" lon="-53.7215230">
        <ele>538.6</ele>
        <time>2018-09-14T19:27:14Z</time>
      </trkpt>
      <trkpt lat="-24.8105710" lon="-53.7215430">
        <ele>538.6</ele>
        <time>2018-09-14T19:27:15Z</time>
      </trkpt>
      <trkpt lat="-24.8105800" lon="-53.7215630">
        <ele>538.7</ele>
        <time>2018-09-14T19:27:16Z</time>
      </trkpt>
      <trkpt lat="-24.8105900" lon="-53.7215820">
        <ele>538.8</ele>
        <time>2018-09-14T19:27:17Z</time>
      </trkpt>
      <trkpt lat="-24.8106000" lon="-53.7216010">
        <ele>538.8</ele>
        <time>2018-09-14T19:27:18Z</time>
      </trkpt>
      <trkpt lat="-24.8106090" lon="-53.7216200">
        <ele>538.9</ele>
        <time>2018-09-14T19:27:19Z</time>
      </trkpt>
      <trkpt lat="-24.8106180" lon="-53.7216410">
        <ele>539.0</ele>
        <time>2018-09-14T19:27:20Z</time>
      </trkpt>
      <trkpt lat="-24.8106270" lon="-53.7216640">
        <ele>539.1</ele>
        <time>2018-09-14T19:27:21Z</time>
      </trkpt>
      <trkpt lat="-24.8106380" lon="-53.7216860">
        <ele>539.2</ele>
        <time>2018-09-14T19:27:22Z</time>
      </trkpt>
      <trkpt lat="-24.8106490" lon="-53.7217090">
        <ele>539.3</ele>
        <time>2018-09-14T19:27:23Z</time>
      </trkpt>
      <trkpt lat="-24.8106600" lon="-53.7217320">
        <ele>539.4</ele>
        <time>2018-09-14T19:27:24Z</time>
      </trkpt>
      <trkpt lat="-24.8106710" lon="-53.7217540">
        <ele>539.5</ele>
        <time>2018-09-14T19:27:25Z</time>
      </trkpt>
      <trkpt lat="-24.8106820" lon="-53.7217750">
        <ele>539.5</ele>
        <time>2018-09-14T19:27:26Z</time>
      </trkpt>
      <trkpt lat="-24.8106930" lon="-53.7217950">
        <ele>539.6</ele>
        <time>2018-09-14T19:27:27Z</time>
      </trkpt>
      <trkpt lat="-24.8107040" lon="-53.7218150">
        <ele>539.7</ele>
        <time>2018-09-14T19:27:28Z</time>
      </trkpt>
      <trkpt lat="-24.8107150" lon="-53.7218360">
        <ele>539.8</ele>
        <time>2018-09-14T19:27:29Z</time>
      </trkpt>
      <trkpt lat="-24.8107240" lon="-53.7218570">
        <ele>539.9</ele>
        <time>2018-09-14T19:27:30Z</time>
      </trkpt>
      <trkpt lat="-24.8107330" lon="-53.7218790">
        <ele>540.0</ele>
        <time>2018-09-14T19:27:31Z</time>
      </trkpt>
      <trkpt lat="-24.8107420" lon="-53.7219010">
        <ele>540.1</ele>
        <time>2018-09-14T19:27:32Z</time>
      </trkpt>
      <trkpt lat="-24.8107520" lon="-53.7219220">
        <ele>540.2</ele>
        <time>2018-09-14T19:27:33Z</time>
      </trkpt>
      <trkpt lat="-24.8107620" lon="-53.7219420">
        <ele>540.2</ele>
        <time>2018-09-14T19:27:34Z</time>
      </trkpt>
      <trkpt lat="-24.8107710" lon="-53.7219640">
        <ele>540.3</ele>
        <time>2018-09-14T19:27:35Z</time>
      </trkpt>
      <trkpt lat="-24.8107800" lon="-53.7219850">
        <ele>540.4</ele>
        <time>2018-09-14T19:27:36Z</time>
      </trkpt>
      <trkpt lat="-24.8107890" lon="-53.7220050">
        <ele>540.4</ele>
        <time>2018-09-14T19:27:37Z</time>
      </trkpt>
      <trkpt lat="-24.8107990" lon="-53.7220240">
        <ele>540.5</ele>
        <time>2018-09-14T19:27:38Z</time>
      </trkpt>
      <trkpt lat="-24.8108090" lon="-53.7220430">
        <ele>540.6</ele>
        <time>2018-09-14T19:27:39Z</time>
      </trkpt>
      <trkpt lat="-24.8108200" lon="-53.7220640">
        <ele>540.6</ele>
        <time>2018-09-14T19:27:40Z</time>
      </trkpt>
      <trkpt lat="-24.8108310" lon="-53.7220850">
        <ele>540.7</ele>
        <time>2018-09-14T19:27:41Z</time>
      </trkpt>
      <trkpt lat="-24.8108420" lon="-53.7221050">
        <ele>540.8</ele>
        <time>2018-09-14T19:27:42Z</time>
      </trkpt>
      <trkpt lat="-24.8108510" lon="-53.7221250">
        <ele>540.9</ele>
        <time>2018-09-14T19:27:43Z</time>
      </trkpt>
      <trkpt lat="-24.8108590" lon="-53.7221450">
        <ele>541.0</ele>
        <time>2018-09-14T19:27:44Z</time>
      </trkpt>
      <trkpt lat="-24.8108670" lon="-53.7221680">
        <ele>541.1</ele>
        <time>2018-09-14T19:27:45Z</time>
      </trkpt>
      <trkpt lat="-24.8108770" lon="-53.7221920">
        <ele>541.2</ele>
        <time>2018-09-14T19:27:46Z</time>
      </trkpt>
      <trkpt lat="-24.8108890" lon="-53.7222170">
        <ele>541.3</ele>
        <time>2018-09-14T19:27:47Z</time>
      </trkpt>
      <trkpt lat="-24.8109000" lon="-53.7222420">
        <ele>541.4</ele>
        <time>2018-09-14T19:27:48Z</time>
      </trkpt>
      <trkpt lat="-24.8109130" lon="-53.7222680">
        <ele>541.5</ele>
        <time>2018-09-14T19:27:49Z</time>
      </trkpt>
      <trkpt lat="-24.8109250" lon="-53.7222940">
        <ele>541.7</ele>
        <time>2018-09-14T19:27:50Z</time>
      </trkpt>
      <trkpt lat="-24.8109370" lon="-53.7223190">
        <ele>541.8</ele>
        <time>2018-09-14T19:27:51Z</time>
      </trkpt>
      <trkpt lat="-24.8109490" lon="-53.7223430">
        <ele>541.9</ele>
        <time>2018-09-14T19:27:52Z</time>
      </trkpt>
      <trkpt lat="-24.8109610" lon="-53.7223670">
        <ele>542.0</ele>
        <time>2018-09-14T19:27:53Z</time>
      </trkpt>
      <trkpt lat="-24.8109730" lon="-53.7223900">
        <ele>542.1</ele>
        <time>2018-09-14T19:27:54Z</time>
      </trkpt>
      <trkpt lat="-24.8109840" lon="-53.7224120">
        <ele>542.2</ele>
        <time>2018-09-14T19:27:55Z</time>
      </trkpt>
      <trkpt lat="-24.8109960" lon="-53.7224340">
        <ele>542.3</ele>
        <time>2018-09-14T19:27:56Z</time>
      </trkpt>
      <trkpt lat="-24.8110080" lon="-53.7224560">
        <ele>542.4</ele>
        <time>2018-09-14T19:27:57Z</time>
      </trkpt>
      <trkpt lat="-24.8110190" lon="-53.7224770">
        <ele>542.4</ele>
        <time>2018-09-14T19:27:58Z</time>
      </trkpt>
      <trkpt lat="-24.8110380" lon="-53.7225180">
        <ele>542.6</ele>
        <time>2018-09-14T19:27:59Z</time>
      </trkpt>
      <trkpt lat="-24.8110490" lon="-53.7225370">
        <ele>542.6</ele>
        <time>2018-09-14T19:28:01Z</time>
      </trkpt>
      <trkpt lat="-24.8110580" lon="-53.7225560">
        <ele>542.6</ele>
        <time>2018-09-14T19:28:02Z</time>
      </trkpt>
      <trkpt lat="-24.8110670" lon="-53.7225730">
        <ele>542.7</ele>
        <time>2018-09-14T19:28:03Z</time>
      </trkpt>
      <trkpt lat="-24.8110760" lon="-53.7225900">
        <ele>542.7</ele>
        <time>2018-09-14T19:28:04Z</time>
      </trkpt>
      <trkpt lat="-24.8110830" lon="-53.7226080">
        <ele>542.7</ele>
        <time>2018-09-14T19:28:05Z</time>
      </trkpt>
      <trkpt lat="-24.8110920" lon="-53.7226260">
        <ele>542.7</ele>
        <time>2018-09-14T19:28:06Z</time>
      </trkpt>
      <trkpt lat="-24.8111000" lon="-53.7226460">
        <ele>542.8</ele>
        <time>2018-09-14T19:28:07Z</time>
      </trkpt>
      <trkpt lat="-24.8111080" lon="-53.7226660">
        <ele>542.8</ele>
        <time>2018-09-14T19:28:08Z</time>
      </trkpt>
      <trkpt lat="-24.8111140" lon="-53.7226900">
        <ele>542.8</ele>
        <time>2018-09-14T19:28:09Z</time>
      </trkpt>
      <trkpt lat="-24.8111200" lon="-53.7227440">
        <ele>542.9</ele>
        <time>2018-09-14T19:28:10Z</time>
      </trkpt>
      <trkpt lat="-24.8111210" lon="-53.7227710">
        <ele>542.9</ele>
        <time>2018-09-14T19:28:11Z</time>
      </trkpt>
      <trkpt lat="-24.8111200" lon="-53.7227980">
        <ele>542.9</ele>
        <time>2018-09-14T19:28:12Z</time>
      </trkpt>
      <trkpt lat="-24.8111160" lon="-53.7228230">
        <ele>543.0</ele>
        <time>2018-09-14T19:28:13Z</time>
      </trkpt>
      <trkpt lat="-24.8111080" lon="-53.7228470">
        <ele>543.0</ele>
        <time>2018-09-14T19:28:14Z</time>
      </trkpt>
      <trkpt lat="-24.8110970" lon="-53.7228690">
        <ele>543.0</ele>
        <time>2018-09-14T19:28:15Z</time>
      </trkpt>
      <trkpt lat="-24.8110830" lon="-53.7228900">
        <ele>543.0</ele>
        <time>2018-09-14T19:28:16Z</time>
      </trkpt>
      <trkpt lat="-24.8110670" lon="-53.7229080">
        <ele>543.0</ele>
        <time>2018-09-14T19:28:17Z</time>
      </trkpt>
      <trkpt lat="-24.8110490" lon="-53.7229230">
        <ele>543.0</ele>
        <time>2018-09-14T19:28:18Z</time>
      </trkpt>
      <trkpt lat="-24.8110290" lon="-53.7229360">
        <ele>543.0</ele>
        <time>2018-09-14T19:28:19Z</time>
      </trkpt>
      <trkpt lat="-24.8110090" lon="-53.7229460">
        <ele>543.0</ele>
        <time>2018-09-14T19:28:20Z</time>
      </trkpt>
      <trkpt lat="-24.8109690" lon="-53.7229640">
        <ele>543.0</ele>
        <time>2018-09-14T19:28:22Z</time>
      </trkpt>
      <trkpt lat="-24.8109490" lon="-53.7229720">
        <ele>543.0</ele>
        <time>2018-09-14T19:28:23Z</time>
      </trkpt>
      <trkpt lat="-24.8109290" lon="-53.7229820">
        <ele>543.0</ele>
        <time>2018-09-14T19:28:24Z</time>
      </trkpt>
      <trkpt lat="-24.8109080" lon="-53.7229970">
        <ele>543.0</ele>
        <time>2018-09-14T19:28:25Z</time>
      </trkpt>
      <trkpt lat="-24.8108860" lon="-53.7230090">
        <ele>543.0</ele>
        <time>2018-09-14T19:28:26Z</time>
      </trkpt>
      <trkpt lat="-24.8108630" lon="-53.7230200">
        <ele>543.0</ele>
        <time>2018-09-14T19:28:27Z</time>
      </trkpt>
      <trkpt lat="-24.8108380" lon="-53.7230270">
        <ele>543.0</ele>
        <time>2018-09-14T19:28:28Z</time>
      </trkpt>
      <trkpt lat="-24.8108110" lon="-53.7230340">
        <ele>543.0</ele>
        <time>2018-09-14T19:28:29Z</time>
      </trkpt>
      <trkpt lat="-24.8107840" lon="-53.7230420">
        <ele>543.1</ele>
        <time>2018-09-14T19:28:30Z</time>
      </trkpt>
      <trkpt lat="-24.8107550" lon="-53.7230490">
        <ele>543.1</ele>
        <time>2018-09-14T19:28:31Z</time>
      </trkpt>
      <trkpt lat="-24.8107250" lon="-53.7230570">
        <ele>543.1</ele>
        <time>2018-09-14T19:28:32Z</time>
      </trkpt>
      <trkpt lat="-24.8106940" lon="-53.7230640">
        <ele>543.1</ele>
        <time>2018-09-14T19:28:33Z</time>
      </trkpt>
      <trkpt lat="-24.8106600" lon="-53.7230710">
        <ele>543.1</ele>
        <time>2018-09-14T19:28:34Z</time>
      </trkpt>
      <trkpt lat="-24.8106260" lon="-53.7230780">
        <ele>543.1</ele>
        <time>2018-09-14T19:28:35Z</time>
      </trkpt>
      <trkpt lat="-24.8105920" lon="-53.7230840">
        <ele>543.1</ele>
        <time>2018-09-14T19:28:36Z</time>
      </trkpt>
      <trkpt lat="-24.8105570" lon="-53.7230900">
        <ele>543.1</ele>
        <time>2018-09-14T19:28:37Z</time>
      </trkpt>
      <trkpt lat="-24.8105230" lon="-53.7230970">
        <ele>543.2</ele>
        <time>2018-09-14T19:28:38Z</time>
      </trkpt>
      <trkpt lat="-24.8104890" lon="-53.7231040">
        <ele>543.2</ele>
        <time>2018-09-14T19:28:39Z</time>
      </trkpt>
      <trkpt lat="-24.8104560" lon="-53.7231140">
        <ele>543.2</ele>
        <time>2018-09-14T19:28:40Z</time>
      </trkpt>
      <trkpt lat="-24.8103920" lon="-53.7231320">
        <ele>543.2</ele>
        <time>2018-09-14T19:28:42Z</time>
      </trkpt>
      <trkpt lat="-24.8103600" lon="-53.7231390">
        <ele>543.2</ele>
        <time>2018-09-14T19:28:43Z</time>
      </trkpt>
      <trkpt lat="-24.8103290" lon="-53.7231430">
        <ele>543.2</ele>
        <time>2018-09-14T19:28:44Z</time>
      </trkpt>
      <trkpt lat="-24.8102970" lon="-53.7231480">
        <ele>543.2</ele>
        <time>2018-09-14T19:28:45Z</time>
      </trkpt>
      <trkpt lat="-24.8102660" lon="-53.7231540">
        <ele>543.3</ele>
        <time>2018-09-14T19:28:46Z</time>
      </trkpt>
      <trkpt lat="-24.8102350" lon="-53.7231610">
        <ele>543.3</ele>
        <time>2018-09-14T19:28:47Z</time>
      </trkpt>
      <trkpt lat="-24.8102040" lon="-53.7231690">
        <ele>543.4</ele>
        <time>2018-09-14T19:28:48Z</time>
      </trkpt>
      <trkpt lat="-24.8101720" lon="-53.7231780">
        <ele>543.4</ele>
        <time>2018-09-14T19:28:49Z</time>
      </trkpt>
      <trkpt lat="-24.8101400" lon="-53.7231870">
        <ele>543.5</ele>
        <time>2018-09-14T19:28:50Z</time>
      </trkpt>
      <trkpt lat="-24.8101060" lon="-53.7231960">
        <ele>543.5</ele>
        <time>2018-09-14T19:28:51Z</time>
      </trkpt>
      <trkpt lat="-24.8100730" lon="-53.7232060">
        <ele>543.5</ele>
        <time>2018-09-14T19:28:52Z</time>
      </trkpt>
      <trkpt lat="-24.8100410" lon="-53.7232170">
        <ele>543.5</ele>
        <time>2018-09-14T19:28:53Z</time>
      </trkpt>
      <trkpt lat="-24.8100100" lon="-53.7232280">
        <ele>543.6</ele>
        <time>2018-09-14T19:28:54Z</time>
      </trkpt>
      <trkpt lat="-24.8099780" lon="-53.7232400">
        <ele>543.6</ele>
        <time>2018-09-14T19:28:55Z</time>
      </trkpt>
      <trkpt lat="-24.8099460" lon="-53.7232520">
        <ele>543.6</ele>
        <time>2018-09-14T19:28:56Z</time>
      </trkpt>
      <trkpt lat="-24.8099150" lon="-53.7232630">
        <ele>543.7</ele>
        <time>2018-09-14T19:28:57Z</time>
      </trkpt>
      <trkpt lat="-24.8098840" lon="-53.7232730">
        <ele>543.7</ele>
        <time>2018-09-14T19:28:58Z</time>
      </trkpt>
      <trkpt lat="-24.8098530" lon="-53.7232850">
        <ele>543.7</ele>
        <time>2018-09-14T19:28:59Z</time>
      </trkpt>
      <trkpt lat="-24.8098220" lon="-53.7232980">
        <ele>543.8</ele>
        <time>2018-09-14T19:29:00Z</time>
      </trkpt>
      <trkpt lat="-24.8097930" lon="-53.7233120">
        <ele>543.8</ele>
        <time>2018-09-14T19:29:01Z</time>
      </trkpt>
      <trkpt lat="-24.8097630" lon="-53.7233250">
        <ele>543.8</ele>
        <time>2018-09-14T19:29:02Z</time>
      </trkpt>
      <trkpt lat="-24.8097340" lon="-53.7233390">
        <ele>543.8</ele>
        <time>2018-09-14T19:29:03Z</time>
      </trkpt>
      <trkpt lat="-24.8097060" lon="-53.7233530">
        <ele>543.9</ele>
        <time>2018-09-14T19:29:04Z</time>
      </trkpt>
      <trkpt lat="-24.8096770" lon="-53.7233660">
        <ele>543.9</ele>
        <time>2018-09-14T19:29:05Z</time>
      </trkpt>
      <trkpt lat="-24.8096470" lon="-53.7233790">
        <ele>543.9</ele>
        <time>2018-09-14T19:29:06Z</time>
      </trkpt>
      <trkpt lat="-24.8096170" lon="-53.7233930">
        <ele>544.0</ele>
        <time>2018-09-14T19:29:07Z</time>
      </trkpt>
      <trkpt lat="-24.8095860" lon="-53.7234080">
        <ele>544.1</ele>
        <time>2018-09-14T19:29:08Z</time>
      </trkpt>
      <trkpt lat="-24.8095560" lon="-53.7234230">
        <ele>544.1</ele>
        <time>2018-09-14T19:29:09Z</time>
      </trkpt>
      <trkpt lat="-24.8095260" lon="-53.7234390">
        <ele>544.2</ele>
        <time>2018-09-14T19:29:10Z</time>
      </trkpt>
      <trkpt lat="-24.8094960" lon="-53.7234550">
        <ele>544.3</ele>
        <time>2018-09-14T19:29:11Z</time>
      </trkpt>
      <trkpt lat="-24.8094650" lon="-53.7234710">
        <ele>544.3</ele>
        <time>2018-09-14T19:29:12Z</time>
      </trkpt>
      <trkpt lat="-24.8094350" lon="-53.7234860">
        <ele>544.4</ele>
        <time>2018-09-14T19:29:13Z</time>
      </trkpt>
      <trkpt lat="-24.8094040" lon="-53.7235010">
        <ele>544.5</ele>
        <time>2018-09-14T19:29:14Z</time>
      </trkpt>
      <trkpt lat="-24.8093720" lon="-53.7235170">
        <ele>544.5</ele>
        <time>2018-09-14T19:29:15Z</time>
      </trkpt>
      <trkpt lat="-24.8093400" lon="-53.7235320">
        <ele>544.6</ele>
        <time>2018-09-14T19:29:16Z</time>
      </trkpt>
      <trkpt lat="-24.8093090" lon="-53.7235460">
        <ele>544.7</ele>
        <time>2018-09-14T19:29:17Z</time>
      </trkpt>
      <trkpt lat="-24.8092800" lon="-53.7235600">
        <ele>544.7</ele>
        <time>2018-09-14T19:29:18Z</time>
      </trkpt>
      <trkpt lat="-24.8092520" lon="-53.7235740">
        <ele>544.8</ele>
        <time>2018-09-14T19:29:19Z</time>
      </trkpt>
      <trkpt lat="-24.8092250" lon="-53.7235890">
        <ele>544.8</ele>
        <time>2018-09-14T19:29:20Z</time>
      </trkpt>
      <trkpt lat="-24.8091980" lon="-53.7236030">
        <ele>544.9</ele>
        <time>2018-09-14T19:29:21Z</time>
      </trkpt>
      <trkpt lat="-24.8091700" lon="-53.7236150">
        <ele>544.9</ele>
        <time>2018-09-14T19:29:22Z</time>
      </trkpt>
      <trkpt lat="-24.8091400" lon="-53.7236300">
        <ele>545.0</ele>
        <time>2018-09-14T19:29:23Z</time>
      </trkpt>
      <trkpt lat="-24.8091120" lon="-53.7236450">
        <ele>545.0</ele>
        <time>2018-09-14T19:29:24Z</time>
      </trkpt>
      <trkpt lat="-24.8090820" lon="-53.7236610">
        <ele>545.1</ele>
        <time>2018-09-14T19:29:25Z</time>
      </trkpt>
      <trkpt lat="-24.8090510" lon="-53.7236760">
        <ele>545.1</ele>
        <time>2018-09-14T19:29:26Z</time>
      </trkpt>
      <trkpt lat="-24.8090210" lon="-53.7236930">
        <ele>545.2</ele>
        <time>2018-09-14T19:29:27Z</time>
      </trkpt>
      <trkpt lat="-24.8089910" lon="-53.7237090">
        <ele>545.2</ele>
        <time>2018-09-14T19:29:28Z</time>
      </trkpt>
      <trkpt lat="-24.8089620" lon="-53.7237230">
        <ele>545.3</ele>
        <time>2018-09-14T19:29:29Z</time>
      </trkpt>
      <trkpt lat="-24.8089330" lon="-53.7237370">
        <ele>545.3</ele>
        <time>2018-09-14T19:29:30Z</time>
      </trkpt>
      <trkpt lat="-24.8089040" lon="-53.7237520">
        <ele>545.4</ele>
        <time>2018-09-14T19:29:31Z</time>
      </trkpt>
      <trkpt lat="-24.8088760" lon="-53.7237680">
        <ele>545.4</ele>
        <time>2018-09-14T19:29:32Z</time>
      </trkpt>
      <trkpt lat="-24.8088470" lon="-53.7237840">
        <ele>545.5</ele>
        <time>2018-09-14T19:29:33Z</time>
      </trkpt>
      <trkpt lat="-24.8088180" lon="-53.7238000">
        <ele>545.5</ele>
        <time>2018-09-14T19:29:34Z</time>
      </trkpt>
      <trkpt lat="-24.8087910" lon="-53.7238140">
        <ele>545.6</ele>
        <time>2018-09-14T19:29:35Z</time>
      </trkpt>
      <trkpt lat="-24.8087670" lon="-53.7238270">
        <ele>545.6</ele>
        <time>2018-09-14T19:29:36Z</time>
      </trkpt>
      <trkpt lat="-24.8087430" lon="-53.7238400">
        <ele>545.7</ele>
        <time>2018-09-14T19:29:37Z</time>
      </trkpt>
      <trkpt lat="-24.8087190" lon="-53.7238540">
        <ele>545.7</ele>
        <time>2018-09-14T19:29:38Z</time>
      </trkpt>
      <trkpt lat="-24.8086940" lon="-53.7238700">
        <ele>545.8</ele>
        <time>2018-09-14T19:29:39Z</time>
      </trkpt>
      <trkpt lat="-24.8086680" lon="-53.7238860">
        <ele>545.8</ele>
        <time>2018-09-14T19:29:40Z</time>
      </trkpt>
      <trkpt lat="-24.8086420" lon="-53.7239020">
        <ele>545.9</ele>
        <time>2018-09-14T19:29:41Z</time>
      </trkpt>
      <trkpt lat="-24.8086130" lon="-53.7239160">
        <ele>546.0</ele>
        <time>2018-09-14T19:29:42Z</time>
      </trkpt>
      <trkpt lat="-24.8085840" lon="-53.7239320">
        <ele>546.0</ele>
        <time>2018-09-14T19:29:43Z</time>
      </trkpt>
      <trkpt lat="-24.8085540" lon="-53.7239480">
        <ele>546.1</ele>
        <time>2018-09-14T19:29:44Z</time>
      </trkpt>
      <trkpt lat="-24.8085250" lon="-53.7239630">
        <ele>546.1</ele>
        <time>2018-09-14T19:29:45Z</time>
      </trkpt>
      <trkpt lat="-24.8084960" lon="-53.7239800">
        <ele>546.2</ele>
        <time>2018-09-14T19:29:46Z</time>
      </trkpt>
      <trkpt lat="-24.8084660" lon="-53.7239970">
        <ele>546.3</ele>
        <time>2018-09-14T19:29:47Z</time>
      </trkpt>
      <trkpt lat="-24.8084370" lon="-53.7240120">
        <ele>546.3</ele>
        <time>2018-09-14T19:29:48Z</time>
      </trkpt>
      <trkpt lat="-24.8084070" lon="-53.7240290">
        <ele>546.4</ele>
        <time>2018-09-14T19:29:49Z</time>
      </trkpt>
      <trkpt lat="-24.8083770" lon="-53.7240450">
        <ele>546.4</ele>
        <time>2018-09-14T19:29:50Z</time>
      </trkpt>
      <trkpt lat="-24.8083470" lon="-53.7240630">
        <ele>546.5</ele>
        <time>2018-09-14T19:29:51Z</time>
      </trkpt>
      <trkpt lat="-24.8083160" lon="-53.7240810">
        <ele>546.5</ele>
        <time>2018-09-14T19:29:52Z</time>
      </trkpt>
      <trkpt lat="-24.8082840" lon="-53.7240980">
        <ele>546.6</ele>
        <time>2018-09-14T19:29:53Z</time>
      </trkpt>
      <trkpt lat="-24.8082530" lon="-53.7241150">
        <ele>546.7</ele>
        <time>2018-09-14T19:29:54Z</time>
      </trkpt>
      <trkpt lat="-24.8082220" lon="-53.7241330">
        <ele>546.7</ele>
        <time>2018-09-14T19:29:55Z</time>
      </trkpt>
      <trkpt lat="-24.8081920" lon="-53.7241500">
        <ele>546.8</ele>
        <time>2018-09-14T19:29:56Z</time>
      </trkpt>
      <trkpt lat="-24.8081620" lon="-53.7241670">
        <ele>546.8</ele>
        <time>2018-09-14T19:29:57Z</time>
      </trkpt>
      <trkpt lat="-24.8081320" lon="-53.7241840">
        <ele>546.9</ele>
        <time>2018-09-14T19:29:58Z</time>
      </trkpt>
      <trkpt lat="-24.8081020" lon="-53.7242010">
        <ele>546.9</ele>
        <time>2018-09-14T19:29:59Z</time>
      </trkpt>
      <trkpt lat="-24.8080720" lon="-53.7242170">
        <ele>547.0</ele>
        <time>2018-09-14T19:30:00Z</time>
      </trkpt>
      <trkpt lat="-24.8080420" lon="-53.7242330">
        <ele>547.0</ele>
        <time>2018-09-14T19:30:01Z</time>
      </trkpt>
      <trkpt lat="-24.8080110" lon="-53.7242500">
        <ele>547.1</ele>
        <time>2018-09-14T19:30:02Z</time>
      </trkpt>
      <trkpt lat="-24.8079790" lon="-53.7242670">
        <ele>547.1</ele>
        <time>2018-09-14T19:30:03Z</time>
      </trkpt>
      <trkpt lat="-24.8079460" lon="-53.7242850">
        <ele>547.1</ele>
        <time>2018-09-14T19:30:04Z</time>
      </trkpt>
      <trkpt lat="-24.8079130" lon="-53.7243030">
        <ele>547.2</ele>
        <time>2018-09-14T19:30:05Z</time>
      </trkpt>
      <trkpt lat="-24.8078810" lon="-53.7243210">
        <ele>547.2</ele>
        <time>2018-09-14T19:30:06Z</time>
      </trkpt>
      <trkpt lat="-24.8078500" lon="-53.7243380">
        <ele>547.2</ele>
        <time>2018-09-14T19:30:07Z</time>
      </trkpt>
      <trkpt lat="-24.8078220" lon="-53.7243560">
        <ele>547.2</ele>
        <time>2018-09-14T19:30:08Z</time>
      </trkpt>
      <trkpt lat="-24.8077940" lon="-53.7243740">
        <ele>547.2</ele>
        <time>2018-09-14T19:30:09Z</time>
      </trkpt>
      <trkpt lat="-24.8077660" lon="-53.7243930">
        <ele>547.2</ele>
        <time>2018-09-14T19:30:10Z</time>
      </trkpt>
      <trkpt lat="-24.8077660" lon="-53.7243930">
        <ele>547.2</ele>
        <time>2018-09-14T19:30:11Z</time>
      </trkpt>
      <trkpt lat="-24.8077360" lon="-53.7244100">
        <ele>547.2</ele>
        <time>2018-09-14T19:30:12Z</time>
      </trkpt>
      <trkpt lat="-24.8077040" lon="-53.7244290">
        <ele>547.2</ele>
        <time>2018-09-14T19:30:13Z</time>
      </trkpt>
      <trkpt lat="-24.8076710" lon="-53.7244480">
        <ele>547.2</ele>
        <time>2018-09-14T19:30:14Z</time>
      </trkpt>
      <trkpt lat="-24.8076370" lon="-53.7244680">
        <ele>547.2</ele>
        <time>2018-09-14T19:30:15Z</time>
      </trkpt>
      <trkpt lat="-24.8076020" lon="-53.7244880">
        <ele>547.2</ele>
        <time>2018-09-14T19:30:16Z</time>
      </trkpt>
      <trkpt lat="-24.8075660" lon="-53.7245080">
        <ele>547.2</ele>
        <time>2018-09-14T19:30:17Z</time>
      </trkpt>
      <trkpt lat="-24.8075290" lon="-53.7245270">
        <ele>547.2</ele>
        <time>2018-09-14T19:30:18Z</time>
      </trkpt>
      <trkpt lat="-24.8074940" lon="-53.7245460">
        <ele>547.1</ele>
        <time>2018-09-14T19:30:19Z</time>
      </trkpt>
      <trkpt lat="-24.8074570" lon="-53.7245650">
        <ele>547.1</ele>
        <time>2018-09-14T19:30:20Z</time>
      </trkpt>
      <trkpt lat="-24.8074220" lon="-53.7245860">
        <ele>547.1</ele>
        <time>2018-09-14T19:30:21Z</time>
      </trkpt>
      <trkpt lat="-24.8073840" lon="-53.7246080">
        <ele>547.0</ele>
        <time>2018-09-14T19:30:22Z</time>
      </trkpt>
      <trkpt lat="-24.8073460" lon="-53.7246300">
        <ele>547.0</ele>
        <time>2018-09-14T19:30:23Z</time>
      </trkpt>
      <trkpt lat="-24.8073070" lon="-53.7246520">
        <ele>547.0</ele>
        <time>2018-09-14T19:30:24Z</time>
      </trkpt>
      <trkpt lat="-24.8072690" lon="-53.7246740">
        <ele>546.9</ele>
        <time>2018-09-14T19:30:25Z</time>
      </trkpt>
      <trkpt lat="-24.8072310" lon="-53.7246960">
        <ele>546.9</ele>
        <time>2018-09-14T19:30:26Z</time>
      </trkpt>
      <trkpt lat="-24.8071930" lon="-53.7247170">
        <ele>546.9</ele>
        <time>2018-09-14T19:30:27Z</time>
      </trkpt>
      <trkpt lat="-24.8071560" lon="-53.7247380">
        <ele>546.8</ele>
        <time>2018-09-14T19:30:28Z</time>
      </trkpt>
      <trkpt lat="-24.8071190" lon="-53.7247590">
        <ele>546.8</ele>
        <time>2018-09-14T19:30:29Z</time>
      </trkpt>
      <trkpt lat="-24.8070840" lon="-53.7247810">
        <ele>546.8</ele>
        <time>2018-09-14T19:30:30Z</time>
      </trkpt>
      <trkpt lat="-24.8070480" lon="-53.7248010">
        <ele>546.7</ele>
        <time>2018-09-14T19:30:31Z</time>
      </trkpt>
      <trkpt lat="-24.8070120" lon="-53.7248220">
        <ele>546.6</ele>
        <time>2018-09-14T19:30:32Z</time>
      </trkpt>
      <trkpt lat="-24.8069750" lon="-53.7248430">
        <ele>546.6</ele>
        <time>2018-09-14T19:30:33Z</time>
      </trkpt>
      <trkpt lat="-24.8069380" lon="-53.7248650">
        <ele>546.5</ele>
        <time>2018-09-14T19:30:34Z</time>
      </trkpt>
      <trkpt lat="-24.8069000" lon="-53.7248860">
        <ele>546.4</ele>
        <time>2018-09-14T19:30:35Z</time>
      </trkpt>
      <trkpt lat="-24.8068650" lon="-53.7249090">
        <ele>546.4</ele>
        <time>2018-09-14T19:30:36Z</time>
      </trkpt>
      <trkpt lat="-24.8068300" lon="-53.7249310">
        <ele>546.3</ele>
        <time>2018-09-14T19:30:37Z</time>
      </trkpt>
      <trkpt lat="-24.8067960" lon="-53.7249520">
        <ele>546.2</ele>
        <time>2018-09-14T19:30:38Z</time>
      </trkpt>
      <trkpt lat="-24.8067620" lon="-53.7249710">
        <ele>546.0</ele>
        <time>2018-09-14T19:30:39Z</time>
      </trkpt>
      <trkpt lat="-24.8067270" lon="-53.7249890">
        <ele>545.8</ele>
        <time>2018-09-14T19:30:40Z</time>
      </trkpt>
      <trkpt lat="-24.8066930" lon="-53.7250060">
        <ele>545.7</ele>
        <time>2018-09-14T19:30:41Z</time>
      </trkpt>
      <trkpt lat="-24.8066600" lon="-53.7250240">
        <ele>545.5</ele>
        <time>2018-09-14T19:30:42Z</time>
      </trkpt>
      <trkpt lat="-24.8066290" lon="-53.7250410">
        <ele>545.3</ele>
        <time>2018-09-14T19:30:43Z</time>
      </trkpt>
      <trkpt lat="-24.8066000" lon="-53.7250580">
        <ele>545.1</ele>
        <time>2018-09-14T19:30:44Z</time>
      </trkpt>
      <trkpt lat="-24.8065680" lon="-53.7250750">
        <ele>544.9</ele>
        <time>2018-09-14T19:30:45Z</time>
      </trkpt>
      <trkpt lat="-24.8065300" lon="-53.7250950">
        <ele>544.8</ele>
        <time>2018-09-14T19:30:46Z</time>
      </trkpt>
      <trkpt lat="-24.8064900" lon="-53.7251160">
        <ele>544.7</ele>
        <time>2018-09-14T19:30:47Z</time>
      </trkpt>
      <trkpt lat="-24.8064490" lon="-53.7251390">
        <ele>544.6</ele>
        <time>2018-09-14T19:30:48Z</time>
      </trkpt>
      <trkpt lat="-24.8064090" lon="-53.7251640">
        <ele>544.5</ele>
        <time>2018-09-14T19:30:49Z</time>
      </trkpt>
      <trkpt lat="-24.8063670" lon="-53.7251880">
        <ele>544.4</ele>
        <time>2018-09-14T19:30:50Z</time>
      </trkpt>
      <trkpt lat="-24.8063250" lon="-53.7252120">
        <ele>544.2</ele>
        <time>2018-09-14T19:30:51Z</time>
      </trkpt>
      <trkpt lat="-24.8062830" lon="-53.7252350">
        <ele>544.1</ele>
        <time>2018-09-14T19:30:52Z</time>
      </trkpt>
      <trkpt lat="-24.8062410" lon="-53.7252590">
        <ele>544.0</ele>
        <time>2018-09-14T19:30:53Z</time>
      </trkpt>
      <trkpt lat="-24.8062010" lon="-53.7252830">
        <ele>543.9</ele>
        <time>2018-09-14T19:30:54Z</time>
      </trkpt>
      <trkpt lat="-24.8061610" lon="-53.7253060">
        <ele>543.7</ele>
        <time>2018-09-14T19:30:55Z</time>
      </trkpt>
      <trkpt lat="-24.8061200" lon="-53.7253270">
        <ele>543.6</ele>
        <time>2018-09-14T19:30:56Z</time>
      </trkpt>
      <trkpt lat="-24.8060800" lon="-53.7253480">
        <ele>543.4</ele>
        <time>2018-09-14T19:30:57Z</time>
      </trkpt>
      <trkpt lat="-24.8060390" lon="-53.7253700">
        <ele>543.3</ele>
        <time>2018-09-14T19:30:58Z</time>
      </trkpt>
      <trkpt lat="-24.8059970" lon="-53.7253920">
        <ele>543.2</ele>
        <time>2018-09-14T19:30:59Z</time>
      </trkpt>
      <trkpt lat="-24.8059550" lon="-53.7254150">
        <ele>543.1</ele>
        <time>2018-09-14T19:31:00Z</time>
      </trkpt>
      <trkpt lat="-24.8059130" lon="-53.7254380">
        <ele>543.1</ele>
        <time>2018-09-14T19:31:01Z</time>
      </trkpt>
      <trkpt lat="-24.8058700" lon="-53.7254610">
        <ele>543.0</ele>
        <time>2018-09-14T19:31:02Z</time>
      </trkpt>
      <trkpt lat="-24.8058280" lon="-53.7254850">
        <ele>543.0</ele>
        <time>2018-09-14T19:31:03Z</time>
      </trkpt>
      <trkpt lat="-24.8057850" lon="-53.7255090">
        <ele>543.0</ele>
        <time>2018-09-14T19:31:04Z</time>
      </trkpt>
      <trkpt lat="-24.8057410" lon="-53.7255320">
        <ele>542.9</ele>
        <time>2018-09-14T19:31:05Z</time>
      </trkpt>
      <trkpt lat="-24.8056980" lon="-53.7255550">
        <ele>542.9</ele>
        <time>2018-09-14T19:31:06Z</time>
      </trkpt>
      <trkpt lat="-24.8056550" lon="-53.7255800">
        <ele>542.9</ele>
        <time>2018-09-14T19:31:07Z</time>
      </trkpt>
      <trkpt lat="-24.8056110" lon="-53.7256040">
        <ele>542.9</ele>
        <time>2018-09-14T19:31:08Z</time>
      </trkpt>
      <trkpt lat="-24.8055670" lon="-53.7256280">
        <ele>542.9</ele>
        <time>2018-09-14T19:31:09Z</time>
      </trkpt>
      <trkpt lat="-24.8055230" lon="-53.7256520">
        <ele>542.8</ele>
        <time>2018-09-14T19:31:10Z</time>
      </trkpt>
      <trkpt lat="-24.8054810" lon="-53.7256750">
        <ele>542.8</ele>
        <time>2018-09-14T19:31:11Z</time>
      </trkpt>
      <trkpt lat="-24.8054380" lon="-53.7256980">
        <ele>542.8</ele>
        <time>2018-09-14T19:31:12Z</time>
      </trkpt>
      <trkpt lat="-24.8053970" lon="-53.7257190">
        <ele>542.8</ele>
        <time>2018-09-14T19:31:13Z</time>
      </trkpt>
      <trkpt lat="-24.8053560" lon="-53.7257400">
        <ele>542.8</ele>
        <time>2018-09-14T19:31:14Z</time>
      </trkpt>
      <trkpt lat="-24.8053160" lon="-53.7257620">
        <ele>542.7</ele>
        <time>2018-09-14T19:31:15Z</time>
      </trkpt>
      <trkpt lat="-24.8052770" lon="-53.7257860">
        <ele>542.7</ele>
        <time>2018-09-14T19:31:16Z</time>
      </trkpt>
      <trkpt lat="-24.8052360" lon="-53.7258080">
        <ele>542.7</ele>
        <time>2018-09-14T19:31:17Z</time>
      </trkpt>
      <trkpt lat="-24.8051940" lon="-53.7258280">
        <ele>542.7</ele>
        <time>2018-09-14T19:31:18Z</time>
      </trkpt>
      <trkpt lat="-24.8051530" lon="-53.7258490">
        <ele>542.6</ele>
        <time>2018-09-14T19:31:19Z</time>
      </trkpt>
      <trkpt lat="-24.8051140" lon="-53.7258680">
        <ele>542.6</ele>
        <time>2018-09-14T19:31:20Z</time>
      </trkpt>
      <trkpt lat="-24.8050750" lon="-53.7258860">
        <ele>542.5</ele>
        <time>2018-09-14T19:31:21Z</time>
      </trkpt>
      <trkpt lat="-24.8050360" lon="-53.7259040">
        <ele>542.5</ele>
        <time>2018-09-14T19:31:22Z</time>
      </trkpt>
      <trkpt lat="-24.8049960" lon="-53.7259210">
        <ele>542.4</ele>
        <time>2018-09-14T19:31:23Z</time>
      </trkpt>
      <trkpt lat="-24.8049550" lon="-53.7259420">
        <ele>542.4</ele>
        <time>2018-09-14T19:31:24Z</time>
      </trkpt>
      <trkpt lat="-24.8049130" lon="-53.7259620">
        <ele>542.2</ele>
        <time>2018-09-14T19:31:25Z</time>
      </trkpt>
      <trkpt lat="-24.8048720" lon="-53.7259850">
        <ele>542.1</ele>
        <time>2018-09-14T19:31:26Z</time>
      </trkpt>
      <trkpt lat="-24.8048310" lon="-53.7260060">
        <ele>542.0</ele>
        <time>2018-09-14T19:31:27Z</time>
      </trkpt>
      <trkpt lat="-24.8047910" lon="-53.7260260">
        <ele>541.9</ele>
        <time>2018-09-14T19:31:28Z</time>
      </trkpt>
      <trkpt lat="-24.8047520" lon="-53.7260470">
        <ele>541.8</ele>
        <time>2018-09-14T19:31:29Z</time>
      </trkpt>
      <trkpt lat="-24.8047130" lon="-53.7260680">
        <ele>541.7</ele>
        <time>2018-09-14T19:31:30Z</time>
      </trkpt>
      <trkpt lat="-24.8046730" lon="-53.7260890">
        <ele>541.6</ele>
        <time>2018-09-14T19:31:31Z</time>
      </trkpt>
      <trkpt lat="-24.8046340" lon="-53.7261110">
        <ele>541.5</ele>
        <time>2018-09-14T19:31:32Z</time>
      </trkpt>
      <trkpt lat="-24.8045940" lon="-53.7261340">
        <ele>541.4</ele>
        <time>2018-09-14T19:31:33Z</time>
      </trkpt>
      <trkpt lat="-24.8045540" lon="-53.7261590">
        <ele>541.3</ele>
        <time>2018-09-14T19:31:34Z</time>
      </trkpt>
      <trkpt lat="-24.8045150" lon="-53.7261830">
        <ele>541.2</ele>
        <time>2018-09-14T19:31:35Z</time>
      </trkpt>
      <trkpt lat="-24.8044750" lon="-53.7262080">
        <ele>541.1</ele>
        <time>2018-09-14T19:31:36Z</time>
      </trkpt>
      <trkpt lat="-24.8044340" lon="-53.7262320">
        <ele>541.0</ele>
        <time>2018-09-14T19:31:37Z</time>
      </trkpt>
      <trkpt lat="-24.8043940" lon="-53.7262560">
        <ele>540.9</ele>
        <time>2018-09-14T19:31:38Z</time>
      </trkpt>
      <trkpt lat="-24.8043530" lon="-53.7262770">
        <ele>540.8</ele>
        <time>2018-09-14T19:31:39Z</time>
      </trkpt>
      <trkpt lat="-24.8043150" lon="-53.7262990">
        <ele>540.7</ele>
        <time>2018-09-14T19:31:40Z</time>
      </trkpt>
      <trkpt lat="-24.8042770" lon="-53.7263200">
        <ele>540.6</ele>
        <time>2018-09-14T19:31:41Z</time>
      </trkpt>
      <trkpt lat="-24.8042410" lon="-53.7263430">
        <ele>540.5</ele>
        <time>2018-09-14T19:31:42Z</time>
      </trkpt>
      <trkpt lat="-24.8042050" lon="-53.7263660">
        <ele>540.4</ele>
        <time>2018-09-14T19:31:43Z</time>
      </trkpt>
      <trkpt lat="-24.8041680" lon="-53.7263870">
        <ele>540.3</ele>
        <time>2018-09-14T19:31:44Z</time>
      </trkpt>
      <trkpt lat="-24.8041300" lon="-53.7264090">
        <ele>540.2</ele>
        <time>2018-09-14T19:31:45Z</time>
      </trkpt>
      <trkpt lat="-24.8040930" lon="-53.7264310">
        <ele>540.1</ele>
        <time>2018-09-14T19:31:46Z</time>
      </trkpt>
      <trkpt lat="-24.8040550" lon="-53.7264520">
        <ele>540.0</ele>
        <time>2018-09-14T19:31:47Z</time>
      </trkpt>
      <trkpt lat="-24.8040180" lon="-53.7264730">
        <ele>539.8</ele>
        <time>2018-09-14T19:31:48Z</time>
      </trkpt>
      <trkpt lat="-24.8039800" lon="-53.7264920">
        <ele>539.6</ele>
        <time>2018-09-14T19:31:49Z</time>
      </trkpt>
      <trkpt lat="-24.8039420" lon="-53.7265110">
        <ele>539.5</ele>
        <time>2018-09-14T19:31:50Z</time>
      </trkpt>
      <trkpt lat="-24.8039040" lon="-53.7265290">
        <ele>539.3</ele>
        <time>2018-09-14T19:31:51Z</time>
      </trkpt>
      <trkpt lat="-24.8038680" lon="-53.7265440">
        <ele>539.2</ele>
        <time>2018-09-14T19:31:52Z</time>
      </trkpt>
      <trkpt lat="-24.8038290" lon="-53.7265620">
        <ele>539.1</ele>
        <time>2018-09-14T19:31:53Z</time>
      </trkpt>
      <trkpt lat="-24.8037880" lon="-53.7265820">
        <ele>539.0</ele>
        <time>2018-09-14T19:31:54Z</time>
      </trkpt>
      <trkpt lat="-24.8037460" lon="-53.7266040">
        <ele>538.9</ele>
        <time>2018-09-14T19:31:55Z</time>
      </trkpt>
      <trkpt lat="-24.8037040" lon="-53.7266260">
        <ele>538.9</ele>
        <time>2018-09-14T19:31:56Z</time>
      </trkpt>
      <trkpt lat="-24.8036590" lon="-53.7266470">
        <ele>538.8</ele>
        <time>2018-09-14T19:31:57Z</time>
      </trkpt>
      <trkpt lat="-24.8036160" lon="-53.7266660">
        <ele>538.8</ele>
        <time>2018-09-14T19:31:58Z</time>
      </trkpt>
      <trkpt lat="-24.8035290" lon="-53.7267060">
        <ele>538.7</ele>
        <time>2018-09-14T19:31:59Z</time>
      </trkpt>
      <trkpt lat="-24.8034460" lon="-53.7267450">
        <ele>538.6</ele>
        <time>2018-09-14T19:32:01Z</time>
      </trkpt>
      <trkpt lat="-24.8034050" lon="-53.7267630">
        <ele>538.6</ele>
        <time>2018-09-14T19:32:02Z</time>
      </trkpt>
      <trkpt lat="-24.8033660" lon="-53.7267810">
        <ele>538.6</ele>
        <time>2018-09-14T19:32:03Z</time>
      </trkpt>
      <trkpt lat="-24.8033280" lon="-53.7267990">
        <ele>538.5</ele>
        <time>2018-09-14T19:32:04Z</time>
      </trkpt>
      <trkpt lat="-24.8032940" lon="-53.7268160">
        <ele>538.5</ele>
        <time>2018-09-14T19:32:05Z</time>
      </trkpt>
      <trkpt lat="-24.8032610" lon="-53.7268320">
        <ele>538.5</ele>
        <time>2018-09-14T19:32:06Z</time>
      </trkpt>
      <trkpt lat="-24.8032240" lon="-53.7268480">
        <ele>538.5</ele>
        <time>2018-09-14T19:32:07Z</time>
      </trkpt>
      <trkpt lat="-24.8031850" lon="-53.7268660">
        <ele>538.4</ele>
        <time>2018-09-14T19:32:08Z</time>
      </trkpt>
      <trkpt lat="-24.8031430" lon="-53.7268860">
        <ele>538.4</ele>
        <time>2018-09-14T19:32:09Z</time>
      </trkpt>
      <trkpt lat="-24.8031010" lon="-53.7269060">
        <ele>538.4</ele>
        <time>2018-09-14T19:32:10Z</time>
      </trkpt>
      <trkpt lat="-24.8030590" lon="-53.7269280">
        <ele>538.4</ele>
        <time>2018-09-14T19:32:11Z</time>
      </trkpt>
      <trkpt lat="-24.8030170" lon="-53.7269510">
        <ele>538.4</ele>
        <time>2018-09-14T19:32:12Z</time>
      </trkpt>
      <trkpt lat="-24.8029760" lon="-53.7269730">
        <ele>538.3</ele>
        <time>2018-09-14T19:32:13Z</time>
      </trkpt>
      <trkpt lat="-24.8029340" lon="-53.7269960">
        <ele>538.3</ele>
        <time>2018-09-14T19:32:14Z</time>
      </trkpt>
      <trkpt lat="-24.8028930" lon="-53.7270160">
        <ele>538.3</ele>
        <time>2018-09-14T19:32:15Z</time>
      </trkpt>
      <trkpt lat="-24.8028530" lon="-53.7270390">
        <ele>538.2</ele>
        <time>2018-09-14T19:32:16Z</time>
      </trkpt>
      <trkpt lat="-24.8027680" lon="-53.7270820">
        <ele>538.2</ele>
        <time>2018-09-14T19:32:18Z</time>
      </trkpt>
      <trkpt lat="-24.8027280" lon="-53.7271020">
        <ele>538.1</ele>
        <time>2018-09-14T19:32:19Z</time>
      </trkpt>
      <trkpt lat="-24.8026880" lon="-53.7271220">
        <ele>538.0</ele>
        <time>2018-09-14T19:32:20Z</time>
      </trkpt>
      <trkpt lat="-24.8026430" lon="-53.7271440">
        <ele>537.9</ele>
        <time>2018-09-14T19:32:21Z</time>
      </trkpt>
      <trkpt lat="-24.8025980" lon="-53.7271680">
        <ele>537.9</ele>
        <time>2018-09-14T19:32:22Z</time>
      </trkpt>
      <trkpt lat="-24.8025510" lon="-53.7271920">
        <ele>537.8</ele>
        <time>2018-09-14T19:32:23Z</time>
      </trkpt>
      <trkpt lat="-24.8025030" lon="-53.7272160">
        <ele>537.7</ele>
        <time>2018-09-14T19:32:24Z</time>
      </trkpt>
      <trkpt lat="-24.8024550" lon="-53.7272410">
        <ele>537.7</ele>
        <time>2018-09-14T19:32:25Z</time>
      </trkpt>
      <trkpt lat="-24.8024070" lon="-53.7272670">
        <ele>537.6</ele>
        <time>2018-09-14T19:32:26Z</time>
      </trkpt>
      <trkpt lat="-24.8023600" lon="-53.7272930">
        <ele>537.6</ele>
        <time>2018-09-14T19:32:27Z</time>
      </trkpt>
      <trkpt lat="-24.8023120" lon="-53.7273160">
        <ele>537.5</ele>
        <time>2018-09-14T19:32:28Z</time>
      </trkpt>
      <trkpt lat="-24.8022660" lon="-53.7273400">
        <ele>537.4</ele>
        <time>2018-09-14T19:32:29Z</time>
      </trkpt>
      <trkpt lat="-24.8022230" lon="-53.7273640">
        <ele>537.4</ele>
        <time>2018-09-14T19:32:30Z</time>
      </trkpt>
      <trkpt lat="-24.8021810" lon="-53.7273880">
        <ele>537.3</ele>
        <time>2018-09-14T19:32:31Z</time>
      </trkpt>
      <trkpt lat="-24.8021430" lon="-53.7274130">
        <ele>537.1</ele>
        <time>2018-09-14T19:32:32Z</time>
      </trkpt>
      <trkpt lat="-24.8021070" lon="-53.7274340">
        <ele>537.0</ele>
        <time>2018-09-14T19:32:33Z</time>
      </trkpt>
      <trkpt lat="-24.8020700" lon="-53.7274540">
        <ele>536.9</ele>
        <time>2018-09-14T19:32:34Z</time>
      </trkpt>
      <trkpt lat="-24.8020290" lon="-53.7274750">
        <ele>536.7</ele>
        <time>2018-09-14T19:32:35Z</time>
      </trkpt>
      <trkpt lat="-24.8019840" lon="-53.7274960">
        <ele>536.6</ele>
        <time>2018-09-14T19:32:36Z</time>
      </trkpt>
      <trkpt lat="-24.8019380" lon="-53.7275220">
        <ele>536.5</ele>
        <time>2018-09-14T19:32:37Z</time>
      </trkpt>
      <trkpt lat="-24.8018910" lon="-53.7275490">
        <ele>536.3</ele>
        <time>2018-09-14T19:32:38Z</time>
      </trkpt>
      <trkpt lat="-24.8018440" lon="-53.7275760">
        <ele>536.2</ele>
        <time>2018-09-14T19:32:39Z</time>
      </trkpt>
      <trkpt lat="-24.8017980" lon="-53.7276020">
        <ele>536.1</ele>
        <time>2018-09-14T19:32:40Z</time>
      </trkpt>
      <trkpt lat="-24.8017520" lon="-53.7276270">
        <ele>536.0</ele>
        <time>2018-09-14T19:32:41Z</time>
      </trkpt>
      <trkpt lat="-24.8017080" lon="-53.7276510">
        <ele>535.8</ele>
        <time>2018-09-14T19:32:42Z</time>
      </trkpt>
      <trkpt lat="-24.8016660" lon="-53.7276740">
        <ele>535.6</ele>
        <time>2018-09-14T19:32:43Z</time>
      </trkpt>
      <trkpt lat="-24.8016240" lon="-53.7276960">
        <ele>535.5</ele>
        <time>2018-09-14T19:32:44Z</time>
      </trkpt>
      <trkpt lat="-24.8015810" lon="-53.7277210">
        <ele>535.3</ele>
        <time>2018-09-14T19:32:45Z</time>
      </trkpt>
      <trkpt lat="-24.8015340" lon="-53.7277470">
        <ele>535.1</ele>
        <time>2018-09-14T19:32:46Z</time>
      </trkpt>
      <trkpt lat="-24.8014850" lon="-53.7277740">
        <ele>535.0</ele>
        <time>2018-09-14T19:32:47Z</time>
      </trkpt>
      <trkpt lat="-24.8014360" lon="-53.7278030">
        <ele>534.8</ele>
        <time>2018-09-14T19:32:48Z</time>
      </trkpt>
      <trkpt lat="-24.8013870" lon="-53.7278310">
        <ele>534.7</ele>
        <time>2018-09-14T19:32:49Z</time>
      </trkpt>
      <trkpt lat="-24.8013380" lon="-53.7278590">
        <ele>534.6</ele>
        <time>2018-09-14T19:32:50Z</time>
      </trkpt>
      <trkpt lat="-24.8012900" lon="-53.7278840">
        <ele>534.5</ele>
        <time>2018-09-14T19:32:51Z</time>
      </trkpt>
      <trkpt lat="-24.8012450" lon="-53.7279100">
        <ele>534.4</ele>
        <time>2018-09-14T19:32:52Z</time>
      </trkpt>
      <trkpt lat="-24.8012030" lon="-53.7279350">
        <ele>534.3</ele>
        <time>2018-09-14T19:32:53Z</time>
      </trkpt>
      <trkpt lat="-24.8011600" lon="-53.7279580">
        <ele>534.3</ele>
        <time>2018-09-14T19:32:54Z</time>
      </trkpt>
      <trkpt lat="-24.8011160" lon="-53.7279830">
        <ele>534.2</ele>
        <time>2018-09-14T19:32:55Z</time>
      </trkpt>
      <trkpt lat="-24.8010700" lon="-53.7280110">
        <ele>534.1</ele>
        <time>2018-09-14T19:32:56Z</time>
      </trkpt>
      <trkpt lat="-24.8010240" lon="-53.7280410">
        <ele>533.9</ele>
        <time>2018-09-14T19:32:57Z</time>
      </trkpt>
      <trkpt lat="-24.8009780" lon="-53.7280700">
        <ele>533.7</ele>
        <time>2018-09-14T19:32:58Z</time>
      </trkpt>
      <trkpt lat="-24.8009330" lon="-53.7280980">
        <ele>533.6</ele>
        <time>2018-09-14T19:32:59Z</time>
      </trkpt>
      <trkpt lat="-24.8008890" lon="-53.7281260">
        <ele>533.4</ele>
        <time>2018-09-14T19:33:00Z</time>
      </trkpt>
      <trkpt lat="-24.8008450" lon="-53.7281520">
        <ele>533.3</ele>
        <time>2018-09-14T19:33:01Z</time>
      </trkpt>
      <trkpt lat="-24.8008030" lon="-53.7281760">
        <ele>533.1</ele>
        <time>2018-09-14T19:33:02Z</time>
      </trkpt>
      <trkpt lat="-24.8007620" lon="-53.7281990">
        <ele>533.0</ele>
        <time>2018-09-14T19:33:03Z</time>
      </trkpt>
      <trkpt lat="-24.8007240" lon="-53.7282200">
        <ele>532.9</ele>
        <time>2018-09-14T19:33:04Z</time>
      </trkpt>
      <trkpt lat="-24.8006870" lon="-53.7282410">
        <ele>532.7</ele>
        <time>2018-09-14T19:33:05Z</time>
      </trkpt>
      <trkpt lat="-24.8006490" lon="-53.7282630">
        <ele>532.6</ele>
        <time>2018-09-14T19:33:06Z</time>
      </trkpt>
      <trkpt lat="-24.8006080" lon="-53.7282860">
        <ele>532.5</ele>
        <time>2018-09-14T19:33:07Z</time>
      </trkpt>
      <trkpt lat="-24.8005660" lon="-53.7283090">
        <ele>532.5</ele>
        <time>2018-09-14T19:33:08Z</time>
      </trkpt>
      <trkpt lat="-24.8005240" lon="-53.7283330">
        <ele>532.4</ele>
        <time>2018-09-14T19:33:09Z</time>
      </trkpt>
      <trkpt lat="-24.8004810" lon="-53.7283570">
        <ele>532.3</ele>
        <time>2018-09-14T19:33:10Z</time>
      </trkpt>
      <trkpt lat="-24.8004400" lon="-53.7283810">
        <ele>532.3</ele>
        <time>2018-09-14T19:33:11Z</time>
      </trkpt>
      <trkpt lat="-24.8003990" lon="-53.7284030">
        <ele>532.2</ele>
        <time>2018-09-14T19:33:12Z</time>
      </trkpt>
      <trkpt lat="-24.8003580" lon="-53.7284250">
        <ele>532.2</ele>
        <time>2018-09-14T19:33:13Z</time>
      </trkpt>
      <trkpt lat="-24.8003180" lon="-53.7284490">
        <ele>532.1</ele>
        <time>2018-09-14T19:33:14Z</time>
      </trkpt>
      <trkpt lat="-24.8002790" lon="-53.7284720">
        <ele>532.0</ele>
        <time>2018-09-14T19:33:15Z</time>
      </trkpt>
      <trkpt lat="-24.8002390" lon="-53.7284940">
        <ele>532.0</ele>
        <time>2018-09-14T19:33:16Z</time>
      </trkpt>
      <trkpt lat="-24.8002000" lon="-53.7285160">
        <ele>531.9</ele>
        <time>2018-09-14T19:33:17Z</time>
      </trkpt>
      <trkpt lat="-24.8001610" lon="-53.7285360">
        <ele>531.9</ele>
        <time>2018-09-14T19:33:18Z</time>
      </trkpt>
      <trkpt lat="-24.8001220" lon="-53.7285560">
        <ele>531.9</ele>
        <time>2018-09-14T19:33:19Z</time>
      </trkpt>
      <trkpt lat="-24.8000830" lon="-53.7285760">
        <ele>531.9</ele>
        <time>2018-09-14T19:33:20Z</time>
      </trkpt>
      <trkpt lat="-24.8000440" lon="-53.7285980">
        <ele>531.9</ele>
        <time>2018-09-14T19:33:21Z</time>
      </trkpt>
      <trkpt lat="-24.8000040" lon="-53.7286220">
        <ele>531.9</ele>
        <time>2018-09-14T19:33:22Z</time>
      </trkpt>
      <trkpt lat="-24.7999660" lon="-53.7286460">
        <ele>531.9</ele>
        <time>2018-09-14T19:33:23Z</time>
      </trkpt>
      <trkpt lat="-24.7999280" lon="-53.7286680">
        <ele>531.9</ele>
        <time>2018-09-14T19:33:24Z</time>
      </trkpt>
      <trkpt lat="-24.7998910" lon="-53.7286890">
        <ele>531.9</ele>
        <time>2018-09-14T19:33:25Z</time>
      </trkpt>
      <trkpt lat="-24.7998550" lon="-53.7287110">
        <ele>531.8</ele>
        <time>2018-09-14T19:33:26Z</time>
      </trkpt>
      <trkpt lat="-24.7998200" lon="-53.7287320">
        <ele>531.8</ele>
        <time>2018-09-14T19:33:27Z</time>
      </trkpt>
      <trkpt lat="-24.7997850" lon="-53.7287530">
        <ele>531.8</ele>
        <time>2018-09-14T19:33:28Z</time>
      </trkpt>
      <trkpt lat="-24.7997490" lon="-53.7287760">
        <ele>531.8</ele>
        <time>2018-09-14T19:33:29Z</time>
      </trkpt>
      <trkpt lat="-24.7997120" lon="-53.7287990">
        <ele>531.8</ele>
        <time>2018-09-14T19:33:30Z</time>
      </trkpt>
      <trkpt lat="-24.7996740" lon="-53.7288220">
        <ele>531.7</ele>
        <time>2018-09-14T19:33:31Z</time>
      </trkpt>
      <trkpt lat="-24.7996360" lon="-53.7288440">
        <ele>531.7</ele>
        <time>2018-09-14T19:33:32Z</time>
      </trkpt>
      <trkpt lat="-24.7995970" lon="-53.7288670">
        <ele>531.7</ele>
        <time>2018-09-14T19:33:33Z</time>
      </trkpt>
      <trkpt lat="-24.7995600" lon="-53.7288890">
        <ele>531.7</ele>
        <time>2018-09-14T19:33:34Z</time>
      </trkpt>
      <trkpt lat="-24.7995220" lon="-53.7289140">
        <ele>531.7</ele>
        <time>2018-09-14T19:33:35Z</time>
      </trkpt>
      <trkpt lat="-24.7994850" lon="-53.7289380">
        <ele>531.6</ele>
        <time>2018-09-14T19:33:36Z</time>
      </trkpt>
      <trkpt lat="-24.7994480" lon="-53.7289610">
        <ele>531.6</ele>
        <time>2018-09-14T19:33:37Z</time>
      </trkpt>
      <trkpt lat="-24.7994100" lon="-53.7289840">
        <ele>531.6</ele>
        <time>2018-09-14T19:33:38Z</time>
      </trkpt>
      <trkpt lat="-24.7993730" lon="-53.7290050">
        <ele>531.5</ele>
        <time>2018-09-14T19:33:39Z</time>
      </trkpt>
      <trkpt lat="-24.7993360" lon="-53.7290260">
        <ele>531.5</ele>
        <time>2018-09-14T19:33:40Z</time>
      </trkpt>
      <trkpt lat="-24.7992990" lon="-53.7290460">
        <ele>531.4</ele>
        <time>2018-09-14T19:33:41Z</time>
      </trkpt>
      <trkpt lat="-24.7992630" lon="-53.7290640">
        <ele>531.4</ele>
        <time>2018-09-14T19:33:42Z</time>
      </trkpt>
      <trkpt lat="-24.7992280" lon="-53.7290820">
        <ele>531.4</ele>
        <time>2018-09-14T19:33:43Z</time>
      </trkpt>
      <trkpt lat="-24.7991940" lon="-53.7291020">
        <ele>531.3</ele>
        <time>2018-09-14T19:33:44Z</time>
      </trkpt>
      <trkpt lat="-24.7991570" lon="-53.7291230">
        <ele>531.3</ele>
        <time>2018-09-14T19:33:45Z</time>
      </trkpt>
      <trkpt lat="-24.7991200" lon="-53.7291440">
        <ele>531.2</ele>
        <time>2018-09-14T19:33:46Z</time>
      </trkpt>
      <trkpt lat="-24.7990810" lon="-53.7291650">
        <ele>531.2</ele>
        <time>2018-09-14T19:33:47Z</time>
      </trkpt>
      <trkpt lat="-24.7990420" lon="-53.7291860">
        <ele>531.2</ele>
        <time>2018-09-14T19:33:48Z</time>
      </trkpt>
      <trkpt lat="-24.7990030" lon="-53.7292090">
        <ele>531.1</ele>
        <time>2018-09-14T19:33:49Z</time>
      </trkpt>
      <trkpt lat="-24.7989630" lon="-53.7292310">
        <ele>531.1</ele>
        <time>2018-09-14T19:33:50Z</time>
      </trkpt>
      <trkpt lat="-24.7989240" lon="-53.7292520">
        <ele>531.0</ele>
        <time>2018-09-14T19:33:51Z</time>
      </trkpt>
      <trkpt lat="-24.7988840" lon="-53.7292740">
        <ele>530.9</ele>
        <time>2018-09-14T19:33:52Z</time>
      </trkpt>
      <trkpt lat="-24.7988460" lon="-53.7292970">
        <ele>530.9</ele>
        <time>2018-09-14T19:33:53Z</time>
      </trkpt>
      <trkpt lat="-24.7988060" lon="-53.7293190">
        <ele>530.8</ele>
        <time>2018-09-14T19:33:54Z</time>
      </trkpt>
      <trkpt lat="-24.7987670" lon="-53.7293410">
        <ele>530.7</ele>
        <time>2018-09-14T19:33:55Z</time>
      </trkpt>
      <trkpt lat="-24.7987280" lon="-53.7293630">
        <ele>530.7</ele>
        <time>2018-09-14T19:33:56Z</time>
      </trkpt>
      <trkpt lat="-24.7986890" lon="-53.7293850">
        <ele>530.6</ele>
        <time>2018-09-14T19:33:57Z</time>
      </trkpt>
      <trkpt lat="-24.7986500" lon="-53.7294070">
        <ele>530.6</ele>
        <time>2018-09-14T19:33:58Z</time>
      </trkpt>
      <trkpt lat="-24.7986120" lon="-53.7294280">
        <ele>530.5</ele>
        <time>2018-09-14T19:33:59Z</time>
      </trkpt>
      <trkpt lat="-24.7985750" lon="-53.7294490">
        <ele>530.5</ele>
        <time>2018-09-14T19:34:00Z</time>
      </trkpt>
      <trkpt lat="-24.7985750" lon="-53.7294490">
        <ele>530.5</ele>
        <time>2018-09-14T19:34:01Z</time>
      </trkpt>
      <trkpt lat="-24.7985370" lon="-53.7294680">
        <ele>530.4</ele>
        <time>2018-09-14T19:34:02Z</time>
      </trkpt>
      <trkpt lat="-24.7984990" lon="-53.7294880">
        <ele>530.4</ele>
        <time>2018-09-14T19:34:03Z</time>
      </trkpt>
      <trkpt lat="-24.7984620" lon="-53.7295070">
        <ele>530.3</ele>
        <time>2018-09-14T19:34:04Z</time>
      </trkpt>
      <trkpt lat="-24.7984250" lon="-53.7295240">
        <ele>530.3</ele>
        <time>2018-09-14T19:34:05Z</time>
      </trkpt>
      <trkpt lat="-24.7983880" lon="-53.7295400">
        <ele>530.3</ele>
        <time>2018-09-14T19:34:06Z</time>
      </trkpt>
      <trkpt lat="-24.7983530" lon="-53.7295550">
        <ele>530.2</ele>
        <time>2018-09-14T19:34:07Z</time>
      </trkpt>
      <trkpt lat="-24.7983180" lon="-53.7295690">
        <ele>530.2</ele>
        <time>2018-09-14T19:34:08Z</time>
      </trkpt>
      <trkpt lat="-24.7982840" lon="-53.7295820">
        <ele>530.2</ele>
        <time>2018-09-14T19:34:09Z</time>
      </trkpt>
      <trkpt lat="-24.7982500" lon="-53.7295930">
        <ele>530.1</ele>
        <time>2018-09-14T19:34:10Z</time>
      </trkpt>
      <trkpt lat="-24.7982170" lon="-53.7296040">
        <ele>530.1</ele>
        <time>2018-09-14T19:34:11Z</time>
      </trkpt>
      <trkpt lat="-24.7981840" lon="-53.7296160">
        <ele>530.1</ele>
        <time>2018-09-14T19:34:12Z</time>
      </trkpt>
      <trkpt lat="-24.7981510" lon="-53.7296230">
        <ele>530.0</ele>
        <time>2018-09-14T19:34:13Z</time>
      </trkpt>
      <trkpt lat="-24.7981170" lon="-53.7296230">
        <ele>529.9</ele>
        <time>2018-09-14T19:34:14Z</time>
      </trkpt>
      <trkpt lat="-24.7980820" lon="-53.7296180">
        <ele>529.9</ele>
        <time>2018-09-14T19:34:15Z</time>
      </trkpt>
      <trkpt lat="-24.7980440" lon="-53.7296080">
        <ele>529.8</ele>
        <time>2018-09-14T19:34:16Z</time>
      </trkpt>
      <trkpt lat="-24.7980050" lon="-53.7295950">
        <ele>529.8</ele>
        <time>2018-09-14T19:34:17Z</time>
      </trkpt>
      <trkpt lat="-24.7979630" lon="-53.7295830">
        <ele>529.7</ele>
        <time>2018-09-14T19:34:18Z</time>
      </trkpt>
      <trkpt lat="-24.7979200" lon="-53.7295710">
        <ele>529.7</ele>
        <time>2018-09-14T19:34:19Z</time>
      </trkpt>
      <trkpt lat="-24.7978780" lon="-53.7295570">
        <ele>529.6</ele>
        <time>2018-09-14T19:34:20Z</time>
      </trkpt>
      <trkpt lat="-24.7978360" lon="-53.7295390">
        <ele>529.5</ele>
        <time>2018-09-14T19:34:21Z</time>
      </trkpt>
      <trkpt lat="-24.7977940" lon="-53.7295200">
        <ele>529.5</ele>
        <time>2018-09-14T19:34:22Z</time>
      </trkpt>
      <trkpt lat="-24.7977500" lon="-53.7295020">
        <ele>529.3</ele>
        <time>2018-09-14T19:34:23Z</time>
      </trkpt>
      <trkpt lat="-24.7977060" lon="-53.7294800">
        <ele>529.2</ele>
        <time>2018-09-14T19:34:24Z</time>
      </trkpt>
      <trkpt lat="-24.7976600" lon="-53.7294600">
        <ele>529.0</ele>
        <time>2018-09-14T19:34:25Z</time>
      </trkpt>
      <trkpt lat="-24.7976140" lon="-53.7294380">
        <ele>528.9</ele>
        <time>2018-09-14T19:34:26Z</time>
      </trkpt>
      <trkpt lat="-24.7975680" lon="-53.7294110">
        <ele>528.8</ele>
        <time>2018-09-14T19:34:27Z</time>
      </trkpt>
      <trkpt lat="-24.7975220" lon="-53.7293820">
        <ele>528.8</ele>
        <time>2018-09-14T19:34:28Z</time>
      </trkpt>
      <trkpt lat="-24.7974730" lon="-53.7293550">
        <ele>528.7</ele>
        <time>2018-09-14T19:34:29Z</time>
      </trkpt>
      <trkpt lat="-24.7974240" lon="-53.7293260">
        <ele>528.6</ele>
        <time>2018-09-14T19:34:30Z</time>
      </trkpt>
      <trkpt lat="-24.7973750" lon="-53.7292950">
        <ele>528.5</ele>
        <time>2018-09-14T19:34:31Z</time>
      </trkpt>
      <trkpt lat="-24.7973250" lon="-53.7292620">
        <ele>528.4</ele>
        <time>2018-09-14T19:34:32Z</time>
      </trkpt>
      <trkpt lat="-24.7972740" lon="-53.7292290">
        <ele>528.3</ele>
        <time>2018-09-14T19:34:33Z</time>
      </trkpt>
      <trkpt lat="-24.7972220" lon="-53.7291950">
        <ele>528.2</ele>
        <time>2018-09-14T19:34:34Z</time>
      </trkpt>
      <trkpt lat="-24.7971680" lon="-53.7291600">
        <ele>528.0</ele>
        <time>2018-09-14T19:34:35Z</time>
      </trkpt>
      <trkpt lat="-24.7971130" lon="-53.7291250">
        <ele>527.8</ele>
        <time>2018-09-14T19:34:36Z</time>
      </trkpt>
      <trkpt lat="-24.7970580" lon="-53.7290880">
        <ele>527.6</ele>
        <time>2018-09-14T19:34:37Z</time>
      </trkpt>
      <trkpt lat="-24.7970010" lon="-53.7290520">
        <ele>527.5</ele>
        <time>2018-09-14T19:34:38Z</time>
      </trkpt>
      <trkpt lat="-24.7969430" lon="-53.7290150">
        <ele>527.3</ele>
        <time>2018-09-14T19:34:39Z</time>
      </trkpt>
      <trkpt lat="-24.7968830" lon="-53.7289770">
        <ele>527.2</ele>
        <time>2018-09-14T19:34:40Z</time>
      </trkpt>
      <trkpt lat="-24.7968220" lon="-53.7289380">
        <ele>527.2</ele>
        <time>2018-09-14T19:34:41Z</time>
      </trkpt>
      <trkpt lat="-24.7967610" lon="-53.7288980">
        <ele>527.1</ele>
        <time>2018-09-14T19:34:42Z</time>
      </trkpt>
      <trkpt lat="-24.7966990" lon="-53.7288570">
        <ele>526.9</ele>
        <time>2018-09-14T19:34:43Z</time>
      </trkpt>
      <trkpt lat="-24.7966340" lon="-53.7288170">
        <ele>526.7</ele>
        <time>2018-09-14T19:34:44Z</time>
      </trkpt>
      <trkpt lat="-24.7965670" lon="-53.7287780">
        <ele>526.4</ele>
        <time>2018-09-14T19:34:45Z</time>
      </trkpt>
      <trkpt lat="-24.7965000" lon="-53.7287370">
        <ele>526.0</ele>
        <time>2018-09-14T19:34:46Z</time>
      </trkpt>
      <trkpt lat="-24.7964320" lon="-53.7286940">
        <ele>525.9</ele>
        <time>2018-09-14T19:34:47Z</time>
      </trkpt>
      <trkpt lat="-24.7963630" lon="-53.7286500">
        <ele>525.7</ele>
        <time>2018-09-14T19:34:48Z</time>
      </trkpt>
      <trkpt lat="-24.7962950" lon="-53.7286040">
        <ele>525.5</ele>
        <time>2018-09-14T19:34:49Z</time>
      </trkpt>
      <trkpt lat="-24.7962260" lon="-53.7285600">
        <ele>525.2</ele>
        <time>2018-09-14T19:34:50Z</time>
      </trkpt>
      <trkpt lat="-24.7961570" lon="-53.7285160">
        <ele>525.0</ele>
        <time>2018-09-14T19:34:51Z</time>
      </trkpt>
      <trkpt lat="-24.7960840" lon="-53.7284700">
        <ele>524.5</ele>
        <time>2018-09-14T19:34:52Z</time>
      </trkpt>
      <trkpt lat="-24.7960100" lon="-53.7284210">
        <ele>524.2</ele>
        <time>2018-09-14T19:34:53Z</time>
      </trkpt>
      <trkpt lat="-24.7959340" lon="-53.7283710">
        <ele>523.9</ele>
        <time>2018-09-14T19:34:54Z</time>
      </trkpt>
      <trkpt lat="-24.7958560" lon="-53.7283220">
        <ele>523.6</ele>
        <time>2018-09-14T19:34:55Z</time>
      </trkpt>
      <trkpt lat="-24.7957750" lon="-53.7282730">
        <ele>523.0</ele>
        <time>2018-09-14T19:34:56Z</time>
      </trkpt>
      <trkpt lat="-24.7956930" lon="-53.7282240">
        <ele>522.3</ele>
        <time>2018-09-14T19:34:57Z</time>
      </trkpt>
      <trkpt lat="-24.7956100" lon="-53.7281720">
        <ele>521.8</ele>
        <time>2018-09-14T19:34:58Z</time>
      </trkpt>
      <trkpt lat="-24.7955270" lon="-53.7281170">
        <ele>521.4</ele>
        <time>2018-09-14T19:34:59Z</time>
      </trkpt>
      <trkpt lat="-24.7954420" lon="-53.7280610">
        <ele>520.9</ele>
        <time>2018-09-14T19:35:00Z</time>
      </trkpt>
      <trkpt lat="-24.7953550" lon="-53.7280040">
        <ele>520.1</ele>
        <time>2018-09-14T19:35:01Z</time>
      </trkpt>
      <trkpt lat="-24.7952670" lon="-53.7279490">
        <ele>519.3</ele>
        <time>2018-09-14T19:35:02Z</time>
      </trkpt>
      <trkpt lat="-24.7951800" lon="-53.7278930">
        <ele>518.9</ele>
        <time>2018-09-14T19:35:03Z</time>
      </trkpt>
      <trkpt lat="-24.7950910" lon="-53.7278370">
        <ele>518.5</ele>
        <time>2018-09-14T19:35:04Z</time>
      </trkpt>
      <trkpt lat="-24.7950000" lon="-53.7277800">
        <ele>517.9</ele>
        <time>2018-09-14T19:35:05Z</time>
      </trkpt>
      <trkpt lat="-24.7949080" lon="-53.7277230">
        <ele>517.3</ele>
        <time>2018-09-14T19:35:06Z</time>
      </trkpt>
      <trkpt lat="-24.7948150" lon="-53.7276640">
        <ele>516.8</ele>
        <time>2018-09-14T19:35:07Z</time>
      </trkpt>
      <trkpt lat="-24.7947220" lon="-53.7276060">
        <ele>516.5</ele>
        <time>2018-09-14T19:35:08Z</time>
      </trkpt>
      <trkpt lat="-24.7946290" lon="-53.7275480">
        <ele>516.2</ele>
        <time>2018-09-14T19:35:09Z</time>
      </trkpt>
      <trkpt lat="-24.7945360" lon="-53.7274910">
        <ele>515.6</ele>
        <time>2018-09-14T19:35:10Z</time>
      </trkpt>
      <trkpt lat="-24.7944420" lon="-53.7274340">
        <ele>515.0</ele>
        <time>2018-09-14T19:35:11Z</time>
      </trkpt>
      <trkpt lat="-24.7943490" lon="-53.7273770">
        <ele>514.7</ele>
        <time>2018-09-14T19:35:12Z</time>
      </trkpt>
      <trkpt lat="-24.7942570" lon="-53.7273210">
        <ele>514.4</ele>
        <time>2018-09-14T19:35:13Z</time>
      </trkpt>
      <trkpt lat="-24.7941660" lon="-53.7272650">
        <ele>514.1</ele>
        <time>2018-09-14T19:35:14Z</time>
      </trkpt>
      <trkpt lat="-24.7940750" lon="-53.7272090">
        <ele>513.7</ele>
        <time>2018-09-14T19:35:15Z</time>
      </trkpt>
      <trkpt lat="-24.7939860" lon="-53.7271530">
        <ele>513.2</ele>
        <time>2018-09-14T19:35:16Z</time>
      </trkpt>
      <trkpt lat="-24.7938980" lon="-53.7270970">
        <ele>512.7</ele>
        <time>2018-09-14T19:35:17Z</time>
      </trkpt>
      <trkpt lat="-24.7938110" lon="-53.7270410">
        <ele>512.3</ele>
        <time>2018-09-14T19:35:18Z</time>
      </trkpt>
      <trkpt lat="-24.7937240" lon="-53.7269880">
        <ele>512.0</ele>
        <time>2018-09-14T19:35:19Z</time>
      </trkpt>
      <trkpt lat="-24.7936390" lon="-53.7269360">
        <ele>511.8</ele>
        <time>2018-09-14T19:35:20Z</time>
      </trkpt>
      <trkpt lat="-24.7935560" lon="-53.7268830">
        <ele>511.7</ele>
        <time>2018-09-14T19:35:21Z</time>
      </trkpt>
      <trkpt lat="-24.7934740" lon="-53.7268310">
        <ele>511.5</ele>
        <time>2018-09-14T19:35:22Z</time>
      </trkpt>
      <trkpt lat="-24.7933930" lon="-53.7267800">
        <ele>511.4</ele>
        <time>2018-09-14T19:35:23Z</time>
      </trkpt>
      <trkpt lat="-24.7933150" lon="-53.7267310">
        <ele>511.3</ele>
        <time>2018-09-14T19:35:24Z</time>
      </trkpt>
      <trkpt lat="-24.7932370" lon="-53.7266840">
        <ele>511.2</ele>
        <time>2018-09-14T19:35:25Z</time>
      </trkpt>
      <trkpt lat="-24.7931620" lon="-53.7266390">
        <ele>511.0</ele>
        <time>2018-09-14T19:35:26Z</time>
      </trkpt>
      <trkpt lat="-24.7930890" lon="-53.7265930">
        <ele>510.8</ele>
        <time>2018-09-14T19:35:27Z</time>
      </trkpt>
      <trkpt lat="-24.7930180" lon="-53.7265470">
        <ele>510.6</ele>
        <time>2018-09-14T19:35:28Z</time>
      </trkpt>
      <trkpt lat="-24.7929490" lon="-53.7265020">
        <ele>510.4</ele>
        <time>2018-09-14T19:35:29Z</time>
      </trkpt>
      <trkpt lat="-24.7928830" lon="-53.7264600">
        <ele>510.3</ele>
        <time>2018-09-14T19:35:30Z</time>
      </trkpt>
      <trkpt lat="-24.7928190" lon="-53.7264200">
        <ele>510.2</ele>
        <time>2018-09-14T19:35:31Z</time>
      </trkpt>
      <trkpt lat="-24.7927550" lon="-53.7263820">
        <ele>510.1</ele>
        <time>2018-09-14T19:35:32Z</time>
      </trkpt>
      <trkpt lat="-24.7926940" lon="-53.7263470">
        <ele>510.1</ele>
        <time>2018-09-14T19:35:33Z</time>
      </trkpt>
      <trkpt lat="-24.7926380" lon="-53.7263110">
        <ele>510.0</ele>
        <time>2018-09-14T19:35:34Z</time>
      </trkpt>
      <trkpt lat="-24.7925840" lon="-53.7262760">
        <ele>510.0</ele>
        <time>2018-09-14T19:35:35Z</time>
      </trkpt>
      <trkpt lat="-24.7925320" lon="-53.7262420">
        <ele>510.0</ele>
        <time>2018-09-14T19:35:36Z</time>
      </trkpt>
      <trkpt lat="-24.7924830" lon="-53.7262110">
        <ele>510.1</ele>
        <time>2018-09-14T19:35:37Z</time>
      </trkpt>
      <trkpt lat="-24.7924350" lon="-53.7261800">
        <ele>510.1</ele>
        <time>2018-09-14T19:35:38Z</time>
      </trkpt>
      <trkpt lat="-24.7923880" lon="-53.7261510">
        <ele>510.1</ele>
        <time>2018-09-14T19:35:39Z</time>
      </trkpt>
      <trkpt lat="-24.7923420" lon="-53.7261210">
        <ele>510.1</ele>
        <time>2018-09-14T19:35:40Z</time>
      </trkpt>
      <trkpt lat="-24.7922960" lon="-53.7260890">
        <ele>510.2</ele>
        <time>2018-09-14T19:35:41Z</time>
      </trkpt>
      <trkpt lat="-24.7922490" lon="-53.7260580">
        <ele>510.2</ele>
        <time>2018-09-14T19:35:42Z</time>
      </trkpt>
      <trkpt lat="-24.7922030" lon="-53.7260270">
        <ele>510.2</ele>
        <time>2018-09-14T19:35:43Z</time>
      </trkpt>
      <trkpt lat="-24.7921560" lon="-53.7259980">
        <ele>510.3</ele>
        <time>2018-09-14T19:35:44Z</time>
      </trkpt>
      <trkpt lat="-24.7921080" lon="-53.7259710">
        <ele>510.3</ele>
        <time>2018-09-14T19:35:45Z</time>
      </trkpt>
      <trkpt lat="-24.7920610" lon="-53.7259440">
        <ele>510.4</ele>
        <time>2018-09-14T19:35:46Z</time>
      </trkpt>
      <trkpt lat="-24.7920120" lon="-53.7259170">
        <ele>510.4</ele>
        <time>2018-09-14T19:35:47Z</time>
      </trkpt>
      <trkpt lat="-24.7919640" lon="-53.7258890">
        <ele>510.4</ele>
        <time>2018-09-14T19:35:48Z</time>
      </trkpt>
      <trkpt lat="-24.7919160" lon="-53.7258590">
        <ele>510.5</ele>
        <time>2018-09-14T19:35:49Z</time>
      </trkpt>
      <trkpt lat="-24.7918670" lon="-53.7258290">
        <ele>510.5</ele>
        <time>2018-09-14T19:35:50Z</time>
      </trkpt>
      <trkpt lat="-24.7918190" lon="-53.7257990">
        <ele>510.6</ele>
        <time>2018-09-14T19:35:51Z</time>
      </trkpt>
      <trkpt lat="-24.7917700" lon="-53.7257690">
        <ele>510.7</ele>
        <time>2018-09-14T19:35:52Z</time>
      </trkpt>
      <trkpt lat="-24.7916750" lon="-53.7257150">
        <ele>510.8</ele>
        <time>2018-09-14T19:35:53Z</time>
      </trkpt>
      <trkpt lat="-24.7916300" lon="-53.7256890">
        <ele>510.8</ele>
        <time>2018-09-14T19:35:54Z</time>
      </trkpt>
      <trkpt lat="-24.7915870" lon="-53.7256620">
        <ele>510.9</ele>
        <time>2018-09-14T19:35:55Z</time>
      </trkpt>
      <trkpt lat="-24.7915440" lon="-53.7256340">
        <ele>511.0</ele>
        <time>2018-09-14T19:35:56Z</time>
      </trkpt>
      <trkpt lat="-24.7915020" lon="-53.7256050">
        <ele>511.0</ele>
        <time>2018-09-14T19:35:57Z</time>
      </trkpt>
      <trkpt lat="-24.7914570" lon="-53.7255780">
        <ele>511.0</ele>
        <time>2018-09-14T19:35:58Z</time>
      </trkpt>
      <trkpt lat="-24.7914120" lon="-53.7255510">
        <ele>511.0</ele>
        <time>2018-09-14T19:35:59Z</time>
      </trkpt>
      <trkpt lat="-24.7913680" lon="-53.7255220">
        <ele>511.0</ele>
        <time>2018-09-14T19:36:00Z</time>
      </trkpt>
      <trkpt lat="-24.7913230" lon="-53.7254920">
        <ele>511.0</ele>
        <time>2018-09-14T19:36:01Z</time>
      </trkpt>
      <trkpt lat="-24.7912780" lon="-53.7254620">
        <ele>511.0</ele>
        <time>2018-09-14T19:36:02Z</time>
      </trkpt>
      <trkpt lat="-24.7912320" lon="-53.7254340">
        <ele>511.0</ele>
        <time>2018-09-14T19:36:03Z</time>
      </trkpt>
      <trkpt lat="-24.7911860" lon="-53.7254070">
        <ele>511.1</ele>
        <time>2018-09-14T19:36:04Z</time>
      </trkpt>
      <trkpt lat="-24.7911400" lon="-53.7253790">
        <ele>511.1</ele>
        <time>2018-09-14T19:36:05Z</time>
      </trkpt>
      <trkpt lat="-24.7910960" lon="-53.7253510">
        <ele>511.1</ele>
        <time>2018-09-14T19:36:06Z</time>
      </trkpt>
      <trkpt lat="-24.7910530" lon="-53.7253250">
        <ele>511.1</ele>
        <time>2018-09-14T19:36:07Z</time>
      </trkpt>
      <trkpt lat="-24.7910120" lon="-53.7252980">
        <ele>511.1</ele>
        <time>2018-09-14T19:36:08Z</time>
      </trkpt>
      <trkpt lat="-24.7909710" lon="-53.7252710">
        <ele>511.1</ele>
        <time>2018-09-14T19:36:09Z</time>
      </trkpt>
      <trkpt lat="-24.7909320" lon="-53.7252460">
        <ele>511.1</ele>
        <time>2018-09-14T19:36:10Z</time>
      </trkpt>
      <trkpt lat="-24.7908910" lon="-53.7252220">
        <ele>511.1</ele>
        <time>2018-09-14T19:36:11Z</time>
      </trkpt>
      <trkpt lat="-24.7908130" lon="-53.7251680">
        <ele>511.1</ele>
        <time>2018-09-14T19:36:13Z</time>
      </trkpt>
      <trkpt lat="-24.7907730" lon="-53.7251420">
        <ele>511.1</ele>
        <time>2018-09-14T19:36:14Z</time>
      </trkpt>
      <trkpt lat="-24.7907310" lon="-53.7251170">
        <ele>511.1</ele>
        <time>2018-09-14T19:36:15Z</time>
      </trkpt>
      <trkpt lat="-24.7906890" lon="-53.7250920">
        <ele>511.1</ele>
        <time>2018-09-14T19:36:16Z</time>
      </trkpt>
      <trkpt lat="-24.7906480" lon="-53.7250660">
        <ele>511.2</ele>
        <time>2018-09-14T19:36:17Z</time>
      </trkpt>
      <trkpt lat="-24.7906070" lon="-53.7250410">
        <ele>511.2</ele>
        <time>2018-09-14T19:36:18Z</time>
      </trkpt>
      <trkpt lat="-24.7905660" lon="-53.7250170">
        <ele>511.2</ele>
        <time>2018-09-14T19:36:19Z</time>
      </trkpt>
      <trkpt lat="-24.7905260" lon="-53.7249930">
        <ele>511.3</ele>
        <time>2018-09-14T19:36:20Z</time>
      </trkpt>
      <trkpt lat="-24.7904850" lon="-53.7249680">
        <ele>511.3</ele>
        <time>2018-09-14T19:36:21Z</time>
      </trkpt>
      <trkpt lat="-24.7904460" lon="-53.7249420">
        <ele>511.4</ele>
        <time>2018-09-14T19:36:22Z</time>
      </trkpt>
      <trkpt lat="-24.7904060" lon="-53.7249160">
        <ele>511.4</ele>
        <time>2018-09-14T19:36:23Z</time>
      </trkpt>
      <trkpt lat="-24.7903670" lon="-53.7248920">
        <ele>511.5</ele>
        <time>2018-09-14T19:36:24Z</time>
      </trkpt>
      <trkpt lat="-24.7903260" lon="-53.7248690">
        <ele>511.5</ele>
        <time>2018-09-14T19:36:25Z</time>
      </trkpt>
      <trkpt lat="-24.7902860" lon="-53.7248450">
        <ele>511.6</ele>
        <time>2018-09-14T19:36:26Z</time>
      </trkpt>
      <trkpt lat="-24.7902460" lon="-53.7248200">
        <ele>511.6</ele>
        <time>2018-09-14T19:36:27Z</time>
      </trkpt>
      <trkpt lat="-24.7902060" lon="-53.7247950">
        <ele>511.6</ele>
        <time>2018-09-14T19:36:28Z</time>
      </trkpt>
      <trkpt lat="-24.7901660" lon="-53.7247700">
        <ele>511.7</ele>
        <time>2018-09-14T19:36:29Z</time>
      </trkpt>
      <trkpt lat="-24.7901260" lon="-53.7247450">
        <ele>511.7</ele>
        <time>2018-09-14T19:36:30Z</time>
      </trkpt>
      <trkpt lat="-24.7900850" lon="-53.7247210">
        <ele>511.8</ele>
        <time>2018-09-14T19:36:31Z</time>
      </trkpt>
      <trkpt lat="-24.7900010" lon="-53.7246670">
        <ele>511.9</ele>
        <time>2018-09-14T19:36:33Z</time>
      </trkpt>
      <trkpt lat="-24.7899590" lon="-53.7246390">
        <ele>511.9</ele>
        <time>2018-09-14T19:36:34Z</time>
      </trkpt>
      <trkpt lat="-24.7899170" lon="-53.7246120">
        <ele>512.0</ele>
        <time>2018-09-14T19:36:35Z</time>
      </trkpt>
      <trkpt lat="-24.7898740" lon="-53.7245850">
        <ele>512.0</ele>
        <time>2018-09-14T19:36:36Z</time>
      </trkpt>
      <trkpt lat="-24.7898290" lon="-53.7245580">
        <ele>512.1</ele>
        <time>2018-09-14T19:36:37Z</time>
      </trkpt>
      <trkpt lat="-24.7897850" lon="-53.7245290">
        <ele>512.1</ele>
        <time>2018-09-14T19:36:38Z</time>
      </trkpt>
      <trkpt lat="-24.7897410" lon="-53.7245010">
        <ele>512.2</ele>
        <time>2018-09-14T19:36:39Z</time>
      </trkpt>
      <trkpt lat="-24.7896970" lon="-53.7244700">
        <ele>512.2</ele>
        <time>2018-09-14T19:36:40Z</time>
      </trkpt>
      <trkpt lat="-24.7896540" lon="-53.7244390">
        <ele>512.2</ele>
        <time>2018-09-14T19:36:41Z</time>
      </trkpt>
      <trkpt lat="-24.7896100" lon="-53.7244090">
        <ele>512.2</ele>
        <time>2018-09-14T19:36:42Z</time>
      </trkpt>
      <trkpt lat="-24.7895650" lon="-53.7243800">
        <ele>512.0</ele>
        <time>2018-09-14T19:36:43Z</time>
      </trkpt>
      <trkpt lat="-24.7895200" lon="-53.7243520">
        <ele>511.9</ele>
        <time>2018-09-14T19:36:44Z</time>
      </trkpt>
      <trkpt lat="-24.7894740" lon="-53.7243240">
        <ele>511.8</ele>
        <time>2018-09-14T19:36:45Z</time>
      </trkpt>
      <trkpt lat="-24.7894290" lon="-53.7242950">
        <ele>511.7</ele>
        <time>2018-09-14T19:36:46Z</time>
      </trkpt>
      <trkpt lat="-24.7893830" lon="-53.7242660">
        <ele>511.6</ele>
        <time>2018-09-14T19:36:47Z</time>
      </trkpt>
      <trkpt lat="-24.7893360" lon="-53.7242360">
        <ele>511.5</ele>
        <time>2018-09-14T19:36:48Z</time>
      </trkpt>
      <trkpt lat="-24.7892900" lon="-53.7242050">
        <ele>511.5</ele>
        <time>2018-09-14T19:36:49Z</time>
      </trkpt>
      <trkpt lat="-24.7892430" lon="-53.7241740">
        <ele>511.4</ele>
        <time>2018-09-14T19:36:50Z</time>
      </trkpt>
      <trkpt lat="-24.7891950" lon="-53.7241410">
        <ele>511.3</ele>
        <time>2018-09-14T19:36:51Z</time>
      </trkpt>
      <trkpt lat="-24.7891470" lon="-53.7241090">
        <ele>511.2</ele>
        <time>2018-09-14T19:36:52Z</time>
      </trkpt>
      <trkpt lat="-24.7890980" lon="-53.7240770">
        <ele>511.2</ele>
        <time>2018-09-14T19:36:53Z</time>
      </trkpt>
      <trkpt lat="-24.7890500" lon="-53.7240440">
        <ele>511.1</ele>
        <time>2018-09-14T19:36:54Z</time>
      </trkpt>
      <trkpt lat="-24.7890010" lon="-53.7240130">
        <ele>511.0</ele>
        <time>2018-09-14T19:36:55Z</time>
      </trkpt>
      <trkpt lat="-24.7889500" lon="-53.7239810">
        <ele>510.9</ele>
        <time>2018-09-14T19:36:56Z</time>
      </trkpt>
      <trkpt lat="-24.7888990" lon="-53.7239480">
        <ele>510.7</ele>
        <time>2018-09-14T19:36:57Z</time>
      </trkpt>
      <trkpt lat="-24.7888470" lon="-53.7239160">
        <ele>510.6</ele>
        <time>2018-09-14T19:36:58Z</time>
      </trkpt>
      <trkpt lat="-24.7887950" lon="-53.7238810">
        <ele>510.5</ele>
        <time>2018-09-14T19:36:59Z</time>
      </trkpt>
      <trkpt lat="-24.7887420" lon="-53.7238460">
        <ele>510.3</ele>
        <time>2018-09-14T19:37:00Z</time>
      </trkpt>
      <trkpt lat="-24.7886880" lon="-53.7238090">
        <ele>510.3</ele>
        <time>2018-09-14T19:37:01Z</time>
      </trkpt>
      <trkpt lat="-24.7886290" lon="-53.7237700">
        <ele>510.2</ele>
        <time>2018-09-14T19:37:02Z</time>
      </trkpt>
      <trkpt lat="-24.7885690" lon="-53.7237290">
        <ele>510.1</ele>
        <time>2018-09-14T19:37:03Z</time>
      </trkpt>
      <trkpt lat="-24.7885090" lon="-53.7236860">
        <ele>510.0</ele>
        <time>2018-09-14T19:37:04Z</time>
      </trkpt>
      <trkpt lat="-24.7884480" lon="-53.7236440">
        <ele>509.8</ele>
        <time>2018-09-14T19:37:05Z</time>
      </trkpt>
      <trkpt lat="-24.7883860" lon="-53.7236040">
        <ele>509.6</ele>
        <time>2018-09-14T19:37:06Z</time>
      </trkpt>
      <trkpt lat="-24.7883220" lon="-53.7235660">
        <ele>509.2</ele>
        <time>2018-09-14T19:37:07Z</time>
      </trkpt>
      <trkpt lat="-24.7882570" lon="-53.7235270">
        <ele>508.8</ele>
        <time>2018-09-14T19:37:08Z</time>
      </trkpt>
      <trkpt lat="-24.7881920" lon="-53.7234870">
        <ele>508.5</ele>
        <time>2018-09-14T19:37:09Z</time>
      </trkpt>
      <trkpt lat="-24.7881260" lon="-53.7234470">
        <ele>508.3</ele>
        <time>2018-09-14T19:37:10Z</time>
      </trkpt>
      <trkpt lat="-24.7880600" lon="-53.7234060">
        <ele>508.1</ele>
        <time>2018-09-14T19:37:11Z</time>
      </trkpt>
      <trkpt lat="-24.7879930" lon="-53.7233660">
        <ele>507.8</ele>
        <time>2018-09-14T19:37:12Z</time>
      </trkpt>
      <trkpt lat="-24.7879300" lon="-53.7233240">
        <ele>507.6</ele>
        <time>2018-09-14T19:37:13Z</time>
      </trkpt>
      <trkpt lat="-24.7878680" lon="-53.7232800">
        <ele>507.3</ele>
        <time>2018-09-14T19:37:14Z</time>
      </trkpt>
      <trkpt lat="-24.7878040" lon="-53.7232390">
        <ele>506.8</ele>
        <time>2018-09-14T19:37:15Z</time>
      </trkpt>
      <trkpt lat="-24.7877400" lon="-53.7232000">
        <ele>506.5</ele>
        <time>2018-09-14T19:37:16Z</time>
      </trkpt>
      <trkpt lat="-24.7876780" lon="-53.7231600">
        <ele>506.1</ele>
        <time>2018-09-14T19:37:17Z</time>
      </trkpt>
      <trkpt lat="-24.7876190" lon="-53.7231190">
        <ele>505.8</ele>
        <time>2018-09-14T19:37:18Z</time>
      </trkpt>
      <trkpt lat="-24.7875610" lon="-53.7230810">
        <ele>505.6</ele>
        <time>2018-09-14T19:37:19Z</time>
      </trkpt>
      <trkpt lat="-24.7875020" lon="-53.7230430">
        <ele>505.3</ele>
        <time>2018-09-14T19:37:20Z</time>
      </trkpt>
      <trkpt lat="-24.7874440" lon="-53.7230060">
        <ele>505.0</ele>
        <time>2018-09-14T19:37:21Z</time>
      </trkpt>
      <trkpt lat="-24.7873880" lon="-53.7229680">
        <ele>504.8</ele>
        <time>2018-09-14T19:37:22Z</time>
      </trkpt>
      <trkpt lat="-24.7873340" lon="-53.7229280">
        <ele>504.5</ele>
        <time>2018-09-14T19:37:23Z</time>
      </trkpt>
      <trkpt lat="-24.7872810" lon="-53.7228930">
        <ele>504.3</ele>
        <time>2018-09-14T19:37:24Z</time>
      </trkpt>
      <trkpt lat="-24.7872290" lon="-53.7228610">
        <ele>504.1</ele>
        <time>2018-09-14T19:37:25Z</time>
      </trkpt>
      <trkpt lat="-24.7871810" lon="-53.7228280">
        <ele>504.0</ele>
        <time>2018-09-14T19:37:26Z</time>
      </trkpt>
      <trkpt lat="-24.7871340" lon="-53.7227980">
        <ele>503.9</ele>
        <time>2018-09-14T19:37:27Z</time>
      </trkpt>
      <trkpt lat="-24.7870880" lon="-53.7227720">
        <ele>503.9</ele>
        <time>2018-09-14T19:37:28Z</time>
      </trkpt>
      <trkpt lat="-24.7870450" lon="-53.7227460">
        <ele>503.8</ele>
        <time>2018-09-14T19:37:29Z</time>
      </trkpt>
      <trkpt lat="-24.7870050" lon="-53.7227190">
        <ele>503.8</ele>
        <time>2018-09-14T19:37:30Z</time>
      </trkpt>
      <trkpt lat="-24.7869650" lon="-53.7226930">
        <ele>503.8</ele>
        <time>2018-09-14T19:37:31Z</time>
      </trkpt>
      <trkpt lat="-24.7869260" lon="-53.7226690">
        <ele>503.7</ele>
        <time>2018-09-14T19:37:32Z</time>
      </trkpt>
      <trkpt lat="-24.7868890" lon="-53.7226430">
        <ele>503.7</ele>
        <time>2018-09-14T19:37:33Z</time>
      </trkpt>
      <trkpt lat="-24.7868520" lon="-53.7226190">
        <ele>503.6</ele>
        <time>2018-09-14T19:37:34Z</time>
      </trkpt>
      <trkpt lat="-24.7868160" lon="-53.7225970">
        <ele>503.6</ele>
        <time>2018-09-14T19:37:35Z</time>
      </trkpt>
      <trkpt lat="-24.7867810" lon="-53.7225750">
        <ele>503.6</ele>
        <time>2018-09-14T19:37:36Z</time>
      </trkpt>
      <trkpt lat="-24.7867460" lon="-53.7225540">
        <ele>503.6</ele>
        <time>2018-09-14T19:37:37Z</time>
      </trkpt>
      <trkpt lat="-24.7867110" lon="-53.7225330">
        <ele>503.5</ele>
        <time>2018-09-14T19:37:38Z</time>
      </trkpt>
      <trkpt lat="-24.7866750" lon="-53.7225140">
        <ele>503.5</ele>
        <time>2018-09-14T19:37:39Z</time>
      </trkpt>
      <trkpt lat="-24.7866390" lon="-53.7224970">
        <ele>503.5</ele>
        <time>2018-09-14T19:37:40Z</time>
      </trkpt>
      <trkpt lat="-24.7866020" lon="-53.7224800">
        <ele>503.4</ele>
        <time>2018-09-14T19:37:41Z</time>
      </trkpt>
      <trkpt lat="-24.7865650" lon="-53.7224620">
        <ele>503.4</ele>
        <time>2018-09-14T19:37:42Z</time>
      </trkpt>
      <trkpt lat="-24.7865280" lon="-53.7224410">
        <ele>503.4</ele>
        <time>2018-09-14T19:37:43Z</time>
      </trkpt>
      <trkpt lat="-24.7864900" lon="-53.7224200">
        <ele>503.4</ele>
        <time>2018-09-14T19:37:44Z</time>
      </trkpt>
      <trkpt lat="-24.7864490" lon="-53.7224000">
        <ele>503.3</ele>
        <time>2018-09-14T19:37:45Z</time>
      </trkpt>
      <trkpt lat="-24.7864070" lon="-53.7223830">
        <ele>503.3</ele>
        <time>2018-09-14T19:37:46Z</time>
      </trkpt>
      <trkpt lat="-24.7863650" lon="-53.7223640">
        <ele>503.2</ele>
        <time>2018-09-14T19:37:47Z</time>
      </trkpt>
      <trkpt lat="-24.7863240" lon="-53.7223420">
        <ele>503.2</ele>
        <time>2018-09-14T19:37:48Z</time>
      </trkpt>
      <trkpt lat="-24.7862830" lon="-53.7223180">
        <ele>503.1</ele>
        <time>2018-09-14T19:37:49Z</time>
      </trkpt>
      <trkpt lat="-24.7862380" lon="-53.7222960">
        <ele>503.0</ele>
        <time>2018-09-14T19:37:50Z</time>
      </trkpt>
      <trkpt lat="-24.7861920" lon="-53.7222760">
        <ele>502.9</ele>
        <time>2018-09-14T19:37:51Z</time>
      </trkpt>
      <trkpt lat="-24.7861440" lon="-53.7222560">
        <ele>502.9</ele>
        <time>2018-09-14T19:37:52Z</time>
      </trkpt>
      <trkpt lat="-24.7860950" lon="-53.7222340">
        <ele>502.8</ele>
        <time>2018-09-14T19:37:53Z</time>
      </trkpt>
      <trkpt lat="-24.7860450" lon="-53.7222110">
        <ele>502.7</ele>
        <time>2018-09-14T19:37:54Z</time>
      </trkpt>
      <trkpt lat="-24.7859940" lon="-53.7221900">
        <ele>502.7</ele>
        <time>2018-09-14T19:37:55Z</time>
      </trkpt>
      <trkpt lat="-24.7859410" lon="-53.7221690">
        <ele>502.6</ele>
        <time>2018-09-14T19:37:56Z</time>
      </trkpt>
      <trkpt lat="-24.7858890" lon="-53.7221480">
        <ele>502.5</ele>
        <time>2018-09-14T19:37:57Z</time>
      </trkpt>
      <trkpt lat="-24.7858890" lon="-53.7221480">
        <ele>502.5</ele>
        <time>2018-09-14T19:37:58Z</time>
      </trkpt>
      <trkpt lat="-24.7858340" lon="-53.7221300">
        <ele>502.4</ele>
        <time>2018-09-14T19:37:59Z</time>
      </trkpt>
      <trkpt lat="-24.7857790" lon="-53.7221110">
        <ele>502.4</ele>
        <time>2018-09-14T19:38:00Z</time>
      </trkpt>
      <trkpt lat="-24.7857230" lon="-53.7220910">
        <ele>502.3</ele>
        <time>2018-09-14T19:38:01Z</time>
      </trkpt>
      <trkpt lat="-24.7856670" lon="-53.7220720">
        <ele>502.2</ele>
        <time>2018-09-14T19:38:02Z</time>
      </trkpt>
      <trkpt lat="-24.7856090" lon="-53.7220540">
        <ele>502.1</ele>
        <time>2018-09-14T19:38:03Z</time>
      </trkpt>
      <trkpt lat="-24.7855500" lon="-53.7220380">
        <ele>502.0</ele>
        <time>2018-09-14T19:38:04Z</time>
      </trkpt>
      <trkpt lat="-24.7854920" lon="-53.7220250">
        <ele>501.9</ele>
        <time>2018-09-14T19:38:05Z</time>
      </trkpt>
      <trkpt lat="-24.7854360" lon="-53.7220040">
        <ele>501.7</ele>
        <time>2018-09-14T19:38:06Z</time>
      </trkpt>
      <trkpt lat="-24.7853840" lon="-53.7219730">
        <ele>501.5</ele>
        <time>2018-09-14T19:38:07Z</time>
      </trkpt>
      <trkpt lat="-24.7853330" lon="-53.7219420">
        <ele>501.4</ele>
        <time>2018-09-14T19:38:08Z</time>
      </trkpt>
      <trkpt lat="-24.7852800" lon="-53.7219130">
        <ele>501.3</ele>
        <time>2018-09-14T19:38:09Z</time>
      </trkpt>
      <trkpt lat="-24.7852290" lon="-53.7218860">
        <ele>501.2</ele>
        <time>2018-09-14T19:38:10Z</time>
      </trkpt>
      <trkpt lat="-24.7851850" lon="-53.7218610">
        <ele>501.8</ele>
        <time>2018-09-14T19:38:11Z</time>
      </trkpt>
      <trkpt lat="-24.7851480" lon="-53.7218410">
        <ele>501.8</ele>
        <time>2018-09-14T19:38:12Z</time>
      </trkpt>
      <trkpt lat="-24.7851180" lon="-53.7218280">
        <ele>501.8</ele>
        <time>2018-09-14T19:38:13Z</time>
      </trkpt>
      <trkpt lat="-24.7850960" lon="-53.7218190">
        <ele>501.8</ele>
        <time>2018-09-14T19:38:14Z</time>
      </trkpt>
      <trkpt lat="-24.7850830" lon="-53.7218150">
        <ele>501.9</ele>
        <time>2018-09-14T19:38:15Z</time>
      </trkpt>
      <trkpt lat="-24.7850790" lon="-53.7218170">
        <ele>501.8</ele>
        <time>2018-09-14T19:38:16Z</time>
      </trkpt>
      <trkpt lat="-24.7850780" lon="-53.7218160">
        <ele>501.8</ele>
        <time>2018-09-14T19:38:17Z</time>
      </trkpt>
      <trkpt lat="-24.7850770" lon="-53.7218160">
        <ele>501.8</ele>
        <time>2018-09-14T19:38:18Z</time>
      </trkpt>
      <trkpt lat="-24.7850760" lon="-53.7218170">
        <ele>501.8</ele>
        <time>2018-09-14T19:38:19Z</time>
      </trkpt>
      <trkpt lat="-24.7850690" lon="-53.7218200">
        <ele>501.8</ele>
        <time>2018-09-14T19:38:22Z</time>
      </trkpt>
      <trkpt lat="-24.7850640" lon="-53.7218170">
        <ele>501.8</ele>
        <time>2018-09-14T19:38:23Z</time>
      </trkpt>
      <trkpt lat="-24.7850610" lon="-53.7218170">
        <ele>501.8</ele>
        <time>2018-09-14T19:38:24Z</time>
      </trkpt>
      <trkpt lat="-24.7850600" lon="-53.7218200">
        <ele>501.8</ele>
        <time>2018-09-14T19:38:25Z</time>
      </trkpt>
      <trkpt lat="-24.7850600" lon="-53.7218220">
        <ele>501.8</ele>
        <time>2018-09-14T19:38:26Z</time>
      </trkpt>
      <trkpt lat="-24.7850590" lon="-53.7218230">
        <ele>501.8</ele>
        <time>2018-09-14T19:38:27Z</time>
      </trkpt>
      <trkpt lat="-24.7850570" lon="-53.7218210">
        <ele>501.8</ele>
        <time>2018-09-14T19:38:37Z</time>
      </trkpt>
      <trkpt lat="-24.7850580" lon="-53.7218240">
        <ele>501.8</ele>
        <time>2018-09-14T19:38:38Z</time>
      </trkpt>
      <trkpt lat="-24.7850570" lon="-53.7218260">
        <ele>501.8</ele>
        <time>2018-09-14T19:38:39Z</time>
      </trkpt>
      <trkpt lat="-24.7850580" lon="-53.7218250">
        <ele>501.8</ele>
        <time>2018-09-14T19:38:40Z</time>
      </trkpt>
      <trkpt lat="-24.7850540" lon="-53.7218150">
        <ele>501.8</ele>
        <time>2018-09-14T19:40:07Z</time>
      </trkpt>
      <trkpt lat="-24.7850510" lon="-53.7218170">
        <ele>501.8</ele>
        <time>2018-09-14T19:40:08Z</time>
      </trkpt>
      <trkpt lat="-24.7850480" lon="-53.7218200">
        <ele>501.8</ele>
        <time>2018-09-14T19:40:09Z</time>
      </trkpt>
      <trkpt lat="-24.7850470" lon="-53.7218230">
        <ele>501.8</ele>
        <time>2018-09-14T19:40:10Z</time>
      </trkpt>
      <trkpt lat="-24.7850460" lon="-53.7218240">
        <ele>501.8</ele>
        <time>2018-09-14T19:40:11Z</time>
      </trkpt>
      <trkpt lat="-24.7850460" lon="-53.7218240">
        <ele>501.8</ele>
        <time>2018-09-14T19:40:12Z</time>
      </trkpt>
      <trkpt lat="-24.7850680" lon="-53.7218320">
        <ele>501.8</ele>
        <time>2018-09-14T19:41:32Z</time>
      </trkpt>
      <trkpt lat="-24.7850680" lon="-53.7218330">
        <ele>501.8</ele>
        <time>2018-09-14T19:41:33Z</time>
      </trkpt>
      <trkpt lat="-24.7850670" lon="-53.7218330">
        <ele>501.8</ele>
        <time>2018-09-14T19:41:34Z</time>
      </trkpt>
      <trkpt lat="-24.7850450" lon="-53.7218450">
        <ele>501.7</ele>
        <time>2018-09-14T19:43:03Z</time>
      </trkpt>
      <trkpt lat="-24.7850310" lon="-53.7218500">
        <ele>501.7</ele>
        <time>2018-09-14T19:43:04Z</time>
      </trkpt>
      <trkpt lat="-24.7850100" lon="-53.7218540">
        <ele>501.7</ele>
        <time>2018-09-14T19:43:05Z</time>
      </trkpt>
      <trkpt lat="-24.7849870" lon="-53.7218530">
        <ele>501.6</ele>
        <time>2018-09-14T19:43:06Z</time>
      </trkpt>
      <trkpt lat="-24.7849640" lon="-53.7218600">
        <ele>501.6</ele>
        <time>2018-09-14T19:43:07Z</time>
      </trkpt>
      <trkpt lat="-24.7849410" lon="-53.7218760">
        <ele>500.7</ele>
        <time>2018-09-14T19:43:08Z</time>
      </trkpt>
      <trkpt lat="-24.7849150" lon="-53.7218940">
        <ele>500.6</ele>
        <time>2018-09-14T19:43:09Z</time>
      </trkpt>
      <trkpt lat="-24.7848850" lon="-53.7219130">
        <ele>500.5</ele>
        <time>2018-09-14T19:43:10Z</time>
      </trkpt>
      <trkpt lat="-24.7848530" lon="-53.7219290">
        <ele>500.4</ele>
        <time>2018-09-14T19:43:11Z</time>
      </trkpt>
      <trkpt lat="-24.7848190" lon="-53.7219450">
        <ele>500.3</ele>
        <time>2018-09-14T19:43:12Z</time>
      </trkpt>
      <trkpt lat="-24.7847840" lon="-53.7219600">
        <ele>500.2</ele>
        <time>2018-09-14T19:43:13Z</time>
      </trkpt>
      <trkpt lat="-24.7847480" lon="-53.7219700">
        <ele>500.1</ele>
        <time>2018-09-14T19:43:14Z</time>
      </trkpt>
      <trkpt lat="-24.7847100" lon="-53.7219770">
        <ele>500.0</ele>
        <time>2018-09-14T19:43:15Z</time>
      </trkpt>
      <trkpt lat="-24.7846710" lon="-53.7219830">
        <ele>499.9</ele>
        <time>2018-09-14T19:43:16Z</time>
      </trkpt>
      <trkpt lat="-24.7846310" lon="-53.7219890">
        <ele>499.8</ele>
        <time>2018-09-14T19:43:17Z</time>
      </trkpt>
      <trkpt lat="-24.7845910" lon="-53.7219950">
        <ele>499.7</ele>
        <time>2018-09-14T19:43:18Z</time>
      </trkpt>
      <trkpt lat="-24.7845500" lon="-53.7220010">
        <ele>499.6</ele>
        <time>2018-09-14T19:43:19Z</time>
      </trkpt>
      <trkpt lat="-24.7845090" lon="-53.7220090">
        <ele>499.4</ele>
        <time>2018-09-14T19:43:20Z</time>
      </trkpt>
      <trkpt lat="-24.7844700" lon="-53.7220160">
        <ele>499.3</ele>
        <time>2018-09-14T19:43:21Z</time>
      </trkpt>
      <trkpt lat="-24.7844300" lon="-53.7220230">
        <ele>499.2</ele>
        <time>2018-09-14T19:43:22Z</time>
      </trkpt>
      <trkpt lat="-24.7843920" lon="-53.7220270">
        <ele>499.1</ele>
        <time>2018-09-14T19:43:23Z</time>
      </trkpt>
      <trkpt lat="-24.7843530" lon="-53.7220320">
        <ele>499.0</ele>
        <time>2018-09-14T19:43:24Z</time>
      </trkpt>
      <trkpt lat="-24.7843150" lon="-53.7220370">
        <ele>498.9</ele>
        <time>2018-09-14T19:43:25Z</time>
      </trkpt>
      <trkpt lat="-24.7842760" lon="-53.7220420">
        <ele>498.8</ele>
        <time>2018-09-14T19:43:26Z</time>
      </trkpt>
      <trkpt lat="-24.7842370" lon="-53.7220470">
        <ele>498.7</ele>
        <time>2018-09-14T19:43:27Z</time>
      </trkpt>
      <trkpt lat="-24.7841980" lon="-53.7220520">
        <ele>498.6</ele>
        <time>2018-09-14T19:43:28Z</time>
      </trkpt>
      <trkpt lat="-24.7841590" lon="-53.7220580">
        <ele>498.5</ele>
        <time>2018-09-14T19:43:29Z</time>
      </trkpt>
      <trkpt lat="-24.7841200" lon="-53.7220630">
        <ele>498.5</ele>
        <time>2018-09-14T19:43:30Z</time>
      </trkpt>
      <trkpt lat="-24.7840810" lon="-53.7220680">
        <ele>498.4</ele>
        <time>2018-09-14T19:43:31Z</time>
      </trkpt>
      <trkpt lat="-24.7840420" lon="-53.7220720">
        <ele>498.3</ele>
        <time>2018-09-14T19:43:32Z</time>
      </trkpt>
      <trkpt lat="-24.7840030" lon="-53.7220760">
        <ele>498.2</ele>
        <time>2018-09-14T19:43:33Z</time>
      </trkpt>
      <trkpt lat="-24.7839640" lon="-53.7220800">
        <ele>498.1</ele>
        <time>2018-09-14T19:43:34Z</time>
      </trkpt>
      <trkpt lat="-24.7839260" lon="-53.7220860">
        <ele>498.0</ele>
        <time>2018-09-14T19:43:35Z</time>
      </trkpt>
      <trkpt lat="-24.7838870" lon="-53.7220910">
        <ele>497.9</ele>
        <time>2018-09-14T19:43:36Z</time>
      </trkpt>
      <trkpt lat="-24.7838500" lon="-53.7220990">
        <ele>497.8</ele>
        <time>2018-09-14T19:43:37Z</time>
      </trkpt>
      <trkpt lat="-24.7837770" lon="-53.7221160">
        <ele>497.5</ele>
        <time>2018-09-14T19:43:38Z</time>
      </trkpt>
      <trkpt lat="-24.7837410" lon="-53.7221230">
        <ele>497.3</ele>
        <time>2018-09-14T19:43:39Z</time>
      </trkpt>
      <trkpt lat="-24.7837050" lon="-53.7221290">
        <ele>497.1</ele>
        <time>2018-09-14T19:43:40Z</time>
      </trkpt>
      <trkpt lat="-24.7836690" lon="-53.7221360">
        <ele>497.0</ele>
        <time>2018-09-14T19:43:41Z</time>
      </trkpt>
      <trkpt lat="-24.7836320" lon="-53.7221440">
        <ele>497.0</ele>
        <time>2018-09-14T19:43:42Z</time>
      </trkpt>
      <trkpt lat="-24.7835930" lon="-53.7221480">
        <ele>496.9</ele>
        <time>2018-09-14T19:43:43Z</time>
      </trkpt>
      <trkpt lat="-24.7835540" lon="-53.7221510">
        <ele>496.9</ele>
        <time>2018-09-14T19:43:44Z</time>
      </trkpt>
      <trkpt lat="-24.7835140" lon="-53.7221540">
        <ele>496.9</ele>
        <time>2018-09-14T19:43:45Z</time>
      </trkpt>
      <trkpt lat="-24.7834730" lon="-53.7221590">
        <ele>496.9</ele>
        <time>2018-09-14T19:43:46Z</time>
      </trkpt>
      <trkpt lat="-24.7834330" lon="-53.7221660">
        <ele>496.9</ele>
        <time>2018-09-14T19:43:47Z</time>
      </trkpt>
      <trkpt lat="-24.7833920" lon="-53.7221730">
        <ele>496.8</ele>
        <time>2018-09-14T19:43:48Z</time>
      </trkpt>
      <trkpt lat="-24.7833510" lon="-53.7221770">
        <ele>496.8</ele>
        <time>2018-09-14T19:43:49Z</time>
      </trkpt>
      <trkpt lat="-24.7833090" lon="-53.7221810">
        <ele>496.8</ele>
        <time>2018-09-14T19:43:50Z</time>
      </trkpt>
      <trkpt lat="-24.7832670" lon="-53.7221840">
        <ele>496.8</ele>
        <time>2018-09-14T19:43:51Z</time>
      </trkpt>
      <trkpt lat="-24.7831810" lon="-53.7221950">
        <ele>496.7</ele>
        <time>2018-09-14T19:43:53Z</time>
      </trkpt>
      <trkpt lat="-24.7831370" lon="-53.7222000">
        <ele>496.7</ele>
        <time>2018-09-14T19:43:54Z</time>
      </trkpt>
      <trkpt lat="-24.7830920" lon="-53.7222060">
        <ele>496.7</ele>
        <time>2018-09-14T19:43:55Z</time>
      </trkpt>
      <trkpt lat="-24.7830460" lon="-53.7222120">
        <ele>496.6</ele>
        <time>2018-09-14T19:43:56Z</time>
      </trkpt>
      <trkpt lat="-24.7829990" lon="-53.7222180">
        <ele>496.6</ele>
        <time>2018-09-14T19:43:57Z</time>
      </trkpt>
      <trkpt lat="-24.7829500" lon="-53.7222250">
        <ele>496.6</ele>
        <time>2018-09-14T19:43:58Z</time>
      </trkpt>
      <trkpt lat="-24.7828990" lon="-53.7222310">
        <ele>496.5</ele>
        <time>2018-09-14T19:43:59Z</time>
      </trkpt>
      <trkpt lat="-24.7828460" lon="-53.7222370">
        <ele>496.5</ele>
        <time>2018-09-14T19:44:00Z</time>
      </trkpt>
      <trkpt lat="-24.7827910" lon="-53.7222440">
        <ele>496.5</ele>
        <time>2018-09-14T19:44:01Z</time>
      </trkpt>
      <trkpt lat="-24.7827350" lon="-53.7222510">
        <ele>496.4</ele>
        <time>2018-09-14T19:44:02Z</time>
      </trkpt>
      <trkpt lat="-24.7826790" lon="-53.7222580">
        <ele>496.4</ele>
        <time>2018-09-14T19:44:03Z</time>
      </trkpt>
      <trkpt lat="-24.7826200" lon="-53.7222630">
        <ele>496.2</ele>
        <time>2018-09-14T19:44:04Z</time>
      </trkpt>
      <trkpt lat="-24.7825570" lon="-53.7222730">
        <ele>496.0</ele>
        <time>2018-09-14T19:44:05Z</time>
      </trkpt>
      <trkpt lat="-24.7824930" lon="-53.7222840">
        <ele>495.9</ele>
        <time>2018-09-14T19:44:06Z</time>
      </trkpt>
      <trkpt lat="-24.7824270" lon="-53.7222910">
        <ele>495.7</ele>
        <time>2018-09-14T19:44:07Z</time>
      </trkpt>
      <trkpt lat="-24.7823600" lon="-53.7222970">
        <ele>495.5</ele>
        <time>2018-09-14T19:44:08Z</time>
      </trkpt>
      <trkpt lat="-24.7822910" lon="-53.7223040">
        <ele>495.3</ele>
        <time>2018-09-14T19:44:09Z</time>
      </trkpt>
      <trkpt lat="-24.7822200" lon="-53.7223110">
        <ele>495.0</ele>
        <time>2018-09-14T19:44:10Z</time>
      </trkpt>
      <trkpt lat="-24.7821470" lon="-53.7223190">
        <ele>494.7</ele>
        <time>2018-09-14T19:44:11Z</time>
      </trkpt>
      <trkpt lat="-24.7820730" lon="-53.7223270">
        <ele>494.3</ele>
        <time>2018-09-14T19:44:12Z</time>
      </trkpt>
      <trkpt lat="-24.7819970" lon="-53.7223360">
        <ele>493.9</ele>
        <time>2018-09-14T19:44:13Z</time>
      </trkpt>
      <trkpt lat="-24.7819190" lon="-53.7223450">
        <ele>493.3</ele>
        <time>2018-09-14T19:44:14Z</time>
      </trkpt>
      <trkpt lat="-24.7818410" lon="-53.7223540">
        <ele>492.6</ele>
        <time>2018-09-14T19:44:15Z</time>
      </trkpt>
      <trkpt lat="-24.7817610" lon="-53.7223650">
        <ele>491.8</ele>
        <time>2018-09-14T19:44:16Z</time>
      </trkpt>
      <trkpt lat="-24.7816810" lon="-53.7223740">
        <ele>491.1</ele>
        <time>2018-09-14T19:44:17Z</time>
      </trkpt>
      <trkpt lat="-24.7815990" lon="-53.7223830">
        <ele>490.6</ele>
        <time>2018-09-14T19:44:18Z</time>
      </trkpt>
      <trkpt lat="-24.7815160" lon="-53.7223930">
        <ele>490.2</ele>
        <time>2018-09-14T19:44:19Z</time>
      </trkpt>
      <trkpt lat="-24.7814320" lon="-53.7224030">
        <ele>489.7</ele>
        <time>2018-09-14T19:44:20Z</time>
      </trkpt>
      <trkpt lat="-24.7813480" lon="-53.7224130">
        <ele>489.0</ele>
        <time>2018-09-14T19:44:21Z</time>
      </trkpt>
      <trkpt lat="-24.7812630" lon="-53.7224210">
        <ele>488.3</ele>
        <time>2018-09-14T19:44:22Z</time>
      </trkpt>
      <trkpt lat="-24.7811780" lon="-53.7224310">
        <ele>487.7</ele>
        <time>2018-09-14T19:44:23Z</time>
      </trkpt>
      <trkpt lat="-24.7810930" lon="-53.7224410">
        <ele>487.0</ele>
        <time>2018-09-14T19:44:24Z</time>
      </trkpt>
      <trkpt lat="-24.7810070" lon="-53.7224520">
        <ele>486.2</ele>
        <time>2018-09-14T19:44:25Z</time>
      </trkpt>
      <trkpt lat="-24.7809220" lon="-53.7224620">
        <ele>485.4</ele>
        <time>2018-09-14T19:44:26Z</time>
      </trkpt>
      <trkpt lat="-24.7808370" lon="-53.7224720">
        <ele>484.8</ele>
        <time>2018-09-14T19:44:27Z</time>
      </trkpt>
      <trkpt lat="-24.7807530" lon="-53.7224810">
        <ele>484.3</ele>
        <time>2018-09-14T19:44:28Z</time>
      </trkpt>
      <trkpt lat="-24.7806690" lon="-53.7224880">
        <ele>483.6</ele>
        <time>2018-09-14T19:44:29Z</time>
      </trkpt>
      <trkpt lat="-24.7805850" lon="-53.7224940">
        <ele>482.9</ele>
        <time>2018-09-14T19:44:30Z</time>
      </trkpt>
      <trkpt lat="-24.7805030" lon="-53.7225010">
        <ele>482.5</ele>
        <time>2018-09-14T19:44:31Z</time>
      </trkpt>
      <trkpt lat="-24.7804200" lon="-53.7225110">
        <ele>482.0</ele>
        <time>2018-09-14T19:44:32Z</time>
      </trkpt>
      <trkpt lat="-24.7803390" lon="-53.7225200">
        <ele>481.7</ele>
        <time>2018-09-14T19:44:33Z</time>
      </trkpt>
      <trkpt lat="-24.7802610" lon="-53.7225280">
        <ele>481.3</ele>
        <time>2018-09-14T19:44:34Z</time>
      </trkpt>
      <trkpt lat="-24.7801830" lon="-53.7225380">
        <ele>481.0</ele>
        <time>2018-09-14T19:44:35Z</time>
      </trkpt>
      <trkpt lat="-24.7801070" lon="-53.7225460">
        <ele>480.7</ele>
        <time>2018-09-14T19:44:36Z</time>
      </trkpt>
      <trkpt lat="-24.7800330" lon="-53.7225550">
        <ele>480.4</ele>
        <time>2018-09-14T19:44:37Z</time>
      </trkpt>
      <trkpt lat="-24.7799580" lon="-53.7225620">
        <ele>480.1</ele>
        <time>2018-09-14T19:44:38Z</time>
      </trkpt>
      <trkpt lat="-24.7798850" lon="-53.7225720">
        <ele>479.9</ele>
        <time>2018-09-14T19:44:39Z</time>
      </trkpt>
      <trkpt lat="-24.7798120" lon="-53.7225790">
        <ele>479.7</ele>
        <time>2018-09-14T19:44:40Z</time>
      </trkpt>
      <trkpt lat="-24.7797410" lon="-53.7225850">
        <ele>479.6</ele>
        <time>2018-09-14T19:44:41Z</time>
      </trkpt>
      <trkpt lat="-24.7796720" lon="-53.7225930">
        <ele>479.4</ele>
        <time>2018-09-14T19:44:42Z</time>
      </trkpt>
      <trkpt lat="-24.7796050" lon="-53.7226030">
        <ele>479.3</ele>
        <time>2018-09-14T19:44:43Z</time>
      </trkpt>
      <trkpt lat="-24.7795370" lon="-53.7226120">
        <ele>479.2</ele>
        <time>2018-09-14T19:44:44Z</time>
      </trkpt>
      <trkpt lat="-24.7794710" lon="-53.7226170">
        <ele>479.1</ele>
        <time>2018-09-14T19:44:45Z</time>
      </trkpt>
      <trkpt lat="-24.7794070" lon="-53.7226230">
        <ele>479.1</ele>
        <time>2018-09-14T19:44:46Z</time>
      </trkpt>
      <trkpt lat="-24.7793440" lon="-53.7226300">
        <ele>479.1</ele>
        <time>2018-09-14T19:44:47Z</time>
      </trkpt>
      <trkpt lat="-24.7792820" lon="-53.7226390">
        <ele>479.0</ele>
        <time>2018-09-14T19:44:48Z</time>
      </trkpt>
      <trkpt lat="-24.7792200" lon="-53.7226470">
        <ele>479.0</ele>
        <time>2018-09-14T19:44:49Z</time>
      </trkpt>
      <trkpt lat="-24.7791590" lon="-53.7226540">
        <ele>479.0</ele>
        <time>2018-09-14T19:44:50Z</time>
      </trkpt>
      <trkpt lat="-24.7790990" lon="-53.7226610">
        <ele>479.0</ele>
        <time>2018-09-14T19:44:51Z</time>
      </trkpt>
      <trkpt lat="-24.7790360" lon="-53.7226700">
        <ele>479.0</ele>
        <time>2018-09-14T19:44:52Z</time>
      </trkpt>
      <trkpt lat="-24.7789740" lon="-53.7226780">
        <ele>479.1</ele>
        <time>2018-09-14T19:44:53Z</time>
      </trkpt>
      <trkpt lat="-24.7789130" lon="-53.7226860">
        <ele>479.4</ele>
        <time>2018-09-14T19:44:54Z</time>
      </trkpt>
      <trkpt lat="-24.7788550" lon="-53.7226940">
        <ele>479.6</ele>
        <time>2018-09-14T19:44:55Z</time>
      </trkpt>
      <trkpt lat="-24.7787970" lon="-53.7227000">
        <ele>479.8</ele>
        <time>2018-09-14T19:44:56Z</time>
      </trkpt>
      <trkpt lat="-24.7787400" lon="-53.7227080">
        <ele>480.1</ele>
        <time>2018-09-14T19:44:57Z</time>
      </trkpt>
      <trkpt lat="-24.7786830" lon="-53.7227160">
        <ele>480.3</ele>
        <time>2018-09-14T19:44:58Z</time>
      </trkpt>
      <trkpt lat="-24.7786280" lon="-53.7227230">
        <ele>480.5</ele>
        <time>2018-09-14T19:44:59Z</time>
      </trkpt>
      <trkpt lat="-24.7785730" lon="-53.7227300">
        <ele>480.8</ele>
        <time>2018-09-14T19:45:00Z</time>
      </trkpt>
      <trkpt lat="-24.7785180" lon="-53.7227350">
        <ele>481.1</ele>
        <time>2018-09-14T19:45:01Z</time>
      </trkpt>
      <trkpt lat="-24.7784640" lon="-53.7227400">
        <ele>481.4</ele>
        <time>2018-09-14T19:45:02Z</time>
      </trkpt>
      <trkpt lat="-24.7784100" lon="-53.7227470">
        <ele>481.6</ele>
        <time>2018-09-14T19:45:03Z</time>
      </trkpt>
      <trkpt lat="-24.7783570" lon="-53.7227530">
        <ele>481.8</ele>
        <time>2018-09-14T19:45:04Z</time>
      </trkpt>
      <trkpt lat="-24.7783040" lon="-53.7227590">
        <ele>482.0</ele>
        <time>2018-09-14T19:45:05Z</time>
      </trkpt>
      <trkpt lat="-24.7782510" lon="-53.7227650">
        <ele>482.2</ele>
        <time>2018-09-14T19:45:06Z</time>
      </trkpt>
      <trkpt lat="-24.7781980" lon="-53.7227710">
        <ele>482.4</ele>
        <time>2018-09-14T19:45:07Z</time>
      </trkpt>
      <trkpt lat="-24.7781450" lon="-53.7227770">
        <ele>482.6</ele>
        <time>2018-09-14T19:45:08Z</time>
      </trkpt>
      <trkpt lat="-24.7780930" lon="-53.7227830">
        <ele>482.8</ele>
        <time>2018-09-14T19:45:09Z</time>
      </trkpt>
      <trkpt lat="-24.7780410" lon="-53.7227890">
        <ele>483.0</ele>
        <time>2018-09-14T19:45:10Z</time>
      </trkpt>
      <trkpt lat="-24.7779880" lon="-53.7227950">
        <ele>483.2</ele>
        <time>2018-09-14T19:45:11Z</time>
      </trkpt>
      <trkpt lat="-24.7779340" lon="-53.7228010">
        <ele>483.4</ele>
        <time>2018-09-14T19:45:12Z</time>
      </trkpt>
      <trkpt lat="-24.7778790" lon="-53.7228060">
        <ele>483.5</ele>
        <time>2018-09-14T19:45:13Z</time>
      </trkpt>
      <trkpt lat="-24.7778220" lon="-53.7228130">
        <ele>483.7</ele>
        <time>2018-09-14T19:45:14Z</time>
      </trkpt>
      <trkpt lat="-24.7777630" lon="-53.7228210">
        <ele>483.9</ele>
        <time>2018-09-14T19:45:15Z</time>
      </trkpt>
      <trkpt lat="-24.7777010" lon="-53.7228320">
        <ele>484.0</ele>
        <time>2018-09-14T19:45:16Z</time>
      </trkpt>
      <trkpt lat="-24.7776380" lon="-53.7228440">
        <ele>484.0</ele>
        <time>2018-09-14T19:45:17Z</time>
      </trkpt>
      <trkpt lat="-24.7775720" lon="-53.7228570">
        <ele>484.0</ele>
        <time>2018-09-14T19:45:18Z</time>
      </trkpt>
      <trkpt lat="-24.7775040" lon="-53.7228730">
        <ele>483.9</ele>
        <time>2018-09-14T19:45:19Z</time>
      </trkpt>
      <trkpt lat="-24.7774350" lon="-53.7228970">
        <ele>483.9</ele>
        <time>2018-09-14T19:45:20Z</time>
      </trkpt>
      <trkpt lat="-24.7773680" lon="-53.7229280">
        <ele>483.8</ele>
        <time>2018-09-14T19:45:21Z</time>
      </trkpt>
      <trkpt lat="-24.7773020" lon="-53.7229650">
        <ele>483.7</ele>
        <time>2018-09-14T19:45:22Z</time>
      </trkpt>
      <trkpt lat="-24.7772340" lon="-53.7230060">
        <ele>483.6</ele>
        <time>2018-09-14T19:45:23Z</time>
      </trkpt>
      <trkpt lat="-24.7771640" lon="-53.7230480">
        <ele>483.5</ele>
        <time>2018-09-14T19:45:24Z</time>
      </trkpt>
      <trkpt lat="-24.7770930" lon="-53.7230950">
        <ele>483.3</ele>
        <time>2018-09-14T19:45:25Z</time>
      </trkpt>
      <trkpt lat="-24.7770200" lon="-53.7231470">
        <ele>483.2</ele>
        <time>2018-09-14T19:45:26Z</time>
      </trkpt>
      <trkpt lat="-24.7769480" lon="-53.7232060">
        <ele>483.0</ele>
        <time>2018-09-14T19:45:27Z</time>
      </trkpt>
      <trkpt lat="-24.7768770" lon="-53.7232710">
        <ele>481.8</ele>
        <time>2018-09-14T19:45:28Z</time>
      </trkpt>
      <trkpt lat="-24.7768090" lon="-53.7233380">
        <ele>480.6</ele>
        <time>2018-09-14T19:45:29Z</time>
      </trkpt>
      <trkpt lat="-24.7767450" lon="-53.7234070">
        <ele>479.5</ele>
        <time>2018-09-14T19:45:30Z</time>
      </trkpt>
      <trkpt lat="-24.7766850" lon="-53.7234760">
        <ele>478.5</ele>
        <time>2018-09-14T19:45:31Z</time>
      </trkpt>
      <trkpt lat="-24.7766310" lon="-53.7235470">
        <ele>477.5</ele>
        <time>2018-09-14T19:45:32Z</time>
      </trkpt>
      <trkpt lat="-24.7765800" lon="-53.7236200">
        <ele>476.6</ele>
        <time>2018-09-14T19:45:33Z</time>
      </trkpt>
      <trkpt lat="-24.7765330" lon="-53.7236930">
        <ele>475.7</ele>
        <time>2018-09-14T19:45:34Z</time>
      </trkpt>
      <trkpt lat="-24.7764890" lon="-53.7237680">
        <ele>475.0</ele>
        <time>2018-09-14T19:45:35Z</time>
      </trkpt>
      <trkpt lat="-24.7764490" lon="-53.7238440">
        <ele>475.2</ele>
        <time>2018-09-14T19:45:36Z</time>
      </trkpt>
      <trkpt lat="-24.7764100" lon="-53.7239200">
        <ele>475.4</ele>
        <time>2018-09-14T19:45:37Z</time>
      </trkpt>
      <trkpt lat="-24.7763740" lon="-53.7239960">
        <ele>475.6</ele>
        <time>2018-09-14T19:45:38Z</time>
      </trkpt>
      <trkpt lat="-24.7763410" lon="-53.7240720">
        <ele>475.9</ele>
        <time>2018-09-14T19:45:39Z</time>
      </trkpt>
      <trkpt lat="-24.7763080" lon="-53.7241470">
        <ele>476.1</ele>
        <time>2018-09-14T19:45:40Z</time>
      </trkpt>
      <trkpt lat="-24.7762750" lon="-53.7242190">
        <ele>476.3</ele>
        <time>2018-09-14T19:45:41Z</time>
      </trkpt>
      <trkpt lat="-24.7762450" lon="-53.7242910">
        <ele>476.5</ele>
        <time>2018-09-14T19:45:42Z</time>
      </trkpt>
      <trkpt lat="-24.7762450" lon="-53.7242910">
        <ele>476.5</ele>
        <time>2018-09-14T19:45:43Z</time>
      </trkpt>
      <trkpt lat="-24.7762170" lon="-53.7243620">
        <ele>476.7</ele>
        <time>2018-09-14T19:45:44Z</time>
      </trkpt>
      <trkpt lat="-24.7761890" lon="-53.7244300">
        <ele>476.9</ele>
        <time>2018-09-14T19:45:45Z</time>
      </trkpt>
      <trkpt lat="-24.7761620" lon="-53.7244970">
        <ele>477.1</ele>
        <time>2018-09-14T19:45:46Z</time>
      </trkpt>
      <trkpt lat="-24.7761360" lon="-53.7245610">
        <ele>477.4</ele>
        <time>2018-09-14T19:45:47Z</time>
      </trkpt>
      <trkpt lat="-24.7761120" lon="-53.7246220">
        <ele>477.7</ele>
        <time>2018-09-14T19:45:48Z</time>
      </trkpt>
      <trkpt lat="-24.7760890" lon="-53.7246840">
        <ele>478.0</ele>
        <time>2018-09-14T19:45:49Z</time>
      </trkpt>
      <trkpt lat="-24.7760670" lon="-53.7247450">
        <ele>478.4</ele>
        <time>2018-09-14T19:45:50Z</time>
      </trkpt>
      <trkpt lat="-24.7760460" lon="-53.7248050">
        <ele>478.7</ele>
        <time>2018-09-14T19:45:51Z</time>
      </trkpt>
      <trkpt lat="-24.7760250" lon="-53.7248630">
        <ele>478.9</ele>
        <time>2018-09-14T19:45:52Z</time>
      </trkpt>
      <trkpt lat="-24.7760060" lon="-53.7249210">
        <ele>479.0</ele>
        <time>2018-09-14T19:45:53Z</time>
      </trkpt>
      <trkpt lat="-24.7759890" lon="-53.7249770">
        <ele>479.1</ele>
        <time>2018-09-14T19:45:54Z</time>
      </trkpt>
      <trkpt lat="-24.7759710" lon="-53.7250310">
        <ele>479.3</ele>
        <time>2018-09-14T19:45:55Z</time>
      </trkpt>
      <trkpt lat="-24.7759550" lon="-53.7250830">
        <ele>479.4</ele>
        <time>2018-09-14T19:45:56Z</time>
      </trkpt>
      <trkpt lat="-24.7759390" lon="-53.7251350">
        <ele>479.5</ele>
        <time>2018-09-14T19:45:57Z</time>
      </trkpt>
      <trkpt lat="-24.7759230" lon="-53.7251850">
        <ele>479.6</ele>
        <time>2018-09-14T19:45:58Z</time>
      </trkpt>
      <trkpt lat="-24.7759070" lon="-53.7252330">
        <ele>479.7</ele>
        <time>2018-09-14T19:45:59Z</time>
      </trkpt>
      <trkpt lat="-24.7758940" lon="-53.7252810">
        <ele>479.8</ele>
        <time>2018-09-14T19:46:00Z</time>
      </trkpt>
      <trkpt lat="-24.7758820" lon="-53.7253280">
        <ele>479.9</ele>
        <time>2018-09-14T19:46:01Z</time>
      </trkpt>
      <trkpt lat="-24.7758710" lon="-53.7253740">
        <ele>480.0</ele>
        <time>2018-09-14T19:46:02Z</time>
      </trkpt>
      <trkpt lat="-24.7758600" lon="-53.7254200">
        <ele>480.1</ele>
        <time>2018-09-14T19:46:03Z</time>
      </trkpt>
      <trkpt lat="-24.7758500" lon="-53.7254660">
        <ele>480.2</ele>
        <time>2018-09-14T19:46:04Z</time>
      </trkpt>
      <trkpt lat="-24.7758400" lon="-53.7255130">
        <ele>480.3</ele>
        <time>2018-09-14T19:46:05Z</time>
      </trkpt>
      <trkpt lat="-24.7758290" lon="-53.7255590">
        <ele>480.5</ele>
        <time>2018-09-14T19:46:06Z</time>
      </trkpt>
      <trkpt lat="-24.7758190" lon="-53.7256040">
        <ele>480.6</ele>
        <time>2018-09-14T19:46:07Z</time>
      </trkpt>
      <trkpt lat="-24.7758120" lon="-53.7256490">
        <ele>480.7</ele>
        <time>2018-09-14T19:46:08Z</time>
      </trkpt>
      <trkpt lat="-24.7758020" lon="-53.7256890">
        <ele>480.8</ele>
        <time>2018-09-14T19:46:09Z</time>
      </trkpt>
      <trkpt lat="-24.7758010" lon="-53.7257260">
        <ele>480.9</ele>
        <time>2018-09-14T19:46:10Z</time>
      </trkpt>
      <trkpt lat="-24.7757960" lon="-53.7257680">
        <ele>481.0</ele>
        <time>2018-09-14T19:46:11Z</time>
      </trkpt>
      <trkpt lat="-24.7757910" lon="-53.7258020">
        <ele>481.1</ele>
        <time>2018-09-14T19:46:12Z</time>
      </trkpt>
      <trkpt lat="-24.7757900" lon="-53.7258420">
        <ele>481.2</ele>
        <time>2018-09-14T19:46:13Z</time>
      </trkpt>
      <trkpt lat="-24.7757860" lon="-53.7258790">
        <ele>481.3</ele>
        <time>2018-09-14T19:46:14Z</time>
      </trkpt>
      <trkpt lat="-24.7757770" lon="-53.7259110">
        <ele>481.4</ele>
        <time>2018-09-14T19:46:15Z</time>
      </trkpt>
      <trkpt lat="-24.7757720" lon="-53.7259420">
        <ele>481.6</ele>
        <time>2018-09-14T19:46:16Z</time>
      </trkpt>
      <trkpt lat="-24.7757670" lon="-53.7259780">
        <ele>481.7</ele>
        <time>2018-09-14T19:46:17Z</time>
      </trkpt>
      <trkpt lat="-24.7757600" lon="-53.7260140">
        <ele>481.8</ele>
        <time>2018-09-14T19:46:18Z</time>
      </trkpt>
      <trkpt lat="-24.7757510" lon="-53.7260600">
        <ele>481.9</ele>
        <time>2018-09-14T19:46:19Z</time>
      </trkpt>
      <trkpt lat="-24.7757490" lon="-53.7261010">
        <ele>481.9</ele>
        <time>2018-09-14T19:46:20Z</time>
      </trkpt>
      <trkpt lat="-24.7757460" lon="-53.7261370">
        <ele>481.9</ele>
        <time>2018-09-14T19:46:21Z</time>
      </trkpt>
      <trkpt lat="-24.7757420" lon="-53.7261730">
        <ele>481.8</ele>
        <time>2018-09-14T19:46:22Z</time>
      </trkpt>
      <trkpt lat="-24.7757370" lon="-53.7262100">
        <ele>481.6</ele>
        <time>2018-09-14T19:46:23Z</time>
      </trkpt>
      <trkpt lat="-24.7757310" lon="-53.7262470">
        <ele>481.5</ele>
        <time>2018-09-14T19:46:24Z</time>
      </trkpt>
      <trkpt lat="-24.7757210" lon="-53.7262880">
        <ele>481.3</ele>
        <time>2018-09-14T19:46:25Z</time>
      </trkpt>
      <trkpt lat="-24.7757150" lon="-53.7263240">
        <ele>481.2</ele>
        <time>2018-09-14T19:46:26Z</time>
      </trkpt>
      <trkpt lat="-24.7757150" lon="-53.7263570">
        <ele>481.1</ele>
        <time>2018-09-14T19:46:27Z</time>
      </trkpt>
      <trkpt lat="-24.7757140" lon="-53.7263880">
        <ele>481.1</ele>
        <time>2018-09-14T19:46:28Z</time>
      </trkpt>
      <trkpt lat="-24.7757130" lon="-53.7264240">
        <ele>481.0</ele>
        <time>2018-09-14T19:46:29Z</time>
      </trkpt>
      <trkpt lat="-24.7757110" lon="-53.7264590">
        <ele>480.9</ele>
        <time>2018-09-14T19:46:30Z</time>
      </trkpt>
      <trkpt lat="-24.7757090" lon="-53.7264960">
        <ele>480.8</ele>
        <time>2018-09-14T19:46:31Z</time>
      </trkpt>
      <trkpt lat="-24.7757040" lon="-53.7265380">
        <ele>480.7</ele>
        <time>2018-09-14T19:46:32Z</time>
      </trkpt>
      <trkpt lat="-24.7756990" lon="-53.7265800">
        <ele>480.6</ele>
        <time>2018-09-14T19:46:33Z</time>
      </trkpt>
      <trkpt lat="-24.7756930" lon="-53.7266200">
        <ele>480.5</ele>
        <time>2018-09-14T19:46:34Z</time>
      </trkpt>
      <trkpt lat="-24.7756880" lon="-53.7266550">
        <ele>480.5</ele>
        <time>2018-09-14T19:46:35Z</time>
      </trkpt>
      <trkpt lat="-24.7756850" lon="-53.7267030">
        <ele>480.3</ele>
        <time>2018-09-14T19:46:36Z</time>
      </trkpt>
      <trkpt lat="-24.7756800" lon="-53.7267490">
        <ele>480.2</ele>
        <time>2018-09-14T19:46:37Z</time>
      </trkpt>
      <trkpt lat="-24.7756770" lon="-53.7267930">
        <ele>480.1</ele>
        <time>2018-09-14T19:46:38Z</time>
      </trkpt>
      <trkpt lat="-24.7756740" lon="-53.7268340">
        <ele>480.1</ele>
        <time>2018-09-14T19:46:39Z</time>
      </trkpt>
      <trkpt lat="-24.7756740" lon="-53.7268750">
        <ele>480.0</ele>
        <time>2018-09-14T19:46:40Z</time>
      </trkpt>
      <trkpt lat="-24.7756740" lon="-53.7269270">
        <ele>480.0</ele>
        <time>2018-09-14T19:46:41Z</time>
      </trkpt>
      <trkpt lat="-24.7756730" lon="-53.7269730">
        <ele>480.0</ele>
        <time>2018-09-14T19:46:42Z</time>
      </trkpt>
      <trkpt lat="-24.7756720" lon="-53.7270240">
        <ele>480.0</ele>
        <time>2018-09-14T19:46:43Z</time>
      </trkpt>
      <trkpt lat="-24.7756700" lon="-53.7270760">
        <ele>480.0</ele>
        <time>2018-09-14T19:46:44Z</time>
      </trkpt>
      <trkpt lat="-24.7756690" lon="-53.7271300">
        <ele>480.1</ele>
        <time>2018-09-14T19:46:45Z</time>
      </trkpt>
      <trkpt lat="-24.7756690" lon="-53.7271880">
        <ele>480.1</ele>
        <time>2018-09-14T19:46:46Z</time>
      </trkpt>
      <trkpt lat="-24.7756690" lon="-53.7272460">
        <ele>480.1</ele>
        <time>2018-09-14T19:46:47Z</time>
      </trkpt>
      <trkpt lat="-24.7756720" lon="-53.7273080">
        <ele>480.1</ele>
        <time>2018-09-14T19:46:48Z</time>
      </trkpt>
      <trkpt lat="-24.7756730" lon="-53.7273700">
        <ele>480.2</ele>
        <time>2018-09-14T19:46:49Z</time>
      </trkpt>
      <trkpt lat="-24.7756740" lon="-53.7274340">
        <ele>480.2</ele>
        <time>2018-09-14T19:46:50Z</time>
      </trkpt>
      <trkpt lat="-24.7756740" lon="-53.7274980">
        <ele>480.2</ele>
        <time>2018-09-14T19:46:51Z</time>
      </trkpt>
      <trkpt lat="-24.7756730" lon="-53.7275640">
        <ele>480.2</ele>
        <time>2018-09-14T19:46:52Z</time>
      </trkpt>
      <trkpt lat="-24.7756730" lon="-53.7276300">
        <ele>480.2</ele>
        <time>2018-09-14T19:46:53Z</time>
      </trkpt>
      <trkpt lat="-24.7756730" lon="-53.7276950">
        <ele>480.1</ele>
        <time>2018-09-14T19:46:54Z</time>
      </trkpt>
      <trkpt lat="-24.7756720" lon="-53.7277620">
        <ele>480.1</ele>
        <time>2018-09-14T19:46:55Z</time>
      </trkpt>
      <trkpt lat="-24.7756690" lon="-53.7278270">
        <ele>480.1</ele>
        <time>2018-09-14T19:46:56Z</time>
      </trkpt>
      <trkpt lat="-24.7756660" lon="-53.7278940">
        <ele>480.0</ele>
        <time>2018-09-14T19:46:57Z</time>
      </trkpt>
      <trkpt lat="-24.7756640" lon="-53.7279600">
        <ele>480.0</ele>
        <time>2018-09-14T19:46:58Z</time>
      </trkpt>
      <trkpt lat="-24.7756600" lon="-53.7280260">
        <ele>480.0</ele>
        <time>2018-09-14T19:46:59Z</time>
      </trkpt>
      <trkpt lat="-24.7756560" lon="-53.7280900">
        <ele>480.0</ele>
        <time>2018-09-14T19:47:00Z</time>
      </trkpt>
      <trkpt lat="-24.7756450" lon="-53.7281540">
        <ele>480.0</ele>
        <time>2018-09-14T19:47:01Z</time>
      </trkpt>
      <trkpt lat="-24.7756280" lon="-53.7282110">
        <ele>479.9</ele>
        <time>2018-09-14T19:47:02Z</time>
      </trkpt>
      <trkpt lat="-24.7756010" lon="-53.7282660">
        <ele>479.7</ele>
        <time>2018-09-14T19:47:03Z</time>
      </trkpt>
      <trkpt lat="-24.7755690" lon="-53.7283160">
        <ele>479.5</ele>
        <time>2018-09-14T19:47:04Z</time>
      </trkpt>
      <trkpt lat="-24.7755380" lon="-53.7283670">
        <ele>479.4</ele>
        <time>2018-09-14T19:47:05Z</time>
      </trkpt>
      <trkpt lat="-24.7755070" lon="-53.7284170">
        <ele>479.3</ele>
        <time>2018-09-14T19:47:06Z</time>
      </trkpt>
      <trkpt lat="-24.7754690" lon="-53.7284620">
        <ele>479.2</ele>
        <time>2018-09-14T19:47:07Z</time>
      </trkpt>
      <trkpt lat="-24.7754290" lon="-53.7285010">
        <ele>479.1</ele>
        <time>2018-09-14T19:47:08Z</time>
      </trkpt>
      <trkpt lat="-24.7753870" lon="-53.7285380">
        <ele>479.1</ele>
        <time>2018-09-14T19:47:09Z</time>
      </trkpt>
      <trkpt lat="-24.7753450" lon="-53.7285730">
        <ele>479.1</ele>
        <time>2018-09-14T19:47:10Z</time>
      </trkpt>
      <trkpt lat="-24.7753050" lon="-53.7286040">
        <ele>479.2</ele>
        <time>2018-09-14T19:47:11Z</time>
      </trkpt>
      <trkpt lat="-24.7752650" lon="-53.7286330">
        <ele>479.3</ele>
        <time>2018-09-14T19:47:12Z</time>
      </trkpt>
      <trkpt lat="-24.7752260" lon="-53.7286620">
        <ele>479.4</ele>
        <time>2018-09-14T19:47:13Z</time>
      </trkpt>
      <trkpt lat="-24.7751900" lon="-53.7286900">
        <ele>479.5</ele>
        <time>2018-09-14T19:47:14Z</time>
      </trkpt>
      <trkpt lat="-24.7751570" lon="-53.7287170">
        <ele>479.6</ele>
        <time>2018-09-14T19:47:15Z</time>
      </trkpt>
      <trkpt lat="-24.7751260" lon="-53.7287400">
        <ele>479.7</ele>
        <time>2018-09-14T19:47:16Z</time>
      </trkpt>
      <trkpt lat="-24.7750990" lon="-53.7287630">
        <ele>479.8</ele>
        <time>2018-09-14T19:47:17Z</time>
      </trkpt>
      <trkpt lat="-24.7750730" lon="-53.7287850">
        <ele>479.9</ele>
        <time>2018-09-14T19:47:18Z</time>
      </trkpt>
      <trkpt lat="-24.7750500" lon="-53.7288030">
        <ele>479.9</ele>
        <time>2018-09-14T19:47:19Z</time>
      </trkpt>
      <trkpt lat="-24.7750280" lon="-53.7288200">
        <ele>480.0</ele>
        <time>2018-09-14T19:47:20Z</time>
      </trkpt>
      <trkpt lat="-24.7750090" lon="-53.7288350">
        <ele>480.1</ele>
        <time>2018-09-14T19:47:21Z</time>
      </trkpt>
      <trkpt lat="-24.7749910" lon="-53.7288470">
        <ele>480.3</ele>
        <time>2018-09-14T19:47:22Z</time>
      </trkpt>
      <trkpt lat="-24.7749740" lon="-53.7288590">
        <ele>480.4</ele>
        <time>2018-09-14T19:47:23Z</time>
      </trkpt>
      <trkpt lat="-24.7749590" lon="-53.7288720">
        <ele>480.6</ele>
        <time>2018-09-14T19:47:24Z</time>
      </trkpt>
      <trkpt lat="-24.7749460" lon="-53.7288850">
        <ele>480.7</ele>
        <time>2018-09-14T19:47:25Z</time>
      </trkpt>
      <trkpt lat="-24.7749330" lon="-53.7288960">
        <ele>480.8</ele>
        <time>2018-09-14T19:47:26Z</time>
      </trkpt>
      <trkpt lat="-24.7749180" lon="-53.7289060">
        <ele>481.0</ele>
        <time>2018-09-14T19:47:27Z</time>
      </trkpt>
      <trkpt lat="-24.7749040" lon="-53.7289170">
        <ele>481.1</ele>
        <time>2018-09-14T19:47:28Z</time>
      </trkpt>
      <trkpt lat="-24.7748900" lon="-53.7289280">
        <ele>481.3</ele>
        <time>2018-09-14T19:47:29Z</time>
      </trkpt>
      <trkpt lat="-24.7748770" lon="-53.7289400">
        <ele>481.4</ele>
        <time>2018-09-14T19:47:30Z</time>
      </trkpt>
      <trkpt lat="-24.7748640" lon="-53.7289530">
        <ele>481.5</ele>
        <time>2018-09-14T19:47:31Z</time>
      </trkpt>
      <trkpt lat="-24.7748390" lon="-53.7289760">
        <ele>481.6</ele>
        <time>2018-09-14T19:47:32Z</time>
      </trkpt>
      <trkpt lat="-24.7748260" lon="-53.7289880">
        <ele>481.7</ele>
        <time>2018-09-14T19:47:33Z</time>
      </trkpt>
      <trkpt lat="-24.7748130" lon="-53.7289980">
        <ele>481.8</ele>
        <time>2018-09-14T19:47:34Z</time>
      </trkpt>
      <trkpt lat="-24.7747990" lon="-53.7290060">
        <ele>481.9</ele>
        <time>2018-09-14T19:47:35Z</time>
      </trkpt>
      <trkpt lat="-24.7747850" lon="-53.7290150">
        <ele>481.9</ele>
        <time>2018-09-14T19:47:36Z</time>
      </trkpt>
      <trkpt lat="-24.7747710" lon="-53.7290250">
        <ele>482.1</ele>
        <time>2018-09-14T19:47:37Z</time>
      </trkpt>
      <trkpt lat="-24.7747570" lon="-53.7290350">
        <ele>482.2</ele>
        <time>2018-09-14T19:47:38Z</time>
      </trkpt>
      <trkpt lat="-24.7747440" lon="-53.7290460">
        <ele>482.4</ele>
        <time>2018-09-14T19:47:39Z</time>
      </trkpt>
      <trkpt lat="-24.7747320" lon="-53.7290580">
        <ele>482.5</ele>
        <time>2018-09-14T19:47:40Z</time>
      </trkpt>
      <trkpt lat="-24.7747220" lon="-53.7290710">
        <ele>482.7</ele>
        <time>2018-09-14T19:47:41Z</time>
      </trkpt>
      <trkpt lat="-24.7747100" lon="-53.7290830">
        <ele>482.8</ele>
        <time>2018-09-14T19:47:42Z</time>
      </trkpt>
      <trkpt lat="-24.7746960" lon="-53.7290930">
        <ele>483.0</ele>
        <time>2018-09-14T19:47:43Z</time>
      </trkpt>
      <trkpt lat="-24.7746840" lon="-53.7291040">
        <ele>483.2</ele>
        <time>2018-09-14T19:47:44Z</time>
      </trkpt>
      <trkpt lat="-24.7746720" lon="-53.7291180">
        <ele>483.4</ele>
        <time>2018-09-14T19:47:45Z</time>
      </trkpt>
      <trkpt lat="-24.7746610" lon="-53.7291310">
        <ele>483.5</ele>
        <time>2018-09-14T19:47:46Z</time>
      </trkpt>
      <trkpt lat="-24.7746370" lon="-53.7291490">
        <ele>483.7</ele>
        <time>2018-09-14T19:47:48Z</time>
      </trkpt>
      <trkpt lat="-24.7746250" lon="-53.7291590">
        <ele>483.8</ele>
        <time>2018-09-14T19:47:49Z</time>
      </trkpt>
      <trkpt lat="-24.7746140" lon="-53.7291710">
        <ele>483.9</ele>
        <time>2018-09-14T19:47:50Z</time>
      </trkpt>
      <trkpt lat="-24.7746030" lon="-53.7291810">
        <ele>484.0</ele>
        <time>2018-09-14T19:47:51Z</time>
      </trkpt>
      <trkpt lat="-24.7745900" lon="-53.7291900">
        <ele>484.1</ele>
        <time>2018-09-14T19:47:52Z</time>
      </trkpt>
      <trkpt lat="-24.7745780" lon="-53.7291990">
        <ele>484.2</ele>
        <time>2018-09-14T19:47:53Z</time>
      </trkpt>
      <trkpt lat="-24.7745650" lon="-53.7292080">
        <ele>484.3</ele>
        <time>2018-09-14T19:47:54Z</time>
      </trkpt>
      <trkpt lat="-24.7745530" lon="-53.7292160">
        <ele>484.5</ele>
        <time>2018-09-14T19:47:55Z</time>
      </trkpt>
      <trkpt lat="-24.7745410" lon="-53.7292230">
        <ele>484.6</ele>
        <time>2018-09-14T19:47:56Z</time>
      </trkpt>
      <trkpt lat="-24.7745290" lon="-53.7292310">
        <ele>484.8</ele>
        <time>2018-09-14T19:47:57Z</time>
      </trkpt>
      <trkpt lat="-24.7745170" lon="-53.7292390">
        <ele>484.9</ele>
        <time>2018-09-14T19:47:58Z</time>
      </trkpt>
      <trkpt lat="-24.7745060" lon="-53.7292480">
        <ele>485.1</ele>
        <time>2018-09-14T19:47:59Z</time>
      </trkpt>
      <trkpt lat="-24.7744950" lon="-53.7292570">
        <ele>485.2</ele>
        <time>2018-09-14T19:48:00Z</time>
      </trkpt>
      <trkpt lat="-24.7744850" lon="-53.7292660">
        <ele>485.4</ele>
        <time>2018-09-14T19:48:01Z</time>
      </trkpt>
      <trkpt lat="-24.7744740" lon="-53.7292770">
        <ele>485.5</ele>
        <time>2018-09-14T19:48:02Z</time>
      </trkpt>
      <trkpt lat="-24.7744640" lon="-53.7292870">
        <ele>485.7</ele>
        <time>2018-09-14T19:48:03Z</time>
      </trkpt>
      <trkpt lat="-24.7744540" lon="-53.7292970">
        <ele>485.8</ele>
        <time>2018-09-14T19:48:04Z</time>
      </trkpt>
      <trkpt lat="-24.7744430" lon="-53.7293050">
        <ele>485.9</ele>
        <time>2018-09-14T19:48:05Z</time>
      </trkpt>
      <trkpt lat="-24.7744320" lon="-53.7293140">
        <ele>486.0</ele>
        <time>2018-09-14T19:48:06Z</time>
      </trkpt>
      <trkpt lat="-24.7744220" lon="-53.7293240">
        <ele>486.1</ele>
        <time>2018-09-14T19:48:07Z</time>
      </trkpt>
      <trkpt lat="-24.7744110" lon="-53.7293340">
        <ele>486.1</ele>
        <time>2018-09-14T19:48:08Z</time>
      </trkpt>
      <trkpt lat="-24.7744000" lon="-53.7293440">
        <ele>486.2</ele>
        <time>2018-09-14T19:48:09Z</time>
      </trkpt>
      <trkpt lat="-24.7743890" lon="-53.7293530">
        <ele>486.4</ele>
        <time>2018-09-14T19:48:10Z</time>
      </trkpt>
      <trkpt lat="-24.7743780" lon="-53.7293620">
        <ele>486.5</ele>
        <time>2018-09-14T19:48:11Z</time>
      </trkpt>
      <trkpt lat="-24.7743680" lon="-53.7293720">
        <ele>486.7</ele>
        <time>2018-09-14T19:48:12Z</time>
      </trkpt>
      <trkpt lat="-24.7743570" lon="-53.7293810">
        <ele>486.9</ele>
        <time>2018-09-14T19:48:13Z</time>
      </trkpt>
      <trkpt lat="-24.7743460" lon="-53.7293890">
        <ele>487.0</ele>
        <time>2018-09-14T19:48:14Z</time>
      </trkpt>
      <trkpt lat="-24.7743340" lon="-53.7293980">
        <ele>487.2</ele>
        <time>2018-09-14T19:48:15Z</time>
      </trkpt>
      <trkpt lat="-24.7743240" lon="-53.7294090">
        <ele>487.3</ele>
        <time>2018-09-14T19:48:16Z</time>
      </trkpt>
      <trkpt lat="-24.7743120" lon="-53.7294180">
        <ele>487.5</ele>
        <time>2018-09-14T19:48:17Z</time>
      </trkpt>
      <trkpt lat="-24.7742990" lon="-53.7294270">
        <ele>487.7</ele>
        <time>2018-09-14T19:48:18Z</time>
      </trkpt>
      <trkpt lat="-24.7742860" lon="-53.7294360">
        <ele>487.8</ele>
        <time>2018-09-14T19:48:19Z</time>
      </trkpt>
      <trkpt lat="-24.7742720" lon="-53.7294450">
        <ele>487.9</ele>
        <time>2018-09-14T19:48:20Z</time>
      </trkpt>
      <trkpt lat="-24.7742590" lon="-53.7294530">
        <ele>488.0</ele>
        <time>2018-09-14T19:48:21Z</time>
      </trkpt>
      <trkpt lat="-24.7742470" lon="-53.7294620">
        <ele>488.1</ele>
        <time>2018-09-14T19:48:22Z</time>
      </trkpt>
      <trkpt lat="-24.7742350" lon="-53.7294710">
        <ele>488.2</ele>
        <time>2018-09-14T19:48:23Z</time>
      </trkpt>
      <trkpt lat="-24.7742230" lon="-53.7294810">
        <ele>488.4</ele>
        <time>2018-09-14T19:48:24Z</time>
      </trkpt>
      <trkpt lat="-24.7742110" lon="-53.7294910">
        <ele>488.5</ele>
        <time>2018-09-14T19:48:25Z</time>
      </trkpt>
      <trkpt lat="-24.7741990" lon="-53.7295000">
        <ele>488.6</ele>
        <time>2018-09-14T19:48:26Z</time>
      </trkpt>
      <trkpt lat="-24.7741880" lon="-53.7295080">
        <ele>488.7</ele>
        <time>2018-09-14T19:48:27Z</time>
      </trkpt>
      <trkpt lat="-24.7741750" lon="-53.7295170">
        <ele>488.9</ele>
        <time>2018-09-14T19:48:28Z</time>
      </trkpt>
      <trkpt lat="-24.7741630" lon="-53.7295270">
        <ele>489.1</ele>
        <time>2018-09-14T19:48:29Z</time>
      </trkpt>
      <trkpt lat="-24.7741520" lon="-53.7295360">
        <ele>489.3</ele>
        <time>2018-09-14T19:48:30Z</time>
      </trkpt>
      <trkpt lat="-24.7741400" lon="-53.7295450">
        <ele>489.4</ele>
        <time>2018-09-14T19:48:31Z</time>
      </trkpt>
      <trkpt lat="-24.7741290" lon="-53.7295540">
        <ele>489.6</ele>
        <time>2018-09-14T19:48:32Z</time>
      </trkpt>
      <trkpt lat="-24.7741180" lon="-53.7295630">
        <ele>489.7</ele>
        <time>2018-09-14T19:48:33Z</time>
      </trkpt>
      <trkpt lat="-24.7741070" lon="-53.7295710">
        <ele>489.8</ele>
        <time>2018-09-14T19:48:34Z</time>
      </trkpt>
      <trkpt lat="-24.7740960" lon="-53.7295800">
        <ele>489.9</ele>
        <time>2018-09-14T19:48:35Z</time>
      </trkpt>
      <trkpt lat="-24.7740850" lon="-53.7295900">
        <ele>490.0</ele>
        <time>2018-09-14T19:48:36Z</time>
      </trkpt>
      <trkpt lat="-24.7740740" lon="-53.7295980">
        <ele>490.1</ele>
        <time>2018-09-14T19:48:37Z</time>
      </trkpt>
      <trkpt lat="-24.7740640" lon="-53.7296070">
        <ele>490.1</ele>
        <time>2018-09-14T19:48:38Z</time>
      </trkpt>
      <trkpt lat="-24.7740520" lon="-53.7296170">
        <ele>490.2</ele>
        <time>2018-09-14T19:48:39Z</time>
      </trkpt>
      <trkpt lat="-24.7740400" lon="-53.7296250">
        <ele>490.2</ele>
        <time>2018-09-14T19:48:40Z</time>
      </trkpt>
      <trkpt lat="-24.7740280" lon="-53.7296340">
        <ele>490.3</ele>
        <time>2018-09-14T19:48:41Z</time>
      </trkpt>
      <trkpt lat="-24.7740160" lon="-53.7296420">
        <ele>490.4</ele>
        <time>2018-09-14T19:48:42Z</time>
      </trkpt>
      <trkpt lat="-24.7740040" lon="-53.7296490">
        <ele>490.4</ele>
        <time>2018-09-14T19:48:43Z</time>
      </trkpt>
      <trkpt lat="-24.7739930" lon="-53.7296570">
        <ele>490.5</ele>
        <time>2018-09-14T19:48:44Z</time>
      </trkpt>
      <trkpt lat="-24.7739830" lon="-53.7296660">
        <ele>490.6</ele>
        <time>2018-09-14T19:48:45Z</time>
      </trkpt>
      <trkpt lat="-24.7739720" lon="-53.7296750">
        <ele>490.6</ele>
        <time>2018-09-14T19:48:46Z</time>
      </trkpt>
      <trkpt lat="-24.7739620" lon="-53.7296860">
        <ele>490.7</ele>
        <time>2018-09-14T19:48:47Z</time>
      </trkpt>
      <trkpt lat="-24.7739510" lon="-53.7296960">
        <ele>490.9</ele>
        <time>2018-09-14T19:48:48Z</time>
      </trkpt>
      <trkpt lat="-24.7739410" lon="-53.7297070">
        <ele>491.0</ele>
        <time>2018-09-14T19:48:49Z</time>
      </trkpt>
      <trkpt lat="-24.7739300" lon="-53.7297170">
        <ele>491.2</ele>
        <time>2018-09-14T19:48:50Z</time>
      </trkpt>
      <trkpt lat="-24.7739190" lon="-53.7297270">
        <ele>491.3</ele>
        <time>2018-09-14T19:48:51Z</time>
      </trkpt>
      <trkpt lat="-24.7739070" lon="-53.7297370">
        <ele>491.4</ele>
        <time>2018-09-14T19:48:52Z</time>
      </trkpt>
      <trkpt lat="-24.7738940" lon="-53.7297430">
        <ele>491.6</ele>
        <time>2018-09-14T19:48:53Z</time>
      </trkpt>
      <trkpt lat="-24.7738810" lon="-53.7297510">
        <ele>491.7</ele>
        <time>2018-09-14T19:48:54Z</time>
      </trkpt>
      <trkpt lat="-24.7738690" lon="-53.7297580">
        <ele>491.8</ele>
        <time>2018-09-14T19:48:55Z</time>
      </trkpt>
      <trkpt lat="-24.7738580" lon="-53.7297670">
        <ele>491.9</ele>
        <time>2018-09-14T19:48:56Z</time>
      </trkpt>
      <trkpt lat="-24.7738480" lon="-53.7297780">
        <ele>492.1</ele>
        <time>2018-09-14T19:48:57Z</time>
      </trkpt>
      <trkpt lat="-24.7738390" lon="-53.7297900">
        <ele>492.1</ele>
        <time>2018-09-14T19:48:58Z</time>
      </trkpt>
      <trkpt lat="-24.7738290" lon="-53.7298000">
        <ele>492.2</ele>
        <time>2018-09-14T19:48:59Z</time>
      </trkpt>
      <trkpt lat="-24.7738180" lon="-53.7298090">
        <ele>492.3</ele>
        <time>2018-09-14T19:49:00Z</time>
      </trkpt>
      <trkpt lat="-24.7738080" lon="-53.7298160">
        <ele>492.4</ele>
        <time>2018-09-14T19:49:01Z</time>
      </trkpt>
      <trkpt lat="-24.7737960" lon="-53.7298230">
        <ele>492.5</ele>
        <time>2018-09-14T19:49:02Z</time>
      </trkpt>
      <trkpt lat="-24.7737850" lon="-53.7298300">
        <ele>492.6</ele>
        <time>2018-09-14T19:49:03Z</time>
      </trkpt>
      <trkpt lat="-24.7737730" lon="-53.7298360">
        <ele>492.7</ele>
        <time>2018-09-14T19:49:04Z</time>
      </trkpt>
      <trkpt lat="-24.7737610" lon="-53.7298440">
        <ele>492.8</ele>
        <time>2018-09-14T19:49:05Z</time>
      </trkpt>
      <trkpt lat="-24.7737510" lon="-53.7298550">
        <ele>493.0</ele>
        <time>2018-09-14T19:49:06Z</time>
      </trkpt>
      <trkpt lat="-24.7737410" lon="-53.7298650">
        <ele>493.1</ele>
        <time>2018-09-14T19:49:07Z</time>
      </trkpt>
      <trkpt lat="-24.7737310" lon="-53.7298760">
        <ele>493.2</ele>
        <time>2018-09-14T19:49:08Z</time>
      </trkpt>
      <trkpt lat="-24.7737210" lon="-53.7298860">
        <ele>493.4</ele>
        <time>2018-09-14T19:49:09Z</time>
      </trkpt>
      <trkpt lat="-24.7737110" lon="-53.7298970">
        <ele>493.5</ele>
        <time>2018-09-14T19:49:10Z</time>
      </trkpt>
      <trkpt lat="-24.7737020" lon="-53.7299070">
        <ele>493.7</ele>
        <time>2018-09-14T19:49:11Z</time>
      </trkpt>
      <trkpt lat="-24.7736930" lon="-53.7299170">
        <ele>493.7</ele>
        <time>2018-09-14T19:49:12Z</time>
      </trkpt>
      <trkpt lat="-24.7736820" lon="-53.7299260">
        <ele>493.8</ele>
        <time>2018-09-14T19:49:13Z</time>
      </trkpt>
      <trkpt lat="-24.7736720" lon="-53.7299340">
        <ele>493.9</ele>
        <time>2018-09-14T19:49:14Z</time>
      </trkpt>
      <trkpt lat="-24.7736620" lon="-53.7299420">
        <ele>493.9</ele>
        <time>2018-09-14T19:49:15Z</time>
      </trkpt>
      <trkpt lat="-24.7736500" lon="-53.7299490">
        <ele>494.0</ele>
        <time>2018-09-14T19:49:16Z</time>
      </trkpt>
      <trkpt lat="-24.7736380" lon="-53.7299550">
        <ele>494.0</ele>
        <time>2018-09-14T19:49:17Z</time>
      </trkpt>
      <trkpt lat="-24.7736260" lon="-53.7299630">
        <ele>494.1</ele>
        <time>2018-09-14T19:49:18Z</time>
      </trkpt>
      <trkpt lat="-24.7736160" lon="-53.7299710">
        <ele>494.2</ele>
        <time>2018-09-14T19:49:19Z</time>
      </trkpt>
      <trkpt lat="-24.7736060" lon="-53.7299780">
        <ele>494.2</ele>
        <time>2018-09-14T19:49:20Z</time>
      </trkpt>
      <trkpt lat="-24.7735960" lon="-53.7299860">
        <ele>494.3</ele>
        <time>2018-09-14T19:49:21Z</time>
      </trkpt>
      <trkpt lat="-24.7735850" lon="-53.7299950">
        <ele>494.4</ele>
        <time>2018-09-14T19:49:22Z</time>
      </trkpt>
      <trkpt lat="-24.7735740" lon="-53.7300050">
        <ele>494.4</ele>
        <time>2018-09-14T19:49:23Z</time>
      </trkpt>
      <trkpt lat="-24.7735620" lon="-53.7300140">
        <ele>494.6</ele>
        <time>2018-09-14T19:49:24Z</time>
      </trkpt>
      <trkpt lat="-24.7735510" lon="-53.7300240">
        <ele>494.7</ele>
        <time>2018-09-14T19:49:25Z</time>
      </trkpt>
      <trkpt lat="-24.7735400" lon="-53.7300360">
        <ele>494.9</ele>
        <time>2018-09-14T19:49:26Z</time>
      </trkpt>
      <trkpt lat="-24.7735290" lon="-53.7300450">
        <ele>495.0</ele>
        <time>2018-09-14T19:49:27Z</time>
      </trkpt>
      <trkpt lat="-24.7735180" lon="-53.7300530">
        <ele>495.2</ele>
        <time>2018-09-14T19:49:28Z</time>
      </trkpt>
      <trkpt lat="-24.7735060" lon="-53.7300620">
        <ele>495.3</ele>
        <time>2018-09-14T19:49:29Z</time>
      </trkpt>
      <trkpt lat="-24.7734920" lon="-53.7300680">
        <ele>495.5</ele>
        <time>2018-09-14T19:49:30Z</time>
      </trkpt>
      <trkpt lat="-24.7734790" lon="-53.7300750">
        <ele>495.6</ele>
        <time>2018-09-14T19:49:31Z</time>
      </trkpt>
      <trkpt lat="-24.7734670" lon="-53.7300820">
        <ele>495.7</ele>
        <time>2018-09-14T19:49:32Z</time>
      </trkpt>
      <trkpt lat="-24.7734560" lon="-53.7300890">
        <ele>495.8</ele>
        <time>2018-09-14T19:49:33Z</time>
      </trkpt>
      <trkpt lat="-24.7734460" lon="-53.7300990">
        <ele>495.9</ele>
        <time>2018-09-14T19:49:34Z</time>
      </trkpt>
      <trkpt lat="-24.7734350" lon="-53.7301090">
        <ele>496.1</ele>
        <time>2018-09-14T19:49:35Z</time>
      </trkpt>
      <trkpt lat="-24.7734350" lon="-53.7301090">
        <ele>496.1</ele>
        <time>2018-09-14T19:49:36Z</time>
      </trkpt>
      <trkpt lat="-24.7734240" lon="-53.7301180">
        <ele>496.2</ele>
        <time>2018-09-14T19:49:37Z</time>
      </trkpt>
      <trkpt lat="-24.7734130" lon="-53.7301260">
        <ele>496.4</ele>
        <time>2018-09-14T19:49:38Z</time>
      </trkpt>
      <trkpt lat="-24.7734030" lon="-53.7301330">
        <ele>496.5</ele>
        <time>2018-09-14T19:49:39Z</time>
      </trkpt>
      <trkpt lat="-24.7733930" lon="-53.7301420">
        <ele>496.6</ele>
        <time>2018-09-14T19:49:40Z</time>
      </trkpt>
      <trkpt lat="-24.7733820" lon="-53.7301510">
        <ele>496.8</ele>
        <time>2018-09-14T19:49:41Z</time>
      </trkpt>
      <trkpt lat="-24.7733710" lon="-53.7301620">
        <ele>497.0</ele>
        <time>2018-09-14T19:49:42Z</time>
      </trkpt>
      <trkpt lat="-24.7733610" lon="-53.7301720">
        <ele>497.1</ele>
        <time>2018-09-14T19:49:43Z</time>
      </trkpt>
      <trkpt lat="-24.7733510" lon="-53.7301820">
        <ele>497.2</ele>
        <time>2018-09-14T19:49:44Z</time>
      </trkpt>
      <trkpt lat="-24.7733400" lon="-53.7301930">
        <ele>497.3</ele>
        <time>2018-09-14T19:49:45Z</time>
      </trkpt>
      <trkpt lat="-24.7733290" lon="-53.7302020">
        <ele>497.5</ele>
        <time>2018-09-14T19:49:46Z</time>
      </trkpt>
      <trkpt lat="-24.7733170" lon="-53.7302110">
        <ele>497.6</ele>
        <time>2018-09-14T19:49:47Z</time>
      </trkpt>
      <trkpt lat="-24.7733050" lon="-53.7302190">
        <ele>497.7</ele>
        <time>2018-09-14T19:49:48Z</time>
      </trkpt>
      <trkpt lat="-24.7732940" lon="-53.7302280">
        <ele>497.8</ele>
        <time>2018-09-14T19:49:49Z</time>
      </trkpt>
      <trkpt lat="-24.7732840" lon="-53.7302380">
        <ele>497.9</ele>
        <time>2018-09-14T19:49:50Z</time>
      </trkpt>
      <trkpt lat="-24.7732740" lon="-53.7302470">
        <ele>498.0</ele>
        <time>2018-09-14T19:49:51Z</time>
      </trkpt>
      <trkpt lat="-24.7732640" lon="-53.7302560">
        <ele>498.1</ele>
        <time>2018-09-14T19:49:52Z</time>
      </trkpt>
      <trkpt lat="-24.7732530" lon="-53.7302640">
        <ele>498.2</ele>
        <time>2018-09-14T19:49:53Z</time>
      </trkpt>
      <trkpt lat="-24.7732430" lon="-53.7302700">
        <ele>498.3</ele>
        <time>2018-09-14T19:49:54Z</time>
      </trkpt>
      <trkpt lat="-24.7732340" lon="-53.7302770">
        <ele>498.5</ele>
        <time>2018-09-14T19:49:55Z</time>
      </trkpt>
      <trkpt lat="-24.7732250" lon="-53.7302840">
        <ele>498.6</ele>
        <time>2018-09-14T19:49:56Z</time>
      </trkpt>
      <trkpt lat="-24.7732140" lon="-53.7302910">
        <ele>498.8</ele>
        <time>2018-09-14T19:49:57Z</time>
      </trkpt>
      <trkpt lat="-24.7732050" lon="-53.7302990">
        <ele>499.0</ele>
        <time>2018-09-14T19:49:58Z</time>
      </trkpt>
      <trkpt lat="-24.7731950" lon="-53.7303080">
        <ele>499.1</ele>
        <time>2018-09-14T19:49:59Z</time>
      </trkpt>
      <trkpt lat="-24.7731850" lon="-53.7303180">
        <ele>499.3</ele>
        <time>2018-09-14T19:50:00Z</time>
      </trkpt>
      <trkpt lat="-24.7731760" lon="-53.7303270">
        <ele>499.5</ele>
        <time>2018-09-14T19:50:01Z</time>
      </trkpt>
      <trkpt lat="-24.7731650" lon="-53.7303350">
        <ele>499.6</ele>
        <time>2018-09-14T19:50:02Z</time>
      </trkpt>
      <trkpt lat="-24.7731530" lon="-53.7303420">
        <ele>499.7</ele>
        <time>2018-09-14T19:50:03Z</time>
      </trkpt>
      <trkpt lat="-24.7731400" lon="-53.7303500">
        <ele>499.8</ele>
        <time>2018-09-14T19:50:04Z</time>
      </trkpt>
      <trkpt lat="-24.7731290" lon="-53.7303590">
        <ele>499.8</ele>
        <time>2018-09-14T19:50:05Z</time>
      </trkpt>
      <trkpt lat="-24.7731180" lon="-53.7303690">
        <ele>499.9</ele>
        <time>2018-09-14T19:50:06Z</time>
      </trkpt>
      <trkpt lat="-24.7731070" lon="-53.7303780">
        <ele>500.0</ele>
        <time>2018-09-14T19:50:07Z</time>
      </trkpt>
      <trkpt lat="-24.7730970" lon="-53.7303880">
        <ele>500.1</ele>
        <time>2018-09-14T19:50:08Z</time>
      </trkpt>
      <trkpt lat="-24.7730870" lon="-53.7303980">
        <ele>500.2</ele>
        <time>2018-09-14T19:50:09Z</time>
      </trkpt>
      <trkpt lat="-24.7730770" lon="-53.7304060">
        <ele>500.3</ele>
        <time>2018-09-14T19:50:10Z</time>
      </trkpt>
      <trkpt lat="-24.7730660" lon="-53.7304150">
        <ele>500.5</ele>
        <time>2018-09-14T19:50:11Z</time>
      </trkpt>
      <trkpt lat="-24.7730560" lon="-53.7304250">
        <ele>500.7</ele>
        <time>2018-09-14T19:50:12Z</time>
      </trkpt>
      <trkpt lat="-24.7730460" lon="-53.7304320">
        <ele>500.8</ele>
        <time>2018-09-14T19:50:13Z</time>
      </trkpt>
      <trkpt lat="-24.7730350" lon="-53.7304400">
        <ele>501.0</ele>
        <time>2018-09-14T19:50:14Z</time>
      </trkpt>
      <trkpt lat="-24.7730220" lon="-53.7304470">
        <ele>501.2</ele>
        <time>2018-09-14T19:50:15Z</time>
      </trkpt>
      <trkpt lat="-24.7730100" lon="-53.7304540">
        <ele>501.3</ele>
        <time>2018-09-14T19:50:16Z</time>
      </trkpt>
      <trkpt lat="-24.7729990" lon="-53.7304640">
        <ele>501.5</ele>
        <time>2018-09-14T19:50:17Z</time>
      </trkpt>
      <trkpt lat="-24.7729870" lon="-53.7304740">
        <ele>501.7</ele>
        <time>2018-09-14T19:50:18Z</time>
      </trkpt>
      <trkpt lat="-24.7729750" lon="-53.7304830">
        <ele>501.9</ele>
        <time>2018-09-14T19:50:19Z</time>
      </trkpt>
      <trkpt lat="-24.7729640" lon="-53.7304910">
        <ele>502.1</ele>
        <time>2018-09-14T19:50:20Z</time>
      </trkpt>
      <trkpt lat="-24.7729530" lon="-53.7305000">
        <ele>502.2</ele>
        <time>2018-09-14T19:50:21Z</time>
      </trkpt>
      <trkpt lat="-24.7729420" lon="-53.7305070">
        <ele>502.3</ele>
        <time>2018-09-14T19:50:22Z</time>
      </trkpt>
      <trkpt lat="-24.7729310" lon="-53.7305150">
        <ele>502.4</ele>
        <time>2018-09-14T19:50:23Z</time>
      </trkpt>
      <trkpt lat="-24.7729200" lon="-53.7305220">
        <ele>502.4</ele>
        <time>2018-09-14T19:50:24Z</time>
      </trkpt>
      <trkpt lat="-24.7729100" lon="-53.7305330">
        <ele>502.5</ele>
        <time>2018-09-14T19:50:25Z</time>
      </trkpt>
      <trkpt lat="-24.7729000" lon="-53.7305420">
        <ele>502.6</ele>
        <time>2018-09-14T19:50:26Z</time>
      </trkpt>
      <trkpt lat="-24.7728900" lon="-53.7305500">
        <ele>502.7</ele>
        <time>2018-09-14T19:50:27Z</time>
      </trkpt>
      <trkpt lat="-24.7728790" lon="-53.7305590">
        <ele>502.8</ele>
        <time>2018-09-14T19:50:28Z</time>
      </trkpt>
      <trkpt lat="-24.7728690" lon="-53.7305700">
        <ele>502.9</ele>
        <time>2018-09-14T19:50:29Z</time>
      </trkpt>
      <trkpt lat="-24.7728620" lon="-53.7305810">
        <ele>503.0</ele>
        <time>2018-09-14T19:50:30Z</time>
      </trkpt>
      <trkpt lat="-24.7728530" lon="-53.7305910">
        <ele>503.2</ele>
        <time>2018-09-14T19:50:31Z</time>
      </trkpt>
      <trkpt lat="-24.7728430" lon="-53.7306000">
        <ele>503.4</ele>
        <time>2018-09-14T19:50:32Z</time>
      </trkpt>
      <trkpt lat="-24.7728320" lon="-53.7306080">
        <ele>503.6</ele>
        <time>2018-09-14T19:50:33Z</time>
      </trkpt>
      <trkpt lat="-24.7728220" lon="-53.7306150">
        <ele>503.8</ele>
        <time>2018-09-14T19:50:34Z</time>
      </trkpt>
      <trkpt lat="-24.7728120" lon="-53.7306260">
        <ele>504.0</ele>
        <time>2018-09-14T19:50:35Z</time>
      </trkpt>
      <trkpt lat="-24.7728020" lon="-53.7306350">
        <ele>504.2</ele>
        <time>2018-09-14T19:50:36Z</time>
      </trkpt>
      <trkpt lat="-24.7727910" lon="-53.7306420">
        <ele>504.3</ele>
        <time>2018-09-14T19:50:37Z</time>
      </trkpt>
      <trkpt lat="-24.7727800" lon="-53.7306500">
        <ele>504.4</ele>
        <time>2018-09-14T19:50:38Z</time>
      </trkpt>
      <trkpt lat="-24.7727700" lon="-53.7306590">
        <ele>504.5</ele>
        <time>2018-09-14T19:50:39Z</time>
      </trkpt>
      <trkpt lat="-24.7727600" lon="-53.7306670">
        <ele>504.6</ele>
        <time>2018-09-14T19:50:40Z</time>
      </trkpt>
      <trkpt lat="-24.7727510" lon="-53.7306740">
        <ele>504.7</ele>
        <time>2018-09-14T19:50:41Z</time>
      </trkpt>
      <trkpt lat="-24.7727410" lon="-53.7306840">
        <ele>504.8</ele>
        <time>2018-09-14T19:50:42Z</time>
      </trkpt>
      <trkpt lat="-24.7727340" lon="-53.7306940">
        <ele>504.9</ele>
        <time>2018-09-14T19:50:43Z</time>
      </trkpt>
      <trkpt lat="-24.7727230" lon="-53.7307040">
        <ele>505.0</ele>
        <time>2018-09-14T19:50:44Z</time>
      </trkpt>
      <trkpt lat="-24.7727110" lon="-53.7307110">
        <ele>505.1</ele>
        <time>2018-09-14T19:50:45Z</time>
      </trkpt>
      <trkpt lat="-24.7726990" lon="-53.7307180">
        <ele>505.2</ele>
        <time>2018-09-14T19:50:46Z</time>
      </trkpt>
      <trkpt lat="-24.7726880" lon="-53.7307250">
        <ele>505.3</ele>
        <time>2018-09-14T19:50:47Z</time>
      </trkpt>
      <trkpt lat="-24.7726780" lon="-53.7307350">
        <ele>505.5</ele>
        <time>2018-09-14T19:50:48Z</time>
      </trkpt>
      <trkpt lat="-24.7726670" lon="-53.7307440">
        <ele>505.8</ele>
        <time>2018-09-14T19:50:49Z</time>
      </trkpt>
      <trkpt lat="-24.7726570" lon="-53.7307550">
        <ele>506.0</ele>
        <time>2018-09-14T19:50:50Z</time>
      </trkpt>
      <trkpt lat="-24.7726470" lon="-53.7307650">
        <ele>506.2</ele>
        <time>2018-09-14T19:50:51Z</time>
      </trkpt>
      <trkpt lat="-24.7726350" lon="-53.7307750">
        <ele>506.4</ele>
        <time>2018-09-14T19:50:52Z</time>
      </trkpt>
      <trkpt lat="-24.7726250" lon="-53.7307820">
        <ele>506.6</ele>
        <time>2018-09-14T19:50:53Z</time>
      </trkpt>
      <trkpt lat="-24.7726140" lon="-53.7307910">
        <ele>506.9</ele>
        <time>2018-09-14T19:50:54Z</time>
      </trkpt>
      <trkpt lat="-24.7726030" lon="-53.7308010">
        <ele>507.0</ele>
        <time>2018-09-14T19:50:55Z</time>
      </trkpt>
      <trkpt lat="-24.7725910" lon="-53.7308090">
        <ele>507.1</ele>
        <time>2018-09-14T19:50:56Z</time>
      </trkpt>
      <trkpt lat="-24.7725800" lon="-53.7308180">
        <ele>507.2</ele>
        <time>2018-09-14T19:50:57Z</time>
      </trkpt>
      <trkpt lat="-24.7725690" lon="-53.7308260">
        <ele>507.3</ele>
        <time>2018-09-14T19:50:58Z</time>
      </trkpt>
      <trkpt lat="-24.7725570" lon="-53.7308350">
        <ele>507.4</ele>
        <time>2018-09-14T19:50:59Z</time>
      </trkpt>
      <trkpt lat="-24.7725450" lon="-53.7308440">
        <ele>507.5</ele>
        <time>2018-09-14T19:51:00Z</time>
      </trkpt>
      <trkpt lat="-24.7725320" lon="-53.7308530">
        <ele>507.6</ele>
        <time>2018-09-14T19:51:01Z</time>
      </trkpt>
      <trkpt lat="-24.7725200" lon="-53.7308610">
        <ele>507.8</ele>
        <time>2018-09-14T19:51:02Z</time>
      </trkpt>
      <trkpt lat="-24.7725070" lon="-53.7308700">
        <ele>508.0</ele>
        <time>2018-09-14T19:51:03Z</time>
      </trkpt>
      <trkpt lat="-24.7724960" lon="-53.7308790">
        <ele>508.2</ele>
        <time>2018-09-14T19:51:04Z</time>
      </trkpt>
      <trkpt lat="-24.7724840" lon="-53.7308880">
        <ele>508.5</ele>
        <time>2018-09-14T19:51:05Z</time>
      </trkpt>
      <trkpt lat="-24.7724720" lon="-53.7308990">
        <ele>508.8</ele>
        <time>2018-09-14T19:51:06Z</time>
      </trkpt>
      <trkpt lat="-24.7724610" lon="-53.7309090">
        <ele>509.0</ele>
        <time>2018-09-14T19:51:07Z</time>
      </trkpt>
      <trkpt lat="-24.7724490" lon="-53.7309190">
        <ele>509.3</ele>
        <time>2018-09-14T19:51:08Z</time>
      </trkpt>
      <trkpt lat="-24.7724370" lon="-53.7309280">
        <ele>509.4</ele>
        <time>2018-09-14T19:51:09Z</time>
      </trkpt>
      <trkpt lat="-24.7724250" lon="-53.7309360">
        <ele>509.6</ele>
        <time>2018-09-14T19:51:10Z</time>
      </trkpt>
      <trkpt lat="-24.7724130" lon="-53.7309450">
        <ele>509.7</ele>
        <time>2018-09-14T19:51:11Z</time>
      </trkpt>
      <trkpt lat="-24.7724010" lon="-53.7309540">
        <ele>509.8</ele>
        <time>2018-09-14T19:51:12Z</time>
      </trkpt>
      <trkpt lat="-24.7723880" lon="-53.7309640">
        <ele>509.9</ele>
        <time>2018-09-14T19:51:13Z</time>
      </trkpt>
      <trkpt lat="-24.7723770" lon="-53.7309750">
        <ele>510.0</ele>
        <time>2018-09-14T19:51:14Z</time>
      </trkpt>
      <trkpt lat="-24.7723650" lon="-53.7309850">
        <ele>510.1</ele>
        <time>2018-09-14T19:51:15Z</time>
      </trkpt>
      <trkpt lat="-24.7723540" lon="-53.7309950">
        <ele>510.2</ele>
        <time>2018-09-14T19:51:16Z</time>
      </trkpt>
      <trkpt lat="-24.7723430" lon="-53.7310050">
        <ele>510.3</ele>
        <time>2018-09-14T19:51:17Z</time>
      </trkpt>
      <trkpt lat="-24.7723310" lon="-53.7310150">
        <ele>510.5</ele>
        <time>2018-09-14T19:51:18Z</time>
      </trkpt>
      <trkpt lat="-24.7723190" lon="-53.7310240">
        <ele>510.8</ele>
        <time>2018-09-14T19:51:19Z</time>
      </trkpt>
      <trkpt lat="-24.7723070" lon="-53.7310330">
        <ele>511.0</ele>
        <time>2018-09-14T19:51:20Z</time>
      </trkpt>
      <trkpt lat="-24.7722940" lon="-53.7310430">
        <ele>511.3</ele>
        <time>2018-09-14T19:51:21Z</time>
      </trkpt>
      <trkpt lat="-24.7722810" lon="-53.7310510">
        <ele>511.6</ele>
        <time>2018-09-14T19:51:22Z</time>
      </trkpt>
      <trkpt lat="-24.7722680" lon="-53.7310590">
        <ele>511.8</ele>
        <time>2018-09-14T19:51:23Z</time>
      </trkpt>
      <trkpt lat="-24.7722560" lon="-53.7310670">
        <ele>511.9</ele>
        <time>2018-09-14T19:51:24Z</time>
      </trkpt>
      <trkpt lat="-24.7722450" lon="-53.7310770">
        <ele>512.1</ele>
        <time>2018-09-14T19:51:25Z</time>
      </trkpt>
      <trkpt lat="-24.7722360" lon="-53.7310900">
        <ele>512.3</ele>
        <time>2018-09-14T19:51:26Z</time>
      </trkpt>
      <trkpt lat="-24.7722280" lon="-53.7311030">
        <ele>512.4</ele>
        <time>2018-09-14T19:51:27Z</time>
      </trkpt>
      <trkpt lat="-24.7722170" lon="-53.7311140">
        <ele>512.5</ele>
        <time>2018-09-14T19:51:28Z</time>
      </trkpt>
      <trkpt lat="-24.7721900" lon="-53.7311270">
        <ele>512.8</ele>
        <time>2018-09-14T19:51:29Z</time>
      </trkpt>
      <trkpt lat="-24.7721800" lon="-53.7311390">
        <ele>512.9</ele>
        <time>2018-09-14T19:51:30Z</time>
      </trkpt>
      <trkpt lat="-24.7721730" lon="-53.7311530">
        <ele>513.2</ele>
        <time>2018-09-14T19:51:31Z</time>
      </trkpt>
      <trkpt lat="-24.7721620" lon="-53.7311640">
        <ele>513.4</ele>
        <time>2018-09-14T19:51:32Z</time>
      </trkpt>
      <trkpt lat="-24.7721470" lon="-53.7311690">
        <ele>513.7</ele>
        <time>2018-09-14T19:51:33Z</time>
      </trkpt>
      <trkpt lat="-24.7721330" lon="-53.7311750">
        <ele>513.9</ele>
        <time>2018-09-14T19:51:34Z</time>
      </trkpt>
      <trkpt lat="-24.7721200" lon="-53.7311830">
        <ele>514.2</ele>
        <time>2018-09-14T19:51:35Z</time>
      </trkpt>
      <trkpt lat="-24.7721090" lon="-53.7311920">
        <ele>514.5</ele>
        <time>2018-09-14T19:51:36Z</time>
      </trkpt>
      <trkpt lat="-24.7720980" lon="-53.7312010">
        <ele>514.7</ele>
        <time>2018-09-14T19:51:37Z</time>
      </trkpt>
      <trkpt lat="-24.7720870" lon="-53.7312120">
        <ele>514.8</ele>
        <time>2018-09-14T19:51:38Z</time>
      </trkpt>
      <trkpt lat="-24.7720760" lon="-53.7312230">
        <ele>515.0</ele>
        <time>2018-09-14T19:51:39Z</time>
      </trkpt>
      <trkpt lat="-24.7720650" lon="-53.7312340">
        <ele>515.1</ele>
        <time>2018-09-14T19:51:40Z</time>
      </trkpt>
      <trkpt lat="-24.7720550" lon="-53.7312450">
        <ele>515.2</ele>
        <time>2018-09-14T19:51:41Z</time>
      </trkpt>
      <trkpt lat="-24.7720430" lon="-53.7312550">
        <ele>515.3</ele>
        <time>2018-09-14T19:51:42Z</time>
      </trkpt>
      <trkpt lat="-24.7720210" lon="-53.7312730">
        <ele>515.5</ele>
        <time>2018-09-14T19:51:44Z</time>
      </trkpt>
      <trkpt lat="-24.7720110" lon="-53.7312810">
        <ele>515.6</ele>
        <time>2018-09-14T19:51:45Z</time>
      </trkpt>
      <trkpt lat="-24.7719990" lon="-53.7312890">
        <ele>515.7</ele>
        <time>2018-09-14T19:51:46Z</time>
      </trkpt>
      <trkpt lat="-24.7719870" lon="-53.7312970">
        <ele>515.9</ele>
        <time>2018-09-14T19:51:47Z</time>
      </trkpt>
      <trkpt lat="-24.7719770" lon="-53.7313060">
        <ele>516.0</ele>
        <time>2018-09-14T19:51:48Z</time>
      </trkpt>
      <trkpt lat="-24.7719660" lon="-53.7313150">
        <ele>516.2</ele>
        <time>2018-09-14T19:51:49Z</time>
      </trkpt>
      <trkpt lat="-24.7719550" lon="-53.7313240">
        <ele>516.4</ele>
        <time>2018-09-14T19:51:50Z</time>
      </trkpt>
      <trkpt lat="-24.7719440" lon="-53.7313320">
        <ele>516.6</ele>
        <time>2018-09-14T19:51:51Z</time>
      </trkpt>
      <trkpt lat="-24.7719330" lon="-53.7313400">
        <ele>516.8</ele>
        <time>2018-09-14T19:51:52Z</time>
      </trkpt>
      <trkpt lat="-24.7719230" lon="-53.7313470">
        <ele>517.0</ele>
        <time>2018-09-14T19:51:53Z</time>
      </trkpt>
      <trkpt lat="-24.7719130" lon="-53.7313560">
        <ele>517.2</ele>
        <time>2018-09-14T19:51:54Z</time>
      </trkpt>
      <trkpt lat="-24.7719040" lon="-53.7313660">
        <ele>517.3</ele>
        <time>2018-09-14T19:51:55Z</time>
      </trkpt>
      <trkpt lat="-24.7718930" lon="-53.7313760">
        <ele>517.5</ele>
        <time>2018-09-14T19:51:56Z</time>
      </trkpt>
      <trkpt lat="-24.7718820" lon="-53.7313870">
        <ele>517.6</ele>
        <time>2018-09-14T19:51:57Z</time>
      </trkpt>
      <trkpt lat="-24.7718700" lon="-53.7313980">
        <ele>517.7</ele>
        <time>2018-09-14T19:51:58Z</time>
      </trkpt>
      <trkpt lat="-24.7718590" lon="-53.7314070">
        <ele>517.8</ele>
        <time>2018-09-14T19:51:59Z</time>
      </trkpt>
      <trkpt lat="-24.7718480" lon="-53.7314160">
        <ele>517.9</ele>
        <time>2018-09-14T19:52:00Z</time>
      </trkpt>
      <trkpt lat="-24.7718360" lon="-53.7314270">
        <ele>518.0</ele>
        <time>2018-09-14T19:52:01Z</time>
      </trkpt>
      <trkpt lat="-24.7718240" lon="-53.7314360">
        <ele>518.1</ele>
        <time>2018-09-14T19:52:02Z</time>
      </trkpt>
      <trkpt lat="-24.7718110" lon="-53.7314430">
        <ele>518.3</ele>
        <time>2018-09-14T19:52:03Z</time>
      </trkpt>
      <trkpt lat="-24.7717970" lon="-53.7314490">
        <ele>518.5</ele>
        <time>2018-09-14T19:52:04Z</time>
      </trkpt>
      <trkpt lat="-24.7717830" lon="-53.7314560">
        <ele>518.8</ele>
        <time>2018-09-14T19:52:05Z</time>
      </trkpt>
      <trkpt lat="-24.7717710" lon="-53.7314640">
        <ele>519.0</ele>
        <time>2018-09-14T19:52:06Z</time>
      </trkpt>
      <trkpt lat="-24.7717580" lon="-53.7314720">
        <ele>519.2</ele>
        <time>2018-09-14T19:52:07Z</time>
      </trkpt>
      <trkpt lat="-24.7717460" lon="-53.7314810">
        <ele>519.4</ele>
        <time>2018-09-14T19:52:08Z</time>
      </trkpt>
      <trkpt lat="-24.7717350" lon="-53.7314900">
        <ele>519.6</ele>
        <time>2018-09-14T19:52:09Z</time>
      </trkpt>
      <trkpt lat="-24.7717240" lon="-53.7314990">
        <ele>519.7</ele>
        <time>2018-09-14T19:52:10Z</time>
      </trkpt>
      <trkpt lat="-24.7717120" lon="-53.7315060">
        <ele>519.8</ele>
        <time>2018-09-14T19:52:11Z</time>
      </trkpt>
      <trkpt lat="-24.7716980" lon="-53.7315120">
        <ele>519.9</ele>
        <time>2018-09-14T19:52:12Z</time>
      </trkpt>
      <trkpt lat="-24.7716870" lon="-53.7315220">
        <ele>519.9</ele>
        <time>2018-09-14T19:52:13Z</time>
      </trkpt>
      <trkpt lat="-24.7716740" lon="-53.7315320">
        <ele>520.1</ele>
        <time>2018-09-14T19:52:14Z</time>
      </trkpt>
      <trkpt lat="-24.7716630" lon="-53.7315420">
        <ele>520.1</ele>
        <time>2018-09-14T19:52:15Z</time>
      </trkpt>
      <trkpt lat="-24.7716510" lon="-53.7315520">
        <ele>520.2</ele>
        <time>2018-09-14T19:52:16Z</time>
      </trkpt>
      <trkpt lat="-24.7716400" lon="-53.7315620">
        <ele>520.3</ele>
        <time>2018-09-14T19:52:17Z</time>
      </trkpt>
      <trkpt lat="-24.7716300" lon="-53.7315740">
        <ele>520.4</ele>
        <time>2018-09-14T19:52:18Z</time>
      </trkpt>
      <trkpt lat="-24.7716190" lon="-53.7315860">
        <ele>520.7</ele>
        <time>2018-09-14T19:52:19Z</time>
      </trkpt>
      <trkpt lat="-24.7716080" lon="-53.7315960">
        <ele>520.9</ele>
        <time>2018-09-14T19:52:20Z</time>
      </trkpt>
      <trkpt lat="-24.7715960" lon="-53.7316060">
        <ele>521.1</ele>
        <time>2018-09-14T19:52:21Z</time>
      </trkpt>
      <trkpt lat="-24.7715840" lon="-53.7316160">
        <ele>521.4</ele>
        <time>2018-09-14T19:52:22Z</time>
      </trkpt>
      <trkpt lat="-24.7715720" lon="-53.7316260">
        <ele>521.6</ele>
        <time>2018-09-14T19:52:23Z</time>
      </trkpt>
      <trkpt lat="-24.7715610" lon="-53.7316370">
        <ele>521.9</ele>
        <time>2018-09-14T19:52:24Z</time>
      </trkpt>
      <trkpt lat="-24.7715500" lon="-53.7316460">
        <ele>522.0</ele>
        <time>2018-09-14T19:52:25Z</time>
      </trkpt>
      <trkpt lat="-24.7715370" lon="-53.7316560">
        <ele>522.1</ele>
        <time>2018-09-14T19:52:26Z</time>
      </trkpt>
      <trkpt lat="-24.7715240" lon="-53.7316640">
        <ele>522.2</ele>
        <time>2018-09-14T19:52:27Z</time>
      </trkpt>
      <trkpt lat="-24.7715110" lon="-53.7316720">
        <ele>522.3</ele>
        <time>2018-09-14T19:52:28Z</time>
      </trkpt>
      <trkpt lat="-24.7714980" lon="-53.7316800">
        <ele>522.4</ele>
        <time>2018-09-14T19:52:29Z</time>
      </trkpt>
      <trkpt lat="-24.7714850" lon="-53.7316880">
        <ele>522.5</ele>
        <time>2018-09-14T19:52:30Z</time>
      </trkpt>
      <trkpt lat="-24.7714730" lon="-53.7317000">
        <ele>522.6</ele>
        <time>2018-09-14T19:52:31Z</time>
      </trkpt>
      <trkpt lat="-24.7714610" lon="-53.7317100">
        <ele>522.7</ele>
        <time>2018-09-14T19:52:32Z</time>
      </trkpt>
      <trkpt lat="-24.7714490" lon="-53.7317200">
        <ele>522.8</ele>
        <time>2018-09-14T19:52:33Z</time>
      </trkpt>
      <trkpt lat="-24.7714370" lon="-53.7317290">
        <ele>522.9</ele>
        <time>2018-09-14T19:52:34Z</time>
      </trkpt>
      <trkpt lat="-24.7714250" lon="-53.7317400">
        <ele>523.2</ele>
        <time>2018-09-14T19:52:35Z</time>
      </trkpt>
      <trkpt lat="-24.7714140" lon="-53.7317520">
        <ele>523.4</ele>
        <time>2018-09-14T19:52:36Z</time>
      </trkpt>
      <trkpt lat="-24.7714010" lon="-53.7317630">
        <ele>523.7</ele>
        <time>2018-09-14T19:52:37Z</time>
      </trkpt>
      <trkpt lat="-24.7713880" lon="-53.7317710">
        <ele>523.9</ele>
        <time>2018-09-14T19:52:38Z</time>
      </trkpt>
      <trkpt lat="-24.7713760" lon="-53.7317790">
        <ele>524.1</ele>
        <time>2018-09-14T19:52:39Z</time>
      </trkpt>
      <trkpt lat="-24.7713640" lon="-53.7317880">
        <ele>524.3</ele>
        <time>2018-09-14T19:52:40Z</time>
      </trkpt>
      <trkpt lat="-24.7713520" lon="-53.7317960">
        <ele>524.4</ele>
        <time>2018-09-14T19:52:41Z</time>
      </trkpt>
      <trkpt lat="-24.7713400" lon="-53.7318040">
        <ele>524.5</ele>
        <time>2018-09-14T19:52:42Z</time>
      </trkpt>
      <trkpt lat="-24.7713290" lon="-53.7318110">
        <ele>524.6</ele>
        <time>2018-09-14T19:52:43Z</time>
      </trkpt>
      <trkpt lat="-24.7713170" lon="-53.7318210">
        <ele>524.7</ele>
        <time>2018-09-14T19:52:44Z</time>
      </trkpt>
      <trkpt lat="-24.7713050" lon="-53.7318330">
        <ele>524.8</ele>
        <time>2018-09-14T19:52:45Z</time>
      </trkpt>
      <trkpt lat="-24.7712930" lon="-53.7318430">
        <ele>525.0</ele>
        <time>2018-09-14T19:52:46Z</time>
      </trkpt>
      <trkpt lat="-24.7712810" lon="-53.7318540">
        <ele>525.1</ele>
        <time>2018-09-14T19:52:47Z</time>
      </trkpt>
      <trkpt lat="-24.7712700" lon="-53.7318650">
        <ele>525.2</ele>
        <time>2018-09-14T19:52:48Z</time>
      </trkpt>
      <trkpt lat="-24.7712580" lon="-53.7318750">
        <ele>525.5</ele>
        <time>2018-09-14T19:52:49Z</time>
      </trkpt>
      <trkpt lat="-24.7712470" lon="-53.7318860">
        <ele>525.7</ele>
        <time>2018-09-14T19:52:50Z</time>
      </trkpt>
      <trkpt lat="-24.7712360" lon="-53.7318960">
        <ele>525.9</ele>
        <time>2018-09-14T19:52:51Z</time>
      </trkpt>
      <trkpt lat="-24.7712250" lon="-53.7319050">
        <ele>526.1</ele>
        <time>2018-09-14T19:52:52Z</time>
      </trkpt>
      <trkpt lat="-24.7712140" lon="-53.7319130">
        <ele>526.3</ele>
        <time>2018-09-14T19:52:53Z</time>
      </trkpt>
      <trkpt lat="-24.7712020" lon="-53.7319190">
        <ele>526.5</ele>
        <time>2018-09-14T19:52:54Z</time>
      </trkpt>
      <trkpt lat="-24.7711900" lon="-53.7319280">
        <ele>526.6</ele>
        <time>2018-09-14T19:52:55Z</time>
      </trkpt>
      <trkpt lat="-24.7711790" lon="-53.7319380">
        <ele>526.7</ele>
        <time>2018-09-14T19:52:56Z</time>
      </trkpt>
      <trkpt lat="-24.7711670" lon="-53.7319490">
        <ele>526.8</ele>
        <time>2018-09-14T19:52:57Z</time>
      </trkpt>
      <trkpt lat="-24.7711550" lon="-53.7319580">
        <ele>526.8</ele>
        <time>2018-09-14T19:52:58Z</time>
      </trkpt>
      <trkpt lat="-24.7711430" lon="-53.7319670">
        <ele>526.9</ele>
        <time>2018-09-14T19:52:59Z</time>
      </trkpt>
      <trkpt lat="-24.7711310" lon="-53.7319750">
        <ele>527.0</ele>
        <time>2018-09-14T19:53:00Z</time>
      </trkpt>
      <trkpt lat="-24.7711200" lon="-53.7319830">
        <ele>527.1</ele>
        <time>2018-09-14T19:53:01Z</time>
      </trkpt>
      <trkpt lat="-24.7711090" lon="-53.7319900">
        <ele>527.2</ele>
        <time>2018-09-14T19:53:02Z</time>
      </trkpt>
      <trkpt lat="-24.7711000" lon="-53.7319970">
        <ele>527.2</ele>
        <time>2018-09-14T19:53:03Z</time>
      </trkpt>
      <trkpt lat="-24.7710900" lon="-53.7320070">
        <ele>527.3</ele>
        <time>2018-09-14T19:53:04Z</time>
      </trkpt>
      <trkpt lat="-24.7710770" lon="-53.7320150">
        <ele>527.5</ele>
        <time>2018-09-14T19:53:05Z</time>
      </trkpt>
      <trkpt lat="-24.7710650" lon="-53.7320240">
        <ele>527.7</ele>
        <time>2018-09-14T19:53:06Z</time>
      </trkpt>
      <trkpt lat="-24.7710530" lon="-53.7320330">
        <ele>528.0</ele>
        <time>2018-09-14T19:53:07Z</time>
      </trkpt>
      <trkpt lat="-24.7710420" lon="-53.7320440">
        <ele>528.2</ele>
        <time>2018-09-14T19:53:08Z</time>
      </trkpt>
      <trkpt lat="-24.7710310" lon="-53.7320530">
        <ele>528.4</ele>
        <time>2018-09-14T19:53:09Z</time>
      </trkpt>
      <trkpt lat="-24.7710220" lon="-53.7320640">
        <ele>528.6</ele>
        <time>2018-09-14T19:53:10Z</time>
      </trkpt>
      <trkpt lat="-24.7710110" lon="-53.7320720">
        <ele>528.8</ele>
        <time>2018-09-14T19:53:11Z</time>
      </trkpt>
      <trkpt lat="-24.7709970" lon="-53.7320790">
        <ele>528.9</ele>
        <time>2018-09-14T19:53:12Z</time>
      </trkpt>
      <trkpt lat="-24.7709850" lon="-53.7320860">
        <ele>529.0</ele>
        <time>2018-09-14T19:53:13Z</time>
      </trkpt>
      <trkpt lat="-24.7709750" lon="-53.7320940">
        <ele>529.2</ele>
        <time>2018-09-14T19:53:14Z</time>
      </trkpt>
      <trkpt lat="-24.7709650" lon="-53.7321020">
        <ele>529.3</ele>
        <time>2018-09-14T19:53:15Z</time>
      </trkpt>
      <trkpt lat="-24.7709540" lon="-53.7321090">
        <ele>529.5</ele>
        <time>2018-09-14T19:53:16Z</time>
      </trkpt>
      <trkpt lat="-24.7709420" lon="-53.7321180">
        <ele>529.7</ele>
        <time>2018-09-14T19:53:17Z</time>
      </trkpt>
      <trkpt lat="-24.7709300" lon="-53.7321270">
        <ele>529.9</ele>
        <time>2018-09-14T19:53:18Z</time>
      </trkpt>
      <trkpt lat="-24.7709180" lon="-53.7321350">
        <ele>530.2</ele>
        <time>2018-09-14T19:53:19Z</time>
      </trkpt>
      <trkpt lat="-24.7709060" lon="-53.7321450">
        <ele>530.5</ele>
        <time>2018-09-14T19:53:20Z</time>
      </trkpt>
      <trkpt lat="-24.7708950" lon="-53.7321530">
        <ele>530.7</ele>
        <time>2018-09-14T19:53:21Z</time>
      </trkpt>
      <trkpt lat="-24.7708840" lon="-53.7321640">
        <ele>530.9</ele>
        <time>2018-09-14T19:53:22Z</time>
      </trkpt>
      <trkpt lat="-24.7708730" lon="-53.7321740">
        <ele>531.0</ele>
        <time>2018-09-14T19:53:23Z</time>
      </trkpt>
      <trkpt lat="-24.7708630" lon="-53.7321830">
        <ele>531.1</ele>
        <time>2018-09-14T19:53:24Z</time>
      </trkpt>
      <trkpt lat="-24.7708530" lon="-53.7321910">
        <ele>531.3</ele>
        <time>2018-09-14T19:53:25Z</time>
      </trkpt>
      <trkpt lat="-24.7708460" lon="-53.7322020">
        <ele>531.4</ele>
        <time>2018-09-14T19:53:26Z</time>
      </trkpt>
      <trkpt lat="-24.7708360" lon="-53.7322110">
        <ele>531.5</ele>
        <time>2018-09-14T19:53:27Z</time>
      </trkpt>
      <trkpt lat="-24.7708250" lon="-53.7322190">
        <ele>531.7</ele>
        <time>2018-09-14T19:53:28Z</time>
      </trkpt>
      <trkpt lat="-24.7708150" lon="-53.7322280">
        <ele>531.8</ele>
        <time>2018-09-14T19:53:29Z</time>
      </trkpt>
      <trkpt lat="-24.7708040" lon="-53.7322360">
        <ele>532.0</ele>
        <time>2018-09-14T19:53:30Z</time>
      </trkpt>
      <trkpt lat="-24.7707940" lon="-53.7322450">
        <ele>532.1</ele>
        <time>2018-09-14T19:53:31Z</time>
      </trkpt>
      <trkpt lat="-24.7707840" lon="-53.7322520">
        <ele>532.2</ele>
        <time>2018-09-14T19:53:32Z</time>
      </trkpt>
      <trkpt lat="-24.7707740" lon="-53.7322610">
        <ele>532.4</ele>
        <time>2018-09-14T19:53:33Z</time>
      </trkpt>
      <trkpt lat="-24.7707640" lon="-53.7322690">
        <ele>532.5</ele>
        <time>2018-09-14T19:53:34Z</time>
      </trkpt>
      <trkpt lat="-24.7707530" lon="-53.7322780">
        <ele>532.7</ele>
        <time>2018-09-14T19:53:35Z</time>
      </trkpt>
      <trkpt lat="-24.7707530" lon="-53.7322780">
        <ele>532.7</ele>
        <time>2018-09-14T19:53:36Z</time>
      </trkpt>
      <trkpt lat="-24.7707440" lon="-53.7322900">
        <ele>533.0</ele>
        <time>2018-09-14T19:53:37Z</time>
      </trkpt>
      <trkpt lat="-24.7707330" lon="-53.7322990">
        <ele>533.3</ele>
        <time>2018-09-14T19:53:38Z</time>
      </trkpt>
      <trkpt lat="-24.7707210" lon="-53.7323080">
        <ele>533.5</ele>
        <time>2018-09-14T19:53:39Z</time>
      </trkpt>
      <trkpt lat="-24.7707100" lon="-53.7323160">
        <ele>533.6</ele>
        <time>2018-09-14T19:53:40Z</time>
      </trkpt>
      <trkpt lat="-24.7706990" lon="-53.7323240">
        <ele>533.8</ele>
        <time>2018-09-14T19:53:41Z</time>
      </trkpt>
      <trkpt lat="-24.7706860" lon="-53.7323310">
        <ele>533.9</ele>
        <time>2018-09-14T19:53:42Z</time>
      </trkpt>
      <trkpt lat="-24.7706750" lon="-53.7323390">
        <ele>534.0</ele>
        <time>2018-09-14T19:53:43Z</time>
      </trkpt>
      <trkpt lat="-24.7706640" lon="-53.7323490">
        <ele>534.2</ele>
        <time>2018-09-14T19:53:44Z</time>
      </trkpt>
      <trkpt lat="-24.7706530" lon="-53.7323620">
        <ele>534.3</ele>
        <time>2018-09-14T19:53:45Z</time>
      </trkpt>
      <trkpt lat="-24.7706400" lon="-53.7323700">
        <ele>534.4</ele>
        <time>2018-09-14T19:53:46Z</time>
      </trkpt>
      <trkpt lat="-24.7706280" lon="-53.7323810">
        <ele>534.5</ele>
        <time>2018-09-14T19:53:47Z</time>
      </trkpt>
      <trkpt lat="-24.7706170" lon="-53.7323930">
        <ele>534.7</ele>
        <time>2018-09-14T19:53:48Z</time>
      </trkpt>
      <trkpt lat="-24.7706070" lon="-53.7324050">
        <ele>534.9</ele>
        <time>2018-09-14T19:53:49Z</time>
      </trkpt>
      <trkpt lat="-24.7705960" lon="-53.7324190">
        <ele>535.2</ele>
        <time>2018-09-14T19:53:50Z</time>
      </trkpt>
      <trkpt lat="-24.7705850" lon="-53.7324320">
        <ele>535.5</ele>
        <time>2018-09-14T19:53:51Z</time>
      </trkpt>
      <trkpt lat="-24.7705750" lon="-53.7324450">
        <ele>535.8</ele>
        <time>2018-09-14T19:53:52Z</time>
      </trkpt>
      <trkpt lat="-24.7705660" lon="-53.7324590">
        <ele>536.0</ele>
        <time>2018-09-14T19:53:53Z</time>
      </trkpt>
      <trkpt lat="-24.7705560" lon="-53.7324720">
        <ele>536.2</ele>
        <time>2018-09-14T19:53:54Z</time>
      </trkpt>
      <trkpt lat="-24.7705440" lon="-53.7324840">
        <ele>536.4</ele>
        <time>2018-09-14T19:53:55Z</time>
      </trkpt>
      <trkpt lat="-24.7705330" lon="-53.7324970">
        <ele>536.6</ele>
        <time>2018-09-14T19:53:56Z</time>
      </trkpt>
      <trkpt lat="-24.7705210" lon="-53.7325080">
        <ele>536.7</ele>
        <time>2018-09-14T19:53:57Z</time>
      </trkpt>
      <trkpt lat="-24.7705090" lon="-53.7325190">
        <ele>536.8</ele>
        <time>2018-09-14T19:53:58Z</time>
      </trkpt>
      <trkpt lat="-24.7704980" lon="-53.7325330">
        <ele>537.0</ele>
        <time>2018-09-14T19:53:59Z</time>
      </trkpt>
      <trkpt lat="-24.7704870" lon="-53.7325450">
        <ele>537.1</ele>
        <time>2018-09-14T19:54:00Z</time>
      </trkpt>
      <trkpt lat="-24.7704780" lon="-53.7325560">
        <ele>537.2</ele>
        <time>2018-09-14T19:54:01Z</time>
      </trkpt>
      <trkpt lat="-24.7704680" lon="-53.7325660">
        <ele>537.3</ele>
        <time>2018-09-14T19:54:02Z</time>
      </trkpt>
      <trkpt lat="-24.7704550" lon="-53.7325760">
        <ele>537.4</ele>
        <time>2018-09-14T19:54:03Z</time>
      </trkpt>
      <trkpt lat="-24.7704430" lon="-53.7325890">
        <ele>537.5</ele>
        <time>2018-09-14T19:54:04Z</time>
      </trkpt>
      <trkpt lat="-24.7704300" lon="-53.7326000">
        <ele>537.8</ele>
        <time>2018-09-14T19:54:05Z</time>
      </trkpt>
      <trkpt lat="-24.7704180" lon="-53.7326100">
        <ele>538.0</ele>
        <time>2018-09-14T19:54:06Z</time>
      </trkpt>
      <trkpt lat="-24.7704050" lon="-53.7326190">
        <ele>538.3</ele>
        <time>2018-09-14T19:54:07Z</time>
      </trkpt>
      <trkpt lat="-24.7703920" lon="-53.7326280">
        <ele>538.5</ele>
        <time>2018-09-14T19:54:08Z</time>
      </trkpt>
      <trkpt lat="-24.7703820" lon="-53.7326380">
        <ele>538.7</ele>
        <time>2018-09-14T19:54:09Z</time>
      </trkpt>
      <trkpt lat="-24.7703720" lon="-53.7326500">
        <ele>538.9</ele>
        <time>2018-09-14T19:54:10Z</time>
      </trkpt>
      <trkpt lat="-24.7703610" lon="-53.7326630">
        <ele>539.1</ele>
        <time>2018-09-14T19:54:11Z</time>
      </trkpt>
      <trkpt lat="-24.7703470" lon="-53.7326720">
        <ele>539.2</ele>
        <time>2018-09-14T19:54:12Z</time>
      </trkpt>
      <trkpt lat="-24.7703360" lon="-53.7326820">
        <ele>539.3</ele>
        <time>2018-09-14T19:54:13Z</time>
      </trkpt>
      <trkpt lat="-24.7703220" lon="-53.7326910">
        <ele>539.4</ele>
        <time>2018-09-14T19:54:14Z</time>
      </trkpt>
      <trkpt lat="-24.7703110" lon="-53.7326990">
        <ele>539.4</ele>
        <time>2018-09-14T19:54:15Z</time>
      </trkpt>
      <trkpt lat="-24.7703010" lon="-53.7327120">
        <ele>539.5</ele>
        <time>2018-09-14T19:54:16Z</time>
      </trkpt>
      <trkpt lat="-24.7702960" lon="-53.7327280">
        <ele>539.6</ele>
        <time>2018-09-14T19:54:17Z</time>
      </trkpt>
      <trkpt lat="-24.7702860" lon="-53.7327420">
        <ele>539.7</ele>
        <time>2018-09-14T19:54:18Z</time>
      </trkpt>
      <trkpt lat="-24.7702770" lon="-53.7327540">
        <ele>539.8</ele>
        <time>2018-09-14T19:54:19Z</time>
      </trkpt>
      <trkpt lat="-24.7702650" lon="-53.7327630">
        <ele>539.9</ele>
        <time>2018-09-14T19:54:20Z</time>
      </trkpt>
      <trkpt lat="-24.7702550" lon="-53.7327730">
        <ele>540.0</ele>
        <time>2018-09-14T19:54:21Z</time>
      </trkpt>
      <trkpt lat="-24.7702440" lon="-53.7327830">
        <ele>540.1</ele>
        <time>2018-09-14T19:54:22Z</time>
      </trkpt>
      <trkpt lat="-24.7702320" lon="-53.7327960">
        <ele>540.3</ele>
        <time>2018-09-14T19:54:23Z</time>
      </trkpt>
      <trkpt lat="-24.7702200" lon="-53.7328100">
        <ele>540.5</ele>
        <time>2018-09-14T19:54:24Z</time>
      </trkpt>
      <trkpt lat="-24.7702120" lon="-53.7328280">
        <ele>540.7</ele>
        <time>2018-09-14T19:54:25Z</time>
      </trkpt>
      <trkpt lat="-24.7702020" lon="-53.7328410">
        <ele>540.8</ele>
        <time>2018-09-14T19:54:26Z</time>
      </trkpt>
      <trkpt lat="-24.7701890" lon="-53.7328520">
        <ele>540.9</ele>
        <time>2018-09-14T19:54:27Z</time>
      </trkpt>
      <trkpt lat="-24.7701790" lon="-53.7328660">
        <ele>541.0</ele>
        <time>2018-09-14T19:54:28Z</time>
      </trkpt>
      <trkpt lat="-24.7701650" lon="-53.7328770">
        <ele>541.1</ele>
        <time>2018-09-14T19:54:29Z</time>
      </trkpt>
      <trkpt lat="-24.7701520" lon="-53.7328870">
        <ele>541.1</ele>
        <time>2018-09-14T19:54:30Z</time>
      </trkpt>
      <trkpt lat="-24.7701390" lon="-53.7329010">
        <ele>541.2</ele>
        <time>2018-09-14T19:54:31Z</time>
      </trkpt>
      <trkpt lat="-24.7701290" lon="-53.7329160">
        <ele>541.2</ele>
        <time>2018-09-14T19:54:32Z</time>
      </trkpt>
      <trkpt lat="-24.7701170" lon="-53.7329290">
        <ele>541.3</ele>
        <time>2018-09-14T19:54:33Z</time>
      </trkpt>
      <trkpt lat="-24.7701020" lon="-53.7329440">
        <ele>541.4</ele>
        <time>2018-09-14T19:54:34Z</time>
      </trkpt>
      <trkpt lat="-24.7700860" lon="-53.7329550">
        <ele>541.4</ele>
        <time>2018-09-14T19:54:35Z</time>
      </trkpt>
      <trkpt lat="-24.7700670" lon="-53.7329710">
        <ele>541.5</ele>
        <time>2018-09-14T19:54:36Z</time>
      </trkpt>
      <trkpt lat="-24.7700470" lon="-53.7329910">
        <ele>541.6</ele>
        <time>2018-09-14T19:54:37Z</time>
      </trkpt>
      <trkpt lat="-24.7700260" lon="-53.7330090">
        <ele>541.8</ele>
        <time>2018-09-14T19:54:38Z</time>
      </trkpt>
      <trkpt lat="-24.7700040" lon="-53.7330270">
        <ele>541.9</ele>
        <time>2018-09-14T19:54:39Z</time>
      </trkpt>
      <trkpt lat="-24.7699840" lon="-53.7330450">
        <ele>542.1</ele>
        <time>2018-09-14T19:54:40Z</time>
      </trkpt>
      <trkpt lat="-24.7699640" lon="-53.7330630">
        <ele>542.2</ele>
        <time>2018-09-14T19:54:41Z</time>
      </trkpt>
      <trkpt lat="-24.7699440" lon="-53.7330810">
        <ele>542.4</ele>
        <time>2018-09-14T19:54:42Z</time>
      </trkpt>
      <trkpt lat="-24.7699230" lon="-53.7330970">
        <ele>542.4</ele>
        <time>2018-09-14T19:54:43Z</time>
      </trkpt>
      <trkpt lat="-24.7699010" lon="-53.7331140">
        <ele>542.5</ele>
        <time>2018-09-14T19:54:44Z</time>
      </trkpt>
      <trkpt lat="-24.7698780" lon="-53.7331290">
        <ele>542.6</ele>
        <time>2018-09-14T19:54:45Z</time>
      </trkpt>
      <trkpt lat="-24.7698550" lon="-53.7331450">
        <ele>542.6</ele>
        <time>2018-09-14T19:54:46Z</time>
      </trkpt>
      <trkpt lat="-24.7698290" lon="-53.7331630">
        <ele>542.7</ele>
        <time>2018-09-14T19:54:47Z</time>
      </trkpt>
      <trkpt lat="-24.7698040" lon="-53.7331790">
        <ele>542.8</ele>
        <time>2018-09-14T19:54:48Z</time>
      </trkpt>
      <trkpt lat="-24.7697820" lon="-53.7331930">
        <ele>542.8</ele>
        <time>2018-09-14T19:54:49Z</time>
      </trkpt>
      <trkpt lat="-24.7697620" lon="-53.7332060">
        <ele>542.9</ele>
        <time>2018-09-14T19:54:50Z</time>
      </trkpt>
      <trkpt lat="-24.7697450" lon="-53.7332160">
        <ele>542.9</ele>
        <time>2018-09-14T19:54:51Z</time>
      </trkpt>
      <trkpt lat="-24.7697300" lon="-53.7332250">
        <ele>543.0</ele>
        <time>2018-09-14T19:54:52Z</time>
      </trkpt>
      <trkpt lat="-24.7697170" lon="-53.7332340">
        <ele>543.0</ele>
        <time>2018-09-14T19:54:53Z</time>
      </trkpt>
      <trkpt lat="-24.7697030" lon="-53.7332430">
        <ele>542.9</ele>
        <time>2018-09-14T19:54:54Z</time>
      </trkpt>
      <trkpt lat="-24.7696870" lon="-53.7332500">
        <ele>542.9</ele>
        <time>2018-09-14T19:54:55Z</time>
      </trkpt>
      <trkpt lat="-24.7696720" lon="-53.7332570">
        <ele>542.9</ele>
        <time>2018-09-14T19:54:56Z</time>
      </trkpt>
      <trkpt lat="-24.7696590" lon="-53.7332660">
        <ele>542.8</ele>
        <time>2018-09-14T19:54:57Z</time>
      </trkpt>
      <trkpt lat="-24.7696490" lon="-53.7332730">
        <ele>542.8</ele>
        <time>2018-09-14T19:54:58Z</time>
      </trkpt>
      <trkpt lat="-24.7696330" lon="-53.7332820">
        <ele>542.8</ele>
        <time>2018-09-14T19:54:59Z</time>
      </trkpt>
      <trkpt lat="-24.7696230" lon="-53.7332820">
        <ele>542.7</ele>
        <time>2018-09-14T19:55:01Z</time>
      </trkpt>
      <trkpt lat="-24.7696150" lon="-53.7332780">
        <ele>542.7</ele>
        <time>2018-09-14T19:55:02Z</time>
      </trkpt>
      <trkpt lat="-24.7696070" lon="-53.7332780">
        <ele>542.7</ele>
        <time>2018-09-14T19:55:03Z</time>
      </trkpt>
      <trkpt lat="-24.7695940" lon="-53.7332820">
        <ele>542.7</ele>
        <time>2018-09-14T19:55:04Z</time>
      </trkpt>
      <trkpt lat="-24.7695790" lon="-53.7332910">
        <ele>542.6</ele>
        <time>2018-09-14T19:55:05Z</time>
      </trkpt>
      <trkpt lat="-24.7695630" lon="-53.7333050">
        <ele>542.6</ele>
        <time>2018-09-14T19:55:06Z</time>
      </trkpt>
      <trkpt lat="-24.7695470" lon="-53.7333210">
        <ele>542.5</ele>
        <time>2018-09-14T19:55:07Z</time>
      </trkpt>
      <trkpt lat="-24.7695270" lon="-53.7333350">
        <ele>542.5</ele>
        <time>2018-09-14T19:55:08Z</time>
      </trkpt>
      <trkpt lat="-24.7695060" lon="-53.7333470">
        <ele>542.4</ele>
        <time>2018-09-14T19:55:09Z</time>
      </trkpt>
      <trkpt lat="-24.7694830" lon="-53.7333570">
        <ele>542.4</ele>
        <time>2018-09-14T19:55:10Z</time>
      </trkpt>
      <trkpt lat="-24.7694590" lon="-53.7333640">
        <ele>542.3</ele>
        <time>2018-09-14T19:55:11Z</time>
      </trkpt>
      <trkpt lat="-24.7694320" lon="-53.7333710">
        <ele>542.2</ele>
        <time>2018-09-14T19:55:12Z</time>
      </trkpt>
      <trkpt lat="-24.7694020" lon="-53.7333790">
        <ele>542.1</ele>
        <time>2018-09-14T19:55:13Z</time>
      </trkpt>
      <trkpt lat="-24.7693700" lon="-53.7333870">
        <ele>542.0</ele>
        <time>2018-09-14T19:55:14Z</time>
      </trkpt>
      <trkpt lat="-24.7693360" lon="-53.7333940">
        <ele>541.9</ele>
        <time>2018-09-14T19:55:15Z</time>
      </trkpt>
      <trkpt lat="-24.7692990" lon="-53.7334010">
        <ele>541.8</ele>
        <time>2018-09-14T19:55:16Z</time>
      </trkpt>
      <trkpt lat="-24.7692610" lon="-53.7334080">
        <ele>541.7</ele>
        <time>2018-09-14T19:55:17Z</time>
      </trkpt>
      <trkpt lat="-24.7692230" lon="-53.7334170">
        <ele>541.6</ele>
        <time>2018-09-14T19:55:18Z</time>
      </trkpt>
      <trkpt lat="-24.7691830" lon="-53.7334260">
        <ele>541.5</ele>
        <time>2018-09-14T19:55:19Z</time>
      </trkpt>
      <trkpt lat="-24.7691410" lon="-53.7334330">
        <ele>541.4</ele>
        <time>2018-09-14T19:55:20Z</time>
      </trkpt>
      <trkpt lat="-24.7690980" lon="-53.7334400">
        <ele>541.3</ele>
        <time>2018-09-14T19:55:21Z</time>
      </trkpt>
      <trkpt lat="-24.7690550" lon="-53.7334490">
        <ele>541.2</ele>
        <time>2018-09-14T19:55:22Z</time>
      </trkpt>
      <trkpt lat="-24.7690140" lon="-53.7334590">
        <ele>541.0</ele>
        <time>2018-09-14T19:55:23Z</time>
      </trkpt>
      <trkpt lat="-24.7689730" lon="-53.7334650">
        <ele>540.9</ele>
        <time>2018-09-14T19:55:24Z</time>
      </trkpt>
      <trkpt lat="-24.7689330" lon="-53.7334720">
        <ele>540.9</ele>
        <time>2018-09-14T19:55:25Z</time>
      </trkpt>
      <trkpt lat="-24.7688590" lon="-53.7334910">
        <ele>540.8</ele>
        <time>2018-09-14T19:55:26Z</time>
      </trkpt>
      <trkpt lat="-24.7688210" lon="-53.7334940">
        <ele>540.7</ele>
        <time>2018-09-14T19:55:27Z</time>
      </trkpt>
      <trkpt lat="-24.7687830" lon="-53.7334950">
        <ele>540.7</ele>
        <time>2018-09-14T19:55:28Z</time>
      </trkpt>
      <trkpt lat="-24.7687440" lon="-53.7334960">
        <ele>540.6</ele>
        <time>2018-09-14T19:55:29Z</time>
      </trkpt>
      <trkpt lat="-24.7687070" lon="-53.7334950">
        <ele>540.6</ele>
        <time>2018-09-14T19:55:30Z</time>
      </trkpt>
      <trkpt lat="-24.7686690" lon="-53.7334970">
        <ele>540.5</ele>
        <time>2018-09-14T19:55:31Z</time>
      </trkpt>
      <trkpt lat="-24.7686300" lon="-53.7335010">
        <ele>540.5</ele>
        <time>2018-09-14T19:55:32Z</time>
      </trkpt>
      <trkpt lat="-24.7685900" lon="-53.7335070">
        <ele>540.4</ele>
        <time>2018-09-14T19:55:33Z</time>
      </trkpt>
      <trkpt lat="-24.7685500" lon="-53.7335130">
        <ele>540.4</ele>
        <time>2018-09-14T19:55:34Z</time>
      </trkpt>
      <trkpt lat="-24.7685080" lon="-53.7335200">
        <ele>540.4</ele>
        <time>2018-09-14T19:55:35Z</time>
      </trkpt>
      <trkpt lat="-24.7684650" lon="-53.7335260">
        <ele>540.3</ele>
        <time>2018-09-14T19:55:36Z</time>
      </trkpt>
      <trkpt lat="-24.7684210" lon="-53.7335310">
        <ele>540.3</ele>
        <time>2018-09-14T19:55:37Z</time>
      </trkpt>
      <trkpt lat="-24.7683310" lon="-53.7335440">
        <ele>540.2</ele>
        <time>2018-09-14T19:55:39Z</time>
      </trkpt>
      <trkpt lat="-24.7682850" lon="-53.7335530">
        <ele>540.1</ele>
        <time>2018-09-14T19:55:40Z</time>
      </trkpt>
      <trkpt lat="-24.7682380" lon="-53.7335630">
        <ele>540.0</ele>
        <time>2018-09-14T19:55:41Z</time>
      </trkpt>
      <trkpt lat="-24.7681900" lon="-53.7335710">
        <ele>540.0</ele>
        <time>2018-09-14T19:55:42Z</time>
      </trkpt>
      <trkpt lat="-24.7681420" lon="-53.7335800">
        <ele>540.0</ele>
        <time>2018-09-14T19:55:43Z</time>
      </trkpt>
      <trkpt lat="-24.7680940" lon="-53.7335890">
        <ele>540.0</ele>
        <time>2018-09-14T19:55:44Z</time>
      </trkpt>
      <trkpt lat="-24.7680460" lon="-53.7335960">
        <ele>540.0</ele>
        <time>2018-09-14T19:55:45Z</time>
      </trkpt>
      <trkpt lat="-24.7679960" lon="-53.7336040">
        <ele>540.0</ele>
        <time>2018-09-14T19:55:46Z</time>
      </trkpt>
      <trkpt lat="-24.7679460" lon="-53.7336090">
        <ele>540.0</ele>
        <time>2018-09-14T19:55:47Z</time>
      </trkpt>
      <trkpt lat="-24.7678950" lon="-53.7336150">
        <ele>540.0</ele>
        <time>2018-09-14T19:55:48Z</time>
      </trkpt>
      <trkpt lat="-24.7678470" lon="-53.7336200">
        <ele>540.0</ele>
        <time>2018-09-14T19:55:49Z</time>
      </trkpt>
      <trkpt lat="-24.7677980" lon="-53.7336260">
        <ele>540.0</ele>
        <time>2018-09-14T19:55:50Z</time>
      </trkpt>
      <trkpt lat="-24.7677430" lon="-53.7336350">
        <ele>540.0</ele>
        <time>2018-09-14T19:55:51Z</time>
      </trkpt>
      <trkpt lat="-24.7676900" lon="-53.7336430">
        <ele>540.0</ele>
        <time>2018-09-14T19:55:52Z</time>
      </trkpt>
      <trkpt lat="-24.7676370" lon="-53.7336500">
        <ele>540.0</ele>
        <time>2018-09-14T19:55:53Z</time>
      </trkpt>
      <trkpt lat="-24.7675830" lon="-53.7336570">
        <ele>540.0</ele>
        <time>2018-09-14T19:55:54Z</time>
      </trkpt>
      <trkpt lat="-24.7675310" lon="-53.7336630">
        <ele>540.0</ele>
        <time>2018-09-14T19:55:55Z</time>
      </trkpt>
      <trkpt lat="-24.7674780" lon="-53.7336670">
        <ele>540.2</ele>
        <time>2018-09-14T19:55:56Z</time>
      </trkpt>
      <trkpt lat="-24.7674240" lon="-53.7336700">
        <ele>540.5</ele>
        <time>2018-09-14T19:55:57Z</time>
      </trkpt>
      <trkpt lat="-24.7673700" lon="-53.7336720">
        <ele>540.9</ele>
        <time>2018-09-14T19:55:58Z</time>
      </trkpt>
      <trkpt lat="-24.7673160" lon="-53.7336740">
        <ele>541.3</ele>
        <time>2018-09-14T19:55:59Z</time>
      </trkpt>
      <trkpt lat="-24.7672620" lon="-53.7336790">
        <ele>541.7</ele>
        <time>2018-09-14T19:56:00Z</time>
      </trkpt>
      <trkpt lat="-24.7672090" lon="-53.7336850">
        <ele>542.0</ele>
        <time>2018-09-14T19:56:01Z</time>
      </trkpt>
      <trkpt lat="-24.7671550" lon="-53.7336920">
        <ele>542.2</ele>
        <time>2018-09-14T19:56:02Z</time>
      </trkpt>
      <trkpt lat="-24.7670990" lon="-53.7337000">
        <ele>542.0</ele>
        <time>2018-09-14T19:56:03Z</time>
      </trkpt>
      <trkpt lat="-24.7670460" lon="-53.7337070">
        <ele>542.0</ele>
        <time>2018-09-14T19:56:04Z</time>
      </trkpt>
      <trkpt lat="-24.7669950" lon="-53.7337150">
        <ele>542.0</ele>
        <time>2018-09-14T19:56:05Z</time>
      </trkpt>
      <trkpt lat="-24.7669460" lon="-53.7337210">
        <ele>541.7</ele>
        <time>2018-09-14T19:56:06Z</time>
      </trkpt>
      <trkpt lat="-24.7668980" lon="-53.7337250">
        <ele>541.5</ele>
        <time>2018-09-14T19:56:07Z</time>
      </trkpt>
      <trkpt lat="-24.7668530" lon="-53.7337280">
        <ele>541.4</ele>
        <time>2018-09-14T19:56:08Z</time>
      </trkpt>
      <trkpt lat="-24.7668080" lon="-53.7337330">
        <ele>541.5</ele>
        <time>2018-09-14T19:56:09Z</time>
      </trkpt>
      <trkpt lat="-24.7667640" lon="-53.7337400">
        <ele>541.6</ele>
        <time>2018-09-14T19:56:10Z</time>
      </trkpt>
      <trkpt lat="-24.7667190" lon="-53.7337470">
        <ele>541.8</ele>
        <time>2018-09-14T19:56:11Z</time>
      </trkpt>
      <trkpt lat="-24.7666740" lon="-53.7337540">
        <ele>542.1</ele>
        <time>2018-09-14T19:56:12Z</time>
      </trkpt>
      <trkpt lat="-24.7666290" lon="-53.7337610">
        <ele>542.6</ele>
        <time>2018-09-14T19:56:13Z</time>
      </trkpt>
      <trkpt lat="-24.7665830" lon="-53.7337670">
        <ele>543.0</ele>
        <time>2018-09-14T19:56:14Z</time>
      </trkpt>
      <trkpt lat="-24.7665380" lon="-53.7337740">
        <ele>543.5</ele>
        <time>2018-09-14T19:56:15Z</time>
      </trkpt>
      <trkpt lat="-24.7664910" lon="-53.7337800">
        <ele>544.0</ele>
        <time>2018-09-14T19:56:16Z</time>
      </trkpt>
      <trkpt lat="-24.7664450" lon="-53.7337880">
        <ele>544.0</ele>
        <time>2018-09-14T19:56:17Z</time>
      </trkpt>
      <trkpt lat="-24.7663980" lon="-53.7337950">
        <ele>544.1</ele>
        <time>2018-09-14T19:56:18Z</time>
      </trkpt>
      <trkpt lat="-24.7663510" lon="-53.7338010">
        <ele>544.4</ele>
        <time>2018-09-14T19:56:19Z</time>
      </trkpt>
      <trkpt lat="-24.7663040" lon="-53.7338070">
        <ele>544.5</ele>
        <time>2018-09-14T19:56:20Z</time>
      </trkpt>
      <trkpt lat="-24.7662570" lon="-53.7338130">
        <ele>544.6</ele>
        <time>2018-09-14T19:56:21Z</time>
      </trkpt>
      <trkpt lat="-24.7662090" lon="-53.7338190">
        <ele>545.0</ele>
        <time>2018-09-14T19:56:22Z</time>
      </trkpt>
      <trkpt lat="-24.7661620" lon="-53.7338270">
        <ele>545.2</ele>
        <time>2018-09-14T19:56:23Z</time>
      </trkpt>
      <trkpt lat="-24.7661140" lon="-53.7338350">
        <ele>545.4</ele>
        <time>2018-09-14T19:56:24Z</time>
      </trkpt>
      <trkpt lat="-24.7660660" lon="-53.7338420">
        <ele>545.5</ele>
        <time>2018-09-14T19:56:25Z</time>
      </trkpt>
      <trkpt lat="-24.7660190" lon="-53.7338470">
        <ele>545.5</ele>
        <time>2018-09-14T19:56:26Z</time>
      </trkpt>
      <trkpt lat="-24.7659720" lon="-53.7338500">
        <ele>545.3</ele>
        <time>2018-09-14T19:56:27Z</time>
      </trkpt>
      <trkpt lat="-24.7659230" lon="-53.7338510">
        <ele>545.0</ele>
        <time>2018-09-14T19:56:28Z</time>
      </trkpt>
      <trkpt lat="-24.7658750" lon="-53.7338530">
        <ele>545.0</ele>
        <time>2018-09-14T19:56:29Z</time>
      </trkpt>
      <trkpt lat="-24.7658260" lon="-53.7338580">
        <ele>545.0</ele>
        <time>2018-09-14T19:56:30Z</time>
      </trkpt>
      <trkpt lat="-24.7657780" lon="-53.7338630">
        <ele>545.0</ele>
        <time>2018-09-14T19:56:31Z</time>
      </trkpt>
      <trkpt lat="-24.7657300" lon="-53.7338700">
        <ele>545.0</ele>
        <time>2018-09-14T19:56:32Z</time>
      </trkpt>
      <trkpt lat="-24.7656830" lon="-53.7338770">
        <ele>545.1</ele>
        <time>2018-09-14T19:56:33Z</time>
      </trkpt>
      <trkpt lat="-24.7656350" lon="-53.7338850">
        <ele>545.1</ele>
        <time>2018-09-14T19:56:34Z</time>
      </trkpt>
      <trkpt lat="-24.7655880" lon="-53.7338950">
        <ele>545.2</ele>
        <time>2018-09-14T19:56:35Z</time>
      </trkpt>
      <trkpt lat="-24.7655410" lon="-53.7339040">
        <ele>545.2</ele>
        <time>2018-09-14T19:56:36Z</time>
      </trkpt>
      <trkpt lat="-24.7654960" lon="-53.7339100">
        <ele>545.3</ele>
        <time>2018-09-14T19:56:37Z</time>
      </trkpt>
      <trkpt lat="-24.7654510" lon="-53.7339170">
        <ele>545.3</ele>
        <time>2018-09-14T19:56:38Z</time>
      </trkpt>
      <trkpt lat="-24.7654070" lon="-53.7339260">
        <ele>545.3</ele>
        <time>2018-09-14T19:56:39Z</time>
      </trkpt>
      <trkpt lat="-24.7653630" lon="-53.7339360">
        <ele>545.4</ele>
        <time>2018-09-14T19:56:40Z</time>
      </trkpt>
      <trkpt lat="-24.7653190" lon="-53.7339420">
        <ele>545.4</ele>
        <time>2018-09-14T19:56:41Z</time>
      </trkpt>
      <trkpt lat="-24.7652730" lon="-53.7339430">
        <ele>545.4</ele>
        <time>2018-09-14T19:56:42Z</time>
      </trkpt>
      <trkpt lat="-24.7652270" lon="-53.7339430">
        <ele>545.5</ele>
        <time>2018-09-14T19:56:43Z</time>
      </trkpt>
      <trkpt lat="-24.7651810" lon="-53.7339430">
        <ele>545.5</ele>
        <time>2018-09-14T19:56:44Z</time>
      </trkpt>
      <trkpt lat="-24.7651350" lon="-53.7339470">
        <ele>545.6</ele>
        <time>2018-09-14T19:56:45Z</time>
      </trkpt>
      <trkpt lat="-24.7650900" lon="-53.7339530">
        <ele>545.6</ele>
        <time>2018-09-14T19:56:46Z</time>
      </trkpt>
      <trkpt lat="-24.7650450" lon="-53.7339630">
        <ele>545.7</ele>
        <time>2018-09-14T19:56:47Z</time>
      </trkpt>
      <trkpt lat="-24.7649990" lon="-53.7339710">
        <ele>545.7</ele>
        <time>2018-09-14T19:56:48Z</time>
      </trkpt>
      <trkpt lat="-24.7649530" lon="-53.7339730">
        <ele>545.8</ele>
        <time>2018-09-14T19:56:49Z</time>
      </trkpt>
      <trkpt lat="-24.7649080" lon="-53.7339740">
        <ele>545.8</ele>
        <time>2018-09-14T19:56:50Z</time>
      </trkpt>
      <trkpt lat="-24.7648630" lon="-53.7339740">
        <ele>545.9</ele>
        <time>2018-09-14T19:56:51Z</time>
      </trkpt>
      <trkpt lat="-24.7648170" lon="-53.7339790">
        <ele>545.9</ele>
        <time>2018-09-14T19:56:52Z</time>
      </trkpt>
      <trkpt lat="-24.7647720" lon="-53.7339850">
        <ele>546.0</ele>
        <time>2018-09-14T19:56:53Z</time>
      </trkpt>
      <trkpt lat="-24.7647270" lon="-53.7339910">
        <ele>546.0</ele>
        <time>2018-09-14T19:56:54Z</time>
      </trkpt>
      <trkpt lat="-24.7646820" lon="-53.7339980">
        <ele>546.1</ele>
        <time>2018-09-14T19:56:55Z</time>
      </trkpt>
      <trkpt lat="-24.7646390" lon="-53.7340020">
        <ele>546.1</ele>
        <time>2018-09-14T19:56:56Z</time>
      </trkpt>
      <trkpt lat="-24.7645950" lon="-53.7340070">
        <ele>546.2</ele>
        <time>2018-09-14T19:56:57Z</time>
      </trkpt>
      <trkpt lat="-24.7645520" lon="-53.7340130">
        <ele>546.3</ele>
        <time>2018-09-14T19:56:58Z</time>
      </trkpt>
      <trkpt lat="-24.7645100" lon="-53.7340170">
        <ele>546.4</ele>
        <time>2018-09-14T19:56:59Z</time>
      </trkpt>
      <trkpt lat="-24.7644670" lon="-53.7340230">
        <ele>546.5</ele>
        <time>2018-09-14T19:57:00Z</time>
      </trkpt>
      <trkpt lat="-24.7644250" lon="-53.7340290">
        <ele>546.6</ele>
        <time>2018-09-14T19:57:01Z</time>
      </trkpt>
      <trkpt lat="-24.7643830" lon="-53.7340330">
        <ele>546.7</ele>
        <time>2018-09-14T19:57:02Z</time>
      </trkpt>
      <trkpt lat="-24.7643410" lon="-53.7340370">
        <ele>546.8</ele>
        <time>2018-09-14T19:57:03Z</time>
      </trkpt>
      <trkpt lat="-24.7642970" lon="-53.7340440">
        <ele>546.9</ele>
        <time>2018-09-14T19:57:04Z</time>
      </trkpt>
      <trkpt lat="-24.7642560" lon="-53.7340500">
        <ele>546.9</ele>
        <time>2018-09-14T19:57:05Z</time>
      </trkpt>
      <trkpt lat="-24.7642140" lon="-53.7340580">
        <ele>547.0</ele>
        <time>2018-09-14T19:57:06Z</time>
      </trkpt>
      <trkpt lat="-24.7641730" lon="-53.7340630">
        <ele>547.0</ele>
        <time>2018-09-14T19:57:07Z</time>
      </trkpt>
      <trkpt lat="-24.7641340" lon="-53.7340680">
        <ele>547.0</ele>
        <time>2018-09-14T19:57:08Z</time>
      </trkpt>
      <trkpt lat="-24.7640940" lon="-53.7340740">
        <ele>547.1</ele>
        <time>2018-09-14T19:57:09Z</time>
      </trkpt>
      <trkpt lat="-24.7640560" lon="-53.7340790">
        <ele>547.1</ele>
        <time>2018-09-14T19:57:10Z</time>
      </trkpt>
      <trkpt lat="-24.7640170" lon="-53.7340850">
        <ele>547.2</ele>
        <time>2018-09-14T19:57:11Z</time>
      </trkpt>
      <trkpt lat="-24.7639770" lon="-53.7340900">
        <ele>547.2</ele>
        <time>2018-09-14T19:57:12Z</time>
      </trkpt>
      <trkpt lat="-24.7639370" lon="-53.7340950">
        <ele>547.3</ele>
        <time>2018-09-14T19:57:13Z</time>
      </trkpt>
      <trkpt lat="-24.7638970" lon="-53.7340990">
        <ele>547.3</ele>
        <time>2018-09-14T19:57:14Z</time>
      </trkpt>
      <trkpt lat="-24.7638570" lon="-53.7341020">
        <ele>547.4</ele>
        <time>2018-09-14T19:57:15Z</time>
      </trkpt>
      <trkpt lat="-24.7638150" lon="-53.7341050">
        <ele>547.4</ele>
        <time>2018-09-14T19:57:16Z</time>
      </trkpt>
      <trkpt lat="-24.7637730" lon="-53.7341090">
        <ele>547.5</ele>
        <time>2018-09-14T19:57:17Z</time>
      </trkpt>
      <trkpt lat="-24.7637320" lon="-53.7341140">
        <ele>547.5</ele>
        <time>2018-09-14T19:57:18Z</time>
      </trkpt>
      <trkpt lat="-24.7636910" lon="-53.7341190">
        <ele>547.5</ele>
        <time>2018-09-14T19:57:19Z</time>
      </trkpt>
      <trkpt lat="-24.7636500" lon="-53.7341220">
        <ele>547.6</ele>
        <time>2018-09-14T19:57:20Z</time>
      </trkpt>
      <trkpt lat="-24.7636100" lon="-53.7341270">
        <ele>547.6</ele>
        <time>2018-09-14T19:57:21Z</time>
      </trkpt>
      <trkpt lat="-24.7635720" lon="-53.7341300">
        <ele>547.6</ele>
        <time>2018-09-14T19:57:22Z</time>
      </trkpt>
      <trkpt lat="-24.7635360" lon="-53.7341350">
        <ele>547.7</ele>
        <time>2018-09-14T19:57:23Z</time>
      </trkpt>
      <trkpt lat="-24.7635030" lon="-53.7341390">
        <ele>547.7</ele>
        <time>2018-09-14T19:57:24Z</time>
      </trkpt>
      <trkpt lat="-24.7634730" lon="-53.7341470">
        <ele>547.7</ele>
        <time>2018-09-14T19:57:25Z</time>
      </trkpt>
      <trkpt lat="-24.7634440" lon="-53.7341560">
        <ele>547.7</ele>
        <time>2018-09-14T19:57:26Z</time>
      </trkpt>
      <trkpt lat="-24.7634160" lon="-53.7341620">
        <ele>547.8</ele>
        <time>2018-09-14T19:57:27Z</time>
      </trkpt>
      <trkpt lat="-24.7633860" lon="-53.7341640">
        <ele>547.8</ele>
        <time>2018-09-14T19:57:28Z</time>
      </trkpt>
      <trkpt lat="-24.7633550" lon="-53.7341680">
        <ele>547.8</ele>
        <time>2018-09-14T19:57:29Z</time>
      </trkpt>
      <trkpt lat="-24.7633270" lon="-53.7341700">
        <ele>547.8</ele>
        <time>2018-09-14T19:57:30Z</time>
      </trkpt>
      <trkpt lat="-24.7632990" lon="-53.7341730">
        <ele>547.8</ele>
        <time>2018-09-14T19:57:31Z</time>
      </trkpt>
      <trkpt lat="-24.7632760" lon="-53.7341700">
        <ele>547.9</ele>
        <time>2018-09-14T19:57:32Z</time>
      </trkpt>
      <trkpt lat="-24.7632530" lon="-53.7341690">
        <ele>547.9</ele>
        <time>2018-09-14T19:57:33Z</time>
      </trkpt>
      <trkpt lat="-24.7632530" lon="-53.7341690">
        <ele>547.9</ele>
        <time>2018-09-14T19:57:34Z</time>
      </trkpt>
      <trkpt lat="-24.7632290" lon="-53.7341680">
        <ele>547.9</ele>
        <time>2018-09-14T19:57:35Z</time>
      </trkpt>
      <trkpt lat="-24.7632070" lon="-53.7341720">
        <ele>547.9</ele>
        <time>2018-09-14T19:57:36Z</time>
      </trkpt>
      <trkpt lat="-24.7631850" lon="-53.7341780">
        <ele>547.9</ele>
        <time>2018-09-14T19:57:37Z</time>
      </trkpt>
      <trkpt lat="-24.7631660" lon="-53.7341800">
        <ele>548.0</ele>
        <time>2018-09-14T19:57:38Z</time>
      </trkpt>
      <trkpt lat="-24.7631480" lon="-53.7341820">
        <ele>548.0</ele>
        <time>2018-09-14T19:57:39Z</time>
      </trkpt>
      <trkpt lat="-24.7631330" lon="-53.7341920">
        <ele>548.0</ele>
        <time>2018-09-14T19:57:40Z</time>
      </trkpt>
      <trkpt lat="-24.7631260" lon="-53.7342110">
        <ele>548.0</ele>
        <time>2018-09-14T19:57:41Z</time>
      </trkpt>
      <trkpt lat="-24.7631290" lon="-53.7342320">
        <ele>548.0</ele>
        <time>2018-09-14T19:57:42Z</time>
      </trkpt>
      <trkpt lat="-24.7631400" lon="-53.7342550">
        <ele>548.0</ele>
        <time>2018-09-14T19:57:43Z</time>
      </trkpt>
      <trkpt lat="-24.7631530" lon="-53.7342840">
        <ele>548.0</ele>
        <time>2018-09-14T19:57:44Z</time>
      </trkpt>
      <trkpt lat="-24.7631690" lon="-53.7343130">
        <ele>548.0</ele>
        <time>2018-09-14T19:57:45Z</time>
      </trkpt>
      <trkpt lat="-24.7631910" lon="-53.7343400">
        <ele>547.9</ele>
        <time>2018-09-14T19:57:46Z</time>
      </trkpt>
      <trkpt lat="-24.7632170" lon="-53.7343670">
        <ele>547.9</ele>
        <time>2018-09-14T19:57:47Z</time>
      </trkpt>
      <trkpt lat="-24.7632490" lon="-53.7343930">
        <ele>547.8</ele>
        <time>2018-09-14T19:57:48Z</time>
      </trkpt>
      <trkpt lat="-24.7632820" lon="-53.7344160">
        <ele>547.6</ele>
        <time>2018-09-14T19:57:49Z</time>
      </trkpt>
      <trkpt lat="-24.7633090" lon="-53.7344330">
        <ele>547.5</ele>
        <time>2018-09-14T19:57:50Z</time>
      </trkpt>
      <trkpt lat="-24.7633270" lon="-53.7344380">
        <ele>547.4</ele>
        <time>2018-09-14T19:57:51Z</time>
      </trkpt>
      <trkpt lat="-24.7633360" lon="-53.7344380">
        <ele>547.4</ele>
        <time>2018-09-14T19:57:52Z</time>
      </trkpt>
      <trkpt lat="-24.7633420" lon="-53.7344340">
        <ele>547.4</ele>
        <time>2018-09-14T19:57:53Z</time>
      </trkpt>
      <trkpt lat="-24.7633500" lon="-53.7344310">
        <ele>547.3</ele>
        <time>2018-09-14T19:57:54Z</time>
      </trkpt>
      <trkpt lat="-24.7633580" lon="-53.7344250">
        <ele>547.2</ele>
        <time>2018-09-14T19:57:55Z</time>
      </trkpt>
      <trkpt lat="-24.7633700" lon="-53.7344270">
        <ele>547.2</ele>
        <time>2018-09-14T19:57:56Z</time>
      </trkpt>
      <trkpt lat="-24.7633840" lon="-53.7344250">
        <ele>547.0</ele>
        <time>2018-09-14T19:57:57Z</time>
      </trkpt>
      <trkpt lat="-24.7633920" lon="-53.7344160">
        <ele>547.0</ele>
        <time>2018-09-14T19:57:58Z</time>
      </trkpt>
      <trkpt lat="-24.7633990" lon="-53.7344050">
        <ele>546.9</ele>
        <time>2018-09-14T19:57:59Z</time>
      </trkpt>
      <trkpt lat="-24.7633970" lon="-53.7343870">
        <ele>546.9</ele>
        <time>2018-09-14T19:58:00Z</time>
      </trkpt>
      <trkpt lat="-24.7633880" lon="-53.7343720">
        <ele>547.0</ele>
        <time>2018-09-14T19:58:01Z</time>
      </trkpt>
      <trkpt lat="-24.7633780" lon="-53.7343600">
        <ele>547.1</ele>
        <time>2018-09-14T19:58:02Z</time>
      </trkpt>
      <trkpt lat="-24.7633580" lon="-53.7343500">
        <ele>547.3</ele>
        <time>2018-09-14T19:58:03Z</time>
      </trkpt>
      <trkpt lat="-24.7633350" lon="-53.7343480">
        <ele>547.4</ele>
        <time>2018-09-14T19:58:04Z</time>
      </trkpt>
      <trkpt lat="-24.7633120" lon="-53.7343510">
        <ele>547.5</ele>
        <time>2018-09-14T19:58:05Z</time>
      </trkpt>
      <trkpt lat="-24.7632880" lon="-53.7343540">
        <ele>547.6</ele>
        <time>2018-09-14T19:58:06Z</time>
      </trkpt>
      <trkpt lat="-24.7632610" lon="-53.7343470">
        <ele>547.7</ele>
        <time>2018-09-14T19:58:07Z</time>
      </trkpt>
      <trkpt lat="-24.7632380" lon="-53.7343250">
        <ele>547.8</ele>
        <time>2018-09-14T19:58:08Z</time>
      </trkpt>
      <trkpt lat="-24.7632210" lon="-53.7342950">
        <ele>547.8</ele>
        <time>2018-09-14T19:58:09Z</time>
      </trkpt>
      <trkpt lat="-24.7632040" lon="-53.7342620">
        <ele>548.0</ele>
        <time>2018-09-14T19:58:10Z</time>
      </trkpt>
      <trkpt lat="-24.7631810" lon="-53.7342320">
        <ele>548.0</ele>
        <time>2018-09-14T19:58:11Z</time>
      </trkpt>
      <trkpt lat="-24.7631480" lon="-53.7342150">
        <ele>548.0</ele>
        <time>2018-09-14T19:58:12Z</time>
      </trkpt>
      <trkpt lat="-24.7631100" lon="-53.7342050">
        <ele>548.1</ele>
        <time>2018-09-14T19:58:13Z</time>
      </trkpt>
      <trkpt lat="-24.7630710" lon="-53.7342020">
        <ele>548.2</ele>
        <time>2018-09-14T19:58:14Z</time>
      </trkpt>
      <trkpt lat="-24.7630330" lon="-53.7342100">
        <ele>548.3</ele>
        <time>2018-09-14T19:58:15Z</time>
      </trkpt>
      <trkpt lat="-24.7629930" lon="-53.7342210">
        <ele>548.4</ele>
        <time>2018-09-14T19:58:16Z</time>
      </trkpt>
      <trkpt lat="-24.7629540" lon="-53.7342300">
        <ele>548.5</ele>
        <time>2018-09-14T19:58:17Z</time>
      </trkpt>
      <trkpt lat="-24.7629140" lon="-53.7342350">
        <ele>548.6</ele>
        <time>2018-09-14T19:58:18Z</time>
      </trkpt>
      <trkpt lat="-24.7628750" lon="-53.7342390">
        <ele>548.7</ele>
        <time>2018-09-14T19:58:19Z</time>
      </trkpt>
      <trkpt lat="-24.7628360" lon="-53.7342410">
        <ele>548.7</ele>
        <time>2018-09-14T19:58:20Z</time>
      </trkpt>
      <trkpt lat="-24.7627950" lon="-53.7342450">
        <ele>548.8</ele>
        <time>2018-09-14T19:58:21Z</time>
      </trkpt>
      <trkpt lat="-24.7627510" lon="-53.7342480">
        <ele>548.9</ele>
        <time>2018-09-14T19:58:22Z</time>
      </trkpt>
      <trkpt lat="-24.7627100" lon="-53.7342520">
        <ele>549.0</ele>
        <time>2018-09-14T19:58:23Z</time>
      </trkpt>
      <trkpt lat="-24.7626670" lon="-53.7342580">
        <ele>549.1</ele>
        <time>2018-09-14T19:58:24Z</time>
      </trkpt>
      <trkpt lat="-24.7626240" lon="-53.7342640">
        <ele>549.2</ele>
        <time>2018-09-14T19:58:25Z</time>
      </trkpt>
      <trkpt lat="-24.7625830" lon="-53.7342660">
        <ele>549.4</ele>
        <time>2018-09-14T19:58:26Z</time>
      </trkpt>
      <trkpt lat="-24.7625390" lon="-53.7342660">
        <ele>549.5</ele>
        <time>2018-09-14T19:58:27Z</time>
      </trkpt>
      <trkpt lat="-24.7624950" lon="-53.7342660">
        <ele>549.7</ele>
        <time>2018-09-14T19:58:28Z</time>
      </trkpt>
      <trkpt lat="-24.7624490" lon="-53.7342650">
        <ele>549.8</ele>
        <time>2018-09-14T19:58:29Z</time>
      </trkpt>
      <trkpt lat="-24.7624020" lon="-53.7342690">
        <ele>550.0</ele>
        <time>2018-09-14T19:58:30Z</time>
      </trkpt>
      <trkpt lat="-24.7623580" lon="-53.7342760">
        <ele>550.1</ele>
        <time>2018-09-14T19:58:31Z</time>
      </trkpt>
      <trkpt lat="-24.7623170" lon="-53.7342810">
        <ele>550.3</ele>
        <time>2018-09-14T19:58:32Z</time>
      </trkpt>
      <trkpt lat="-24.7622770" lon="-53.7342860">
        <ele>550.5</ele>
        <time>2018-09-14T19:58:33Z</time>
      </trkpt>
      <trkpt lat="-24.7622400" lon="-53.7342910">
        <ele>550.6</ele>
        <time>2018-09-14T19:58:34Z</time>
      </trkpt>
      <trkpt lat="-24.7622060" lon="-53.7342990">
        <ele>550.8</ele>
        <time>2018-09-14T19:58:35Z</time>
      </trkpt>
      <trkpt lat="-24.7621800" lon="-53.7343040">
        <ele>550.9</ele>
        <time>2018-09-14T19:58:36Z</time>
      </trkpt>
      <trkpt lat="-24.7621560" lon="-53.7343070">
        <ele>551.0</ele>
        <time>2018-09-14T19:58:37Z</time>
      </trkpt>
      <trkpt lat="-24.7621240" lon="-53.7343090">
        <ele>551.0</ele>
        <time>2018-09-14T19:58:38Z</time>
      </trkpt>
      <trkpt lat="-24.7620860" lon="-53.7343180">
        <ele>551.0</ele>
        <time>2018-09-14T19:58:39Z</time>
      </trkpt>
      <trkpt lat="-24.7620450" lon="-53.7343290">
        <ele>551.0</ele>
        <time>2018-09-14T19:58:40Z</time>
      </trkpt>
      <trkpt lat="-24.7620180" lon="-53.7343360">
        <ele>551.0</ele>
        <time>2018-09-14T19:58:41Z</time>
      </trkpt>
      <trkpt lat="-24.7620070" lon="-53.7343480">
        <ele>551.0</ele>
        <time>2018-09-14T19:58:42Z</time>
      </trkpt>
      <trkpt lat="-24.7620130" lon="-53.7343580">
        <ele>551.0</ele>
        <time>2018-09-14T19:58:43Z</time>
      </trkpt>
      <trkpt lat="-24.7620270" lon="-53.7343640">
        <ele>551.0</ele>
        <time>2018-09-14T19:58:44Z</time>
      </trkpt>
      <trkpt lat="-24.7620460" lon="-53.7343740">
        <ele>551.1</ele>
        <time>2018-09-14T19:58:45Z</time>
      </trkpt>
      <trkpt lat="-24.7620430" lon="-53.7343890">
        <ele>551.1</ele>
        <time>2018-09-14T19:58:46Z</time>
      </trkpt>
      <trkpt lat="-24.7620310" lon="-53.7343960">
        <ele>551.2</ele>
        <time>2018-09-14T19:58:47Z</time>
      </trkpt>
      <trkpt lat="-24.7620130" lon="-53.7343930">
        <ele>551.3</ele>
        <time>2018-09-14T19:58:48Z</time>
      </trkpt>
      <trkpt lat="-24.7619900" lon="-53.7343930">
        <ele>551.4</ele>
        <time>2018-09-14T19:58:49Z</time>
      </trkpt>
      <trkpt lat="-24.7619610" lon="-53.7343930">
        <ele>551.5</ele>
        <time>2018-09-14T19:58:50Z</time>
      </trkpt>
      <trkpt lat="-24.7619260" lon="-53.7343920">
        <ele>551.7</ele>
        <time>2018-09-14T19:58:51Z</time>
      </trkpt>
      <trkpt lat="-24.7618880" lon="-53.7343920">
        <ele>551.8</ele>
        <time>2018-09-14T19:58:52Z</time>
      </trkpt>
      <trkpt lat="-24.7618420" lon="-53.7343950">
        <ele>552.0</ele>
        <time>2018-09-14T19:58:53Z</time>
      </trkpt>
      <trkpt lat="-24.7617970" lon="-53.7344030">
        <ele>552.3</ele>
        <time>2018-09-14T19:58:54Z</time>
      </trkpt>
      <trkpt lat="-24.7617530" lon="-53.7344110">
        <ele>552.4</ele>
        <time>2018-09-14T19:58:55Z</time>
      </trkpt>
      <trkpt lat="-24.7617120" lon="-53.7344190">
        <ele>552.6</ele>
        <time>2018-09-14T19:58:56Z</time>
      </trkpt>
      <trkpt lat="-24.7616760" lon="-53.7344240">
        <ele>552.8</ele>
        <time>2018-09-14T19:58:57Z</time>
      </trkpt>
      <trkpt lat="-24.7616380" lon="-53.7344290">
        <ele>553.0</ele>
        <time>2018-09-14T19:58:58Z</time>
      </trkpt>
      <trkpt lat="-24.7615600" lon="-53.7344330">
        <ele>553.4</ele>
        <time>2018-09-14T19:58:59Z</time>
      </trkpt>
      <trkpt lat="-24.7615190" lon="-53.7344400">
        <ele>553.6</ele>
        <time>2018-09-14T19:59:01Z</time>
      </trkpt>
      <trkpt lat="-24.7614770" lon="-53.7344490">
        <ele>553.8</ele>
        <time>2018-09-14T19:59:02Z</time>
      </trkpt>
      <trkpt lat="-24.7614340" lon="-53.7344570">
        <ele>554.1</ele>
        <time>2018-09-14T19:59:03Z</time>
      </trkpt>
      <trkpt lat="-24.7613920" lon="-53.7344630">
        <ele>554.3</ele>
        <time>2018-09-14T19:59:04Z</time>
      </trkpt>
      <trkpt lat="-24.7613510" lon="-53.7344680">
        <ele>554.5</ele>
        <time>2018-09-14T19:59:05Z</time>
      </trkpt>
      <trkpt lat="-24.7613110" lon="-53.7344720">
        <ele>554.8</ele>
        <time>2018-09-14T19:59:06Z</time>
      </trkpt>
      <trkpt lat="-24.7612700" lon="-53.7344750">
        <ele>555.0</ele>
        <time>2018-09-14T19:59:07Z</time>
      </trkpt>
      <trkpt lat="-24.7612300" lon="-53.7344800">
        <ele>555.1</ele>
        <time>2018-09-14T19:59:08Z</time>
      </trkpt>
      <trkpt lat="-24.7611890" lon="-53.7344860">
        <ele>555.2</ele>
        <time>2018-09-14T19:59:09Z</time>
      </trkpt>
      <trkpt lat="-24.7611490" lon="-53.7344920">
        <ele>555.3</ele>
        <time>2018-09-14T19:59:10Z</time>
      </trkpt>
      <trkpt lat="-24.7611100" lon="-53.7344980">
        <ele>555.4</ele>
        <time>2018-09-14T19:59:11Z</time>
      </trkpt>
      <trkpt lat="-24.7610720" lon="-53.7345010">
        <ele>555.5</ele>
        <time>2018-09-14T19:59:12Z</time>
      </trkpt>
      <trkpt lat="-24.7610340" lon="-53.7345060">
        <ele>555.6</ele>
        <time>2018-09-14T19:59:13Z</time>
      </trkpt>
      <trkpt lat="-24.7609960" lon="-53.7345100">
        <ele>555.7</ele>
        <time>2018-09-14T19:59:14Z</time>
      </trkpt>
      <trkpt lat="-24.7609590" lon="-53.7345150">
        <ele>555.8</ele>
        <time>2018-09-14T19:59:15Z</time>
      </trkpt>
      <trkpt lat="-24.7609220" lon="-53.7345200">
        <ele>555.9</ele>
        <time>2018-09-14T19:59:16Z</time>
      </trkpt>
      <trkpt lat="-24.7608870" lon="-53.7345250">
        <ele>556.0</ele>
        <time>2018-09-14T19:59:17Z</time>
      </trkpt>
      <trkpt lat="-24.7608520" lon="-53.7345280">
        <ele>556.0</ele>
        <time>2018-09-14T19:59:18Z</time>
      </trkpt>
      <trkpt lat="-24.7608170" lon="-53.7345300">
        <ele>556.1</ele>
        <time>2018-09-14T19:59:19Z</time>
      </trkpt>
      <trkpt lat="-24.7607810" lon="-53.7345350">
        <ele>556.2</ele>
        <time>2018-09-14T19:59:20Z</time>
      </trkpt>
      <trkpt lat="-24.7607450" lon="-53.7345400">
        <ele>556.3</ele>
        <time>2018-09-14T19:59:21Z</time>
      </trkpt>
      <trkpt lat="-24.7607090" lon="-53.7345460">
        <ele>556.4</ele>
        <time>2018-09-14T19:59:22Z</time>
      </trkpt>
      <trkpt lat="-24.7606390" lon="-53.7345530">
        <ele>556.6</ele>
        <time>2018-09-14T19:59:23Z</time>
      </trkpt>
      <trkpt lat="-24.7606040" lon="-53.7345550">
        <ele>556.7</ele>
        <time>2018-09-14T19:59:24Z</time>
      </trkpt>
      <trkpt lat="-24.7605670" lon="-53.7345610">
        <ele>556.7</ele>
        <time>2018-09-14T19:59:25Z</time>
      </trkpt>
      <trkpt lat="-24.7605310" lon="-53.7345660">
        <ele>556.8</ele>
        <time>2018-09-14T19:59:26Z</time>
      </trkpt>
      <trkpt lat="-24.7604950" lon="-53.7345710">
        <ele>556.9</ele>
        <time>2018-09-14T19:59:27Z</time>
      </trkpt>
      <trkpt lat="-24.7604590" lon="-53.7345740">
        <ele>557.0</ele>
        <time>2018-09-14T19:59:28Z</time>
      </trkpt>
      <trkpt lat="-24.7604250" lon="-53.7345790">
        <ele>557.2</ele>
        <time>2018-09-14T19:59:29Z</time>
      </trkpt>
      <trkpt lat="-24.7603910" lon="-53.7345840">
        <ele>557.5</ele>
        <time>2018-09-14T19:59:30Z</time>
      </trkpt>
      <trkpt lat="-24.7603580" lon="-53.7345900">
        <ele>557.6</ele>
        <time>2018-09-14T19:59:31Z</time>
      </trkpt>
      <trkpt lat="-24.7603230" lon="-53.7345940">
        <ele>557.8</ele>
        <time>2018-09-14T19:59:32Z</time>
      </trkpt>
      <trkpt lat="-24.7602450" lon="-53.7346040">
        <ele>557.8</ele>
        <time>2018-09-14T19:59:34Z</time>
      </trkpt>
      <trkpt lat="-24.7602040" lon="-53.7346080">
        <ele>557.6</ele>
        <time>2018-09-14T19:59:35Z</time>
      </trkpt>
      <trkpt lat="-24.7601620" lon="-53.7346120">
        <ele>557.4</ele>
        <time>2018-09-14T19:59:36Z</time>
      </trkpt>
      <trkpt lat="-24.7601200" lon="-53.7346170">
        <ele>557.3</ele>
        <time>2018-09-14T19:59:37Z</time>
      </trkpt>
      <trkpt lat="-24.7600760" lon="-53.7346190">
        <ele>557.1</ele>
        <time>2018-09-14T19:59:38Z</time>
      </trkpt>
      <trkpt lat="-24.7600350" lon="-53.7346230">
        <ele>556.8</ele>
        <time>2018-09-14T19:59:39Z</time>
      </trkpt>
      <trkpt lat="-24.7599930" lon="-53.7346310">
        <ele>556.7</ele>
        <time>2018-09-14T19:59:40Z</time>
      </trkpt>
      <trkpt lat="-24.7599510" lon="-53.7346380">
        <ele>556.6</ele>
        <time>2018-09-14T19:59:41Z</time>
      </trkpt>
      <trkpt lat="-24.7599070" lon="-53.7346440">
        <ele>556.6</ele>
        <time>2018-09-14T19:59:42Z</time>
      </trkpt>
      <trkpt lat="-24.7598640" lon="-53.7346510">
        <ele>556.5</ele>
        <time>2018-09-14T19:59:43Z</time>
      </trkpt>
      <trkpt lat="-24.7598200" lon="-53.7346560">
        <ele>556.7</ele>
        <time>2018-09-14T19:59:44Z</time>
      </trkpt>
      <trkpt lat="-24.7597770" lon="-53.7346610">
        <ele>556.9</ele>
        <time>2018-09-14T19:59:45Z</time>
      </trkpt>
      <trkpt lat="-24.7597320" lon="-53.7346660">
        <ele>557.0</ele>
        <time>2018-09-14T19:59:46Z</time>
      </trkpt>
      <trkpt lat="-24.7596880" lon="-53.7346710">
        <ele>557.0</ele>
        <time>2018-09-14T19:59:47Z</time>
      </trkpt>
      <trkpt lat="-24.7596430" lon="-53.7346760">
        <ele>556.9</ele>
        <time>2018-09-14T19:59:48Z</time>
      </trkpt>
      <trkpt lat="-24.7595980" lon="-53.7346840">
        <ele>556.8</ele>
        <time>2018-09-14T19:59:49Z</time>
      </trkpt>
      <trkpt lat="-24.7595510" lon="-53.7346910">
        <ele>556.7</ele>
        <time>2018-09-14T19:59:50Z</time>
      </trkpt>
      <trkpt lat="-24.7595020" lon="-53.7346990">
        <ele>556.6</ele>
        <time>2018-09-14T19:59:51Z</time>
      </trkpt>
      <trkpt lat="-24.7594530" lon="-53.7347040">
        <ele>556.5</ele>
        <time>2018-09-14T19:59:52Z</time>
      </trkpt>
      <trkpt lat="-24.7594030" lon="-53.7347100">
        <ele>556.4</ele>
        <time>2018-09-14T19:59:53Z</time>
      </trkpt>
      <trkpt lat="-24.7593520" lon="-53.7347180">
        <ele>556.3</ele>
        <time>2018-09-14T19:59:54Z</time>
      </trkpt>
      <trkpt lat="-24.7592990" lon="-53.7347260">
        <ele>556.2</ele>
        <time>2018-09-14T19:59:55Z</time>
      </trkpt>
      <trkpt lat="-24.7592450" lon="-53.7347330">
        <ele>556.1</ele>
        <time>2018-09-14T19:59:56Z</time>
      </trkpt>
      <trkpt lat="-24.7591900" lon="-53.7347390">
        <ele>555.9</ele>
        <time>2018-09-14T19:59:57Z</time>
      </trkpt>
      <trkpt lat="-24.7591350" lon="-53.7347400">
        <ele>555.8</ele>
        <time>2018-09-14T19:59:58Z</time>
      </trkpt>
      <trkpt lat="-24.7590810" lon="-53.7347440">
        <ele>555.7</ele>
        <time>2018-09-14T19:59:59Z</time>
      </trkpt>
      <trkpt lat="-24.7590300" lon="-53.7347510">
        <ele>555.5</ele>
        <time>2018-09-14T20:00:00Z</time>
      </trkpt>
      <trkpt lat="-24.7589870" lon="-53.7347550">
        <ele>555.4</ele>
        <time>2018-09-14T20:00:01Z</time>
      </trkpt>
      <trkpt lat="-24.7589630" lon="-53.7347540">
        <ele>555.3</ele>
        <time>2018-09-14T20:00:02Z</time>
      </trkpt>
      <trkpt lat="-24.7589500" lon="-53.7347570">
        <ele>555.3</ele>
        <time>2018-09-14T20:00:03Z</time>
      </trkpt>
      <trkpt lat="-24.7589400" lon="-53.7347620">
        <ele>555.3</ele>
        <time>2018-09-14T20:00:04Z</time>
      </trkpt>
      <trkpt lat="-24.7589290" lon="-53.7347660">
        <ele>555.2</ele>
        <time>2018-09-14T20:00:05Z</time>
      </trkpt>
      <trkpt lat="-24.7589160" lon="-53.7347710">
        <ele>555.2</ele>
        <time>2018-09-14T20:00:06Z</time>
      </trkpt>
      <trkpt lat="-24.7588980" lon="-53.7347720">
        <ele>555.1</ele>
        <time>2018-09-14T20:00:07Z</time>
      </trkpt>
      <trkpt lat="-24.7588760" lon="-53.7347720">
        <ele>555.1</ele>
        <time>2018-09-14T20:00:08Z</time>
      </trkpt>
      <trkpt lat="-24.7588480" lon="-53.7347740">
        <ele>555.0</ele>
        <time>2018-09-14T20:00:09Z</time>
      </trkpt>
      <trkpt lat="-24.7588170" lon="-53.7347750">
        <ele>554.9</ele>
        <time>2018-09-14T20:00:10Z</time>
      </trkpt>
      <trkpt lat="-24.7587870" lon="-53.7347780">
        <ele>554.8</ele>
        <time>2018-09-14T20:00:11Z</time>
      </trkpt>
      <trkpt lat="-24.7587570" lon="-53.7347800">
        <ele>554.8</ele>
        <time>2018-09-14T20:00:12Z</time>
      </trkpt>
      <trkpt lat="-24.7587230" lon="-53.7347840">
        <ele>554.7</ele>
        <time>2018-09-14T20:00:13Z</time>
      </trkpt>
      <trkpt lat="-24.7586880" lon="-53.7347890">
        <ele>554.6</ele>
        <time>2018-09-14T20:00:14Z</time>
      </trkpt>
      <trkpt lat="-24.7586570" lon="-53.7347880">
        <ele>554.5</ele>
        <time>2018-09-14T20:00:15Z</time>
      </trkpt>
      <trkpt lat="-24.7586230" lon="-53.7347880">
        <ele>554.4</ele>
        <time>2018-09-14T20:00:16Z</time>
      </trkpt>
      <trkpt lat="-24.7585840" lon="-53.7347910">
        <ele>554.3</ele>
        <time>2018-09-14T20:00:17Z</time>
      </trkpt>
      <trkpt lat="-24.7585420" lon="-53.7347950">
        <ele>554.2</ele>
        <time>2018-09-14T20:00:18Z</time>
      </trkpt>
      <trkpt lat="-24.7584980" lon="-53.7347990">
        <ele>554.0</ele>
        <time>2018-09-14T20:00:19Z</time>
      </trkpt>
      <trkpt lat="-24.7584550" lon="-53.7348020">
        <ele>553.9</ele>
        <time>2018-09-14T20:00:20Z</time>
      </trkpt>
      <trkpt lat="-24.7584120" lon="-53.7348070">
        <ele>553.8</ele>
        <time>2018-09-14T20:00:21Z</time>
      </trkpt>
      <trkpt lat="-24.7583700" lon="-53.7348130">
        <ele>553.6</ele>
        <time>2018-09-14T20:00:22Z</time>
      </trkpt>
      <trkpt lat="-24.7583270" lon="-53.7348180">
        <ele>553.6</ele>
        <time>2018-09-14T20:00:23Z</time>
      </trkpt>
      <trkpt lat="-24.7582830" lon="-53.7348230">
        <ele>553.5</ele>
        <time>2018-09-14T20:00:24Z</time>
      </trkpt>
      <trkpt lat="-24.7582370" lon="-53.7348280">
        <ele>553.4</ele>
        <time>2018-09-14T20:00:25Z</time>
      </trkpt>
      <trkpt lat="-24.7581910" lon="-53.7348330">
        <ele>553.3</ele>
        <time>2018-09-14T20:00:26Z</time>
      </trkpt>
      <trkpt lat="-24.7581430" lon="-53.7348390">
        <ele>553.2</ele>
        <time>2018-09-14T20:00:27Z</time>
      </trkpt>
      <trkpt lat="-24.7580910" lon="-53.7348470">
        <ele>553.1</ele>
        <time>2018-09-14T20:00:28Z</time>
      </trkpt>
      <trkpt lat="-24.7580390" lon="-53.7348530">
        <ele>553.0</ele>
        <time>2018-09-14T20:00:29Z</time>
      </trkpt>
      <trkpt lat="-24.7579840" lon="-53.7348600">
        <ele>552.8</ele>
        <time>2018-09-14T20:00:30Z</time>
      </trkpt>
      <trkpt lat="-24.7579290" lon="-53.7348650">
        <ele>552.5</ele>
        <time>2018-09-14T20:00:31Z</time>
      </trkpt>
      <trkpt lat="-24.7578710" lon="-53.7348730">
        <ele>552.3</ele>
        <time>2018-09-14T20:00:32Z</time>
      </trkpt>
      <trkpt lat="-24.7578120" lon="-53.7348830">
        <ele>552.0</ele>
        <time>2018-09-14T20:00:33Z</time>
      </trkpt>
      <trkpt lat="-24.7577540" lon="-53.7348890">
        <ele>551.7</ele>
        <time>2018-09-14T20:00:34Z</time>
      </trkpt>
      <trkpt lat="-24.7576940" lon="-53.7348950">
        <ele>551.4</ele>
        <time>2018-09-14T20:00:35Z</time>
      </trkpt>
      <trkpt lat="-24.7576360" lon="-53.7349020">
        <ele>551.2</ele>
        <time>2018-09-14T20:00:36Z</time>
      </trkpt>
      <trkpt lat="-24.7575780" lon="-53.7349110">
        <ele>550.9</ele>
        <time>2018-09-14T20:00:37Z</time>
      </trkpt>
      <trkpt lat="-24.7575210" lon="-53.7349200">
        <ele>550.6</ele>
        <time>2018-09-14T20:00:38Z</time>
      </trkpt>
      <trkpt lat="-24.7574620" lon="-53.7349270">
        <ele>550.3</ele>
        <time>2018-09-14T20:00:39Z</time>
      </trkpt>
      <trkpt lat="-24.7574000" lon="-53.7349340">
        <ele>550.0</ele>
        <time>2018-09-14T20:00:40Z</time>
      </trkpt>
      <trkpt lat="-24.7573340" lon="-53.7349420">
        <ele>549.6</ele>
        <time>2018-09-14T20:00:41Z</time>
      </trkpt>
      <trkpt lat="-24.7572680" lon="-53.7349500">
        <ele>549.3</ele>
        <time>2018-09-14T20:00:42Z</time>
      </trkpt>
      <trkpt lat="-24.7572000" lon="-53.7349570">
        <ele>549.0</ele>
        <time>2018-09-14T20:00:43Z</time>
      </trkpt>
      <trkpt lat="-24.7571320" lon="-53.7349650">
        <ele>548.7</ele>
        <time>2018-09-14T20:00:44Z</time>
      </trkpt>
      <trkpt lat="-24.7570660" lon="-53.7349770">
        <ele>548.5</ele>
        <time>2018-09-14T20:00:45Z</time>
      </trkpt>
      <trkpt lat="-24.7569970" lon="-53.7349890">
        <ele>548.2</ele>
        <time>2018-09-14T20:00:46Z</time>
      </trkpt>
      <trkpt lat="-24.7569270" lon="-53.7350000">
        <ele>547.9</ele>
        <time>2018-09-14T20:00:47Z</time>
      </trkpt>
      <trkpt lat="-24.7568560" lon="-53.7350080">
        <ele>547.6</ele>
        <time>2018-09-14T20:00:48Z</time>
      </trkpt>
      <trkpt lat="-24.7567840" lon="-53.7350160">
        <ele>547.3</ele>
        <time>2018-09-14T20:00:49Z</time>
      </trkpt>
      <trkpt lat="-24.7567110" lon="-53.7350240">
        <ele>547.1</ele>
        <time>2018-09-14T20:00:50Z</time>
      </trkpt>
      <trkpt lat="-24.7566370" lon="-53.7350330">
        <ele>546.9</ele>
        <time>2018-09-14T20:00:51Z</time>
      </trkpt>
      <trkpt lat="-24.7565630" lon="-53.7350420">
        <ele>546.6</ele>
        <time>2018-09-14T20:00:52Z</time>
      </trkpt>
      <trkpt lat="-24.7564890" lon="-53.7350490">
        <ele>546.3</ele>
        <time>2018-09-14T20:00:53Z</time>
      </trkpt>
      <trkpt lat="-24.7564130" lon="-53.7350560">
        <ele>546.0</ele>
        <time>2018-09-14T20:00:54Z</time>
      </trkpt>
      <trkpt lat="-24.7563360" lon="-53.7350650">
        <ele>545.5</ele>
        <time>2018-09-14T20:00:55Z</time>
      </trkpt>
      <trkpt lat="-24.7562650" lon="-53.7350730">
        <ele>545.1</ele>
        <time>2018-09-14T20:00:56Z</time>
      </trkpt>
      <trkpt lat="-24.7561980" lon="-53.7350800">
        <ele>544.7</ele>
        <time>2018-09-14T20:00:57Z</time>
      </trkpt>
      <trkpt lat="-24.7561370" lon="-53.7350880">
        <ele>544.2</ele>
        <time>2018-09-14T20:00:58Z</time>
      </trkpt>
      <trkpt lat="-24.7560810" lon="-53.7350930">
        <ele>543.7</ele>
        <time>2018-09-14T20:00:59Z</time>
      </trkpt>
      <trkpt lat="-24.7560310" lon="-53.7350990">
        <ele>543.2</ele>
        <time>2018-09-14T20:01:00Z</time>
      </trkpt>
      <trkpt lat="-24.7559840" lon="-53.7351040">
        <ele>542.8</ele>
        <time>2018-09-14T20:01:01Z</time>
      </trkpt>
      <trkpt lat="-24.7559440" lon="-53.7351100">
        <ele>542.5</ele>
        <time>2018-09-14T20:01:02Z</time>
      </trkpt>
      <trkpt lat="-24.7559090" lon="-53.7351150">
        <ele>542.2</ele>
        <time>2018-09-14T20:01:03Z</time>
      </trkpt>
      <trkpt lat="-24.7558790" lon="-53.7351180">
        <ele>541.9</ele>
        <time>2018-09-14T20:01:04Z</time>
      </trkpt>
      <trkpt lat="-24.7558530" lon="-53.7351210">
        <ele>541.7</ele>
        <time>2018-09-14T20:01:05Z</time>
      </trkpt>
      <trkpt lat="-24.7558320" lon="-53.7351210">
        <ele>541.5</ele>
        <time>2018-09-14T20:01:06Z</time>
      </trkpt>
      <trkpt lat="-24.7558120" lon="-53.7351220">
        <ele>541.3</ele>
        <time>2018-09-14T20:01:07Z</time>
      </trkpt>
      <trkpt lat="-24.7557980" lon="-53.7351230">
        <ele>541.1</ele>
        <time>2018-09-14T20:01:08Z</time>
      </trkpt>
      <trkpt lat="-24.7557920" lon="-53.7351270">
        <ele>541.1</ele>
        <time>2018-09-14T20:01:09Z</time>
      </trkpt>
      <trkpt lat="-24.7557870" lon="-53.7351310">
        <ele>541.0</ele>
        <time>2018-09-14T20:01:10Z</time>
      </trkpt>
      <trkpt lat="-24.7557730" lon="-53.7351310">
        <ele>540.9</ele>
        <time>2018-09-14T20:02:33Z</time>
      </trkpt>
      <trkpt lat="-24.7557660" lon="-53.7351260">
        <ele>540.8</ele>
        <time>2018-09-14T20:02:34Z</time>
      </trkpt>
      <trkpt lat="-24.7557620" lon="-53.7351210">
        <ele>540.7</ele>
        <time>2018-09-14T20:02:35Z</time>
      </trkpt>
      <trkpt lat="-24.7557600" lon="-53.7351190">
        <ele>540.7</ele>
        <time>2018-09-14T20:02:36Z</time>
      </trkpt>
      <trkpt lat="-24.7557590" lon="-53.7351140">
        <ele>540.7</ele>
        <time>2018-09-14T20:02:37Z</time>
      </trkpt>
      <trkpt lat="-24.7557590" lon="-53.7351120">
        <ele>539.0</ele>
        <time>2018-09-14T20:02:38Z</time>
      </trkpt>
      <trkpt lat="-24.7557590" lon="-53.7351130">
        <ele>540.7</ele>
        <time>2018-09-14T20:02:39Z</time>
      </trkpt>
      <trkpt lat="-24.7557630" lon="-53.7351060">
        <ele>540.7</ele>
        <time>2018-09-14T20:02:40Z</time>
      </trkpt>
      <trkpt lat="-24.7557690" lon="-53.7350960">
        <ele>540.8</ele>
        <time>2018-09-14T20:02:41Z</time>
      </trkpt>
      <trkpt lat="-24.7557780" lon="-53.7350830">
        <ele>540.8</ele>
        <time>2018-09-14T20:02:42Z</time>
      </trkpt>
      <trkpt lat="-24.7557870" lon="-53.7350710">
        <ele>540.9</ele>
        <time>2018-09-14T20:02:43Z</time>
      </trkpt>
      <trkpt lat="-24.7557960" lon="-53.7350520">
        <ele>541.0</ele>
        <time>2018-09-14T20:02:44Z</time>
      </trkpt>
      <trkpt lat="-24.7558020" lon="-53.7350280">
        <ele>541.1</ele>
        <time>2018-09-14T20:02:45Z</time>
      </trkpt>
      <trkpt lat="-24.7558030" lon="-53.7350030">
        <ele>541.2</ele>
        <time>2018-09-14T20:02:46Z</time>
      </trkpt>
      <trkpt lat="-24.7557980" lon="-53.7349820">
        <ele>541.2</ele>
        <time>2018-09-14T20:02:47Z</time>
      </trkpt>
      <trkpt lat="-24.7557870" lon="-53.7349560">
        <ele>541.1</ele>
        <time>2018-09-14T20:02:48Z</time>
      </trkpt>
      <trkpt lat="-24.7557750" lon="-53.7349270">
        <ele>541.0</ele>
        <time>2018-09-14T20:02:49Z</time>
      </trkpt>
      <trkpt lat="-24.7557720" lon="-53.7349110">
        <ele>541.0</ele>
        <time>2018-09-14T20:02:50Z</time>
      </trkpt>
      <trkpt lat="-24.7557750" lon="-53.7348880">
        <ele>541.0</ele>
        <time>2018-09-14T20:02:51Z</time>
      </trkpt>
      <trkpt lat="-24.7557680" lon="-53.7348730">
        <ele>541.0</ele>
        <time>2018-09-14T20:02:52Z</time>
      </trkpt>
      <trkpt lat="-24.7557640" lon="-53.7348610">
        <ele>541.0</ele>
        <time>2018-09-14T20:02:53Z</time>
      </trkpt>
      <trkpt lat="-24.7557620" lon="-53.7348550">
        <ele>541.0</ele>
        <time>2018-09-14T20:02:54Z</time>
      </trkpt>
      <trkpt lat="-24.7557630" lon="-53.7348450">
        <ele>541.0</ele>
        <time>2018-09-14T20:02:55Z</time>
      </trkpt>
      <trkpt lat="-24.7557630" lon="-53.7348410">
        <ele>541.0</ele>
        <time>2018-09-14T20:02:56Z</time>
      </trkpt>
      <trkpt lat="-24.7557640" lon="-53.7348410">
        <ele>541.0</ele>
        <time>2018-09-14T20:02:57Z</time>
      </trkpt>
      <trkpt lat="-24.7557850" lon="-53.7348390">
        <ele>541.0</ele>
        <time>2018-09-14T20:03:09Z</time>
      </trkpt>
      <trkpt lat="-24.7557810" lon="-53.7348420">
        <ele>541.0</ele>
        <time>2018-09-14T20:03:11Z</time>
      </trkpt>
      <trkpt lat="-24.7557800" lon="-53.7348440">
        <ele>541.0</ele>
        <time>2018-09-14T20:03:12Z</time>
      </trkpt>
      <trkpt lat="-24.7557780" lon="-53.7348450">
        <ele>541.0</ele>
        <time>2018-09-14T20:03:13Z</time>
      </trkpt>
      <trkpt lat="-24.7557760" lon="-53.7348510">
        <ele>540.9</ele>
        <time>2018-09-14T20:03:14Z</time>
      </trkpt>
      <trkpt lat="-24.7557750" lon="-53.7348610">
        <ele>540.9</ele>
        <time>2018-09-14T20:03:15Z</time>
      </trkpt>
      <trkpt lat="-24.7557710" lon="-53.7348730">
        <ele>540.9</ele>
        <time>2018-09-14T20:03:16Z</time>
      </trkpt>
      <trkpt lat="-24.7557700" lon="-53.7348740">
        <ele>540.9</ele>
        <time>2018-09-14T20:03:17Z</time>
      </trkpt>
      <trkpt lat="-24.7557680" lon="-53.7348750">
        <ele>540.9</ele>
        <time>2018-09-14T20:03:18Z</time>
      </trkpt>
      <trkpt lat="-24.7557670" lon="-53.7348770">
        <ele>540.9</ele>
        <time>2018-09-14T20:03:19Z</time>
      </trkpt>
      <trkpt lat="-24.7557660" lon="-53.7348860">
        <ele>540.9</ele>
        <time>2018-09-14T20:03:20Z</time>
      </trkpt>
      <trkpt lat="-24.7557680" lon="-53.7348870">
        <ele>540.9</ele>
        <time>2018-09-14T20:03:21Z</time>
      </trkpt>
      <trkpt lat="-24.7557710" lon="-53.7349010">
        <ele>540.9</ele>
        <time>2018-09-14T20:03:22Z</time>
      </trkpt>
      <trkpt lat="-24.7557840" lon="-53.7349270">
        <ele>540.9</ele>
        <time>2018-09-14T20:03:23Z</time>
      </trkpt>
      <trkpt lat="-24.7558130" lon="-53.7349890">
        <ele>541.1</ele>
        <time>2018-09-14T20:03:25Z</time>
      </trkpt>
      <trkpt lat="-24.7558180" lon="-53.7350160">
        <ele>541.1</ele>
        <time>2018-09-14T20:03:26Z</time>
      </trkpt>
      <trkpt lat="-24.7558220" lon="-53.7350390">
        <ele>541.0</ele>
        <time>2018-09-14T20:03:27Z</time>
      </trkpt>
      <trkpt lat="-24.7558200" lon="-53.7350620">
        <ele>540.9</ele>
        <time>2018-09-14T20:03:28Z</time>
      </trkpt>
      <trkpt lat="-24.7558150" lon="-53.7350790">
        <ele>540.8</ele>
        <time>2018-09-14T20:03:29Z</time>
      </trkpt>
      <trkpt lat="-24.7558030" lon="-53.7350940">
        <ele>540.7</ele>
        <time>2018-09-14T20:03:30Z</time>
      </trkpt>
      <trkpt lat="-24.7557860" lon="-53.7351050">
        <ele>540.6</ele>
        <time>2018-09-14T20:03:31Z</time>
      </trkpt>
      <trkpt lat="-24.7557700" lon="-53.7351210">
        <ele>540.5</ele>
        <time>2018-09-14T20:03:32Z</time>
      </trkpt>
      <trkpt lat="-24.7557670" lon="-53.7351470">
        <ele>540.4</ele>
        <time>2018-09-14T20:03:33Z</time>
      </trkpt>
      <trkpt lat="-24.7557700" lon="-53.7351750">
        <ele>540.2</ele>
        <time>2018-09-14T20:03:34Z</time>
      </trkpt>
      <trkpt lat="-24.7557650" lon="-53.7352070">
        <ele>540.0</ele>
        <time>2018-09-14T20:03:35Z</time>
      </trkpt>
      <trkpt lat="-24.7557480" lon="-53.7352370">
        <ele>539.9</ele>
        <time>2018-09-14T20:03:36Z</time>
      </trkpt>
      <trkpt lat="-24.7557230" lon="-53.7352690">
        <ele>539.6</ele>
        <time>2018-09-14T20:03:37Z</time>
      </trkpt>
      <trkpt lat="-24.7556980" lon="-53.7353040">
        <ele>539.4</ele>
        <time>2018-09-14T20:03:38Z</time>
      </trkpt>
      <trkpt lat="-24.7556730" lon="-53.7353380">
        <ele>539.0</ele>
        <time>2018-09-14T20:03:39Z</time>
      </trkpt>
      <trkpt lat="-24.7556510" lon="-53.7353750">
        <ele>539.0</ele>
        <time>2018-09-14T20:03:40Z</time>
      </trkpt>
      <trkpt lat="-24.7556340" lon="-53.7354150">
        <ele>539.0</ele>
        <time>2018-09-14T20:03:41Z</time>
      </trkpt>
      <trkpt lat="-24.7556260" lon="-53.7354550">
        <ele>539.0</ele>
        <time>2018-09-14T20:03:42Z</time>
      </trkpt>
      <trkpt lat="-24.7556210" lon="-53.7354850">
        <ele>539.0</ele>
        <time>2018-09-14T20:03:43Z</time>
      </trkpt>
      <trkpt lat="-24.7556170" lon="-53.7355030">
        <ele>539.0</ele>
        <time>2018-09-14T20:03:44Z</time>
      </trkpt>
      <trkpt lat="-24.7556130" lon="-53.7355200">
        <ele>539.0</ele>
        <time>2018-09-14T20:03:45Z</time>
      </trkpt>
      <trkpt lat="-24.7556030" lon="-53.7355440">
        <ele>539.0</ele>
        <time>2018-09-14T20:03:46Z</time>
      </trkpt>
      <trkpt lat="-24.7555890" lon="-53.7355720">
        <ele>539.0</ele>
        <time>2018-09-14T20:03:47Z</time>
      </trkpt>
      <trkpt lat="-24.7555700" lon="-53.7355990">
        <ele>539.0</ele>
        <time>2018-09-14T20:03:48Z</time>
      </trkpt>
      <trkpt lat="-24.7555490" lon="-53.7356230">
        <ele>539.0</ele>
        <time>2018-09-14T20:03:49Z</time>
      </trkpt>
      <trkpt lat="-24.7555300" lon="-53.7356490">
        <ele>539.0</ele>
        <time>2018-09-14T20:03:50Z</time>
      </trkpt>
      <trkpt lat="-24.7555080" lon="-53.7356670">
        <ele>539.0</ele>
        <time>2018-09-14T20:03:51Z</time>
      </trkpt>
      <trkpt lat="-24.7554900" lon="-53.7356490">
        <ele>539.0</ele>
        <time>2018-09-14T20:03:52Z</time>
      </trkpt>
      <trkpt lat="-24.7554700" lon="-53.7356340">
        <ele>539.0</ele>
        <time>2018-09-14T20:03:53Z</time>
      </trkpt>
      <trkpt lat="-24.7554510" lon="-53.7356200">
        <ele>539.0</ele>
        <time>2018-09-14T20:03:54Z</time>
      </trkpt>
      <trkpt lat="-24.7554380" lon="-53.7356120">
        <ele>539.0</ele>
        <time>2018-09-14T20:03:55Z</time>
      </trkpt>
      <trkpt lat="-24.7554270" lon="-53.7356170">
        <ele>539.0</ele>
        <time>2018-09-14T20:03:56Z</time>
      </trkpt>
      <trkpt lat="-24.7554190" lon="-53.7356170">
        <ele>539.0</ele>
        <time>2018-09-14T20:03:57Z</time>
      </trkpt>
      <trkpt lat="-24.7554150" lon="-53.7356320">
        <ele>539.0</ele>
        <time>2018-09-14T20:03:58Z</time>
      </trkpt>
      <trkpt lat="-24.7554150" lon="-53.7356460">
        <ele>539.0</ele>
        <time>2018-09-14T20:03:59Z</time>
      </trkpt>
      <trkpt lat="-24.7554160" lon="-53.7356590">
        <ele>539.0</ele>
        <time>2018-09-14T20:04:00Z</time>
      </trkpt>
      <trkpt lat="-24.7554160" lon="-53.7356640">
        <ele>539.0</ele>
        <time>2018-09-14T20:04:01Z</time>
      </trkpt>
      <trkpt lat="-24.7554140" lon="-53.7356640">
        <ele>539.0</ele>
        <time>2018-09-14T20:04:02Z</time>
      </trkpt>
      <trkpt lat="-24.7554070" lon="-53.7357060">
        <ele>539.0</ele>
        <time>2018-09-14T20:04:26Z</time>
      </trkpt>
      <trkpt lat="-24.7554070" lon="-53.7357040">
        <ele>539.0</ele>
        <time>2018-09-14T20:04:27Z</time>
      </trkpt>
      <trkpt lat="-24.7554070" lon="-53.7357060">
        <ele>539.0</ele>
        <time>2018-09-14T20:04:28Z</time>
      </trkpt>
      <trkpt lat="-24.7554070" lon="-53.7357490">
        <ele>539.0</ele>
        <time>2018-09-14T20:06:13Z</time>
      </trkpt>
      <trkpt lat="-24.7554030" lon="-53.7357520">
        <ele>539.0</ele>
        <time>2018-09-14T20:06:14Z</time>
      </trkpt>
      <trkpt lat="-24.7554040" lon="-53.7357500">
        <ele>539.0</ele>
        <time>2018-09-14T20:06:15Z</time>
      </trkpt>
      <trkpt lat="-24.7554070" lon="-53.7357500">
        <ele>539.0</ele>
        <time>2018-09-14T20:06:16Z</time>
      </trkpt>
      <trkpt lat="-24.7554140" lon="-53.7357480">
        <ele>539.0</ele>
        <time>2018-09-14T20:06:21Z</time>
      </trkpt>
      <trkpt lat="-24.7554140" lon="-53.7357480">
        <ele>539.0</ele>
        <time>2018-09-14T20:06:22Z</time>
      </trkpt>
      <trkpt lat="-24.7554150" lon="-53.7357470">
        <ele>539.0</ele>
        <time>2018-09-14T20:06:23Z</time>
      </trkpt>
      <trkpt lat="-24.7554330" lon="-53.7356880">
        <ele>539.0</ele>
        <time>2018-09-14T20:14:56Z</time>
      </trkpt>
      <trkpt lat="-24.7554330" lon="-53.7356910">
        <ele>539.0</ele>
        <time>2018-09-14T20:14:57Z</time>
      </trkpt>
      <trkpt lat="-24.7554350" lon="-53.7356940">
        <ele>539.0</ele>
        <time>2018-09-14T20:14:58Z</time>
      </trkpt>
      <trkpt lat="-24.7554390" lon="-53.7357080">
        <ele>539.0</ele>
        <time>2018-09-14T20:15:03Z</time>
      </trkpt>
      <trkpt lat="-24.7554370" lon="-53.7357090">
        <ele>539.0</ele>
        <time>2018-09-14T20:15:05Z</time>
      </trkpt>
      <trkpt lat="-24.7554380" lon="-53.7357100">
        <ele>539.0</ele>
        <time>2018-09-14T20:15:06Z</time>
      </trkpt>
      <trkpt lat="-24.7554360" lon="-53.7357160">
        <ele>539.0</ele>
        <time>2018-09-14T20:15:08Z</time>
      </trkpt>
      <trkpt lat="-24.7554370" lon="-53.7357280">
        <ele>539.0</ele>
        <time>2018-09-14T20:15:09Z</time>
      </trkpt>
      <trkpt lat="-24.7554390" lon="-53.7357500">
        <ele>539.0</ele>
        <time>2018-09-14T20:15:10Z</time>
      </trkpt>
      <trkpt lat="-24.7554360" lon="-53.7357770">
        <ele>539.0</ele>
        <time>2018-09-14T20:15:11Z</time>
      </trkpt>
      <trkpt lat="-24.7554460" lon="-53.7358460">
        <ele>539.0</ele>
        <time>2018-09-14T20:15:12Z</time>
      </trkpt>
      <trkpt lat="-24.7554430" lon="-53.7358860">
        <ele>539.0</ele>
        <time>2018-09-14T20:15:13Z</time>
      </trkpt>
      <trkpt lat="-24.7554380" lon="-53.7359300">
        <ele>538.9</ele>
        <time>2018-09-14T20:15:14Z</time>
      </trkpt>
      <trkpt lat="-24.7554330" lon="-53.7359770">
        <ele>538.9</ele>
        <time>2018-09-14T20:15:15Z</time>
      </trkpt>
      <trkpt lat="-24.7554300" lon="-53.7360260">
        <ele>538.9</ele>
        <time>2018-09-14T20:15:16Z</time>
      </trkpt>
      <trkpt lat="-24.7554300" lon="-53.7360800">
        <ele>538.9</ele>
        <time>2018-09-14T20:15:17Z</time>
      </trkpt>
      <trkpt lat="-24.7554320" lon="-53.7361340">
        <ele>538.8</ele>
        <time>2018-09-14T20:15:18Z</time>
      </trkpt>
      <trkpt lat="-24.7554350" lon="-53.7361870">
        <ele>538.8</ele>
        <time>2018-09-14T20:15:19Z</time>
      </trkpt>
      <trkpt lat="-24.7554430" lon="-53.7362390">
        <ele>538.8</ele>
        <time>2018-09-14T20:15:20Z</time>
      </trkpt>
      <trkpt lat="-24.7554500" lon="-53.7362880">
        <ele>538.7</ele>
        <time>2018-09-14T20:15:21Z</time>
      </trkpt>
      <trkpt lat="-24.7554590" lon="-53.7363350">
        <ele>538.7</ele>
        <time>2018-09-14T20:15:22Z</time>
      </trkpt>
      <trkpt lat="-24.7554640" lon="-53.7363810">
        <ele>538.6</ele>
        <time>2018-09-14T20:15:23Z</time>
      </trkpt>
      <trkpt lat="-24.7554660" lon="-53.7364280">
        <ele>538.6</ele>
        <time>2018-09-14T20:15:24Z</time>
      </trkpt>
      <trkpt lat="-24.7554660" lon="-53.7364740">
        <ele>538.5</ele>
        <time>2018-09-14T20:15:25Z</time>
      </trkpt>
      <trkpt lat="-24.7554670" lon="-53.7365220">
        <ele>538.5</ele>
        <time>2018-09-14T20:15:26Z</time>
      </trkpt>
      <trkpt lat="-24.7554680" lon="-53.7365710">
        <ele>538.4</ele>
        <time>2018-09-14T20:15:27Z</time>
      </trkpt>
      <trkpt lat="-24.7554690" lon="-53.7366220">
        <ele>538.4</ele>
        <time>2018-09-14T20:15:28Z</time>
      </trkpt>
      <trkpt lat="-24.7554700" lon="-53.7366700">
        <ele>538.3</ele>
        <time>2018-09-14T20:15:29Z</time>
      </trkpt>
      <trkpt lat="-24.7554680" lon="-53.7367190">
        <ele>538.3</ele>
        <time>2018-09-14T20:15:30Z</time>
      </trkpt>
      <trkpt lat="-24.7554600" lon="-53.7368010">
        <ele>538.2</ele>
        <time>2018-09-14T20:15:32Z</time>
      </trkpt>
      <trkpt lat="-24.7554570" lon="-53.7368400">
        <ele>538.1</ele>
        <time>2018-09-14T20:15:33Z</time>
      </trkpt>
      <trkpt lat="-24.7554560" lon="-53.7368820">
        <ele>538.1</ele>
        <time>2018-09-14T20:15:34Z</time>
      </trkpt>
      <trkpt lat="-24.7554570" lon="-53.7369270">
        <ele>538.0</ele>
        <time>2018-09-14T20:15:35Z</time>
      </trkpt>
      <trkpt lat="-24.7554570" lon="-53.7369730">
        <ele>537.9</ele>
        <time>2018-09-14T20:15:36Z</time>
      </trkpt>
      <trkpt lat="-24.7554550" lon="-53.7370230">
        <ele>537.9</ele>
        <time>2018-09-14T20:15:37Z</time>
      </trkpt>
      <trkpt lat="-24.7554540" lon="-53.7370750">
        <ele>537.8</ele>
        <time>2018-09-14T20:15:38Z</time>
      </trkpt>
      <trkpt lat="-24.7554550" lon="-53.7371280">
        <ele>537.7</ele>
        <time>2018-09-14T20:15:39Z</time>
      </trkpt>
      <trkpt lat="-24.7554560" lon="-53.7371830">
        <ele>537.7</ele>
        <time>2018-09-14T20:15:40Z</time>
      </trkpt>
      <trkpt lat="-24.7554560" lon="-53.7372380">
        <ele>537.6</ele>
        <time>2018-09-14T20:15:41Z</time>
      </trkpt>
      <trkpt lat="-24.7554550" lon="-53.7372930">
        <ele>537.5</ele>
        <time>2018-09-14T20:15:42Z</time>
      </trkpt>
      <trkpt lat="-24.7554540" lon="-53.7373500">
        <ele>537.4</ele>
        <time>2018-09-14T20:15:43Z</time>
      </trkpt>
      <trkpt lat="-24.7554550" lon="-53.7374080">
        <ele>537.3</ele>
        <time>2018-09-14T20:15:44Z</time>
      </trkpt>
      <trkpt lat="-24.7554550" lon="-53.7374660">
        <ele>537.3</ele>
        <time>2018-09-14T20:15:45Z</time>
      </trkpt>
      <trkpt lat="-24.7554540" lon="-53.7375260">
        <ele>537.2</ele>
        <time>2018-09-14T20:15:46Z</time>
      </trkpt>
      <trkpt lat="-24.7554530" lon="-53.7375870">
        <ele>537.2</ele>
        <time>2018-09-14T20:15:47Z</time>
      </trkpt>
      <trkpt lat="-24.7554520" lon="-53.7376480">
        <ele>537.1</ele>
        <time>2018-09-14T20:15:48Z</time>
      </trkpt>
      <trkpt lat="-24.7554520" lon="-53.7377070">
        <ele>537.0</ele>
        <time>2018-09-14T20:15:49Z</time>
      </trkpt>
      <trkpt lat="-24.7554520" lon="-53.7377660">
        <ele>537.0</ele>
        <time>2018-09-14T20:15:50Z</time>
      </trkpt>
      <trkpt lat="-24.7554540" lon="-53.7378250">
        <ele>537.0</ele>
        <time>2018-09-14T20:15:51Z</time>
      </trkpt>
      <trkpt lat="-24.7554570" lon="-53.7378850">
        <ele>537.0</ele>
        <time>2018-09-14T20:15:52Z</time>
      </trkpt>
      <trkpt lat="-24.7554580" lon="-53.7379450">
        <ele>537.0</ele>
        <time>2018-09-14T20:15:53Z</time>
      </trkpt>
      <trkpt lat="-24.7554560" lon="-53.7380060">
        <ele>536.8</ele>
        <time>2018-09-14T20:15:54Z</time>
      </trkpt>
      <trkpt lat="-24.7554520" lon="-53.7380660">
        <ele>536.7</ele>
        <time>2018-09-14T20:15:55Z</time>
      </trkpt>
      <trkpt lat="-24.7554460" lon="-53.7381270">
        <ele>536.7</ele>
        <time>2018-09-14T20:15:56Z</time>
      </trkpt>
      <trkpt lat="-24.7554400" lon="-53.7381880">
        <ele>536.8</ele>
        <time>2018-09-14T20:15:57Z</time>
      </trkpt>
      <trkpt lat="-24.7554340" lon="-53.7382480">
        <ele>536.8</ele>
        <time>2018-09-14T20:15:58Z</time>
      </trkpt>
      <trkpt lat="-24.7554280" lon="-53.7383100">
        <ele>537.0</ele>
        <time>2018-09-14T20:15:59Z</time>
      </trkpt>
      <trkpt lat="-24.7554220" lon="-53.7383710">
        <ele>535.6</ele>
        <time>2018-09-14T20:16:00Z</time>
      </trkpt>
      <trkpt lat="-24.7554160" lon="-53.7384280">
        <ele>534.2</ele>
        <time>2018-09-14T20:16:01Z</time>
      </trkpt>
      <trkpt lat="-24.7554090" lon="-53.7384840">
        <ele>533.7</ele>
        <time>2018-09-14T20:16:02Z</time>
      </trkpt>
      <trkpt lat="-24.7553940" lon="-53.7385390">
        <ele>533.4</ele>
        <time>2018-09-14T20:16:03Z</time>
      </trkpt>
      <trkpt lat="-24.7553740" lon="-53.7385950">
        <ele>533.1</ele>
        <time>2018-09-14T20:16:04Z</time>
      </trkpt>
      <trkpt lat="-24.7553520" lon="-53.7386550">
        <ele>532.7</ele>
        <time>2018-09-14T20:16:05Z</time>
      </trkpt>
      <trkpt lat="-24.7553310" lon="-53.7387170">
        <ele>532.4</ele>
        <time>2018-09-14T20:16:06Z</time>
      </trkpt>
      <trkpt lat="-24.7553100" lon="-53.7387800">
        <ele>532.0</ele>
        <time>2018-09-14T20:16:07Z</time>
      </trkpt>
      <trkpt lat="-24.7552890" lon="-53.7388460">
        <ele>531.5</ele>
        <time>2018-09-14T20:16:08Z</time>
      </trkpt>
      <trkpt lat="-24.7552680" lon="-53.7389140">
        <ele>531.0</ele>
        <time>2018-09-14T20:16:09Z</time>
      </trkpt>
      <trkpt lat="-24.7552500" lon="-53.7389860">
        <ele>530.5</ele>
        <time>2018-09-14T20:16:10Z</time>
      </trkpt>
      <trkpt lat="-24.7552350" lon="-53.7390610">
        <ele>529.9</ele>
        <time>2018-09-14T20:16:11Z</time>
      </trkpt>
      <trkpt lat="-24.7552230" lon="-53.7391380">
        <ele>529.4</ele>
        <time>2018-09-14T20:16:12Z</time>
      </trkpt>
      <trkpt lat="-24.7552120" lon="-53.7392170">
        <ele>528.8</ele>
        <time>2018-09-14T20:16:13Z</time>
      </trkpt>
      <trkpt lat="-24.7551960" lon="-53.7392960">
        <ele>528.2</ele>
        <time>2018-09-14T20:16:14Z</time>
      </trkpt>
      <trkpt lat="-24.7551770" lon="-53.7393760">
        <ele>527.5</ele>
        <time>2018-09-14T20:16:15Z</time>
      </trkpt>
      <trkpt lat="-24.7551590" lon="-53.7394580">
        <ele>526.8</ele>
        <time>2018-09-14T20:16:16Z</time>
      </trkpt>
      <trkpt lat="-24.7551440" lon="-53.7395390">
        <ele>526.1</ele>
        <time>2018-09-14T20:16:17Z</time>
      </trkpt>
      <trkpt lat="-24.7551290" lon="-53.7396170">
        <ele>525.3</ele>
        <time>2018-09-14T20:16:18Z</time>
      </trkpt>
      <trkpt lat="-24.7551140" lon="-53.7396940">
        <ele>524.5</ele>
        <time>2018-09-14T20:16:19Z</time>
      </trkpt>
      <trkpt lat="-24.7550990" lon="-53.7397760">
        <ele>523.6</ele>
        <time>2018-09-14T20:16:20Z</time>
      </trkpt>
      <trkpt lat="-24.7550850" lon="-53.7398620">
        <ele>522.6</ele>
        <time>2018-09-14T20:16:21Z</time>
      </trkpt>
      <trkpt lat="-24.7550720" lon="-53.7399510">
        <ele>521.6</ele>
        <time>2018-09-14T20:16:22Z</time>
      </trkpt>
      <trkpt lat="-24.7550590" lon="-53.7400440">
        <ele>520.5</ele>
        <time>2018-09-14T20:16:23Z</time>
      </trkpt>
      <trkpt lat="-24.7550450" lon="-53.7401380">
        <ele>519.5</ele>
        <time>2018-09-14T20:16:24Z</time>
      </trkpt>
      <trkpt lat="-24.7550280" lon="-53.7402340">
        <ele>518.5</ele>
        <time>2018-09-14T20:16:25Z</time>
      </trkpt>
      <trkpt lat="-24.7550100" lon="-53.7403310">
        <ele>517.5</ele>
        <time>2018-09-14T20:16:26Z</time>
      </trkpt>
      <trkpt lat="-24.7549930" lon="-53.7404310">
        <ele>516.6</ele>
        <time>2018-09-14T20:16:27Z</time>
      </trkpt>
      <trkpt lat="-24.7549760" lon="-53.7405290">
        <ele>515.7</ele>
        <time>2018-09-14T20:16:28Z</time>
      </trkpt>
      <trkpt lat="-24.7549570" lon="-53.7406300">
        <ele>514.9</ele>
        <time>2018-09-14T20:16:29Z</time>
      </trkpt>
      <trkpt lat="-24.7549390" lon="-53.7407340">
        <ele>514.0</ele>
        <time>2018-09-14T20:16:30Z</time>
      </trkpt>
      <trkpt lat="-24.7549200" lon="-53.7408390">
        <ele>513.2</ele>
        <time>2018-09-14T20:16:31Z</time>
      </trkpt>
      <trkpt lat="-24.7548990" lon="-53.7409470">
        <ele>512.3</ele>
        <time>2018-09-14T20:16:32Z</time>
      </trkpt>
      <trkpt lat="-24.7548780" lon="-53.7410560">
        <ele>511.5</ele>
        <time>2018-09-14T20:16:33Z</time>
      </trkpt>
      <trkpt lat="-24.7548570" lon="-53.7411650">
        <ele>510.7</ele>
        <time>2018-09-14T20:16:34Z</time>
      </trkpt>
      <trkpt lat="-24.7548370" lon="-53.7412640">
        <ele>509.9</ele>
        <time>2018-09-14T20:16:35Z</time>
      </trkpt>
      <trkpt lat="-24.7548190" lon="-53.7413540">
        <ele>509.3</ele>
        <time>2018-09-14T20:16:36Z</time>
      </trkpt>
      <trkpt lat="-24.7548040" lon="-53.7414280">
        <ele>508.9</ele>
        <time>2018-09-14T20:16:37Z</time>
      </trkpt>
      <trkpt lat="-24.7547910" lon="-53.7414870">
        <ele>508.5</ele>
        <time>2018-09-14T20:16:38Z</time>
      </trkpt>
      <trkpt lat="-24.7547800" lon="-53.7415360">
        <ele>508.2</ele>
        <time>2018-09-14T20:16:39Z</time>
      </trkpt>
      <trkpt lat="-24.7547590" lon="-53.7415790">
        <ele>507.9</ele>
        <time>2018-09-14T20:16:40Z</time>
      </trkpt>
      <trkpt lat="-24.7547200" lon="-53.7416130">
        <ele>507.7</ele>
        <time>2018-09-14T20:16:41Z</time>
      </trkpt>
      <trkpt lat="-24.7546700" lon="-53.7416230">
        <ele>507.4</ele>
        <time>2018-09-14T20:16:42Z</time>
      </trkpt>
      <trkpt lat="-24.7546170" lon="-53.7416180">
        <ele>506.4</ele>
        <time>2018-09-14T20:16:43Z</time>
      </trkpt>
      <trkpt lat="-24.7545640" lon="-53.7416100">
        <ele>506.1</ele>
        <time>2018-09-14T20:16:44Z</time>
      </trkpt>
      <trkpt lat="-24.7545110" lon="-53.7416010">
        <ele>505.8</ele>
        <time>2018-09-14T20:16:45Z</time>
      </trkpt>
      <trkpt lat="-24.7544580" lon="-53.7415930">
        <ele>505.6</ele>
        <time>2018-09-14T20:16:46Z</time>
      </trkpt>
      <trkpt lat="-24.7544050" lon="-53.7415860">
        <ele>505.5</ele>
        <time>2018-09-14T20:16:47Z</time>
      </trkpt>
      <trkpt lat="-24.7543500" lon="-53.7415790">
        <ele>505.4</ele>
        <time>2018-09-14T20:16:48Z</time>
      </trkpt>
      <trkpt lat="-24.7542950" lon="-53.7415720">
        <ele>505.3</ele>
        <time>2018-09-14T20:16:49Z</time>
      </trkpt>
      <trkpt lat="-24.7542400" lon="-53.7415610">
        <ele>505.2</ele>
        <time>2018-09-14T20:16:50Z</time>
      </trkpt>
      <trkpt lat="-24.7541820" lon="-53.7415500">
        <ele>505.1</ele>
        <time>2018-09-14T20:16:51Z</time>
      </trkpt>
      <trkpt lat="-24.7541240" lon="-53.7415390">
        <ele>505.1</ele>
        <time>2018-09-14T20:16:52Z</time>
      </trkpt>
      <trkpt lat="-24.7540640" lon="-53.7415300">
        <ele>505.0</ele>
        <time>2018-09-14T20:16:53Z</time>
      </trkpt>
      <trkpt lat="-24.7540030" lon="-53.7415220">
        <ele>505.0</ele>
        <time>2018-09-14T20:16:54Z</time>
      </trkpt>
      <trkpt lat="-24.7539420" lon="-53.7415120">
        <ele>505.0</ele>
        <time>2018-09-14T20:16:55Z</time>
      </trkpt>
      <trkpt lat="-24.7538790" lon="-53.7415000">
        <ele>505.0</ele>
        <time>2018-09-14T20:16:56Z</time>
      </trkpt>
      <trkpt lat="-24.7538140" lon="-53.7414890">
        <ele>505.0</ele>
        <time>2018-09-14T20:16:57Z</time>
      </trkpt>
      <trkpt lat="-24.7537480" lon="-53.7414750">
        <ele>505.0</ele>
        <time>2018-09-14T20:16:58Z</time>
      </trkpt>
      <trkpt lat="-24.7536760" lon="-53.7414610">
        <ele>505.0</ele>
        <time>2018-09-14T20:16:59Z</time>
      </trkpt>
      <trkpt lat="-24.7535990" lon="-53.7414460">
        <ele>505.0</ele>
        <time>2018-09-14T20:17:00Z</time>
      </trkpt>
      <trkpt lat="-24.7535140" lon="-53.7414310">
        <ele>505.0</ele>
        <time>2018-09-14T20:17:01Z</time>
      </trkpt>
      <trkpt lat="-24.7534210" lon="-53.7414160">
        <ele>505.0</ele>
        <time>2018-09-14T20:17:02Z</time>
      </trkpt>
      <trkpt lat="-24.7533270" lon="-53.7414010">
        <ele>504.6</ele>
        <time>2018-09-14T20:17:03Z</time>
      </trkpt>
      <trkpt lat="-24.7532380" lon="-53.7413860">
        <ele>503.8</ele>
        <time>2018-09-14T20:17:04Z</time>
      </trkpt>
      <trkpt lat="-24.7531510" lon="-53.7413720">
        <ele>503.0</ele>
        <time>2018-09-14T20:17:05Z</time>
      </trkpt>
      <trkpt lat="-24.7530730" lon="-53.7413590">
        <ele>502.3</ele>
        <time>2018-09-14T20:17:06Z</time>
      </trkpt>
      <trkpt lat="-24.7530080" lon="-53.7413490">
        <ele>501.6</ele>
        <time>2018-09-14T20:17:07Z</time>
      </trkpt>
      <trkpt lat="-24.7529410" lon="-53.7413400">
        <ele>500.8</ele>
        <time>2018-09-14T20:17:08Z</time>
      </trkpt>
      <trkpt lat="-24.7528680" lon="-53.7413300">
        <ele>499.8</ele>
        <time>2018-09-14T20:17:09Z</time>
      </trkpt>
      <trkpt lat="-24.7527900" lon="-53.7413200">
        <ele>498.7</ele>
        <time>2018-09-14T20:17:10Z</time>
      </trkpt>
      <trkpt lat="-24.7527050" lon="-53.7413080">
        <ele>497.4</ele>
        <time>2018-09-14T20:17:11Z</time>
      </trkpt>
      <trkpt lat="-24.7526150" lon="-53.7412960">
        <ele>496.1</ele>
        <time>2018-09-14T20:17:12Z</time>
      </trkpt>
      <trkpt lat="-24.7525230" lon="-53.7412850">
        <ele>494.7</ele>
        <time>2018-09-14T20:17:13Z</time>
      </trkpt>
      <trkpt lat="-24.7525230" lon="-53.7412850">
        <ele>494.7</ele>
        <time>2018-09-14T20:17:14Z</time>
      </trkpt>
      <trkpt lat="-24.7524350" lon="-53.7412700">
        <ele>493.4</ele>
        <time>2018-09-14T20:17:15Z</time>
      </trkpt>
      <trkpt lat="-24.7523480" lon="-53.7412520">
        <ele>492.0</ele>
        <time>2018-09-14T20:17:16Z</time>
      </trkpt>
      <trkpt lat="-24.7522610" lon="-53.7412340">
        <ele>490.6</ele>
        <time>2018-09-14T20:17:17Z</time>
      </trkpt>
      <trkpt lat="-24.7521760" lon="-53.7412180">
        <ele>489.1</ele>
        <time>2018-09-14T20:17:18Z</time>
      </trkpt>
      <trkpt lat="-24.7520920" lon="-53.7412050">
        <ele>487.8</ele>
        <time>2018-09-14T20:17:19Z</time>
      </trkpt>
      <trkpt lat="-24.7520130" lon="-53.7411910">
        <ele>487.1</ele>
        <time>2018-09-14T20:17:20Z</time>
      </trkpt>
      <trkpt lat="-24.7519360" lon="-53.7411780">
        <ele>486.4</ele>
        <time>2018-09-14T20:17:21Z</time>
      </trkpt>
      <trkpt lat="-24.7518600" lon="-53.7411640">
        <ele>485.7</ele>
        <time>2018-09-14T20:17:22Z</time>
      </trkpt>
      <trkpt lat="-24.7517870" lon="-53.7411500">
        <ele>485.0</ele>
        <time>2018-09-14T20:17:23Z</time>
      </trkpt>
      <trkpt lat="-24.7517170" lon="-53.7411360">
        <ele>484.3</ele>
        <time>2018-09-14T20:17:24Z</time>
      </trkpt>
      <trkpt lat="-24.7516510" lon="-53.7411250">
        <ele>483.6</ele>
        <time>2018-09-14T20:17:25Z</time>
      </trkpt>
      <trkpt lat="-24.7515890" lon="-53.7411160">
        <ele>483.0</ele>
        <time>2018-09-14T20:17:26Z</time>
      </trkpt>
      <trkpt lat="-24.7515210" lon="-53.7411070">
        <ele>482.3</ele>
        <time>2018-09-14T20:17:27Z</time>
      </trkpt>
      <trkpt lat="-24.7514540" lon="-53.7410960">
        <ele>481.6</ele>
        <time>2018-09-14T20:17:28Z</time>
      </trkpt>
      <trkpt lat="-24.7513910" lon="-53.7410890">
        <ele>481.0</ele>
        <time>2018-09-14T20:17:29Z</time>
      </trkpt>
      <trkpt lat="-24.7513340" lon="-53.7410820">
        <ele>480.4</ele>
        <time>2018-09-14T20:17:30Z</time>
      </trkpt>
      <trkpt lat="-24.7512740" lon="-53.7410720">
        <ele>479.8</ele>
        <time>2018-09-14T20:17:31Z</time>
      </trkpt>
      <trkpt lat="-24.7512090" lon="-53.7410590">
        <ele>479.1</ele>
        <time>2018-09-14T20:17:32Z</time>
      </trkpt>
      <trkpt lat="-24.7511370" lon="-53.7410440">
        <ele>478.3</ele>
        <time>2018-09-14T20:17:33Z</time>
      </trkpt>
      <trkpt lat="-24.7510590" lon="-53.7410260">
        <ele>477.5</ele>
        <time>2018-09-14T20:17:34Z</time>
      </trkpt>
      <trkpt lat="-24.7509750" lon="-53.7410060">
        <ele>476.9</ele>
        <time>2018-09-14T20:17:35Z</time>
      </trkpt>
      <trkpt lat="-24.7508850" lon="-53.7409820">
        <ele>476.6</ele>
        <time>2018-09-14T20:17:36Z</time>
      </trkpt>
      <trkpt lat="-24.7507920" lon="-53.7409450">
        <ele>476.3</ele>
        <time>2018-09-14T20:17:37Z</time>
      </trkpt>
      <trkpt lat="-24.7506970" lon="-53.7408950">
        <ele>476.0</ele>
        <time>2018-09-14T20:17:38Z</time>
      </trkpt>
      <trkpt lat="-24.7506010" lon="-53.7408400">
        <ele>475.7</ele>
        <time>2018-09-14T20:17:39Z</time>
      </trkpt>
      <trkpt lat="-24.7505080" lon="-53.7407880">
        <ele>475.3</ele>
        <time>2018-09-14T20:17:40Z</time>
      </trkpt>
      <trkpt lat="-24.7504200" lon="-53.7407380">
        <ele>475.0</ele>
        <time>2018-09-14T20:17:41Z</time>
      </trkpt>
      <trkpt lat="-24.7503410" lon="-53.7406920">
        <ele>474.7</ele>
        <time>2018-09-14T20:17:42Z</time>
      </trkpt>
      <trkpt lat="-24.7502760" lon="-53.7406490">
        <ele>474.5</ele>
        <time>2018-09-14T20:17:43Z</time>
      </trkpt>
      <trkpt lat="-24.7502140" lon="-53.7406140">
        <ele>474.3</ele>
        <time>2018-09-14T20:17:44Z</time>
      </trkpt>
      <trkpt lat="-24.7501590" lon="-53.7405840">
        <ele>474.1</ele>
        <time>2018-09-14T20:17:45Z</time>
      </trkpt>
      <trkpt lat="-24.7501080" lon="-53.7405570">
        <ele>473.7</ele>
        <time>2018-09-14T20:17:46Z</time>
      </trkpt>
      <trkpt lat="-24.7500570" lon="-53.7405290">
        <ele>473.0</ele>
        <time>2018-09-14T20:17:47Z</time>
      </trkpt>
      <trkpt lat="-24.7500070" lon="-53.7405010">
        <ele>472.3</ele>
        <time>2018-09-14T20:17:48Z</time>
      </trkpt>
      <trkpt lat="-24.7499560" lon="-53.7404730">
        <ele>471.6</ele>
        <time>2018-09-14T20:17:49Z</time>
      </trkpt>
      <trkpt lat="-24.7499050" lon="-53.7404430">
        <ele>470.9</ele>
        <time>2018-09-14T20:17:50Z</time>
      </trkpt>
      <trkpt lat="-24.7498540" lon="-53.7404120">
        <ele>470.1</ele>
        <time>2018-09-14T20:17:51Z</time>
      </trkpt>
      <trkpt lat="-24.7498010" lon="-53.7403820">
        <ele>469.3</ele>
        <time>2018-09-14T20:17:52Z</time>
      </trkpt>
      <trkpt lat="-24.7497460" lon="-53.7403530">
        <ele>468.6</ele>
        <time>2018-09-14T20:17:53Z</time>
      </trkpt>
      <trkpt lat="-24.7496890" lon="-53.7403210">
        <ele>468.1</ele>
        <time>2018-09-14T20:17:54Z</time>
      </trkpt>
      <trkpt lat="-24.7496330" lon="-53.7402910">
        <ele>467.5</ele>
        <time>2018-09-14T20:17:55Z</time>
      </trkpt>
      <trkpt lat="-24.7495760" lon="-53.7402610">
        <ele>467.0</ele>
        <time>2018-09-14T20:17:56Z</time>
      </trkpt>
      <trkpt lat="-24.7495200" lon="-53.7402310">
        <ele>466.5</ele>
        <time>2018-09-14T20:17:57Z</time>
      </trkpt>
      <trkpt lat="-24.7494630" lon="-53.7402050">
        <ele>466.0</ele>
        <time>2018-09-14T20:17:58Z</time>
      </trkpt>
      <trkpt lat="-24.7494050" lon="-53.7401810">
        <ele>465.9</ele>
        <time>2018-09-14T20:17:59Z</time>
      </trkpt>
      <trkpt lat="-24.7493460" lon="-53.7401560">
        <ele>465.9</ele>
        <time>2018-09-14T20:18:00Z</time>
      </trkpt>
      <trkpt lat="-24.7492850" lon="-53.7401320">
        <ele>465.8</ele>
        <time>2018-09-14T20:18:01Z</time>
      </trkpt>
      <trkpt lat="-24.7492240" lon="-53.7401080">
        <ele>465.7</ele>
        <time>2018-09-14T20:18:02Z</time>
      </trkpt>
      <trkpt lat="-24.7491620" lon="-53.7400870">
        <ele>465.6</ele>
        <time>2018-09-14T20:18:03Z</time>
      </trkpt>
      <trkpt lat="-24.7490980" lon="-53.7400670">
        <ele>465.5</ele>
        <time>2018-09-14T20:18:04Z</time>
      </trkpt>
      <trkpt lat="-24.7490360" lon="-53.7400450">
        <ele>465.4</ele>
        <time>2018-09-14T20:18:05Z</time>
      </trkpt>
      <trkpt lat="-24.7489730" lon="-53.7400270">
        <ele>465.4</ele>
        <time>2018-09-14T20:18:06Z</time>
      </trkpt>
      <trkpt lat="-24.7489110" lon="-53.7400070">
        <ele>465.2</ele>
        <time>2018-09-14T20:18:07Z</time>
      </trkpt>
      <trkpt lat="-24.7488520" lon="-53.7399880">
        <ele>465.1</ele>
        <time>2018-09-14T20:18:08Z</time>
      </trkpt>
      <trkpt lat="-24.7487930" lon="-53.7399720">
        <ele>465.0</ele>
        <time>2018-09-14T20:18:09Z</time>
      </trkpt>
      <trkpt lat="-24.7487350" lon="-53.7399580">
        <ele>465.1</ele>
        <time>2018-09-14T20:18:10Z</time>
      </trkpt>
      <trkpt lat="-24.7486760" lon="-53.7399480">
        <ele>465.1</ele>
        <time>2018-09-14T20:18:11Z</time>
      </trkpt>
      <trkpt lat="-24.7486180" lon="-53.7399410">
        <ele>465.2</ele>
        <time>2018-09-14T20:18:12Z</time>
      </trkpt>
      <trkpt lat="-24.7485600" lon="-53.7399320">
        <ele>465.3</ele>
        <time>2018-09-14T20:18:13Z</time>
      </trkpt>
      <trkpt lat="-24.7485040" lon="-53.7399200">
        <ele>465.4</ele>
        <time>2018-09-14T20:18:14Z</time>
      </trkpt>
      <trkpt lat="-24.7484490" lon="-53.7399100">
        <ele>465.5</ele>
        <time>2018-09-14T20:18:15Z</time>
      </trkpt>
      <trkpt lat="-24.7483950" lon="-53.7399030">
        <ele>465.5</ele>
        <time>2018-09-14T20:18:16Z</time>
      </trkpt>
      <trkpt lat="-24.7483440" lon="-53.7398960">
        <ele>465.6</ele>
        <time>2018-09-14T20:18:17Z</time>
      </trkpt>
      <trkpt lat="-24.7482940" lon="-53.7398900">
        <ele>465.6</ele>
        <time>2018-09-14T20:18:18Z</time>
      </trkpt>
      <trkpt lat="-24.7482460" lon="-53.7398790">
        <ele>465.7</ele>
        <time>2018-09-14T20:18:19Z</time>
      </trkpt>
      <trkpt lat="-24.7482000" lon="-53.7398660">
        <ele>465.8</ele>
        <time>2018-09-14T20:18:20Z</time>
      </trkpt>
      <trkpt lat="-24.7481520" lon="-53.7398550">
        <ele>465.8</ele>
        <time>2018-09-14T20:18:21Z</time>
      </trkpt>
      <trkpt lat="-24.7481010" lon="-53.7398470">
        <ele>465.9</ele>
        <time>2018-09-14T20:18:22Z</time>
      </trkpt>
      <trkpt lat="-24.7480510" lon="-53.7398410">
        <ele>465.9</ele>
        <time>2018-09-14T20:18:23Z</time>
      </trkpt>
      <trkpt lat="-24.7480050" lon="-53.7398290">
        <ele>466.0</ele>
        <time>2018-09-14T20:18:24Z</time>
      </trkpt>
      <trkpt lat="-24.7479590" lon="-53.7398210">
        <ele>466.1</ele>
        <time>2018-09-14T20:18:25Z</time>
      </trkpt>
      <trkpt lat="-24.7479130" lon="-53.7398150">
        <ele>466.2</ele>
        <time>2018-09-14T20:18:26Z</time>
      </trkpt>
      <trkpt lat="-24.7478720" lon="-53.7398090">
        <ele>466.3</ele>
        <time>2018-09-14T20:18:27Z</time>
      </trkpt>
      <trkpt lat="-24.7478230" lon="-53.7398050">
        <ele>466.4</ele>
        <time>2018-09-14T20:18:28Z</time>
      </trkpt>
      <trkpt lat="-24.7477810" lon="-53.7397960">
        <ele>466.5</ele>
        <time>2018-09-14T20:18:29Z</time>
      </trkpt>
      <trkpt lat="-24.7477480" lon="-53.7397800">
        <ele>466.5</ele>
        <time>2018-09-14T20:18:30Z</time>
      </trkpt>
      <trkpt lat="-24.7477120" lon="-53.7397650">
        <ele>466.6</ele>
        <time>2018-09-14T20:18:31Z</time>
      </trkpt>
      <trkpt lat="-24.7476640" lon="-53.7397600">
        <ele>466.7</ele>
        <time>2018-09-14T20:18:32Z</time>
      </trkpt>
      <trkpt lat="-24.7476250" lon="-53.7397490">
        <ele>466.7</ele>
        <time>2018-09-14T20:18:33Z</time>
      </trkpt>
      <trkpt lat="-24.7475840" lon="-53.7397410">
        <ele>466.8</ele>
        <time>2018-09-14T20:18:34Z</time>
      </trkpt>
      <trkpt lat="-24.7475520" lon="-53.7397280">
        <ele>466.9</ele>
        <time>2018-09-14T20:18:35Z</time>
      </trkpt>
      <trkpt lat="-24.7475140" lon="-53.7397180">
        <ele>466.9</ele>
        <time>2018-09-14T20:18:36Z</time>
      </trkpt>
      <trkpt lat="-24.7474720" lon="-53.7397080">
        <ele>467.0</ele>
        <time>2018-09-14T20:18:37Z</time>
      </trkpt>
      <trkpt lat="-24.7474300" lon="-53.7397020">
        <ele>467.1</ele>
        <time>2018-09-14T20:18:38Z</time>
      </trkpt>
      <trkpt lat="-24.7473910" lon="-53.7396940">
        <ele>467.2</ele>
        <time>2018-09-14T20:18:39Z</time>
      </trkpt>
      <trkpt lat="-24.7473520" lon="-53.7396850">
        <ele>467.2</ele>
        <time>2018-09-14T20:18:40Z</time>
      </trkpt>
      <trkpt lat="-24.7473010" lon="-53.7396830">
        <ele>467.3</ele>
        <time>2018-09-14T20:18:41Z</time>
      </trkpt>
      <trkpt lat="-24.7472560" lon="-53.7396760">
        <ele>467.4</ele>
        <time>2018-09-14T20:18:42Z</time>
      </trkpt>
      <trkpt lat="-24.7472120" lon="-53.7396720">
        <ele>467.5</ele>
        <time>2018-09-14T20:18:43Z</time>
      </trkpt>
      <trkpt lat="-24.7471660" lon="-53.7396690">
        <ele>467.6</ele>
        <time>2018-09-14T20:18:44Z</time>
      </trkpt>
      <trkpt lat="-24.7471250" lon="-53.7396600">
        <ele>467.7</ele>
        <time>2018-09-14T20:18:45Z</time>
      </trkpt>
      <trkpt lat="-24.7470820" lon="-53.7396540">
        <ele>467.8</ele>
        <time>2018-09-14T20:18:46Z</time>
      </trkpt>
      <trkpt lat="-24.7470390" lon="-53.7396470">
        <ele>467.8</ele>
        <time>2018-09-14T20:18:47Z</time>
      </trkpt>
      <trkpt lat="-24.7469980" lon="-53.7396400">
        <ele>467.9</ele>
        <time>2018-09-14T20:18:48Z</time>
      </trkpt>
      <trkpt lat="-24.7469590" lon="-53.7396290">
        <ele>468.0</ele>
        <time>2018-09-14T20:18:49Z</time>
      </trkpt>
      <trkpt lat="-24.7469200" lon="-53.7396180">
        <ele>468.0</ele>
        <time>2018-09-14T20:18:50Z</time>
      </trkpt>
      <trkpt lat="-24.7468800" lon="-53.7396080">
        <ele>468.0</ele>
        <time>2018-09-14T20:18:51Z</time>
      </trkpt>
      <trkpt lat="-24.7468390" lon="-53.7395970">
        <ele>468.0</ele>
        <time>2018-09-14T20:18:52Z</time>
      </trkpt>
      <trkpt lat="-24.7468020" lon="-53.7395840">
        <ele>468.0</ele>
        <time>2018-09-14T20:18:53Z</time>
      </trkpt>
      <trkpt lat="-24.7467650" lon="-53.7395750">
        <ele>468.0</ele>
        <time>2018-09-14T20:18:54Z</time>
      </trkpt>
      <trkpt lat="-24.7467270" lon="-53.7395750">
        <ele>468.0</ele>
        <time>2018-09-14T20:18:55Z</time>
      </trkpt>
      <trkpt lat="-24.7466910" lon="-53.7395870">
        <ele>467.6</ele>
        <time>2018-09-14T20:18:56Z</time>
      </trkpt>
      <trkpt lat="-24.7466560" lon="-53.7396160">
        <ele>466.8</ele>
        <time>2018-09-14T20:18:57Z</time>
      </trkpt>
      <trkpt lat="-24.7466300" lon="-53.7396630">
        <ele>466.0</ele>
        <time>2018-09-14T20:18:58Z</time>
      </trkpt>
      <trkpt lat="-24.7466250" lon="-53.7397940">
        <ele>466.0</ele>
        <time>2018-09-14T20:18:59Z</time>
      </trkpt>
      <trkpt lat="-24.7466460" lon="-53.7398640">
        <ele>466.0</ele>
        <time>2018-09-14T20:19:01Z</time>
      </trkpt>
      <trkpt lat="-24.7466690" lon="-53.7399400">
        <ele>466.0</ele>
        <time>2018-09-14T20:19:02Z</time>
      </trkpt>
      <trkpt lat="-24.7466880" lon="-53.7400160">
        <ele>466.0</ele>
        <time>2018-09-14T20:19:03Z</time>
      </trkpt>
      <trkpt lat="-24.7467090" lon="-53.7400850">
        <ele>466.0</ele>
        <time>2018-09-14T20:19:04Z</time>
      </trkpt>
      <trkpt lat="-24.7467110" lon="-53.7401620">
        <ele>466.0</ele>
        <time>2018-09-14T20:19:05Z</time>
      </trkpt>
      <trkpt lat="-24.7467090" lon="-53.7402420">
        <ele>466.0</ele>
        <time>2018-09-14T20:19:06Z</time>
      </trkpt>
      <trkpt lat="-24.7467090" lon="-53.7403250">
        <ele>466.0</ele>
        <time>2018-09-14T20:19:07Z</time>
      </trkpt>
      <trkpt lat="-24.7467080" lon="-53.7404080">
        <ele>466.0</ele>
        <time>2018-09-14T20:19:08Z</time>
      </trkpt>
      <trkpt lat="-24.7467100" lon="-53.7404900">
        <ele>466.0</ele>
        <time>2018-09-14T20:19:09Z</time>
      </trkpt>
      <trkpt lat="-24.7467070" lon="-53.7406480">
        <ele>467.5</ele>
        <time>2018-09-14T20:19:10Z</time>
      </trkpt>
      <trkpt lat="-24.7467070" lon="-53.7407240">
        <ele>469.3</ele>
        <time>2018-09-14T20:19:11Z</time>
      </trkpt>
      <trkpt lat="-24.7467050" lon="-53.7407960">
        <ele>471.0</ele>
        <time>2018-09-14T20:19:12Z</time>
      </trkpt>
      <trkpt lat="-24.7467020" lon="-53.7408600">
        <ele>472.5</ele>
        <time>2018-09-14T20:19:13Z</time>
      </trkpt>
      <trkpt lat="-24.7467000" lon="-53.7409190">
        <ele>473.9</ele>
        <time>2018-09-14T20:19:14Z</time>
      </trkpt>
      <trkpt lat="-24.7467000" lon="-53.7409700">
        <ele>475.0</ele>
        <time>2018-09-14T20:19:15Z</time>
      </trkpt>
      <trkpt lat="-24.7466980" lon="-53.7410110">
        <ele>476.0</ele>
        <time>2018-09-14T20:19:16Z</time>
      </trkpt>
      <trkpt lat="-24.7466950" lon="-53.7410450">
        <ele>476.8</ele>
        <time>2018-09-14T20:19:17Z</time>
      </trkpt>
      <trkpt lat="-24.7466940" lon="-53.7410690">
        <ele>477.3</ele>
        <time>2018-09-14T20:19:18Z</time>
      </trkpt>
      <trkpt lat="-24.7466910" lon="-53.7410890">
        <ele>477.7</ele>
        <time>2018-09-14T20:19:19Z</time>
      </trkpt>
      <trkpt lat="-24.7466890" lon="-53.7411030">
        <ele>478.0</ele>
        <time>2018-09-14T20:19:20Z</time>
      </trkpt>
      <trkpt lat="-24.7466860" lon="-53.7411150">
        <ele>478.3</ele>
        <time>2018-09-14T20:19:21Z</time>
      </trkpt>
      <trkpt lat="-24.7466850" lon="-53.7411270">
        <ele>478.5</ele>
        <time>2018-09-14T20:19:22Z</time>
      </trkpt>
      <trkpt lat="-24.7466840" lon="-53.7411410">
        <ele>478.8</ele>
        <time>2018-09-14T20:19:23Z</time>
      </trkpt>
      <trkpt lat="-24.7466830" lon="-53.7411560">
        <ele>479.1</ele>
        <time>2018-09-14T20:19:24Z</time>
      </trkpt>
      <trkpt lat="-24.7466810" lon="-53.7411700">
        <ele>479.4</ele>
        <time>2018-09-14T20:19:25Z</time>
      </trkpt>
      <trkpt lat="-24.7466870" lon="-53.7412010">
        <ele>480.1</ele>
        <time>2018-09-14T20:19:27Z</time>
      </trkpt>
      <trkpt lat="-24.7466890" lon="-53.7412140">
        <ele>480.4</ele>
        <time>2018-09-14T20:19:28Z</time>
      </trkpt>
      <trkpt lat="-24.7466900" lon="-53.7412260">
        <ele>480.7</ele>
        <time>2018-09-14T20:19:29Z</time>
      </trkpt>
      <trkpt lat="-24.7466880" lon="-53.7412350">
        <ele>480.8</ele>
        <time>2018-09-14T20:19:30Z</time>
      </trkpt>
      <trkpt lat="-24.7466870" lon="-53.7412440">
        <ele>481.0</ele>
        <time>2018-09-14T20:19:31Z</time>
      </trkpt>
      <trkpt lat="-24.7466850" lon="-53.7412560">
        <ele>481.3</ele>
        <time>2018-09-14T20:19:32Z</time>
      </trkpt>
      <trkpt lat="-24.7466840" lon="-53.7412690">
        <ele>481.6</ele>
        <time>2018-09-14T20:19:33Z</time>
      </trkpt>
      <trkpt lat="-24.7466840" lon="-53.7412810">
        <ele>481.8</ele>
        <time>2018-09-14T20:19:34Z</time>
      </trkpt>
      <trkpt lat="-24.7466850" lon="-53.7412920">
        <ele>482.1</ele>
        <time>2018-09-14T20:19:35Z</time>
      </trkpt>
      <trkpt lat="-24.7466860" lon="-53.7413050">
        <ele>482.3</ele>
        <time>2018-09-14T20:19:36Z</time>
      </trkpt>
      <trkpt lat="-24.7466870" lon="-53.7413190">
        <ele>482.7</ele>
        <time>2018-09-14T20:19:37Z</time>
      </trkpt>
      <trkpt lat="-24.7466900" lon="-53.7413300">
        <ele>482.9</ele>
        <time>2018-09-14T20:19:38Z</time>
      </trkpt>
      <trkpt lat="-24.7466890" lon="-53.7413400">
        <ele>483.1</ele>
        <time>2018-09-14T20:19:39Z</time>
      </trkpt>
      <trkpt lat="-24.7466850" lon="-53.7413530">
        <ele>483.4</ele>
        <time>2018-09-14T20:19:40Z</time>
      </trkpt>
      <trkpt lat="-24.7466810" lon="-53.7413650">
        <ele>483.7</ele>
        <time>2018-09-14T20:19:41Z</time>
      </trkpt>
      <trkpt lat="-24.7466780" lon="-53.7413790">
        <ele>484.0</ele>
        <time>2018-09-14T20:19:42Z</time>
      </trkpt>
      <trkpt lat="-24.7466740" lon="-53.7413910">
        <ele>484.3</ele>
        <time>2018-09-14T20:19:43Z</time>
      </trkpt>
      <trkpt lat="-24.7466710" lon="-53.7414040">
        <ele>484.5</ele>
        <time>2018-09-14T20:19:44Z</time>
      </trkpt>
      <trkpt lat="-24.7466700" lon="-53.7414180">
        <ele>484.8</ele>
        <time>2018-09-14T20:19:45Z</time>
      </trkpt>
      <trkpt lat="-24.7466700" lon="-53.7414310">
        <ele>485.1</ele>
        <time>2018-09-14T20:19:46Z</time>
      </trkpt>
      <trkpt lat="-24.7466710" lon="-53.7414420">
        <ele>485.4</ele>
        <time>2018-09-14T20:19:47Z</time>
      </trkpt>
      <trkpt lat="-24.7466740" lon="-53.7414550">
        <ele>485.7</ele>
        <time>2018-09-14T20:19:48Z</time>
      </trkpt>
      <trkpt lat="-24.7466750" lon="-53.7414670">
        <ele>485.9</ele>
        <time>2018-09-14T20:19:49Z</time>
      </trkpt>
      <trkpt lat="-24.7466770" lon="-53.7414800">
        <ele>486.2</ele>
        <time>2018-09-14T20:19:50Z</time>
      </trkpt>
      <trkpt lat="-24.7466750" lon="-53.7414930">
        <ele>486.5</ele>
        <time>2018-09-14T20:19:51Z</time>
      </trkpt>
      <trkpt lat="-24.7466690" lon="-53.7415090">
        <ele>486.9</ele>
        <time>2018-09-14T20:19:52Z</time>
      </trkpt>
      <trkpt lat="-24.7466640" lon="-53.7415220">
        <ele>487.2</ele>
        <time>2018-09-14T20:19:53Z</time>
      </trkpt>
      <trkpt lat="-24.7466610" lon="-53.7415350">
        <ele>487.5</ele>
        <time>2018-09-14T20:19:54Z</time>
      </trkpt>
      <trkpt lat="-24.7466590" lon="-53.7415480">
        <ele>487.7</ele>
        <time>2018-09-14T20:19:55Z</time>
      </trkpt>
      <trkpt lat="-24.7466580" lon="-53.7415600">
        <ele>488.0</ele>
        <time>2018-09-14T20:19:56Z</time>
      </trkpt>
      <trkpt lat="-24.7466580" lon="-53.7415720">
        <ele>488.3</ele>
        <time>2018-09-14T20:19:57Z</time>
      </trkpt>
      <trkpt lat="-24.7466580" lon="-53.7415870">
        <ele>488.6</ele>
        <time>2018-09-14T20:19:58Z</time>
      </trkpt>
      <trkpt lat="-24.7466570" lon="-53.7415990">
        <ele>488.9</ele>
        <time>2018-09-14T20:19:59Z</time>
      </trkpt>
      <trkpt lat="-24.7466570" lon="-53.7416120">
        <ele>489.1</ele>
        <time>2018-09-14T20:20:00Z</time>
      </trkpt>
      <trkpt lat="-24.7466570" lon="-53.7416220">
        <ele>489.4</ele>
        <time>2018-09-14T20:20:01Z</time>
      </trkpt>
      <trkpt lat="-24.7466580" lon="-53.7416340">
        <ele>489.6</ele>
        <time>2018-09-14T20:20:02Z</time>
      </trkpt>
      <trkpt lat="-24.7466590" lon="-53.7416490">
        <ele>490.0</ele>
        <time>2018-09-14T20:20:03Z</time>
      </trkpt>
      <trkpt lat="-24.7466590" lon="-53.7416610">
        <ele>490.2</ele>
        <time>2018-09-14T20:20:04Z</time>
      </trkpt>
      <trkpt lat="-24.7466590" lon="-53.7416740">
        <ele>490.5</ele>
        <time>2018-09-14T20:20:05Z</time>
      </trkpt>
      <trkpt lat="-24.7466580" lon="-53.7416870">
        <ele>490.8</ele>
        <time>2018-09-14T20:20:06Z</time>
      </trkpt>
      <trkpt lat="-24.7466550" lon="-53.7416980">
        <ele>491.0</ele>
        <time>2018-09-14T20:20:07Z</time>
      </trkpt>
      <trkpt lat="-24.7466530" lon="-53.7417120">
        <ele>491.1</ele>
        <time>2018-09-14T20:20:08Z</time>
      </trkpt>
      <trkpt lat="-24.7466520" lon="-53.7417250">
        <ele>491.2</ele>
        <time>2018-09-14T20:20:09Z</time>
      </trkpt>
      <trkpt lat="-24.7466510" lon="-53.7417370">
        <ele>491.3</ele>
        <time>2018-09-14T20:20:10Z</time>
      </trkpt>
      <trkpt lat="-24.7466490" lon="-53.7417520">
        <ele>491.5</ele>
        <time>2018-09-14T20:20:11Z</time>
      </trkpt>
      <trkpt lat="-24.7466470" lon="-53.7417640">
        <ele>491.6</ele>
        <time>2018-09-14T20:20:12Z</time>
      </trkpt>
      <trkpt lat="-24.7466470" lon="-53.7417760">
        <ele>491.7</ele>
        <time>2018-09-14T20:20:13Z</time>
      </trkpt>
      <trkpt lat="-24.7466450" lon="-53.7417860">
        <ele>491.8</ele>
        <time>2018-09-14T20:20:14Z</time>
      </trkpt>
      <trkpt lat="-24.7466430" lon="-53.7417970">
        <ele>491.8</ele>
        <time>2018-09-14T20:20:15Z</time>
      </trkpt>
      <trkpt lat="-24.7466420" lon="-53.7418090">
        <ele>491.9</ele>
        <time>2018-09-14T20:20:16Z</time>
      </trkpt>
      <trkpt lat="-24.7466420" lon="-53.7418210">
        <ele>492.0</ele>
        <time>2018-09-14T20:20:17Z</time>
      </trkpt>
      <trkpt lat="-24.7466440" lon="-53.7418350">
        <ele>492.2</ele>
        <time>2018-09-14T20:20:18Z</time>
      </trkpt>
      <trkpt lat="-24.7466450" lon="-53.7418490">
        <ele>492.3</ele>
        <time>2018-09-14T20:20:19Z</time>
      </trkpt>
      <trkpt lat="-24.7466440" lon="-53.7418630">
        <ele>492.4</ele>
        <time>2018-09-14T20:20:20Z</time>
      </trkpt>
      <trkpt lat="-24.7466430" lon="-53.7418750">
        <ele>492.5</ele>
        <time>2018-09-14T20:20:21Z</time>
      </trkpt>
      <trkpt lat="-24.7466430" lon="-53.7418870">
        <ele>492.6</ele>
        <time>2018-09-14T20:20:22Z</time>
      </trkpt>
      <trkpt lat="-24.7466420" lon="-53.7419000">
        <ele>492.7</ele>
        <time>2018-09-14T20:20:23Z</time>
      </trkpt>
      <trkpt lat="-24.7466420" lon="-53.7419130">
        <ele>492.8</ele>
        <time>2018-09-14T20:20:24Z</time>
      </trkpt>
      <trkpt lat="-24.7466410" lon="-53.7419230">
        <ele>492.9</ele>
        <time>2018-09-14T20:20:25Z</time>
      </trkpt>
      <trkpt lat="-24.7466380" lon="-53.7419350">
        <ele>493.0</ele>
        <time>2018-09-14T20:20:26Z</time>
      </trkpt>
      <trkpt lat="-24.7466360" lon="-53.7419460">
        <ele>493.1</ele>
        <time>2018-09-14T20:20:27Z</time>
      </trkpt>
      <trkpt lat="-24.7466340" lon="-53.7419590">
        <ele>493.2</ele>
        <time>2018-09-14T20:20:28Z</time>
      </trkpt>
      <trkpt lat="-24.7466350" lon="-53.7419710">
        <ele>493.3</ele>
        <time>2018-09-14T20:20:29Z</time>
      </trkpt>
      <trkpt lat="-24.7466350" lon="-53.7419810">
        <ele>493.4</ele>
        <time>2018-09-14T20:20:30Z</time>
      </trkpt>
      <trkpt lat="-24.7466340" lon="-53.7419930">
        <ele>493.5</ele>
        <time>2018-09-14T20:20:31Z</time>
      </trkpt>
      <trkpt lat="-24.7466330" lon="-53.7420060">
        <ele>493.6</ele>
        <time>2018-09-14T20:20:32Z</time>
      </trkpt>
      <trkpt lat="-24.7466290" lon="-53.7420200">
        <ele>493.7</ele>
        <time>2018-09-14T20:20:33Z</time>
      </trkpt>
      <trkpt lat="-24.7466280" lon="-53.7420330">
        <ele>493.8</ele>
        <time>2018-09-14T20:20:34Z</time>
      </trkpt>
      <trkpt lat="-24.7466280" lon="-53.7420450">
        <ele>493.9</ele>
        <time>2018-09-14T20:20:35Z</time>
      </trkpt>
      <trkpt lat="-24.7466280" lon="-53.7420560">
        <ele>494.0</ele>
        <time>2018-09-14T20:20:36Z</time>
      </trkpt>
      <trkpt lat="-24.7466290" lon="-53.7420680">
        <ele>494.1</ele>
        <time>2018-09-14T20:20:37Z</time>
      </trkpt>
      <trkpt lat="-24.7466290" lon="-53.7420790">
        <ele>494.2</ele>
        <time>2018-09-14T20:20:38Z</time>
      </trkpt>
      <trkpt lat="-24.7466300" lon="-53.7420930">
        <ele>494.4</ele>
        <time>2018-09-14T20:20:39Z</time>
      </trkpt>
      <trkpt lat="-24.7466290" lon="-53.7421060">
        <ele>494.5</ele>
        <time>2018-09-14T20:20:40Z</time>
      </trkpt>
      <trkpt lat="-24.7466270" lon="-53.7421200">
        <ele>494.6</ele>
        <time>2018-09-14T20:20:41Z</time>
      </trkpt>
      <trkpt lat="-24.7466260" lon="-53.7421320">
        <ele>494.7</ele>
        <time>2018-09-14T20:20:42Z</time>
      </trkpt>
      <trkpt lat="-24.7466260" lon="-53.7421440">
        <ele>494.8</ele>
        <time>2018-09-14T20:20:43Z</time>
      </trkpt>
      <trkpt lat="-24.7466250" lon="-53.7421580">
        <ele>494.9</ele>
        <time>2018-09-14T20:20:44Z</time>
      </trkpt>
      <trkpt lat="-24.7466250" lon="-53.7421710">
        <ele>495.0</ele>
        <time>2018-09-14T20:20:45Z</time>
      </trkpt>
      <trkpt lat="-24.7466250" lon="-53.7421840">
        <ele>495.1</ele>
        <time>2018-09-14T20:20:46Z</time>
      </trkpt>
      <trkpt lat="-24.7466240" lon="-53.7421970">
        <ele>495.2</ele>
        <time>2018-09-14T20:20:47Z</time>
      </trkpt>
      <trkpt lat="-24.7466250" lon="-53.7422100">
        <ele>495.3</ele>
        <time>2018-09-14T20:20:48Z</time>
      </trkpt>
      <trkpt lat="-24.7466240" lon="-53.7422230">
        <ele>495.4</ele>
        <time>2018-09-14T20:20:49Z</time>
      </trkpt>
      <trkpt lat="-24.7466230" lon="-53.7422370">
        <ele>495.5</ele>
        <time>2018-09-14T20:20:50Z</time>
      </trkpt>
      <trkpt lat="-24.7466210" lon="-53.7422490">
        <ele>495.7</ele>
        <time>2018-09-14T20:20:51Z</time>
      </trkpt>
      <trkpt lat="-24.7466170" lon="-53.7422620">
        <ele>495.8</ele>
        <time>2018-09-14T20:20:52Z</time>
      </trkpt>
      <trkpt lat="-24.7466150" lon="-53.7422750">
        <ele>495.9</ele>
        <time>2018-09-14T20:20:53Z</time>
      </trkpt>
      <trkpt lat="-24.7466140" lon="-53.7422890">
        <ele>496.0</ele>
        <time>2018-09-14T20:20:54Z</time>
      </trkpt>
      <trkpt lat="-24.7466150" lon="-53.7423030">
        <ele>496.1</ele>
        <time>2018-09-14T20:20:55Z</time>
      </trkpt>
      <trkpt lat="-24.7466160" lon="-53.7423160">
        <ele>496.2</ele>
        <time>2018-09-14T20:20:56Z</time>
      </trkpt>
      <trkpt lat="-24.7466180" lon="-53.7423280">
        <ele>496.3</ele>
        <time>2018-09-14T20:20:57Z</time>
      </trkpt>
      <trkpt lat="-24.7466180" lon="-53.7423420">
        <ele>496.4</ele>
        <time>2018-09-14T20:20:58Z</time>
      </trkpt>
      <trkpt lat="-24.7466190" lon="-53.7423550">
        <ele>496.5</ele>
        <time>2018-09-14T20:20:59Z</time>
      </trkpt>
      <trkpt lat="-24.7466170" lon="-53.7423680">
        <ele>496.6</ele>
        <time>2018-09-14T20:21:00Z</time>
      </trkpt>
      <trkpt lat="-24.7466130" lon="-53.7423800">
        <ele>496.7</ele>
        <time>2018-09-14T20:21:01Z</time>
      </trkpt>
      <trkpt lat="-24.7466100" lon="-53.7423940">
        <ele>496.8</ele>
        <time>2018-09-14T20:21:02Z</time>
      </trkpt>
      <trkpt lat="-24.7466070" lon="-53.7424080">
        <ele>496.9</ele>
        <time>2018-09-14T20:21:03Z</time>
      </trkpt>
      <trkpt lat="-24.7466070" lon="-53.7424210">
        <ele>497.0</ele>
        <time>2018-09-14T20:21:04Z</time>
      </trkpt>
      <trkpt lat="-24.7466080" lon="-53.7424360">
        <ele>497.2</ele>
        <time>2018-09-14T20:21:05Z</time>
      </trkpt>
      <trkpt lat="-24.7466090" lon="-53.7424490">
        <ele>497.3</ele>
        <time>2018-09-14T20:21:06Z</time>
      </trkpt>
      <trkpt lat="-24.7466070" lon="-53.7424630">
        <ele>497.4</ele>
        <time>2018-09-14T20:21:07Z</time>
      </trkpt>
      <trkpt lat="-24.7466060" lon="-53.7424760">
        <ele>497.5</ele>
        <time>2018-09-14T20:21:08Z</time>
      </trkpt>
      <trkpt lat="-24.7466050" lon="-53.7424890">
        <ele>497.6</ele>
        <time>2018-09-14T20:21:09Z</time>
      </trkpt>
      <trkpt lat="-24.7466060" lon="-53.7425020">
        <ele>497.7</ele>
        <time>2018-09-14T20:21:10Z</time>
      </trkpt>
      <trkpt lat="-24.7466050" lon="-53.7425160">
        <ele>497.8</ele>
        <time>2018-09-14T20:21:11Z</time>
      </trkpt>
      <trkpt lat="-24.7466040" lon="-53.7425300">
        <ele>497.9</ele>
        <time>2018-09-14T20:21:12Z</time>
      </trkpt>
      <trkpt lat="-24.7466010" lon="-53.7425420">
        <ele>498.0</ele>
        <time>2018-09-14T20:21:13Z</time>
      </trkpt>
      <trkpt lat="-24.7466000" lon="-53.7425550">
        <ele>498.1</ele>
        <time>2018-09-14T20:21:14Z</time>
      </trkpt>
      <trkpt lat="-24.7465970" lon="-53.7425670">
        <ele>498.2</ele>
        <time>2018-09-14T20:21:15Z</time>
      </trkpt>
      <trkpt lat="-24.7465970" lon="-53.7425670">
        <ele>498.2</ele>
        <time>2018-09-14T20:21:16Z</time>
      </trkpt>
      <trkpt lat="-24.7465930" lon="-53.7425790">
        <ele>498.3</ele>
        <time>2018-09-14T20:21:17Z</time>
      </trkpt>
      <trkpt lat="-24.7465920" lon="-53.7425920">
        <ele>498.4</ele>
        <time>2018-09-14T20:21:18Z</time>
      </trkpt>
      <trkpt lat="-24.7465910" lon="-53.7426050">
        <ele>498.5</ele>
        <time>2018-09-14T20:21:19Z</time>
      </trkpt>
      <trkpt lat="-24.7465900" lon="-53.7426180">
        <ele>498.6</ele>
        <time>2018-09-14T20:21:20Z</time>
      </trkpt>
      <trkpt lat="-24.7465900" lon="-53.7426300">
        <ele>498.7</ele>
        <time>2018-09-14T20:21:21Z</time>
      </trkpt>
      <trkpt lat="-24.7465890" lon="-53.7426430">
        <ele>498.8</ele>
        <time>2018-09-14T20:21:22Z</time>
      </trkpt>
      <trkpt lat="-24.7465890" lon="-53.7426570">
        <ele>498.9</ele>
        <time>2018-09-14T20:21:23Z</time>
      </trkpt>
      <trkpt lat="-24.7465890" lon="-53.7426700">
        <ele>499.0</ele>
        <time>2018-09-14T20:21:24Z</time>
      </trkpt>
      <trkpt lat="-24.7465890" lon="-53.7426830">
        <ele>499.1</ele>
        <time>2018-09-14T20:21:25Z</time>
      </trkpt>
      <trkpt lat="-24.7465890" lon="-53.7426960">
        <ele>499.2</ele>
        <time>2018-09-14T20:21:26Z</time>
      </trkpt>
      <trkpt lat="-24.7465890" lon="-53.7427090">
        <ele>499.3</ele>
        <time>2018-09-14T20:21:27Z</time>
      </trkpt>
      <trkpt lat="-24.7465870" lon="-53.7427220">
        <ele>499.4</ele>
        <time>2018-09-14T20:21:28Z</time>
      </trkpt>
      <trkpt lat="-24.7465830" lon="-53.7427360">
        <ele>499.5</ele>
        <time>2018-09-14T20:21:29Z</time>
      </trkpt>
      <trkpt lat="-24.7465820" lon="-53.7427510">
        <ele>499.6</ele>
        <time>2018-09-14T20:21:30Z</time>
      </trkpt>
      <trkpt lat="-24.7465810" lon="-53.7427650">
        <ele>499.8</ele>
        <time>2018-09-14T20:21:31Z</time>
      </trkpt>
      <trkpt lat="-24.7465790" lon="-53.7427790">
        <ele>499.9</ele>
        <time>2018-09-14T20:21:32Z</time>
      </trkpt>
      <trkpt lat="-24.7465780" lon="-53.7427920">
        <ele>500.0</ele>
        <time>2018-09-14T20:21:33Z</time>
      </trkpt>
      <trkpt lat="-24.7465760" lon="-53.7428070">
        <ele>500.1</ele>
        <time>2018-09-14T20:21:34Z</time>
      </trkpt>
      <trkpt lat="-24.7465750" lon="-53.7428200">
        <ele>500.2</ele>
        <time>2018-09-14T20:21:35Z</time>
      </trkpt>
      <trkpt lat="-24.7465710" lon="-53.7428340">
        <ele>500.3</ele>
        <time>2018-09-14T20:21:36Z</time>
      </trkpt>
      <trkpt lat="-24.7465670" lon="-53.7428480">
        <ele>500.4</ele>
        <time>2018-09-14T20:21:37Z</time>
      </trkpt>
      <trkpt lat="-24.7465650" lon="-53.7428620">
        <ele>500.5</ele>
        <time>2018-09-14T20:21:38Z</time>
      </trkpt>
      <trkpt lat="-24.7465640" lon="-53.7428760">
        <ele>500.6</ele>
        <time>2018-09-14T20:21:39Z</time>
      </trkpt>
      <trkpt lat="-24.7465640" lon="-53.7428900">
        <ele>500.7</ele>
        <time>2018-09-14T20:21:40Z</time>
      </trkpt>
      <trkpt lat="-24.7465630" lon="-53.7429080">
        <ele>500.9</ele>
        <time>2018-09-14T20:21:41Z</time>
      </trkpt>
      <trkpt lat="-24.7465650" lon="-53.7429270">
        <ele>501.0</ele>
        <time>2018-09-14T20:21:42Z</time>
      </trkpt>
      <trkpt lat="-24.7465660" lon="-53.7429460">
        <ele>501.2</ele>
        <time>2018-09-14T20:21:43Z</time>
      </trkpt>
      <trkpt lat="-24.7465650" lon="-53.7429620">
        <ele>501.3</ele>
        <time>2018-09-14T20:21:44Z</time>
      </trkpt>
      <trkpt lat="-24.7465640" lon="-53.7429780">
        <ele>501.4</ele>
        <time>2018-09-14T20:21:45Z</time>
      </trkpt>
      <trkpt lat="-24.7465620" lon="-53.7429940">
        <ele>501.6</ele>
        <time>2018-09-14T20:21:46Z</time>
      </trkpt>
      <trkpt lat="-24.7465620" lon="-53.7430100">
        <ele>501.7</ele>
        <time>2018-09-14T20:21:47Z</time>
      </trkpt>
      <trkpt lat="-24.7465630" lon="-53.7430250">
        <ele>501.8</ele>
        <time>2018-09-14T20:21:48Z</time>
      </trkpt>
      <trkpt lat="-24.7465640" lon="-53.7430400">
        <ele>501.9</ele>
        <time>2018-09-14T20:21:49Z</time>
      </trkpt>
      <trkpt lat="-24.7465640" lon="-53.7430550">
        <ele>502.0</ele>
        <time>2018-09-14T20:21:50Z</time>
      </trkpt>
      <trkpt lat="-24.7465640" lon="-53.7430670">
        <ele>502.1</ele>
        <time>2018-09-14T20:21:51Z</time>
      </trkpt>
      <trkpt lat="-24.7465630" lon="-53.7430790">
        <ele>502.2</ele>
        <time>2018-09-14T20:21:52Z</time>
      </trkpt>
      <trkpt lat="-24.7465590" lon="-53.7430950">
        <ele>502.4</ele>
        <time>2018-09-14T20:21:53Z</time>
      </trkpt>
      <trkpt lat="-24.7465570" lon="-53.7431090">
        <ele>502.5</ele>
        <time>2018-09-14T20:21:54Z</time>
      </trkpt>
      <trkpt lat="-24.7465550" lon="-53.7431250">
        <ele>502.6</ele>
        <time>2018-09-14T20:21:55Z</time>
      </trkpt>
      <trkpt lat="-24.7465540" lon="-53.7431410">
        <ele>502.7</ele>
        <time>2018-09-14T20:21:56Z</time>
      </trkpt>
      <trkpt lat="-24.7465540" lon="-53.7431570">
        <ele>502.9</ele>
        <time>2018-09-14T20:21:57Z</time>
      </trkpt>
      <trkpt lat="-24.7465530" lon="-53.7431730">
        <ele>503.0</ele>
        <time>2018-09-14T20:21:58Z</time>
      </trkpt>
      <trkpt lat="-24.7465500" lon="-53.7431870">
        <ele>503.1</ele>
        <time>2018-09-14T20:21:59Z</time>
      </trkpt>
      <trkpt lat="-24.7465500" lon="-53.7432030">
        <ele>503.2</ele>
        <time>2018-09-14T20:22:00Z</time>
      </trkpt>
      <trkpt lat="-24.7465500" lon="-53.7432170">
        <ele>503.3</ele>
        <time>2018-09-14T20:22:01Z</time>
      </trkpt>
      <trkpt lat="-24.7465490" lon="-53.7432330">
        <ele>503.4</ele>
        <time>2018-09-14T20:22:02Z</time>
      </trkpt>
      <trkpt lat="-24.7465490" lon="-53.7432490">
        <ele>503.6</ele>
        <time>2018-09-14T20:22:03Z</time>
      </trkpt>
      <trkpt lat="-24.7465500" lon="-53.7432640">
        <ele>503.7</ele>
        <time>2018-09-14T20:22:04Z</time>
      </trkpt>
      <trkpt lat="-24.7465510" lon="-53.7432820">
        <ele>503.8</ele>
        <time>2018-09-14T20:22:05Z</time>
      </trkpt>
      <trkpt lat="-24.7465530" lon="-53.7433000">
        <ele>504.0</ele>
        <time>2018-09-14T20:22:06Z</time>
      </trkpt>
      <trkpt lat="-24.7465540" lon="-53.7433150">
        <ele>504.1</ele>
        <time>2018-09-14T20:22:07Z</time>
      </trkpt>
      <trkpt lat="-24.7465540" lon="-53.7433330">
        <ele>504.2</ele>
        <time>2018-09-14T20:22:08Z</time>
      </trkpt>
      <trkpt lat="-24.7465520" lon="-53.7433490">
        <ele>504.3</ele>
        <time>2018-09-14T20:22:09Z</time>
      </trkpt>
      <trkpt lat="-24.7465510" lon="-53.7433660">
        <ele>504.5</ele>
        <time>2018-09-14T20:22:10Z</time>
      </trkpt>
      <trkpt lat="-24.7465500" lon="-53.7433800">
        <ele>504.6</ele>
        <time>2018-09-14T20:22:11Z</time>
      </trkpt>
      <trkpt lat="-24.7465460" lon="-53.7433940">
        <ele>504.7</ele>
        <time>2018-09-14T20:22:12Z</time>
      </trkpt>
      <trkpt lat="-24.7465410" lon="-53.7434070">
        <ele>504.8</ele>
        <time>2018-09-14T20:22:13Z</time>
      </trkpt>
      <trkpt lat="-24.7465360" lon="-53.7434190">
        <ele>504.9</ele>
        <time>2018-09-14T20:22:14Z</time>
      </trkpt>
      <trkpt lat="-24.7465290" lon="-53.7434370">
        <ele>505.0</ele>
        <time>2018-09-14T20:22:15Z</time>
      </trkpt>
      <trkpt lat="-24.7465210" lon="-53.7434550">
        <ele>505.2</ele>
        <time>2018-09-14T20:22:16Z</time>
      </trkpt>
      <trkpt lat="-24.7465130" lon="-53.7434690">
        <ele>505.3</ele>
        <time>2018-09-14T20:22:17Z</time>
      </trkpt>
      <trkpt lat="-24.7465060" lon="-53.7434800">
        <ele>505.4</ele>
        <time>2018-09-14T20:22:18Z</time>
      </trkpt>
      <trkpt lat="-24.7465000" lon="-53.7434890">
        <ele>505.5</ele>
        <time>2018-09-14T20:22:19Z</time>
      </trkpt>
      <trkpt lat="-24.7464980" lon="-53.7435020">
        <ele>505.6</ele>
        <time>2018-09-14T20:22:20Z</time>
      </trkpt>
      <trkpt lat="-24.7465020" lon="-53.7435090">
        <ele>505.7</ele>
        <time>2018-09-14T20:22:21Z</time>
      </trkpt>
      <trkpt lat="-24.7465110" lon="-53.7435220">
        <ele>505.8</ele>
        <time>2018-09-14T20:22:22Z</time>
      </trkpt>
      <trkpt lat="-24.7465200" lon="-53.7435400">
        <ele>506.0</ele>
        <time>2018-09-14T20:22:23Z</time>
      </trkpt>
      <trkpt lat="-24.7465270" lon="-53.7435580">
        <ele>506.0</ele>
        <time>2018-09-14T20:22:24Z</time>
      </trkpt>
      <trkpt lat="-24.7465340" lon="-53.7435730">
        <ele>506.0</ele>
        <time>2018-09-14T20:22:25Z</time>
      </trkpt>
      <trkpt lat="-24.7465360" lon="-53.7435870">
        <ele>506.0</ele>
        <time>2018-09-14T20:22:26Z</time>
      </trkpt>
      <trkpt lat="-24.7465350" lon="-53.7436060">
        <ele>506.0</ele>
        <time>2018-09-14T20:22:27Z</time>
      </trkpt>
      <trkpt lat="-24.7465350" lon="-53.7436220">
        <ele>506.0</ele>
        <time>2018-09-14T20:22:28Z</time>
      </trkpt>
      <trkpt lat="-24.7465390" lon="-53.7436420">
        <ele>506.0</ele>
        <time>2018-09-14T20:22:29Z</time>
      </trkpt>
      <trkpt lat="-24.7465390" lon="-53.7436580">
        <ele>506.1</ele>
        <time>2018-09-14T20:22:30Z</time>
      </trkpt>
      <trkpt lat="-24.7465390" lon="-53.7436760">
        <ele>506.2</ele>
        <time>2018-09-14T20:22:31Z</time>
      </trkpt>
      <trkpt lat="-24.7465400" lon="-53.7436930">
        <ele>506.2</ele>
        <time>2018-09-14T20:22:32Z</time>
      </trkpt>
      <trkpt lat="-24.7465380" lon="-53.7437070">
        <ele>506.3</ele>
        <time>2018-09-14T20:22:33Z</time>
      </trkpt>
      <trkpt lat="-24.7465370" lon="-53.7437250">
        <ele>506.4</ele>
        <time>2018-09-14T20:22:34Z</time>
      </trkpt>
      <trkpt lat="-24.7465360" lon="-53.7437410">
        <ele>506.4</ele>
        <time>2018-09-14T20:22:35Z</time>
      </trkpt>
      <trkpt lat="-24.7465360" lon="-53.7437610">
        <ele>506.5</ele>
        <time>2018-09-14T20:22:36Z</time>
      </trkpt>
      <trkpt lat="-24.7465330" lon="-53.7437830">
        <ele>506.5</ele>
        <time>2018-09-14T20:22:37Z</time>
      </trkpt>
      <trkpt lat="-24.7465330" lon="-53.7437990">
        <ele>506.6</ele>
        <time>2018-09-14T20:22:38Z</time>
      </trkpt>
      <trkpt lat="-24.7465330" lon="-53.7438160">
        <ele>506.6</ele>
        <time>2018-09-14T20:22:39Z</time>
      </trkpt>
      <trkpt lat="-24.7465310" lon="-53.7438370">
        <ele>506.7</ele>
        <time>2018-09-14T20:22:40Z</time>
      </trkpt>
      <trkpt lat="-24.7465330" lon="-53.7438580">
        <ele>506.7</ele>
        <time>2018-09-14T20:22:41Z</time>
      </trkpt>
      <trkpt lat="-24.7465290" lon="-53.7438780">
        <ele>506.8</ele>
        <time>2018-09-14T20:22:42Z</time>
      </trkpt>
      <trkpt lat="-24.7465240" lon="-53.7438950">
        <ele>506.8</ele>
        <time>2018-09-14T20:22:43Z</time>
      </trkpt>
      <trkpt lat="-24.7465200" lon="-53.7439120">
        <ele>506.9</ele>
        <time>2018-09-14T20:22:44Z</time>
      </trkpt>
      <trkpt lat="-24.7465180" lon="-53.7439320">
        <ele>507.0</ele>
        <time>2018-09-14T20:22:45Z</time>
      </trkpt>
      <trkpt lat="-24.7465150" lon="-53.7439510">
        <ele>507.0</ele>
        <time>2018-09-14T20:22:46Z</time>
      </trkpt>
      <trkpt lat="-24.7465130" lon="-53.7439680">
        <ele>507.1</ele>
        <time>2018-09-14T20:22:47Z</time>
      </trkpt>
      <trkpt lat="-24.7465120" lon="-53.7439860">
        <ele>507.2</ele>
        <time>2018-09-14T20:22:48Z</time>
      </trkpt>
      <trkpt lat="-24.7465090" lon="-53.7440020">
        <ele>507.2</ele>
        <time>2018-09-14T20:22:49Z</time>
      </trkpt>
      <trkpt lat="-24.7465060" lon="-53.7440180">
        <ele>507.3</ele>
        <time>2018-09-14T20:22:50Z</time>
      </trkpt>
      <trkpt lat="-24.7465030" lon="-53.7440340">
        <ele>507.3</ele>
        <time>2018-09-14T20:22:51Z</time>
      </trkpt>
      <trkpt lat="-24.7465030" lon="-53.7440550">
        <ele>507.4</ele>
        <time>2018-09-14T20:22:52Z</time>
      </trkpt>
      <trkpt lat="-24.7465020" lon="-53.7440740">
        <ele>507.4</ele>
        <time>2018-09-14T20:22:53Z</time>
      </trkpt>
      <trkpt lat="-24.7465010" lon="-53.7440930">
        <ele>507.4</ele>
        <time>2018-09-14T20:22:54Z</time>
      </trkpt>
      <trkpt lat="-24.7465010" lon="-53.7441110">
        <ele>507.4</ele>
        <time>2018-09-14T20:22:55Z</time>
      </trkpt>
      <trkpt lat="-24.7465000" lon="-53.7441290">
        <ele>507.5</ele>
        <time>2018-09-14T20:22:56Z</time>
      </trkpt>
      <trkpt lat="-24.7464980" lon="-53.7441420">
        <ele>507.5</ele>
        <time>2018-09-14T20:22:57Z</time>
      </trkpt>
      <trkpt lat="-24.7464940" lon="-53.7441590">
        <ele>507.5</ele>
        <time>2018-09-14T20:22:58Z</time>
      </trkpt>
      <trkpt lat="-24.7464890" lon="-53.7442020">
        <ele>507.7</ele>
        <time>2018-09-14T20:22:59Z</time>
      </trkpt>
      <trkpt lat="-24.7464900" lon="-53.7442230">
        <ele>507.8</ele>
        <time>2018-09-14T20:23:01Z</time>
      </trkpt>
      <trkpt lat="-24.7464900" lon="-53.7442400">
        <ele>507.9</ele>
        <time>2018-09-14T20:23:02Z</time>
      </trkpt>
      <trkpt lat="-24.7464910" lon="-53.7442580">
        <ele>508.0</ele>
        <time>2018-09-14T20:23:03Z</time>
      </trkpt>
      <trkpt lat="-24.7464940" lon="-53.7442770">
        <ele>508.0</ele>
        <time>2018-09-14T20:23:04Z</time>
      </trkpt>
      <trkpt lat="-24.7464970" lon="-53.7442970">
        <ele>508.0</ele>
        <time>2018-09-14T20:23:05Z</time>
      </trkpt>
      <trkpt lat="-24.7464980" lon="-53.7443150">
        <ele>508.0</ele>
        <time>2018-09-14T20:23:06Z</time>
      </trkpt>
      <trkpt lat="-24.7464990" lon="-53.7443340">
        <ele>508.0</ele>
        <time>2018-09-14T20:23:07Z</time>
      </trkpt>
      <trkpt lat="-24.7465000" lon="-53.7443550">
        <ele>508.0</ele>
        <time>2018-09-14T20:23:08Z</time>
      </trkpt>
      <trkpt lat="-24.7464980" lon="-53.7443750">
        <ele>508.1</ele>
        <time>2018-09-14T20:23:09Z</time>
      </trkpt>
      <trkpt lat="-24.7464960" lon="-53.7443930">
        <ele>508.1</ele>
        <time>2018-09-14T20:23:10Z</time>
      </trkpt>
      <trkpt lat="-24.7464930" lon="-53.7444110">
        <ele>508.2</ele>
        <time>2018-09-14T20:23:11Z</time>
      </trkpt>
      <trkpt lat="-24.7464900" lon="-53.7444310">
        <ele>508.3</ele>
        <time>2018-09-14T20:23:12Z</time>
      </trkpt>
      <trkpt lat="-24.7464880" lon="-53.7444510">
        <ele>508.4</ele>
        <time>2018-09-14T20:23:13Z</time>
      </trkpt>
      <trkpt lat="-24.7464860" lon="-53.7444710">
        <ele>508.5</ele>
        <time>2018-09-14T20:23:14Z</time>
      </trkpt>
      <trkpt lat="-24.7464870" lon="-53.7445130">
        <ele>508.5</ele>
        <time>2018-09-14T20:23:15Z</time>
      </trkpt>
      <trkpt lat="-24.7464890" lon="-53.7445350">
        <ele>508.6</ele>
        <time>2018-09-14T20:23:16Z</time>
      </trkpt>
      <trkpt lat="-24.7464900" lon="-53.7445600">
        <ele>508.6</ele>
        <time>2018-09-14T20:23:17Z</time>
      </trkpt>
      <trkpt lat="-24.7464910" lon="-53.7445830">
        <ele>508.6</ele>
        <time>2018-09-14T20:23:18Z</time>
      </trkpt>
      <trkpt lat="-24.7464900" lon="-53.7446060">
        <ele>508.6</ele>
        <time>2018-09-14T20:23:19Z</time>
      </trkpt>
      <trkpt lat="-24.7464890" lon="-53.7446300">
        <ele>508.5</ele>
        <time>2018-09-14T20:23:20Z</time>
      </trkpt>
      <trkpt lat="-24.7464840" lon="-53.7446800">
        <ele>508.4</ele>
        <time>2018-09-14T20:23:22Z</time>
      </trkpt>
      <trkpt lat="-24.7464770" lon="-53.7446990">
        <ele>508.4</ele>
        <time>2018-09-14T20:23:23Z</time>
      </trkpt>
      <trkpt lat="-24.7464720" lon="-53.7447190">
        <ele>508.4</ele>
        <time>2018-09-14T20:23:24Z</time>
      </trkpt>
      <trkpt lat="-24.7464670" lon="-53.7447380">
        <ele>508.4</ele>
        <time>2018-09-14T20:23:25Z</time>
      </trkpt>
      <trkpt lat="-24.7464630" lon="-53.7447570">
        <ele>508.4</ele>
        <time>2018-09-14T20:23:26Z</time>
      </trkpt>
      <trkpt lat="-24.7464560" lon="-53.7447760">
        <ele>508.4</ele>
        <time>2018-09-14T20:23:27Z</time>
      </trkpt>
      <trkpt lat="-24.7464530" lon="-53.7448000">
        <ele>508.7</ele>
        <time>2018-09-14T20:23:28Z</time>
      </trkpt>
      <trkpt lat="-24.7464530" lon="-53.7448240">
        <ele>509.0</ele>
        <time>2018-09-14T20:23:29Z</time>
      </trkpt>
      <trkpt lat="-24.7464540" lon="-53.7448460">
        <ele>509.2</ele>
        <time>2018-09-14T20:23:30Z</time>
      </trkpt>
      <trkpt lat="-24.7464540" lon="-53.7448690">
        <ele>509.5</ele>
        <time>2018-09-14T20:23:31Z</time>
      </trkpt>
      <trkpt lat="-24.7464520" lon="-53.7448920">
        <ele>509.8</ele>
        <time>2018-09-14T20:23:32Z</time>
      </trkpt>
      <trkpt lat="-24.7464520" lon="-53.7449160">
        <ele>510.1</ele>
        <time>2018-09-14T20:23:33Z</time>
      </trkpt>
      <trkpt lat="-24.7464500" lon="-53.7449360">
        <ele>510.3</ele>
        <time>2018-09-14T20:23:34Z</time>
      </trkpt>
      <trkpt lat="-24.7464480" lon="-53.7449580">
        <ele>510.5</ele>
        <time>2018-09-14T20:23:35Z</time>
      </trkpt>
      <trkpt lat="-24.7464460" lon="-53.7449860">
        <ele>510.8</ele>
        <time>2018-09-14T20:23:36Z</time>
      </trkpt>
      <trkpt lat="-24.7464440" lon="-53.7450090">
        <ele>510.9</ele>
        <time>2018-09-14T20:23:37Z</time>
      </trkpt>
      <trkpt lat="-24.7464420" lon="-53.7450290">
        <ele>510.9</ele>
        <time>2018-09-14T20:23:38Z</time>
      </trkpt>
      <trkpt lat="-24.7464370" lon="-53.7450540">
        <ele>511.0</ele>
        <time>2018-09-14T20:23:39Z</time>
      </trkpt>
      <trkpt lat="-24.7464340" lon="-53.7450760">
        <ele>511.1</ele>
        <time>2018-09-14T20:23:40Z</time>
      </trkpt>
      <trkpt lat="-24.7464290" lon="-53.7451280">
        <ele>511.2</ele>
        <time>2018-09-14T20:23:42Z</time>
      </trkpt>
      <trkpt lat="-24.7464270" lon="-53.7451530">
        <ele>511.2</ele>
        <time>2018-09-14T20:23:43Z</time>
      </trkpt>
      <trkpt lat="-24.7464240" lon="-53.7451820">
        <ele>511.2</ele>
        <time>2018-09-14T20:23:44Z</time>
      </trkpt>
      <trkpt lat="-24.7464200" lon="-53.7452070">
        <ele>511.2</ele>
        <time>2018-09-14T20:23:45Z</time>
      </trkpt>
      <trkpt lat="-24.7464180" lon="-53.7452360">
        <ele>511.1</ele>
        <time>2018-09-14T20:23:46Z</time>
      </trkpt>
      <trkpt lat="-24.7464170" lon="-53.7452660">
        <ele>511.0</ele>
        <time>2018-09-14T20:23:47Z</time>
      </trkpt>
      <trkpt lat="-24.7464170" lon="-53.7452920">
        <ele>510.9</ele>
        <time>2018-09-14T20:23:48Z</time>
      </trkpt>
      <trkpt lat="-24.7464190" lon="-53.7453120">
        <ele>510.8</ele>
        <time>2018-09-14T20:23:49Z</time>
      </trkpt>
      <trkpt lat="-24.7464200" lon="-53.7453360">
        <ele>510.6</ele>
        <time>2018-09-14T20:23:50Z</time>
      </trkpt>
      <trkpt lat="-24.7464190" lon="-53.7453630">
        <ele>510.3</ele>
        <time>2018-09-14T20:23:51Z</time>
      </trkpt>
      <trkpt lat="-24.7464140" lon="-53.7453880">
        <ele>510.1</ele>
        <time>2018-09-14T20:23:52Z</time>
      </trkpt>
      <trkpt lat="-24.7464100" lon="-53.7454180">
        <ele>509.9</ele>
        <time>2018-09-14T20:23:53Z</time>
      </trkpt>
      <trkpt lat="-24.7464060" lon="-53.7454480">
        <ele>509.8</ele>
        <time>2018-09-14T20:23:54Z</time>
      </trkpt>
      <trkpt lat="-24.7464030" lon="-53.7454750">
        <ele>509.7</ele>
        <time>2018-09-14T20:23:55Z</time>
      </trkpt>
      <trkpt lat="-24.7463990" lon="-53.7455000">
        <ele>509.6</ele>
        <time>2018-09-14T20:23:56Z</time>
      </trkpt>
      <trkpt lat="-24.7463970" lon="-53.7455250">
        <ele>509.6</ele>
        <time>2018-09-14T20:23:57Z</time>
      </trkpt>
      <trkpt lat="-24.7463970" lon="-53.7455510">
        <ele>509.8</ele>
        <time>2018-09-14T20:23:58Z</time>
      </trkpt>
      <trkpt lat="-24.7463950" lon="-53.7455800">
        <ele>509.9</ele>
        <time>2018-09-14T20:23:59Z</time>
      </trkpt>
      <trkpt lat="-24.7463940" lon="-53.7456110">
        <ele>510.1</ele>
        <time>2018-09-14T20:24:00Z</time>
      </trkpt>
      <trkpt lat="-24.7463920" lon="-53.7456390">
        <ele>510.2</ele>
        <time>2018-09-14T20:24:01Z</time>
      </trkpt>
      <trkpt lat="-24.7463910" lon="-53.7456680">
        <ele>510.2</ele>
        <time>2018-09-14T20:24:02Z</time>
      </trkpt>
      <trkpt lat="-24.7463930" lon="-53.7456970">
        <ele>510.2</ele>
        <time>2018-09-14T20:24:03Z</time>
      </trkpt>
      <trkpt lat="-24.7463920" lon="-53.7457260">
        <ele>510.3</ele>
        <time>2018-09-14T20:24:04Z</time>
      </trkpt>
      <trkpt lat="-24.7463920" lon="-53.7457530">
        <ele>510.3</ele>
        <time>2018-09-14T20:24:05Z</time>
      </trkpt>
      <trkpt lat="-24.7463880" lon="-53.7457790">
        <ele>510.3</ele>
        <time>2018-09-14T20:24:06Z</time>
      </trkpt>
      <trkpt lat="-24.7463860" lon="-53.7458080">
        <ele>510.2</ele>
        <time>2018-09-14T20:24:07Z</time>
      </trkpt>
      <trkpt lat="-24.7463830" lon="-53.7458350">
        <ele>510.2</ele>
        <time>2018-09-14T20:24:08Z</time>
      </trkpt>
      <trkpt lat="-24.7463780" lon="-53.7458610">
        <ele>510.1</ele>
        <time>2018-09-14T20:24:09Z</time>
      </trkpt>
      <trkpt lat="-24.7463740" lon="-53.7458840">
        <ele>510.0</ele>
        <time>2018-09-14T20:24:10Z</time>
      </trkpt>
      <trkpt lat="-24.7463690" lon="-53.7459070">
        <ele>509.9</ele>
        <time>2018-09-14T20:24:11Z</time>
      </trkpt>
      <trkpt lat="-24.7463590" lon="-53.7459270">
        <ele>509.8</ele>
        <time>2018-09-14T20:24:12Z</time>
      </trkpt>
      <trkpt lat="-24.7463450" lon="-53.7459370">
        <ele>509.7</ele>
        <time>2018-09-14T20:24:13Z</time>
      </trkpt>
      <trkpt lat="-24.7463280" lon="-53.7459440">
        <ele>509.6</ele>
        <time>2018-09-14T20:24:14Z</time>
      </trkpt>
      <trkpt lat="-24.7463090" lon="-53.7459480">
        <ele>509.5</ele>
        <time>2018-09-14T20:24:15Z</time>
      </trkpt>
      <trkpt lat="-24.7462930" lon="-53.7459460">
        <ele>509.4</ele>
        <time>2018-09-14T20:24:16Z</time>
      </trkpt>
      <trkpt lat="-24.7462770" lon="-53.7459440">
        <ele>509.3</ele>
        <time>2018-09-14T20:24:17Z</time>
      </trkpt>
      <trkpt lat="-24.7462610" lon="-53.7459460">
        <ele>509.2</ele>
        <time>2018-09-14T20:24:18Z</time>
      </trkpt>
      <trkpt lat="-24.7462460" lon="-53.7459460">
        <ele>509.1</ele>
        <time>2018-09-14T20:24:19Z</time>
      </trkpt>
      <trkpt lat="-24.7462300" lon="-53.7459450">
        <ele>509.0</ele>
        <time>2018-09-14T20:24:20Z</time>
      </trkpt>
      <trkpt lat="-24.7462130" lon="-53.7459440">
        <ele>509.0</ele>
        <time>2018-09-14T20:24:21Z</time>
      </trkpt>
      <trkpt lat="-24.7461960" lon="-53.7459430">
        <ele>508.9</ele>
        <time>2018-09-14T20:24:22Z</time>
      </trkpt>
      <trkpt lat="-24.7461790" lon="-53.7459440">
        <ele>508.8</ele>
        <time>2018-09-14T20:24:23Z</time>
      </trkpt>
      <trkpt lat="-24.7461640" lon="-53.7459450">
        <ele>508.8</ele>
        <time>2018-09-14T20:24:24Z</time>
      </trkpt>
      <trkpt lat="-24.7461470" lon="-53.7459470">
        <ele>516.3</ele>
        <time>2018-09-14T20:24:25Z</time>
      </trkpt>
      <trkpt lat="-24.7461300" lon="-53.7459480">
        <ele>516.5</ele>
        <time>2018-09-14T20:24:26Z</time>
      </trkpt>
      <trkpt lat="-24.7461130" lon="-53.7459500">
        <ele>516.8</ele>
        <time>2018-09-14T20:24:27Z</time>
      </trkpt>
      <trkpt lat="-24.7460960" lon="-53.7459530">
        <ele>517.0</ele>
        <time>2018-09-14T20:24:28Z</time>
      </trkpt>
      <trkpt lat="-24.7460800" lon="-53.7459550">
        <ele>517.2</ele>
        <time>2018-09-14T20:24:29Z</time>
      </trkpt>
      <trkpt lat="-24.7460620" lon="-53.7459560">
        <ele>517.6</ele>
        <time>2018-09-14T20:24:30Z</time>
      </trkpt>
      <trkpt lat="-24.7460460" lon="-53.7459560">
        <ele>517.8</ele>
        <time>2018-09-14T20:24:31Z</time>
      </trkpt>
      <trkpt lat="-24.7460290" lon="-53.7459550">
        <ele>518.2</ele>
        <time>2018-09-14T20:24:32Z</time>
      </trkpt>
      <trkpt lat="-24.7460130" lon="-53.7459550">
        <ele>518.5</ele>
        <time>2018-09-14T20:24:33Z</time>
      </trkpt>
      <trkpt lat="-24.7459960" lon="-53.7459520">
        <ele>518.9</ele>
        <time>2018-09-14T20:24:34Z</time>
      </trkpt>
      <trkpt lat="-24.7459830" lon="-53.7459510">
        <ele>519.1</ele>
        <time>2018-09-14T20:24:35Z</time>
      </trkpt>
      <trkpt lat="-24.7459690" lon="-53.7459500">
        <ele>519.4</ele>
        <time>2018-09-14T20:24:36Z</time>
      </trkpt>
      <trkpt lat="-24.7459550" lon="-53.7459500">
        <ele>519.7</ele>
        <time>2018-09-14T20:24:37Z</time>
      </trkpt>
      <trkpt lat="-24.7459410" lon="-53.7459510">
        <ele>520.0</ele>
        <time>2018-09-14T20:24:38Z</time>
      </trkpt>
      <trkpt lat="-24.7459260" lon="-53.7459470">
        <ele>520.2</ele>
        <time>2018-09-14T20:24:39Z</time>
      </trkpt>
      <trkpt lat="-24.7459080" lon="-53.7459450">
        <ele>520.5</ele>
        <time>2018-09-14T20:24:40Z</time>
      </trkpt>
      <trkpt lat="-24.7458930" lon="-53.7459440">
        <ele>520.8</ele>
        <time>2018-09-14T20:24:41Z</time>
      </trkpt>
      <trkpt lat="-24.7458770" lon="-53.7459460">
        <ele>520.9</ele>
        <time>2018-09-14T20:24:42Z</time>
      </trkpt>
      <trkpt lat="-24.7458620" lon="-53.7459460">
        <ele>521.1</ele>
        <time>2018-09-14T20:24:43Z</time>
      </trkpt>
      <trkpt lat="-24.7458440" lon="-53.7459470">
        <ele>521.2</ele>
        <time>2018-09-14T20:24:44Z</time>
      </trkpt>
      <trkpt lat="-24.7458260" lon="-53.7459470">
        <ele>521.4</ele>
        <time>2018-09-14T20:24:45Z</time>
      </trkpt>
      <trkpt lat="-24.7458090" lon="-53.7459480">
        <ele>521.5</ele>
        <time>2018-09-14T20:24:46Z</time>
      </trkpt>
      <trkpt lat="-24.7457910" lon="-53.7459490">
        <ele>521.7</ele>
        <time>2018-09-14T20:24:47Z</time>
      </trkpt>
      <trkpt lat="-24.7457750" lon="-53.7459470">
        <ele>521.8</ele>
        <time>2018-09-14T20:24:48Z</time>
      </trkpt>
      <trkpt lat="-24.7457570" lon="-53.7459450">
        <ele>522.0</ele>
        <time>2018-09-14T20:24:49Z</time>
      </trkpt>
      <trkpt lat="-24.7457400" lon="-53.7459430">
        <ele>522.0</ele>
        <time>2018-09-14T20:24:50Z</time>
      </trkpt>
      <trkpt lat="-24.7457220" lon="-53.7459410">
        <ele>522.0</ele>
        <time>2018-09-14T20:24:51Z</time>
      </trkpt>
      <trkpt lat="-24.7457030" lon="-53.7459420">
        <ele>522.0</ele>
        <time>2018-09-14T20:24:52Z</time>
      </trkpt>
      <trkpt lat="-24.7456850" lon="-53.7459430">
        <ele>522.0</ele>
        <time>2018-09-14T20:24:53Z</time>
      </trkpt>
      <trkpt lat="-24.7456700" lon="-53.7459400">
        <ele>522.0</ele>
        <time>2018-09-14T20:24:54Z</time>
      </trkpt>
      <trkpt lat="-24.7456540" lon="-53.7459400">
        <ele>522.0</ele>
        <time>2018-09-14T20:24:55Z</time>
      </trkpt>
      <trkpt lat="-24.7456360" lon="-53.7459420">
        <ele>522.0</ele>
        <time>2018-09-14T20:24:56Z</time>
      </trkpt>
      <trkpt lat="-24.7456180" lon="-53.7459440">
        <ele>522.0</ele>
        <time>2018-09-14T20:24:57Z</time>
      </trkpt>
      <trkpt lat="-24.7456010" lon="-53.7459460">
        <ele>522.0</ele>
        <time>2018-09-14T20:24:58Z</time>
      </trkpt>
      <trkpt lat="-24.7455860" lon="-53.7459480">
        <ele>522.0</ele>
        <time>2018-09-14T20:24:59Z</time>
      </trkpt>
      <trkpt lat="-24.7455690" lon="-53.7459480">
        <ele>522.0</ele>
        <time>2018-09-14T20:25:00Z</time>
      </trkpt>
      <trkpt lat="-24.7455530" lon="-53.7459510">
        <ele>522.0</ele>
        <time>2018-09-14T20:25:01Z</time>
      </trkpt>
      <trkpt lat="-24.7455360" lon="-53.7459520">
        <ele>522.0</ele>
        <time>2018-09-14T20:25:02Z</time>
      </trkpt>
      <trkpt lat="-24.7455190" lon="-53.7459520">
        <ele>522.0</ele>
        <time>2018-09-14T20:25:03Z</time>
      </trkpt>
      <trkpt lat="-24.7455030" lon="-53.7459510">
        <ele>522.0</ele>
        <time>2018-09-14T20:25:04Z</time>
      </trkpt>
      <trkpt lat="-24.7454870" lon="-53.7459500">
        <ele>522.0</ele>
        <time>2018-09-14T20:25:05Z</time>
      </trkpt>
      <trkpt lat="-24.7454700" lon="-53.7459490">
        <ele>522.0</ele>
        <time>2018-09-14T20:25:06Z</time>
      </trkpt>
      <trkpt lat="-24.7454570" lon="-53.7459480">
        <ele>522.0</ele>
        <time>2018-09-14T20:25:07Z</time>
      </trkpt>
      <trkpt lat="-24.7454450" lon="-53.7459470">
        <ele>522.0</ele>
        <time>2018-09-14T20:25:08Z</time>
      </trkpt>
      <trkpt lat="-24.7454300" lon="-53.7459470">
        <ele>522.0</ele>
        <time>2018-09-14T20:25:09Z</time>
      </trkpt>
      <trkpt lat="-24.7454170" lon="-53.7459480">
        <ele>522.0</ele>
        <time>2018-09-14T20:25:10Z</time>
      </trkpt>
      <trkpt lat="-24.7454030" lon="-53.7459480">
        <ele>522.0</ele>
        <time>2018-09-14T20:25:11Z</time>
      </trkpt>
      <trkpt lat="-24.7453860" lon="-53.7459470">
        <ele>522.0</ele>
        <time>2018-09-14T20:25:12Z</time>
      </trkpt>
      <trkpt lat="-24.7453700" lon="-53.7459470">
        <ele>522.0</ele>
        <time>2018-09-14T20:25:13Z</time>
      </trkpt>
      <trkpt lat="-24.7453550" lon="-53.7459470">
        <ele>522.0</ele>
        <time>2018-09-14T20:25:14Z</time>
      </trkpt>
      <trkpt lat="-24.7453420" lon="-53.7459470">
        <ele>522.0</ele>
        <time>2018-09-14T20:25:15Z</time>
      </trkpt>
      <trkpt lat="-24.7453350" lon="-53.7459480">
        <ele>522.0</ele>
        <time>2018-09-14T20:25:16Z</time>
      </trkpt>
      <trkpt lat="-24.7453240" lon="-53.7459530">
        <ele>522.0</ele>
        <time>2018-09-14T20:25:17Z</time>
      </trkpt>
      <trkpt lat="-24.7453100" lon="-53.7459590">
        <ele>522.0</ele>
        <time>2018-09-14T20:25:18Z</time>
      </trkpt>
      <trkpt lat="-24.7452930" lon="-53.7459560">
        <ele>522.0</ele>
        <time>2018-09-14T20:25:19Z</time>
      </trkpt>
      <trkpt lat="-24.7452720" lon="-53.7459490">
        <ele>522.0</ele>
        <time>2018-09-14T20:25:20Z</time>
      </trkpt>
      <trkpt lat="-24.7452500" lon="-53.7459470">
        <ele>522.0</ele>
        <time>2018-09-14T20:25:21Z</time>
      </trkpt>
      <trkpt lat="-24.7452500" lon="-53.7459470">
        <ele>522.0</ele>
        <time>2018-09-14T20:25:22Z</time>
      </trkpt>
      <trkpt lat="-24.7452240" lon="-53.7459470">
        <ele>522.1</ele>
        <time>2018-09-14T20:25:23Z</time>
      </trkpt>
      <trkpt lat="-24.7452010" lon="-53.7459480">
        <ele>522.2</ele>
        <time>2018-09-14T20:25:24Z</time>
      </trkpt>
      <trkpt lat="-24.7451810" lon="-53.7459470">
        <ele>522.2</ele>
        <time>2018-09-14T20:25:25Z</time>
      </trkpt>
      <trkpt lat="-24.7451600" lon="-53.7459470">
        <ele>522.3</ele>
        <time>2018-09-14T20:25:26Z</time>
      </trkpt>
      <trkpt lat="-24.7451410" lon="-53.7459470">
        <ele>522.3</ele>
        <time>2018-09-14T20:25:27Z</time>
      </trkpt>
      <trkpt lat="-24.7451230" lon="-53.7459500">
        <ele>522.4</ele>
        <time>2018-09-14T20:25:28Z</time>
      </trkpt>
      <trkpt lat="-24.7451040" lon="-53.7459490">
        <ele>522.4</ele>
        <time>2018-09-14T20:25:29Z</time>
      </trkpt>
      <trkpt lat="-24.7450840" lon="-53.7459460">
        <ele>522.5</ele>
        <time>2018-09-14T20:25:30Z</time>
      </trkpt>
      <trkpt lat="-24.7450630" lon="-53.7459440">
        <ele>522.6</ele>
        <time>2018-09-14T20:25:31Z</time>
      </trkpt>
      <trkpt lat="-24.7450420" lon="-53.7459440">
        <ele>522.6</ele>
        <time>2018-09-14T20:25:32Z</time>
      </trkpt>
      <trkpt lat="-24.7450200" lon="-53.7459440">
        <ele>522.7</ele>
        <time>2018-09-14T20:25:33Z</time>
      </trkpt>
      <trkpt lat="-24.7449990" lon="-53.7459410">
        <ele>522.7</ele>
        <time>2018-09-14T20:25:34Z</time>
      </trkpt>
      <trkpt lat="-24.7449770" lon="-53.7459400">
        <ele>522.8</ele>
        <time>2018-09-14T20:25:35Z</time>
      </trkpt>
      <trkpt lat="-24.7449530" lon="-53.7459410">
        <ele>522.9</ele>
        <time>2018-09-14T20:25:36Z</time>
      </trkpt>
      <trkpt lat="-24.7449290" lon="-53.7459410">
        <ele>522.9</ele>
        <time>2018-09-14T20:25:37Z</time>
      </trkpt>
      <trkpt lat="-24.7449060" lon="-53.7459400">
        <ele>523.0</ele>
        <time>2018-09-14T20:25:38Z</time>
      </trkpt>
      <trkpt lat="-24.7448810" lon="-53.7459380">
        <ele>523.1</ele>
        <time>2018-09-14T20:25:39Z</time>
      </trkpt>
      <trkpt lat="-24.7448560" lon="-53.7459370">
        <ele>523.2</ele>
        <time>2018-09-14T20:25:40Z</time>
      </trkpt>
      <trkpt lat="-24.7448320" lon="-53.7459360">
        <ele>523.3</ele>
        <time>2018-09-14T20:25:41Z</time>
      </trkpt>
      <trkpt lat="-24.7448090" lon="-53.7459360">
        <ele>523.4</ele>
        <time>2018-09-14T20:25:42Z</time>
      </trkpt>
      <trkpt lat="-24.7447850" lon="-53.7459370">
        <ele>523.5</ele>
        <time>2018-09-14T20:25:43Z</time>
      </trkpt>
      <trkpt lat="-24.7447610" lon="-53.7459390">
        <ele>523.6</ele>
        <time>2018-09-14T20:25:44Z</time>
      </trkpt>
      <trkpt lat="-24.7447360" lon="-53.7459400">
        <ele>523.7</ele>
        <time>2018-09-14T20:25:45Z</time>
      </trkpt>
      <trkpt lat="-24.7447090" lon="-53.7459400">
        <ele>523.8</ele>
        <time>2018-09-14T20:25:46Z</time>
      </trkpt>
      <trkpt lat="-24.7446820" lon="-53.7459400">
        <ele>523.9</ele>
        <time>2018-09-14T20:25:47Z</time>
      </trkpt>
      <trkpt lat="-24.7446560" lon="-53.7459390">
        <ele>524.0</ele>
        <time>2018-09-14T20:25:48Z</time>
      </trkpt>
      <trkpt lat="-24.7446300" lon="-53.7459390">
        <ele>524.3</ele>
        <time>2018-09-14T20:25:49Z</time>
      </trkpt>
      <trkpt lat="-24.7446050" lon="-53.7459390">
        <ele>524.6</ele>
        <time>2018-09-14T20:25:50Z</time>
      </trkpt>
      <trkpt lat="-24.7445820" lon="-53.7459390">
        <ele>524.9</ele>
        <time>2018-09-14T20:25:51Z</time>
      </trkpt>
      <trkpt lat="-24.7445560" lon="-53.7459390">
        <ele>525.2</ele>
        <time>2018-09-14T20:25:52Z</time>
      </trkpt>
      <trkpt lat="-24.7445300" lon="-53.7459380">
        <ele>525.6</ele>
        <time>2018-09-14T20:25:53Z</time>
      </trkpt>
      <trkpt lat="-24.7445040" lon="-53.7459380">
        <ele>526.0</ele>
        <time>2018-09-14T20:25:54Z</time>
      </trkpt>
      <trkpt lat="-24.7444790" lon="-53.7459390">
        <ele>526.3</ele>
        <time>2018-09-14T20:25:55Z</time>
      </trkpt>
      <trkpt lat="-24.7444550" lon="-53.7459390">
        <ele>526.6</ele>
        <time>2018-09-14T20:25:56Z</time>
      </trkpt>
      <trkpt lat="-24.7444300" lon="-53.7459400">
        <ele>526.8</ele>
        <time>2018-09-14T20:25:57Z</time>
      </trkpt>
      <trkpt lat="-24.7444050" lon="-53.7459390">
        <ele>526.9</ele>
        <time>2018-09-14T20:25:58Z</time>
      </trkpt>
      <trkpt lat="-24.7443800" lon="-53.7459360">
        <ele>527.1</ele>
        <time>2018-09-14T20:25:59Z</time>
      </trkpt>
      <trkpt lat="-24.7443550" lon="-53.7459350">
        <ele>527.2</ele>
        <time>2018-09-14T20:26:00Z</time>
      </trkpt>
      <trkpt lat="-24.7443290" lon="-53.7459360">
        <ele>527.4</ele>
        <time>2018-09-14T20:26:01Z</time>
      </trkpt>
      <trkpt lat="-24.7443030" lon="-53.7459340">
        <ele>527.6</ele>
        <time>2018-09-14T20:26:02Z</time>
      </trkpt>
      <trkpt lat="-24.7442770" lon="-53.7459310">
        <ele>527.7</ele>
        <time>2018-09-14T20:26:03Z</time>
      </trkpt>
      <trkpt lat="-24.7442510" lon="-53.7459290">
        <ele>527.9</ele>
        <time>2018-09-14T20:26:04Z</time>
      </trkpt>
      <trkpt lat="-24.7442250" lon="-53.7459280">
        <ele>528.0</ele>
        <time>2018-09-14T20:26:05Z</time>
      </trkpt>
      <trkpt lat="-24.7442000" lon="-53.7459270">
        <ele>528.1</ele>
        <time>2018-09-14T20:26:06Z</time>
      </trkpt>
      <trkpt lat="-24.7441740" lon="-53.7459250">
        <ele>528.2</ele>
        <time>2018-09-14T20:26:07Z</time>
      </trkpt>
      <trkpt lat="-24.7441490" lon="-53.7459260">
        <ele>528.3</ele>
        <time>2018-09-14T20:26:08Z</time>
      </trkpt>
      <trkpt lat="-24.7441220" lon="-53.7459280">
        <ele>528.4</ele>
        <time>2018-09-14T20:26:09Z</time>
      </trkpt>
      <trkpt lat="-24.7440930" lon="-53.7459310">
        <ele>528.5</ele>
        <time>2018-09-14T20:26:10Z</time>
      </trkpt>
      <trkpt lat="-24.7440610" lon="-53.7459350">
        <ele>528.5</ele>
        <time>2018-09-14T20:26:11Z</time>
      </trkpt>
      <trkpt lat="-24.7440300" lon="-53.7459380">
        <ele>528.6</ele>
        <time>2018-09-14T20:26:12Z</time>
      </trkpt>
      <trkpt lat="-24.7440000" lon="-53.7459430">
        <ele>528.7</ele>
        <time>2018-09-14T20:26:13Z</time>
      </trkpt>
      <trkpt lat="-24.7439680" lon="-53.7459450">
        <ele>528.8</ele>
        <time>2018-09-14T20:26:14Z</time>
      </trkpt>
      <trkpt lat="-24.7439360" lon="-53.7459460">
        <ele>528.8</ele>
        <time>2018-09-14T20:26:15Z</time>
      </trkpt>
      <trkpt lat="-24.7439040" lon="-53.7459470">
        <ele>528.9</ele>
        <time>2018-09-14T20:26:16Z</time>
      </trkpt>
      <trkpt lat="-24.7438730" lon="-53.7459460">
        <ele>529.0</ele>
        <time>2018-09-14T20:26:17Z</time>
      </trkpt>
      <trkpt lat="-24.7438410" lon="-53.7459450">
        <ele>529.1</ele>
        <time>2018-09-14T20:26:18Z</time>
      </trkpt>
      <trkpt lat="-24.7438080" lon="-53.7459440">
        <ele>529.1</ele>
        <time>2018-09-14T20:26:19Z</time>
      </trkpt>
      <trkpt lat="-24.7437750" lon="-53.7459420">
        <ele>529.2</ele>
        <time>2018-09-14T20:26:20Z</time>
      </trkpt>
      <trkpt lat="-24.7437420" lon="-53.7459400">
        <ele>529.3</ele>
        <time>2018-09-14T20:26:21Z</time>
      </trkpt>
      <trkpt lat="-24.7437080" lon="-53.7459410">
        <ele>529.4</ele>
        <time>2018-09-14T20:26:22Z</time>
      </trkpt>
      <trkpt lat="-24.7436730" lon="-53.7459410">
        <ele>529.5</ele>
        <time>2018-09-14T20:26:23Z</time>
      </trkpt>
      <trkpt lat="-24.7436370" lon="-53.7459410">
        <ele>529.6</ele>
        <time>2018-09-14T20:26:24Z</time>
      </trkpt>
      <trkpt lat="-24.7436010" lon="-53.7459380">
        <ele>529.7</ele>
        <time>2018-09-14T20:26:25Z</time>
      </trkpt>
      <trkpt lat="-24.7435630" lon="-53.7459360">
        <ele>529.8</ele>
        <time>2018-09-14T20:26:26Z</time>
      </trkpt>
      <trkpt lat="-24.7435260" lon="-53.7459320">
        <ele>529.9</ele>
        <time>2018-09-14T20:26:27Z</time>
      </trkpt>
      <trkpt lat="-24.7434870" lon="-53.7459310">
        <ele>530.0</ele>
        <time>2018-09-14T20:26:28Z</time>
      </trkpt>
      <trkpt lat="-24.7434490" lon="-53.7459280">
        <ele>530.1</ele>
        <time>2018-09-14T20:26:29Z</time>
      </trkpt>
      <trkpt lat="-24.7434090" lon="-53.7459260">
        <ele>530.2</ele>
        <time>2018-09-14T20:26:30Z</time>
      </trkpt>
      <trkpt lat="-24.7433690" lon="-53.7459230">
        <ele>530.3</ele>
        <time>2018-09-14T20:26:31Z</time>
      </trkpt>
      <trkpt lat="-24.7433270" lon="-53.7459220">
        <ele>530.4</ele>
        <time>2018-09-14T20:26:32Z</time>
      </trkpt>
      <trkpt lat="-24.7432860" lon="-53.7459220">
        <ele>530.4</ele>
        <time>2018-09-14T20:26:33Z</time>
      </trkpt>
      <trkpt lat="-24.7432440" lon="-53.7459210">
        <ele>530.5</ele>
        <time>2018-09-14T20:26:34Z</time>
      </trkpt>
      <trkpt lat="-24.7432020" lon="-53.7459210">
        <ele>530.6</ele>
        <time>2018-09-14T20:26:35Z</time>
      </trkpt>
      <trkpt lat="-24.7431590" lon="-53.7459210">
        <ele>530.7</ele>
        <time>2018-09-14T20:26:36Z</time>
      </trkpt>
      <trkpt lat="-24.7431160" lon="-53.7459210">
        <ele>530.8</ele>
        <time>2018-09-14T20:26:37Z</time>
      </trkpt>
      <trkpt lat="-24.7430730" lon="-53.7459190">
        <ele>530.9</ele>
        <time>2018-09-14T20:26:38Z</time>
      </trkpt>
      <trkpt lat="-24.7430270" lon="-53.7459180">
        <ele>531.0</ele>
        <time>2018-09-14T20:26:39Z</time>
      </trkpt>
      <trkpt lat="-24.7429800" lon="-53.7459150">
        <ele>531.1</ele>
        <time>2018-09-14T20:26:40Z</time>
      </trkpt>
      <trkpt lat="-24.7429300" lon="-53.7459100">
        <ele>531.2</ele>
        <time>2018-09-14T20:26:41Z</time>
      </trkpt>
      <trkpt lat="-24.7428820" lon="-53.7459100">
        <ele>531.3</ele>
        <time>2018-09-14T20:26:42Z</time>
      </trkpt>
      <trkpt lat="-24.7428350" lon="-53.7459120">
        <ele>531.4</ele>
        <time>2018-09-14T20:26:43Z</time>
      </trkpt>
      <trkpt lat="-24.7427950" lon="-53.7459100">
        <ele>531.5</ele>
        <time>2018-09-14T20:26:44Z</time>
      </trkpt>
      <trkpt lat="-24.7427640" lon="-53.7459000">
        <ele>531.6</ele>
        <time>2018-09-14T20:26:45Z</time>
      </trkpt>
      <trkpt lat="-24.7427430" lon="-53.7458760">
        <ele>531.7</ele>
        <time>2018-09-14T20:26:46Z</time>
      </trkpt>
      <trkpt lat="-24.7427320" lon="-53.7458460">
        <ele>531.4</ele>
        <time>2018-09-14T20:26:47Z</time>
      </trkpt>
      <trkpt lat="-24.7427260" lon="-53.7458180">
        <ele>531.1</ele>
        <time>2018-09-14T20:26:48Z</time>
      </trkpt>
      <trkpt lat="-24.7427230" lon="-53.7457830">
        <ele>530.9</ele>
        <time>2018-09-14T20:26:49Z</time>
      </trkpt>
      <trkpt lat="-24.7427180" lon="-53.7457450">
        <ele>530.7</ele>
        <time>2018-09-14T20:26:50Z</time>
      </trkpt>
      <trkpt lat="-24.7426950" lon="-53.7457100">
        <ele>530.4</ele>
        <time>2018-09-14T20:26:51Z</time>
      </trkpt>
      <trkpt lat="-24.7426570" lon="-53.7456880">
        <ele>530.1</ele>
        <time>2018-09-14T20:26:52Z</time>
      </trkpt>
      <trkpt lat="-24.7426140" lon="-53.7456800">
        <ele>529.9</ele>
        <time>2018-09-14T20:26:53Z</time>
      </trkpt>
      <trkpt lat="-24.7425660" lon="-53.7456780">
        <ele>529.6</ele>
        <time>2018-09-14T20:26:54Z</time>
      </trkpt>
      <trkpt lat="-24.7425180" lon="-53.7456770">
        <ele>529.4</ele>
        <time>2018-09-14T20:26:55Z</time>
      </trkpt>
      <trkpt lat="-24.7424680" lon="-53.7456760">
        <ele>529.3</ele>
        <time>2018-09-14T20:26:56Z</time>
      </trkpt>
      <trkpt lat="-24.7424170" lon="-53.7456750">
        <ele>529.1</ele>
        <time>2018-09-14T20:26:57Z</time>
      </trkpt>
      <trkpt lat="-24.7423650" lon="-53.7456750">
        <ele>529.0</ele>
        <time>2018-09-14T20:26:58Z</time>
      </trkpt>
      <trkpt lat="-24.7422580" lon="-53.7456730">
        <ele>528.5</ele>
        <time>2018-09-14T20:26:59Z</time>
      </trkpt>
      <trkpt lat="-24.7422030" lon="-53.7456770">
        <ele>528.2</ele>
        <time>2018-09-14T20:27:01Z</time>
      </trkpt>
      <trkpt lat="-24.7421470" lon="-53.7456830">
        <ele>527.9</ele>
        <time>2018-09-14T20:27:02Z</time>
      </trkpt>
      <trkpt lat="-24.7420910" lon="-53.7456860">
        <ele>527.7</ele>
        <time>2018-09-14T20:27:03Z</time>
      </trkpt>
      <trkpt lat="-24.7420340" lon="-53.7456860">
        <ele>527.5</ele>
        <time>2018-09-14T20:27:04Z</time>
      </trkpt>
      <trkpt lat="-24.7419770" lon="-53.7456870">
        <ele>527.4</ele>
        <time>2018-09-14T20:27:05Z</time>
      </trkpt>
      <trkpt lat="-24.7419200" lon="-53.7456900">
        <ele>527.3</ele>
        <time>2018-09-14T20:27:06Z</time>
      </trkpt>
      <trkpt lat="-24.7418630" lon="-53.7456950">
        <ele>527.3</ele>
        <time>2018-09-14T20:27:07Z</time>
      </trkpt>
      <trkpt lat="-24.7418080" lon="-53.7457100">
        <ele>527.2</ele>
        <time>2018-09-14T20:27:08Z</time>
      </trkpt>
      <trkpt lat="-24.7417580" lon="-53.7457340">
        <ele>527.1</ele>
        <time>2018-09-14T20:27:09Z</time>
      </trkpt>
      <trkpt lat="-24.7417120" lon="-53.7457660">
        <ele>527.1</ele>
        <time>2018-09-14T20:27:10Z</time>
      </trkpt>
      <trkpt lat="-24.7416690" lon="-53.7458030">
        <ele>527.1</ele>
        <time>2018-09-14T20:27:11Z</time>
      </trkpt>
      <trkpt lat="-24.7416320" lon="-53.7458440">
        <ele>527.0</ele>
        <time>2018-09-14T20:27:12Z</time>
      </trkpt>
      <trkpt lat="-24.7415980" lon="-53.7458850">
        <ele>527.0</ele>
        <time>2018-09-14T20:27:13Z</time>
      </trkpt>
      <trkpt lat="-24.7415650" lon="-53.7459230">
        <ele>527.0</ele>
        <time>2018-09-14T20:27:14Z</time>
      </trkpt>
      <trkpt lat="-24.7415350" lon="-53.7459600">
        <ele>527.0</ele>
        <time>2018-09-14T20:27:15Z</time>
      </trkpt>
      <trkpt lat="-24.7415070" lon="-53.7459960">
        <ele>527.0</ele>
        <time>2018-09-14T20:27:16Z</time>
      </trkpt>
      <trkpt lat="-24.7414800" lon="-53.7460300">
        <ele>527.0</ele>
        <time>2018-09-14T20:27:17Z</time>
      </trkpt>
      <trkpt lat="-24.7414550" lon="-53.7460600">
        <ele>527.0</ele>
        <time>2018-09-14T20:27:18Z</time>
      </trkpt>
      <trkpt lat="-24.7414300" lon="-53.7460860">
        <ele>527.0</ele>
        <time>2018-09-14T20:27:19Z</time>
      </trkpt>
      <trkpt lat="-24.7413820" lon="-53.7461420">
        <ele>527.0</ele>
        <time>2018-09-14T20:27:20Z</time>
      </trkpt>
      <trkpt lat="-24.7413590" lon="-53.7461710">
        <ele>527.0</ele>
        <time>2018-09-14T20:27:21Z</time>
      </trkpt>
      <trkpt lat="-24.7413370" lon="-53.7462000">
        <ele>526.9</ele>
        <time>2018-09-14T20:27:22Z</time>
      </trkpt>
      <trkpt lat="-24.7413130" lon="-53.7462270">
        <ele>526.9</ele>
        <time>2018-09-14T20:27:23Z</time>
      </trkpt>
      <trkpt lat="-24.7412920" lon="-53.7462560">
        <ele>526.9</ele>
        <time>2018-09-14T20:27:24Z</time>
      </trkpt>
      <trkpt lat="-24.7412670" lon="-53.7462850">
        <ele>526.9</ele>
        <time>2018-09-14T20:27:25Z</time>
      </trkpt>
      <trkpt lat="-24.7412430" lon="-53.7463140">
        <ele>526.9</ele>
        <time>2018-09-14T20:27:26Z</time>
      </trkpt>
      <trkpt lat="-24.7412150" lon="-53.7463450">
        <ele>526.9</ele>
        <time>2018-09-14T20:27:27Z</time>
      </trkpt>
      <trkpt lat="-24.7411850" lon="-53.7463770">
        <ele>526.9</ele>
        <time>2018-09-14T20:27:28Z</time>
      </trkpt>
      <trkpt lat="-24.7411590" lon="-53.7464130">
        <ele>526.9</ele>
        <time>2018-09-14T20:27:29Z</time>
      </trkpt>
      <trkpt lat="-24.7411290" lon="-53.7464490">
        <ele>526.9</ele>
        <time>2018-09-14T20:27:30Z</time>
      </trkpt>
      <trkpt lat="-24.7410980" lon="-53.7464820">
        <ele>526.9</ele>
        <time>2018-09-14T20:27:31Z</time>
      </trkpt>
      <trkpt lat="-24.7410690" lon="-53.7465080">
        <ele>526.9</ele>
        <time>2018-09-14T20:27:32Z</time>
      </trkpt>
      <trkpt lat="-24.7410360" lon="-53.7465400">
        <ele>526.9</ele>
        <time>2018-09-14T20:27:33Z</time>
      </trkpt>
      <trkpt lat="-24.7410030" lon="-53.7465700">
        <ele>526.9</ele>
        <time>2018-09-14T20:27:34Z</time>
      </trkpt>
      <trkpt lat="-24.7409720" lon="-53.7465990">
        <ele>526.9</ele>
        <time>2018-09-14T20:27:35Z</time>
      </trkpt>
      <trkpt lat="-24.7409230" lon="-53.7466670">
        <ele>526.9</ele>
        <time>2018-09-14T20:27:37Z</time>
      </trkpt>
      <trkpt lat="-24.7409000" lon="-53.7466990">
        <ele>526.9</ele>
        <time>2018-09-14T20:27:38Z</time>
      </trkpt>
      <trkpt lat="-24.7408760" lon="-53.7467280">
        <ele>526.8</ele>
        <time>2018-09-14T20:27:39Z</time>
      </trkpt>
      <trkpt lat="-24.7408570" lon="-53.7467580">
        <ele>526.8</ele>
        <time>2018-09-14T20:27:40Z</time>
      </trkpt>
      <trkpt lat="-24.7408260" lon="-53.7467830">
        <ele>526.8</ele>
        <time>2018-09-14T20:27:41Z</time>
      </trkpt>
      <trkpt lat="-24.7408000" lon="-53.7468080">
        <ele>526.8</ele>
        <time>2018-09-14T20:27:42Z</time>
      </trkpt>
      <trkpt lat="-24.7407740" lon="-53.7468350">
        <ele>526.8</ele>
        <time>2018-09-14T20:27:43Z</time>
      </trkpt>
      <trkpt lat="-24.7407520" lon="-53.7468640">
        <ele>526.8</ele>
        <time>2018-09-14T20:27:44Z</time>
      </trkpt>
      <trkpt lat="-24.7407270" lon="-53.7468910">
        <ele>526.8</ele>
        <time>2018-09-14T20:27:45Z</time>
      </trkpt>
      <trkpt lat="-24.7407070" lon="-53.7469150">
        <ele>526.8</ele>
        <time>2018-09-14T20:27:46Z</time>
      </trkpt>
      <trkpt lat="-24.7406870" lon="-53.7469400">
        <ele>526.8</ele>
        <time>2018-09-14T20:27:47Z</time>
      </trkpt>
      <trkpt lat="-24.7406620" lon="-53.7469670">
        <ele>526.8</ele>
        <time>2018-09-14T20:27:48Z</time>
      </trkpt>
      <trkpt lat="-24.7406410" lon="-53.7470020">
        <ele>526.8</ele>
        <time>2018-09-14T20:27:49Z</time>
      </trkpt>
      <trkpt lat="-24.7406120" lon="-53.7470320">
        <ele>526.8</ele>
        <time>2018-09-14T20:27:50Z</time>
      </trkpt>
      <trkpt lat="-24.7405890" lon="-53.7470610">
        <ele>526.8</ele>
        <time>2018-09-14T20:27:51Z</time>
      </trkpt>
      <trkpt lat="-24.7405680" lon="-53.7470900">
        <ele>526.8</ele>
        <time>2018-09-14T20:27:52Z</time>
      </trkpt>
      <trkpt lat="-24.7405480" lon="-53.7471240">
        <ele>526.8</ele>
        <time>2018-09-14T20:27:53Z</time>
      </trkpt>
      <trkpt lat="-24.7405270" lon="-53.7471560">
        <ele>526.8</ele>
        <time>2018-09-14T20:27:54Z</time>
      </trkpt>
      <trkpt lat="-24.7405060" lon="-53.7471880">
        <ele>526.8</ele>
        <time>2018-09-14T20:27:55Z</time>
      </trkpt>
      <trkpt lat="-24.7404850" lon="-53.7472190">
        <ele>526.8</ele>
        <time>2018-09-14T20:27:56Z</time>
      </trkpt>
      <trkpt lat="-24.7404610" lon="-53.7472510">
        <ele>526.8</ele>
        <time>2018-09-14T20:27:57Z</time>
      </trkpt>
      <trkpt lat="-24.7404380" lon="-53.7472820">
        <ele>526.8</ele>
        <time>2018-09-14T20:27:58Z</time>
      </trkpt>
      <trkpt lat="-24.7404140" lon="-53.7473120">
        <ele>526.8</ele>
        <time>2018-09-14T20:27:59Z</time>
      </trkpt>
      <trkpt lat="-24.7403900" lon="-53.7473420">
        <ele>526.8</ele>
        <time>2018-09-14T20:28:00Z</time>
      </trkpt>
      <trkpt lat="-24.7403650" lon="-53.7473710">
        <ele>526.8</ele>
        <time>2018-09-14T20:28:01Z</time>
      </trkpt>
      <trkpt lat="-24.7403410" lon="-53.7474000">
        <ele>526.8</ele>
        <time>2018-09-14T20:28:02Z</time>
      </trkpt>
      <trkpt lat="-24.7403170" lon="-53.7474290">
        <ele>526.8</ele>
        <time>2018-09-14T20:28:03Z</time>
      </trkpt>
      <trkpt lat="-24.7402920" lon="-53.7474580">
        <ele>526.8</ele>
        <time>2018-09-14T20:28:04Z</time>
      </trkpt>
      <trkpt lat="-24.7402680" lon="-53.7474870">
        <ele>526.8</ele>
        <time>2018-09-14T20:28:05Z</time>
      </trkpt>
      <trkpt lat="-24.7402440" lon="-53.7475160">
        <ele>526.8</ele>
        <time>2018-09-14T20:28:06Z</time>
      </trkpt>
      <trkpt lat="-24.7402180" lon="-53.7475440">
        <ele>526.8</ele>
        <time>2018-09-14T20:28:07Z</time>
      </trkpt>
      <trkpt lat="-24.7401930" lon="-53.7475710">
        <ele>526.8</ele>
        <time>2018-09-14T20:28:08Z</time>
      </trkpt>
      <trkpt lat="-24.7401680" lon="-53.7475960">
        <ele>526.8</ele>
        <time>2018-09-14T20:28:09Z</time>
      </trkpt>
      <trkpt lat="-24.7401440" lon="-53.7476210">
        <ele>526.8</ele>
        <time>2018-09-14T20:28:10Z</time>
      </trkpt>
      <trkpt lat="-24.7401190" lon="-53.7476470">
        <ele>526.9</ele>
        <time>2018-09-14T20:28:11Z</time>
      </trkpt>
      <trkpt lat="-24.7400950" lon="-53.7476740">
        <ele>526.9</ele>
        <time>2018-09-14T20:28:12Z</time>
      </trkpt>
      <trkpt lat="-24.7400740" lon="-53.7476960">
        <ele>527.0</ele>
        <time>2018-09-14T20:28:13Z</time>
      </trkpt>
      <trkpt lat="-24.7400550" lon="-53.7477160">
        <ele>527.0</ele>
        <time>2018-09-14T20:28:14Z</time>
      </trkpt>
      <trkpt lat="-24.7400410" lon="-53.7477440">
        <ele>527.1</ele>
        <time>2018-09-14T20:28:15Z</time>
      </trkpt>
      <trkpt lat="-24.7400260" lon="-53.7477670">
        <ele>527.1</ele>
        <time>2018-09-14T20:28:16Z</time>
      </trkpt>
      <trkpt lat="-24.7400090" lon="-53.7477880">
        <ele>527.2</ele>
        <time>2018-09-14T20:28:17Z</time>
      </trkpt>
      <trkpt lat="-24.7399890" lon="-53.7478080">
        <ele>527.2</ele>
        <time>2018-09-14T20:28:18Z</time>
      </trkpt>
      <trkpt lat="-24.7399720" lon="-53.7478290">
        <ele>527.3</ele>
        <time>2018-09-14T20:28:19Z</time>
      </trkpt>
      <trkpt lat="-24.7399590" lon="-53.7478460">
        <ele>527.4</ele>
        <time>2018-09-14T20:28:20Z</time>
      </trkpt>
      <trkpt lat="-24.7399410" lon="-53.7478670">
        <ele>527.5</ele>
        <time>2018-09-14T20:28:21Z</time>
      </trkpt>
      <trkpt lat="-24.7399310" lon="-53.7478920">
        <ele>527.6</ele>
        <time>2018-09-14T20:28:22Z</time>
      </trkpt>
      <trkpt lat="-24.7399150" lon="-53.7479120">
        <ele>527.8</ele>
        <time>2018-09-14T20:28:23Z</time>
      </trkpt>
      <trkpt lat="-24.7399030" lon="-53.7479350">
        <ele>528.0</ele>
        <time>2018-09-14T20:28:24Z</time>
      </trkpt>
      <trkpt lat="-24.7398950" lon="-53.7479670">
        <ele>528.2</ele>
        <time>2018-09-14T20:28:25Z</time>
      </trkpt>
      <trkpt lat="-24.7398770" lon="-53.7479930">
        <ele>528.4</ele>
        <time>2018-09-14T20:28:26Z</time>
      </trkpt>
      <trkpt lat="-24.7398610" lon="-53.7480160">
        <ele>528.5</ele>
        <time>2018-09-14T20:28:27Z</time>
      </trkpt>
      <trkpt lat="-24.7398390" lon="-53.7480370">
        <ele>528.7</ele>
        <time>2018-09-14T20:28:28Z</time>
      </trkpt>
      <trkpt lat="-24.7398210" lon="-53.7480580">
        <ele>528.8</ele>
        <time>2018-09-14T20:28:29Z</time>
      </trkpt>
      <trkpt lat="-24.7398040" lon="-53.7480800">
        <ele>528.8</ele>
        <time>2018-09-14T20:28:30Z</time>
      </trkpt>
      <trkpt lat="-24.7397850" lon="-53.7481070">
        <ele>528.9</ele>
        <time>2018-09-14T20:28:31Z</time>
      </trkpt>
      <trkpt lat="-24.7397680" lon="-53.7481300">
        <ele>529.0</ele>
        <time>2018-09-14T20:28:32Z</time>
      </trkpt>
      <trkpt lat="-24.7397540" lon="-53.7481550">
        <ele>529.1</ele>
        <time>2018-09-14T20:28:33Z</time>
      </trkpt>
      <trkpt lat="-24.7397380" lon="-53.7481870">
        <ele>529.2</ele>
        <time>2018-09-14T20:28:34Z</time>
      </trkpt>
      <trkpt lat="-24.7397220" lon="-53.7482110">
        <ele>529.3</ele>
        <time>2018-09-14T20:28:35Z</time>
      </trkpt>
      <trkpt lat="-24.7397040" lon="-53.7482390">
        <ele>529.3</ele>
        <time>2018-09-14T20:28:36Z</time>
      </trkpt>
      <trkpt lat="-24.7396870" lon="-53.7482650">
        <ele>529.5</ele>
        <time>2018-09-14T20:28:37Z</time>
      </trkpt>
      <trkpt lat="-24.7396700" lon="-53.7482970">
        <ele>529.8</ele>
        <time>2018-09-14T20:28:38Z</time>
      </trkpt>
      <trkpt lat="-24.7396530" lon="-53.7483270">
        <ele>530.0</ele>
        <time>2018-09-14T20:28:39Z</time>
      </trkpt>
      <trkpt lat="-24.7396360" lon="-53.7483500">
        <ele>530.2</ele>
        <time>2018-09-14T20:28:40Z</time>
      </trkpt>
      <trkpt lat="-24.7396190" lon="-53.7483740">
        <ele>530.4</ele>
        <time>2018-09-14T20:28:41Z</time>
      </trkpt>
      <trkpt lat="-24.7396050" lon="-53.7483980">
        <ele>530.5</ele>
        <time>2018-09-14T20:28:42Z</time>
      </trkpt>
      <trkpt lat="-24.7395900" lon="-53.7484230">
        <ele>530.6</ele>
        <time>2018-09-14T20:28:43Z</time>
      </trkpt>
      <trkpt lat="-24.7395760" lon="-53.7484530">
        <ele>530.7</ele>
        <time>2018-09-14T20:28:44Z</time>
      </trkpt>
      <trkpt lat="-24.7395620" lon="-53.7484750">
        <ele>530.8</ele>
        <time>2018-09-14T20:28:45Z</time>
      </trkpt>
      <trkpt lat="-24.7395480" lon="-53.7484970">
        <ele>530.9</ele>
        <time>2018-09-14T20:28:46Z</time>
      </trkpt>
      <trkpt lat="-24.7395340" lon="-53.7485200">
        <ele>531.0</ele>
        <time>2018-09-14T20:28:47Z</time>
      </trkpt>
      <trkpt lat="-24.7395200" lon="-53.7485420">
        <ele>531.1</ele>
        <time>2018-09-14T20:28:48Z</time>
      </trkpt>
      <trkpt lat="-24.7395080" lon="-53.7485630">
        <ele>531.2</ele>
        <time>2018-09-14T20:28:49Z</time>
      </trkpt>
      <trkpt lat="-24.7394950" lon="-53.7485870">
        <ele>531.4</ele>
        <time>2018-09-14T20:28:50Z</time>
      </trkpt>
      <trkpt lat="-24.7394830" lon="-53.7486110">
        <ele>531.5</ele>
        <time>2018-09-14T20:28:51Z</time>
      </trkpt>
      <trkpt lat="-24.7394730" lon="-53.7486350">
        <ele>531.8</ele>
        <time>2018-09-14T20:28:52Z</time>
      </trkpt>
      <trkpt lat="-24.7394610" lon="-53.7486570">
        <ele>532.0</ele>
        <time>2018-09-14T20:28:53Z</time>
      </trkpt>
      <trkpt lat="-24.7394480" lon="-53.7486770">
        <ele>532.2</ele>
        <time>2018-09-14T20:28:54Z</time>
      </trkpt>
      <trkpt lat="-24.7394360" lon="-53.7486980">
        <ele>532.5</ele>
        <time>2018-09-14T20:28:55Z</time>
      </trkpt>
      <trkpt lat="-24.7394230" lon="-53.7487240">
        <ele>532.7</ele>
        <time>2018-09-14T20:28:56Z</time>
      </trkpt>
      <trkpt lat="-24.7394080" lon="-53.7487480">
        <ele>532.8</ele>
        <time>2018-09-14T20:28:57Z</time>
      </trkpt>
      <trkpt lat="-24.7393910" lon="-53.7487690">
        <ele>532.9</ele>
        <time>2018-09-14T20:28:58Z</time>
      </trkpt>
      <trkpt lat="-24.7393740" lon="-53.7487900">
        <ele>533.1</ele>
        <time>2018-09-14T20:28:59Z</time>
      </trkpt>
      <trkpt lat="-24.7393590" lon="-53.7488110">
        <ele>533.2</ele>
        <time>2018-09-14T20:29:00Z</time>
      </trkpt>
      <trkpt lat="-24.7393430" lon="-53.7488320">
        <ele>533.3</ele>
        <time>2018-09-14T20:29:01Z</time>
      </trkpt>
      <trkpt lat="-24.7393260" lon="-53.7488550">
        <ele>533.6</ele>
        <time>2018-09-14T20:29:02Z</time>
      </trkpt>
      <trkpt lat="-24.7393100" lon="-53.7488760">
        <ele>533.8</ele>
        <time>2018-09-14T20:29:03Z</time>
      </trkpt>
      <trkpt lat="-24.7392930" lon="-53.7488950">
        <ele>534.0</ele>
        <time>2018-09-14T20:29:04Z</time>
      </trkpt>
      <trkpt lat="-24.7392740" lon="-53.7489140">
        <ele>534.2</ele>
        <time>2018-09-14T20:29:05Z</time>
      </trkpt>
      <trkpt lat="-24.7392550" lon="-53.7489310">
        <ele>534.3</ele>
        <time>2018-09-14T20:29:06Z</time>
      </trkpt>
      <trkpt lat="-24.7392350" lon="-53.7489430">
        <ele>534.4</ele>
        <time>2018-09-14T20:29:07Z</time>
      </trkpt>
      <trkpt lat="-24.7392160" lon="-53.7489600">
        <ele>534.5</ele>
        <time>2018-09-14T20:29:08Z</time>
      </trkpt>
      <trkpt lat="-24.7391980" lon="-53.7489780">
        <ele>534.6</ele>
        <time>2018-09-14T20:29:09Z</time>
      </trkpt>
      <trkpt lat="-24.7391800" lon="-53.7489940">
        <ele>534.7</ele>
        <time>2018-09-14T20:29:10Z</time>
      </trkpt>
      <trkpt lat="-24.7391620" lon="-53.7490090">
        <ele>534.7</ele>
        <time>2018-09-14T20:29:11Z</time>
      </trkpt>
      <trkpt lat="-24.7391430" lon="-53.7490250">
        <ele>534.8</ele>
        <time>2018-09-14T20:29:12Z</time>
      </trkpt>
      <trkpt lat="-24.7391220" lon="-53.7490360">
        <ele>534.9</ele>
        <time>2018-09-14T20:29:13Z</time>
      </trkpt>
      <trkpt lat="-24.7391020" lon="-53.7490460">
        <ele>534.9</ele>
        <time>2018-09-14T20:29:14Z</time>
      </trkpt>
      <trkpt lat="-24.7390840" lon="-53.7490550">
        <ele>535.0</ele>
        <time>2018-09-14T20:29:15Z</time>
      </trkpt>
      <trkpt lat="-24.7390650" lon="-53.7490640">
        <ele>535.1</ele>
        <time>2018-09-14T20:29:16Z</time>
      </trkpt>
      <trkpt lat="-24.7390460" lon="-53.7490740">
        <ele>535.2</ele>
        <time>2018-09-14T20:29:17Z</time>
      </trkpt>
      <trkpt lat="-24.7390260" lon="-53.7490840">
        <ele>535.2</ele>
        <time>2018-09-14T20:29:18Z</time>
      </trkpt>
      <trkpt lat="-24.7390050" lon="-53.7490920">
        <ele>535.3</ele>
        <time>2018-09-14T20:29:19Z</time>
      </trkpt>
      <trkpt lat="-24.7389820" lon="-53.7491050">
        <ele>535.5</ele>
        <time>2018-09-14T20:29:20Z</time>
      </trkpt>
      <trkpt lat="-24.7389600" lon="-53.7491170">
        <ele>535.7</ele>
        <time>2018-09-14T20:29:21Z</time>
      </trkpt>
      <trkpt lat="-24.7389600" lon="-53.7491170">
        <ele>535.7</ele>
        <time>2018-09-14T20:29:22Z</time>
      </trkpt>
      <trkpt lat="-24.7389350" lon="-53.7491270">
        <ele>535.8</ele>
        <time>2018-09-14T20:29:23Z</time>
      </trkpt>
      <trkpt lat="-24.7389110" lon="-53.7491380">
        <ele>536.0</ele>
        <time>2018-09-14T20:29:24Z</time>
      </trkpt>
      <trkpt lat="-24.7388880" lon="-53.7491470">
        <ele>536.1</ele>
        <time>2018-09-14T20:29:25Z</time>
      </trkpt>
      <trkpt lat="-24.7388640" lon="-53.7491540">
        <ele>536.2</ele>
        <time>2018-09-14T20:29:26Z</time>
      </trkpt>
      <trkpt lat="-24.7388400" lon="-53.7491580">
        <ele>536.3</ele>
        <time>2018-09-14T20:29:27Z</time>
      </trkpt>
      <trkpt lat="-24.7388140" lon="-53.7491630">
        <ele>536.3</ele>
        <time>2018-09-14T20:29:28Z</time>
      </trkpt>
      <trkpt lat="-24.7387860" lon="-53.7491640">
        <ele>536.3</ele>
        <time>2018-09-14T20:29:29Z</time>
      </trkpt>
      <trkpt lat="-24.7387610" lon="-53.7491690">
        <ele>536.4</ele>
        <time>2018-09-14T20:29:30Z</time>
      </trkpt>
      <trkpt lat="-24.7387370" lon="-53.7491710">
        <ele>536.4</ele>
        <time>2018-09-14T20:29:31Z</time>
      </trkpt>
      <trkpt lat="-24.7387110" lon="-53.7491740">
        <ele>536.4</ele>
        <time>2018-09-14T20:29:32Z</time>
      </trkpt>
      <trkpt lat="-24.7386820" lon="-53.7491780">
        <ele>536.5</ele>
        <time>2018-09-14T20:29:33Z</time>
      </trkpt>
      <trkpt lat="-24.7386530" lon="-53.7491800">
        <ele>536.5</ele>
        <time>2018-09-14T20:29:34Z</time>
      </trkpt>
      <trkpt lat="-24.7386200" lon="-53.7491870">
        <ele>536.5</ele>
        <time>2018-09-14T20:29:35Z</time>
      </trkpt>
      <trkpt lat="-24.7385820" lon="-53.7491880">
        <ele>536.5</ele>
        <time>2018-09-14T20:29:36Z</time>
      </trkpt>
      <trkpt lat="-24.7385440" lon="-53.7491910">
        <ele>536.5</ele>
        <time>2018-09-14T20:29:37Z</time>
      </trkpt>
      <trkpt lat="-24.7385060" lon="-53.7491930">
        <ele>536.5</ele>
        <time>2018-09-14T20:29:38Z</time>
      </trkpt>
      <trkpt lat="-24.7384690" lon="-53.7491900">
        <ele>536.5</ele>
        <time>2018-09-14T20:29:39Z</time>
      </trkpt>
      <trkpt lat="-24.7384290" lon="-53.7491890">
        <ele>536.6</ele>
        <time>2018-09-14T20:29:40Z</time>
      </trkpt>
      <trkpt lat="-24.7383870" lon="-53.7491900">
        <ele>536.6</ele>
        <time>2018-09-14T20:29:41Z</time>
      </trkpt>
      <trkpt lat="-24.7383450" lon="-53.7491910">
        <ele>536.6</ele>
        <time>2018-09-14T20:29:42Z</time>
      </trkpt>
      <trkpt lat="-24.7383030" lon="-53.7491920">
        <ele>536.6</ele>
        <time>2018-09-14T20:29:43Z</time>
      </trkpt>
      <trkpt lat="-24.7382600" lon="-53.7491910">
        <ele>536.6</ele>
        <time>2018-09-14T20:29:44Z</time>
      </trkpt>
      <trkpt lat="-24.7382170" lon="-53.7491900">
        <ele>536.6</ele>
        <time>2018-09-14T20:29:45Z</time>
      </trkpt>
      <trkpt lat="-24.7381740" lon="-53.7491920">
        <ele>536.6</ele>
        <time>2018-09-14T20:29:46Z</time>
      </trkpt>
      <trkpt lat="-24.7381320" lon="-53.7491920">
        <ele>536.6</ele>
        <time>2018-09-14T20:29:47Z</time>
      </trkpt>
      <trkpt lat="-24.7380890" lon="-53.7491940">
        <ele>536.6</ele>
        <time>2018-09-14T20:29:48Z</time>
      </trkpt>
      <trkpt lat="-24.7380460" lon="-53.7491940">
        <ele>536.6</ele>
        <time>2018-09-14T20:29:49Z</time>
      </trkpt>
      <trkpt lat="-24.7380060" lon="-53.7491940">
        <ele>536.6</ele>
        <time>2018-09-14T20:29:50Z</time>
      </trkpt>
      <trkpt lat="-24.7379670" lon="-53.7491900">
        <ele>536.6</ele>
        <time>2018-09-14T20:29:51Z</time>
      </trkpt>
      <trkpt lat="-24.7379280" lon="-53.7491830">
        <ele>536.6</ele>
        <time>2018-09-14T20:29:52Z</time>
      </trkpt>
      <trkpt lat="-24.7378870" lon="-53.7491750">
        <ele>536.5</ele>
        <time>2018-09-14T20:29:53Z</time>
      </trkpt>
      <trkpt lat="-24.7378480" lon="-53.7491730">
        <ele>536.5</ele>
        <time>2018-09-14T20:29:54Z</time>
      </trkpt>
      <trkpt lat="-24.7378120" lon="-53.7491730">
        <ele>536.5</ele>
        <time>2018-09-14T20:29:55Z</time>
      </trkpt>
      <trkpt lat="-24.7377750" lon="-53.7491720">
        <ele>536.5</ele>
        <time>2018-09-14T20:29:56Z</time>
      </trkpt>
      <trkpt lat="-24.7377400" lon="-53.7491720">
        <ele>536.5</ele>
        <time>2018-09-14T20:29:57Z</time>
      </trkpt>
      <trkpt lat="-24.7377070" lon="-53.7491700">
        <ele>536.5</ele>
        <time>2018-09-14T20:29:58Z</time>
      </trkpt>
      <trkpt lat="-24.7376770" lon="-53.7491680">
        <ele>536.5</ele>
        <time>2018-09-14T20:29:59Z</time>
      </trkpt>
      <trkpt lat="-24.7376470" lon="-53.7491660">
        <ele>536.5</ele>
        <time>2018-09-14T20:30:00Z</time>
      </trkpt>
      <trkpt lat="-24.7376180" lon="-53.7491650">
        <ele>536.5</ele>
        <time>2018-09-14T20:30:01Z</time>
      </trkpt>
      <trkpt lat="-24.7375910" lon="-53.7491630">
        <ele>536.5</ele>
        <time>2018-09-14T20:30:02Z</time>
      </trkpt>
      <trkpt lat="-24.7375660" lon="-53.7491630">
        <ele>536.5</ele>
        <time>2018-09-14T20:30:03Z</time>
      </trkpt>
      <trkpt lat="-24.7375470" lon="-53.7491620">
        <ele>536.5</ele>
        <time>2018-09-14T20:30:04Z</time>
      </trkpt>
      <trkpt lat="-24.7375270" lon="-53.7491650">
        <ele>536.5</ele>
        <time>2018-09-14T20:30:05Z</time>
      </trkpt>
      <trkpt lat="-24.7374980" lon="-53.7491640">
        <ele>536.5</ele>
        <time>2018-09-14T20:30:06Z</time>
      </trkpt>
      <trkpt lat="-24.7374680" lon="-53.7491610">
        <ele>536.4</ele>
        <time>2018-09-14T20:30:07Z</time>
      </trkpt>
      <trkpt lat="-24.7374380" lon="-53.7491670">
        <ele>536.4</ele>
        <time>2018-09-14T20:30:08Z</time>
      </trkpt>
      <trkpt lat="-24.7374060" lon="-53.7491670">
        <ele>536.4</ele>
        <time>2018-09-14T20:30:09Z</time>
      </trkpt>
      <trkpt lat="-24.7373840" lon="-53.7491580">
        <ele>536.4</ele>
        <time>2018-09-14T20:30:10Z</time>
      </trkpt>
      <trkpt lat="-24.7373590" lon="-53.7491570">
        <ele>536.4</ele>
        <time>2018-09-14T20:30:11Z</time>
      </trkpt>
      <trkpt lat="-24.7373330" lon="-53.7491560">
        <ele>536.4</ele>
        <time>2018-09-14T20:30:12Z</time>
      </trkpt>
      <trkpt lat="-24.7373200" lon="-53.7491600">
        <ele>536.4</ele>
        <time>2018-09-14T20:30:13Z</time>
      </trkpt>
      <trkpt lat="-24.7373090" lon="-53.7491720">
        <ele>536.4</ele>
        <time>2018-09-14T20:30:14Z</time>
      </trkpt>
      <trkpt lat="-24.7372880" lon="-53.7491770">
        <ele>536.4</ele>
        <time>2018-09-14T20:30:15Z</time>
      </trkpt>
      <trkpt lat="-24.7372620" lon="-53.7491830">
        <ele>536.4</ele>
        <time>2018-09-14T20:30:16Z</time>
      </trkpt>
      <trkpt lat="-24.7372440" lon="-53.7491860">
        <ele>536.4</ele>
        <time>2018-09-14T20:30:17Z</time>
      </trkpt>
      <trkpt lat="-24.7372220" lon="-53.7491930">
        <ele>536.4</ele>
        <time>2018-09-14T20:30:18Z</time>
      </trkpt>
      <trkpt lat="-24.7371990" lon="-53.7491960">
        <ele>536.4</ele>
        <time>2018-09-14T20:30:19Z</time>
      </trkpt>
      <trkpt lat="-24.7371820" lon="-53.7491960">
        <ele>536.4</ele>
        <time>2018-09-14T20:30:20Z</time>
      </trkpt>
      <trkpt lat="-24.7371640" lon="-53.7492040">
        <ele>536.4</ele>
        <time>2018-09-14T20:30:21Z</time>
      </trkpt>
      <trkpt lat="-24.7371410" lon="-53.7492180">
        <ele>536.4</ele>
        <time>2018-09-14T20:30:22Z</time>
      </trkpt>
      <trkpt lat="-24.7371140" lon="-53.7492280">
        <ele>536.4</ele>
        <time>2018-09-14T20:30:23Z</time>
      </trkpt>
      <trkpt lat="-24.7370930" lon="-53.7492410">
        <ele>536.4</ele>
        <time>2018-09-14T20:30:24Z</time>
      </trkpt>
      <trkpt lat="-24.7370700" lon="-53.7492460">
        <ele>536.4</ele>
        <time>2018-09-14T20:30:25Z</time>
      </trkpt>
      <trkpt lat="-24.7370260" lon="-53.7492520">
        <ele>536.4</ele>
        <time>2018-09-14T20:30:26Z</time>
      </trkpt>
      <trkpt lat="-24.7369780" lon="-53.7492590">
        <ele>536.4</ele>
        <time>2018-09-14T20:30:27Z</time>
      </trkpt>
      <trkpt lat="-24.7369420" lon="-53.7492610">
        <ele>536.4</ele>
        <time>2018-09-14T20:30:28Z</time>
      </trkpt>
      <trkpt lat="-24.7369030" lon="-53.7492640">
        <ele>536.4</ele>
        <time>2018-09-14T20:30:29Z</time>
      </trkpt>
      <trkpt lat="-24.7368690" lon="-53.7492750">
        <ele>536.4</ele>
        <time>2018-09-14T20:30:30Z</time>
      </trkpt>
      <trkpt lat="-24.7368350" lon="-53.7492800">
        <ele>536.4</ele>
        <time>2018-09-14T20:30:31Z</time>
      </trkpt>
      <trkpt lat="-24.7368140" lon="-53.7492870">
        <ele>536.4</ele>
        <time>2018-09-14T20:30:32Z</time>
      </trkpt>
      <trkpt lat="-24.7367920" lon="-53.7492960">
        <ele>536.4</ele>
        <time>2018-09-14T20:30:33Z</time>
      </trkpt>
      <trkpt lat="-24.7367660" lon="-53.7493080">
        <ele>536.4</ele>
        <time>2018-09-14T20:30:34Z</time>
      </trkpt>
      <trkpt lat="-24.7367390" lon="-53.7493230">
        <ele>536.4</ele>
        <time>2018-09-14T20:30:35Z</time>
      </trkpt>
      <trkpt lat="-24.7367160" lon="-53.7493260">
        <ele>536.4</ele>
        <time>2018-09-14T20:30:36Z</time>
      </trkpt>
      <trkpt lat="-24.7366960" lon="-53.7493340">
        <ele>536.5</ele>
        <time>2018-09-14T20:30:37Z</time>
      </trkpt>
      <trkpt lat="-24.7366740" lon="-53.7493370">
        <ele>536.5</ele>
        <time>2018-09-14T20:30:38Z</time>
      </trkpt>
      <trkpt lat="-24.7366560" lon="-53.7493420">
        <ele>536.5</ele>
        <time>2018-09-14T20:30:39Z</time>
      </trkpt>
      <trkpt lat="-24.7366330" lon="-53.7493440">
        <ele>536.5</ele>
        <time>2018-09-14T20:30:40Z</time>
      </trkpt>
      <trkpt lat="-24.7366130" lon="-53.7493430">
        <ele>536.5</ele>
        <time>2018-09-14T20:30:41Z</time>
      </trkpt>
      <trkpt lat="-24.7365940" lon="-53.7493420">
        <ele>536.6</ele>
        <time>2018-09-14T20:30:42Z</time>
      </trkpt>
      <trkpt lat="-24.7365760" lon="-53.7493480">
        <ele>536.6</ele>
        <time>2018-09-14T20:30:43Z</time>
      </trkpt>
      <trkpt lat="-24.7365580" lon="-53.7493450">
        <ele>536.6</ele>
        <time>2018-09-14T20:30:44Z</time>
      </trkpt>
      <trkpt lat="-24.7365440" lon="-53.7493480">
        <ele>536.6</ele>
        <time>2018-09-14T20:30:45Z</time>
      </trkpt>
      <trkpt lat="-24.7365260" lon="-53.7493580">
        <ele>536.7</ele>
        <time>2018-09-14T20:30:46Z</time>
      </trkpt>
      <trkpt lat="-24.7365110" lon="-53.7493610">
        <ele>536.7</ele>
        <time>2018-09-14T20:30:47Z</time>
      </trkpt>
      <trkpt lat="-24.7364960" lon="-53.7493680">
        <ele>536.7</ele>
        <time>2018-09-14T20:30:48Z</time>
      </trkpt>
      <trkpt lat="-24.7364780" lon="-53.7493740">
        <ele>536.8</ele>
        <time>2018-09-14T20:30:49Z</time>
      </trkpt>
      <trkpt lat="-24.7364550" lon="-53.7493770">
        <ele>536.9</ele>
        <time>2018-09-14T20:30:50Z</time>
      </trkpt>
      <trkpt lat="-24.7364360" lon="-53.7493740">
        <ele>536.9</ele>
        <time>2018-09-14T20:30:51Z</time>
      </trkpt>
      <trkpt lat="-24.7364160" lon="-53.7493800">
        <ele>537.0</ele>
        <time>2018-09-14T20:30:52Z</time>
      </trkpt>
      <trkpt lat="-24.7364000" lon="-53.7493920">
        <ele>537.1</ele>
        <time>2018-09-14T20:30:53Z</time>
      </trkpt>
      <trkpt lat="-24.7363830" lon="-53.7493990">
        <ele>537.2</ele>
        <time>2018-09-14T20:30:54Z</time>
      </trkpt>
      <trkpt lat="-24.7363670" lon="-53.7494110">
        <ele>537.4</ele>
        <time>2018-09-14T20:30:55Z</time>
      </trkpt>
      <trkpt lat="-24.7363530" lon="-53.7494230">
        <ele>537.5</ele>
        <time>2018-09-14T20:30:56Z</time>
      </trkpt>
      <trkpt lat="-24.7363400" lon="-53.7494250">
        <ele>537.6</ele>
        <time>2018-09-14T20:30:57Z</time>
      </trkpt>
      <trkpt lat="-24.7363280" lon="-53.7494300">
        <ele>537.7</ele>
        <time>2018-09-14T20:30:58Z</time>
      </trkpt>
      <trkpt lat="-24.7363020" lon="-53.7494450">
        <ele>537.9</ele>
        <time>2018-09-14T20:30:59Z</time>
      </trkpt>
      <trkpt lat="-24.7362820" lon="-53.7494480">
        <ele>538.0</ele>
        <time>2018-09-14T20:31:01Z</time>
      </trkpt>
      <trkpt lat="-24.7362690" lon="-53.7494500">
        <ele>538.1</ele>
        <time>2018-09-14T20:31:02Z</time>
      </trkpt>
      <trkpt lat="-24.7362560" lon="-53.7494570">
        <ele>538.2</ele>
        <time>2018-09-14T20:31:03Z</time>
      </trkpt>
      <trkpt lat="-24.7362440" lon="-53.7494630">
        <ele>538.2</ele>
        <time>2018-09-14T20:31:04Z</time>
      </trkpt>
      <trkpt lat="-24.7362290" lon="-53.7494690">
        <ele>538.3</ele>
        <time>2018-09-14T20:31:05Z</time>
      </trkpt>
      <trkpt lat="-24.7362210" lon="-53.7494740">
        <ele>538.3</ele>
        <time>2018-09-14T20:31:06Z</time>
      </trkpt>
      <trkpt lat="-24.7361990" lon="-53.7494820">
        <ele>538.4</ele>
        <time>2018-09-14T20:31:07Z</time>
      </trkpt>
      <trkpt lat="-24.7361810" lon="-53.7494840">
        <ele>538.4</ele>
        <time>2018-09-14T20:31:08Z</time>
      </trkpt>
      <trkpt lat="-24.7361630" lon="-53.7494880">
        <ele>538.5</ele>
        <time>2018-09-14T20:31:09Z</time>
      </trkpt>
      <trkpt lat="-24.7361510" lon="-53.7494900">
        <ele>538.5</ele>
        <time>2018-09-14T20:31:10Z</time>
      </trkpt>
      <trkpt lat="-24.7361410" lon="-53.7495000">
        <ele>538.6</ele>
        <time>2018-09-14T20:31:11Z</time>
      </trkpt>
      <trkpt lat="-24.7361270" lon="-53.7495060">
        <ele>538.6</ele>
        <time>2018-09-14T20:31:12Z</time>
      </trkpt>
      <trkpt lat="-24.7361120" lon="-53.7495190">
        <ele>538.7</ele>
        <time>2018-09-14T20:31:13Z</time>
      </trkpt>
      <trkpt lat="-24.7361000" lon="-53.7495250">
        <ele>538.7</ele>
        <time>2018-09-14T20:31:14Z</time>
      </trkpt>
      <trkpt lat="-24.7360860" lon="-53.7495340">
        <ele>538.8</ele>
        <time>2018-09-14T20:31:15Z</time>
      </trkpt>
      <trkpt lat="-24.7360750" lon="-53.7495440">
        <ele>538.8</ele>
        <time>2018-09-14T20:31:16Z</time>
      </trkpt>
      <trkpt lat="-24.7360640" lon="-53.7495590">
        <ele>538.9</ele>
        <time>2018-09-14T20:31:17Z</time>
      </trkpt>
      <trkpt lat="-24.7360530" lon="-53.7495700">
        <ele>539.1</ele>
        <time>2018-09-14T20:31:18Z</time>
      </trkpt>
      <trkpt lat="-24.7360360" lon="-53.7495790">
        <ele>539.3</ele>
        <time>2018-09-14T20:31:19Z</time>
      </trkpt>
      <trkpt lat="-24.7360200" lon="-53.7495860">
        <ele>539.4</ele>
        <time>2018-09-14T20:31:20Z</time>
      </trkpt>
      <trkpt lat="-24.7360020" lon="-53.7495970">
        <ele>539.6</ele>
        <time>2018-09-14T20:31:21Z</time>
      </trkpt>
      <trkpt lat="-24.7359850" lon="-53.7496050">
        <ele>539.9</ele>
        <time>2018-09-14T20:31:22Z</time>
      </trkpt>
      <trkpt lat="-24.7359660" lon="-53.7496120">
        <ele>540.1</ele>
        <time>2018-09-14T20:31:23Z</time>
      </trkpt>
      <trkpt lat="-24.7359290" lon="-53.7496260">
        <ele>540.3</ele>
        <time>2018-09-14T20:31:24Z</time>
      </trkpt>
      <trkpt lat="-24.7359120" lon="-53.7496330">
        <ele>540.5</ele>
        <time>2018-09-14T20:31:25Z</time>
      </trkpt>
      <trkpt lat="-24.7358970" lon="-53.7496410">
        <ele>540.6</ele>
        <time>2018-09-14T20:31:26Z</time>
      </trkpt>
      <trkpt lat="-24.7358830" lon="-53.7496490">
        <ele>540.8</ele>
        <time>2018-09-14T20:31:27Z</time>
      </trkpt>
      <trkpt lat="-24.7358720" lon="-53.7496570">
        <ele>540.9</ele>
        <time>2018-09-14T20:31:28Z</time>
      </trkpt>
      <trkpt lat="-24.7358620" lon="-53.7496680">
        <ele>541.1</ele>
        <time>2018-09-14T20:31:29Z</time>
      </trkpt>
      <trkpt lat="-24.7358500" lon="-53.7496780">
        <ele>541.3</ele>
        <time>2018-09-14T20:31:30Z</time>
      </trkpt>
      <trkpt lat="-24.7358360" lon="-53.7496850">
        <ele>541.4</ele>
        <time>2018-09-14T20:31:31Z</time>
      </trkpt>
      <trkpt lat="-24.7358100" lon="-53.7497000">
        <ele>541.8</ele>
        <time>2018-09-14T20:31:33Z</time>
      </trkpt>
      <trkpt lat="-24.7357940" lon="-53.7497080">
        <ele>542.0</ele>
        <time>2018-09-14T20:31:34Z</time>
      </trkpt>
      <trkpt lat="-24.7357800" lon="-53.7497160">
        <ele>542.1</ele>
        <time>2018-09-14T20:31:35Z</time>
      </trkpt>
      <trkpt lat="-24.7357640" lon="-53.7497240">
        <ele>542.2</ele>
        <time>2018-09-14T20:31:36Z</time>
      </trkpt>
      <trkpt lat="-24.7357530" lon="-53.7497340">
        <ele>542.3</ele>
        <time>2018-09-14T20:31:37Z</time>
      </trkpt>
      <trkpt lat="-24.7357400" lon="-53.7497410">
        <ele>542.3</ele>
        <time>2018-09-14T20:31:38Z</time>
      </trkpt>
      <trkpt lat="-24.7357280" lon="-53.7497500">
        <ele>542.4</ele>
        <time>2018-09-14T20:31:39Z</time>
      </trkpt>
      <trkpt lat="-24.7357160" lon="-53.7497610">
        <ele>542.5</ele>
        <time>2018-09-14T20:31:40Z</time>
      </trkpt>
      <trkpt lat="-24.7357050" lon="-53.7497710">
        <ele>542.6</ele>
        <time>2018-09-14T20:31:41Z</time>
      </trkpt>
      <trkpt lat="-24.7356940" lon="-53.7497770">
        <ele>542.8</ele>
        <time>2018-09-14T20:31:42Z</time>
      </trkpt>
      <trkpt lat="-24.7356820" lon="-53.7497890">
        <ele>542.9</ele>
        <time>2018-09-14T20:31:43Z</time>
      </trkpt>
      <trkpt lat="-24.7356700" lon="-53.7497950">
        <ele>543.1</ele>
        <time>2018-09-14T20:31:44Z</time>
      </trkpt>
      <trkpt lat="-24.7356560" lon="-53.7498050">
        <ele>543.2</ele>
        <time>2018-09-14T20:31:45Z</time>
      </trkpt>
      <trkpt lat="-24.7356440" lon="-53.7498130">
        <ele>543.4</ele>
        <time>2018-09-14T20:31:46Z</time>
      </trkpt>
      <trkpt lat="-24.7356280" lon="-53.7498220">
        <ele>543.6</ele>
        <time>2018-09-14T20:31:47Z</time>
      </trkpt>
      <trkpt lat="-24.7356160" lon="-53.7498320">
        <ele>543.8</ele>
        <time>2018-09-14T20:31:48Z</time>
      </trkpt>
      <trkpt lat="-24.7356030" lon="-53.7498380">
        <ele>543.9</ele>
        <time>2018-09-14T20:31:49Z</time>
      </trkpt>
      <trkpt lat="-24.7355900" lon="-53.7498480">
        <ele>544.0</ele>
        <time>2018-09-14T20:31:50Z</time>
      </trkpt>
      <trkpt lat="-24.7355780" lon="-53.7498560">
        <ele>544.0</ele>
        <time>2018-09-14T20:31:51Z</time>
      </trkpt>
      <trkpt lat="-24.7355660" lon="-53.7498640">
        <ele>544.1</ele>
        <time>2018-09-14T20:31:52Z</time>
      </trkpt>
      <trkpt lat="-24.7355520" lon="-53.7498750">
        <ele>544.2</ele>
        <time>2018-09-14T20:31:53Z</time>
      </trkpt>
      <trkpt lat="-24.7355380" lon="-53.7498890">
        <ele>544.3</ele>
        <time>2018-09-14T20:31:54Z</time>
      </trkpt>
      <trkpt lat="-24.7355240" lon="-53.7498970">
        <ele>544.4</ele>
        <time>2018-09-14T20:31:55Z</time>
      </trkpt>
      <trkpt lat="-24.7355090" lon="-53.7499050">
        <ele>544.5</ele>
        <time>2018-09-14T20:31:56Z</time>
      </trkpt>
      <trkpt lat="-24.7354920" lon="-53.7499120">
        <ele>544.8</ele>
        <time>2018-09-14T20:31:57Z</time>
      </trkpt>
      <trkpt lat="-24.7354750" lon="-53.7499210">
        <ele>544.9</ele>
        <time>2018-09-14T20:31:58Z</time>
      </trkpt>
      <trkpt lat="-24.7354610" lon="-53.7499240">
        <ele>545.1</ele>
        <time>2018-09-14T20:31:59Z</time>
      </trkpt>
      <trkpt lat="-24.7354480" lon="-53.7499250">
        <ele>545.2</ele>
        <time>2018-09-14T20:32:00Z</time>
      </trkpt>
      <trkpt lat="-24.7354330" lon="-53.7499290">
        <ele>545.3</ele>
        <time>2018-09-14T20:32:01Z</time>
      </trkpt>
      <trkpt lat="-24.7354180" lon="-53.7499310">
        <ele>545.4</ele>
        <time>2018-09-14T20:32:02Z</time>
      </trkpt>
      <trkpt lat="-24.7354030" lon="-53.7499260">
        <ele>545.6</ele>
        <time>2018-09-14T20:32:03Z</time>
      </trkpt>
      <trkpt lat="-24.7353880" lon="-53.7499200">
        <ele>545.7</ele>
        <time>2018-09-14T20:32:04Z</time>
      </trkpt>
      <trkpt lat="-24.7353760" lon="-53.7499140">
        <ele>545.8</ele>
        <time>2018-09-14T20:32:05Z</time>
      </trkpt>
      <trkpt lat="-24.7353620" lon="-53.7499070">
        <ele>545.9</ele>
        <time>2018-09-14T20:32:06Z</time>
      </trkpt>
      <trkpt lat="-24.7353480" lon="-53.7499010">
        <ele>545.9</ele>
        <time>2018-09-14T20:32:07Z</time>
      </trkpt>
      <trkpt lat="-24.7353350" lon="-53.7498930">
        <ele>546.0</ele>
        <time>2018-09-14T20:32:08Z</time>
      </trkpt>
      <trkpt lat="-24.7353260" lon="-53.7498890">
        <ele>546.1</ele>
        <time>2018-09-14T20:32:09Z</time>
      </trkpt>
      <trkpt lat="-24.7353140" lon="-53.7498830">
        <ele>546.1</ele>
        <time>2018-09-14T20:32:10Z</time>
      </trkpt>
      <trkpt lat="-24.7353010" lon="-53.7498760">
        <ele>546.2</ele>
        <time>2018-09-14T20:32:11Z</time>
      </trkpt>
      <trkpt lat="-24.7352880" lon="-53.7498690">
        <ele>546.4</ele>
        <time>2018-09-14T20:32:12Z</time>
      </trkpt>
      <trkpt lat="-24.7352760" lon="-53.7498630">
        <ele>547.2</ele>
        <time>2018-09-14T20:32:13Z</time>
      </trkpt>
      <trkpt lat="-24.7352660" lon="-53.7498580">
        <ele>547.3</ele>
        <time>2018-09-14T20:32:14Z</time>
      </trkpt>
      <trkpt lat="-24.7352540" lon="-53.7498530">
        <ele>547.3</ele>
        <time>2018-09-14T20:32:15Z</time>
      </trkpt>
      <trkpt lat="-24.7352420" lon="-53.7498510">
        <ele>547.3</ele>
        <time>2018-09-14T20:32:16Z</time>
      </trkpt>
      <trkpt lat="-24.7352280" lon="-53.7498450">
        <ele>547.4</ele>
        <time>2018-09-14T20:32:17Z</time>
      </trkpt>
      <trkpt lat="-24.7352160" lon="-53.7498410">
        <ele>547.5</ele>
        <time>2018-09-14T20:32:18Z</time>
      </trkpt>
      <trkpt lat="-24.7352050" lon="-53.7498340">
        <ele>547.5</ele>
        <time>2018-09-14T20:32:19Z</time>
      </trkpt>
      <trkpt lat="-24.7351950" lon="-53.7498280">
        <ele>547.6</ele>
        <time>2018-09-14T20:32:20Z</time>
      </trkpt>
      <trkpt lat="-24.7351840" lon="-53.7498230">
        <ele>547.7</ele>
        <time>2018-09-14T20:32:21Z</time>
      </trkpt>
      <trkpt lat="-24.7351730" lon="-53.7498200">
        <ele>547.7</ele>
        <time>2018-09-14T20:32:22Z</time>
      </trkpt>
      <trkpt lat="-24.7351600" lon="-53.7498190">
        <ele>547.8</ele>
        <time>2018-09-14T20:32:23Z</time>
      </trkpt>
      <trkpt lat="-24.7351510" lon="-53.7498170">
        <ele>547.9</ele>
        <time>2018-09-14T20:32:24Z</time>
      </trkpt>
      <trkpt lat="-24.7351390" lon="-53.7498170">
        <ele>547.9</ele>
        <time>2018-09-14T20:32:25Z</time>
      </trkpt>
      <trkpt lat="-24.7351260" lon="-53.7498170">
        <ele>548.0</ele>
        <time>2018-09-14T20:32:26Z</time>
      </trkpt>
      <trkpt lat="-24.7351120" lon="-53.7498160">
        <ele>548.1</ele>
        <time>2018-09-14T20:32:27Z</time>
      </trkpt>
      <trkpt lat="-24.7350970" lon="-53.7498170">
        <ele>548.2</ele>
        <time>2018-09-14T20:32:28Z</time>
      </trkpt>
      <trkpt lat="-24.7350830" lon="-53.7498150">
        <ele>548.2</ele>
        <time>2018-09-14T20:32:29Z</time>
      </trkpt>
      <trkpt lat="-24.7350690" lon="-53.7498160">
        <ele>548.3</ele>
        <time>2018-09-14T20:32:30Z</time>
      </trkpt>
      <trkpt lat="-24.7350550" lon="-53.7498150">
        <ele>548.3</ele>
        <time>2018-09-14T20:32:31Z</time>
      </trkpt>
      <trkpt lat="-24.7350420" lon="-53.7498130">
        <ele>548.4</ele>
        <time>2018-09-14T20:32:32Z</time>
      </trkpt>
      <trkpt lat="-24.7350300" lon="-53.7498100">
        <ele>548.4</ele>
        <time>2018-09-14T20:32:33Z</time>
      </trkpt>
      <trkpt lat="-24.7350170" lon="-53.7498080">
        <ele>548.4</ele>
        <time>2018-09-14T20:32:34Z</time>
      </trkpt>
      <trkpt lat="-24.7350070" lon="-53.7498060">
        <ele>548.5</ele>
        <time>2018-09-14T20:32:35Z</time>
      </trkpt>
      <trkpt lat="-24.7349940" lon="-53.7498030">
        <ele>548.5</ele>
        <time>2018-09-14T20:32:36Z</time>
      </trkpt>
      <trkpt lat="-24.7349820" lon="-53.7498020">
        <ele>548.6</ele>
        <time>2018-09-14T20:32:37Z</time>
      </trkpt>
      <trkpt lat="-24.7349690" lon="-53.7498000">
        <ele>548.6</ele>
        <time>2018-09-14T20:32:38Z</time>
      </trkpt>
      <trkpt lat="-24.7349540" lon="-53.7498000">
        <ele>548.7</ele>
        <time>2018-09-14T20:32:39Z</time>
      </trkpt>
      <trkpt lat="-24.7349400" lon="-53.7498000">
        <ele>548.7</ele>
        <time>2018-09-14T20:32:40Z</time>
      </trkpt>
      <trkpt lat="-24.7349250" lon="-53.7498010">
        <ele>548.8</ele>
        <time>2018-09-14T20:32:41Z</time>
      </trkpt>
      <trkpt lat="-24.7349100" lon="-53.7498010">
        <ele>548.9</ele>
        <time>2018-09-14T20:32:42Z</time>
      </trkpt>
      <trkpt lat="-24.7348960" lon="-53.7498020">
        <ele>549.0</ele>
        <time>2018-09-14T20:32:43Z</time>
      </trkpt>
      <trkpt lat="-24.7348820" lon="-53.7498030">
        <ele>549.0</ele>
        <time>2018-09-14T20:32:44Z</time>
      </trkpt>
      <trkpt lat="-24.7348660" lon="-53.7498020">
        <ele>549.1</ele>
        <time>2018-09-14T20:32:45Z</time>
      </trkpt>
      <trkpt lat="-24.7348520" lon="-53.7498020">
        <ele>549.2</ele>
        <time>2018-09-14T20:32:46Z</time>
      </trkpt>
      <trkpt lat="-24.7348380" lon="-53.7498040">
        <ele>549.3</ele>
        <time>2018-09-14T20:32:47Z</time>
      </trkpt>
      <trkpt lat="-24.7348250" lon="-53.7498090">
        <ele>549.4</ele>
        <time>2018-09-14T20:32:48Z</time>
      </trkpt>
      <trkpt lat="-24.7348130" lon="-53.7498110">
        <ele>549.4</ele>
        <time>2018-09-14T20:32:49Z</time>
      </trkpt>
      <trkpt lat="-24.7347990" lon="-53.7498130">
        <ele>549.5</ele>
        <time>2018-09-14T20:32:50Z</time>
      </trkpt>
      <trkpt lat="-24.7347860" lon="-53.7498150">
        <ele>549.6</ele>
        <time>2018-09-14T20:32:51Z</time>
      </trkpt>
      <trkpt lat="-24.7347730" lon="-53.7498150">
        <ele>549.7</ele>
        <time>2018-09-14T20:32:52Z</time>
      </trkpt>
      <trkpt lat="-24.7347590" lon="-53.7498150">
        <ele>549.7</ele>
        <time>2018-09-14T20:32:53Z</time>
      </trkpt>
      <trkpt lat="-24.7347470" lon="-53.7498120">
        <ele>549.8</ele>
        <time>2018-09-14T20:32:54Z</time>
      </trkpt>
      <trkpt lat="-24.7347370" lon="-53.7498090">
        <ele>549.8</ele>
        <time>2018-09-14T20:32:55Z</time>
      </trkpt>
      <trkpt lat="-24.7347300" lon="-53.7498060">
        <ele>549.8</ele>
        <time>2018-09-14T20:32:56Z</time>
      </trkpt>
      <trkpt lat="-24.7347200" lon="-53.7498040">
        <ele>549.9</ele>
        <time>2018-09-14T20:32:57Z</time>
      </trkpt>
      <trkpt lat="-24.7347100" lon="-53.7498030">
        <ele>549.9</ele>
        <time>2018-09-14T20:32:58Z</time>
      </trkpt>
      <trkpt lat="-24.7346970" lon="-53.7498030">
        <ele>550.0</ele>
        <time>2018-09-14T20:32:59Z</time>
      </trkpt>
      <trkpt lat="-24.7346810" lon="-53.7498030">
        <ele>550.0</ele>
        <time>2018-09-14T20:33:00Z</time>
      </trkpt>
      <trkpt lat="-24.7346620" lon="-53.7498100">
        <ele>550.1</ele>
        <time>2018-09-14T20:33:01Z</time>
      </trkpt>
      <trkpt lat="-24.7346400" lon="-53.7498040">
        <ele>550.3</ele>
        <time>2018-09-14T20:33:02Z</time>
      </trkpt>
      <trkpt lat="-24.7346240" lon="-53.7498050">
        <ele>550.4</ele>
        <time>2018-09-14T20:33:03Z</time>
      </trkpt>
      <trkpt lat="-24.7346110" lon="-53.7498100">
        <ele>550.5</ele>
        <time>2018-09-14T20:33:04Z</time>
      </trkpt>
      <trkpt lat="-24.7345980" lon="-53.7498110">
        <ele>550.5</ele>
        <time>2018-09-14T20:33:05Z</time>
      </trkpt>
      <trkpt lat="-24.7345830" lon="-53.7498110">
        <ele>550.6</ele>
        <time>2018-09-14T20:33:06Z</time>
      </trkpt>
      <trkpt lat="-24.7345710" lon="-53.7498130">
        <ele>550.7</ele>
        <time>2018-09-14T20:33:07Z</time>
      </trkpt>
      <trkpt lat="-24.7345540" lon="-53.7498110">
        <ele>550.8</ele>
        <time>2018-09-14T20:33:08Z</time>
      </trkpt>
      <trkpt lat="-24.7345380" lon="-53.7498080">
        <ele>550.8</ele>
        <time>2018-09-14T20:33:09Z</time>
      </trkpt>
      <trkpt lat="-24.7345210" lon="-53.7498040">
        <ele>550.9</ele>
        <time>2018-09-14T20:33:10Z</time>
      </trkpt>
      <trkpt lat="-24.7345040" lon="-53.7498020">
        <ele>550.9</ele>
        <time>2018-09-14T20:33:11Z</time>
      </trkpt>
      <trkpt lat="-24.7344900" lon="-53.7498030">
        <ele>551.0</ele>
        <time>2018-09-14T20:33:12Z</time>
      </trkpt>
      <trkpt lat="-24.7344760" lon="-53.7498050">
        <ele>551.0</ele>
        <time>2018-09-14T20:33:13Z</time>
      </trkpt>
      <trkpt lat="-24.7344640" lon="-53.7498090">
        <ele>551.0</ele>
        <time>2018-09-14T20:33:14Z</time>
      </trkpt>
      <trkpt lat="-24.7344500" lon="-53.7498160">
        <ele>551.1</ele>
        <time>2018-09-14T20:33:15Z</time>
      </trkpt>
      <trkpt lat="-24.7344380" lon="-53.7498230">
        <ele>551.1</ele>
        <time>2018-09-14T20:33:16Z</time>
      </trkpt>
      <trkpt lat="-24.7344280" lon="-53.7498220">
        <ele>551.1</ele>
        <time>2018-09-14T20:33:17Z</time>
      </trkpt>
      <trkpt lat="-24.7344170" lon="-53.7498250">
        <ele>551.2</ele>
        <time>2018-09-14T20:33:18Z</time>
      </trkpt>
      <trkpt lat="-24.7343970" lon="-53.7498330">
        <ele>551.3</ele>
        <time>2018-09-14T20:33:19Z</time>
      </trkpt>
      <trkpt lat="-24.7343830" lon="-53.7498370">
        <ele>551.4</ele>
        <time>2018-09-14T20:33:20Z</time>
      </trkpt>
      <trkpt lat="-24.7343670" lon="-53.7498420">
        <ele>551.4</ele>
        <time>2018-09-14T20:33:21Z</time>
      </trkpt>
      <trkpt lat="-24.7343530" lon="-53.7498490">
        <ele>551.5</ele>
        <time>2018-09-14T20:33:22Z</time>
      </trkpt>
      <trkpt lat="-24.7343400" lon="-53.7498570">
        <ele>551.6</ele>
        <time>2018-09-14T20:33:23Z</time>
      </trkpt>
      <trkpt lat="-24.7343260" lon="-53.7498650">
        <ele>551.6</ele>
        <time>2018-09-14T20:33:24Z</time>
      </trkpt>
      <trkpt lat="-24.7343130" lon="-53.7498710">
        <ele>551.7</ele>
        <time>2018-09-14T20:33:25Z</time>
      </trkpt>
      <trkpt lat="-24.7342890" lon="-53.7498750">
        <ele>551.8</ele>
        <time>2018-09-14T20:33:26Z</time>
      </trkpt>
      <trkpt lat="-24.7342660" lon="-53.7498790">
        <ele>552.0</ele>
        <time>2018-09-14T20:33:27Z</time>
      </trkpt>
      <trkpt lat="-24.7342450" lon="-53.7498810">
        <ele>552.0</ele>
        <time>2018-09-14T20:33:28Z</time>
      </trkpt>
      <trkpt lat="-24.7342450" lon="-53.7498810">
        <ele>552.0</ele>
        <time>2018-09-14T20:33:29Z</time>
      </trkpt>
      <trkpt lat="-24.7342260" lon="-53.7498830">
        <ele>552.0</ele>
        <time>2018-09-14T20:33:30Z</time>
      </trkpt>
      <trkpt lat="-24.7342100" lon="-53.7498900">
        <ele>554.1</ele>
        <time>2018-09-14T20:33:31Z</time>
      </trkpt>
      <trkpt lat="-24.7341920" lon="-53.7498930">
        <ele>554.8</ele>
        <time>2018-09-14T20:33:32Z</time>
      </trkpt>
      <trkpt lat="-24.7341610" lon="-53.7498950">
        <ele>556.0</ele>
        <time>2018-09-14T20:33:33Z</time>
      </trkpt>
      <trkpt lat="-24.7341610" lon="-53.7498950">
        <ele>556.0</ele>
        <time>2018-09-14T20:33:34Z</time>
      </trkpt>
      <trkpt lat="-24.7341260" lon="-53.7499020">
        <ele>557.3</ele>
        <time>2018-09-14T20:33:35Z</time>
      </trkpt>
      <trkpt lat="-24.7341260" lon="-53.7499020">
        <ele>557.3</ele>
        <time>2018-09-14T20:33:36Z</time>
      </trkpt>
      <trkpt lat="-24.7341070" lon="-53.7499030">
        <ele>558.0</ele>
        <time>2018-09-14T20:33:37Z</time>
      </trkpt>
      <trkpt lat="-24.7340920" lon="-53.7499020">
        <ele>558.6</ele>
        <time>2018-09-14T20:33:38Z</time>
      </trkpt>
      <trkpt lat="-24.7340790" lon="-53.7499040">
        <ele>559.0</ele>
        <time>2018-09-14T20:33:39Z</time>
      </trkpt>
      <trkpt lat="-24.7340600" lon="-53.7499030">
        <ele>559.6</ele>
        <time>2018-09-14T20:33:40Z</time>
      </trkpt>
      <trkpt lat="-24.7340420" lon="-53.7499010">
        <ele>559.7</ele>
        <time>2018-09-14T20:33:41Z</time>
      </trkpt>
      <trkpt lat="-24.7340220" lon="-53.7498970">
        <ele>559.9</ele>
        <time>2018-09-14T20:33:42Z</time>
      </trkpt>
      <trkpt lat="-24.7340040" lon="-53.7498930">
        <ele>560.0</ele>
        <time>2018-09-14T20:33:43Z</time>
      </trkpt>
      <trkpt lat="-24.7339880" lon="-53.7498850">
        <ele>560.1</ele>
        <time>2018-09-14T20:33:44Z</time>
      </trkpt>
      <trkpt lat="-24.7339720" lon="-53.7498790">
        <ele>560.2</ele>
        <time>2018-09-14T20:33:45Z</time>
      </trkpt>
      <trkpt lat="-24.7339550" lon="-53.7498740">
        <ele>560.3</ele>
        <time>2018-09-14T20:33:46Z</time>
      </trkpt>
      <trkpt lat="-24.7339330" lon="-53.7498670">
        <ele>560.5</ele>
        <time>2018-09-14T20:33:47Z</time>
      </trkpt>
      <trkpt lat="-24.7339160" lon="-53.7498630">
        <ele>560.6</ele>
        <time>2018-09-14T20:33:48Z</time>
      </trkpt>
      <trkpt lat="-24.7338990" lon="-53.7498610">
        <ele>560.7</ele>
        <time>2018-09-14T20:33:49Z</time>
      </trkpt>
      <trkpt lat="-24.7338810" lon="-53.7498600">
        <ele>560.8</ele>
        <time>2018-09-14T20:33:50Z</time>
      </trkpt>
      <trkpt lat="-24.7338640" lon="-53.7498590">
        <ele>560.9</ele>
        <time>2018-09-14T20:33:51Z</time>
      </trkpt>
      <trkpt lat="-24.7338480" lon="-53.7498600">
        <ele>561.0</ele>
        <time>2018-09-14T20:33:52Z</time>
      </trkpt>
      <trkpt lat="-24.7338310" lon="-53.7498580">
        <ele>561.1</ele>
        <time>2018-09-14T20:33:53Z</time>
      </trkpt>
      <trkpt lat="-24.7338120" lon="-53.7498580">
        <ele>561.2</ele>
        <time>2018-09-14T20:33:54Z</time>
      </trkpt>
      <trkpt lat="-24.7337940" lon="-53.7498580">
        <ele>561.3</ele>
        <time>2018-09-14T20:33:55Z</time>
      </trkpt>
      <trkpt lat="-24.7337750" lon="-53.7498600">
        <ele>561.4</ele>
        <time>2018-09-14T20:33:56Z</time>
      </trkpt>
      <trkpt lat="-24.7337560" lon="-53.7498600">
        <ele>561.5</ele>
        <time>2018-09-14T20:33:57Z</time>
      </trkpt>
      <trkpt lat="-24.7337370" lon="-53.7498620">
        <ele>561.6</ele>
        <time>2018-09-14T20:33:58Z</time>
      </trkpt>
      <trkpt lat="-24.7337190" lon="-53.7498640">
        <ele>561.7</ele>
        <time>2018-09-14T20:33:59Z</time>
      </trkpt>
      <trkpt lat="-24.7337000" lon="-53.7498650">
        <ele>561.9</ele>
        <time>2018-09-14T20:34:00Z</time>
      </trkpt>
      <trkpt lat="-24.7336800" lon="-53.7498660">
        <ele>562.0</ele>
        <time>2018-09-14T20:34:01Z</time>
      </trkpt>
      <trkpt lat="-24.7336640" lon="-53.7498640">
        <ele>562.1</ele>
        <time>2018-09-14T20:34:02Z</time>
      </trkpt>
      <trkpt lat="-24.7336470" lon="-53.7498620">
        <ele>562.2</ele>
        <time>2018-09-14T20:34:03Z</time>
      </trkpt>
      <trkpt lat="-24.7336370" lon="-53.7498550">
        <ele>562.2</ele>
        <time>2018-09-14T20:34:04Z</time>
      </trkpt>
      <trkpt lat="-24.7336220" lon="-53.7498520">
        <ele>562.3</ele>
        <time>2018-09-14T20:34:05Z</time>
      </trkpt>
      <trkpt lat="-24.7336050" lon="-53.7498510">
        <ele>562.4</ele>
        <time>2018-09-14T20:34:06Z</time>
      </trkpt>
      <trkpt lat="-24.7335880" lon="-53.7498570">
        <ele>562.5</ele>
        <time>2018-09-14T20:34:07Z</time>
      </trkpt>
      <trkpt lat="-24.7335770" lon="-53.7498620">
        <ele>562.6</ele>
        <time>2018-09-14T20:34:08Z</time>
      </trkpt>
      <trkpt lat="-24.7335630" lon="-53.7498610">
        <ele>562.7</ele>
        <time>2018-09-14T20:34:09Z</time>
      </trkpt>
      <trkpt lat="-24.7335410" lon="-53.7498570">
        <ele>562.8</ele>
        <time>2018-09-14T20:34:10Z</time>
      </trkpt>
      <trkpt lat="-24.7335210" lon="-53.7498540">
        <ele>562.9</ele>
        <time>2018-09-14T20:34:11Z</time>
      </trkpt>
      <trkpt lat="-24.7335000" lon="-53.7498530">
        <ele>563.0</ele>
        <time>2018-09-14T20:34:12Z</time>
      </trkpt>
      <trkpt lat="-24.7334880" lon="-53.7498570">
        <ele>563.1</ele>
        <time>2018-09-14T20:34:13Z</time>
      </trkpt>
      <trkpt lat="-24.7334700" lon="-53.7498560">
        <ele>563.2</ele>
        <time>2018-09-14T20:34:14Z</time>
      </trkpt>
      <trkpt lat="-24.7334440" lon="-53.7498520">
        <ele>563.3</ele>
        <time>2018-09-14T20:34:15Z</time>
      </trkpt>
      <trkpt lat="-24.7334240" lon="-53.7498490">
        <ele>563.4</ele>
        <time>2018-09-14T20:34:16Z</time>
      </trkpt>
      <trkpt lat="-24.7334000" lon="-53.7498430">
        <ele>563.6</ele>
        <time>2018-09-14T20:34:17Z</time>
      </trkpt>
      <trkpt lat="-24.7333890" lon="-53.7498440">
        <ele>563.6</ele>
        <time>2018-09-14T20:34:18Z</time>
      </trkpt>
      <trkpt lat="-24.7333690" lon="-53.7498440">
        <ele>563.8</ele>
        <time>2018-09-14T20:34:19Z</time>
      </trkpt>
      <trkpt lat="-24.7333460" lon="-53.7498410">
        <ele>563.9</ele>
        <time>2018-09-14T20:34:20Z</time>
      </trkpt>
      <trkpt lat="-24.7333320" lon="-53.7498350">
        <ele>564.0</ele>
        <time>2018-09-14T20:34:21Z</time>
      </trkpt>
      <trkpt lat="-24.7333150" lon="-53.7498340">
        <ele>564.1</ele>
        <time>2018-09-14T20:34:22Z</time>
      </trkpt>
      <trkpt lat="-24.7332930" lon="-53.7498380">
        <ele>564.2</ele>
        <time>2018-09-14T20:34:23Z</time>
      </trkpt>
      <trkpt lat="-24.7332770" lon="-53.7498390">
        <ele>564.2</ele>
        <time>2018-09-14T20:34:24Z</time>
      </trkpt>
      <trkpt lat="-24.7332620" lon="-53.7498360">
        <ele>564.3</ele>
        <time>2018-09-14T20:34:25Z</time>
      </trkpt>
      <trkpt lat="-24.7332480" lon="-53.7498370">
        <ele>564.4</ele>
        <time>2018-09-14T20:34:26Z</time>
      </trkpt>
      <trkpt lat="-24.7332340" lon="-53.7498480">
        <ele>564.4</ele>
        <time>2018-09-14T20:34:27Z</time>
      </trkpt>
      <trkpt lat="-24.7332160" lon="-53.7498550">
        <ele>564.5</ele>
        <time>2018-09-14T20:34:28Z</time>
      </trkpt>
      <trkpt lat="-24.7331950" lon="-53.7498540">
        <ele>564.6</ele>
        <time>2018-09-14T20:34:29Z</time>
      </trkpt>
      <trkpt lat="-24.7331770" lon="-53.7498510">
        <ele>564.7</ele>
        <time>2018-09-14T20:34:30Z</time>
      </trkpt>
      <trkpt lat="-24.7331550" lon="-53.7498540">
        <ele>564.8</ele>
        <time>2018-09-14T20:34:31Z</time>
      </trkpt>
      <trkpt lat="-24.7331360" lon="-53.7498560">
        <ele>565.0</ele>
        <time>2018-09-14T20:34:32Z</time>
      </trkpt>
      <trkpt lat="-24.7331160" lon="-53.7498500">
        <ele>565.0</ele>
        <time>2018-09-14T20:34:33Z</time>
      </trkpt>
      <trkpt lat="-24.7330970" lon="-53.7498450">
        <ele>565.0</ele>
        <time>2018-09-14T20:34:34Z</time>
      </trkpt>
      <trkpt lat="-24.7330740" lon="-53.7498420">
        <ele>565.0</ele>
        <time>2018-09-14T20:34:35Z</time>
      </trkpt>
      <trkpt lat="-24.7330570" lon="-53.7498410">
        <ele>565.0</ele>
        <time>2018-09-14T20:34:36Z</time>
      </trkpt>
      <trkpt lat="-24.7330490" lon="-53.7498360">
        <ele>565.0</ele>
        <time>2018-09-14T20:34:37Z</time>
      </trkpt>
      <trkpt lat="-24.7330310" lon="-53.7498360">
        <ele>565.0</ele>
        <time>2018-09-14T20:34:38Z</time>
      </trkpt>
      <trkpt lat="-24.7330060" lon="-53.7498380">
        <ele>565.2</ele>
        <time>2018-09-14T20:34:39Z</time>
      </trkpt>
      <trkpt lat="-24.7329840" lon="-53.7498390">
        <ele>565.4</ele>
        <time>2018-09-14T20:34:40Z</time>
      </trkpt>
      <trkpt lat="-24.7329620" lon="-53.7498330">
        <ele>565.5</ele>
        <time>2018-09-14T20:34:41Z</time>
      </trkpt>
      <trkpt lat="-24.7329440" lon="-53.7498270">
        <ele>565.7</ele>
        <time>2018-09-14T20:34:42Z</time>
      </trkpt>
      <trkpt lat="-24.7329290" lon="-53.7498270">
        <ele>565.8</ele>
        <time>2018-09-14T20:34:43Z</time>
      </trkpt>
      <trkpt lat="-24.7329080" lon="-53.7498230">
        <ele>566.0</ele>
        <time>2018-09-14T20:34:44Z</time>
      </trkpt>
      <trkpt lat="-24.7328830" lon="-53.7498250">
        <ele>566.2</ele>
        <time>2018-09-14T20:34:45Z</time>
      </trkpt>
      <trkpt lat="-24.7328630" lon="-53.7498280">
        <ele>566.3</ele>
        <time>2018-09-14T20:34:46Z</time>
      </trkpt>
      <trkpt lat="-24.7328460" lon="-53.7498340">
        <ele>566.4</ele>
        <time>2018-09-14T20:34:47Z</time>
      </trkpt>
      <trkpt lat="-24.7328260" lon="-53.7498360">
        <ele>566.6</ele>
        <time>2018-09-14T20:34:48Z</time>
      </trkpt>
      <trkpt lat="-24.7328020" lon="-53.7498360">
        <ele>566.8</ele>
        <time>2018-09-14T20:34:49Z</time>
      </trkpt>
      <trkpt lat="-24.7327810" lon="-53.7498370">
        <ele>566.9</ele>
        <time>2018-09-14T20:34:50Z</time>
      </trkpt>
      <trkpt lat="-24.7327610" lon="-53.7498410">
        <ele>567.1</ele>
        <time>2018-09-14T20:34:51Z</time>
      </trkpt>
      <trkpt lat="-24.7327450" lon="-53.7498400">
        <ele>567.2</ele>
        <time>2018-09-14T20:34:52Z</time>
      </trkpt>
      <trkpt lat="-24.7327270" lon="-53.7498410">
        <ele>567.3</ele>
        <time>2018-09-14T20:34:53Z</time>
      </trkpt>
      <trkpt lat="-24.7327100" lon="-53.7498440">
        <ele>567.5</ele>
        <time>2018-09-14T20:34:54Z</time>
      </trkpt>
      <trkpt lat="-24.7326910" lon="-53.7498470">
        <ele>567.6</ele>
        <time>2018-09-14T20:34:55Z</time>
      </trkpt>
      <trkpt lat="-24.7326690" lon="-53.7498430">
        <ele>567.8</ele>
        <time>2018-09-14T20:34:56Z</time>
      </trkpt>
      <trkpt lat="-24.7326460" lon="-53.7498420">
        <ele>568.0</ele>
        <time>2018-09-14T20:34:57Z</time>
      </trkpt>
      <trkpt lat="-24.7326260" lon="-53.7498430">
        <ele>568.1</ele>
        <time>2018-09-14T20:34:58Z</time>
      </trkpt>
      <trkpt lat="-24.7326010" lon="-53.7498390">
        <ele>568.2</ele>
        <time>2018-09-14T20:34:59Z</time>
      </trkpt>
      <trkpt lat="-24.7325800" lon="-53.7498420">
        <ele>568.3</ele>
        <time>2018-09-14T20:35:00Z</time>
      </trkpt>
      <trkpt lat="-24.7325570" lon="-53.7498410">
        <ele>568.4</ele>
        <time>2018-09-14T20:35:01Z</time>
      </trkpt>
      <trkpt lat="-24.7325350" lon="-53.7498410">
        <ele>568.5</ele>
        <time>2018-09-14T20:35:02Z</time>
      </trkpt>
      <trkpt lat="-24.7325140" lon="-53.7498420">
        <ele>568.7</ele>
        <time>2018-09-14T20:35:03Z</time>
      </trkpt>
      <trkpt lat="-24.7324950" lon="-53.7498400">
        <ele>568.8</ele>
        <time>2018-09-14T20:35:04Z</time>
      </trkpt>
      <trkpt lat="-24.7324770" lon="-53.7498410">
        <ele>568.9</ele>
        <time>2018-09-14T20:35:05Z</time>
      </trkpt>
      <trkpt lat="-24.7324530" lon="-53.7498410">
        <ele>569.0</ele>
        <time>2018-09-14T20:35:06Z</time>
      </trkpt>
      <trkpt lat="-24.7324350" lon="-53.7498450">
        <ele>569.1</ele>
        <time>2018-09-14T20:35:07Z</time>
      </trkpt>
      <trkpt lat="-24.7324170" lon="-53.7498470">
        <ele>569.2</ele>
        <time>2018-09-14T20:35:08Z</time>
      </trkpt>
      <trkpt lat="-24.7323930" lon="-53.7498440">
        <ele>569.3</ele>
        <time>2018-09-14T20:35:09Z</time>
      </trkpt>
      <trkpt lat="-24.7323720" lon="-53.7498480">
        <ele>569.4</ele>
        <time>2018-09-14T20:35:10Z</time>
      </trkpt>
      <trkpt lat="-24.7323510" lon="-53.7498470">
        <ele>569.5</ele>
        <time>2018-09-14T20:35:11Z</time>
      </trkpt>
      <trkpt lat="-24.7323310" lon="-53.7498470">
        <ele>569.6</ele>
        <time>2018-09-14T20:35:12Z</time>
      </trkpt>
      <trkpt lat="-24.7323130" lon="-53.7498490">
        <ele>569.7</ele>
        <time>2018-09-14T20:35:13Z</time>
      </trkpt>
      <trkpt lat="-24.7322930" lon="-53.7498490">
        <ele>569.9</ele>
        <time>2018-09-14T20:35:14Z</time>
      </trkpt>
      <trkpt lat="-24.7322720" lon="-53.7498460">
        <ele>570.1</ele>
        <time>2018-09-14T20:35:15Z</time>
      </trkpt>
      <trkpt lat="-24.7322540" lon="-53.7498390">
        <ele>570.2</ele>
        <time>2018-09-14T20:35:16Z</time>
      </trkpt>
      <trkpt lat="-24.7322370" lon="-53.7498310">
        <ele>570.4</ele>
        <time>2018-09-14T20:35:17Z</time>
      </trkpt>
      <trkpt lat="-24.7322190" lon="-53.7498210">
        <ele>570.5</ele>
        <time>2018-09-14T20:35:18Z</time>
      </trkpt>
      <trkpt lat="-24.7322020" lon="-53.7498110">
        <ele>570.7</ele>
        <time>2018-09-14T20:35:19Z</time>
      </trkpt>
      <trkpt lat="-24.7321880" lon="-53.7498020">
        <ele>570.8</ele>
        <time>2018-09-14T20:35:20Z</time>
      </trkpt>
      <trkpt lat="-24.7321700" lon="-53.7497980">
        <ele>570.9</ele>
        <time>2018-09-14T20:35:21Z</time>
      </trkpt>
      <trkpt lat="-24.7321480" lon="-53.7497900">
        <ele>571.1</ele>
        <time>2018-09-14T20:35:22Z</time>
      </trkpt>
      <trkpt lat="-24.7321300" lon="-53.7497810">
        <ele>571.2</ele>
        <time>2018-09-14T20:35:23Z</time>
      </trkpt>
      <trkpt lat="-24.7321100" lon="-53.7497750">
        <ele>571.4</ele>
        <time>2018-09-14T20:35:24Z</time>
      </trkpt>
      <trkpt lat="-24.7320990" lon="-53.7497740">
        <ele>571.5</ele>
        <time>2018-09-14T20:35:25Z</time>
      </trkpt>
      <trkpt lat="-24.7320910" lon="-53.7497700">
        <ele>571.5</ele>
        <time>2018-09-14T20:35:26Z</time>
      </trkpt>
      <trkpt lat="-24.7320770" lon="-53.7497640">
        <ele>571.6</ele>
        <time>2018-09-14T20:35:27Z</time>
      </trkpt>
      <trkpt lat="-24.7320650" lon="-53.7497630">
        <ele>571.7</ele>
        <time>2018-09-14T20:35:28Z</time>
      </trkpt>
      <trkpt lat="-24.7320520" lon="-53.7497640">
        <ele>571.8</ele>
        <time>2018-09-14T20:35:29Z</time>
      </trkpt>
      <trkpt lat="-24.7320350" lon="-53.7497500">
        <ele>572.0</ele>
        <time>2018-09-14T20:35:30Z</time>
      </trkpt>
      <trkpt lat="-24.7320270" lon="-53.7497440">
        <ele>572.0</ele>
        <time>2018-09-14T20:35:31Z</time>
      </trkpt>
      <trkpt lat="-24.7320120" lon="-53.7497440">
        <ele>572.0</ele>
        <time>2018-09-14T20:35:32Z</time>
      </trkpt>
      <trkpt lat="-24.7319970" lon="-53.7497500">
        <ele>572.0</ele>
        <time>2018-09-14T20:35:33Z</time>
      </trkpt>
      <trkpt lat="-24.7319820" lon="-53.7497590">
        <ele>572.0</ele>
        <time>2018-09-14T20:35:34Z</time>
      </trkpt>
      <trkpt lat="-24.7319640" lon="-53.7497660">
        <ele>572.0</ele>
        <time>2018-09-14T20:35:35Z</time>
      </trkpt>
      <trkpt lat="-24.7319440" lon="-53.7497700">
        <ele>572.0</ele>
        <time>2018-09-14T20:35:36Z</time>
      </trkpt>
      <trkpt lat="-24.7319250" lon="-53.7497720">
        <ele>572.0</ele>
        <time>2018-09-14T20:35:37Z</time>
      </trkpt>
      <trkpt lat="-24.7319050" lon="-53.7497720">
        <ele>572.0</ele>
        <time>2018-09-14T20:35:38Z</time>
      </trkpt>
      <trkpt lat="-24.7318860" lon="-53.7497730">
        <ele>572.1</ele>
        <time>2018-09-14T20:35:39Z</time>
      </trkpt>
      <trkpt lat="-24.7318680" lon="-53.7497750">
        <ele>572.1</ele>
        <time>2018-09-14T20:35:40Z</time>
      </trkpt>
      <trkpt lat="-24.7318520" lon="-53.7497730">
        <ele>572.1</ele>
        <time>2018-09-14T20:35:41Z</time>
      </trkpt>
      <trkpt lat="-24.7318330" lon="-53.7497740">
        <ele>572.1</ele>
        <time>2018-09-14T20:35:42Z</time>
      </trkpt>
      <trkpt lat="-24.7318130" lon="-53.7497730">
        <ele>572.1</ele>
        <time>2018-09-14T20:35:43Z</time>
      </trkpt>
      <trkpt lat="-24.7317920" lon="-53.7497730">
        <ele>572.1</ele>
        <time>2018-09-14T20:35:44Z</time>
      </trkpt>
      <trkpt lat="-24.7317750" lon="-53.7497730">
        <ele>572.1</ele>
        <time>2018-09-14T20:35:45Z</time>
      </trkpt>
      <trkpt lat="-24.7317590" lon="-53.7497730">
        <ele>572.1</ele>
        <time>2018-09-14T20:35:46Z</time>
      </trkpt>
      <trkpt lat="-24.7317180" lon="-53.7497700">
        <ele>572.2</ele>
        <time>2018-09-14T20:35:48Z</time>
      </trkpt>
      <trkpt lat="-24.7316960" lon="-53.7497710">
        <ele>572.3</ele>
        <time>2018-09-14T20:35:49Z</time>
      </trkpt>
      <trkpt lat="-24.7316730" lon="-53.7497700">
        <ele>572.3</ele>
        <time>2018-09-14T20:35:50Z</time>
      </trkpt>
      <trkpt lat="-24.7316490" lon="-53.7497710">
        <ele>572.4</ele>
        <time>2018-09-14T20:35:51Z</time>
      </trkpt>
      <trkpt lat="-24.7316260" lon="-53.7497670">
        <ele>572.5</ele>
        <time>2018-09-14T20:35:52Z</time>
      </trkpt>
      <trkpt lat="-24.7316010" lon="-53.7497670">
        <ele>572.6</ele>
        <time>2018-09-14T20:35:53Z</time>
      </trkpt>
      <trkpt lat="-24.7315750" lon="-53.7497690">
        <ele>572.8</ele>
        <time>2018-09-14T20:35:54Z</time>
      </trkpt>
      <trkpt lat="-24.7315520" lon="-53.7497680">
        <ele>572.9</ele>
        <time>2018-09-14T20:35:55Z</time>
      </trkpt>
      <trkpt lat="-24.7315290" lon="-53.7497660">
        <ele>572.9</ele>
        <time>2018-09-14T20:35:56Z</time>
      </trkpt>
      <trkpt lat="-24.7315040" lon="-53.7497630">
        <ele>573.0</ele>
        <time>2018-09-14T20:35:57Z</time>
      </trkpt>
      <trkpt lat="-24.7314820" lon="-53.7497580">
        <ele>573.0</ele>
        <time>2018-09-14T20:35:58Z</time>
      </trkpt>
      <trkpt lat="-24.7314620" lon="-53.7497570">
        <ele>573.1</ele>
        <time>2018-09-14T20:35:59Z</time>
      </trkpt>
      <trkpt lat="-24.7314430" lon="-53.7497600">
        <ele>573.1</ele>
        <time>2018-09-14T20:36:00Z</time>
      </trkpt>
      <trkpt lat="-24.7314220" lon="-53.7497580">
        <ele>573.1</ele>
        <time>2018-09-14T20:36:01Z</time>
      </trkpt>
      <trkpt lat="-24.7313990" lon="-53.7497570">
        <ele>573.2</ele>
        <time>2018-09-14T20:36:02Z</time>
      </trkpt>
      <trkpt lat="-24.7313760" lon="-53.7497560">
        <ele>573.2</ele>
        <time>2018-09-14T20:36:03Z</time>
      </trkpt>
      <trkpt lat="-24.7313580" lon="-53.7497550">
        <ele>573.2</ele>
        <time>2018-09-14T20:36:04Z</time>
      </trkpt>
      <trkpt lat="-24.7313400" lon="-53.7497570">
        <ele>573.3</ele>
        <time>2018-09-14T20:36:05Z</time>
      </trkpt>
      <trkpt lat="-24.7313180" lon="-53.7497600">
        <ele>573.3</ele>
        <time>2018-09-14T20:36:06Z</time>
      </trkpt>
      <trkpt lat="-24.7312950" lon="-53.7497620">
        <ele>573.3</ele>
        <time>2018-09-14T20:36:07Z</time>
      </trkpt>
      <trkpt lat="-24.7312730" lon="-53.7497640">
        <ele>573.3</ele>
        <time>2018-09-14T20:36:08Z</time>
      </trkpt>
      <trkpt lat="-24.7312510" lon="-53.7497640">
        <ele>573.3</ele>
        <time>2018-09-14T20:36:09Z</time>
      </trkpt>
      <trkpt lat="-24.7312280" lon="-53.7497650">
        <ele>573.3</ele>
        <time>2018-09-14T20:36:10Z</time>
      </trkpt>
      <trkpt lat="-24.7312050" lon="-53.7497650">
        <ele>573.4</ele>
        <time>2018-09-14T20:36:11Z</time>
      </trkpt>
      <trkpt lat="-24.7311840" lon="-53.7497660">
        <ele>573.4</ele>
        <time>2018-09-14T20:36:12Z</time>
      </trkpt>
      <trkpt lat="-24.7311630" lon="-53.7497690">
        <ele>573.4</ele>
        <time>2018-09-14T20:36:13Z</time>
      </trkpt>
      <trkpt lat="-24.7311440" lon="-53.7497710">
        <ele>573.4</ele>
        <time>2018-09-14T20:36:14Z</time>
      </trkpt>
      <trkpt lat="-24.7311250" lon="-53.7497720">
        <ele>573.4</ele>
        <time>2018-09-14T20:36:15Z</time>
      </trkpt>
      <trkpt lat="-24.7311070" lon="-53.7497730">
        <ele>573.4</ele>
        <time>2018-09-14T20:36:16Z</time>
      </trkpt>
      <trkpt lat="-24.7310930" lon="-53.7497730">
        <ele>573.5</ele>
        <time>2018-09-14T20:36:17Z</time>
      </trkpt>
      <trkpt lat="-24.7310820" lon="-53.7497750">
        <ele>573.5</ele>
        <time>2018-09-14T20:36:18Z</time>
      </trkpt>
      <trkpt lat="-24.7310710" lon="-53.7497760">
        <ele>573.5</ele>
        <time>2018-09-14T20:36:19Z</time>
      </trkpt>
      <trkpt lat="-24.7310590" lon="-53.7497760">
        <ele>573.5</ele>
        <time>2018-09-14T20:36:20Z</time>
      </trkpt>
      <trkpt lat="-24.7310450" lon="-53.7497760">
        <ele>573.5</ele>
        <time>2018-09-14T20:36:21Z</time>
      </trkpt>
      <trkpt lat="-24.7310290" lon="-53.7497810">
        <ele>573.6</ele>
        <time>2018-09-14T20:36:22Z</time>
      </trkpt>
      <trkpt lat="-24.7310120" lon="-53.7497910">
        <ele>573.7</ele>
        <time>2018-09-14T20:36:23Z</time>
      </trkpt>
      <trkpt lat="-24.7309980" lon="-53.7498010">
        <ele>573.7</ele>
        <time>2018-09-14T20:36:24Z</time>
      </trkpt>
      <trkpt lat="-24.7309850" lon="-53.7498120">
        <ele>573.8</ele>
        <time>2018-09-14T20:36:25Z</time>
      </trkpt>
      <trkpt lat="-24.7309770" lon="-53.7498290">
        <ele>574.0</ele>
        <time>2018-09-14T20:36:26Z</time>
      </trkpt>
      <trkpt lat="-24.7309730" lon="-53.7498430">
        <ele>574.0</ele>
        <time>2018-09-14T20:36:27Z</time>
      </trkpt>
      <trkpt lat="-24.7309720" lon="-53.7498650">
        <ele>574.0</ele>
        <time>2018-09-14T20:36:28Z</time>
      </trkpt>
      <trkpt lat="-24.7309730" lon="-53.7498870">
        <ele>574.0</ele>
        <time>2018-09-14T20:36:29Z</time>
      </trkpt>
      <trkpt lat="-24.7309760" lon="-53.7499100">
        <ele>574.0</ele>
        <time>2018-09-14T20:36:30Z</time>
      </trkpt>
      <trkpt lat="-24.7309840" lon="-53.7499380">
        <ele>574.0</ele>
        <time>2018-09-14T20:36:31Z</time>
      </trkpt>
      <trkpt lat="-24.7309910" lon="-53.7499640">
        <ele>574.0</ele>
        <time>2018-09-14T20:36:32Z</time>
      </trkpt>
      <trkpt lat="-24.7309990" lon="-53.7499960">
        <ele>574.0</ele>
        <time>2018-09-14T20:36:33Z</time>
      </trkpt>
      <trkpt lat="-24.7310050" lon="-53.7500290">
        <ele>574.0</ele>
        <time>2018-09-14T20:36:34Z</time>
      </trkpt>
      <trkpt lat="-24.7310090" lon="-53.7500620">
        <ele>574.0</ele>
        <time>2018-09-14T20:36:35Z</time>
      </trkpt>
      <trkpt lat="-24.7310120" lon="-53.7500970">
        <ele>574.0</ele>
        <time>2018-09-14T20:36:36Z</time>
      </trkpt>
      <trkpt lat="-24.7310150" lon="-53.7501330">
        <ele>574.0</ele>
        <time>2018-09-14T20:36:37Z</time>
      </trkpt>
      <trkpt lat="-24.7310150" lon="-53.7501670">
        <ele>574.1</ele>
        <time>2018-09-14T20:36:38Z</time>
      </trkpt>
      <trkpt lat="-24.7310140" lon="-53.7502010">
        <ele>574.1</ele>
        <time>2018-09-14T20:36:39Z</time>
      </trkpt>
      <trkpt lat="-24.7310130" lon="-53.7502350">
        <ele>574.1</ele>
        <time>2018-09-14T20:36:40Z</time>
      </trkpt>
      <trkpt lat="-24.7310150" lon="-53.7502660">
        <ele>574.1</ele>
        <time>2018-09-14T20:36:41Z</time>
      </trkpt>
      <trkpt lat="-24.7310140" lon="-53.7502980">
        <ele>574.1</ele>
        <time>2018-09-14T20:36:42Z</time>
      </trkpt>
      <trkpt lat="-24.7310120" lon="-53.7503300">
        <ele>574.1</ele>
        <time>2018-09-14T20:36:43Z</time>
      </trkpt>
      <trkpt lat="-24.7310100" lon="-53.7503600">
        <ele>574.1</ele>
        <time>2018-09-14T20:36:44Z</time>
      </trkpt>
      <trkpt lat="-24.7310080" lon="-53.7503880">
        <ele>574.1</ele>
        <time>2018-09-14T20:36:45Z</time>
      </trkpt>
      <trkpt lat="-24.7310090" lon="-53.7504130">
        <ele>574.0</ele>
        <time>2018-09-14T20:36:46Z</time>
      </trkpt>
      <trkpt lat="-24.7310130" lon="-53.7504330">
        <ele>574.0</ele>
        <time>2018-09-14T20:36:47Z</time>
      </trkpt>
      <trkpt lat="-24.7310280" lon="-53.7504460">
        <ele>574.0</ele>
        <time>2018-09-14T20:36:48Z</time>
      </trkpt>
      <trkpt lat="-24.7310370" lon="-53.7504510">
        <ele>574.0</ele>
        <time>2018-09-14T20:36:49Z</time>
      </trkpt>
      <trkpt lat="-24.7310430" lon="-53.7504540">
        <ele>574.0</ele>
        <time>2018-09-14T20:36:50Z</time>
      </trkpt>
      <trkpt lat="-24.7310460" lon="-53.7504540">
        <ele>574.0</ele>
        <time>2018-09-14T20:36:51Z</time>
      </trkpt>
      <trkpt lat="-24.7310440" lon="-53.7504490">
        <ele>574.0</ele>
        <time>2018-09-14T20:36:52Z</time>
      </trkpt>
      <trkpt lat="-24.7310410" lon="-53.7504520">
        <ele>574.0</ele>
        <time>2018-09-14T20:36:53Z</time>
      </trkpt>
      <trkpt lat="-24.7310400" lon="-53.7504550">
        <ele>574.0</ele>
        <time>2018-09-14T20:36:54Z</time>
      </trkpt>
      <trkpt lat="-24.7310360" lon="-53.7504560">
        <ele>574.0</ele>
        <time>2018-09-14T20:36:55Z</time>
      </trkpt>
      <trkpt lat="-24.7310290" lon="-53.7504550">
        <ele>574.0</ele>
        <time>2018-09-14T20:36:56Z</time>
      </trkpt>
      <trkpt lat="-24.7310190" lon="-53.7504620">
        <ele>574.0</ele>
        <time>2018-09-14T20:37:03Z</time>
      </trkpt>
      <trkpt lat="-24.7310180" lon="-53.7504640">
        <ele>574.0</ele>
        <time>2018-09-14T20:37:04Z</time>
      </trkpt>
      <trkpt lat="-24.7310180" lon="-53.7504660">
        <ele>574.0</ele>
        <time>2018-09-14T20:37:05Z</time>
      </trkpt>
      <trkpt lat="-24.7310160" lon="-53.7504630">
        <ele>574.0</ele>
        <time>2018-09-14T20:37:08Z</time>
      </trkpt>
      <trkpt lat="-24.7310170" lon="-53.7504650">
        <ele>574.0</ele>
        <time>2018-09-14T20:37:09Z</time>
      </trkpt>
      <trkpt lat="-24.7310160" lon="-53.7504670">
        <ele>574.0</ele>
        <time>2018-09-14T20:37:10Z</time>
      </trkpt>
      <trkpt lat="-24.7308870" lon="-53.7508320">
        <ele>574.0</ele>
        <time>2018-09-15T16:44:46Z</time>
      </trkpt>
      <trkpt lat="-24.7308880" lon="-53.7508470">
        <ele>574.0</ele>
        <time>2018-09-15T16:44:47Z</time>
      </trkpt>
      <trkpt lat="-24.7308980" lon="-53.7508770">
        <ele>574.1</ele>
        <time>2018-09-15T16:44:48Z</time>
      </trkpt>
      <trkpt lat="-24.7309010" lon="-53.7508950">
        <ele>574.1</ele>
        <time>2018-09-15T16:44:49Z</time>
      </trkpt>
      <trkpt lat="-24.7308810" lon="-53.7509100">
        <ele>574.2</ele>
        <time>2018-09-15T16:44:50Z</time>
      </trkpt>
      <trkpt lat="-24.7308640" lon="-53.7509270">
        <ele>574.2</ele>
        <time>2018-09-15T16:44:51Z</time>
      </trkpt>
      <trkpt lat="-24.7308690" lon="-53.7509610">
        <ele>574.4</ele>
        <time>2018-09-15T16:44:52Z</time>
      </trkpt>
      <trkpt lat="-24.7308930" lon="-53.7510060">
        <ele>574.6</ele>
        <time>2018-09-15T16:44:53Z</time>
      </trkpt>
      <trkpt lat="-24.7308970" lon="-53.7510360">
        <ele>574.6</ele>
        <time>2018-09-15T16:44:54Z</time>
      </trkpt>
      <trkpt lat="-24.7308970" lon="-53.7510620">
        <ele>574.6</ele>
        <time>2018-09-15T16:44:55Z</time>
      </trkpt>
      <trkpt lat="-24.7309170" lon="-53.7511020">
        <ele>574.6</ele>
        <time>2018-09-15T16:44:56Z</time>
      </trkpt>
      <trkpt lat="-24.7309300" lon="-53.7511310">
        <ele>574.4</ele>
        <time>2018-09-15T16:44:57Z</time>
      </trkpt>
      <trkpt lat="-24.7309180" lon="-53.7511460">
        <ele>574.4</ele>
        <time>2018-09-15T16:44:58Z</time>
      </trkpt>
      <trkpt lat="-24.7309120" lon="-53.7511870">
        <ele>574.2</ele>
        <time>2018-09-15T16:44:59Z</time>
      </trkpt>
      <trkpt lat="-24.7309110" lon="-53.7512170">
        <ele>574.0</ele>
        <time>2018-09-15T16:45:01Z</time>
      </trkpt>
      <trkpt lat="-24.7309190" lon="-53.7512540">
        <ele>573.8</ele>
        <time>2018-09-15T16:45:02Z</time>
      </trkpt>
      <trkpt lat="-24.7309180" lon="-53.7512840">
        <ele>573.6</ele>
        <time>2018-09-15T16:45:03Z</time>
      </trkpt>
      <trkpt lat="-24.7309110" lon="-53.7513000">
        <ele>573.4</ele>
        <time>2018-09-15T16:45:04Z</time>
      </trkpt>
      <trkpt lat="-24.7309170" lon="-53.7513370">
        <ele>573.1</ele>
        <time>2018-09-15T16:45:05Z</time>
      </trkpt>
      <trkpt lat="-24.7309110" lon="-53.7513650">
        <ele>572.8</ele>
        <time>2018-09-15T16:45:06Z</time>
      </trkpt>
      <trkpt lat="-24.7309090" lon="-53.7513920">
        <ele>572.8</ele>
        <time>2018-09-15T16:45:07Z</time>
      </trkpt>
      <trkpt lat="-24.7309070" lon="-53.7514100">
        <ele>572.9</ele>
        <time>2018-09-15T16:45:08Z</time>
      </trkpt>
      <trkpt lat="-24.7309110" lon="-53.7514440">
        <ele>573.0</ele>
        <time>2018-09-15T16:45:09Z</time>
      </trkpt>
      <trkpt lat="-24.7309130" lon="-53.7514760">
        <ele>573.0</ele>
        <time>2018-09-15T16:45:10Z</time>
      </trkpt>
      <trkpt lat="-24.7309110" lon="-53.7515030">
        <ele>572.9</ele>
        <time>2018-09-15T16:45:11Z</time>
      </trkpt>
      <trkpt lat="-24.7309040" lon="-53.7515300">
        <ele>572.8</ele>
        <time>2018-09-15T16:45:12Z</time>
      </trkpt>
      <trkpt lat="-24.7308990" lon="-53.7515580">
        <ele>572.7</ele>
        <time>2018-09-15T16:45:13Z</time>
      </trkpt>
      <trkpt lat="-24.7308960" lon="-53.7515820">
        <ele>572.7</ele>
        <time>2018-09-15T16:45:14Z</time>
      </trkpt>
      <trkpt lat="-24.7308910" lon="-53.7516040">
        <ele>572.6</ele>
        <time>2018-09-15T16:45:15Z</time>
      </trkpt>
      <trkpt lat="-24.7308940" lon="-53.7516380">
        <ele>572.5</ele>
        <time>2018-09-15T16:45:16Z</time>
      </trkpt>
      <trkpt lat="-24.7308930" lon="-53.7516670">
        <ele>572.5</ele>
        <time>2018-09-15T16:45:17Z</time>
      </trkpt>
      <trkpt lat="-24.7308940" lon="-53.7517010">
        <ele>572.6</ele>
        <time>2018-09-15T16:45:18Z</time>
      </trkpt>
      <trkpt lat="-24.7308940" lon="-53.7517260">
        <ele>572.6</ele>
        <time>2018-09-15T16:45:19Z</time>
      </trkpt>
      <trkpt lat="-24.7309110" lon="-53.7517690">
        <ele>572.8</ele>
        <time>2018-09-15T16:45:20Z</time>
      </trkpt>
      <trkpt lat="-24.7309170" lon="-53.7517940">
        <ele>573.0</ele>
        <time>2018-09-15T16:45:21Z</time>
      </trkpt>
      <trkpt lat="-24.7309210" lon="-53.7518210">
        <ele>573.2</ele>
        <time>2018-09-15T16:45:22Z</time>
      </trkpt>
      <trkpt lat="-24.7309230" lon="-53.7518450">
        <ele>573.4</ele>
        <time>2018-09-15T16:45:23Z</time>
      </trkpt>
      <trkpt lat="-24.7309240" lon="-53.7518660">
        <ele>573.5</ele>
        <time>2018-09-15T16:45:24Z</time>
      </trkpt>
      <trkpt lat="-24.7309320" lon="-53.7518930">
        <ele>573.7</ele>
        <time>2018-09-15T16:45:25Z</time>
      </trkpt>
      <trkpt lat="-24.7309300" lon="-53.7519160">
        <ele>573.8</ele>
        <time>2018-09-15T16:45:26Z</time>
      </trkpt>
      <trkpt lat="-24.7309330" lon="-53.7519490">
        <ele>574.0</ele>
        <time>2018-09-15T16:45:27Z</time>
      </trkpt>
      <trkpt lat="-24.7309330" lon="-53.7520060">
        <ele>574.8</ele>
        <time>2018-09-15T16:45:28Z</time>
      </trkpt>
      <trkpt lat="-24.7309330" lon="-53.7520320">
        <ele>575.1</ele>
        <time>2018-09-15T16:45:29Z</time>
      </trkpt>
      <trkpt lat="-24.7309370" lon="-53.7520630">
        <ele>575.4</ele>
        <time>2018-09-15T16:45:30Z</time>
      </trkpt>
      <trkpt lat="-24.7309390" lon="-53.7520950">
        <ele>575.8</ele>
        <time>2018-09-15T16:45:31Z</time>
      </trkpt>
      <trkpt lat="-24.7309370" lon="-53.7521200">
        <ele>576.0</ele>
        <time>2018-09-15T16:45:32Z</time>
      </trkpt>
      <trkpt lat="-24.7309350" lon="-53.7521790">
        <ele>576.5</ele>
        <time>2018-09-15T16:45:34Z</time>
      </trkpt>
      <trkpt lat="-24.7309380" lon="-53.7522150">
        <ele>576.8</ele>
        <time>2018-09-15T16:45:35Z</time>
      </trkpt>
      <trkpt lat="-24.7309390" lon="-53.7522460">
        <ele>577.0</ele>
        <time>2018-09-15T16:45:36Z</time>
      </trkpt>
      <trkpt lat="-24.7309400" lon="-53.7522780">
        <ele>577.1</ele>
        <time>2018-09-15T16:45:37Z</time>
      </trkpt>
      <trkpt lat="-24.7309420" lon="-53.7523070">
        <ele>577.2</ele>
        <time>2018-09-15T16:45:38Z</time>
      </trkpt>
      <trkpt lat="-24.7309380" lon="-53.7523280">
        <ele>577.2</ele>
        <time>2018-09-15T16:45:39Z</time>
      </trkpt>
      <trkpt lat="-24.7309440" lon="-53.7523630">
        <ele>577.3</ele>
        <time>2018-09-15T16:45:40Z</time>
      </trkpt>
      <trkpt lat="-24.7309430" lon="-53.7523850">
        <ele>577.3</ele>
        <time>2018-09-15T16:45:41Z</time>
      </trkpt>
      <trkpt lat="-24.7309480" lon="-53.7524180">
        <ele>577.3</ele>
        <time>2018-09-15T16:45:42Z</time>
      </trkpt>
      <trkpt lat="-24.7309490" lon="-53.7524450">
        <ele>577.3</ele>
        <time>2018-09-15T16:45:43Z</time>
      </trkpt>
      <trkpt lat="-24.7309480" lon="-53.7524730">
        <ele>577.4</ele>
        <time>2018-09-15T16:45:44Z</time>
      </trkpt>
      <trkpt lat="-24.7309460" lon="-53.7524990">
        <ele>577.4</ele>
        <time>2018-09-15T16:45:45Z</time>
      </trkpt>
      <trkpt lat="-24.7309400" lon="-53.7525200">
        <ele>577.4</ele>
        <time>2018-09-15T16:45:46Z</time>
      </trkpt>
      <trkpt lat="-24.7309380" lon="-53.7525490">
        <ele>577.4</ele>
        <time>2018-09-15T16:45:47Z</time>
      </trkpt>
      <trkpt lat="-24.7309390" lon="-53.7525830">
        <ele>577.5</ele>
        <time>2018-09-15T16:45:48Z</time>
      </trkpt>
      <trkpt lat="-24.7309460" lon="-53.7526230">
        <ele>577.5</ele>
        <time>2018-09-15T16:45:49Z</time>
      </trkpt>
      <trkpt lat="-24.7309440" lon="-53.7526510">
        <ele>577.5</ele>
        <time>2018-09-15T16:45:50Z</time>
      </trkpt>
      <trkpt lat="-24.7309450" lon="-53.7526860">
        <ele>577.6</ele>
        <time>2018-09-15T16:45:51Z</time>
      </trkpt>
      <trkpt lat="-24.7309430" lon="-53.7527090">
        <ele>577.6</ele>
        <time>2018-09-15T16:45:52Z</time>
      </trkpt>
      <trkpt lat="-24.7309450" lon="-53.7527700">
        <ele>577.6</ele>
        <time>2018-09-15T16:45:54Z</time>
      </trkpt>
      <trkpt lat="-24.7309480" lon="-53.7528000">
        <ele>577.7</ele>
        <time>2018-09-15T16:45:55Z</time>
      </trkpt>
      <trkpt lat="-24.7309520" lon="-53.7528340">
        <ele>577.7</ele>
        <time>2018-09-15T16:45:56Z</time>
      </trkpt>
      <trkpt lat="-24.7309570" lon="-53.7528680">
        <ele>577.7</ele>
        <time>2018-09-15T16:45:57Z</time>
      </trkpt>
      <trkpt lat="-24.7309560" lon="-53.7528940">
        <ele>577.8</ele>
        <time>2018-09-15T16:45:58Z</time>
      </trkpt>
      <trkpt lat="-24.7309580" lon="-53.7529220">
        <ele>577.8</ele>
        <time>2018-09-15T16:45:59Z</time>
      </trkpt>
      <trkpt lat="-24.7309580" lon="-53.7529480">
        <ele>577.8</ele>
        <time>2018-09-15T16:46:00Z</time>
      </trkpt>
      <trkpt lat="-24.7309580" lon="-53.7529770">
        <ele>577.8</ele>
        <time>2018-09-15T16:46:01Z</time>
      </trkpt>
      <trkpt lat="-24.7309560" lon="-53.7530000">
        <ele>577.8</ele>
        <time>2018-09-15T16:46:02Z</time>
      </trkpt>
      <trkpt lat="-24.7309560" lon="-53.7530260">
        <ele>577.9</ele>
        <time>2018-09-15T16:46:03Z</time>
      </trkpt>
      <trkpt lat="-24.7309580" lon="-53.7530580">
        <ele>577.9</ele>
        <time>2018-09-15T16:46:04Z</time>
      </trkpt>
      <trkpt lat="-24.7309560" lon="-53.7530810">
        <ele>577.9</ele>
        <time>2018-09-15T16:46:05Z</time>
      </trkpt>
      <trkpt lat="-24.7309550" lon="-53.7531040">
        <ele>577.9</ele>
        <time>2018-09-15T16:46:06Z</time>
      </trkpt>
      <trkpt lat="-24.7309570" lon="-53.7531310">
        <ele>578.0</ele>
        <time>2018-09-15T16:46:07Z</time>
      </trkpt>
      <trkpt lat="-24.7309590" lon="-53.7531600">
        <ele>578.0</ele>
        <time>2018-09-15T16:46:08Z</time>
      </trkpt>
      <trkpt lat="-24.7309590" lon="-53.7531880">
        <ele>578.2</ele>
        <time>2018-09-15T16:46:09Z</time>
      </trkpt>
      <trkpt lat="-24.7309600" lon="-53.7532160">
        <ele>578.4</ele>
        <time>2018-09-15T16:46:10Z</time>
      </trkpt>
      <trkpt lat="-24.7309610" lon="-53.7532440">
        <ele>578.6</ele>
        <time>2018-09-15T16:46:11Z</time>
      </trkpt>
      <trkpt lat="-24.7309600" lon="-53.7532680">
        <ele>578.8</ele>
        <time>2018-09-15T16:46:12Z</time>
      </trkpt>
      <trkpt lat="-24.7309620" lon="-53.7532970">
        <ele>579.0</ele>
        <time>2018-09-15T16:46:13Z</time>
      </trkpt>
      <trkpt lat="-24.7309590" lon="-53.7533220">
        <ele>579.2</ele>
        <time>2018-09-15T16:46:14Z</time>
      </trkpt>
      <trkpt lat="-24.7309630" lon="-53.7533580">
        <ele>579.5</ele>
        <time>2018-09-15T16:46:15Z</time>
      </trkpt>
      <trkpt lat="-24.7309550" lon="-53.7533760">
        <ele>579.6</ele>
        <time>2018-09-15T16:46:16Z</time>
      </trkpt>
      <trkpt lat="-24.7309530" lon="-53.7534020">
        <ele>579.8</ele>
        <time>2018-09-15T16:46:17Z</time>
      </trkpt>
      <trkpt lat="-24.7309490" lon="-53.7534200">
        <ele>579.9</ele>
        <time>2018-09-15T16:46:18Z</time>
      </trkpt>
      <trkpt lat="-24.7309440" lon="-53.7534420">
        <ele>580.1</ele>
        <time>2018-09-15T16:46:19Z</time>
      </trkpt>
      <trkpt lat="-24.7309540" lon="-53.7534810">
        <ele>580.4</ele>
        <time>2018-09-15T16:46:20Z</time>
      </trkpt>
      <trkpt lat="-24.7309550" lon="-53.7535070">
        <ele>580.6</ele>
        <time>2018-09-15T16:46:21Z</time>
      </trkpt>
      <trkpt lat="-24.7309570" lon="-53.7535380">
        <ele>580.8</ele>
        <time>2018-09-15T16:46:22Z</time>
      </trkpt>
      <trkpt lat="-24.7309580" lon="-53.7535670">
        <ele>581.0</ele>
        <time>2018-09-15T16:46:23Z</time>
      </trkpt>
      <trkpt lat="-24.7309570" lon="-53.7535910">
        <ele>581.2</ele>
        <time>2018-09-15T16:46:24Z</time>
      </trkpt>
      <trkpt lat="-24.7309550" lon="-53.7536100">
        <ele>581.3</ele>
        <time>2018-09-15T16:46:25Z</time>
      </trkpt>
      <trkpt lat="-24.7309550" lon="-53.7536260">
        <ele>581.4</ele>
        <time>2018-09-15T16:46:26Z</time>
      </trkpt>
      <trkpt lat="-24.7309550" lon="-53.7536430">
        <ele>581.5</ele>
        <time>2018-09-15T16:46:27Z</time>
      </trkpt>
      <trkpt lat="-24.7309550" lon="-53.7536430">
        <ele>581.5</ele>
        <time>2018-09-15T16:46:28Z</time>
      </trkpt>
      <trkpt lat="-24.7309560" lon="-53.7536640">
        <ele>581.6</ele>
        <time>2018-09-15T16:46:29Z</time>
      </trkpt>
      <trkpt lat="-24.7309650" lon="-53.7536940">
        <ele>581.8</ele>
        <time>2018-09-15T16:46:30Z</time>
      </trkpt>
      <trkpt lat="-24.7309690" lon="-53.7537170">
        <ele>581.9</ele>
        <time>2018-09-15T16:46:31Z</time>
      </trkpt>
      <trkpt lat="-24.7309670" lon="-53.7537390">
        <ele>582.0</ele>
        <time>2018-09-15T16:46:32Z</time>
      </trkpt>
      <trkpt lat="-24.7309710" lon="-53.7537730">
        <ele>582.2</ele>
        <time>2018-09-15T16:46:33Z</time>
      </trkpt>
      <trkpt lat="-24.7309720" lon="-53.7538040">
        <ele>582.3</ele>
        <time>2018-09-15T16:46:34Z</time>
      </trkpt>
      <trkpt lat="-24.7309740" lon="-53.7538290">
        <ele>582.5</ele>
        <time>2018-09-15T16:46:35Z</time>
      </trkpt>
      <trkpt lat="-24.7309750" lon="-53.7538570">
        <ele>582.6</ele>
        <time>2018-09-15T16:46:36Z</time>
      </trkpt>
      <trkpt lat="-24.7309820" lon="-53.7538890">
        <ele>582.8</ele>
        <time>2018-09-15T16:46:37Z</time>
      </trkpt>
      <trkpt lat="-24.7309830" lon="-53.7539170">
        <ele>582.9</ele>
        <time>2018-09-15T16:46:38Z</time>
      </trkpt>
      <trkpt lat="-24.7309870" lon="-53.7539460">
        <ele>583.1</ele>
        <time>2018-09-15T16:46:39Z</time>
      </trkpt>
      <trkpt lat="-24.7309880" lon="-53.7539740">
        <ele>583.2</ele>
        <time>2018-09-15T16:46:40Z</time>
      </trkpt>
      <trkpt lat="-24.7309840" lon="-53.7539790">
        <ele>583.2</ele>
        <time>2018-09-15T16:46:41Z</time>
      </trkpt>
      <trkpt lat="-24.7309900" lon="-53.7540020">
        <ele>583.4</ele>
        <time>2018-09-15T16:46:42Z</time>
      </trkpt>
      <trkpt lat="-24.7309910" lon="-53.7540290">
        <ele>583.5</ele>
        <time>2018-09-15T16:46:43Z</time>
      </trkpt>
      <trkpt lat="-24.7309860" lon="-53.7540580">
        <ele>583.7</ele>
        <time>2018-09-15T16:46:44Z</time>
      </trkpt>
      <trkpt lat="-24.7309820" lon="-53.7540790">
        <ele>583.8</ele>
        <time>2018-09-15T16:46:45Z</time>
      </trkpt>
      <trkpt lat="-24.7309840" lon="-53.7541040">
        <ele>583.9</ele>
        <time>2018-09-15T16:46:46Z</time>
      </trkpt>
      <trkpt lat="-24.7309870" lon="-53.7541320">
        <ele>584.0</ele>
        <time>2018-09-15T16:46:47Z</time>
      </trkpt>
      <trkpt lat="-24.7309860" lon="-53.7541570">
        <ele>584.2</ele>
        <time>2018-09-15T16:46:48Z</time>
      </trkpt>
      <trkpt lat="-24.7309900" lon="-53.7541800">
        <ele>584.3</ele>
        <time>2018-09-15T16:46:49Z</time>
      </trkpt>
      <trkpt lat="-24.7309950" lon="-53.7542120">
        <ele>584.5</ele>
        <time>2018-09-15T16:46:50Z</time>
      </trkpt>
      <trkpt lat="-24.7309960" lon="-53.7542350">
        <ele>584.6</ele>
        <time>2018-09-15T16:46:51Z</time>
      </trkpt>
      <trkpt lat="-24.7309970" lon="-53.7542640">
        <ele>584.7</ele>
        <time>2018-09-15T16:46:52Z</time>
      </trkpt>
      <trkpt lat="-24.7309950" lon="-53.7542780">
        <ele>584.8</ele>
        <time>2018-09-15T16:46:53Z</time>
      </trkpt>
      <trkpt lat="-24.7309950" lon="-53.7543060">
        <ele>584.9</ele>
        <time>2018-09-15T16:46:54Z</time>
      </trkpt>
      <trkpt lat="-24.7309990" lon="-53.7543350">
        <ele>584.9</ele>
        <time>2018-09-15T16:46:55Z</time>
      </trkpt>
      <trkpt lat="-24.7309980" lon="-53.7543610">
        <ele>584.6</ele>
        <time>2018-09-15T16:46:56Z</time>
      </trkpt>
      <trkpt lat="-24.7309990" lon="-53.7543860">
        <ele>584.4</ele>
        <time>2018-09-15T16:46:57Z</time>
      </trkpt>
      <trkpt lat="-24.7310020" lon="-53.7544150">
        <ele>584.2</ele>
        <time>2018-09-15T16:46:58Z</time>
      </trkpt>
      <trkpt lat="-24.7310020" lon="-53.7544460">
        <ele>584.1</ele>
        <time>2018-09-15T16:46:59Z</time>
      </trkpt>
      <trkpt lat="-24.7310040" lon="-53.7544740">
        <ele>584.0</ele>
        <time>2018-09-15T16:47:00Z</time>
      </trkpt>
      <trkpt lat="-24.7310040" lon="-53.7544950">
        <ele>583.9</ele>
        <time>2018-09-15T16:47:01Z</time>
      </trkpt>
      <trkpt lat="-24.7310100" lon="-53.7545250">
        <ele>583.8</ele>
        <time>2018-09-15T16:47:02Z</time>
      </trkpt>
      <trkpt lat="-24.7310070" lon="-53.7545490">
        <ele>583.8</ele>
        <time>2018-09-15T16:47:03Z</time>
      </trkpt>
      <trkpt lat="-24.7310140" lon="-53.7545790">
        <ele>583.7</ele>
        <time>2018-09-15T16:47:04Z</time>
      </trkpt>
      <trkpt lat="-24.7310130" lon="-53.7545960">
        <ele>583.6</ele>
        <time>2018-09-15T16:47:05Z</time>
      </trkpt>
      <trkpt lat="-24.7310150" lon="-53.7546170">
        <ele>583.6</ele>
        <time>2018-09-15T16:47:06Z</time>
      </trkpt>
      <trkpt lat="-24.7310180" lon="-53.7546480">
        <ele>583.5</ele>
        <time>2018-09-15T16:47:07Z</time>
      </trkpt>
      <trkpt lat="-24.7310210" lon="-53.7546780">
        <ele>583.4</ele>
        <time>2018-09-15T16:47:08Z</time>
      </trkpt>
      <trkpt lat="-24.7310210" lon="-53.7546990">
        <ele>583.4</ele>
        <time>2018-09-15T16:47:09Z</time>
      </trkpt>
      <trkpt lat="-24.7310230" lon="-53.7547240">
        <ele>583.3</ele>
        <time>2018-09-15T16:47:10Z</time>
      </trkpt>
      <trkpt lat="-24.7310240" lon="-53.7547490">
        <ele>583.3</ele>
        <time>2018-09-15T16:47:11Z</time>
      </trkpt>
      <trkpt lat="-24.7310230" lon="-53.7547760">
        <ele>583.2</ele>
        <time>2018-09-15T16:47:12Z</time>
      </trkpt>
      <trkpt lat="-24.7310200" lon="-53.7547950">
        <ele>583.2</ele>
        <time>2018-09-15T16:47:13Z</time>
      </trkpt>
      <trkpt lat="-24.7310210" lon="-53.7548230">
        <ele>583.1</ele>
        <time>2018-09-15T16:47:14Z</time>
      </trkpt>
      <trkpt lat="-24.7310230" lon="-53.7548510">
        <ele>583.1</ele>
        <time>2018-09-15T16:47:15Z</time>
      </trkpt>
      <trkpt lat="-24.7310230" lon="-53.7548840">
        <ele>583.0</ele>
        <time>2018-09-15T16:47:16Z</time>
      </trkpt>
      <trkpt lat="-24.7310210" lon="-53.7549070">
        <ele>583.0</ele>
        <time>2018-09-15T16:47:17Z</time>
      </trkpt>
      <trkpt lat="-24.7310240" lon="-53.7549380">
        <ele>582.9</ele>
        <time>2018-09-15T16:47:18Z</time>
      </trkpt>
      <trkpt lat="-24.7310250" lon="-53.7549680">
        <ele>582.9</ele>
        <time>2018-09-15T16:47:19Z</time>
      </trkpt>
      <trkpt lat="-24.7310260" lon="-53.7549990">
        <ele>582.8</ele>
        <time>2018-09-15T16:47:20Z</time>
      </trkpt>
      <trkpt lat="-24.7310240" lon="-53.7550240">
        <ele>582.8</ele>
        <time>2018-09-15T16:47:21Z</time>
      </trkpt>
      <trkpt lat="-24.7310230" lon="-53.7550520">
        <ele>582.7</ele>
        <time>2018-09-15T16:47:22Z</time>
      </trkpt>
      <trkpt lat="-24.7310250" lon="-53.7550830">
        <ele>582.7</ele>
        <time>2018-09-15T16:47:23Z</time>
      </trkpt>
      <trkpt lat="-24.7310240" lon="-53.7551120">
        <ele>582.6</ele>
        <time>2018-09-15T16:47:24Z</time>
      </trkpt>
      <trkpt lat="-24.7310230" lon="-53.7551370">
        <ele>582.6</ele>
        <time>2018-09-15T16:47:25Z</time>
      </trkpt>
      <trkpt lat="-24.7310230" lon="-53.7551620">
        <ele>582.5</ele>
        <time>2018-09-15T16:47:26Z</time>
      </trkpt>
      <trkpt lat="-24.7310210" lon="-53.7551860">
        <ele>582.5</ele>
        <time>2018-09-15T16:47:27Z</time>
      </trkpt>
      <trkpt lat="-24.7310240" lon="-53.7552090">
        <ele>582.5</ele>
        <time>2018-09-15T16:47:28Z</time>
      </trkpt>
      <trkpt lat="-24.7310260" lon="-53.7552330">
        <ele>582.4</ele>
        <time>2018-09-15T16:47:29Z</time>
      </trkpt>
      <trkpt lat="-24.7310290" lon="-53.7552540">
        <ele>582.4</ele>
        <time>2018-09-15T16:47:30Z</time>
      </trkpt>
      <trkpt lat="-24.7310310" lon="-53.7552800">
        <ele>582.4</ele>
        <time>2018-09-15T16:47:31Z</time>
      </trkpt>
      <trkpt lat="-24.7310340" lon="-53.7553090">
        <ele>582.3</ele>
        <time>2018-09-15T16:47:32Z</time>
      </trkpt>
      <trkpt lat="-24.7310360" lon="-53.7553400">
        <ele>582.3</ele>
        <time>2018-09-15T16:47:33Z</time>
      </trkpt>
      <trkpt lat="-24.7310390" lon="-53.7553710">
        <ele>582.2</ele>
        <time>2018-09-15T16:47:34Z</time>
      </trkpt>
      <trkpt lat="-24.7310370" lon="-53.7553980">
        <ele>582.2</ele>
        <time>2018-09-15T16:47:35Z</time>
      </trkpt>
      <trkpt lat="-24.7310370" lon="-53.7554270">
        <ele>582.2</ele>
        <time>2018-09-15T16:47:36Z</time>
      </trkpt>
      <trkpt lat="-24.7310390" lon="-53.7554570">
        <ele>582.1</ele>
        <time>2018-09-15T16:47:37Z</time>
      </trkpt>
      <trkpt lat="-24.7310410" lon="-53.7554880">
        <ele>582.1</ele>
        <time>2018-09-15T16:47:38Z</time>
      </trkpt>
      <trkpt lat="-24.7310390" lon="-53.7555140">
        <ele>582.0</ele>
        <time>2018-09-15T16:47:39Z</time>
      </trkpt>
      <trkpt lat="-24.7310400" lon="-53.7555430">
        <ele>582.0</ele>
        <time>2018-09-15T16:47:40Z</time>
      </trkpt>
      <trkpt lat="-24.7310410" lon="-53.7555740">
        <ele>582.0</ele>
        <time>2018-09-15T16:47:41Z</time>
      </trkpt>
      <trkpt lat="-24.7310410" lon="-53.7556040">
        <ele>582.0</ele>
        <time>2018-09-15T16:47:42Z</time>
      </trkpt>
      <trkpt lat="-24.7310430" lon="-53.7556370">
        <ele>582.0</ele>
        <time>2018-09-15T16:47:43Z</time>
      </trkpt>
      <trkpt lat="-24.7310440" lon="-53.7556660">
        <ele>582.1</ele>
        <time>2018-09-15T16:47:44Z</time>
      </trkpt>
      <trkpt lat="-24.7310480" lon="-53.7556960">
        <ele>582.2</ele>
        <time>2018-09-15T16:47:45Z</time>
      </trkpt>
      <trkpt lat="-24.7310530" lon="-53.7557280">
        <ele>582.4</ele>
        <time>2018-09-15T16:47:46Z</time>
      </trkpt>
      <trkpt lat="-24.7310550" lon="-53.7557590">
        <ele>582.6</ele>
        <time>2018-09-15T16:47:47Z</time>
      </trkpt>
      <trkpt lat="-24.7310520" lon="-53.7557890">
        <ele>582.8</ele>
        <time>2018-09-15T16:47:48Z</time>
      </trkpt>
      <trkpt lat="-24.7310380" lon="-53.7558130">
        <ele>583.0</ele>
        <time>2018-09-15T16:47:49Z</time>
      </trkpt>
      <trkpt lat="-24.7310190" lon="-53.7558300">
        <ele>583.2</ele>
        <time>2018-09-15T16:47:50Z</time>
      </trkpt>
      <trkpt lat="-24.7309960" lon="-53.7558380">
        <ele>583.4</ele>
        <time>2018-09-15T16:47:51Z</time>
      </trkpt>
      <trkpt lat="-24.7309740" lon="-53.7558450">
        <ele>583.5</ele>
        <time>2018-09-15T16:47:52Z</time>
      </trkpt>
      <trkpt lat="-24.7309510" lon="-53.7558470">
        <ele>583.5</ele>
        <time>2018-09-15T16:47:53Z</time>
      </trkpt>
      <trkpt lat="-24.7309250" lon="-53.7558450">
        <ele>583.5</ele>
        <time>2018-09-15T16:47:54Z</time>
      </trkpt>
      <trkpt lat="-24.7309000" lon="-53.7558440">
        <ele>583.5</ele>
        <time>2018-09-15T16:47:55Z</time>
      </trkpt>
      <trkpt lat="-24.7308570" lon="-53.7558170">
        <ele>583.4</ele>
        <time>2018-09-15T16:47:56Z</time>
      </trkpt>
      <trkpt lat="-24.7308260" lon="-53.7558100">
        <ele>583.3</ele>
        <time>2018-09-15T16:47:57Z</time>
      </trkpt>
      <trkpt lat="-24.7307970" lon="-53.7558050">
        <ele>583.3</ele>
        <time>2018-09-15T16:47:58Z</time>
      </trkpt>
      <trkpt lat="-24.7307690" lon="-53.7558040">
        <ele>583.2</ele>
        <time>2018-09-15T16:47:59Z</time>
      </trkpt>
      <trkpt lat="-24.7307380" lon="-53.7558000">
        <ele>583.2</ele>
        <time>2018-09-15T16:48:00Z</time>
      </trkpt>
      <trkpt lat="-24.7307080" lon="-53.7557930">
        <ele>583.1</ele>
        <time>2018-09-15T16:48:01Z</time>
      </trkpt>
      <trkpt lat="-24.7306700" lon="-53.7557780">
        <ele>583.1</ele>
        <time>2018-09-15T16:48:02Z</time>
      </trkpt>
      <trkpt lat="-24.7306380" lon="-53.7557740">
        <ele>583.1</ele>
        <time>2018-09-15T16:48:03Z</time>
      </trkpt>
      <trkpt lat="-24.7306080" lon="-53.7557710">
        <ele>583.1</ele>
        <time>2018-09-15T16:48:04Z</time>
      </trkpt>
      <trkpt lat="-24.7305780" lon="-53.7557650">
        <ele>583.1</ele>
        <time>2018-09-15T16:48:05Z</time>
      </trkpt>
      <trkpt lat="-24.7305450" lon="-53.7557720">
        <ele>583.2</ele>
        <time>2018-09-15T16:48:06Z</time>
      </trkpt>
      <trkpt lat="-24.7305160" lon="-53.7557630">
        <ele>583.2</ele>
        <time>2018-09-15T16:48:07Z</time>
      </trkpt>
      <trkpt lat="-24.7304830" lon="-53.7557630">
        <ele>583.1</ele>
        <time>2018-09-15T16:48:08Z</time>
      </trkpt>
      <trkpt lat="-24.7304520" lon="-53.7557610">
        <ele>583.0</ele>
        <time>2018-09-15T16:48:09Z</time>
      </trkpt>
      <trkpt lat="-24.7304210" lon="-53.7557580">
        <ele>583.0</ele>
        <time>2018-09-15T16:48:10Z</time>
      </trkpt>
      <trkpt lat="-24.7303900" lon="-53.7557560">
        <ele>583.0</ele>
        <time>2018-09-15T16:48:11Z</time>
      </trkpt>
      <trkpt lat="-24.7303590" lon="-53.7557560">
        <ele>583.0</ele>
        <time>2018-09-15T16:48:12Z</time>
      </trkpt>
      <trkpt lat="-24.7303290" lon="-53.7557550">
        <ele>583.0</ele>
        <time>2018-09-15T16:48:13Z</time>
      </trkpt>
      <trkpt lat="-24.7302950" lon="-53.7557390">
        <ele>583.0</ele>
        <time>2018-09-15T16:48:14Z</time>
      </trkpt>
      <trkpt lat="-24.7302560" lon="-53.7557120">
        <ele>583.0</ele>
        <time>2018-09-15T16:48:15Z</time>
      </trkpt>
      <trkpt lat="-24.7302210" lon="-53.7557010">
        <ele>583.0</ele>
        <time>2018-09-15T16:48:16Z</time>
      </trkpt>
      <trkpt lat="-24.7301890" lon="-53.7556910">
        <ele>583.0</ele>
        <time>2018-09-15T16:48:17Z</time>
      </trkpt>
      <trkpt lat="-24.7301550" lon="-53.7556810">
        <ele>583.0</ele>
        <time>2018-09-15T16:48:18Z</time>
      </trkpt>
      <trkpt lat="-24.7301220" lon="-53.7556740">
        <ele>583.0</ele>
        <time>2018-09-15T16:48:19Z</time>
      </trkpt>
      <trkpt lat="-24.7300900" lon="-53.7556650">
        <ele>583.0</ele>
        <time>2018-09-15T16:48:20Z</time>
      </trkpt>
      <trkpt lat="-24.7300550" lon="-53.7556630">
        <ele>583.0</ele>
        <time>2018-09-15T16:48:21Z</time>
      </trkpt>
      <trkpt lat="-24.7300260" lon="-53.7556540">
        <ele>583.0</ele>
        <time>2018-09-15T16:48:22Z</time>
      </trkpt>
      <trkpt lat="-24.7299960" lon="-53.7556400">
        <ele>583.0</ele>
        <time>2018-09-15T16:48:23Z</time>
      </trkpt>
      <trkpt lat="-24.7299570" lon="-53.7556470">
        <ele>583.0</ele>
        <time>2018-09-15T16:48:24Z</time>
      </trkpt>
      <trkpt lat="-24.7299230" lon="-53.7556440">
        <ele>583.0</ele>
        <time>2018-09-15T16:48:25Z</time>
      </trkpt>
      <trkpt lat="-24.7298890" lon="-53.7556450">
        <ele>583.0</ele>
        <time>2018-09-15T16:48:26Z</time>
      </trkpt>
      <trkpt lat="-24.7298510" lon="-53.7556460">
        <ele>583.0</ele>
        <time>2018-09-15T16:48:27Z</time>
      </trkpt>
      <trkpt lat="-24.7298180" lon="-53.7556390">
        <ele>583.0</ele>
        <time>2018-09-15T16:48:28Z</time>
      </trkpt>
      <trkpt lat="-24.7297820" lon="-53.7556340">
        <ele>583.0</ele>
        <time>2018-09-15T16:48:29Z</time>
      </trkpt>
      <trkpt lat="-24.7297510" lon="-53.7556210">
        <ele>583.0</ele>
        <time>2018-09-15T16:48:30Z</time>
      </trkpt>
      <trkpt lat="-24.7297160" lon="-53.7556230">
        <ele>583.0</ele>
        <time>2018-09-15T16:48:31Z</time>
      </trkpt>
      <trkpt lat="-24.7296790" lon="-53.7556180">
        <ele>583.1</ele>
        <time>2018-09-15T16:48:32Z</time>
      </trkpt>
      <trkpt lat="-24.7296430" lon="-53.7556140">
        <ele>583.1</ele>
        <time>2018-09-15T16:48:33Z</time>
      </trkpt>
      <trkpt lat="-24.7296070" lon="-53.7556070">
        <ele>583.1</ele>
        <time>2018-09-15T16:48:34Z</time>
      </trkpt>
      <trkpt lat="-24.7295770" lon="-53.7556080">
        <ele>583.1</ele>
        <time>2018-09-15T16:48:35Z</time>
      </trkpt>
      <trkpt lat="-24.7295420" lon="-53.7556010">
        <ele>583.1</ele>
        <time>2018-09-15T16:48:36Z</time>
      </trkpt>
      <trkpt lat="-24.7295020" lon="-53.7555980">
        <ele>583.0</ele>
        <time>2018-09-15T16:48:37Z</time>
      </trkpt>
      <trkpt lat="-24.7294640" lon="-53.7556000">
        <ele>582.9</ele>
        <time>2018-09-15T16:48:38Z</time>
      </trkpt>
      <trkpt lat="-24.7294250" lon="-53.7555960">
        <ele>582.8</ele>
        <time>2018-09-15T16:48:39Z</time>
      </trkpt>
      <trkpt lat="-24.7293840" lon="-53.7555930">
        <ele>582.7</ele>
        <time>2018-09-15T16:48:40Z</time>
      </trkpt>
      <trkpt lat="-24.7293450" lon="-53.7555860">
        <ele>582.6</ele>
        <time>2018-09-15T16:48:41Z</time>
      </trkpt>
      <trkpt lat="-24.7293080" lon="-53.7555730">
        <ele>582.5</ele>
        <time>2018-09-15T16:48:42Z</time>
      </trkpt>
      <trkpt lat="-24.7292750" lon="-53.7555700">
        <ele>582.5</ele>
        <time>2018-09-15T16:48:43Z</time>
      </trkpt>
      <trkpt lat="-24.7292320" lon="-53.7555610">
        <ele>582.4</ele>
        <time>2018-09-15T16:48:44Z</time>
      </trkpt>
      <trkpt lat="-24.7291910" lon="-53.7555570">
        <ele>582.3</ele>
        <time>2018-09-15T16:48:45Z</time>
      </trkpt>
      <trkpt lat="-24.7291530" lon="-53.7555530">
        <ele>582.2</ele>
        <time>2018-09-15T16:48:46Z</time>
      </trkpt>
      <trkpt lat="-24.7291120" lon="-53.7555550">
        <ele>582.2</ele>
        <time>2018-09-15T16:48:47Z</time>
      </trkpt>
      <trkpt lat="-24.7290700" lon="-53.7555490">
        <ele>582.1</ele>
        <time>2018-09-15T16:48:48Z</time>
      </trkpt>
      <trkpt lat="-24.7290290" lon="-53.7555510">
        <ele>582.0</ele>
        <time>2018-09-15T16:48:49Z</time>
      </trkpt>
      <trkpt lat="-24.7289890" lon="-53.7555480">
        <ele>582.0</ele>
        <time>2018-09-15T16:48:50Z</time>
      </trkpt>
      <trkpt lat="-24.7289480" lon="-53.7555630">
        <ele>581.9</ele>
        <time>2018-09-15T16:48:51Z</time>
      </trkpt>
      <trkpt lat="-24.7289140" lon="-53.7555470">
        <ele>581.8</ele>
        <time>2018-09-15T16:48:52Z</time>
      </trkpt>
      <trkpt lat="-24.7288740" lon="-53.7555430">
        <ele>581.8</ele>
        <time>2018-09-15T16:48:53Z</time>
      </trkpt>
      <trkpt lat="-24.7288320" lon="-53.7555400">
        <ele>581.7</ele>
        <time>2018-09-15T16:48:54Z</time>
      </trkpt>
      <trkpt lat="-24.7287920" lon="-53.7555360">
        <ele>581.7</ele>
        <time>2018-09-15T16:48:55Z</time>
      </trkpt>
      <trkpt lat="-24.7287530" lon="-53.7555360">
        <ele>581.6</ele>
        <time>2018-09-15T16:48:56Z</time>
      </trkpt>
      <trkpt lat="-24.7287160" lon="-53.7555420">
        <ele>581.6</ele>
        <time>2018-09-15T16:48:57Z</time>
      </trkpt>
      <trkpt lat="-24.7286750" lon="-53.7555380">
        <ele>581.5</ele>
        <time>2018-09-15T16:48:58Z</time>
      </trkpt>
      <trkpt lat="-24.7286350" lon="-53.7555420">
        <ele>581.5</ele>
        <time>2018-09-15T16:48:59Z</time>
      </trkpt>
      <trkpt lat="-24.7286000" lon="-53.7555450">
        <ele>581.4</ele>
        <time>2018-09-15T16:49:00Z</time>
      </trkpt>
      <trkpt lat="-24.7285660" lon="-53.7555410">
        <ele>581.3</ele>
        <time>2018-09-15T16:49:01Z</time>
      </trkpt>
      <trkpt lat="-24.7285310" lon="-53.7555290">
        <ele>581.3</ele>
        <time>2018-09-15T16:49:02Z</time>
      </trkpt>
      <trkpt lat="-24.7284920" lon="-53.7555300">
        <ele>581.2</ele>
        <time>2018-09-15T16:49:03Z</time>
      </trkpt>
      <trkpt lat="-24.7284540" lon="-53.7555290">
        <ele>581.2</ele>
        <time>2018-09-15T16:49:04Z</time>
      </trkpt>
      <trkpt lat="-24.7284140" lon="-53.7555400">
        <ele>581.1</ele>
        <time>2018-09-15T16:49:05Z</time>
      </trkpt>
      <trkpt lat="-24.7283670" lon="-53.7555500">
        <ele>581.1</ele>
        <time>2018-09-15T16:49:06Z</time>
      </trkpt>
      <trkpt lat="-24.7283200" lon="-53.7555580">
        <ele>581.1</ele>
        <time>2018-09-15T16:49:07Z</time>
      </trkpt>
      <trkpt lat="-24.7282760" lon="-53.7555640">
        <ele>581.0</ele>
        <time>2018-09-15T16:49:08Z</time>
      </trkpt>
      <trkpt lat="-24.7282320" lon="-53.7555670">
        <ele>581.0</ele>
        <time>2018-09-15T16:49:09Z</time>
      </trkpt>
      <trkpt lat="-24.7281870" lon="-53.7555650">
        <ele>581.0</ele>
        <time>2018-09-15T16:49:10Z</time>
      </trkpt>
      <trkpt lat="-24.7281420" lon="-53.7555640">
        <ele>581.0</ele>
        <time>2018-09-15T16:49:11Z</time>
      </trkpt>
      <trkpt lat="-24.7280950" lon="-53.7555630">
        <ele>581.0</ele>
        <time>2018-09-15T16:49:12Z</time>
      </trkpt>
      <trkpt lat="-24.7280440" lon="-53.7555610">
        <ele>581.0</ele>
        <time>2018-09-15T16:49:13Z</time>
      </trkpt>
      <trkpt lat="-24.7279950" lon="-53.7555610">
        <ele>581.0</ele>
        <time>2018-09-15T16:49:14Z</time>
      </trkpt>
      <trkpt lat="-24.7279450" lon="-53.7555650">
        <ele>581.0</ele>
        <time>2018-09-15T16:49:15Z</time>
      </trkpt>
      <trkpt lat="-24.7278970" lon="-53.7555710">
        <ele>581.0</ele>
        <time>2018-09-15T16:49:16Z</time>
      </trkpt>
      <trkpt lat="-24.7278460" lon="-53.7555770">
        <ele>581.0</ele>
        <time>2018-09-15T16:49:17Z</time>
      </trkpt>
      <trkpt lat="-24.7277950" lon="-53.7555810">
        <ele>581.0</ele>
        <time>2018-09-15T16:49:18Z</time>
      </trkpt>
      <trkpt lat="-24.7277380" lon="-53.7555780">
        <ele>581.0</ele>
        <time>2018-09-15T16:49:19Z</time>
      </trkpt>
      <trkpt lat="-24.7276890" lon="-53.7555800">
        <ele>581.0</ele>
        <time>2018-09-15T16:49:20Z</time>
      </trkpt>
      <trkpt lat="-24.7276370" lon="-53.7555780">
        <ele>580.9</ele>
        <time>2018-09-15T16:49:21Z</time>
      </trkpt>
      <trkpt lat="-24.7275850" lon="-53.7555780">
        <ele>580.9</ele>
        <time>2018-09-15T16:49:22Z</time>
      </trkpt>
      <trkpt lat="-24.7275320" lon="-53.7555760">
        <ele>580.9</ele>
        <time>2018-09-15T16:49:23Z</time>
      </trkpt>
      <trkpt lat="-24.7274760" lon="-53.7555750">
        <ele>580.9</ele>
        <time>2018-09-15T16:49:24Z</time>
      </trkpt>
      <trkpt lat="-24.7274190" lon="-53.7555770">
        <ele>580.9</ele>
        <time>2018-09-15T16:49:25Z</time>
      </trkpt>
      <trkpt lat="-24.7273620" lon="-53.7555830">
        <ele>580.8</ele>
        <time>2018-09-15T16:49:26Z</time>
      </trkpt>
      <trkpt lat="-24.7273030" lon="-53.7555890">
        <ele>580.7</ele>
        <time>2018-09-15T16:49:27Z</time>
      </trkpt>
      <trkpt lat="-24.7272430" lon="-53.7555900">
        <ele>580.6</ele>
        <time>2018-09-15T16:49:28Z</time>
      </trkpt>
      <trkpt lat="-24.7271810" lon="-53.7555910">
        <ele>580.5</ele>
        <time>2018-09-15T16:49:29Z</time>
      </trkpt>
      <trkpt lat="-24.7271180" lon="-53.7555940">
        <ele>580.4</ele>
        <time>2018-09-15T16:49:30Z</time>
      </trkpt>
      <trkpt lat="-24.7269910" lon="-53.7555860">
        <ele>580.2</ele>
        <time>2018-09-15T16:49:31Z</time>
      </trkpt>
      <trkpt lat="-24.7269240" lon="-53.7555910">
        <ele>580.1</ele>
        <time>2018-09-15T16:49:32Z</time>
      </trkpt>
      <trkpt lat="-24.7268580" lon="-53.7556000">
        <ele>580.0</ele>
        <time>2018-09-15T16:49:33Z</time>
      </trkpt>
      <trkpt lat="-24.7267980" lon="-53.7556060">
        <ele>580.0</ele>
        <time>2018-09-15T16:49:34Z</time>
      </trkpt>
      <trkpt lat="-24.7267440" lon="-53.7556130">
        <ele>579.9</ele>
        <time>2018-09-15T16:49:35Z</time>
      </trkpt>
      <trkpt lat="-24.7266950" lon="-53.7556300">
        <ele>579.9</ele>
        <time>2018-09-15T16:49:36Z</time>
      </trkpt>
      <trkpt lat="-24.7266550" lon="-53.7556680">
        <ele>579.5</ele>
        <time>2018-09-15T16:49:37Z</time>
      </trkpt>
      <trkpt lat="-24.7266370" lon="-53.7557230">
        <ele>579.5</ele>
        <time>2018-09-15T16:49:38Z</time>
      </trkpt>
      <trkpt lat="-24.7266340" lon="-53.7557810">
        <ele>579.4</ele>
        <time>2018-09-15T16:49:39Z</time>
      </trkpt>
      <trkpt lat="-24.7266330" lon="-53.7558410">
        <ele>579.3</ele>
        <time>2018-09-15T16:49:40Z</time>
      </trkpt>
      <trkpt lat="-24.7266300" lon="-53.7559070">
        <ele>579.3</ele>
        <time>2018-09-15T16:49:41Z</time>
      </trkpt>
      <trkpt lat="-24.7266250" lon="-53.7559720">
        <ele>579.2</ele>
        <time>2018-09-15T16:49:42Z</time>
      </trkpt>
      <trkpt lat="-24.7266140" lon="-53.7560340">
        <ele>579.2</ele>
        <time>2018-09-15T16:49:43Z</time>
      </trkpt>
      <trkpt lat="-24.7265990" lon="-53.7560920">
        <ele>579.2</ele>
        <time>2018-09-15T16:49:44Z</time>
      </trkpt>
      <trkpt lat="-24.7265850" lon="-53.7561520">
        <ele>579.1</ele>
        <time>2018-09-15T16:49:45Z</time>
      </trkpt>
      <trkpt lat="-24.7265740" lon="-53.7562210">
        <ele>579.1</ele>
        <time>2018-09-15T16:49:46Z</time>
      </trkpt>
      <trkpt lat="-24.7265700" lon="-53.7562860">
        <ele>579.0</ele>
        <time>2018-09-15T16:49:47Z</time>
      </trkpt>
      <trkpt lat="-24.7265650" lon="-53.7564230">
        <ele>578.6</ele>
        <time>2018-09-15T16:49:49Z</time>
      </trkpt>
      <trkpt lat="-24.7265630" lon="-53.7564910">
        <ele>578.4</ele>
        <time>2018-09-15T16:49:50Z</time>
      </trkpt>
      <trkpt lat="-24.7265620" lon="-53.7565610">
        <ele>578.2</ele>
        <time>2018-09-15T16:49:51Z</time>
      </trkpt>
      <trkpt lat="-24.7265610" lon="-53.7566320">
        <ele>577.9</ele>
        <time>2018-09-15T16:49:52Z</time>
      </trkpt>
      <trkpt lat="-24.7265620" lon="-53.7567040">
        <ele>577.4</ele>
        <time>2018-09-15T16:49:53Z</time>
      </trkpt>
      <trkpt lat="-24.7265620" lon="-53.7567760">
        <ele>577.1</ele>
        <time>2018-09-15T16:49:54Z</time>
      </trkpt>
      <trkpt lat="-24.7265620" lon="-53.7568460">
        <ele>576.8</ele>
        <time>2018-09-15T16:49:55Z</time>
      </trkpt>
      <trkpt lat="-24.7265620" lon="-53.7569220">
        <ele>576.6</ele>
        <time>2018-09-15T16:49:56Z</time>
      </trkpt>
      <trkpt lat="-24.7265620" lon="-53.7569990">
        <ele>576.5</ele>
        <time>2018-09-15T16:49:57Z</time>
      </trkpt>
      <trkpt lat="-24.7265600" lon="-53.7570700">
        <ele>576.5</ele>
        <time>2018-09-15T16:49:58Z</time>
      </trkpt>
      <trkpt lat="-24.7265600" lon="-53.7571520">
        <ele>576.4</ele>
        <time>2018-09-15T16:49:59Z</time>
      </trkpt>
      <trkpt lat="-24.7265650" lon="-53.7572270">
        <ele>576.3</ele>
        <time>2018-09-15T16:50:00Z</time>
      </trkpt>
      <trkpt lat="-24.7265690" lon="-53.7573000">
        <ele>576.2</ele>
        <time>2018-09-15T16:50:01Z</time>
      </trkpt>
      <trkpt lat="-24.7265680" lon="-53.7573820">
        <ele>576.2</ele>
        <time>2018-09-15T16:50:02Z</time>
      </trkpt>
      <trkpt lat="-24.7265650" lon="-53.7574610">
        <ele>576.2</ele>
        <time>2018-09-15T16:50:03Z</time>
      </trkpt>
      <trkpt lat="-24.7265600" lon="-53.7575410">
        <ele>576.1</ele>
        <time>2018-09-15T16:50:04Z</time>
      </trkpt>
      <trkpt lat="-24.7265560" lon="-53.7576180">
        <ele>576.1</ele>
        <time>2018-09-15T16:50:05Z</time>
      </trkpt>
      <trkpt lat="-24.7265580" lon="-53.7576980">
        <ele>576.1</ele>
        <time>2018-09-15T16:50:06Z</time>
      </trkpt>
      <trkpt lat="-24.7265580" lon="-53.7577790">
        <ele>576.0</ele>
        <time>2018-09-15T16:50:07Z</time>
      </trkpt>
      <trkpt lat="-24.7265570" lon="-53.7578610">
        <ele>575.9</ele>
        <time>2018-09-15T16:50:08Z</time>
      </trkpt>
      <trkpt lat="-24.7265540" lon="-53.7579430">
        <ele>575.6</ele>
        <time>2018-09-15T16:50:09Z</time>
      </trkpt>
      <trkpt lat="-24.7265510" lon="-53.7580250">
        <ele>575.2</ele>
        <time>2018-09-15T16:50:10Z</time>
      </trkpt>
      <trkpt lat="-24.7265500" lon="-53.7581050">
        <ele>574.9</ele>
        <time>2018-09-15T16:50:11Z</time>
      </trkpt>
      <trkpt lat="-24.7265520" lon="-53.7581860">
        <ele>574.7</ele>
        <time>2018-09-15T16:50:12Z</time>
      </trkpt>
      <trkpt lat="-24.7265520" lon="-53.7582720">
        <ele>574.5</ele>
        <time>2018-09-15T16:50:13Z</time>
      </trkpt>
      <trkpt lat="-24.7265530" lon="-53.7583410">
        <ele>574.2</ele>
        <time>2018-09-15T16:50:14Z</time>
      </trkpt>
      <trkpt lat="-24.7265520" lon="-53.7584170">
        <ele>573.9</ele>
        <time>2018-09-15T16:50:15Z</time>
      </trkpt>
      <trkpt lat="-24.7265540" lon="-53.7584890">
        <ele>573.7</ele>
        <time>2018-09-15T16:50:16Z</time>
      </trkpt>
      <trkpt lat="-24.7265520" lon="-53.7585580">
        <ele>573.5</ele>
        <time>2018-09-15T16:50:17Z</time>
      </trkpt>
      <trkpt lat="-24.7265510" lon="-53.7586290">
        <ele>573.4</ele>
        <time>2018-09-15T16:50:18Z</time>
      </trkpt>
      <trkpt lat="-24.7265500" lon="-53.7586980">
        <ele>573.3</ele>
        <time>2018-09-15T16:50:19Z</time>
      </trkpt>
      <trkpt lat="-24.7265530" lon="-53.7587660">
        <ele>573.1</ele>
        <time>2018-09-15T16:50:20Z</time>
      </trkpt>
      <trkpt lat="-24.7265540" lon="-53.7588220">
        <ele>573.0</ele>
        <time>2018-09-15T16:50:21Z</time>
      </trkpt>
      <trkpt lat="-24.7265570" lon="-53.7588850">
        <ele>573.0</ele>
        <time>2018-09-15T16:50:22Z</time>
      </trkpt>
      <trkpt lat="-24.7265600" lon="-53.7589460">
        <ele>573.0</ele>
        <time>2018-09-15T16:50:23Z</time>
      </trkpt>
      <trkpt lat="-24.7265580" lon="-53.7589990">
        <ele>573.0</ele>
        <time>2018-09-15T16:50:24Z</time>
      </trkpt>
      <trkpt lat="-24.7265380" lon="-53.7590490">
        <ele>573.0</ele>
        <time>2018-09-15T16:50:25Z</time>
      </trkpt>
      <trkpt lat="-24.7265060" lon="-53.7590970">
        <ele>573.0</ele>
        <time>2018-09-15T16:50:26Z</time>
      </trkpt>
      <trkpt lat="-24.7264580" lon="-53.7591300">
        <ele>572.9</ele>
        <time>2018-09-15T16:50:27Z</time>
      </trkpt>
      <trkpt lat="-24.7264050" lon="-53.7591410">
        <ele>572.9</ele>
        <time>2018-09-15T16:50:28Z</time>
      </trkpt>
      <trkpt lat="-24.7263520" lon="-53.7591470">
        <ele>572.9</ele>
        <time>2018-09-15T16:50:29Z</time>
      </trkpt>
      <trkpt lat="-24.7263000" lon="-53.7591440">
        <ele>572.9</ele>
        <time>2018-09-15T16:50:30Z</time>
      </trkpt>
      <trkpt lat="-24.7263000" lon="-53.7591440">
        <ele>572.9</ele>
        <time>2018-09-15T16:50:31Z</time>
      </trkpt>
      <trkpt lat="-24.7262460" lon="-53.7591430">
        <ele>572.8</ele>
        <time>2018-09-15T16:50:32Z</time>
      </trkpt>
      <trkpt lat="-24.7261890" lon="-53.7591450">
        <ele>572.8</ele>
        <time>2018-09-15T16:50:33Z</time>
      </trkpt>
      <trkpt lat="-24.7261380" lon="-53.7591480">
        <ele>572.8</ele>
        <time>2018-09-15T16:50:34Z</time>
      </trkpt>
      <trkpt lat="-24.7260810" lon="-53.7591520">
        <ele>572.8</ele>
        <time>2018-09-15T16:50:35Z</time>
      </trkpt>
      <trkpt lat="-24.7260150" lon="-53.7591500">
        <ele>572.8</ele>
        <time>2018-09-15T16:50:36Z</time>
      </trkpt>
      <trkpt lat="-24.7259580" lon="-53.7591470">
        <ele>572.8</ele>
        <time>2018-09-15T16:50:37Z</time>
      </trkpt>
      <trkpt lat="-24.7258990" lon="-53.7591420">
        <ele>572.8</ele>
        <time>2018-09-15T16:50:38Z</time>
      </trkpt>
      <trkpt lat="-24.7258410" lon="-53.7591430">
        <ele>572.8</ele>
        <time>2018-09-15T16:50:39Z</time>
      </trkpt>
      <trkpt lat="-24.7257820" lon="-53.7591420">
        <ele>572.7</ele>
        <time>2018-09-15T16:50:40Z</time>
      </trkpt>
      <trkpt lat="-24.7257240" lon="-53.7591300">
        <ele>572.7</ele>
        <time>2018-09-15T16:50:41Z</time>
      </trkpt>
      <trkpt lat="-24.7256610" lon="-53.7591300">
        <ele>572.6</ele>
        <time>2018-09-15T16:50:42Z</time>
      </trkpt>
      <trkpt lat="-24.7255980" lon="-53.7591320">
        <ele>572.5</ele>
        <time>2018-09-15T16:50:43Z</time>
      </trkpt>
      <trkpt lat="-24.7255350" lon="-53.7591320">
        <ele>572.4</ele>
        <time>2018-09-15T16:50:44Z</time>
      </trkpt>
      <trkpt lat="-24.7254760" lon="-53.7591360">
        <ele>572.2</ele>
        <time>2018-09-15T16:50:45Z</time>
      </trkpt>
      <trkpt lat="-24.7254160" lon="-53.7591410">
        <ele>572.1</ele>
        <time>2018-09-15T16:50:46Z</time>
      </trkpt>
      <trkpt lat="-24.7253590" lon="-53.7591460">
        <ele>572.0</ele>
        <time>2018-09-15T16:50:47Z</time>
      </trkpt>
      <trkpt lat="-24.7253080" lon="-53.7591490">
        <ele>572.0</ele>
        <time>2018-09-15T16:50:48Z</time>
      </trkpt>
      <trkpt lat="-24.7252540" lon="-53.7591440">
        <ele>571.8</ele>
        <time>2018-09-15T16:50:49Z</time>
      </trkpt>
      <trkpt lat="-24.7251980" lon="-53.7591430">
        <ele>571.7</ele>
        <time>2018-09-15T16:50:50Z</time>
      </trkpt>
      <trkpt lat="-24.7251420" lon="-53.7591430">
        <ele>571.5</ele>
        <time>2018-09-15T16:50:51Z</time>
      </trkpt>
      <trkpt lat="-24.7250890" lon="-53.7591410">
        <ele>571.3</ele>
        <time>2018-09-15T16:50:52Z</time>
      </trkpt>
      <trkpt lat="-24.7250380" lon="-53.7591390">
        <ele>571.1</ele>
        <time>2018-09-15T16:50:53Z</time>
      </trkpt>
      <trkpt lat="-24.7249860" lon="-53.7591360">
        <ele>571.0</ele>
        <time>2018-09-15T16:50:54Z</time>
      </trkpt>
      <trkpt lat="-24.7249380" lon="-53.7591290">
        <ele>570.9</ele>
        <time>2018-09-15T16:50:55Z</time>
      </trkpt>
      <trkpt lat="-24.7248900" lon="-53.7591250">
        <ele>570.8</ele>
        <time>2018-09-15T16:50:56Z</time>
      </trkpt>
      <trkpt lat="-24.7248480" lon="-53.7591250">
        <ele>570.7</ele>
        <time>2018-09-15T16:50:57Z</time>
      </trkpt>
      <trkpt lat="-24.7248010" lon="-53.7591260">
        <ele>570.6</ele>
        <time>2018-09-15T16:50:58Z</time>
      </trkpt>
      <trkpt lat="-24.7247550" lon="-53.7591250">
        <ele>570.5</ele>
        <time>2018-09-15T16:50:59Z</time>
      </trkpt>
      <trkpt lat="-24.7247080" lon="-53.7591250">
        <ele>570.4</ele>
        <time>2018-09-15T16:51:00Z</time>
      </trkpt>
      <trkpt lat="-24.7246610" lon="-53.7591220">
        <ele>570.2</ele>
        <time>2018-09-15T16:51:01Z</time>
      </trkpt>
      <trkpt lat="-24.7246140" lon="-53.7591260">
        <ele>570.1</ele>
        <time>2018-09-15T16:51:02Z</time>
      </trkpt>
      <trkpt lat="-24.7245670" lon="-53.7591280">
        <ele>570.0</ele>
        <time>2018-09-15T16:51:03Z</time>
      </trkpt>
      <trkpt lat="-24.7245250" lon="-53.7591270">
        <ele>570.0</ele>
        <time>2018-09-15T16:51:04Z</time>
      </trkpt>
      <trkpt lat="-24.7244830" lon="-53.7591250">
        <ele>570.0</ele>
        <time>2018-09-15T16:51:05Z</time>
      </trkpt>
      <trkpt lat="-24.7244430" lon="-53.7591250">
        <ele>569.7</ele>
        <time>2018-09-15T16:51:06Z</time>
      </trkpt>
      <trkpt lat="-24.7244050" lon="-53.7591260">
        <ele>569.3</ele>
        <time>2018-09-15T16:51:07Z</time>
      </trkpt>
      <trkpt lat="-24.7243680" lon="-53.7591250">
        <ele>569.1</ele>
        <time>2018-09-15T16:51:08Z</time>
      </trkpt>
      <trkpt lat="-24.7243320" lon="-53.7591220">
        <ele>568.9</ele>
        <time>2018-09-15T16:51:09Z</time>
      </trkpt>
      <trkpt lat="-24.7242940" lon="-53.7591230">
        <ele>568.9</ele>
        <time>2018-09-15T16:51:10Z</time>
      </trkpt>
      <trkpt lat="-24.7242570" lon="-53.7591210">
        <ele>569.0</ele>
        <time>2018-09-15T16:51:11Z</time>
      </trkpt>
      <trkpt lat="-24.7242180" lon="-53.7591220">
        <ele>569.1</ele>
        <time>2018-09-15T16:51:12Z</time>
      </trkpt>
      <trkpt lat="-24.7241810" lon="-53.7591200">
        <ele>569.5</ele>
        <time>2018-09-15T16:51:13Z</time>
      </trkpt>
      <trkpt lat="-24.7241430" lon="-53.7591170">
        <ele>569.9</ele>
        <time>2018-09-15T16:51:14Z</time>
      </trkpt>
      <trkpt lat="-24.7241040" lon="-53.7591170">
        <ele>569.7</ele>
        <time>2018-09-15T16:51:15Z</time>
      </trkpt>
      <trkpt lat="-24.7240650" lon="-53.7591180">
        <ele>569.5</ele>
        <time>2018-09-15T16:51:16Z</time>
      </trkpt>
      <trkpt lat="-24.7240240" lon="-53.7591170">
        <ele>569.5</ele>
        <time>2018-09-15T16:51:17Z</time>
      </trkpt>
      <trkpt lat="-24.7239840" lon="-53.7591190">
        <ele>569.6</ele>
        <time>2018-09-15T16:51:18Z</time>
      </trkpt>
      <trkpt lat="-24.7239440" lon="-53.7591180">
        <ele>569.8</ele>
        <time>2018-09-15T16:51:19Z</time>
      </trkpt>
      <trkpt lat="-24.7239020" lon="-53.7591200">
        <ele>570.1</ele>
        <time>2018-09-15T16:51:20Z</time>
      </trkpt>
      <trkpt lat="-24.7238600" lon="-53.7591250">
        <ele>570.3</ele>
        <time>2018-09-15T16:51:21Z</time>
      </trkpt>
      <trkpt lat="-24.7238170" lon="-53.7591260">
        <ele>570.4</ele>
        <time>2018-09-15T16:51:22Z</time>
      </trkpt>
      <trkpt lat="-24.7237770" lon="-53.7591270">
        <ele>570.3</ele>
        <time>2018-09-15T16:51:23Z</time>
      </trkpt>
      <trkpt lat="-24.7237370" lon="-53.7591250">
        <ele>570.0</ele>
        <time>2018-09-15T16:51:24Z</time>
      </trkpt>
      <trkpt lat="-24.7236950" lon="-53.7591240">
        <ele>570.0</ele>
        <time>2018-09-15T16:51:25Z</time>
      </trkpt>
      <trkpt lat="-24.7236530" lon="-53.7591210">
        <ele>570.1</ele>
        <time>2018-09-15T16:51:26Z</time>
      </trkpt>
      <trkpt lat="-24.7236120" lon="-53.7591170">
        <ele>570.1</ele>
        <time>2018-09-15T16:51:27Z</time>
      </trkpt>
      <trkpt lat="-24.7235730" lon="-53.7591150">
        <ele>570.1</ele>
        <time>2018-09-15T16:51:28Z</time>
      </trkpt>
      <trkpt lat="-24.7235310" lon="-53.7591130">
        <ele>570.2</ele>
        <time>2018-09-15T16:51:29Z</time>
      </trkpt>
      <trkpt lat="-24.7234880" lon="-53.7591120">
        <ele>570.2</ele>
        <time>2018-09-15T16:51:30Z</time>
      </trkpt>
      <trkpt lat="-24.7234440" lon="-53.7591130">
        <ele>570.3</ele>
        <time>2018-09-15T16:51:31Z</time>
      </trkpt>
      <trkpt lat="-24.7234020" lon="-53.7591110">
        <ele>570.3</ele>
        <time>2018-09-15T16:51:32Z</time>
      </trkpt>
      <trkpt lat="-24.7233590" lon="-53.7591110">
        <ele>570.3</ele>
        <time>2018-09-15T16:51:33Z</time>
      </trkpt>
      <trkpt lat="-24.7233170" lon="-53.7591120">
        <ele>570.4</ele>
        <time>2018-09-15T16:51:34Z</time>
      </trkpt>
      <trkpt lat="-24.7232750" lon="-53.7591120">
        <ele>570.4</ele>
        <time>2018-09-15T16:51:35Z</time>
      </trkpt>
      <trkpt lat="-24.7232340" lon="-53.7591120">
        <ele>570.4</ele>
        <time>2018-09-15T16:51:36Z</time>
      </trkpt>
      <trkpt lat="-24.7231930" lon="-53.7591130">
        <ele>570.5</ele>
        <time>2018-09-15T16:51:37Z</time>
      </trkpt>
      <trkpt lat="-24.7231520" lon="-53.7591170">
        <ele>570.5</ele>
        <time>2018-09-15T16:51:38Z</time>
      </trkpt>
      <trkpt lat="-24.7231110" lon="-53.7591200">
        <ele>570.6</ele>
        <time>2018-09-15T16:51:39Z</time>
      </trkpt>
      <trkpt lat="-24.7230730" lon="-53.7591200">
        <ele>570.6</ele>
        <time>2018-09-15T16:51:40Z</time>
      </trkpt>
      <trkpt lat="-24.7230320" lon="-53.7591200">
        <ele>570.7</ele>
        <time>2018-09-15T16:51:41Z</time>
      </trkpt>
      <trkpt lat="-24.7229930" lon="-53.7591170">
        <ele>570.7</ele>
        <time>2018-09-15T16:51:42Z</time>
      </trkpt>
      <trkpt lat="-24.7229550" lon="-53.7591120">
        <ele>570.8</ele>
        <time>2018-09-15T16:51:43Z</time>
      </trkpt>
      <trkpt lat="-24.7229170" lon="-53.7591080">
        <ele>570.9</ele>
        <time>2018-09-15T16:51:44Z</time>
      </trkpt>
      <trkpt lat="-24.7228780" lon="-53.7591040">
        <ele>570.9</ele>
        <time>2018-09-15T16:51:45Z</time>
      </trkpt>
      <trkpt lat="-24.7228400" lon="-53.7591030">
        <ele>571.0</ele>
        <time>2018-09-15T16:51:46Z</time>
      </trkpt>
      <trkpt lat="-24.7228000" lon="-53.7591100">
        <ele>571.0</ele>
        <time>2018-09-15T16:51:47Z</time>
      </trkpt>
      <trkpt lat="-24.7227650" lon="-53.7591060">
        <ele>571.0</ele>
        <time>2018-09-15T16:51:48Z</time>
      </trkpt>
      <trkpt lat="-24.7227320" lon="-53.7591030">
        <ele>571.1</ele>
        <time>2018-09-15T16:51:49Z</time>
      </trkpt>
      <trkpt lat="-24.7227000" lon="-53.7591020">
        <ele>571.1</ele>
        <time>2018-09-15T16:51:50Z</time>
      </trkpt>
      <trkpt lat="-24.7226670" lon="-53.7591030">
        <ele>571.1</ele>
        <time>2018-09-15T16:51:51Z</time>
      </trkpt>
      <trkpt lat="-24.7226350" lon="-53.7591090">
        <ele>571.1</ele>
        <time>2018-09-15T16:51:52Z</time>
      </trkpt>
      <trkpt lat="-24.7226030" lon="-53.7591110">
        <ele>571.2</ele>
        <time>2018-09-15T16:51:53Z</time>
      </trkpt>
      <trkpt lat="-24.7225730" lon="-53.7591060">
        <ele>571.2</ele>
        <time>2018-09-15T16:51:54Z</time>
      </trkpt>
      <trkpt lat="-24.7225420" lon="-53.7591060">
        <ele>571.2</ele>
        <time>2018-09-15T16:51:55Z</time>
      </trkpt>
      <trkpt lat="-24.7225100" lon="-53.7591020">
        <ele>571.2</ele>
        <time>2018-09-15T16:51:56Z</time>
      </trkpt>
      <trkpt lat="-24.7224780" lon="-53.7591030">
        <ele>571.3</ele>
        <time>2018-09-15T16:51:57Z</time>
      </trkpt>
      <trkpt lat="-24.7224460" lon="-53.7591010">
        <ele>571.3</ele>
        <time>2018-09-15T16:51:58Z</time>
      </trkpt>
      <trkpt lat="-24.7224140" lon="-53.7591000">
        <ele>571.3</ele>
        <time>2018-09-15T16:51:59Z</time>
      </trkpt>
      <trkpt lat="-24.7223800" lon="-53.7591010">
        <ele>571.4</ele>
        <time>2018-09-15T16:52:00Z</time>
      </trkpt>
      <trkpt lat="-24.7223460" lon="-53.7591020">
        <ele>571.4</ele>
        <time>2018-09-15T16:52:01Z</time>
      </trkpt>
      <trkpt lat="-24.7223150" lon="-53.7591000">
        <ele>571.5</ele>
        <time>2018-09-15T16:52:02Z</time>
      </trkpt>
      <trkpt lat="-24.7222810" lon="-53.7591040">
        <ele>571.6</ele>
        <time>2018-09-15T16:52:03Z</time>
      </trkpt>
      <trkpt lat="-24.7222470" lon="-53.7591080">
        <ele>571.6</ele>
        <time>2018-09-15T16:52:04Z</time>
      </trkpt>
      <trkpt lat="-24.7222130" lon="-53.7591090">
        <ele>571.7</ele>
        <time>2018-09-15T16:52:05Z</time>
      </trkpt>
      <trkpt lat="-24.7221790" lon="-53.7591090">
        <ele>571.8</ele>
        <time>2018-09-15T16:52:06Z</time>
      </trkpt>
      <trkpt lat="-24.7221440" lon="-53.7591080">
        <ele>572.0</ele>
        <time>2018-09-15T16:52:07Z</time>
      </trkpt>
      <trkpt lat="-24.7221100" lon="-53.7591090">
        <ele>572.2</ele>
        <time>2018-09-15T16:52:08Z</time>
      </trkpt>
      <trkpt lat="-24.7220750" lon="-53.7591080">
        <ele>572.4</ele>
        <time>2018-09-15T16:52:09Z</time>
      </trkpt>
      <trkpt lat="-24.7220410" lon="-53.7591090">
        <ele>572.6</ele>
        <time>2018-09-15T16:52:10Z</time>
      </trkpt>
      <trkpt lat="-24.7220070" lon="-53.7591090">
        <ele>572.7</ele>
        <time>2018-09-15T16:52:11Z</time>
      </trkpt>
      <trkpt lat="-24.7219750" lon="-53.7591100">
        <ele>572.9</ele>
        <time>2018-09-15T16:52:12Z</time>
      </trkpt>
      <trkpt lat="-24.7219430" lon="-53.7591080">
        <ele>573.0</ele>
        <time>2018-09-15T16:52:13Z</time>
      </trkpt>
      <trkpt lat="-24.7219100" lon="-53.7591080">
        <ele>573.2</ele>
        <time>2018-09-15T16:52:14Z</time>
      </trkpt>
      <trkpt lat="-24.7218770" lon="-53.7591080">
        <ele>573.3</ele>
        <time>2018-09-15T16:52:15Z</time>
      </trkpt>
      <trkpt lat="-24.7218450" lon="-53.7591080">
        <ele>573.5</ele>
        <time>2018-09-15T16:52:16Z</time>
      </trkpt>
      <trkpt lat="-24.7218120" lon="-53.7591050">
        <ele>573.6</ele>
        <time>2018-09-15T16:52:17Z</time>
      </trkpt>
      <trkpt lat="-24.7217790" lon="-53.7591030">
        <ele>573.8</ele>
        <time>2018-09-15T16:52:18Z</time>
      </trkpt>
      <trkpt lat="-24.7217470" lon="-53.7591000">
        <ele>574.0</ele>
        <time>2018-09-15T16:52:19Z</time>
      </trkpt>
      <trkpt lat="-24.7217150" lon="-53.7590990">
        <ele>574.1</ele>
        <time>2018-09-15T16:52:20Z</time>
      </trkpt>
      <trkpt lat="-24.7216820" lon="-53.7590980">
        <ele>574.3</ele>
        <time>2018-09-15T16:52:21Z</time>
      </trkpt>
      <trkpt lat="-24.7216500" lon="-53.7590960">
        <ele>574.5</ele>
        <time>2018-09-15T16:52:22Z</time>
      </trkpt>
      <trkpt lat="-24.7216180" lon="-53.7590920">
        <ele>574.6</ele>
        <time>2018-09-15T16:52:23Z</time>
      </trkpt>
      <trkpt lat="-24.7215850" lon="-53.7590910">
        <ele>574.8</ele>
        <time>2018-09-15T16:52:24Z</time>
      </trkpt>
      <trkpt lat="-24.7215510" lon="-53.7590940">
        <ele>575.0</ele>
        <time>2018-09-15T16:52:25Z</time>
      </trkpt>
      <trkpt lat="-24.7215190" lon="-53.7590940">
        <ele>575.1</ele>
        <time>2018-09-15T16:52:26Z</time>
      </trkpt>
      <trkpt lat="-24.7214860" lon="-53.7590910">
        <ele>575.3</ele>
        <time>2018-09-15T16:52:27Z</time>
      </trkpt>
      <trkpt lat="-24.7214530" lon="-53.7590960">
        <ele>575.6</ele>
        <time>2018-09-15T16:52:28Z</time>
      </trkpt>
      <trkpt lat="-24.7214190" lon="-53.7591050">
        <ele>575.9</ele>
        <time>2018-09-15T16:52:29Z</time>
      </trkpt>
      <trkpt lat="-24.7213870" lon="-53.7591190">
        <ele>578.1</ele>
        <time>2018-09-15T16:52:30Z</time>
      </trkpt>
      <trkpt lat="-24.7213630" lon="-53.7591440">
        <ele>578.3</ele>
        <time>2018-09-15T16:52:31Z</time>
      </trkpt>
      <trkpt lat="-24.7213460" lon="-53.7591670">
        <ele>578.4</ele>
        <time>2018-09-15T16:52:32Z</time>
      </trkpt>
      <trkpt lat="-24.7213430" lon="-53.7591970">
        <ele>578.5</ele>
        <time>2018-09-15T16:52:33Z</time>
      </trkpt>
      <trkpt lat="-24.7213410" lon="-53.7592220">
        <ele>578.6</ele>
        <time>2018-09-15T16:52:34Z</time>
      </trkpt>
      <trkpt lat="-24.7213410" lon="-53.7592470">
        <ele>578.6</ele>
        <time>2018-09-15T16:52:35Z</time>
      </trkpt>
      <trkpt lat="-24.7213430" lon="-53.7592690">
        <ele>578.6</ele>
        <time>2018-09-15T16:52:36Z</time>
      </trkpt>
      <trkpt lat="-24.7213450" lon="-53.7592920">
        <ele>578.7</ele>
        <time>2018-09-15T16:52:37Z</time>
      </trkpt>
      <trkpt lat="-24.7213440" lon="-53.7593150">
        <ele>578.7</ele>
        <time>2018-09-15T16:52:38Z</time>
      </trkpt>
      <trkpt lat="-24.7213400" lon="-53.7593390">
        <ele>578.8</ele>
        <time>2018-09-15T16:52:39Z</time>
      </trkpt>
      <trkpt lat="-24.7213360" lon="-53.7593630">
        <ele>578.8</ele>
        <time>2018-09-15T16:52:40Z</time>
      </trkpt>
      <trkpt lat="-24.7213350" lon="-53.7593890">
        <ele>578.9</ele>
        <time>2018-09-15T16:52:41Z</time>
      </trkpt>
      <trkpt lat="-24.7213320" lon="-53.7594150">
        <ele>578.9</ele>
        <time>2018-09-15T16:52:42Z</time>
      </trkpt>
      <trkpt lat="-24.7213270" lon="-53.7594410">
        <ele>579.0</ele>
        <time>2018-09-15T16:52:43Z</time>
      </trkpt>
      <trkpt lat="-24.7213220" lon="-53.7594670">
        <ele>579.0</ele>
        <time>2018-09-15T16:52:44Z</time>
      </trkpt>
      <trkpt lat="-24.7213130" lon="-53.7594920">
        <ele>579.0</ele>
        <time>2018-09-15T16:52:45Z</time>
      </trkpt>
      <trkpt lat="-24.7213030" lon="-53.7595170">
        <ele>579.0</ele>
        <time>2018-09-15T16:52:46Z</time>
      </trkpt>
      <trkpt lat="-24.7212900" lon="-53.7595400">
        <ele>579.0</ele>
        <time>2018-09-15T16:52:47Z</time>
      </trkpt>
      <trkpt lat="-24.7212700" lon="-53.7595560">
        <ele>579.1</ele>
        <time>2018-09-15T16:52:48Z</time>
      </trkpt>
      <trkpt lat="-24.7212460" lon="-53.7595710">
        <ele>579.1</ele>
        <time>2018-09-15T16:52:49Z</time>
      </trkpt>
      <trkpt lat="-24.7212210" lon="-53.7595800">
        <ele>579.1</ele>
        <time>2018-09-15T16:52:50Z</time>
      </trkpt>
      <trkpt lat="-24.7211960" lon="-53.7595870">
        <ele>579.1</ele>
        <time>2018-09-15T16:52:51Z</time>
      </trkpt>
      <trkpt lat="-24.7211710" lon="-53.7595920">
        <ele>579.1</ele>
        <time>2018-09-15T16:52:52Z</time>
      </trkpt>
      <trkpt lat="-24.7211450" lon="-53.7595950">
        <ele>579.1</ele>
        <time>2018-09-15T16:52:53Z</time>
      </trkpt>
      <trkpt lat="-24.7211190" lon="-53.7595960">
        <ele>579.1</ele>
        <time>2018-09-15T16:52:54Z</time>
      </trkpt>
      <trkpt lat="-24.7210930" lon="-53.7595980">
        <ele>579.1</ele>
        <time>2018-09-15T16:52:55Z</time>
      </trkpt>
      <trkpt lat="-24.7210650" lon="-53.7595980">
        <ele>579.1</ele>
        <time>2018-09-15T16:52:56Z</time>
      </trkpt>
      <trkpt lat="-24.7210360" lon="-53.7595980">
        <ele>579.1</ele>
        <time>2018-09-15T16:52:57Z</time>
      </trkpt>
      <trkpt lat="-24.7210080" lon="-53.7595970">
        <ele>579.1</ele>
        <time>2018-09-15T16:52:58Z</time>
      </trkpt>
      <trkpt lat="-24.7209510" lon="-53.7595950">
        <ele>579.2</ele>
        <time>2018-09-15T16:52:59Z</time>
      </trkpt>
      <trkpt lat="-24.7209200" lon="-53.7595970">
        <ele>579.1</ele>
        <time>2018-09-15T16:53:01Z</time>
      </trkpt>
      <trkpt lat="-24.7208890" lon="-53.7595960">
        <ele>579.1</ele>
        <time>2018-09-15T16:53:02Z</time>
      </trkpt>
      <trkpt lat="-24.7208600" lon="-53.7596010">
        <ele>579.1</ele>
        <time>2018-09-15T16:53:03Z</time>
      </trkpt>
      <trkpt lat="-24.7208280" lon="-53.7596000">
        <ele>579.1</ele>
        <time>2018-09-15T16:53:04Z</time>
      </trkpt>
      <trkpt lat="-24.7207950" lon="-53.7595960">
        <ele>579.1</ele>
        <time>2018-09-15T16:53:05Z</time>
      </trkpt>
      <trkpt lat="-24.7207620" lon="-53.7595950">
        <ele>579.1</ele>
        <time>2018-09-15T16:53:06Z</time>
      </trkpt>
      <trkpt lat="-24.7207310" lon="-53.7595940">
        <ele>579.1</ele>
        <time>2018-09-15T16:53:07Z</time>
      </trkpt>
      <trkpt lat="-24.7207000" lon="-53.7595950">
        <ele>579.1</ele>
        <time>2018-09-15T16:53:08Z</time>
      </trkpt>
      <trkpt lat="-24.7206670" lon="-53.7595980">
        <ele>579.1</ele>
        <time>2018-09-15T16:53:09Z</time>
      </trkpt>
      <trkpt lat="-24.7206350" lon="-53.7596010">
        <ele>579.0</ele>
        <time>2018-09-15T16:53:10Z</time>
      </trkpt>
      <trkpt lat="-24.7206040" lon="-53.7596040">
        <ele>579.0</ele>
        <time>2018-09-15T16:53:11Z</time>
      </trkpt>
      <trkpt lat="-24.7205710" lon="-53.7596080">
        <ele>579.0</ele>
        <time>2018-09-15T16:53:12Z</time>
      </trkpt>
      <trkpt lat="-24.7205400" lon="-53.7596080">
        <ele>579.0</ele>
        <time>2018-09-15T16:53:13Z</time>
      </trkpt>
      <trkpt lat="-24.7205070" lon="-53.7596070">
        <ele>579.0</ele>
        <time>2018-09-15T16:53:14Z</time>
      </trkpt>
      <trkpt lat="-24.7204760" lon="-53.7596090">
        <ele>578.9</ele>
        <time>2018-09-15T16:53:15Z</time>
      </trkpt>
      <trkpt lat="-24.7204420" lon="-53.7596070">
        <ele>578.8</ele>
        <time>2018-09-15T16:53:16Z</time>
      </trkpt>
      <trkpt lat="-24.7204070" lon="-53.7596060">
        <ele>578.8</ele>
        <time>2018-09-15T16:53:17Z</time>
      </trkpt>
      <trkpt lat="-24.7203720" lon="-53.7596070">
        <ele>578.7</ele>
        <time>2018-09-15T16:53:18Z</time>
      </trkpt>
      <trkpt lat="-24.7203370" lon="-53.7596070">
        <ele>578.6</ele>
        <time>2018-09-15T16:53:19Z</time>
      </trkpt>
      <trkpt lat="-24.7202980" lon="-53.7596060">
        <ele>578.6</ele>
        <time>2018-09-15T16:53:20Z</time>
      </trkpt>
      <trkpt lat="-24.7202620" lon="-53.7596070">
        <ele>578.5</ele>
        <time>2018-09-15T16:53:21Z</time>
      </trkpt>
      <trkpt lat="-24.7201890" lon="-53.7596180">
        <ele>578.3</ele>
        <time>2018-09-15T16:53:22Z</time>
      </trkpt>
      <trkpt lat="-24.7201560" lon="-53.7596240">
        <ele>578.1</ele>
        <time>2018-09-15T16:53:23Z</time>
      </trkpt>
      <trkpt lat="-24.7200960" lon="-53.7596290">
        <ele>578.0</ele>
        <time>2018-09-15T16:53:25Z</time>
      </trkpt>
      <trkpt lat="-24.7200780" lon="-53.7596270">
        <ele>577.9</ele>
        <time>2018-09-15T16:53:26Z</time>
      </trkpt>
      <trkpt lat="-24.7200760" lon="-53.7596270">
        <ele>577.9</ele>
        <time>2018-09-15T16:53:27Z</time>
      </trkpt>
      <trkpt lat="-24.7200760" lon="-53.7596260">
        <ele>577.9</ele>
        <time>2018-09-15T16:53:28Z</time>
      </trkpt>
      <trkpt lat="-24.7200740" lon="-53.7596220">
        <ele>577.9</ele>
        <time>2018-09-15T16:53:30Z</time>
      </trkpt>
      <trkpt lat="-24.7200720" lon="-53.7596220">
        <ele>577.9</ele>
        <time>2018-09-15T16:53:31Z</time>
      </trkpt>
      <trkpt lat="-24.7200690" lon="-53.7596130">
        <ele>577.9</ele>
        <time>2018-09-15T16:53:32Z</time>
      </trkpt>
      <trkpt lat="-24.7200640" lon="-53.7596100">
        <ele>577.8</ele>
        <time>2018-09-15T16:53:33Z</time>
      </trkpt>
      <trkpt lat="-24.7200480" lon="-53.7596090">
        <ele>577.8</ele>
        <time>2018-09-15T16:53:34Z</time>
      </trkpt>
      <trkpt lat="-24.7200280" lon="-53.7596100">
        <ele>577.7</ele>
        <time>2018-09-15T16:53:35Z</time>
      </trkpt>
      <trkpt lat="-24.7200120" lon="-53.7596150">
        <ele>577.7</ele>
        <time>2018-09-15T16:53:36Z</time>
      </trkpt>
      <trkpt lat="-24.7199990" lon="-53.7596270">
        <ele>577.7</ele>
        <time>2018-09-15T16:53:37Z</time>
      </trkpt>
      <trkpt lat="-24.7199940" lon="-53.7596430">
        <ele>577.0</ele>
        <time>2018-09-15T16:53:38Z</time>
      </trkpt>
      <trkpt lat="-24.7199980" lon="-53.7596590">
        <ele>577.0</ele>
        <time>2018-09-15T16:53:39Z</time>
      </trkpt>
      <trkpt lat="-24.7200030" lon="-53.7596700">
        <ele>577.0</ele>
        <time>2018-09-15T16:53:40Z</time>
      </trkpt>
      <trkpt lat="-24.7200090" lon="-53.7596770">
        <ele>577.0</ele>
        <time>2018-09-15T16:53:41Z</time>
      </trkpt>
      <trkpt lat="-24.7200080" lon="-53.7596800">
        <ele>577.0</ele>
        <time>2018-09-15T16:53:42Z</time>
      </trkpt>
      <trkpt lat="-24.7200100" lon="-53.7596810">
        <ele>577.0</ele>
        <time>2018-09-15T16:53:43Z</time>
      </trkpt>
      <trkpt lat="-24.7200090" lon="-53.7596900">
        <ele>577.0</ele>
        <time>2018-09-15T16:53:48Z</time>
      </trkpt>
      <trkpt lat="-24.7200090" lon="-53.7596910">
        <ele>577.7</ele>
        <time>2018-09-15T16:53:49Z</time>
      </trkpt>
      <trkpt lat="-24.7199590" lon="-53.7595410">
        <ele>577.5</ele>
        <time>2018-09-15T16:59:03Z</time>
      </trkpt>
      <trkpt lat="-24.7199580" lon="-53.7595410">
        <ele>577.5</ele>
        <time>2018-09-15T16:59:04Z</time>
      </trkpt>
      <trkpt lat="-24.7199570" lon="-53.7595400">
        <ele>577.5</ele>
        <time>2018-09-15T16:59:05Z</time>
      </trkpt>
      <trkpt lat="-24.7199460" lon="-53.7595190">
        <ele>577.4</ele>
        <time>2018-09-15T16:59:56Z</time>
      </trkpt>
      <trkpt lat="-24.7199470" lon="-53.7595190">
        <ele>577.4</ele>
        <time>2018-09-15T16:59:57Z</time>
      </trkpt>
      <trkpt lat="-24.7199480" lon="-53.7595190">
        <ele>577.4</ele>
        <time>2018-09-15T16:59:58Z</time>
      </trkpt>
      <trkpt lat="-24.7199370" lon="-53.7595040">
        <ele>577.4</ele>
        <time>2018-09-15T17:03:36Z</time>
      </trkpt>
      <trkpt lat="-24.7199360" lon="-53.7595040">
        <ele>577.4</ele>
        <time>2018-09-15T17:03:37Z</time>
      </trkpt>
      <trkpt lat="-24.7199350" lon="-53.7595060">
        <ele>577.4</ele>
        <time>2018-09-15T17:03:38Z</time>
      </trkpt>
      <trkpt lat="-24.7199320" lon="-53.7595100">
        <ele>577.3</ele>
        <time>2018-09-15T17:12:13Z</time>
      </trkpt>
      <trkpt lat="-24.7199320" lon="-53.7595090">
        <ele>577.3</ele>
        <time>2018-09-15T17:12:14Z</time>
      </trkpt>
      <trkpt lat="-24.7199310" lon="-53.7595110">
        <ele>577.3</ele>
        <time>2018-09-15T17:12:15Z</time>
      </trkpt>
      <trkpt lat="-24.7199290" lon="-53.7595070">
        <ele>577.3</ele>
        <time>2018-09-15T17:12:18Z</time>
      </trkpt>
      <trkpt lat="-24.7199230" lon="-53.7595010">
        <ele>577.3</ele>
        <time>2018-09-15T17:12:19Z</time>
      </trkpt>
      <trkpt lat="-24.7199160" lon="-53.7594930">
        <ele>577.3</ele>
        <time>2018-09-15T17:12:20Z</time>
      </trkpt>
      <trkpt lat="-24.7199030" lon="-53.7594830">
        <ele>577.2</ele>
        <time>2018-09-15T17:12:21Z</time>
      </trkpt>
      <trkpt lat="-24.7198880" lon="-53.7594720">
        <ele>577.2</ele>
        <time>2018-09-15T17:12:22Z</time>
      </trkpt>
      <trkpt lat="-24.7198570" lon="-53.7594520">
        <ele>577.1</ele>
        <time>2018-09-15T17:12:24Z</time>
      </trkpt>
      <trkpt lat="-24.7198410" lon="-53.7594370">
        <ele>577.1</ele>
        <time>2018-09-15T17:12:25Z</time>
      </trkpt>
      <trkpt lat="-24.7198260" lon="-53.7594190">
        <ele>577.0</ele>
        <time>2018-09-15T17:12:26Z</time>
      </trkpt>
      <trkpt lat="-24.7198170" lon="-53.7593940">
        <ele>577.0</ele>
        <time>2018-09-15T17:12:27Z</time>
      </trkpt>
      <trkpt lat="-24.7198140" lon="-53.7593660">
        <ele>576.9</ele>
        <time>2018-09-15T17:12:28Z</time>
      </trkpt>
      <trkpt lat="-24.7198140" lon="-53.7593370">
        <ele>576.8</ele>
        <time>2018-09-15T17:12:29Z</time>
      </trkpt>
      <trkpt lat="-24.7198140" lon="-53.7593060">
        <ele>576.7</ele>
        <time>2018-09-15T17:12:30Z</time>
      </trkpt>
      <trkpt lat="-24.7198160" lon="-53.7592740">
        <ele>576.5</ele>
        <time>2018-09-15T17:12:31Z</time>
      </trkpt>
      <trkpt lat="-24.7198150" lon="-53.7592390">
        <ele>576.5</ele>
        <time>2018-09-15T17:12:32Z</time>
      </trkpt>
      <trkpt lat="-24.7198140" lon="-53.7592030">
        <ele>576.4</ele>
        <time>2018-09-15T17:12:33Z</time>
      </trkpt>
      <trkpt lat="-24.7198140" lon="-53.7591670">
        <ele>576.3</ele>
        <time>2018-09-15T17:12:34Z</time>
      </trkpt>
      <trkpt lat="-24.7198130" lon="-53.7591290">
        <ele>576.3</ele>
        <time>2018-09-15T17:12:35Z</time>
      </trkpt>
      <trkpt lat="-24.7198100" lon="-53.7590890">
        <ele>576.3</ele>
        <time>2018-09-15T17:12:36Z</time>
      </trkpt>
      <trkpt lat="-24.7198060" lon="-53.7590470">
        <ele>576.2</ele>
        <time>2018-09-15T17:12:37Z</time>
      </trkpt>
      <trkpt lat="-24.7198060" lon="-53.7590030">
        <ele>576.2</ele>
        <time>2018-09-15T17:12:38Z</time>
      </trkpt>
      <trkpt lat="-24.7198060" lon="-53.7589580">
        <ele>576.1</ele>
        <time>2018-09-15T17:12:39Z</time>
      </trkpt>
      <trkpt lat="-24.7198090" lon="-53.7589110">
        <ele>576.0</ele>
        <time>2018-09-15T17:12:40Z</time>
      </trkpt>
      <trkpt lat="-24.7198120" lon="-53.7588650">
        <ele>576.0</ele>
        <time>2018-09-15T17:12:41Z</time>
      </trkpt>
      <trkpt lat="-24.7198150" lon="-53.7588180">
        <ele>575.9</ele>
        <time>2018-09-15T17:12:42Z</time>
      </trkpt>
      <trkpt lat="-24.7198150" lon="-53.7587700">
        <ele>575.8</ele>
        <time>2018-09-15T17:12:43Z</time>
      </trkpt>
      <trkpt lat="-24.7198110" lon="-53.7587230">
        <ele>575.7</ele>
        <time>2018-09-15T17:12:44Z</time>
      </trkpt>
      <trkpt lat="-24.7198090" lon="-53.7586750">
        <ele>575.6</ele>
        <time>2018-09-15T17:12:45Z</time>
      </trkpt>
      <trkpt lat="-24.7198080" lon="-53.7586240">
        <ele>575.4</ele>
        <time>2018-09-15T17:12:46Z</time>
      </trkpt>
      <trkpt lat="-24.7198080" lon="-53.7585700">
        <ele>575.2</ele>
        <time>2018-09-15T17:12:47Z</time>
      </trkpt>
      <trkpt lat="-24.7198100" lon="-53.7585120">
        <ele>575.1</ele>
        <time>2018-09-15T17:12:48Z</time>
      </trkpt>
      <trkpt lat="-24.7198130" lon="-53.7584550">
        <ele>575.0</ele>
        <time>2018-09-15T17:12:49Z</time>
      </trkpt>
      <trkpt lat="-24.7198100" lon="-53.7584000">
        <ele>574.9</ele>
        <time>2018-09-15T17:12:50Z</time>
      </trkpt>
      <trkpt lat="-24.7198080" lon="-53.7583440">
        <ele>574.9</ele>
        <time>2018-09-15T17:12:51Z</time>
      </trkpt>
      <trkpt lat="-24.7198100" lon="-53.7582890">
        <ele>574.7</ele>
        <time>2018-09-15T17:12:52Z</time>
      </trkpt>
      <trkpt lat="-24.7198130" lon="-53.7582330">
        <ele>574.6</ele>
        <time>2018-09-15T17:12:53Z</time>
      </trkpt>
      <trkpt lat="-24.7198140" lon="-53.7581760">
        <ele>574.3</ele>
        <time>2018-09-15T17:12:54Z</time>
      </trkpt>
      <trkpt lat="-24.7198160" lon="-53.7581220">
        <ele>574.1</ele>
        <time>2018-09-15T17:12:55Z</time>
      </trkpt>
      <trkpt lat="-24.7198170" lon="-53.7580680">
        <ele>573.8</ele>
        <time>2018-09-15T17:12:56Z</time>
      </trkpt>
      <trkpt lat="-24.7198190" lon="-53.7580110">
        <ele>573.6</ele>
        <time>2018-09-15T17:12:57Z</time>
      </trkpt>
      <trkpt lat="-24.7198230" lon="-53.7579570">
        <ele>573.5</ele>
        <time>2018-09-15T17:12:58Z</time>
      </trkpt>
      <trkpt lat="-24.7198240" lon="-53.7579000">
        <ele>573.4</ele>
        <time>2018-09-15T17:12:59Z</time>
      </trkpt>
      <trkpt lat="-24.7198240" lon="-53.7579000">
        <ele>573.4</ele>
        <time>2018-09-15T17:13:00Z</time>
      </trkpt>
      <trkpt lat="-24.7198230" lon="-53.7578430">
        <ele>573.3</ele>
        <time>2018-09-15T17:13:01Z</time>
      </trkpt>
      <trkpt lat="-24.7198230" lon="-53.7577890">
        <ele>573.2</ele>
        <time>2018-09-15T17:13:02Z</time>
      </trkpt>
      <trkpt lat="-24.7198260" lon="-53.7577320">
        <ele>573.1</ele>
        <time>2018-09-15T17:13:03Z</time>
      </trkpt>
      <trkpt lat="-24.7198310" lon="-53.7576210">
        <ele>571.4</ele>
        <time>2018-09-15T17:13:04Z</time>
      </trkpt>
      <trkpt lat="-24.7198340" lon="-53.7575660">
        <ele>570.5</ele>
        <time>2018-09-15T17:13:05Z</time>
      </trkpt>
      <trkpt lat="-24.7198340" lon="-53.7575660">
        <ele>570.5</ele>
        <time>2018-09-15T17:13:06Z</time>
      </trkpt>
      <trkpt lat="-24.7198390" lon="-53.7575080">
        <ele>569.5</ele>
        <time>2018-09-15T17:13:07Z</time>
      </trkpt>
      <trkpt lat="-24.7198380" lon="-53.7574480">
        <ele>568.5</ele>
        <time>2018-09-15T17:13:08Z</time>
      </trkpt>
      <trkpt lat="-24.7198320" lon="-53.7573850">
        <ele>567.4</ele>
        <time>2018-09-15T17:13:09Z</time>
      </trkpt>
      <trkpt lat="-24.7198270" lon="-53.7573200">
        <ele>566.3</ele>
        <time>2018-09-15T17:13:10Z</time>
      </trkpt>
      <trkpt lat="-24.7198230" lon="-53.7572530">
        <ele>566.0</ele>
        <time>2018-09-15T17:13:11Z</time>
      </trkpt>
      <trkpt lat="-24.7198220" lon="-53.7571840">
        <ele>566.0</ele>
        <time>2018-09-15T17:13:12Z</time>
      </trkpt>
      <trkpt lat="-24.7198230" lon="-53.7571150">
        <ele>565.8</ele>
        <time>2018-09-15T17:13:13Z</time>
      </trkpt>
      <trkpt lat="-24.7198240" lon="-53.7570460">
        <ele>565.6</ele>
        <time>2018-09-15T17:13:14Z</time>
      </trkpt>
      <trkpt lat="-24.7198230" lon="-53.7569780">
        <ele>565.4</ele>
        <time>2018-09-15T17:13:15Z</time>
      </trkpt>
      <trkpt lat="-24.7198250" lon="-53.7569100">
        <ele>565.2</ele>
        <time>2018-09-15T17:13:16Z</time>
      </trkpt>
      <trkpt lat="-24.7198280" lon="-53.7568450">
        <ele>564.7</ele>
        <time>2018-09-15T17:13:17Z</time>
      </trkpt>
      <trkpt lat="-24.7198340" lon="-53.7567770">
        <ele>564.1</ele>
        <time>2018-09-15T17:13:18Z</time>
      </trkpt>
      <trkpt lat="-24.7198400" lon="-53.7567110">
        <ele>563.5</ele>
        <time>2018-09-15T17:13:19Z</time>
      </trkpt>
      <trkpt lat="-24.7198390" lon="-53.7566450">
        <ele>563.1</ele>
        <time>2018-09-15T17:13:20Z</time>
      </trkpt>
      <trkpt lat="-24.7198360" lon="-53.7565760">
        <ele>562.7</ele>
        <time>2018-09-15T17:13:21Z</time>
      </trkpt>
      <trkpt lat="-24.7198360" lon="-53.7565070">
        <ele>562.4</ele>
        <time>2018-09-15T17:13:22Z</time>
      </trkpt>
      <trkpt lat="-24.7198370" lon="-53.7564360">
        <ele>562.1</ele>
        <time>2018-09-15T17:13:23Z</time>
      </trkpt>
      <trkpt lat="-24.7198410" lon="-53.7563650">
        <ele>561.8</ele>
        <time>2018-09-15T17:13:24Z</time>
      </trkpt>
      <trkpt lat="-24.7198420" lon="-53.7562960">
        <ele>561.2</ele>
        <time>2018-09-15T17:13:25Z</time>
      </trkpt>
      <trkpt lat="-24.7198410" lon="-53.7562280">
        <ele>560.7</ele>
        <time>2018-09-15T17:13:26Z</time>
      </trkpt>
      <trkpt lat="-24.7198390" lon="-53.7561600">
        <ele>560.2</ele>
        <time>2018-09-15T17:13:27Z</time>
      </trkpt>
      <trkpt lat="-24.7198400" lon="-53.7560900">
        <ele>559.9</ele>
        <time>2018-09-15T17:13:28Z</time>
      </trkpt>
      <trkpt lat="-24.7198410" lon="-53.7560210">
        <ele>559.7</ele>
        <time>2018-09-15T17:13:29Z</time>
      </trkpt>
      <trkpt lat="-24.7198440" lon="-53.7559510">
        <ele>559.5</ele>
        <time>2018-09-15T17:13:30Z</time>
      </trkpt>
      <trkpt lat="-24.7198470" lon="-53.7558860">
        <ele>559.3</ele>
        <time>2018-09-15T17:13:31Z</time>
      </trkpt>
      <trkpt lat="-24.7198490" lon="-53.7558200">
        <ele>559.1</ele>
        <time>2018-09-15T17:13:32Z</time>
      </trkpt>
      <trkpt lat="-24.7198520" lon="-53.7557540">
        <ele>559.0</ele>
        <time>2018-09-15T17:13:33Z</time>
      </trkpt>
      <trkpt lat="-24.7198530" lon="-53.7556900">
        <ele>559.0</ele>
        <time>2018-09-15T17:13:34Z</time>
      </trkpt>
      <trkpt lat="-24.7198540" lon="-53.7556250">
        <ele>559.0</ele>
        <time>2018-09-15T17:13:35Z</time>
      </trkpt>
      <trkpt lat="-24.7198540" lon="-53.7555600">
        <ele>559.0</ele>
        <time>2018-09-15T17:13:36Z</time>
      </trkpt>
      <trkpt lat="-24.7198520" lon="-53.7554940">
        <ele>559.0</ele>
        <time>2018-09-15T17:13:37Z</time>
      </trkpt>
      <trkpt lat="-24.7198490" lon="-53.7554280">
        <ele>559.0</ele>
        <time>2018-09-15T17:13:38Z</time>
      </trkpt>
      <trkpt lat="-24.7198480" lon="-53.7553600">
        <ele>559.0</ele>
        <time>2018-09-15T17:13:39Z</time>
      </trkpt>
      <trkpt lat="-24.7198560" lon="-53.7552920">
        <ele>559.0</ele>
        <time>2018-09-15T17:13:40Z</time>
      </trkpt>
      <trkpt lat="-24.7198600" lon="-53.7552240">
        <ele>559.0</ele>
        <time>2018-09-15T17:13:41Z</time>
      </trkpt>
      <trkpt lat="-24.7198610" lon="-53.7551570">
        <ele>559.0</ele>
        <time>2018-09-15T17:13:42Z</time>
      </trkpt>
      <trkpt lat="-24.7198630" lon="-53.7550890">
        <ele>559.0</ele>
        <time>2018-09-15T17:13:43Z</time>
      </trkpt>
      <trkpt lat="-24.7198630" lon="-53.7550200">
        <ele>559.0</ele>
        <time>2018-09-15T17:13:44Z</time>
      </trkpt>
      <trkpt lat="-24.7198620" lon="-53.7549490">
        <ele>559.0</ele>
        <time>2018-09-15T17:13:45Z</time>
      </trkpt>
      <trkpt lat="-24.7198600" lon="-53.7548810">
        <ele>558.9</ele>
        <time>2018-09-15T17:13:46Z</time>
      </trkpt>
      <trkpt lat="-24.7198610" lon="-53.7548110">
        <ele>558.9</ele>
        <time>2018-09-15T17:13:47Z</time>
      </trkpt>
      <trkpt lat="-24.7198630" lon="-53.7547410">
        <ele>558.8</ele>
        <time>2018-09-15T17:13:48Z</time>
      </trkpt>
      <trkpt lat="-24.7198650" lon="-53.7546710">
        <ele>558.8</ele>
        <time>2018-09-15T17:13:49Z</time>
      </trkpt>
      <trkpt lat="-24.7198610" lon="-53.7546000">
        <ele>558.7</ele>
        <time>2018-09-15T17:13:50Z</time>
      </trkpt>
      <trkpt lat="-24.7198590" lon="-53.7545290">
        <ele>558.7</ele>
        <time>2018-09-15T17:13:51Z</time>
      </trkpt>
      <trkpt lat="-24.7198610" lon="-53.7544600">
        <ele>558.6</ele>
        <time>2018-09-15T17:13:52Z</time>
      </trkpt>
      <trkpt lat="-24.7198630" lon="-53.7543910">
        <ele>558.6</ele>
        <time>2018-09-15T17:13:53Z</time>
      </trkpt>
      <trkpt lat="-24.7198640" lon="-53.7543220">
        <ele>558.5</ele>
        <time>2018-09-15T17:13:54Z</time>
      </trkpt>
      <trkpt lat="-24.7198660" lon="-53.7542540">
        <ele>558.5</ele>
        <time>2018-09-15T17:13:55Z</time>
      </trkpt>
      <trkpt lat="-24.7198660" lon="-53.7541860">
        <ele>558.4</ele>
        <time>2018-09-15T17:13:56Z</time>
      </trkpt>
      <trkpt lat="-24.7198660" lon="-53.7541180">
        <ele>558.3</ele>
        <time>2018-09-15T17:13:57Z</time>
      </trkpt>
      <trkpt lat="-24.7198660" lon="-53.7540500">
        <ele>558.3</ele>
        <time>2018-09-15T17:13:58Z</time>
      </trkpt>
      <trkpt lat="-24.7198680" lon="-53.7539840">
        <ele>558.2</ele>
        <time>2018-09-15T17:13:59Z</time>
      </trkpt>
      <trkpt lat="-24.7198700" lon="-53.7539180">
        <ele>558.2</ele>
        <time>2018-09-15T17:14:00Z</time>
      </trkpt>
      <trkpt lat="-24.7198710" lon="-53.7538530">
        <ele>558.1</ele>
        <time>2018-09-15T17:14:01Z</time>
      </trkpt>
      <trkpt lat="-24.7198710" lon="-53.7537890">
        <ele>558.1</ele>
        <time>2018-09-15T17:14:02Z</time>
      </trkpt>
      <trkpt lat="-24.7198680" lon="-53.7537260">
        <ele>558.0</ele>
        <time>2018-09-15T17:14:03Z</time>
      </trkpt>
      <trkpt lat="-24.7198670" lon="-53.7536660">
        <ele>558.0</ele>
        <time>2018-09-15T17:14:04Z</time>
      </trkpt>
      <trkpt lat="-24.7198650" lon="-53.7536060">
        <ele>558.0</ele>
        <time>2018-09-15T17:14:05Z</time>
      </trkpt>
      <trkpt lat="-24.7198660" lon="-53.7535480">
        <ele>558.0</ele>
        <time>2018-09-15T17:14:06Z</time>
      </trkpt>
      <trkpt lat="-24.7198700" lon="-53.7534910">
        <ele>558.3</ele>
        <time>2018-09-15T17:14:07Z</time>
      </trkpt>
      <trkpt lat="-24.7198720" lon="-53.7534350">
        <ele>558.6</ele>
        <time>2018-09-15T17:14:08Z</time>
      </trkpt>
      <trkpt lat="-24.7198730" lon="-53.7533810">
        <ele>558.9</ele>
        <time>2018-09-15T17:14:09Z</time>
      </trkpt>
      <trkpt lat="-24.7198750" lon="-53.7533240">
        <ele>559.2</ele>
        <time>2018-09-15T17:14:10Z</time>
      </trkpt>
      <trkpt lat="-24.7198790" lon="-53.7532670">
        <ele>559.4</ele>
        <time>2018-09-15T17:14:11Z</time>
      </trkpt>
      <trkpt lat="-24.7198810" lon="-53.7532120">
        <ele>559.7</ele>
        <time>2018-09-15T17:14:12Z</time>
      </trkpt>
      <trkpt lat="-24.7198850" lon="-53.7531570">
        <ele>560.0</ele>
        <time>2018-09-15T17:14:13Z</time>
      </trkpt>
      <trkpt lat="-24.7198890" lon="-53.7531030">
        <ele>560.0</ele>
        <time>2018-09-15T17:14:14Z</time>
      </trkpt>
      <trkpt lat="-24.7198880" lon="-53.7530500">
        <ele>560.0</ele>
        <time>2018-09-15T17:14:15Z</time>
      </trkpt>
      <trkpt lat="-24.7198860" lon="-53.7529980">
        <ele>560.0</ele>
        <time>2018-09-15T17:14:16Z</time>
      </trkpt>
      <trkpt lat="-24.7198850" lon="-53.7529470">
        <ele>560.0</ele>
        <time>2018-09-15T17:14:17Z</time>
      </trkpt>
      <trkpt lat="-24.7198820" lon="-53.7528960">
        <ele>560.0</ele>
        <time>2018-09-15T17:14:18Z</time>
      </trkpt>
      <trkpt lat="-24.7198790" lon="-53.7528460">
        <ele>560.0</ele>
        <time>2018-09-15T17:14:19Z</time>
      </trkpt>
      <trkpt lat="-24.7198770" lon="-53.7527990">
        <ele>560.0</ele>
        <time>2018-09-15T17:14:20Z</time>
      </trkpt>
      <trkpt lat="-24.7198790" lon="-53.7527530">
        <ele>560.0</ele>
        <time>2018-09-15T17:14:21Z</time>
      </trkpt>
      <trkpt lat="-24.7198820" lon="-53.7527060">
        <ele>560.0</ele>
        <time>2018-09-15T17:14:22Z</time>
      </trkpt>
      <trkpt lat="-24.7198830" lon="-53.7526560">
        <ele>559.9</ele>
        <time>2018-09-15T17:14:23Z</time>
      </trkpt>
      <trkpt lat="-24.7198840" lon="-53.7526070">
        <ele>559.9</ele>
        <time>2018-09-15T17:14:24Z</time>
      </trkpt>
      <trkpt lat="-24.7198830" lon="-53.7525580">
        <ele>559.7</ele>
        <time>2018-09-15T17:14:25Z</time>
      </trkpt>
      <trkpt lat="-24.7198820" lon="-53.7525080">
        <ele>559.5</ele>
        <time>2018-09-15T17:14:26Z</time>
      </trkpt>
      <trkpt lat="-24.7198800" lon="-53.7524580">
        <ele>559.3</ele>
        <time>2018-09-15T17:14:27Z</time>
      </trkpt>
      <trkpt lat="-24.7198790" lon="-53.7524100">
        <ele>559.2</ele>
        <time>2018-09-15T17:14:28Z</time>
      </trkpt>
      <trkpt lat="-24.7198830" lon="-53.7523630">
        <ele>559.4</ele>
        <time>2018-09-15T17:14:29Z</time>
      </trkpt>
      <trkpt lat="-24.7198860" lon="-53.7523160">
        <ele>559.7</ele>
        <time>2018-09-15T17:14:30Z</time>
      </trkpt>
      <trkpt lat="-24.7198860" lon="-53.7522680">
        <ele>559.8</ele>
        <time>2018-09-15T17:14:31Z</time>
      </trkpt>
      <trkpt lat="-24.7198860" lon="-53.7522200">
        <ele>560.0</ele>
        <time>2018-09-15T17:14:32Z</time>
      </trkpt>
      <trkpt lat="-24.7198870" lon="-53.7521720">
        <ele>560.0</ele>
        <time>2018-09-15T17:14:33Z</time>
      </trkpt>
      <trkpt lat="-24.7198870" lon="-53.7521210">
        <ele>559.9</ele>
        <time>2018-09-15T17:14:34Z</time>
      </trkpt>
      <trkpt lat="-24.7198850" lon="-53.7520720">
        <ele>559.9</ele>
        <time>2018-09-15T17:14:35Z</time>
      </trkpt>
      <trkpt lat="-24.7198830" lon="-53.7520210">
        <ele>559.9</ele>
        <time>2018-09-15T17:14:36Z</time>
      </trkpt>
      <trkpt lat="-24.7198810" lon="-53.7519720">
        <ele>560.0</ele>
        <time>2018-09-15T17:14:37Z</time>
      </trkpt>
      <trkpt lat="-24.7198830" lon="-53.7519190">
        <ele>560.0</ele>
        <time>2018-09-15T17:14:38Z</time>
      </trkpt>
      <trkpt lat="-24.7198870" lon="-53.7518670">
        <ele>560.0</ele>
        <time>2018-09-15T17:14:39Z</time>
      </trkpt>
      <trkpt lat="-24.7198930" lon="-53.7518180">
        <ele>560.0</ele>
        <time>2018-09-15T17:14:40Z</time>
      </trkpt>
      <trkpt lat="-24.7198940" lon="-53.7517700">
        <ele>560.0</ele>
        <time>2018-09-15T17:14:41Z</time>
      </trkpt>
      <trkpt lat="-24.7198900" lon="-53.7517200">
        <ele>560.0</ele>
        <time>2018-09-15T17:14:42Z</time>
      </trkpt>
      <trkpt lat="-24.7198870" lon="-53.7516690">
        <ele>560.1</ele>
        <time>2018-09-15T17:14:43Z</time>
      </trkpt>
      <trkpt lat="-24.7198870" lon="-53.7516180">
        <ele>560.1</ele>
        <time>2018-09-15T17:14:44Z</time>
      </trkpt>
      <trkpt lat="-24.7198870" lon="-53.7515670">
        <ele>560.2</ele>
        <time>2018-09-15T17:14:45Z</time>
      </trkpt>
      <trkpt lat="-24.7198910" lon="-53.7515170">
        <ele>560.2</ele>
        <time>2018-09-15T17:14:46Z</time>
      </trkpt>
      <trkpt lat="-24.7198940" lon="-53.7514680">
        <ele>560.3</ele>
        <time>2018-09-15T17:14:47Z</time>
      </trkpt>
      <trkpt lat="-24.7198980" lon="-53.7514200">
        <ele>560.3</ele>
        <time>2018-09-15T17:14:48Z</time>
      </trkpt>
      <trkpt lat="-24.7199040" lon="-53.7513710">
        <ele>560.4</ele>
        <time>2018-09-15T17:14:49Z</time>
      </trkpt>
      <trkpt lat="-24.7199070" lon="-53.7513220">
        <ele>560.4</ele>
        <time>2018-09-15T17:14:50Z</time>
      </trkpt>
      <trkpt lat="-24.7199050" lon="-53.7512740">
        <ele>560.4</ele>
        <time>2018-09-15T17:14:51Z</time>
      </trkpt>
      <trkpt lat="-24.7199030" lon="-53.7512260">
        <ele>560.5</ele>
        <time>2018-09-15T17:14:52Z</time>
      </trkpt>
      <trkpt lat="-24.7199000" lon="-53.7511780">
        <ele>560.5</ele>
        <time>2018-09-15T17:14:53Z</time>
      </trkpt>
      <trkpt lat="-24.7199000" lon="-53.7511300">
        <ele>560.5</ele>
        <time>2018-09-15T17:14:54Z</time>
      </trkpt>
      <trkpt lat="-24.7199010" lon="-53.7510800">
        <ele>560.6</ele>
        <time>2018-09-15T17:14:55Z</time>
      </trkpt>
      <trkpt lat="-24.7199010" lon="-53.7510320">
        <ele>560.6</ele>
        <time>2018-09-15T17:14:56Z</time>
      </trkpt>
      <trkpt lat="-24.7199010" lon="-53.7509830">
        <ele>560.7</ele>
        <time>2018-09-15T17:14:57Z</time>
      </trkpt>
      <trkpt lat="-24.7199020" lon="-53.7509340">
        <ele>560.7</ele>
        <time>2018-09-15T17:14:58Z</time>
      </trkpt>
      <trkpt lat="-24.7199030" lon="-53.7508830">
        <ele>560.7</ele>
        <time>2018-09-15T17:14:59Z</time>
      </trkpt>
      <trkpt lat="-24.7199010" lon="-53.7508330">
        <ele>560.8</ele>
        <time>2018-09-15T17:15:00Z</time>
      </trkpt>
      <trkpt lat="-24.7198990" lon="-53.7507830">
        <ele>560.8</ele>
        <time>2018-09-15T17:15:01Z</time>
      </trkpt>
      <trkpt lat="-24.7199010" lon="-53.7507330">
        <ele>560.9</ele>
        <time>2018-09-15T17:15:02Z</time>
      </trkpt>
      <trkpt lat="-24.7199030" lon="-53.7506810">
        <ele>560.9</ele>
        <time>2018-09-15T17:15:03Z</time>
      </trkpt>
      <trkpt lat="-24.7199040" lon="-53.7506290">
        <ele>561.0</ele>
        <time>2018-09-15T17:15:04Z</time>
      </trkpt>
      <trkpt lat="-24.7199060" lon="-53.7505760">
        <ele>561.1</ele>
        <time>2018-09-15T17:15:05Z</time>
      </trkpt>
      <trkpt lat="-24.7199040" lon="-53.7505220">
        <ele>561.1</ele>
        <time>2018-09-15T17:15:06Z</time>
      </trkpt>
      <trkpt lat="-24.7199000" lon="-53.7504670">
        <ele>561.2</ele>
        <time>2018-09-15T17:15:07Z</time>
      </trkpt>
      <trkpt lat="-24.7198980" lon="-53.7504130">
        <ele>561.3</ele>
        <time>2018-09-15T17:15:08Z</time>
      </trkpt>
      <trkpt lat="-24.7198940" lon="-53.7503570">
        <ele>561.4</ele>
        <time>2018-09-15T17:15:09Z</time>
      </trkpt>
      <trkpt lat="-24.7198940" lon="-53.7503010">
        <ele>561.4</ele>
        <time>2018-09-15T17:15:10Z</time>
      </trkpt>
      <trkpt lat="-24.7198950" lon="-53.7502450">
        <ele>561.5</ele>
        <time>2018-09-15T17:15:11Z</time>
      </trkpt>
      <trkpt lat="-24.7198970" lon="-53.7501900">
        <ele>561.6</ele>
        <time>2018-09-15T17:15:12Z</time>
      </trkpt>
      <trkpt lat="-24.7198950" lon="-53.7501340">
        <ele>561.7</ele>
        <time>2018-09-15T17:15:13Z</time>
      </trkpt>
      <trkpt lat="-24.7198900" lon="-53.7500780">
        <ele>561.9</ele>
        <time>2018-09-15T17:15:14Z</time>
      </trkpt>
      <trkpt lat="-24.7198870" lon="-53.7500240">
        <ele>561.7</ele>
        <time>2018-09-15T17:15:15Z</time>
      </trkpt>
      <trkpt lat="-24.7198850" lon="-53.7499690">
        <ele>561.3</ele>
        <time>2018-09-15T17:15:16Z</time>
      </trkpt>
      <trkpt lat="-24.7198860" lon="-53.7499140">
        <ele>560.9</ele>
        <time>2018-09-15T17:15:17Z</time>
      </trkpt>
      <trkpt lat="-24.7198870" lon="-53.7498610">
        <ele>560.6</ele>
        <time>2018-09-15T17:15:18Z</time>
      </trkpt>
      <trkpt lat="-24.7198890" lon="-53.7498070">
        <ele>560.2</ele>
        <time>2018-09-15T17:15:19Z</time>
      </trkpt>
      <trkpt lat="-24.7198910" lon="-53.7497540">
        <ele>559.8</ele>
        <time>2018-09-15T17:15:20Z</time>
      </trkpt>
      <trkpt lat="-24.7198920" lon="-53.7497020">
        <ele>559.5</ele>
        <time>2018-09-15T17:15:21Z</time>
      </trkpt>
      <trkpt lat="-24.7198930" lon="-53.7496470">
        <ele>559.0</ele>
        <time>2018-09-15T17:15:22Z</time>
      </trkpt>
      <trkpt lat="-24.7198980" lon="-53.7495900">
        <ele>559.0</ele>
        <time>2018-09-15T17:15:23Z</time>
      </trkpt>
      <trkpt lat="-24.7199070" lon="-53.7495320">
        <ele>559.0</ele>
        <time>2018-09-15T17:15:24Z</time>
      </trkpt>
      <trkpt lat="-24.7199130" lon="-53.7494750">
        <ele>558.9</ele>
        <time>2018-09-15T17:15:25Z</time>
      </trkpt>
      <trkpt lat="-24.7199130" lon="-53.7494190">
        <ele>558.8</ele>
        <time>2018-09-15T17:15:26Z</time>
      </trkpt>
      <trkpt lat="-24.7199110" lon="-53.7493610">
        <ele>558.7</ele>
        <time>2018-09-15T17:15:27Z</time>
      </trkpt>
      <trkpt lat="-24.7199110" lon="-53.7493010">
        <ele>558.6</ele>
        <time>2018-09-15T17:15:28Z</time>
      </trkpt>
      <trkpt lat="-24.7199120" lon="-53.7492400">
        <ele>558.5</ele>
        <time>2018-09-15T17:15:29Z</time>
      </trkpt>
      <trkpt lat="-24.7199120" lon="-53.7491760">
        <ele>558.3</ele>
        <time>2018-09-15T17:15:30Z</time>
      </trkpt>
      <trkpt lat="-24.7199100" lon="-53.7491120">
        <ele>558.0</ele>
        <time>2018-09-15T17:15:31Z</time>
      </trkpt>
      <trkpt lat="-24.7199080" lon="-53.7490480">
        <ele>557.6</ele>
        <time>2018-09-15T17:15:32Z</time>
      </trkpt>
      <trkpt lat="-24.7199060" lon="-53.7489850">
        <ele>557.2</ele>
        <time>2018-09-15T17:15:33Z</time>
      </trkpt>
      <trkpt lat="-24.7199060" lon="-53.7489210">
        <ele>556.8</ele>
        <time>2018-09-15T17:15:34Z</time>
      </trkpt>
      <trkpt lat="-24.7199060" lon="-53.7488550">
        <ele>556.3</ele>
        <time>2018-09-15T17:15:35Z</time>
      </trkpt>
      <trkpt lat="-24.7199060" lon="-53.7487870">
        <ele>556.0</ele>
        <time>2018-09-15T17:15:36Z</time>
      </trkpt>
      <trkpt lat="-24.7199070" lon="-53.7487180">
        <ele>555.8</ele>
        <time>2018-09-15T17:15:37Z</time>
      </trkpt>
      <trkpt lat="-24.7199070" lon="-53.7486480">
        <ele>555.5</ele>
        <time>2018-09-15T17:15:38Z</time>
      </trkpt>
      <trkpt lat="-24.7199070" lon="-53.7485760">
        <ele>555.0</ele>
        <time>2018-09-15T17:15:39Z</time>
      </trkpt>
      <trkpt lat="-24.7199080" lon="-53.7485070">
        <ele>554.5</ele>
        <time>2018-09-15T17:15:40Z</time>
      </trkpt>
      <trkpt lat="-24.7199120" lon="-53.7484390">
        <ele>554.0</ele>
        <time>2018-09-15T17:15:41Z</time>
      </trkpt>
      <trkpt lat="-24.7199150" lon="-53.7483700">
        <ele>553.8</ele>
        <time>2018-09-15T17:15:42Z</time>
      </trkpt>
      <trkpt lat="-24.7199170" lon="-53.7483030">
        <ele>553.6</ele>
        <time>2018-09-15T17:15:43Z</time>
      </trkpt>
      <trkpt lat="-24.7199190" lon="-53.7482380">
        <ele>553.4</ele>
        <time>2018-09-15T17:15:44Z</time>
      </trkpt>
      <trkpt lat="-24.7199210" lon="-53.7481710">
        <ele>553.1</ele>
        <time>2018-09-15T17:15:45Z</time>
      </trkpt>
      <trkpt lat="-24.7199240" lon="-53.7481040">
        <ele>552.9</ele>
        <time>2018-09-15T17:15:46Z</time>
      </trkpt>
      <trkpt lat="-24.7199270" lon="-53.7480400">
        <ele>552.6</ele>
        <time>2018-09-15T17:15:47Z</time>
      </trkpt>
      <trkpt lat="-24.7199260" lon="-53.7479750">
        <ele>552.5</ele>
        <time>2018-09-15T17:15:48Z</time>
      </trkpt>
      <trkpt lat="-24.7199270" lon="-53.7479100">
        <ele>552.7</ele>
        <time>2018-09-15T17:15:49Z</time>
      </trkpt>
      <trkpt lat="-24.7199270" lon="-53.7478450">
        <ele>553.0</ele>
        <time>2018-09-15T17:15:50Z</time>
      </trkpt>
      <trkpt lat="-24.7199250" lon="-53.7477780">
        <ele>553.3</ele>
        <time>2018-09-15T17:15:51Z</time>
      </trkpt>
      <trkpt lat="-24.7199220" lon="-53.7477120">
        <ele>553.0</ele>
        <time>2018-09-15T17:15:52Z</time>
      </trkpt>
      <trkpt lat="-24.7199200" lon="-53.7476460">
        <ele>553.0</ele>
        <time>2018-09-15T17:15:53Z</time>
      </trkpt>
      <trkpt lat="-24.7199210" lon="-53.7475140">
        <ele>552.7</ele>
        <time>2018-09-15T17:15:54Z</time>
      </trkpt>
      <trkpt lat="-24.7199240" lon="-53.7474500">
        <ele>552.6</ele>
        <time>2018-09-15T17:15:55Z</time>
      </trkpt>
      <trkpt lat="-24.7199260" lon="-53.7473870">
        <ele>552.5</ele>
        <time>2018-09-15T17:15:56Z</time>
      </trkpt>
      <trkpt lat="-24.7199250" lon="-53.7473230">
        <ele>552.3</ele>
        <time>2018-09-15T17:15:57Z</time>
      </trkpt>
      <trkpt lat="-24.7199240" lon="-53.7472590">
        <ele>552.2</ele>
        <time>2018-09-15T17:15:58Z</time>
      </trkpt>
      <trkpt lat="-24.7199240" lon="-53.7471940">
        <ele>552.0</ele>
        <time>2018-09-15T17:15:59Z</time>
      </trkpt>
      <trkpt lat="-24.7199200" lon="-53.7471300">
        <ele>552.0</ele>
        <time>2018-09-15T17:16:00Z</time>
      </trkpt>
      <trkpt lat="-24.7199170" lon="-53.7470680">
        <ele>552.0</ele>
        <time>2018-09-15T17:16:01Z</time>
      </trkpt>
      <trkpt lat="-24.7199180" lon="-53.7470060">
        <ele>552.0</ele>
        <time>2018-09-15T17:16:02Z</time>
      </trkpt>
      <trkpt lat="-24.7199210" lon="-53.7469440">
        <ele>552.0</ele>
        <time>2018-09-15T17:16:03Z</time>
      </trkpt>
      <trkpt lat="-24.7199230" lon="-53.7468820">
        <ele>552.0</ele>
        <time>2018-09-15T17:16:04Z</time>
      </trkpt>
      <trkpt lat="-24.7199260" lon="-53.7468200">
        <ele>552.0</ele>
        <time>2018-09-15T17:16:05Z</time>
      </trkpt>
      <trkpt lat="-24.7199310" lon="-53.7467570">
        <ele>552.0</ele>
        <time>2018-09-15T17:16:06Z</time>
      </trkpt>
      <trkpt lat="-24.7199380" lon="-53.7466950">
        <ele>551.0</ele>
        <time>2018-09-15T17:16:07Z</time>
      </trkpt>
      <trkpt lat="-24.7199440" lon="-53.7466330">
        <ele>550.0</ele>
        <time>2018-09-15T17:16:08Z</time>
      </trkpt>
      <trkpt lat="-24.7199480" lon="-53.7465720">
        <ele>550.0</ele>
        <time>2018-09-15T17:16:09Z</time>
      </trkpt>
      <trkpt lat="-24.7199490" lon="-53.7465110">
        <ele>549.9</ele>
        <time>2018-09-15T17:16:10Z</time>
      </trkpt>
      <trkpt lat="-24.7199460" lon="-53.7464510">
        <ele>549.9</ele>
        <time>2018-09-15T17:16:11Z</time>
      </trkpt>
      <trkpt lat="-24.7199440" lon="-53.7463910">
        <ele>549.9</ele>
        <time>2018-09-15T17:16:12Z</time>
      </trkpt>
      <trkpt lat="-24.7199430" lon="-53.7463330">
        <ele>549.8</ele>
        <time>2018-09-15T17:16:13Z</time>
      </trkpt>
      <trkpt lat="-24.7199440" lon="-53.7462760">
        <ele>549.8</ele>
        <time>2018-09-15T17:16:14Z</time>
      </trkpt>
      <trkpt lat="-24.7199440" lon="-53.7462190">
        <ele>549.9</ele>
        <time>2018-09-15T17:16:15Z</time>
      </trkpt>
      <trkpt lat="-24.7199440" lon="-53.7461640">
        <ele>549.9</ele>
        <time>2018-09-15T17:16:16Z</time>
      </trkpt>
      <trkpt lat="-24.7199430" lon="-53.7461080">
        <ele>550.0</ele>
        <time>2018-09-15T17:16:17Z</time>
      </trkpt>
      <trkpt lat="-24.7199410" lon="-53.7460540">
        <ele>550.0</ele>
        <time>2018-09-15T17:16:18Z</time>
      </trkpt>
      <trkpt lat="-24.7199420" lon="-53.7459980">
        <ele>550.0</ele>
        <time>2018-09-15T17:16:19Z</time>
      </trkpt>
      <trkpt lat="-24.7199430" lon="-53.7459440">
        <ele>550.0</ele>
        <time>2018-09-15T17:16:20Z</time>
      </trkpt>
      <trkpt lat="-24.7199430" lon="-53.7458870">
        <ele>549.9</ele>
        <time>2018-09-15T17:16:21Z</time>
      </trkpt>
      <trkpt lat="-24.7199450" lon="-53.7458310">
        <ele>549.9</ele>
        <time>2018-09-15T17:16:22Z</time>
      </trkpt>
      <trkpt lat="-24.7199450" lon="-53.7457760">
        <ele>549.9</ele>
        <time>2018-09-15T17:16:23Z</time>
      </trkpt>
      <trkpt lat="-24.7199440" lon="-53.7457210">
        <ele>549.9</ele>
        <time>2018-09-15T17:16:24Z</time>
      </trkpt>
      <trkpt lat="-24.7199440" lon="-53.7456670">
        <ele>549.9</ele>
        <time>2018-09-15T17:16:25Z</time>
      </trkpt>
      <trkpt lat="-24.7199460" lon="-53.7456110">
        <ele>549.9</ele>
        <time>2018-09-15T17:16:26Z</time>
      </trkpt>
      <trkpt lat="-24.7199470" lon="-53.7455580">
        <ele>549.9</ele>
        <time>2018-09-15T17:16:27Z</time>
      </trkpt>
      <trkpt lat="-24.7199480" lon="-53.7455040">
        <ele>549.9</ele>
        <time>2018-09-15T17:16:28Z</time>
      </trkpt>
      <trkpt lat="-24.7199480" lon="-53.7454510">
        <ele>549.9</ele>
        <time>2018-09-15T17:16:29Z</time>
      </trkpt>
      <trkpt lat="-24.7199500" lon="-53.7453980">
        <ele>549.9</ele>
        <time>2018-09-15T17:16:30Z</time>
      </trkpt>
      <trkpt lat="-24.7199490" lon="-53.7453430">
        <ele>550.0</ele>
        <time>2018-09-15T17:16:31Z</time>
      </trkpt>
      <trkpt lat="-24.7199470" lon="-53.7452890">
        <ele>550.0</ele>
        <time>2018-09-15T17:16:32Z</time>
      </trkpt>
      <trkpt lat="-24.7199460" lon="-53.7452350">
        <ele>550.0</ele>
        <time>2018-09-15T17:16:33Z</time>
      </trkpt>
      <trkpt lat="-24.7199480" lon="-53.7451810">
        <ele>549.9</ele>
        <time>2018-09-15T17:16:34Z</time>
      </trkpt>
      <trkpt lat="-24.7199490" lon="-53.7451280">
        <ele>549.9</ele>
        <time>2018-09-15T17:16:35Z</time>
      </trkpt>
      <trkpt lat="-24.7199500" lon="-53.7450720">
        <ele>549.9</ele>
        <time>2018-09-15T17:16:36Z</time>
      </trkpt>
      <trkpt lat="-24.7199520" lon="-53.7450180">
        <ele>549.9</ele>
        <time>2018-09-15T17:16:37Z</time>
      </trkpt>
      <trkpt lat="-24.7199540" lon="-53.7449640">
        <ele>549.8</ele>
        <time>2018-09-15T17:16:38Z</time>
      </trkpt>
      <trkpt lat="-24.7199520" lon="-53.7449110">
        <ele>549.7</ele>
        <time>2018-09-15T17:16:39Z</time>
      </trkpt>
      <trkpt lat="-24.7199500" lon="-53.7448570">
        <ele>549.7</ele>
        <time>2018-09-15T17:16:40Z</time>
      </trkpt>
      <trkpt lat="-24.7199500" lon="-53.7448030">
        <ele>549.6</ele>
        <time>2018-09-15T17:16:41Z</time>
      </trkpt>
      <trkpt lat="-24.7199500" lon="-53.7447500">
        <ele>549.5</ele>
        <time>2018-09-15T17:16:42Z</time>
      </trkpt>
      <trkpt lat="-24.7199510" lon="-53.7446960">
        <ele>549.4</ele>
        <time>2018-09-15T17:16:43Z</time>
      </trkpt>
      <trkpt lat="-24.7199520" lon="-53.7446440">
        <ele>549.3</ele>
        <time>2018-09-15T17:16:44Z</time>
      </trkpt>
      <trkpt lat="-24.7199530" lon="-53.7445930">
        <ele>549.2</ele>
        <time>2018-09-15T17:16:45Z</time>
      </trkpt>
      <trkpt lat="-24.7199550" lon="-53.7445400">
        <ele>549.0</ele>
        <time>2018-09-15T17:16:46Z</time>
      </trkpt>
      <trkpt lat="-24.7199530" lon="-53.7444880">
        <ele>549.0</ele>
        <time>2018-09-15T17:16:47Z</time>
      </trkpt>
      <trkpt lat="-24.7199530" lon="-53.7444880">
        <ele>549.0</ele>
        <time>2018-09-15T17:16:48Z</time>
      </trkpt>
      <trkpt lat="-24.7199520" lon="-53.7444360">
        <ele>549.0</ele>
        <time>2018-09-15T17:16:49Z</time>
      </trkpt>
      <trkpt lat="-24.7199500" lon="-53.7443830">
        <ele>549.0</ele>
        <time>2018-09-15T17:16:50Z</time>
      </trkpt>
      <trkpt lat="-24.7199510" lon="-53.7443300">
        <ele>549.1</ele>
        <time>2018-09-15T17:16:51Z</time>
      </trkpt>
      <trkpt lat="-24.7199520" lon="-53.7442780">
        <ele>549.2</ele>
        <time>2018-09-15T17:16:52Z</time>
      </trkpt>
      <trkpt lat="-24.7199540" lon="-53.7442280">
        <ele>549.3</ele>
        <time>2018-09-15T17:16:53Z</time>
      </trkpt>
      <trkpt lat="-24.7199560" lon="-53.7441800">
        <ele>549.5</ele>
        <time>2018-09-15T17:16:54Z</time>
      </trkpt>
      <trkpt lat="-24.7199580" lon="-53.7441320">
        <ele>549.6</ele>
        <time>2018-09-15T17:16:55Z</time>
      </trkpt>
      <trkpt lat="-24.7199580" lon="-53.7440840">
        <ele>549.8</ele>
        <time>2018-09-15T17:16:56Z</time>
      </trkpt>
      <trkpt lat="-24.7199580" lon="-53.7440360">
        <ele>550.0</ele>
        <time>2018-09-15T17:16:57Z</time>
      </trkpt>
      <trkpt lat="-24.7199580" lon="-53.7439870">
        <ele>550.3</ele>
        <time>2018-09-15T17:16:58Z</time>
      </trkpt>
      <trkpt lat="-24.7199580" lon="-53.7439380">
        <ele>550.6</ele>
        <time>2018-09-15T17:16:59Z</time>
      </trkpt>
      <trkpt lat="-24.7199580" lon="-53.7438910">
        <ele>550.9</ele>
        <time>2018-09-15T17:17:00Z</time>
      </trkpt>
      <trkpt lat="-24.7199570" lon="-53.7438460">
        <ele>551.2</ele>
        <time>2018-09-15T17:17:01Z</time>
      </trkpt>
      <trkpt lat="-24.7199650" lon="-53.7437970">
        <ele>551.6</ele>
        <time>2018-09-15T17:17:02Z</time>
      </trkpt>
      <trkpt lat="-24.7199690" lon="-53.7437510">
        <ele>551.9</ele>
        <time>2018-09-15T17:17:03Z</time>
      </trkpt>
      <trkpt lat="-24.7199700" lon="-53.7437020">
        <ele>552.3</ele>
        <time>2018-09-15T17:17:04Z</time>
      </trkpt>
      <trkpt lat="-24.7199720" lon="-53.7436480">
        <ele>552.8</ele>
        <time>2018-09-15T17:17:05Z</time>
      </trkpt>
      <trkpt lat="-24.7199710" lon="-53.7435970">
        <ele>553.1</ele>
        <time>2018-09-15T17:17:06Z</time>
      </trkpt>
      <trkpt lat="-24.7199720" lon="-53.7435490">
        <ele>553.2</ele>
        <time>2018-09-15T17:17:07Z</time>
      </trkpt>
      <trkpt lat="-24.7199710" lon="-53.7435000">
        <ele>553.3</ele>
        <time>2018-09-15T17:17:08Z</time>
      </trkpt>
      <trkpt lat="-24.7199710" lon="-53.7434520">
        <ele>553.4</ele>
        <time>2018-09-15T17:17:09Z</time>
      </trkpt>
      <trkpt lat="-24.7199700" lon="-53.7434060">
        <ele>553.5</ele>
        <time>2018-09-15T17:17:10Z</time>
      </trkpt>
      <trkpt lat="-24.7199690" lon="-53.7433590">
        <ele>553.6</ele>
        <time>2018-09-15T17:17:11Z</time>
      </trkpt>
      <trkpt lat="-24.7199660" lon="-53.7433140">
        <ele>553.7</ele>
        <time>2018-09-15T17:17:12Z</time>
      </trkpt>
      <trkpt lat="-24.7199640" lon="-53.7432660">
        <ele>553.9</ele>
        <time>2018-09-15T17:17:13Z</time>
      </trkpt>
      <trkpt lat="-24.7199630" lon="-53.7432200">
        <ele>554.0</ele>
        <time>2018-09-15T17:17:14Z</time>
      </trkpt>
      <trkpt lat="-24.7199630" lon="-53.7431720">
        <ele>554.0</ele>
        <time>2018-09-15T17:17:15Z</time>
      </trkpt>
      <trkpt lat="-24.7199620" lon="-53.7431260">
        <ele>554.0</ele>
        <time>2018-09-15T17:17:16Z</time>
      </trkpt>
      <trkpt lat="-24.7199590" lon="-53.7430790">
        <ele>554.0</ele>
        <time>2018-09-15T17:17:17Z</time>
      </trkpt>
      <trkpt lat="-24.7199570" lon="-53.7430330">
        <ele>554.1</ele>
        <time>2018-09-15T17:17:18Z</time>
      </trkpt>
      <trkpt lat="-24.7199560" lon="-53.7429880">
        <ele>554.4</ele>
        <time>2018-09-15T17:17:19Z</time>
      </trkpt>
      <trkpt lat="-24.7199560" lon="-53.7429430">
        <ele>554.6</ele>
        <time>2018-09-15T17:17:20Z</time>
      </trkpt>
      <trkpt lat="-24.7199550" lon="-53.7428990">
        <ele>554.8</ele>
        <time>2018-09-15T17:17:21Z</time>
      </trkpt>
      <trkpt lat="-24.7199560" lon="-53.7428560">
        <ele>555.0</ele>
        <time>2018-09-15T17:17:22Z</time>
      </trkpt>
      <trkpt lat="-24.7199580" lon="-53.7428130">
        <ele>555.2</ele>
        <time>2018-09-15T17:17:23Z</time>
      </trkpt>
      <trkpt lat="-24.7199600" lon="-53.7427710">
        <ele>555.3</ele>
        <time>2018-09-15T17:17:24Z</time>
      </trkpt>
      <trkpt lat="-24.7199610" lon="-53.7427300">
        <ele>555.5</ele>
        <time>2018-09-15T17:17:25Z</time>
      </trkpt>
      <trkpt lat="-24.7199620" lon="-53.7426900">
        <ele>555.6</ele>
        <time>2018-09-15T17:17:26Z</time>
      </trkpt>
      <trkpt lat="-24.7199680" lon="-53.7426480">
        <ele>555.8</ele>
        <time>2018-09-15T17:17:27Z</time>
      </trkpt>
      <trkpt lat="-24.7199740" lon="-53.7426030">
        <ele>556.0</ele>
        <time>2018-09-15T17:17:28Z</time>
      </trkpt>
      <trkpt lat="-24.7199750" lon="-53.7425640">
        <ele>556.1</ele>
        <time>2018-09-15T17:17:29Z</time>
      </trkpt>
      <trkpt lat="-24.7199760" lon="-53.7425240">
        <ele>556.3</ele>
        <time>2018-09-15T17:17:30Z</time>
      </trkpt>
      <trkpt lat="-24.7199770" lon="-53.7424830">
        <ele>556.4</ele>
        <time>2018-09-15T17:17:31Z</time>
      </trkpt>
      <trkpt lat="-24.7199780" lon="-53.7424420">
        <ele>556.5</ele>
        <time>2018-09-15T17:17:32Z</time>
      </trkpt>
      <trkpt lat="-24.7199780" lon="-53.7423980">
        <ele>556.6</ele>
        <time>2018-09-15T17:17:33Z</time>
      </trkpt>
      <trkpt lat="-24.7199780" lon="-53.7423550">
        <ele>556.8</ele>
        <time>2018-09-15T17:17:34Z</time>
      </trkpt>
      <trkpt lat="-24.7199780" lon="-53.7423140">
        <ele>556.9</ele>
        <time>2018-09-15T17:17:35Z</time>
      </trkpt>
      <trkpt lat="-24.7199780" lon="-53.7422720">
        <ele>557.0</ele>
        <time>2018-09-15T17:17:36Z</time>
      </trkpt>
      <trkpt lat="-24.7199790" lon="-53.7422310">
        <ele>557.1</ele>
        <time>2018-09-15T17:17:37Z</time>
      </trkpt>
      <trkpt lat="-24.7199810" lon="-53.7421920">
        <ele>557.2</ele>
        <time>2018-09-15T17:17:38Z</time>
      </trkpt>
      <trkpt lat="-24.7199820" lon="-53.7421530">
        <ele>557.4</ele>
        <time>2018-09-15T17:17:39Z</time>
      </trkpt>
      <trkpt lat="-24.7199820" lon="-53.7421140">
        <ele>557.5</ele>
        <time>2018-09-15T17:17:40Z</time>
      </trkpt>
      <trkpt lat="-24.7199830" lon="-53.7420790">
        <ele>557.6</ele>
        <time>2018-09-15T17:17:41Z</time>
      </trkpt>
      <trkpt lat="-24.7199840" lon="-53.7420410">
        <ele>557.8</ele>
        <time>2018-09-15T17:17:42Z</time>
      </trkpt>
      <trkpt lat="-24.7199860" lon="-53.7420000">
        <ele>557.9</ele>
        <time>2018-09-15T17:17:43Z</time>
      </trkpt>
      <trkpt lat="-24.7199900" lon="-53.7419600">
        <ele>558.1</ele>
        <time>2018-09-15T17:17:44Z</time>
      </trkpt>
      <trkpt lat="-24.7199930" lon="-53.7419220">
        <ele>558.3</ele>
        <time>2018-09-15T17:17:45Z</time>
      </trkpt>
      <trkpt lat="-24.7199940" lon="-53.7418840">
        <ele>558.5</ele>
        <time>2018-09-15T17:17:46Z</time>
      </trkpt>
      <trkpt lat="-24.7199930" lon="-53.7418430">
        <ele>558.8</ele>
        <time>2018-09-15T17:17:47Z</time>
      </trkpt>
      <trkpt lat="-24.7199950" lon="-53.7418020">
        <ele>559.0</ele>
        <time>2018-09-15T17:17:48Z</time>
      </trkpt>
      <trkpt lat="-24.7199930" lon="-53.7417610">
        <ele>559.1</ele>
        <time>2018-09-15T17:17:49Z</time>
      </trkpt>
      <trkpt lat="-24.7199930" lon="-53.7417180">
        <ele>559.3</ele>
        <time>2018-09-15T17:17:50Z</time>
      </trkpt>
      <trkpt lat="-24.7199930" lon="-53.7416790">
        <ele>559.5</ele>
        <time>2018-09-15T17:17:51Z</time>
      </trkpt>
      <trkpt lat="-24.7199920" lon="-53.7416370">
        <ele>559.6</ele>
        <time>2018-09-15T17:17:52Z</time>
      </trkpt>
      <trkpt lat="-24.7199930" lon="-53.7415920">
        <ele>559.8</ele>
        <time>2018-09-15T17:17:53Z</time>
      </trkpt>
      <trkpt lat="-24.7199960" lon="-53.7415470">
        <ele>560.0</ele>
        <time>2018-09-15T17:17:54Z</time>
      </trkpt>
      <trkpt lat="-24.7199960" lon="-53.7415040">
        <ele>560.1</ele>
        <time>2018-09-15T17:17:55Z</time>
      </trkpt>
      <trkpt lat="-24.7199980" lon="-53.7414600">
        <ele>560.3</ele>
        <time>2018-09-15T17:17:56Z</time>
      </trkpt>
      <trkpt lat="-24.7199980" lon="-53.7414180">
        <ele>560.4</ele>
        <time>2018-09-15T17:17:57Z</time>
      </trkpt>
      <trkpt lat="-24.7199970" lon="-53.7413740">
        <ele>560.6</ele>
        <time>2018-09-15T17:17:58Z</time>
      </trkpt>
      <trkpt lat="-24.7199960" lon="-53.7413290">
        <ele>560.7</ele>
        <time>2018-09-15T17:17:59Z</time>
      </trkpt>
      <trkpt lat="-24.7199960" lon="-53.7412850">
        <ele>560.9</ele>
        <time>2018-09-15T17:18:00Z</time>
      </trkpt>
      <trkpt lat="-24.7199980" lon="-53.7412420">
        <ele>561.0</ele>
        <time>2018-09-15T17:18:01Z</time>
      </trkpt>
      <trkpt lat="-24.7199990" lon="-53.7411990">
        <ele>561.1</ele>
        <time>2018-09-15T17:18:02Z</time>
      </trkpt>
      <trkpt lat="-24.7200020" lon="-53.7411570">
        <ele>561.3</ele>
        <time>2018-09-15T17:18:03Z</time>
      </trkpt>
      <trkpt lat="-24.7200040" lon="-53.7411130">
        <ele>561.4</ele>
        <time>2018-09-15T17:18:04Z</time>
      </trkpt>
      <trkpt lat="-24.7200050" lon="-53.7410690">
        <ele>561.6</ele>
        <time>2018-09-15T17:18:05Z</time>
      </trkpt>
      <trkpt lat="-24.7200050" lon="-53.7410260">
        <ele>561.7</ele>
        <time>2018-09-15T17:18:06Z</time>
      </trkpt>
      <trkpt lat="-24.7200060" lon="-53.7409830">
        <ele>561.9</ele>
        <time>2018-09-15T17:18:07Z</time>
      </trkpt>
      <trkpt lat="-24.7200070" lon="-53.7409390">
        <ele>562.2</ele>
        <time>2018-09-15T17:18:08Z</time>
      </trkpt>
      <trkpt lat="-24.7200070" lon="-53.7408950">
        <ele>562.4</ele>
        <time>2018-09-15T17:18:09Z</time>
      </trkpt>
      <trkpt lat="-24.7200080" lon="-53.7408520">
        <ele>562.7</ele>
        <time>2018-09-15T17:18:10Z</time>
      </trkpt>
      <trkpt lat="-24.7200090" lon="-53.7408110">
        <ele>562.9</ele>
        <time>2018-09-15T17:18:11Z</time>
      </trkpt>
      <trkpt lat="-24.7200170" lon="-53.7407680">
        <ele>562.9</ele>
        <time>2018-09-15T17:18:12Z</time>
      </trkpt>
      <trkpt lat="-24.7200210" lon="-53.7407240">
        <ele>562.8</ele>
        <time>2018-09-15T17:18:13Z</time>
      </trkpt>
      <trkpt lat="-24.7200200" lon="-53.7406790">
        <ele>562.7</ele>
        <time>2018-09-15T17:18:14Z</time>
      </trkpt>
      <trkpt lat="-24.7200200" lon="-53.7406330">
        <ele>562.7</ele>
        <time>2018-09-15T17:18:15Z</time>
      </trkpt>
      <trkpt lat="-24.7200210" lon="-53.7405890">
        <ele>562.6</ele>
        <time>2018-09-15T17:18:16Z</time>
      </trkpt>
      <trkpt lat="-24.7200230" lon="-53.7405420">
        <ele>562.6</ele>
        <time>2018-09-15T17:18:17Z</time>
      </trkpt>
      <trkpt lat="-24.7200240" lon="-53.7404970">
        <ele>562.5</ele>
        <time>2018-09-15T17:18:18Z</time>
      </trkpt>
      <trkpt lat="-24.7200250" lon="-53.7404540">
        <ele>562.5</ele>
        <time>2018-09-15T17:18:19Z</time>
      </trkpt>
      <trkpt lat="-24.7200260" lon="-53.7404110">
        <ele>562.5</ele>
        <time>2018-09-15T17:18:20Z</time>
      </trkpt>
      <trkpt lat="-24.7200280" lon="-53.7403650">
        <ele>562.5</ele>
        <time>2018-09-15T17:18:21Z</time>
      </trkpt>
      <trkpt lat="-24.7200290" lon="-53.7403190">
        <ele>562.4</ele>
        <time>2018-09-15T17:18:22Z</time>
      </trkpt>
      <trkpt lat="-24.7200290" lon="-53.7402730">
        <ele>562.4</ele>
        <time>2018-09-15T17:18:23Z</time>
      </trkpt>
      <trkpt lat="-24.7200280" lon="-53.7402280">
        <ele>562.4</ele>
        <time>2018-09-15T17:18:24Z</time>
      </trkpt>
      <trkpt lat="-24.7200270" lon="-53.7401830">
        <ele>562.4</ele>
        <time>2018-09-15T17:18:25Z</time>
      </trkpt>
      <trkpt lat="-24.7200280" lon="-53.7401380">
        <ele>562.3</ele>
        <time>2018-09-15T17:18:26Z</time>
      </trkpt>
      <trkpt lat="-24.7200280" lon="-53.7400940">
        <ele>562.3</ele>
        <time>2018-09-15T17:18:27Z</time>
      </trkpt>
      <trkpt lat="-24.7200290" lon="-53.7400500">
        <ele>562.3</ele>
        <time>2018-09-15T17:18:28Z</time>
      </trkpt>
      <trkpt lat="-24.7200300" lon="-53.7400050">
        <ele>562.3</ele>
        <time>2018-09-15T17:18:29Z</time>
      </trkpt>
      <trkpt lat="-24.7200310" lon="-53.7399610">
        <ele>562.3</ele>
        <time>2018-09-15T17:18:30Z</time>
      </trkpt>
      <trkpt lat="-24.7200320" lon="-53.7399170">
        <ele>562.2</ele>
        <time>2018-09-15T17:18:31Z</time>
      </trkpt>
      <trkpt lat="-24.7200330" lon="-53.7398740">
        <ele>562.2</ele>
        <time>2018-09-15T17:18:32Z</time>
      </trkpt>
      <trkpt lat="-24.7200330" lon="-53.7398310">
        <ele>562.1</ele>
        <time>2018-09-15T17:18:33Z</time>
      </trkpt>
      <trkpt lat="-24.7200320" lon="-53.7397860">
        <ele>562.1</ele>
        <time>2018-09-15T17:18:34Z</time>
      </trkpt>
      <trkpt lat="-24.7200300" lon="-53.7397430">
        <ele>562.1</ele>
        <time>2018-09-15T17:18:35Z</time>
      </trkpt>
      <trkpt lat="-24.7200290" lon="-53.7396980">
        <ele>562.1</ele>
        <time>2018-09-15T17:18:36Z</time>
      </trkpt>
      <trkpt lat="-24.7200290" lon="-53.7396540">
        <ele>562.0</ele>
        <time>2018-09-15T17:18:37Z</time>
      </trkpt>
      <trkpt lat="-24.7200300" lon="-53.7396110">
        <ele>562.0</ele>
        <time>2018-09-15T17:18:38Z</time>
      </trkpt>
      <trkpt lat="-24.7200290" lon="-53.7395700">
        <ele>562.0</ele>
        <time>2018-09-15T17:18:39Z</time>
      </trkpt>
      <trkpt lat="-24.7200290" lon="-53.7395240">
        <ele>562.1</ele>
        <time>2018-09-15T17:18:40Z</time>
      </trkpt>
      <trkpt lat="-24.7200290" lon="-53.7394800">
        <ele>562.2</ele>
        <time>2018-09-15T17:18:41Z</time>
      </trkpt>
      <trkpt lat="-24.7200280" lon="-53.7394360">
        <ele>562.2</ele>
        <time>2018-09-15T17:18:42Z</time>
      </trkpt>
      <trkpt lat="-24.7200280" lon="-53.7393910">
        <ele>562.2</ele>
        <time>2018-09-15T17:18:43Z</time>
      </trkpt>
      <trkpt lat="-24.7200290" lon="-53.7393460">
        <ele>562.2</ele>
        <time>2018-09-15T17:18:44Z</time>
      </trkpt>
      <trkpt lat="-24.7200280" lon="-53.7393020">
        <ele>562.0</ele>
        <time>2018-09-15T17:18:45Z</time>
      </trkpt>
      <trkpt lat="-24.7200280" lon="-53.7392570">
        <ele>561.9</ele>
        <time>2018-09-15T17:18:46Z</time>
      </trkpt>
      <trkpt lat="-24.7200290" lon="-53.7392120">
        <ele>561.6</ele>
        <time>2018-09-15T17:18:47Z</time>
      </trkpt>
      <trkpt lat="-24.7200270" lon="-53.7391680">
        <ele>561.4</ele>
        <time>2018-09-15T17:18:48Z</time>
      </trkpt>
      <trkpt lat="-24.7200280" lon="-53.7391230">
        <ele>561.2</ele>
        <time>2018-09-15T17:18:49Z</time>
      </trkpt>
      <trkpt lat="-24.7200290" lon="-53.7390770">
        <ele>561.0</ele>
        <time>2018-09-15T17:18:50Z</time>
      </trkpt>
      <trkpt lat="-24.7200120" lon="-53.7390450">
        <ele>560.9</ele>
        <time>2018-09-15T17:18:51Z</time>
      </trkpt>
      <trkpt lat="-24.7200120" lon="-53.7389970">
        <ele>560.9</ele>
        <time>2018-09-15T17:18:52Z</time>
      </trkpt>
      <trkpt lat="-24.7200140" lon="-53.7389510">
        <ele>561.1</ele>
        <time>2018-09-15T17:18:53Z</time>
      </trkpt>
      <trkpt lat="-24.7200150" lon="-53.7389040">
        <ele>561.5</ele>
        <time>2018-09-15T17:18:54Z</time>
      </trkpt>
      <trkpt lat="-24.7200160" lon="-53.7388590">
        <ele>561.7</ele>
        <time>2018-09-15T17:18:55Z</time>
      </trkpt>
      <trkpt lat="-24.7200190" lon="-53.7388130">
        <ele>561.8</ele>
        <time>2018-09-15T17:18:56Z</time>
      </trkpt>
      <trkpt lat="-24.7200200" lon="-53.7387670">
        <ele>561.9</ele>
        <time>2018-09-15T17:18:57Z</time>
      </trkpt>
      <trkpt lat="-24.7200180" lon="-53.7387230">
        <ele>562.0</ele>
        <time>2018-09-15T17:18:58Z</time>
      </trkpt>
      <trkpt lat="-24.7200130" lon="-53.7386800">
        <ele>562.0</ele>
        <time>2018-09-15T17:18:59Z</time>
      </trkpt>
      <trkpt lat="-24.7200080" lon="-53.7386390">
        <ele>562.0</ele>
        <time>2018-09-15T17:19:00Z</time>
      </trkpt>
      <trkpt lat="-24.7200090" lon="-53.7386030">
        <ele>562.0</ele>
        <time>2018-09-15T17:19:01Z</time>
      </trkpt>
      <trkpt lat="-24.7200100" lon="-53.7385640">
        <ele>561.9</ele>
        <time>2018-09-15T17:19:02Z</time>
      </trkpt>
      <trkpt lat="-24.7200090" lon="-53.7385240">
        <ele>561.8</ele>
        <time>2018-09-15T17:19:03Z</time>
      </trkpt>
      <trkpt lat="-24.7200110" lon="-53.7384820">
        <ele>561.6</ele>
        <time>2018-09-15T17:19:04Z</time>
      </trkpt>
      <trkpt lat="-24.7200150" lon="-53.7384380">
        <ele>561.4</ele>
        <time>2018-09-15T17:19:05Z</time>
      </trkpt>
      <trkpt lat="-24.7200230" lon="-53.7383940">
        <ele>561.1</ele>
        <time>2018-09-15T17:19:06Z</time>
      </trkpt>
      <trkpt lat="-24.7200270" lon="-53.7383460">
        <ele>561.1</ele>
        <time>2018-09-15T17:19:07Z</time>
      </trkpt>
      <trkpt lat="-24.7200280" lon="-53.7382980">
        <ele>561.1</ele>
        <time>2018-09-15T17:19:08Z</time>
      </trkpt>
      <trkpt lat="-24.7200290" lon="-53.7382500">
        <ele>561.2</ele>
        <time>2018-09-15T17:19:09Z</time>
      </trkpt>
      <trkpt lat="-24.7200290" lon="-53.7382020">
        <ele>561.3</ele>
        <time>2018-09-15T17:19:10Z</time>
      </trkpt>
      <trkpt lat="-24.7200290" lon="-53.7381540">
        <ele>561.4</ele>
        <time>2018-09-15T17:19:11Z</time>
      </trkpt>
      <trkpt lat="-24.7200290" lon="-53.7381080">
        <ele>561.4</ele>
        <time>2018-09-15T17:19:12Z</time>
      </trkpt>
      <trkpt lat="-24.7200290" lon="-53.7380590">
        <ele>561.5</ele>
        <time>2018-09-15T17:19:13Z</time>
      </trkpt>
      <trkpt lat="-24.7200280" lon="-53.7380110">
        <ele>561.6</ele>
        <time>2018-09-15T17:19:14Z</time>
      </trkpt>
      <trkpt lat="-24.7200290" lon="-53.7379640">
        <ele>561.7</ele>
        <time>2018-09-15T17:19:15Z</time>
      </trkpt>
      <trkpt lat="-24.7200280" lon="-53.7379170">
        <ele>561.8</ele>
        <time>2018-09-15T17:19:16Z</time>
      </trkpt>
      <trkpt lat="-24.7200280" lon="-53.7378690">
        <ele>561.9</ele>
        <time>2018-09-15T17:19:17Z</time>
      </trkpt>
      <trkpt lat="-24.7200270" lon="-53.7378220">
        <ele>562.0</ele>
        <time>2018-09-15T17:19:18Z</time>
      </trkpt>
      <trkpt lat="-24.7200270" lon="-53.7377730">
        <ele>563.2</ele>
        <time>2018-09-15T17:19:19Z</time>
      </trkpt>
      <trkpt lat="-24.7200280" lon="-53.7377240">
        <ele>564.3</ele>
        <time>2018-09-15T17:19:20Z</time>
      </trkpt>
      <trkpt lat="-24.7200290" lon="-53.7376750">
        <ele>564.3</ele>
        <time>2018-09-15T17:19:21Z</time>
      </trkpt>
      <trkpt lat="-24.7200290" lon="-53.7376260">
        <ele>564.3</ele>
        <time>2018-09-15T17:19:22Z</time>
      </trkpt>
      <trkpt lat="-24.7200290" lon="-53.7375760">
        <ele>564.2</ele>
        <time>2018-09-15T17:19:23Z</time>
      </trkpt>
      <trkpt lat="-24.7200290" lon="-53.7375270">
        <ele>564.2</ele>
        <time>2018-09-15T17:19:24Z</time>
      </trkpt>
      <trkpt lat="-24.7200290" lon="-53.7374770">
        <ele>564.2</ele>
        <time>2018-09-15T17:19:25Z</time>
      </trkpt>
      <trkpt lat="-24.7200310" lon="-53.7374270">
        <ele>564.1</ele>
        <time>2018-09-15T17:19:26Z</time>
      </trkpt>
      <trkpt lat="-24.7200310" lon="-53.7373780">
        <ele>564.1</ele>
        <time>2018-09-15T17:19:27Z</time>
      </trkpt>
      <trkpt lat="-24.7200310" lon="-53.7373280">
        <ele>564.1</ele>
        <time>2018-09-15T17:19:28Z</time>
      </trkpt>
      <trkpt lat="-24.7200300" lon="-53.7372790">
        <ele>564.0</ele>
        <time>2018-09-15T17:19:29Z</time>
      </trkpt>
      <trkpt lat="-24.7200310" lon="-53.7372290">
        <ele>564.0</ele>
        <time>2018-09-15T17:19:30Z</time>
      </trkpt>
      <trkpt lat="-24.7200350" lon="-53.7371780">
        <ele>564.2</ele>
        <time>2018-09-15T17:19:31Z</time>
      </trkpt>
      <trkpt lat="-24.7200370" lon="-53.7371270">
        <ele>564.3</ele>
        <time>2018-09-15T17:19:32Z</time>
      </trkpt>
      <trkpt lat="-24.7200380" lon="-53.7370770">
        <ele>564.4</ele>
        <time>2018-09-15T17:19:33Z</time>
      </trkpt>
      <trkpt lat="-24.7200370" lon="-53.7370260">
        <ele>564.4</ele>
        <time>2018-09-15T17:19:34Z</time>
      </trkpt>
      <trkpt lat="-24.7200390" lon="-53.7369750">
        <ele>564.5</ele>
        <time>2018-09-15T17:19:35Z</time>
      </trkpt>
      <trkpt lat="-24.7200380" lon="-53.7369250">
        <ele>564.6</ele>
        <time>2018-09-15T17:19:36Z</time>
      </trkpt>
      <trkpt lat="-24.7200380" lon="-53.7368180">
        <ele>564.7</ele>
        <time>2018-09-15T17:19:37Z</time>
      </trkpt>
      <trkpt lat="-24.7200390" lon="-53.7367640">
        <ele>564.6</ele>
        <time>2018-09-15T17:19:38Z</time>
      </trkpt>
      <trkpt lat="-24.7200390" lon="-53.7367090">
        <ele>564.5</ele>
        <time>2018-09-15T17:19:39Z</time>
      </trkpt>
      <trkpt lat="-24.7200410" lon="-53.7366540">
        <ele>564.4</ele>
        <time>2018-09-15T17:19:40Z</time>
      </trkpt>
      <trkpt lat="-24.7200410" lon="-53.7365970">
        <ele>564.3</ele>
        <time>2018-09-15T17:19:41Z</time>
      </trkpt>
      <trkpt lat="-24.7200410" lon="-53.7365390">
        <ele>564.3</ele>
        <time>2018-09-15T17:19:42Z</time>
      </trkpt>
      <trkpt lat="-24.7200420" lon="-53.7364810">
        <ele>564.3</ele>
        <time>2018-09-15T17:19:43Z</time>
      </trkpt>
      <trkpt lat="-24.7200430" lon="-53.7364230">
        <ele>564.4</ele>
        <time>2018-09-15T17:19:44Z</time>
      </trkpt>
      <trkpt lat="-24.7200430" lon="-53.7363650">
        <ele>564.5</ele>
        <time>2018-09-15T17:19:45Z</time>
      </trkpt>
      <trkpt lat="-24.7200440" lon="-53.7363070">
        <ele>564.5</ele>
        <time>2018-09-15T17:19:46Z</time>
      </trkpt>
      <trkpt lat="-24.7200440" lon="-53.7362500">
        <ele>564.4</ele>
        <time>2018-09-15T17:19:47Z</time>
      </trkpt>
      <trkpt lat="-24.7200450" lon="-53.7361930">
        <ele>564.2</ele>
        <time>2018-09-15T17:19:48Z</time>
      </trkpt>
      <trkpt lat="-24.7200450" lon="-53.7361360">
        <ele>564.0</ele>
        <time>2018-09-15T17:19:49Z</time>
      </trkpt>
      <trkpt lat="-24.7200470" lon="-53.7360780">
        <ele>564.0</ele>
        <time>2018-09-15T17:19:50Z</time>
      </trkpt>
      <trkpt lat="-24.7200480" lon="-53.7360210">
        <ele>563.9</ele>
        <time>2018-09-15T17:19:51Z</time>
      </trkpt>
      <trkpt lat="-24.7200510" lon="-53.7359640">
        <ele>563.7</ele>
        <time>2018-09-15T17:19:52Z</time>
      </trkpt>
      <trkpt lat="-24.7200520" lon="-53.7359060">
        <ele>563.6</ele>
        <time>2018-09-15T17:19:53Z</time>
      </trkpt>
      <trkpt lat="-24.7200520" lon="-53.7357910">
        <ele>563.4</ele>
        <time>2018-09-15T17:19:55Z</time>
      </trkpt>
      <trkpt lat="-24.7200540" lon="-53.7357310">
        <ele>563.3</ele>
        <time>2018-09-15T17:19:56Z</time>
      </trkpt>
      <trkpt lat="-24.7200530" lon="-53.7356730">
        <ele>563.2</ele>
        <time>2018-09-15T17:19:57Z</time>
      </trkpt>
      <trkpt lat="-24.7200520" lon="-53.7356140">
        <ele>563.1</ele>
        <time>2018-09-15T17:19:58Z</time>
      </trkpt>
      <trkpt lat="-24.7200510" lon="-53.7355530">
        <ele>563.0</ele>
        <time>2018-09-15T17:19:59Z</time>
      </trkpt>
      <trkpt lat="-24.7200540" lon="-53.7354920">
        <ele>562.8</ele>
        <time>2018-09-15T17:20:00Z</time>
      </trkpt>
      <trkpt lat="-24.7200600" lon="-53.7354300">
        <ele>562.7</ele>
        <time>2018-09-15T17:20:01Z</time>
      </trkpt>
      <trkpt lat="-24.7200630" lon="-53.7353700">
        <ele>562.6</ele>
        <time>2018-09-15T17:20:02Z</time>
      </trkpt>
      <trkpt lat="-24.7200680" lon="-53.7353080">
        <ele>562.6</ele>
        <time>2018-09-15T17:20:03Z</time>
      </trkpt>
      <trkpt lat="-24.7200690" lon="-53.7352490">
        <ele>562.5</ele>
        <time>2018-09-15T17:20:04Z</time>
      </trkpt>
      <trkpt lat="-24.7200680" lon="-53.7351870">
        <ele>562.4</ele>
        <time>2018-09-15T17:20:05Z</time>
      </trkpt>
      <trkpt lat="-24.7200690" lon="-53.7351260">
        <ele>562.3</ele>
        <time>2018-09-15T17:20:06Z</time>
      </trkpt>
      <trkpt lat="-24.7200680" lon="-53.7350670">
        <ele>562.3</ele>
        <time>2018-09-15T17:20:07Z</time>
      </trkpt>
      <trkpt lat="-24.7200690" lon="-53.7350080">
        <ele>562.2</ele>
        <time>2018-09-15T17:20:08Z</time>
      </trkpt>
      <trkpt lat="-24.7200680" lon="-53.7349490">
        <ele>562.1</ele>
        <time>2018-09-15T17:20:09Z</time>
      </trkpt>
      <trkpt lat="-24.7200690" lon="-53.7348910">
        <ele>562.0</ele>
        <time>2018-09-15T17:20:10Z</time>
      </trkpt>
      <trkpt lat="-24.7200700" lon="-53.7348340">
        <ele>561.9</ele>
        <time>2018-09-15T17:20:11Z</time>
      </trkpt>
      <trkpt lat="-24.7200720" lon="-53.7347780">
        <ele>561.8</ele>
        <time>2018-09-15T17:20:12Z</time>
      </trkpt>
      <trkpt lat="-24.7200720" lon="-53.7347190">
        <ele>561.8</ele>
        <time>2018-09-15T17:20:13Z</time>
      </trkpt>
      <trkpt lat="-24.7200710" lon="-53.7346610">
        <ele>561.7</ele>
        <time>2018-09-15T17:20:14Z</time>
      </trkpt>
      <trkpt lat="-24.7200700" lon="-53.7346050">
        <ele>561.6</ele>
        <time>2018-09-15T17:20:15Z</time>
      </trkpt>
      <trkpt lat="-24.7200710" lon="-53.7345470">
        <ele>561.5</ele>
        <time>2018-09-15T17:20:16Z</time>
      </trkpt>
      <trkpt lat="-24.7200710" lon="-53.7344880">
        <ele>561.4</ele>
        <time>2018-09-15T17:20:17Z</time>
      </trkpt>
      <trkpt lat="-24.7200730" lon="-53.7344300">
        <ele>561.2</ele>
        <time>2018-09-15T17:20:18Z</time>
      </trkpt>
      <trkpt lat="-24.7200740" lon="-53.7343740">
        <ele>561.1</ele>
        <time>2018-09-15T17:20:19Z</time>
      </trkpt>
      <trkpt lat="-24.7200740" lon="-53.7343180">
        <ele>560.9</ele>
        <time>2018-09-15T17:20:20Z</time>
      </trkpt>
      <trkpt lat="-24.7200740" lon="-53.7342620">
        <ele>560.8</ele>
        <time>2018-09-15T17:20:21Z</time>
      </trkpt>
      <trkpt lat="-24.7200770" lon="-53.7342060">
        <ele>560.6</ele>
        <time>2018-09-15T17:20:22Z</time>
      </trkpt>
      <trkpt lat="-24.7200770" lon="-53.7341520">
        <ele>560.5</ele>
        <time>2018-09-15T17:20:23Z</time>
      </trkpt>
      <trkpt lat="-24.7200770" lon="-53.7340980">
        <ele>560.4</ele>
        <time>2018-09-15T17:20:24Z</time>
      </trkpt>
      <trkpt lat="-24.7200760" lon="-53.7340410">
        <ele>560.3</ele>
        <time>2018-09-15T17:20:25Z</time>
      </trkpt>
      <trkpt lat="-24.7200770" lon="-53.7339840">
        <ele>560.2</ele>
        <time>2018-09-15T17:20:26Z</time>
      </trkpt>
      <trkpt lat="-24.7200770" lon="-53.7339290">
        <ele>560.1</ele>
        <time>2018-09-15T17:20:27Z</time>
      </trkpt>
      <trkpt lat="-24.7200790" lon="-53.7338720">
        <ele>560.0</ele>
        <time>2018-09-15T17:20:28Z</time>
      </trkpt>
      <trkpt lat="-24.7200800" lon="-53.7338160">
        <ele>560.1</ele>
        <time>2018-09-15T17:20:29Z</time>
      </trkpt>
      <trkpt lat="-24.7200810" lon="-53.7337600">
        <ele>560.2</ele>
        <time>2018-09-15T17:20:30Z</time>
      </trkpt>
      <trkpt lat="-24.7200810" lon="-53.7337600">
        <ele>560.2</ele>
        <time>2018-09-15T17:20:31Z</time>
      </trkpt>
      <trkpt lat="-24.7200830" lon="-53.7337040">
        <ele>560.3</ele>
        <time>2018-09-15T17:20:32Z</time>
      </trkpt>
      <trkpt lat="-24.7200820" lon="-53.7336500">
        <ele>560.3</ele>
        <time>2018-09-15T17:20:33Z</time>
      </trkpt>
      <trkpt lat="-24.7200830" lon="-53.7335940">
        <ele>560.4</ele>
        <time>2018-09-15T17:20:34Z</time>
      </trkpt>
      <trkpt lat="-24.7200820" lon="-53.7335420">
        <ele>560.5</ele>
        <time>2018-09-15T17:20:35Z</time>
      </trkpt>
      <trkpt lat="-24.7200830" lon="-53.7334870">
        <ele>560.5</ele>
        <time>2018-09-15T17:20:36Z</time>
      </trkpt>
      <trkpt lat="-24.7200830" lon="-53.7334320">
        <ele>560.6</ele>
        <time>2018-09-15T17:20:37Z</time>
      </trkpt>
      <trkpt lat="-24.7200850" lon="-53.7333760">
        <ele>560.7</ele>
        <time>2018-09-15T17:20:38Z</time>
      </trkpt>
      <trkpt lat="-24.7200870" lon="-53.7333210">
        <ele>560.7</ele>
        <time>2018-09-15T17:20:39Z</time>
      </trkpt>
      <trkpt lat="-24.7200880" lon="-53.7332690">
        <ele>560.8</ele>
        <time>2018-09-15T17:20:40Z</time>
      </trkpt>
      <trkpt lat="-24.7200900" lon="-53.7332150">
        <ele>560.8</ele>
        <time>2018-09-15T17:20:41Z</time>
      </trkpt>
      <trkpt lat="-24.7200910" lon="-53.7331620">
        <ele>560.9</ele>
        <time>2018-09-15T17:20:42Z</time>
      </trkpt>
      <trkpt lat="-24.7200910" lon="-53.7331090">
        <ele>561.0</ele>
        <time>2018-09-15T17:20:43Z</time>
      </trkpt>
      <trkpt lat="-24.7200910" lon="-53.7330560">
        <ele>561.0</ele>
        <time>2018-09-15T17:20:44Z</time>
      </trkpt>
      <trkpt lat="-24.7200910" lon="-53.7330040">
        <ele>561.1</ele>
        <time>2018-09-15T17:20:45Z</time>
      </trkpt>
      <trkpt lat="-24.7200910" lon="-53.7329510">
        <ele>561.2</ele>
        <time>2018-09-15T17:20:46Z</time>
      </trkpt>
      <trkpt lat="-24.7200920" lon="-53.7328980">
        <ele>561.3</ele>
        <time>2018-09-15T17:20:47Z</time>
      </trkpt>
      <trkpt lat="-24.7200920" lon="-53.7328450">
        <ele>561.4</ele>
        <time>2018-09-15T17:20:48Z</time>
      </trkpt>
      <trkpt lat="-24.7200920" lon="-53.7327920">
        <ele>561.5</ele>
        <time>2018-09-15T17:20:49Z</time>
      </trkpt>
      <trkpt lat="-24.7200910" lon="-53.7327390">
        <ele>561.5</ele>
        <time>2018-09-15T17:20:50Z</time>
      </trkpt>
      <trkpt lat="-24.7200900" lon="-53.7326870">
        <ele>561.6</ele>
        <time>2018-09-15T17:20:51Z</time>
      </trkpt>
      <trkpt lat="-24.7200910" lon="-53.7326350">
        <ele>561.7</ele>
        <time>2018-09-15T17:20:52Z</time>
      </trkpt>
      <trkpt lat="-24.7200930" lon="-53.7325820">
        <ele>561.7</ele>
        <time>2018-09-15T17:20:53Z</time>
      </trkpt>
      <trkpt lat="-24.7200960" lon="-53.7325300">
        <ele>561.8</ele>
        <time>2018-09-15T17:20:54Z</time>
      </trkpt>
      <trkpt lat="-24.7200970" lon="-53.7324790">
        <ele>561.8</ele>
        <time>2018-09-15T17:20:55Z</time>
      </trkpt>
      <trkpt lat="-24.7200980" lon="-53.7324260">
        <ele>561.9</ele>
        <time>2018-09-15T17:20:56Z</time>
      </trkpt>
      <trkpt lat="-24.7200970" lon="-53.7323730">
        <ele>561.9</ele>
        <time>2018-09-15T17:20:57Z</time>
      </trkpt>
      <trkpt lat="-24.7200960" lon="-53.7323210">
        <ele>562.0</ele>
        <time>2018-09-15T17:20:58Z</time>
      </trkpt>
      <trkpt lat="-24.7200950" lon="-53.7322690">
        <ele>562.0</ele>
        <time>2018-09-15T17:20:59Z</time>
      </trkpt>
      <trkpt lat="-24.7200960" lon="-53.7322170">
        <ele>562.2</ele>
        <time>2018-09-15T17:21:00Z</time>
      </trkpt>
      <trkpt lat="-24.7200980" lon="-53.7321650">
        <ele>562.4</ele>
        <time>2018-09-15T17:21:01Z</time>
      </trkpt>
      <trkpt lat="-24.7201000" lon="-53.7321130">
        <ele>562.5</ele>
        <time>2018-09-15T17:21:02Z</time>
      </trkpt>
      <trkpt lat="-24.7201000" lon="-53.7320620">
        <ele>562.6</ele>
        <time>2018-09-15T17:21:03Z</time>
      </trkpt>
      <trkpt lat="-24.7201000" lon="-53.7320100">
        <ele>562.7</ele>
        <time>2018-09-15T17:21:04Z</time>
      </trkpt>
      <trkpt lat="-24.7201020" lon="-53.7319570">
        <ele>562.8</ele>
        <time>2018-09-15T17:21:05Z</time>
      </trkpt>
      <trkpt lat="-24.7201040" lon="-53.7319040">
        <ele>562.9</ele>
        <time>2018-09-15T17:21:06Z</time>
      </trkpt>
      <trkpt lat="-24.7201070" lon="-53.7318510">
        <ele>563.0</ele>
        <time>2018-09-15T17:21:07Z</time>
      </trkpt>
      <trkpt lat="-24.7201060" lon="-53.7317990">
        <ele>563.4</ele>
        <time>2018-09-15T17:21:08Z</time>
      </trkpt>
      <trkpt lat="-24.7201060" lon="-53.7317480">
        <ele>563.8</ele>
        <time>2018-09-15T17:21:09Z</time>
      </trkpt>
      <trkpt lat="-24.7201080" lon="-53.7316980">
        <ele>564.1</ele>
        <time>2018-09-15T17:21:10Z</time>
      </trkpt>
      <trkpt lat="-24.7201090" lon="-53.7316480">
        <ele>564.4</ele>
        <time>2018-09-15T17:21:11Z</time>
      </trkpt>
      <trkpt lat="-24.7201090" lon="-53.7316000">
        <ele>565.0</ele>
        <time>2018-09-15T17:21:12Z</time>
      </trkpt>
      <trkpt lat="-24.7201090" lon="-53.7315510">
        <ele>564.9</ele>
        <time>2018-09-15T17:21:13Z</time>
      </trkpt>
      <trkpt lat="-24.7201070" lon="-53.7315030">
        <ele>564.8</ele>
        <time>2018-09-15T17:21:14Z</time>
      </trkpt>
      <trkpt lat="-24.7201050" lon="-53.7314520">
        <ele>564.8</ele>
        <time>2018-09-15T17:21:15Z</time>
      </trkpt>
      <trkpt lat="-24.7201060" lon="-53.7314010">
        <ele>564.7</ele>
        <time>2018-09-15T17:21:16Z</time>
      </trkpt>
      <trkpt lat="-24.7201070" lon="-53.7313500">
        <ele>564.7</ele>
        <time>2018-09-15T17:21:17Z</time>
      </trkpt>
      <trkpt lat="-24.7201080" lon="-53.7312960">
        <ele>564.6</ele>
        <time>2018-09-15T17:21:18Z</time>
      </trkpt>
      <trkpt lat="-24.7201080" lon="-53.7312420">
        <ele>564.6</ele>
        <time>2018-09-15T17:21:19Z</time>
      </trkpt>
      <trkpt lat="-24.7201100" lon="-53.7311870">
        <ele>564.5</ele>
        <time>2018-09-15T17:21:20Z</time>
      </trkpt>
      <trkpt lat="-24.7201090" lon="-53.7311310">
        <ele>564.4</ele>
        <time>2018-09-15T17:21:21Z</time>
      </trkpt>
      <trkpt lat="-24.7201100" lon="-53.7310760">
        <ele>564.3</ele>
        <time>2018-09-15T17:21:22Z</time>
      </trkpt>
      <trkpt lat="-24.7201120" lon="-53.7310210">
        <ele>564.1</ele>
        <time>2018-09-15T17:21:23Z</time>
      </trkpt>
      <trkpt lat="-24.7201130" lon="-53.7309640">
        <ele>563.9</ele>
        <time>2018-09-15T17:21:24Z</time>
      </trkpt>
      <trkpt lat="-24.7201130" lon="-53.7309090">
        <ele>563.6</ele>
        <time>2018-09-15T17:21:25Z</time>
      </trkpt>
      <trkpt lat="-24.7201140" lon="-53.7308520">
        <ele>563.3</ele>
        <time>2018-09-15T17:21:26Z</time>
      </trkpt>
      <trkpt lat="-24.7201150" lon="-53.7307970">
        <ele>563.1</ele>
        <time>2018-09-15T17:21:27Z</time>
      </trkpt>
      <trkpt lat="-24.7201150" lon="-53.7307410">
        <ele>562.9</ele>
        <time>2018-09-15T17:21:28Z</time>
      </trkpt>
      <trkpt lat="-24.7201140" lon="-53.7306840">
        <ele>562.7</ele>
        <time>2018-09-15T17:21:29Z</time>
      </trkpt>
      <trkpt lat="-24.7201130" lon="-53.7306260">
        <ele>562.5</ele>
        <time>2018-09-15T17:21:30Z</time>
      </trkpt>
      <trkpt lat="-24.7201120" lon="-53.7305680">
        <ele>562.4</ele>
        <time>2018-09-15T17:21:31Z</time>
      </trkpt>
      <trkpt lat="-24.7201120" lon="-53.7305090">
        <ele>562.3</ele>
        <time>2018-09-15T17:21:32Z</time>
      </trkpt>
      <trkpt lat="-24.7201140" lon="-53.7304490">
        <ele>562.2</ele>
        <time>2018-09-15T17:21:33Z</time>
      </trkpt>
      <trkpt lat="-24.7201150" lon="-53.7303880">
        <ele>562.1</ele>
        <time>2018-09-15T17:21:34Z</time>
      </trkpt>
      <trkpt lat="-24.7201170" lon="-53.7303260">
        <ele>562.0</ele>
        <time>2018-09-15T17:21:35Z</time>
      </trkpt>
      <trkpt lat="-24.7201170" lon="-53.7302640">
        <ele>562.0</ele>
        <time>2018-09-15T17:21:36Z</time>
      </trkpt>
      <trkpt lat="-24.7201170" lon="-53.7302040">
        <ele>562.0</ele>
        <time>2018-09-15T17:21:37Z</time>
      </trkpt>
      <trkpt lat="-24.7201190" lon="-53.7301420">
        <ele>562.0</ele>
        <time>2018-09-15T17:21:38Z</time>
      </trkpt>
      <trkpt lat="-24.7201200" lon="-53.7300810">
        <ele>562.0</ele>
        <time>2018-09-15T17:21:39Z</time>
      </trkpt>
      <trkpt lat="-24.7201210" lon="-53.7300200">
        <ele>562.0</ele>
        <time>2018-09-15T17:21:40Z</time>
      </trkpt>
      <trkpt lat="-24.7201200" lon="-53.7299600">
        <ele>562.0</ele>
        <time>2018-09-15T17:21:41Z</time>
      </trkpt>
      <trkpt lat="-24.7201200" lon="-53.7299010">
        <ele>561.9</ele>
        <time>2018-09-15T17:21:42Z</time>
      </trkpt>
      <trkpt lat="-24.7201200" lon="-53.7298420">
        <ele>561.9</ele>
        <time>2018-09-15T17:21:43Z</time>
      </trkpt>
      <trkpt lat="-24.7201200" lon="-53.7297830">
        <ele>561.8</ele>
        <time>2018-09-15T17:21:44Z</time>
      </trkpt>
      <trkpt lat="-24.7201210" lon="-53.7297240">
        <ele>561.7</ele>
        <time>2018-09-15T17:21:45Z</time>
      </trkpt>
      <trkpt lat="-24.7201220" lon="-53.7296660">
        <ele>561.6</ele>
        <time>2018-09-15T17:21:46Z</time>
      </trkpt>
      <trkpt lat="-24.7201230" lon="-53.7296070">
        <ele>561.4</ele>
        <time>2018-09-15T17:21:47Z</time>
      </trkpt>
      <trkpt lat="-24.7201240" lon="-53.7295490">
        <ele>561.3</ele>
        <time>2018-09-15T17:21:48Z</time>
      </trkpt>
      <trkpt lat="-24.7201250" lon="-53.7294900">
        <ele>561.1</ele>
        <time>2018-09-15T17:21:49Z</time>
      </trkpt>
      <trkpt lat="-24.7201260" lon="-53.7294310">
        <ele>560.9</ele>
        <time>2018-09-15T17:21:50Z</time>
      </trkpt>
      <trkpt lat="-24.7201270" lon="-53.7293730">
        <ele>560.9</ele>
        <time>2018-09-15T17:21:51Z</time>
      </trkpt>
      <trkpt lat="-24.7201280" lon="-53.7293130">
        <ele>560.9</ele>
        <time>2018-09-15T17:21:52Z</time>
      </trkpt>
      <trkpt lat="-24.7201270" lon="-53.7292540">
        <ele>560.8</ele>
        <time>2018-09-15T17:21:53Z</time>
      </trkpt>
      <trkpt lat="-24.7201270" lon="-53.7291930">
        <ele>560.8</ele>
        <time>2018-09-15T17:21:54Z</time>
      </trkpt>
      <trkpt lat="-24.7201280" lon="-53.7291330">
        <ele>560.7</ele>
        <time>2018-09-15T17:21:55Z</time>
      </trkpt>
      <trkpt lat="-24.7201290" lon="-53.7290710">
        <ele>560.7</ele>
        <time>2018-09-15T17:21:56Z</time>
      </trkpt>
      <trkpt lat="-24.7201300" lon="-53.7290090">
        <ele>560.6</ele>
        <time>2018-09-15T17:21:57Z</time>
      </trkpt>
      <trkpt lat="-24.7201290" lon="-53.7289480">
        <ele>560.6</ele>
        <time>2018-09-15T17:21:58Z</time>
      </trkpt>
      <trkpt lat="-24.7201290" lon="-53.7288860">
        <ele>560.6</ele>
        <time>2018-09-15T17:21:59Z</time>
      </trkpt>
      <trkpt lat="-24.7201300" lon="-53.7288230">
        <ele>560.5</ele>
        <time>2018-09-15T17:22:00Z</time>
      </trkpt>
      <trkpt lat="-24.7201300" lon="-53.7287600">
        <ele>560.5</ele>
        <time>2018-09-15T17:22:01Z</time>
      </trkpt>
      <trkpt lat="-24.7201310" lon="-53.7286960">
        <ele>560.5</ele>
        <time>2018-09-15T17:22:02Z</time>
      </trkpt>
      <trkpt lat="-24.7201300" lon="-53.7286320">
        <ele>560.5</ele>
        <time>2018-09-15T17:22:03Z</time>
      </trkpt>
      <trkpt lat="-24.7201320" lon="-53.7285680">
        <ele>560.5</ele>
        <time>2018-09-15T17:22:04Z</time>
      </trkpt>
      <trkpt lat="-24.7201330" lon="-53.7285040">
        <ele>560.6</ele>
        <time>2018-09-15T17:22:05Z</time>
      </trkpt>
      <trkpt lat="-24.7201330" lon="-53.7284390">
        <ele>560.6</ele>
        <time>2018-09-15T17:22:06Z</time>
      </trkpt>
      <trkpt lat="-24.7201340" lon="-53.7283740">
        <ele>560.6</ele>
        <time>2018-09-15T17:22:07Z</time>
      </trkpt>
      <trkpt lat="-24.7201350" lon="-53.7283080">
        <ele>560.6</ele>
        <time>2018-09-15T17:22:08Z</time>
      </trkpt>
      <trkpt lat="-24.7201350" lon="-53.7282420">
        <ele>560.6</ele>
        <time>2018-09-15T17:22:09Z</time>
      </trkpt>
      <trkpt lat="-24.7201360" lon="-53.7281760">
        <ele>560.6</ele>
        <time>2018-09-15T17:22:10Z</time>
      </trkpt>
      <trkpt lat="-24.7201370" lon="-53.7281090">
        <ele>560.7</ele>
        <time>2018-09-15T17:22:11Z</time>
      </trkpt>
      <trkpt lat="-24.7201380" lon="-53.7280420">
        <ele>560.7</ele>
        <time>2018-09-15T17:22:12Z</time>
      </trkpt>
      <trkpt lat="-24.7201380" lon="-53.7279750">
        <ele>560.7</ele>
        <time>2018-09-15T17:22:13Z</time>
      </trkpt>
      <trkpt lat="-24.7201390" lon="-53.7279080">
        <ele>560.8</ele>
        <time>2018-09-15T17:22:14Z</time>
      </trkpt>
      <trkpt lat="-24.7201390" lon="-53.7278420">
        <ele>560.8</ele>
        <time>2018-09-15T17:22:15Z</time>
      </trkpt>
      <trkpt lat="-24.7201400" lon="-53.7277760">
        <ele>560.8</ele>
        <time>2018-09-15T17:22:16Z</time>
      </trkpt>
      <trkpt lat="-24.7201430" lon="-53.7277100">
        <ele>560.9</ele>
        <time>2018-09-15T17:22:17Z</time>
      </trkpt>
      <trkpt lat="-24.7201460" lon="-53.7276450">
        <ele>560.9</ele>
        <time>2018-09-15T17:22:18Z</time>
      </trkpt>
      <trkpt lat="-24.7201480" lon="-53.7275810">
        <ele>561.0</ele>
        <time>2018-09-15T17:22:19Z</time>
      </trkpt>
      <trkpt lat="-24.7201480" lon="-53.7275160">
        <ele>561.0</ele>
        <time>2018-09-15T17:22:20Z</time>
      </trkpt>
      <trkpt lat="-24.7201480" lon="-53.7274530">
        <ele>559.1</ele>
        <time>2018-09-15T17:22:21Z</time>
      </trkpt>
      <trkpt lat="-24.7201500" lon="-53.7273900">
        <ele>558.1</ele>
        <time>2018-09-15T17:22:22Z</time>
      </trkpt>
      <trkpt lat="-24.7201500" lon="-53.7273280">
        <ele>558.0</ele>
        <time>2018-09-15T17:22:23Z</time>
      </trkpt>
      <trkpt lat="-24.7201500" lon="-53.7272650">
        <ele>558.0</ele>
        <time>2018-09-15T17:22:24Z</time>
      </trkpt>
      <trkpt lat="-24.7201480" lon="-53.7272010">
        <ele>558.1</ele>
        <time>2018-09-15T17:22:25Z</time>
      </trkpt>
      <trkpt lat="-24.7201480" lon="-53.7271360">
        <ele>558.1</ele>
        <time>2018-09-15T17:22:26Z</time>
      </trkpt>
      <trkpt lat="-24.7201490" lon="-53.7270710">
        <ele>558.1</ele>
        <time>2018-09-15T17:22:27Z</time>
      </trkpt>
      <trkpt lat="-24.7201490" lon="-53.7270050">
        <ele>558.2</ele>
        <time>2018-09-15T17:22:28Z</time>
      </trkpt>
      <trkpt lat="-24.7201500" lon="-53.7269410">
        <ele>558.2</ele>
        <time>2018-09-15T17:22:29Z</time>
      </trkpt>
      <trkpt lat="-24.7201500" lon="-53.7268750">
        <ele>558.3</ele>
        <time>2018-09-15T17:22:30Z</time>
      </trkpt>
      <trkpt lat="-24.7201510" lon="-53.7268100">
        <ele>558.3</ele>
        <time>2018-09-15T17:22:31Z</time>
      </trkpt>
      <trkpt lat="-24.7201510" lon="-53.7267440">
        <ele>558.4</ele>
        <time>2018-09-15T17:22:32Z</time>
      </trkpt>
      <trkpt lat="-24.7201520" lon="-53.7266770">
        <ele>558.4</ele>
        <time>2018-09-15T17:22:33Z</time>
      </trkpt>
      <trkpt lat="-24.7201540" lon="-53.7266110">
        <ele>558.4</ele>
        <time>2018-09-15T17:22:34Z</time>
      </trkpt>
      <trkpt lat="-24.7201560" lon="-53.7265460">
        <ele>558.5</ele>
        <time>2018-09-15T17:22:35Z</time>
      </trkpt>
      <trkpt lat="-24.7201570" lon="-53.7264800">
        <ele>558.5</ele>
        <time>2018-09-15T17:22:36Z</time>
      </trkpt>
      <trkpt lat="-24.7201580" lon="-53.7264140">
        <ele>558.6</ele>
        <time>2018-09-15T17:22:37Z</time>
      </trkpt>
      <trkpt lat="-24.7201590" lon="-53.7263480">
        <ele>558.8</ele>
        <time>2018-09-15T17:22:38Z</time>
      </trkpt>
      <trkpt lat="-24.7201610" lon="-53.7262840">
        <ele>558.9</ele>
        <time>2018-09-15T17:22:39Z</time>
      </trkpt>
      <trkpt lat="-24.7201610" lon="-53.7262190">
        <ele>559.1</ele>
        <time>2018-09-15T17:22:40Z</time>
      </trkpt>
      <trkpt lat="-24.7201600" lon="-53.7261530">
        <ele>559.3</ele>
        <time>2018-09-15T17:22:41Z</time>
      </trkpt>
      <trkpt lat="-24.7201610" lon="-53.7260890">
        <ele>559.6</ele>
        <time>2018-09-15T17:22:42Z</time>
      </trkpt>
      <trkpt lat="-24.7201610" lon="-53.7260260">
        <ele>559.9</ele>
        <time>2018-09-15T17:22:43Z</time>
      </trkpt>
      <trkpt lat="-24.7201620" lon="-53.7259630">
        <ele>560.2</ele>
        <time>2018-09-15T17:22:44Z</time>
      </trkpt>
      <trkpt lat="-24.7201630" lon="-53.7259000">
        <ele>560.5</ele>
        <time>2018-09-15T17:22:45Z</time>
      </trkpt>
      <trkpt lat="-24.7201640" lon="-53.7258370">
        <ele>560.9</ele>
        <time>2018-09-15T17:22:46Z</time>
      </trkpt>
      <trkpt lat="-24.7201640" lon="-53.7257740">
        <ele>561.0</ele>
        <time>2018-09-15T17:22:47Z</time>
      </trkpt>
      <trkpt lat="-24.7201630" lon="-53.7257100">
        <ele>561.0</ele>
        <time>2018-09-15T17:22:48Z</time>
      </trkpt>
      <trkpt lat="-24.7201660" lon="-53.7256470">
        <ele>561.0</ele>
        <time>2018-09-15T17:22:49Z</time>
      </trkpt>
      <trkpt lat="-24.7201690" lon="-53.7255850">
        <ele>561.0</ele>
        <time>2018-09-15T17:22:50Z</time>
      </trkpt>
      <trkpt lat="-24.7201690" lon="-53.7255230">
        <ele>561.0</ele>
        <time>2018-09-15T17:22:51Z</time>
      </trkpt>
      <trkpt lat="-24.7201690" lon="-53.7254610">
        <ele>561.0</ele>
        <time>2018-09-15T17:22:52Z</time>
      </trkpt>
      <trkpt lat="-24.7201680" lon="-53.7254010">
        <ele>560.9</ele>
        <time>2018-09-15T17:22:53Z</time>
      </trkpt>
      <trkpt lat="-24.7201690" lon="-53.7253410">
        <ele>560.8</ele>
        <time>2018-09-15T17:22:54Z</time>
      </trkpt>
      <trkpt lat="-24.7201690" lon="-53.7252800">
        <ele>560.8</ele>
        <time>2018-09-15T17:22:55Z</time>
      </trkpt>
      <trkpt lat="-24.7201720" lon="-53.7252170">
        <ele>560.7</ele>
        <time>2018-09-15T17:22:56Z</time>
      </trkpt>
      <trkpt lat="-24.7201700" lon="-53.7251540">
        <ele>560.7</ele>
        <time>2018-09-15T17:22:57Z</time>
      </trkpt>
      <trkpt lat="-24.7201680" lon="-53.7250920">
        <ele>560.6</ele>
        <time>2018-09-15T17:22:58Z</time>
      </trkpt>
      <trkpt lat="-24.7201690" lon="-53.7250290">
        <ele>560.6</ele>
        <time>2018-09-15T17:22:59Z</time>
      </trkpt>
      <trkpt lat="-24.7201690" lon="-53.7249690">
        <ele>560.5</ele>
        <time>2018-09-15T17:23:00Z</time>
      </trkpt>
      <trkpt lat="-24.7201710" lon="-53.7249090">
        <ele>560.5</ele>
        <time>2018-09-15T17:23:01Z</time>
      </trkpt>
      <trkpt lat="-24.7201730" lon="-53.7248480">
        <ele>560.4</ele>
        <time>2018-09-15T17:23:02Z</time>
      </trkpt>
      <trkpt lat="-24.7201740" lon="-53.7247880">
        <ele>560.4</ele>
        <time>2018-09-15T17:23:03Z</time>
      </trkpt>
      <trkpt lat="-24.7201740" lon="-53.7247290">
        <ele>560.3</ele>
        <time>2018-09-15T17:23:04Z</time>
      </trkpt>
      <trkpt lat="-24.7201740" lon="-53.7246690">
        <ele>560.3</ele>
        <time>2018-09-15T17:23:05Z</time>
      </trkpt>
      <trkpt lat="-24.7201750" lon="-53.7246090">
        <ele>560.2</ele>
        <time>2018-09-15T17:23:06Z</time>
      </trkpt>
      <trkpt lat="-24.7201760" lon="-53.7245510">
        <ele>560.2</ele>
        <time>2018-09-15T17:23:07Z</time>
      </trkpt>
      <trkpt lat="-24.7201760" lon="-53.7244930">
        <ele>560.1</ele>
        <time>2018-09-15T17:23:08Z</time>
      </trkpt>
      <trkpt lat="-24.7201750" lon="-53.7244380">
        <ele>560.1</ele>
        <time>2018-09-15T17:23:09Z</time>
      </trkpt>
      <trkpt lat="-24.7201740" lon="-53.7243810">
        <ele>560.0</ele>
        <time>2018-09-15T17:23:10Z</time>
      </trkpt>
      <trkpt lat="-24.7201730" lon="-53.7243280">
        <ele>560.0</ele>
        <time>2018-09-15T17:23:11Z</time>
      </trkpt>
      <trkpt lat="-24.7201740" lon="-53.7242750">
        <ele>560.1</ele>
        <time>2018-09-15T17:23:12Z</time>
      </trkpt>
      <trkpt lat="-24.7201750" lon="-53.7242230">
        <ele>560.3</ele>
        <time>2018-09-15T17:23:13Z</time>
      </trkpt>
      <trkpt lat="-24.7201770" lon="-53.7241720">
        <ele>560.4</ele>
        <time>2018-09-15T17:23:14Z</time>
      </trkpt>
      <trkpt lat="-24.7201780" lon="-53.7241210">
        <ele>560.5</ele>
        <time>2018-09-15T17:23:15Z</time>
      </trkpt>
      <trkpt lat="-24.7201770" lon="-53.7240710">
        <ele>560.6</ele>
        <time>2018-09-15T17:23:16Z</time>
      </trkpt>
      <trkpt lat="-24.7201790" lon="-53.7240190">
        <ele>560.9</ele>
        <time>2018-09-15T17:23:17Z</time>
      </trkpt>
      <trkpt lat="-24.7201810" lon="-53.7239670">
        <ele>561.1</ele>
        <time>2018-09-15T17:23:18Z</time>
      </trkpt>
      <trkpt lat="-24.7201840" lon="-53.7239150">
        <ele>561.3</ele>
        <time>2018-09-15T17:23:19Z</time>
      </trkpt>
      <trkpt lat="-24.7201850" lon="-53.7238630">
        <ele>561.5</ele>
        <time>2018-09-15T17:23:20Z</time>
      </trkpt>
      <trkpt lat="-24.7201850" lon="-53.7238120">
        <ele>561.6</ele>
        <time>2018-09-15T17:23:21Z</time>
      </trkpt>
      <trkpt lat="-24.7201860" lon="-53.7237580">
        <ele>561.7</ele>
        <time>2018-09-15T17:23:22Z</time>
      </trkpt>
      <trkpt lat="-24.7201850" lon="-53.7237050">
        <ele>561.7</ele>
        <time>2018-09-15T17:23:23Z</time>
      </trkpt>
      <trkpt lat="-24.7201850" lon="-53.7236510">
        <ele>561.8</ele>
        <time>2018-09-15T17:23:24Z</time>
      </trkpt>
      <trkpt lat="-24.7201830" lon="-53.7236000">
        <ele>561.8</ele>
        <time>2018-09-15T17:23:25Z</time>
      </trkpt>
      <trkpt lat="-24.7201850" lon="-53.7235450">
        <ele>561.8</ele>
        <time>2018-09-15T17:23:26Z</time>
      </trkpt>
      <trkpt lat="-24.7201870" lon="-53.7234920">
        <ele>561.9</ele>
        <time>2018-09-15T17:23:27Z</time>
      </trkpt>
      <trkpt lat="-24.7201890" lon="-53.7233870">
        <ele>561.9</ele>
        <time>2018-09-15T17:23:28Z</time>
      </trkpt>
      <trkpt lat="-24.7201870" lon="-53.7232830">
        <ele>562.0</ele>
        <time>2018-09-15T17:23:30Z</time>
      </trkpt>
      <trkpt lat="-24.7201870" lon="-53.7232320">
        <ele>562.0</ele>
        <time>2018-09-15T17:23:31Z</time>
      </trkpt>
      <trkpt lat="-24.7201880" lon="-53.7231830">
        <ele>562.0</ele>
        <time>2018-09-15T17:23:32Z</time>
      </trkpt>
      <trkpt lat="-24.7201880" lon="-53.7231330">
        <ele>562.1</ele>
        <time>2018-09-15T17:23:33Z</time>
      </trkpt>
      <trkpt lat="-24.7201890" lon="-53.7230810">
        <ele>562.3</ele>
        <time>2018-09-15T17:23:34Z</time>
      </trkpt>
      <trkpt lat="-24.7201890" lon="-53.7230300">
        <ele>562.6</ele>
        <time>2018-09-15T17:23:35Z</time>
      </trkpt>
      <trkpt lat="-24.7201900" lon="-53.7229790">
        <ele>562.8</ele>
        <time>2018-09-15T17:23:36Z</time>
      </trkpt>
      <trkpt lat="-24.7201890" lon="-53.7229280">
        <ele>563.0</ele>
        <time>2018-09-15T17:23:37Z</time>
      </trkpt>
      <trkpt lat="-24.7201910" lon="-53.7228760">
        <ele>563.1</ele>
        <time>2018-09-15T17:23:38Z</time>
      </trkpt>
      <trkpt lat="-24.7201930" lon="-53.7228250">
        <ele>563.2</ele>
        <time>2018-09-15T17:23:39Z</time>
      </trkpt>
      <trkpt lat="-24.7201940" lon="-53.7227740">
        <ele>563.3</ele>
        <time>2018-09-15T17:23:40Z</time>
      </trkpt>
      <trkpt lat="-24.7201950" lon="-53.7227220">
        <ele>563.2</ele>
        <time>2018-09-15T17:23:41Z</time>
      </trkpt>
      <trkpt lat="-24.7201960" lon="-53.7226700">
        <ele>563.0</ele>
        <time>2018-09-15T17:23:42Z</time>
      </trkpt>
      <trkpt lat="-24.7201980" lon="-53.7226170">
        <ele>562.8</ele>
        <time>2018-09-15T17:23:43Z</time>
      </trkpt>
      <trkpt lat="-24.7201990" lon="-53.7225640">
        <ele>562.7</ele>
        <time>2018-09-15T17:23:44Z</time>
      </trkpt>
      <trkpt lat="-24.7202010" lon="-53.7225130">
        <ele>562.6</ele>
        <time>2018-09-15T17:23:45Z</time>
      </trkpt>
      <trkpt lat="-24.7202010" lon="-53.7224620">
        <ele>562.5</ele>
        <time>2018-09-15T17:23:46Z</time>
      </trkpt>
      <trkpt lat="-24.7202030" lon="-53.7224080">
        <ele>562.4</ele>
        <time>2018-09-15T17:23:47Z</time>
      </trkpt>
      <trkpt lat="-24.7202030" lon="-53.7223560">
        <ele>562.3</ele>
        <time>2018-09-15T17:23:48Z</time>
      </trkpt>
      <trkpt lat="-24.7202040" lon="-53.7222480">
        <ele>562.1</ele>
        <time>2018-09-15T17:23:50Z</time>
      </trkpt>
      <trkpt lat="-24.7202050" lon="-53.7221940">
        <ele>562.0</ele>
        <time>2018-09-15T17:23:51Z</time>
      </trkpt>
      <trkpt lat="-24.7202050" lon="-53.7221390">
        <ele>562.0</ele>
        <time>2018-09-15T17:23:52Z</time>
      </trkpt>
      <trkpt lat="-24.7202040" lon="-53.7220840">
        <ele>562.0</ele>
        <time>2018-09-15T17:23:53Z</time>
      </trkpt>
      <trkpt lat="-24.7202060" lon="-53.7220290">
        <ele>562.0</ele>
        <time>2018-09-15T17:23:54Z</time>
      </trkpt>
      <trkpt lat="-24.7202060" lon="-53.7219720">
        <ele>562.0</ele>
        <time>2018-09-15T17:23:55Z</time>
      </trkpt>
      <trkpt lat="-24.7202060" lon="-53.7219160">
        <ele>562.0</ele>
        <time>2018-09-15T17:23:56Z</time>
      </trkpt>
      <trkpt lat="-24.7202060" lon="-53.7218590">
        <ele>562.1</ele>
        <time>2018-09-15T17:23:57Z</time>
      </trkpt>
      <trkpt lat="-24.7202060" lon="-53.7218030">
        <ele>562.1</ele>
        <time>2018-09-15T17:23:58Z</time>
      </trkpt>
      <trkpt lat="-24.7202050" lon="-53.7217450">
        <ele>562.2</ele>
        <time>2018-09-15T17:23:59Z</time>
      </trkpt>
      <trkpt lat="-24.7202050" lon="-53.7216860">
        <ele>562.2</ele>
        <time>2018-09-15T17:24:00Z</time>
      </trkpt>
      <trkpt lat="-24.7202060" lon="-53.7216260">
        <ele>562.3</ele>
        <time>2018-09-15T17:24:01Z</time>
      </trkpt>
      <trkpt lat="-24.7202070" lon="-53.7215660">
        <ele>562.3</ele>
        <time>2018-09-15T17:24:02Z</time>
      </trkpt>
      <trkpt lat="-24.7202080" lon="-53.7215040">
        <ele>562.3</ele>
        <time>2018-09-15T17:24:03Z</time>
      </trkpt>
      <trkpt lat="-24.7202080" lon="-53.7214430">
        <ele>562.4</ele>
        <time>2018-09-15T17:24:04Z</time>
      </trkpt>
      <trkpt lat="-24.7202090" lon="-53.7213820">
        <ele>562.4</ele>
        <time>2018-09-15T17:24:05Z</time>
      </trkpt>
      <trkpt lat="-24.7202100" lon="-53.7213200">
        <ele>562.5</ele>
        <time>2018-09-15T17:24:06Z</time>
      </trkpt>
      <trkpt lat="-24.7202110" lon="-53.7212590">
        <ele>562.6</ele>
        <time>2018-09-15T17:24:07Z</time>
      </trkpt>
      <trkpt lat="-24.7202110" lon="-53.7211990">
        <ele>562.6</ele>
        <time>2018-09-15T17:24:08Z</time>
      </trkpt>
      <trkpt lat="-24.7202100" lon="-53.7211380">
        <ele>562.7</ele>
        <time>2018-09-15T17:24:09Z</time>
      </trkpt>
      <trkpt lat="-24.7202130" lon="-53.7210780">
        <ele>562.8</ele>
        <time>2018-09-15T17:24:10Z</time>
      </trkpt>
      <trkpt lat="-24.7202170" lon="-53.7210150">
        <ele>562.9</ele>
        <time>2018-09-15T17:24:11Z</time>
      </trkpt>
      <trkpt lat="-24.7202180" lon="-53.7209530">
        <ele>563.0</ele>
        <time>2018-09-15T17:24:12Z</time>
      </trkpt>
      <trkpt lat="-24.7202200" lon="-53.7208910">
        <ele>562.7</ele>
        <time>2018-09-15T17:24:13Z</time>
      </trkpt>
      <trkpt lat="-24.7202190" lon="-53.7208290">
        <ele>562.5</ele>
        <time>2018-09-15T17:24:14Z</time>
      </trkpt>
      <trkpt lat="-24.7202200" lon="-53.7207660">
        <ele>562.3</ele>
        <time>2018-09-15T17:24:15Z</time>
      </trkpt>
      <trkpt lat="-24.7202210" lon="-53.7207030">
        <ele>562.0</ele>
        <time>2018-09-15T17:24:16Z</time>
      </trkpt>
      <trkpt lat="-24.7202180" lon="-53.7206390">
        <ele>561.9</ele>
        <time>2018-09-15T17:24:17Z</time>
      </trkpt>
      <trkpt lat="-24.7202160" lon="-53.7205740">
        <ele>561.8</ele>
        <time>2018-09-15T17:24:18Z</time>
      </trkpt>
      <trkpt lat="-24.7202160" lon="-53.7205070">
        <ele>561.8</ele>
        <time>2018-09-15T17:24:19Z</time>
      </trkpt>
      <trkpt lat="-24.7202160" lon="-53.7204410">
        <ele>561.7</ele>
        <time>2018-09-15T17:24:20Z</time>
      </trkpt>
      <trkpt lat="-24.7202170" lon="-53.7203750">
        <ele>561.6</ele>
        <time>2018-09-15T17:24:21Z</time>
      </trkpt>
      <trkpt lat="-24.7202180" lon="-53.7203070">
        <ele>561.6</ele>
        <time>2018-09-15T17:24:22Z</time>
      </trkpt>
      <trkpt lat="-24.7202180" lon="-53.7203070">
        <ele>561.6</ele>
        <time>2018-09-15T17:24:23Z</time>
      </trkpt>
      <trkpt lat="-24.7202190" lon="-53.7202410">
        <ele>561.5</ele>
        <time>2018-09-15T17:24:24Z</time>
      </trkpt>
      <trkpt lat="-24.7202180" lon="-53.7201740">
        <ele>561.5</ele>
        <time>2018-09-15T17:24:25Z</time>
      </trkpt>
      <trkpt lat="-24.7202180" lon="-53.7201060">
        <ele>561.4</ele>
        <time>2018-09-15T17:24:26Z</time>
      </trkpt>
      <trkpt lat="-24.7202180" lon="-53.7200370">
        <ele>561.4</ele>
        <time>2018-09-15T17:24:27Z</time>
      </trkpt>
      <trkpt lat="-24.7202210" lon="-53.7199690">
        <ele>561.3</ele>
        <time>2018-09-15T17:24:28Z</time>
      </trkpt>
      <trkpt lat="-24.7202220" lon="-53.7199010">
        <ele>561.3</ele>
        <time>2018-09-15T17:24:29Z</time>
      </trkpt>
      <trkpt lat="-24.7202230" lon="-53.7198310">
        <ele>561.2</ele>
        <time>2018-09-15T17:24:30Z</time>
      </trkpt>
      <trkpt lat="-24.7202230" lon="-53.7197610">
        <ele>561.1</ele>
        <time>2018-09-15T17:24:31Z</time>
      </trkpt>
      <trkpt lat="-24.7202230" lon="-53.7196920">
        <ele>561.1</ele>
        <time>2018-09-15T17:24:32Z</time>
      </trkpt>
      <trkpt lat="-24.7202240" lon="-53.7196230">
        <ele>561.0</ele>
        <time>2018-09-15T17:24:33Z</time>
      </trkpt>
      <trkpt lat="-24.7202240" lon="-53.7195530">
        <ele>561.0</ele>
        <time>2018-09-15T17:24:34Z</time>
      </trkpt>
      <trkpt lat="-24.7202230" lon="-53.7194850">
        <ele>560.9</ele>
        <time>2018-09-15T17:24:35Z</time>
      </trkpt>
      <trkpt lat="-24.7202230" lon="-53.7194160">
        <ele>560.9</ele>
        <time>2018-09-15T17:24:36Z</time>
      </trkpt>
      <trkpt lat="-24.7202240" lon="-53.7193470">
        <ele>560.8</ele>
        <time>2018-09-15T17:24:37Z</time>
      </trkpt>
      <trkpt lat="-24.7202270" lon="-53.7192770">
        <ele>560.8</ele>
        <time>2018-09-15T17:24:38Z</time>
      </trkpt>
      <trkpt lat="-24.7202280" lon="-53.7192070">
        <ele>560.7</ele>
        <time>2018-09-15T17:24:39Z</time>
      </trkpt>
      <trkpt lat="-24.7202300" lon="-53.7191360">
        <ele>560.7</ele>
        <time>2018-09-15T17:24:40Z</time>
      </trkpt>
      <trkpt lat="-24.7202290" lon="-53.7190650">
        <ele>560.6</ele>
        <time>2018-09-15T17:24:41Z</time>
      </trkpt>
      <trkpt lat="-24.7202300" lon="-53.7189950">
        <ele>560.6</ele>
        <time>2018-09-15T17:24:42Z</time>
      </trkpt>
      <trkpt lat="-24.7202320" lon="-53.7189240">
        <ele>560.5</ele>
        <time>2018-09-15T17:24:43Z</time>
      </trkpt>
      <trkpt lat="-24.7202320" lon="-53.7188540">
        <ele>560.4</ele>
        <time>2018-09-15T17:24:44Z</time>
      </trkpt>
      <trkpt lat="-24.7202310" lon="-53.7187840">
        <ele>560.4</ele>
        <time>2018-09-15T17:24:45Z</time>
      </trkpt>
      <trkpt lat="-24.7202310" lon="-53.7187140">
        <ele>560.3</ele>
        <time>2018-09-15T17:24:46Z</time>
      </trkpt>
      <trkpt lat="-24.7202310" lon="-53.7186450">
        <ele>560.2</ele>
        <time>2018-09-15T17:24:47Z</time>
      </trkpt>
      <trkpt lat="-24.7202320" lon="-53.7185760">
        <ele>560.1</ele>
        <time>2018-09-15T17:24:48Z</time>
      </trkpt>
      <trkpt lat="-24.7202340" lon="-53.7185090">
        <ele>560.1</ele>
        <time>2018-09-15T17:24:49Z</time>
      </trkpt>
      <trkpt lat="-24.7202350" lon="-53.7184420">
        <ele>560.0</ele>
        <time>2018-09-15T17:24:50Z</time>
      </trkpt>
      <trkpt lat="-24.7202360" lon="-53.7183740">
        <ele>560.2</ele>
        <time>2018-09-15T17:24:51Z</time>
      </trkpt>
      <trkpt lat="-24.7202380" lon="-53.7183060">
        <ele>560.2</ele>
        <time>2018-09-15T17:24:52Z</time>
      </trkpt>
      <trkpt lat="-24.7202390" lon="-53.7182370">
        <ele>560.2</ele>
        <time>2018-09-15T17:24:53Z</time>
      </trkpt>
      <trkpt lat="-24.7202410" lon="-53.7181680">
        <ele>560.2</ele>
        <time>2018-09-15T17:24:54Z</time>
      </trkpt>
      <trkpt lat="-24.7202420" lon="-53.7180990">
        <ele>560.3</ele>
        <time>2018-09-15T17:24:55Z</time>
      </trkpt>
      <trkpt lat="-24.7202440" lon="-53.7180330">
        <ele>560.3</ele>
        <time>2018-09-15T17:24:56Z</time>
      </trkpt>
      <trkpt lat="-24.7202470" lon="-53.7179650">
        <ele>560.4</ele>
        <time>2018-09-15T17:24:57Z</time>
      </trkpt>
      <trkpt lat="-24.7202470" lon="-53.7179000">
        <ele>560.5</ele>
        <time>2018-09-15T17:24:58Z</time>
      </trkpt>
      <trkpt lat="-24.7202490" lon="-53.7178360">
        <ele>560.6</ele>
        <time>2018-09-15T17:24:59Z</time>
      </trkpt>
      <trkpt lat="-24.7202500" lon="-53.7177720">
        <ele>560.7</ele>
        <time>2018-09-15T17:25:00Z</time>
      </trkpt>
      <trkpt lat="-24.7202470" lon="-53.7177090">
        <ele>560.6</ele>
        <time>2018-09-15T17:25:01Z</time>
      </trkpt>
      <trkpt lat="-24.7202480" lon="-53.7176460">
        <ele>560.3</ele>
        <time>2018-09-15T17:25:02Z</time>
      </trkpt>
      <trkpt lat="-24.7202480" lon="-53.7175860">
        <ele>559.9</ele>
        <time>2018-09-15T17:25:03Z</time>
      </trkpt>
      <trkpt lat="-24.7202500" lon="-53.7175260">
        <ele>559.8</ele>
        <time>2018-09-15T17:25:04Z</time>
      </trkpt>
      <trkpt lat="-24.7202510" lon="-53.7174670">
        <ele>559.8</ele>
        <time>2018-09-15T17:25:05Z</time>
      </trkpt>
      <trkpt lat="-24.7202520" lon="-53.7174100">
        <ele>559.9</ele>
        <time>2018-09-15T17:25:06Z</time>
      </trkpt>
      <trkpt lat="-24.7202510" lon="-53.7173500">
        <ele>560.0</ele>
        <time>2018-09-15T17:25:07Z</time>
      </trkpt>
      <trkpt lat="-24.7202500" lon="-53.7172900">
        <ele>560.0</ele>
        <time>2018-09-15T17:25:08Z</time>
      </trkpt>
      <trkpt lat="-24.7202510" lon="-53.7172300">
        <ele>560.1</ele>
        <time>2018-09-15T17:25:09Z</time>
      </trkpt>
      <trkpt lat="-24.7202530" lon="-53.7171680">
        <ele>560.2</ele>
        <time>2018-09-15T17:25:10Z</time>
      </trkpt>
      <trkpt lat="-24.7202540" lon="-53.7171080">
        <ele>560.4</ele>
        <time>2018-09-15T17:25:11Z</time>
      </trkpt>
      <trkpt lat="-24.7202550" lon="-53.7170460">
        <ele>560.5</ele>
        <time>2018-09-15T17:25:12Z</time>
      </trkpt>
      <trkpt lat="-24.7202560" lon="-53.7169850">
        <ele>560.6</ele>
        <time>2018-09-15T17:25:13Z</time>
      </trkpt>
      <trkpt lat="-24.7202590" lon="-53.7169220">
        <ele>560.7</ele>
        <time>2018-09-15T17:25:14Z</time>
      </trkpt>
      <trkpt lat="-24.7202600" lon="-53.7168600">
        <ele>560.8</ele>
        <time>2018-09-15T17:25:15Z</time>
      </trkpt>
      <trkpt lat="-24.7202640" lon="-53.7167950">
        <ele>560.9</ele>
        <time>2018-09-15T17:25:16Z</time>
      </trkpt>
      <trkpt lat="-24.7202650" lon="-53.7167320">
        <ele>560.9</ele>
        <time>2018-09-15T17:25:17Z</time>
      </trkpt>
      <trkpt lat="-24.7202660" lon="-53.7166690">
        <ele>561.0</ele>
        <time>2018-09-15T17:25:18Z</time>
      </trkpt>
      <trkpt lat="-24.7202670" lon="-53.7166090">
        <ele>561.1</ele>
        <time>2018-09-15T17:25:19Z</time>
      </trkpt>
      <trkpt lat="-24.7202670" lon="-53.7165470">
        <ele>561.2</ele>
        <time>2018-09-15T17:25:20Z</time>
      </trkpt>
      <trkpt lat="-24.7202670" lon="-53.7164850">
        <ele>561.3</ele>
        <time>2018-09-15T17:25:21Z</time>
      </trkpt>
      <trkpt lat="-24.7202660" lon="-53.7164240">
        <ele>561.4</ele>
        <time>2018-09-15T17:25:22Z</time>
      </trkpt>
      <trkpt lat="-24.7202660" lon="-53.7163640">
        <ele>561.5</ele>
        <time>2018-09-15T17:25:23Z</time>
      </trkpt>
      <trkpt lat="-24.7202650" lon="-53.7163100">
        <ele>561.6</ele>
        <time>2018-09-15T17:25:24Z</time>
      </trkpt>
      <trkpt lat="-24.7202650" lon="-53.7162680">
        <ele>561.7</ele>
        <time>2018-09-15T17:25:25Z</time>
      </trkpt>
      <trkpt lat="-24.7202650" lon="-53.7162340">
        <ele>561.8</ele>
        <time>2018-09-15T17:25:26Z</time>
      </trkpt>
      <trkpt lat="-24.7202650" lon="-53.7162010">
        <ele>561.8</ele>
        <time>2018-09-15T17:25:27Z</time>
      </trkpt>
      <trkpt lat="-24.7202640" lon="-53.7161660">
        <ele>561.9</ele>
        <time>2018-09-15T17:25:28Z</time>
      </trkpt>
      <trkpt lat="-24.7202650" lon="-53.7161280">
        <ele>562.0</ele>
        <time>2018-09-15T17:25:29Z</time>
      </trkpt>
      <trkpt lat="-24.7202710" lon="-53.7160870">
        <ele>562.0</ele>
        <time>2018-09-15T17:25:30Z</time>
      </trkpt>
      <trkpt lat="-24.7202790" lon="-53.7160440">
        <ele>562.0</ele>
        <time>2018-09-15T17:25:31Z</time>
      </trkpt>
      <trkpt lat="-24.7202840" lon="-53.7160020">
        <ele>562.0</ele>
        <time>2018-09-15T17:25:32Z</time>
      </trkpt>
      <trkpt lat="-24.7202830" lon="-53.7159580">
        <ele>562.0</ele>
        <time>2018-09-15T17:25:33Z</time>
      </trkpt>
      <trkpt lat="-24.7202730" lon="-53.7159140">
        <ele>561.8</ele>
        <time>2018-09-15T17:25:34Z</time>
      </trkpt>
      <trkpt lat="-24.7202550" lon="-53.7158730">
        <ele>561.6</ele>
        <time>2018-09-15T17:25:35Z</time>
      </trkpt>
      <trkpt lat="-24.7202380" lon="-53.7158330">
        <ele>561.3</ele>
        <time>2018-09-15T17:25:36Z</time>
      </trkpt>
      <trkpt lat="-24.7202210" lon="-53.7157900">
        <ele>561.1</ele>
        <time>2018-09-15T17:25:37Z</time>
      </trkpt>
      <trkpt lat="-24.7202000" lon="-53.7157460">
        <ele>561.0</ele>
        <time>2018-09-15T17:25:38Z</time>
      </trkpt>
      <trkpt lat="-24.7201770" lon="-53.7157030">
        <ele>561.0</ele>
        <time>2018-09-15T17:25:39Z</time>
      </trkpt>
      <trkpt lat="-24.7201520" lon="-53.7156600">
        <ele>561.0</ele>
        <time>2018-09-15T17:25:40Z</time>
      </trkpt>
      <trkpt lat="-24.7201260" lon="-53.7156180">
        <ele>561.0</ele>
        <time>2018-09-15T17:25:41Z</time>
      </trkpt>
      <trkpt lat="-24.7201010" lon="-53.7155750">
        <ele>561.1</ele>
        <time>2018-09-15T17:25:42Z</time>
      </trkpt>
      <trkpt lat="-24.7200750" lon="-53.7155320">
        <ele>561.1</ele>
        <time>2018-09-15T17:25:43Z</time>
      </trkpt>
      <trkpt lat="-24.7200480" lon="-53.7154900">
        <ele>561.1</ele>
        <time>2018-09-15T17:25:44Z</time>
      </trkpt>
      <trkpt lat="-24.7200220" lon="-53.7154470">
        <ele>561.2</ele>
        <time>2018-09-15T17:25:45Z</time>
      </trkpt>
      <trkpt lat="-24.7199970" lon="-53.7154050">
        <ele>561.3</ele>
        <time>2018-09-15T17:25:46Z</time>
      </trkpt>
      <trkpt lat="-24.7199710" lon="-53.7153630">
        <ele>561.4</ele>
        <time>2018-09-15T17:25:47Z</time>
      </trkpt>
      <trkpt lat="-24.7199470" lon="-53.7153210">
        <ele>561.5</ele>
        <time>2018-09-15T17:25:48Z</time>
      </trkpt>
      <trkpt lat="-24.7199240" lon="-53.7152780">
        <ele>561.6</ele>
        <time>2018-09-15T17:25:49Z</time>
      </trkpt>
      <trkpt lat="-24.7199000" lon="-53.7152360">
        <ele>561.7</ele>
        <time>2018-09-15T17:25:50Z</time>
      </trkpt>
      <trkpt lat="-24.7198770" lon="-53.7151940">
        <ele>561.8</ele>
        <time>2018-09-15T17:25:51Z</time>
      </trkpt>
      <trkpt lat="-24.7198540" lon="-53.7151510">
        <ele>561.8</ele>
        <time>2018-09-15T17:25:52Z</time>
      </trkpt>
      <trkpt lat="-24.7198330" lon="-53.7151070">
        <ele>561.9</ele>
        <time>2018-09-15T17:25:53Z</time>
      </trkpt>
      <trkpt lat="-24.7198130" lon="-53.7150610">
        <ele>561.9</ele>
        <time>2018-09-15T17:25:54Z</time>
      </trkpt>
      <trkpt lat="-24.7197910" lon="-53.7150160">
        <ele>561.9</ele>
        <time>2018-09-15T17:25:55Z</time>
      </trkpt>
      <trkpt lat="-24.7197690" lon="-53.7149720">
        <ele>561.9</ele>
        <time>2018-09-15T17:25:56Z</time>
      </trkpt>
      <trkpt lat="-24.7197480" lon="-53.7149290">
        <ele>562.0</ele>
        <time>2018-09-15T17:25:57Z</time>
      </trkpt>
      <trkpt lat="-24.7197280" lon="-53.7148850">
        <ele>562.0</ele>
        <time>2018-09-15T17:25:58Z</time>
      </trkpt>
      <trkpt lat="-24.7197070" lon="-53.7148420">
        <ele>562.0</ele>
        <time>2018-09-15T17:25:59Z</time>
      </trkpt>
      <trkpt lat="-24.7196860" lon="-53.7147990">
        <ele>562.0</ele>
        <time>2018-09-15T17:26:00Z</time>
      </trkpt>
      <trkpt lat="-24.7196650" lon="-53.7147530">
        <ele>562.0</ele>
        <time>2018-09-15T17:26:01Z</time>
      </trkpt>
      <trkpt lat="-24.7196420" lon="-53.7147080">
        <ele>562.1</ele>
        <time>2018-09-15T17:26:02Z</time>
      </trkpt>
      <trkpt lat="-24.7196220" lon="-53.7146630">
        <ele>562.1</ele>
        <time>2018-09-15T17:26:03Z</time>
      </trkpt>
      <trkpt lat="-24.7196010" lon="-53.7146150">
        <ele>562.2</ele>
        <time>2018-09-15T17:26:04Z</time>
      </trkpt>
      <trkpt lat="-24.7195810" lon="-53.7145680">
        <ele>562.3</ele>
        <time>2018-09-15T17:26:05Z</time>
      </trkpt>
      <trkpt lat="-24.7195600" lon="-53.7145220">
        <ele>562.4</ele>
        <time>2018-09-15T17:26:06Z</time>
      </trkpt>
      <trkpt lat="-24.7195410" lon="-53.7144760">
        <ele>562.5</ele>
        <time>2018-09-15T17:26:07Z</time>
      </trkpt>
      <trkpt lat="-24.7195200" lon="-53.7144310">
        <ele>562.7</ele>
        <time>2018-09-15T17:26:08Z</time>
      </trkpt>
      <trkpt lat="-24.7195000" lon="-53.7143870">
        <ele>562.8</ele>
        <time>2018-09-15T17:26:09Z</time>
      </trkpt>
      <trkpt lat="-24.7194800" lon="-53.7143420">
        <ele>562.9</ele>
        <time>2018-09-15T17:26:10Z</time>
      </trkpt>
      <trkpt lat="-24.7194590" lon="-53.7142970">
        <ele>563.0</ele>
        <time>2018-09-15T17:26:11Z</time>
      </trkpt>
      <trkpt lat="-24.7194390" lon="-53.7142520">
        <ele>563.1</ele>
        <time>2018-09-15T17:26:12Z</time>
      </trkpt>
      <trkpt lat="-24.7194200" lon="-53.7142100">
        <ele>563.1</ele>
        <time>2018-09-15T17:26:13Z</time>
      </trkpt>
      <trkpt lat="-24.7193980" lon="-53.7141680">
        <ele>563.2</ele>
        <time>2018-09-15T17:26:14Z</time>
      </trkpt>
      <trkpt lat="-24.7193790" lon="-53.7141260">
        <ele>563.3</ele>
        <time>2018-09-15T17:26:15Z</time>
      </trkpt>
      <trkpt lat="-24.7193610" lon="-53.7140860">
        <ele>563.3</ele>
        <time>2018-09-15T17:26:16Z</time>
      </trkpt>
      <trkpt lat="-24.7193440" lon="-53.7140440">
        <ele>563.4</ele>
        <time>2018-09-15T17:26:17Z</time>
      </trkpt>
      <trkpt lat="-24.7193250" lon="-53.7140030">
        <ele>563.4</ele>
        <time>2018-09-15T17:26:18Z</time>
      </trkpt>
      <trkpt lat="-24.7193060" lon="-53.7139630">
        <ele>563.5</ele>
        <time>2018-09-15T17:26:19Z</time>
      </trkpt>
      <trkpt lat="-24.7192900" lon="-53.7139270">
        <ele>563.6</ele>
        <time>2018-09-15T17:26:20Z</time>
      </trkpt>
      <trkpt lat="-24.7192730" lon="-53.7138910">
        <ele>563.6</ele>
        <time>2018-09-15T17:26:21Z</time>
      </trkpt>
      <trkpt lat="-24.7192580" lon="-53.7138580">
        <ele>563.6</ele>
        <time>2018-09-15T17:26:22Z</time>
      </trkpt>
      <trkpt lat="-24.7192420" lon="-53.7138280">
        <ele>563.7</ele>
        <time>2018-09-15T17:26:23Z</time>
      </trkpt>
      <trkpt lat="-24.7192290" lon="-53.7138010">
        <ele>563.7</ele>
        <time>2018-09-15T17:26:24Z</time>
      </trkpt>
      <trkpt lat="-24.7192200" lon="-53.7137810">
        <ele>563.8</ele>
        <time>2018-09-15T17:26:25Z</time>
      </trkpt>
      <trkpt lat="-24.7192140" lon="-53.7137680">
        <ele>563.8</ele>
        <time>2018-09-15T17:26:26Z</time>
      </trkpt>
      <trkpt lat="-24.7192130" lon="-53.7137640">
        <ele>563.8</ele>
        <time>2018-09-15T17:26:27Z</time>
      </trkpt>
      <trkpt lat="-24.7192130" lon="-53.7137640">
        <ele>563.8</ele>
        <time>2018-09-15T17:26:28Z</time>
      </trkpt>
      <trkpt lat="-24.7192130" lon="-53.7137590">
        <ele>563.8</ele>
        <time>2018-09-15T17:26:35Z</time>
      </trkpt>
      <trkpt lat="-24.7192110" lon="-53.7137490">
        <ele>563.8</ele>
        <time>2018-09-15T17:26:36Z</time>
      </trkpt>
      <trkpt lat="-24.7192060" lon="-53.7137310">
        <ele>563.8</ele>
        <time>2018-09-15T17:26:37Z</time>
      </trkpt>
      <trkpt lat="-24.7192030" lon="-53.7137060">
        <ele>563.9</ele>
        <time>2018-09-15T17:26:38Z</time>
      </trkpt>
      <trkpt lat="-24.7192050" lon="-53.7136830">
        <ele>563.9</ele>
        <time>2018-09-15T17:26:39Z</time>
      </trkpt>
      <trkpt lat="-24.7192060" lon="-53.7136540">
        <ele>565.0</ele>
        <time>2018-09-15T17:26:40Z</time>
      </trkpt>
      <trkpt lat="-24.7192080" lon="-53.7136210">
        <ele>565.0</ele>
        <time>2018-09-15T17:26:41Z</time>
      </trkpt>
      <trkpt lat="-24.7192060" lon="-53.7135840">
        <ele>565.0</ele>
        <time>2018-09-15T17:26:42Z</time>
      </trkpt>
      <trkpt lat="-24.7191930" lon="-53.7135450">
        <ele>565.1</ele>
        <time>2018-09-15T17:26:43Z</time>
      </trkpt>
      <trkpt lat="-24.7191790" lon="-53.7135060">
        <ele>565.1</ele>
        <time>2018-09-15T17:26:44Z</time>
      </trkpt>
      <trkpt lat="-24.7191600" lon="-53.7134660">
        <ele>565.1</ele>
        <time>2018-09-15T17:26:45Z</time>
      </trkpt>
      <trkpt lat="-24.7191430" lon="-53.7134270">
        <ele>565.1</ele>
        <time>2018-09-15T17:26:46Z</time>
      </trkpt>
      <trkpt lat="-24.7191290" lon="-53.7133880">
        <ele>565.1</ele>
        <time>2018-09-15T17:26:47Z</time>
      </trkpt>
      <trkpt lat="-24.7191130" lon="-53.7133490">
        <ele>565.1</ele>
        <time>2018-09-15T17:26:48Z</time>
      </trkpt>
      <trkpt lat="-24.7190960" lon="-53.7133110">
        <ele>565.1</ele>
        <time>2018-09-15T17:26:49Z</time>
      </trkpt>
      <trkpt lat="-24.7190770" lon="-53.7132730">
        <ele>565.0</ele>
        <time>2018-09-15T17:26:50Z</time>
      </trkpt>
      <trkpt lat="-24.7190580" lon="-53.7132350">
        <ele>565.0</ele>
        <time>2018-09-15T17:26:51Z</time>
      </trkpt>
      <trkpt lat="-24.7190380" lon="-53.7131970">
        <ele>564.9</ele>
        <time>2018-09-15T17:26:52Z</time>
      </trkpt>
      <trkpt lat="-24.7190180" lon="-53.7131570">
        <ele>564.8</ele>
        <time>2018-09-15T17:26:53Z</time>
      </trkpt>
      <trkpt lat="-24.7189970" lon="-53.7131170">
        <ele>564.7</ele>
        <time>2018-09-15T17:26:54Z</time>
      </trkpt>
      <trkpt lat="-24.7189760" lon="-53.7130770">
        <ele>564.6</ele>
        <time>2018-09-15T17:26:55Z</time>
      </trkpt>
      <trkpt lat="-24.7189570" lon="-53.7130370">
        <ele>564.5</ele>
        <time>2018-09-15T17:26:56Z</time>
      </trkpt>
      <trkpt lat="-24.7189380" lon="-53.7129980">
        <ele>564.3</ele>
        <time>2018-09-15T17:26:57Z</time>
      </trkpt>
      <trkpt lat="-24.7189180" lon="-53.7129590">
        <ele>564.2</ele>
        <time>2018-09-15T17:26:58Z</time>
      </trkpt>
      <trkpt lat="-24.7188760" lon="-53.7128820">
        <ele>564.1</ele>
        <time>2018-09-15T17:26:59Z</time>
      </trkpt>
      <trkpt lat="-24.7188540" lon="-53.7128390">
        <ele>564.2</ele>
        <time>2018-09-15T17:27:01Z</time>
      </trkpt>
      <trkpt lat="-24.7188360" lon="-53.7127990">
        <ele>564.4</ele>
        <time>2018-09-15T17:27:02Z</time>
      </trkpt>
      <trkpt lat="-24.7188160" lon="-53.7127600">
        <ele>564.5</ele>
        <time>2018-09-15T17:27:03Z</time>
      </trkpt>
      <trkpt lat="-24.7187980" lon="-53.7127190">
        <ele>564.6</ele>
        <time>2018-09-15T17:27:04Z</time>
      </trkpt>
      <trkpt lat="-24.7187790" lon="-53.7126780">
        <ele>564.7</ele>
        <time>2018-09-15T17:27:05Z</time>
      </trkpt>
      <trkpt lat="-24.7187600" lon="-53.7126400">
        <ele>564.8</ele>
        <time>2018-09-15T17:27:06Z</time>
      </trkpt>
      <trkpt lat="-24.7187400" lon="-53.7126010">
        <ele>564.9</ele>
        <time>2018-09-15T17:27:07Z</time>
      </trkpt>
      <trkpt lat="-24.7187220" lon="-53.7125630">
        <ele>565.0</ele>
        <time>2018-09-15T17:27:08Z</time>
      </trkpt>
      <trkpt lat="-24.7187050" lon="-53.7125230">
        <ele>565.0</ele>
        <time>2018-09-15T17:27:09Z</time>
      </trkpt>
      <trkpt lat="-24.7186880" lon="-53.7124830">
        <ele>565.0</ele>
        <time>2018-09-15T17:27:10Z</time>
      </trkpt>
      <trkpt lat="-24.7186710" lon="-53.7124430">
        <ele>565.0</ele>
        <time>2018-09-15T17:27:11Z</time>
      </trkpt>
      <trkpt lat="-24.7186530" lon="-53.7124040">
        <ele>565.0</ele>
        <time>2018-09-15T17:27:12Z</time>
      </trkpt>
      <trkpt lat="-24.7186360" lon="-53.7123670">
        <ele>565.1</ele>
        <time>2018-09-15T17:27:13Z</time>
      </trkpt>
      <trkpt lat="-24.7186190" lon="-53.7123310">
        <ele>565.1</ele>
        <time>2018-09-15T17:27:14Z</time>
      </trkpt>
      <trkpt lat="-24.7186030" lon="-53.7122960">
        <ele>565.1</ele>
        <time>2018-09-15T17:27:15Z</time>
      </trkpt>
      <trkpt lat="-24.7185870" lon="-53.7122600">
        <ele>565.1</ele>
        <time>2018-09-15T17:27:16Z</time>
      </trkpt>
      <trkpt lat="-24.7185710" lon="-53.7122250">
        <ele>565.1</ele>
        <time>2018-09-15T17:27:17Z</time>
      </trkpt>
      <trkpt lat="-24.7185550" lon="-53.7121910">
        <ele>565.1</ele>
        <time>2018-09-15T17:27:18Z</time>
      </trkpt>
      <trkpt lat="-24.7185400" lon="-53.7121570">
        <ele>565.1</ele>
        <time>2018-09-15T17:27:19Z</time>
      </trkpt>
      <trkpt lat="-24.7185100" lon="-53.7120890">
        <ele>565.1</ele>
        <time>2018-09-15T17:27:20Z</time>
      </trkpt>
      <trkpt lat="-24.7184990" lon="-53.7120530">
        <ele>565.1</ele>
        <time>2018-09-15T17:27:21Z</time>
      </trkpt>
      <trkpt lat="-24.7184900" lon="-53.7120180">
        <ele>565.1</ele>
        <time>2018-09-15T17:27:22Z</time>
      </trkpt>
      <trkpt lat="-24.7184820" lon="-53.7119820">
        <ele>565.1</ele>
        <time>2018-09-15T17:27:23Z</time>
      </trkpt>
      <trkpt lat="-24.7184710" lon="-53.7119480">
        <ele>565.0</ele>
        <time>2018-09-15T17:27:24Z</time>
      </trkpt>
      <trkpt lat="-24.7184560" lon="-53.7119150">
        <ele>565.0</ele>
        <time>2018-09-15T17:27:25Z</time>
      </trkpt>
      <trkpt lat="-24.7184380" lon="-53.7118840">
        <ele>565.0</ele>
        <time>2018-09-15T17:27:26Z</time>
      </trkpt>
      <trkpt lat="-24.7184180" lon="-53.7118530">
        <ele>565.0</ele>
        <time>2018-09-15T17:27:27Z</time>
      </trkpt>
      <trkpt lat="-24.7183990" lon="-53.7118220">
        <ele>565.0</ele>
        <time>2018-09-15T17:27:28Z</time>
      </trkpt>
      <trkpt lat="-24.7183800" lon="-53.7117900">
        <ele>565.0</ele>
        <time>2018-09-15T17:27:29Z</time>
      </trkpt>
      <trkpt lat="-24.7183620" lon="-53.7117570">
        <ele>565.0</ele>
        <time>2018-09-15T17:27:30Z</time>
      </trkpt>
      <trkpt lat="-24.7183260" lon="-53.7116880">
        <ele>565.0</ele>
        <time>2018-09-15T17:27:32Z</time>
      </trkpt>
      <trkpt lat="-24.7183090" lon="-53.7116530">
        <ele>565.0</ele>
        <time>2018-09-15T17:27:33Z</time>
      </trkpt>
      <trkpt lat="-24.7182910" lon="-53.7116170">
        <ele>565.0</ele>
        <time>2018-09-15T17:27:34Z</time>
      </trkpt>
      <trkpt lat="-24.7182730" lon="-53.7115800">
        <ele>565.0</ele>
        <time>2018-09-15T17:27:35Z</time>
      </trkpt>
      <trkpt lat="-24.7182550" lon="-53.7115420">
        <ele>565.0</ele>
        <time>2018-09-15T17:27:36Z</time>
      </trkpt>
      <trkpt lat="-24.7182380" lon="-53.7115050">
        <ele>565.0</ele>
        <time>2018-09-15T17:27:37Z</time>
      </trkpt>
      <trkpt lat="-24.7182230" lon="-53.7114660">
        <ele>565.0</ele>
        <time>2018-09-15T17:27:38Z</time>
      </trkpt>
      <trkpt lat="-24.7182050" lon="-53.7114270">
        <ele>565.0</ele>
        <time>2018-09-15T17:27:39Z</time>
      </trkpt>
      <trkpt lat="-24.7181860" lon="-53.7113860">
        <ele>565.0</ele>
        <time>2018-09-15T17:27:40Z</time>
      </trkpt>
      <trkpt lat="-24.7181670" lon="-53.7113460">
        <ele>565.0</ele>
        <time>2018-09-15T17:27:41Z</time>
      </trkpt>
      <trkpt lat="-24.7181470" lon="-53.7113050">
        <ele>565.0</ele>
        <time>2018-09-15T17:27:42Z</time>
      </trkpt>
      <trkpt lat="-24.7181270" lon="-53.7112620">
        <ele>565.0</ele>
        <time>2018-09-15T17:27:43Z</time>
      </trkpt>
      <trkpt lat="-24.7181070" lon="-53.7112180">
        <ele>565.0</ele>
        <time>2018-09-15T17:27:44Z</time>
      </trkpt>
      <trkpt lat="-24.7180880" lon="-53.7111740">
        <ele>565.0</ele>
        <time>2018-09-15T17:27:45Z</time>
      </trkpt>
      <trkpt lat="-24.7180680" lon="-53.7111280">
        <ele>565.0</ele>
        <time>2018-09-15T17:27:46Z</time>
      </trkpt>
      <trkpt lat="-24.7180460" lon="-53.7110800">
        <ele>565.0</ele>
        <time>2018-09-15T17:27:47Z</time>
      </trkpt>
      <trkpt lat="-24.7180230" lon="-53.7110290">
        <ele>565.0</ele>
        <time>2018-09-15T17:27:48Z</time>
      </trkpt>
      <trkpt lat="-24.7179990" lon="-53.7109760">
        <ele>564.8</ele>
        <time>2018-09-15T17:27:49Z</time>
      </trkpt>
      <trkpt lat="-24.7179740" lon="-53.7109200">
        <ele>564.7</ele>
        <time>2018-09-15T17:27:50Z</time>
      </trkpt>
      <trkpt lat="-24.7179480" lon="-53.7108630">
        <ele>564.6</ele>
        <time>2018-09-15T17:27:51Z</time>
      </trkpt>
      <trkpt lat="-24.7179200" lon="-53.7108030">
        <ele>564.5</ele>
        <time>2018-09-15T17:27:52Z</time>
      </trkpt>
      <trkpt lat="-24.7178920" lon="-53.7107410">
        <ele>564.4</ele>
        <time>2018-09-15T17:27:53Z</time>
      </trkpt>
      <trkpt lat="-24.7178600" lon="-53.7106750">
        <ele>564.3</ele>
        <time>2018-09-15T17:27:54Z</time>
      </trkpt>
      <trkpt lat="-24.7178260" lon="-53.7106040">
        <ele>564.1</ele>
        <time>2018-09-15T17:27:55Z</time>
      </trkpt>
      <trkpt lat="-24.7177890" lon="-53.7105290">
        <ele>563.9</ele>
        <time>2018-09-15T17:27:56Z</time>
      </trkpt>
      <trkpt lat="-24.7177490" lon="-53.7104480">
        <ele>563.8</ele>
        <time>2018-09-15T17:27:57Z</time>
      </trkpt>
      <trkpt lat="-24.7177070" lon="-53.7103620">
        <ele>563.7</ele>
        <time>2018-09-15T17:27:58Z</time>
      </trkpt>
      <trkpt lat="-24.7176620" lon="-53.7102710">
        <ele>563.6</ele>
        <time>2018-09-15T17:27:59Z</time>
      </trkpt>
      <trkpt lat="-24.7176160" lon="-53.7101760">
        <ele>563.3</ele>
        <time>2018-09-15T17:28:00Z</time>
      </trkpt>
      <trkpt lat="-24.7175690" lon="-53.7100770">
        <ele>563.2</ele>
        <time>2018-09-15T17:28:01Z</time>
      </trkpt>
      <trkpt lat="-24.7175220" lon="-53.7099740">
        <ele>563.2</ele>
        <time>2018-09-15T17:28:02Z</time>
      </trkpt>
      <trkpt lat="-24.7174760" lon="-53.7098680">
        <ele>563.3</ele>
        <time>2018-09-15T17:28:03Z</time>
      </trkpt>
      <trkpt lat="-24.7174290" lon="-53.7097610">
        <ele>563.4</ele>
        <time>2018-09-15T17:28:04Z</time>
      </trkpt>
      <trkpt lat="-24.7173800" lon="-53.7096560">
        <ele>563.5</ele>
        <time>2018-09-15T17:28:05Z</time>
      </trkpt>
      <trkpt lat="-24.7173320" lon="-53.7095540">
        <ele>564.0</ele>
        <time>2018-09-15T17:28:06Z</time>
      </trkpt>
      <trkpt lat="-24.7172820" lon="-53.7094540">
        <ele>563.7</ele>
        <time>2018-09-15T17:28:07Z</time>
      </trkpt>
      <trkpt lat="-24.7172350" lon="-53.7093550">
        <ele>563.5</ele>
        <time>2018-09-15T17:28:08Z</time>
      </trkpt>
      <trkpt lat="-24.7171870" lon="-53.7092580">
        <ele>563.5</ele>
        <time>2018-09-15T17:28:09Z</time>
      </trkpt>
      <trkpt lat="-24.7171370" lon="-53.7091630">
        <ele>563.5</ele>
        <time>2018-09-15T17:28:10Z</time>
      </trkpt>
      <trkpt lat="-24.7170870" lon="-53.7090700">
        <ele>563.5</ele>
        <time>2018-09-15T17:28:11Z</time>
      </trkpt>
      <trkpt lat="-24.7170370" lon="-53.7089750">
        <ele>563.5</ele>
        <time>2018-09-15T17:28:12Z</time>
      </trkpt>
      <trkpt lat="-24.7169860" lon="-53.7088810">
        <ele>563.5</ele>
        <time>2018-09-15T17:28:13Z</time>
      </trkpt>
      <trkpt lat="-24.7169350" lon="-53.7087860">
        <ele>563.5</ele>
        <time>2018-09-15T17:28:14Z</time>
      </trkpt>
      <trkpt lat="-24.7169350" lon="-53.7087860">
        <ele>563.5</ele>
        <time>2018-09-15T17:28:15Z</time>
      </trkpt>
      <trkpt lat="-24.7168830" lon="-53.7086920">
        <ele>563.5</ele>
        <time>2018-09-15T17:28:16Z</time>
      </trkpt>
      <trkpt lat="-24.7168310" lon="-53.7085990">
        <ele>563.2</ele>
        <time>2018-09-15T17:28:17Z</time>
      </trkpt>
      <trkpt lat="-24.7167810" lon="-53.7085050">
        <ele>562.9</ele>
        <time>2018-09-15T17:28:18Z</time>
      </trkpt>
      <trkpt lat="-24.7167330" lon="-53.7084090">
        <ele>562.7</ele>
        <time>2018-09-15T17:28:19Z</time>
      </trkpt>
      <trkpt lat="-24.7166830" lon="-53.7083150">
        <ele>562.4</ele>
        <time>2018-09-15T17:28:20Z</time>
      </trkpt>
      <trkpt lat="-24.7166350" lon="-53.7082210">
        <ele>562.0</ele>
        <time>2018-09-15T17:28:21Z</time>
      </trkpt>
      <trkpt lat="-24.7165870" lon="-53.7081270">
        <ele>562.0</ele>
        <time>2018-09-15T17:28:22Z</time>
      </trkpt>
      <trkpt lat="-24.7165400" lon="-53.7080320">
        <ele>562.0</ele>
        <time>2018-09-15T17:28:23Z</time>
      </trkpt>
      <trkpt lat="-24.7164920" lon="-53.7079370">
        <ele>562.1</ele>
        <time>2018-09-15T17:28:24Z</time>
      </trkpt>
      <trkpt lat="-24.7164440" lon="-53.7078430">
        <ele>562.1</ele>
        <time>2018-09-15T17:28:25Z</time>
      </trkpt>
      <trkpt lat="-24.7163940" lon="-53.7077480">
        <ele>562.1</ele>
        <time>2018-09-15T17:28:26Z</time>
      </trkpt>
      <trkpt lat="-24.7163460" lon="-53.7076520">
        <ele>562.1</ele>
        <time>2018-09-15T17:28:27Z</time>
      </trkpt>
      <trkpt lat="-24.7162970" lon="-53.7075550">
        <ele>562.1</ele>
        <time>2018-09-15T17:28:28Z</time>
      </trkpt>
      <trkpt lat="-24.7162490" lon="-53.7074570">
        <ele>561.9</ele>
        <time>2018-09-15T17:28:29Z</time>
      </trkpt>
      <trkpt lat="-24.7162010" lon="-53.7073600">
        <ele>561.6</ele>
        <time>2018-09-15T17:28:30Z</time>
      </trkpt>
      <trkpt lat="-24.7161520" lon="-53.7072640">
        <ele>561.3</ele>
        <time>2018-09-15T17:28:31Z</time>
      </trkpt>
      <trkpt lat="-24.7161020" lon="-53.7071680">
        <ele>561.1</ele>
        <time>2018-09-15T17:28:32Z</time>
      </trkpt>
      <trkpt lat="-24.7160520" lon="-53.7070700">
        <ele>561.0</ele>
        <time>2018-09-15T17:28:33Z</time>
      </trkpt>
      <trkpt lat="-24.7160020" lon="-53.7069720">
        <ele>561.0</ele>
        <time>2018-09-15T17:28:34Z</time>
      </trkpt>
      <trkpt lat="-24.7159500" lon="-53.7068760">
        <ele>561.0</ele>
        <time>2018-09-15T17:28:35Z</time>
      </trkpt>
      <trkpt lat="-24.7159000" lon="-53.7067800">
        <ele>560.8</ele>
        <time>2018-09-15T17:28:36Z</time>
      </trkpt>
      <trkpt lat="-24.7158520" lon="-53.7066840">
        <ele>560.6</ele>
        <time>2018-09-15T17:28:37Z</time>
      </trkpt>
      <trkpt lat="-24.7158030" lon="-53.7065890">
        <ele>560.4</ele>
        <time>2018-09-15T17:28:38Z</time>
      </trkpt>
      <trkpt lat="-24.7157540" lon="-53.7064950">
        <ele>560.1</ele>
        <time>2018-09-15T17:28:39Z</time>
      </trkpt>
      <trkpt lat="-24.7157070" lon="-53.7064050">
        <ele>559.7</ele>
        <time>2018-09-15T17:28:40Z</time>
      </trkpt>
      <trkpt lat="-24.7156630" lon="-53.7063190">
        <ele>559.2</ele>
        <time>2018-09-15T17:28:41Z</time>
      </trkpt>
      <trkpt lat="-24.7156200" lon="-53.7062350">
        <ele>558.8</ele>
        <time>2018-09-15T17:28:42Z</time>
      </trkpt>
      <trkpt lat="-24.7155820" lon="-53.7061560">
        <ele>558.4</ele>
        <time>2018-09-15T17:28:43Z</time>
      </trkpt>
      <trkpt lat="-24.7155470" lon="-53.7060780">
        <ele>558.3</ele>
        <time>2018-09-15T17:28:44Z</time>
      </trkpt>
      <trkpt lat="-24.7155150" lon="-53.7060010">
        <ele>558.2</ele>
        <time>2018-09-15T17:28:45Z</time>
      </trkpt>
      <trkpt lat="-24.7154790" lon="-53.7059270">
        <ele>558.1</ele>
        <time>2018-09-15T17:28:46Z</time>
      </trkpt>
      <trkpt lat="-24.7154430" lon="-53.7058570">
        <ele>557.9</ele>
        <time>2018-09-15T17:28:47Z</time>
      </trkpt>
      <trkpt lat="-24.7154070" lon="-53.7057890">
        <ele>557.8</ele>
        <time>2018-09-15T17:28:48Z</time>
      </trkpt>
      <trkpt lat="-24.7153690" lon="-53.7057230">
        <ele>557.6</ele>
        <time>2018-09-15T17:28:49Z</time>
      </trkpt>
      <trkpt lat="-24.7153300" lon="-53.7056600">
        <ele>557.5</ele>
        <time>2018-09-15T17:28:50Z</time>
      </trkpt>
      <trkpt lat="-24.7152910" lon="-53.7056000">
        <ele>557.3</ele>
        <time>2018-09-15T17:28:51Z</time>
      </trkpt>
      <trkpt lat="-24.7152550" lon="-53.7055390">
        <ele>557.2</ele>
        <time>2018-09-15T17:28:52Z</time>
      </trkpt>
      <trkpt lat="-24.7152180" lon="-53.7054770">
        <ele>557.0</ele>
        <time>2018-09-15T17:28:53Z</time>
      </trkpt>
      <trkpt lat="-24.7151790" lon="-53.7054160">
        <ele>557.1</ele>
        <time>2018-09-15T17:28:54Z</time>
      </trkpt>
      <trkpt lat="-24.7151380" lon="-53.7053560">
        <ele>557.1</ele>
        <time>2018-09-15T17:28:55Z</time>
      </trkpt>
      <trkpt lat="-24.7150970" lon="-53.7052960">
        <ele>557.2</ele>
        <time>2018-09-15T17:28:56Z</time>
      </trkpt>
      <trkpt lat="-24.7150590" lon="-53.7052350">
        <ele>557.3</ele>
        <time>2018-09-15T17:28:57Z</time>
      </trkpt>
      <trkpt lat="-24.7150200" lon="-53.7051740">
        <ele>557.3</ele>
        <time>2018-09-15T17:28:58Z</time>
      </trkpt>
      <trkpt lat="-24.7149770" lon="-53.7051150">
        <ele>557.4</ele>
        <time>2018-09-15T17:28:59Z</time>
      </trkpt>
      <trkpt lat="-24.7149340" lon="-53.7050560">
        <ele>557.5</ele>
        <time>2018-09-15T17:29:00Z</time>
      </trkpt>
      <trkpt lat="-24.7148910" lon="-53.7049970">
        <ele>557.6</ele>
        <time>2018-09-15T17:29:01Z</time>
      </trkpt>
      <trkpt lat="-24.7148490" lon="-53.7049370">
        <ele>557.7</ele>
        <time>2018-09-15T17:29:02Z</time>
      </trkpt>
      <trkpt lat="-24.7148060" lon="-53.7048780">
        <ele>557.8</ele>
        <time>2018-09-15T17:29:03Z</time>
      </trkpt>
      <trkpt lat="-24.7147630" lon="-53.7048200">
        <ele>558.1</ele>
        <time>2018-09-15T17:29:04Z</time>
      </trkpt>
      <trkpt lat="-24.7147190" lon="-53.7047640">
        <ele>558.5</ele>
        <time>2018-09-15T17:29:05Z</time>
      </trkpt>
      <trkpt lat="-24.7146740" lon="-53.7047100">
        <ele>558.9</ele>
        <time>2018-09-15T17:29:06Z</time>
      </trkpt>
      <trkpt lat="-24.7146300" lon="-53.7046570">
        <ele>559.5</ele>
        <time>2018-09-15T17:29:07Z</time>
      </trkpt>
      <trkpt lat="-24.7145860" lon="-53.7046040">
        <ele>560.0</ele>
        <time>2018-09-15T17:29:08Z</time>
      </trkpt>
      <trkpt lat="-24.7145430" lon="-53.7045510">
        <ele>560.0</ele>
        <time>2018-09-15T17:29:09Z</time>
      </trkpt>
      <trkpt lat="-24.7144980" lon="-53.7045000">
        <ele>560.0</ele>
        <time>2018-09-15T17:29:10Z</time>
      </trkpt>
      <trkpt lat="-24.7144510" lon="-53.7044540">
        <ele>559.8</ele>
        <time>2018-09-15T17:29:11Z</time>
      </trkpt>
      <trkpt lat="-24.7144050" lon="-53.7044090">
        <ele>559.6</ele>
        <time>2018-09-15T17:29:12Z</time>
      </trkpt>
      <trkpt lat="-24.7143610" lon="-53.7043650">
        <ele>559.3</ele>
        <time>2018-09-15T17:29:13Z</time>
      </trkpt>
      <trkpt lat="-24.7143190" lon="-53.7043230">
        <ele>559.1</ele>
        <time>2018-09-15T17:29:14Z</time>
      </trkpt>
      <trkpt lat="-24.7142770" lon="-53.7042810">
        <ele>558.9</ele>
        <time>2018-09-15T17:29:15Z</time>
      </trkpt>
      <trkpt lat="-24.7142360" lon="-53.7042400">
        <ele>558.7</ele>
        <time>2018-09-15T17:29:16Z</time>
      </trkpt>
      <trkpt lat="-24.7141960" lon="-53.7041990">
        <ele>558.5</ele>
        <time>2018-09-15T17:29:17Z</time>
      </trkpt>
      <trkpt lat="-24.7141560" lon="-53.7041600">
        <ele>558.3</ele>
        <time>2018-09-15T17:29:18Z</time>
      </trkpt>
      <trkpt lat="-24.7141180" lon="-53.7041210">
        <ele>558.1</ele>
        <time>2018-09-15T17:29:19Z</time>
      </trkpt>
      <trkpt lat="-24.7140830" lon="-53.7040820">
        <ele>557.9</ele>
        <time>2018-09-15T17:29:20Z</time>
      </trkpt>
      <trkpt lat="-24.7140460" lon="-53.7040450">
        <ele>557.8</ele>
        <time>2018-09-15T17:29:21Z</time>
      </trkpt>
      <trkpt lat="-24.7140090" lon="-53.7040060">
        <ele>557.5</ele>
        <time>2018-09-15T17:29:22Z</time>
      </trkpt>
      <trkpt lat="-24.7139720" lon="-53.7039690">
        <ele>557.3</ele>
        <time>2018-09-15T17:29:23Z</time>
      </trkpt>
      <trkpt lat="-24.7139360" lon="-53.7039320">
        <ele>557.0</ele>
        <time>2018-09-15T17:29:24Z</time>
      </trkpt>
      <trkpt lat="-24.7138980" lon="-53.7038940">
        <ele>556.8</ele>
        <time>2018-09-15T17:29:25Z</time>
      </trkpt>
      <trkpt lat="-24.7138590" lon="-53.7038540">
        <ele>556.5</ele>
        <time>2018-09-15T17:29:26Z</time>
      </trkpt>
      <trkpt lat="-24.7138190" lon="-53.7038140">
        <ele>556.2</ele>
        <time>2018-09-15T17:29:27Z</time>
      </trkpt>
      <trkpt lat="-24.7137800" lon="-53.7037760">
        <ele>555.8</ele>
        <time>2018-09-15T17:29:28Z</time>
      </trkpt>
      <trkpt lat="-24.7137410" lon="-53.7037360">
        <ele>555.4</ele>
        <time>2018-09-15T17:29:29Z</time>
      </trkpt>
      <trkpt lat="-24.7137040" lon="-53.7036970">
        <ele>555.1</ele>
        <time>2018-09-15T17:29:30Z</time>
      </trkpt>
      <trkpt lat="-24.7136660" lon="-53.7036580">
        <ele>555.8</ele>
        <time>2018-09-15T17:29:31Z</time>
      </trkpt>
      <trkpt lat="-24.7136300" lon="-53.7036190">
        <ele>556.6</ele>
        <time>2018-09-15T17:29:32Z</time>
      </trkpt>
      <trkpt lat="-24.7135950" lon="-53.7035810">
        <ele>557.3</ele>
        <time>2018-09-15T17:29:33Z</time>
      </trkpt>
      <trkpt lat="-24.7135600" lon="-53.7035440">
        <ele>558.1</ele>
        <time>2018-09-15T17:29:34Z</time>
      </trkpt>
      <trkpt lat="-24.7135260" lon="-53.7035060">
        <ele>558.8</ele>
        <time>2018-09-15T17:29:35Z</time>
      </trkpt>
      <trkpt lat="-24.7134920" lon="-53.7034680">
        <ele>559.5</ele>
        <time>2018-09-15T17:29:36Z</time>
      </trkpt>
      <trkpt lat="-24.7134580" lon="-53.7034330">
        <ele>560.0</ele>
        <time>2018-09-15T17:29:37Z</time>
      </trkpt>
      <trkpt lat="-24.7134230" lon="-53.7033980">
        <ele>560.3</ele>
        <time>2018-09-15T17:29:38Z</time>
      </trkpt>
      <trkpt lat="-24.7133880" lon="-53.7033620">
        <ele>560.6</ele>
        <time>2018-09-15T17:29:39Z</time>
      </trkpt>
      <trkpt lat="-24.7133530" lon="-53.7033240">
        <ele>561.0</ele>
        <time>2018-09-15T17:29:40Z</time>
      </trkpt>
      <trkpt lat="-24.7133190" lon="-53.7032870">
        <ele>561.3</ele>
        <time>2018-09-15T17:29:41Z</time>
      </trkpt>
      <trkpt lat="-24.7132850" lon="-53.7032510">
        <ele>561.8</ele>
        <time>2018-09-15T17:29:42Z</time>
      </trkpt>
      <trkpt lat="-24.7132510" lon="-53.7032160">
        <ele>562.4</ele>
        <time>2018-09-15T17:29:43Z</time>
      </trkpt>
      <trkpt lat="-24.7132180" lon="-53.7031800">
        <ele>562.8</ele>
        <time>2018-09-15T17:29:44Z</time>
      </trkpt>
      <trkpt lat="-24.7131860" lon="-53.7031450">
        <ele>563.2</ele>
        <time>2018-09-15T17:29:45Z</time>
      </trkpt>
      <trkpt lat="-24.7131530" lon="-53.7031080">
        <ele>563.5</ele>
        <time>2018-09-15T17:29:46Z</time>
      </trkpt>
      <trkpt lat="-24.7131210" lon="-53.7030700">
        <ele>563.9</ele>
        <time>2018-09-15T17:29:47Z</time>
      </trkpt>
      <trkpt lat="-24.7130880" lon="-53.7030310">
        <ele>564.1</ele>
        <time>2018-09-15T17:29:48Z</time>
      </trkpt>
      <trkpt lat="-24.7130550" lon="-53.7029900">
        <ele>564.3</ele>
        <time>2018-09-15T17:29:49Z</time>
      </trkpt>
      <trkpt lat="-24.7130230" lon="-53.7029480">
        <ele>564.5</ele>
        <time>2018-09-15T17:29:50Z</time>
      </trkpt>
      <trkpt lat="-24.7129940" lon="-53.7029070">
        <ele>564.7</ele>
        <time>2018-09-15T17:29:51Z</time>
      </trkpt>
      <trkpt lat="-24.7129660" lon="-53.7028650">
        <ele>564.8</ele>
        <time>2018-09-15T17:29:52Z</time>
      </trkpt>
      <trkpt lat="-24.7129390" lon="-53.7028230">
        <ele>565.1</ele>
        <time>2018-09-15T17:29:53Z</time>
      </trkpt>
      <trkpt lat="-24.7129150" lon="-53.7027830">
        <ele>565.3</ele>
        <time>2018-09-15T17:29:54Z</time>
      </trkpt>
      <trkpt lat="-24.7128920" lon="-53.7027430">
        <ele>565.6</ele>
        <time>2018-09-15T17:29:55Z</time>
      </trkpt>
      <trkpt lat="-24.7128690" lon="-53.7027030">
        <ele>565.9</ele>
        <time>2018-09-15T17:29:56Z</time>
      </trkpt>
      <trkpt lat="-24.7128480" lon="-53.7026650">
        <ele>566.4</ele>
        <time>2018-09-15T17:29:57Z</time>
      </trkpt>
      <trkpt lat="-24.7128280" lon="-53.7026260">
        <ele>566.9</ele>
        <time>2018-09-15T17:29:58Z</time>
      </trkpt>
      <trkpt lat="-24.7128070" lon="-53.7025900">
        <ele>567.4</ele>
        <time>2018-09-15T17:29:59Z</time>
      </trkpt>
      <trkpt lat="-24.7127850" lon="-53.7025530">
        <ele>567.9</ele>
        <time>2018-09-15T17:30:00Z</time>
      </trkpt>
      <trkpt lat="-24.7127680" lon="-53.7025150">
        <ele>568.3</ele>
        <time>2018-09-15T17:30:01Z</time>
      </trkpt>
      <trkpt lat="-24.7127540" lon="-53.7024760">
        <ele>568.5</ele>
        <time>2018-09-15T17:30:02Z</time>
      </trkpt>
      <trkpt lat="-24.7127390" lon="-53.7024370">
        <ele>568.8</ele>
        <time>2018-09-15T17:30:03Z</time>
      </trkpt>
      <trkpt lat="-24.7127230" lon="-53.7023990">
        <ele>568.9</ele>
        <time>2018-09-15T17:30:04Z</time>
      </trkpt>
      <trkpt lat="-24.7127070" lon="-53.7023620">
        <ele>569.1</ele>
        <time>2018-09-15T17:30:05Z</time>
      </trkpt>
      <trkpt lat="-24.7126930" lon="-53.7023250">
        <ele>569.2</ele>
        <time>2018-09-15T17:30:06Z</time>
      </trkpt>
      <trkpt lat="-24.7126780" lon="-53.7022850">
        <ele>569.3</ele>
        <time>2018-09-15T17:30:07Z</time>
      </trkpt>
      <trkpt lat="-24.7126610" lon="-53.7022440">
        <ele>569.4</ele>
        <time>2018-09-15T17:30:08Z</time>
      </trkpt>
      <trkpt lat="-24.7126460" lon="-53.7022010">
        <ele>569.5</ele>
        <time>2018-09-15T17:30:09Z</time>
      </trkpt>
      <trkpt lat="-24.7126350" lon="-53.7021560">
        <ele>569.7</ele>
        <time>2018-09-15T17:30:10Z</time>
      </trkpt>
      <trkpt lat="-24.7126280" lon="-53.7021150">
        <ele>569.8</ele>
        <time>2018-09-15T17:30:11Z</time>
      </trkpt>
      <trkpt lat="-24.7126220" lon="-53.7020790">
        <ele>569.9</ele>
        <time>2018-09-15T17:30:12Z</time>
      </trkpt>
      <trkpt lat="-24.7126140" lon="-53.7020480">
        <ele>570.0</ele>
        <time>2018-09-15T17:30:13Z</time>
      </trkpt>
      <trkpt lat="-24.7126020" lon="-53.7020210">
        <ele>569.7</ele>
        <time>2018-09-15T17:30:14Z</time>
      </trkpt>
      <trkpt lat="-24.7125880" lon="-53.7019960">
        <ele>569.3</ele>
        <time>2018-09-15T17:30:15Z</time>
      </trkpt>
      <trkpt lat="-24.7125690" lon="-53.7019700">
        <ele>568.8</ele>
        <time>2018-09-15T17:30:16Z</time>
      </trkpt>
      <trkpt lat="-24.7125440" lon="-53.7019460">
        <ele>568.4</ele>
        <time>2018-09-15T17:30:17Z</time>
      </trkpt>
      <trkpt lat="-24.7125160" lon="-53.7019260">
        <ele>567.9</ele>
        <time>2018-09-15T17:30:18Z</time>
      </trkpt>
      <trkpt lat="-24.7124860" lon="-53.7019050">
        <ele>567.4</ele>
        <time>2018-09-15T17:30:19Z</time>
      </trkpt>
      <trkpt lat="-24.7124550" lon="-53.7018820">
        <ele>567.2</ele>
        <time>2018-09-15T17:30:20Z</time>
      </trkpt>
      <trkpt lat="-24.7124220" lon="-53.7018580">
        <ele>566.9</ele>
        <time>2018-09-15T17:30:21Z</time>
      </trkpt>
      <trkpt lat="-24.7123860" lon="-53.7018380">
        <ele>566.6</ele>
        <time>2018-09-15T17:30:22Z</time>
      </trkpt>
      <trkpt lat="-24.7123470" lon="-53.7018240">
        <ele>566.3</ele>
        <time>2018-09-15T17:30:23Z</time>
      </trkpt>
      <trkpt lat="-24.7123050" lon="-53.7018150">
        <ele>565.9</ele>
        <time>2018-09-15T17:30:24Z</time>
      </trkpt>
      <trkpt lat="-24.7122620" lon="-53.7018100">
        <ele>565.6</ele>
        <time>2018-09-15T17:30:25Z</time>
      </trkpt>
      <trkpt lat="-24.7122140" lon="-53.7018130">
        <ele>565.2</ele>
        <time>2018-09-15T17:30:26Z</time>
      </trkpt>
      <trkpt lat="-24.7121630" lon="-53.7018230">
        <ele>565.0</ele>
        <time>2018-09-15T17:30:27Z</time>
      </trkpt>
      <trkpt lat="-24.7121100" lon="-53.7018370">
        <ele>565.0</ele>
        <time>2018-09-15T17:30:28Z</time>
      </trkpt>
      <trkpt lat="-24.7120550" lon="-53.7018520">
        <ele>565.0</ele>
        <time>2018-09-15T17:30:29Z</time>
      </trkpt>
      <trkpt lat="-24.7119970" lon="-53.7018640">
        <ele>565.1</ele>
        <time>2018-09-15T17:30:30Z</time>
      </trkpt>
      <trkpt lat="-24.7119360" lon="-53.7018710">
        <ele>565.2</ele>
        <time>2018-09-15T17:30:31Z</time>
      </trkpt>
      <trkpt lat="-24.7118740" lon="-53.7018730">
        <ele>565.3</ele>
        <time>2018-09-15T17:30:32Z</time>
      </trkpt>
      <trkpt lat="-24.7118110" lon="-53.7018720">
        <ele>565.4</ele>
        <time>2018-09-15T17:30:33Z</time>
      </trkpt>
      <trkpt lat="-24.7117490" lon="-53.7018640">
        <ele>565.5</ele>
        <time>2018-09-15T17:30:34Z</time>
      </trkpt>
      <trkpt lat="-24.7116880" lon="-53.7018530">
        <ele>565.5</ele>
        <time>2018-09-15T17:30:35Z</time>
      </trkpt>
      <trkpt lat="-24.7116300" lon="-53.7018370">
        <ele>565.6</ele>
        <time>2018-09-15T17:30:36Z</time>
      </trkpt>
      <trkpt lat="-24.7115730" lon="-53.7018190">
        <ele>565.7</ele>
        <time>2018-09-15T17:30:37Z</time>
      </trkpt>
      <trkpt lat="-24.7115170" lon="-53.7017970">
        <ele>565.7</ele>
        <time>2018-09-15T17:30:38Z</time>
      </trkpt>
      <trkpt lat="-24.7114640" lon="-53.7017730">
        <ele>565.8</ele>
        <time>2018-09-15T17:30:39Z</time>
      </trkpt>
      <trkpt lat="-24.7114130" lon="-53.7017450">
        <ele>565.9</ele>
        <time>2018-09-15T17:30:40Z</time>
      </trkpt>
      <trkpt lat="-24.7113640" lon="-53.7017160">
        <ele>565.9</ele>
        <time>2018-09-15T17:30:41Z</time>
      </trkpt>
      <trkpt lat="-24.7113160" lon="-53.7016850">
        <ele>566.1</ele>
        <time>2018-09-15T17:30:42Z</time>
      </trkpt>
      <trkpt lat="-24.7112690" lon="-53.7016530">
        <ele>566.8</ele>
        <time>2018-09-15T17:30:43Z</time>
      </trkpt>
      <trkpt lat="-24.7112240" lon="-53.7016200">
        <ele>567.5</ele>
        <time>2018-09-15T17:30:44Z</time>
      </trkpt>
      <trkpt lat="-24.7111790" lon="-53.7015880">
        <ele>568.1</ele>
        <time>2018-09-15T17:30:45Z</time>
      </trkpt>
      <trkpt lat="-24.7111350" lon="-53.7015570">
        <ele>568.7</ele>
        <time>2018-09-15T17:30:46Z</time>
      </trkpt>
      <trkpt lat="-24.7110900" lon="-53.7015260">
        <ele>569.4</ele>
        <time>2018-09-15T17:30:47Z</time>
      </trkpt>
      <trkpt lat="-24.7110450" lon="-53.7014970">
        <ele>570.0</ele>
        <time>2018-09-15T17:30:48Z</time>
      </trkpt>
      <trkpt lat="-24.7110000" lon="-53.7014690">
        <ele>570.6</ele>
        <time>2018-09-15T17:30:49Z</time>
      </trkpt>
      <trkpt lat="-24.7109560" lon="-53.7014420">
        <ele>571.0</ele>
        <time>2018-09-15T17:30:50Z</time>
      </trkpt>
      <trkpt lat="-24.7109110" lon="-53.7014150">
        <ele>570.8</ele>
        <time>2018-09-15T17:30:51Z</time>
      </trkpt>
      <trkpt lat="-24.7108660" lon="-53.7013880">
        <ele>570.7</ele>
        <time>2018-09-15T17:30:52Z</time>
      </trkpt>
      <trkpt lat="-24.7108210" lon="-53.7013620">
        <ele>570.6</ele>
        <time>2018-09-15T17:30:53Z</time>
      </trkpt>
      <trkpt lat="-24.7107770" lon="-53.7013360">
        <ele>570.4</ele>
        <time>2018-09-15T17:30:54Z</time>
      </trkpt>
      <trkpt lat="-24.7107330" lon="-53.7013090">
        <ele>570.3</ele>
        <time>2018-09-15T17:30:55Z</time>
      </trkpt>
      <trkpt lat="-24.7106880" lon="-53.7012820">
        <ele>570.2</ele>
        <time>2018-09-15T17:30:56Z</time>
      </trkpt>
      <trkpt lat="-24.7106430" lon="-53.7012550">
        <ele>570.0</ele>
        <time>2018-09-15T17:30:57Z</time>
      </trkpt>
      <trkpt lat="-24.7105960" lon="-53.7012270">
        <ele>569.9</ele>
        <time>2018-09-15T17:30:58Z</time>
      </trkpt>
      <trkpt lat="-24.7105030" lon="-53.7011730">
        <ele>569.7</ele>
        <time>2018-09-15T17:30:59Z</time>
      </trkpt>
      <trkpt lat="-24.7104540" lon="-53.7011480">
        <ele>569.6</ele>
        <time>2018-09-15T17:31:01Z</time>
      </trkpt>
      <trkpt lat="-24.7104050" lon="-53.7011230">
        <ele>569.5</ele>
        <time>2018-09-15T17:31:02Z</time>
      </trkpt>
      <trkpt lat="-24.7103540" lon="-53.7011000">
        <ele>569.4</ele>
        <time>2018-09-15T17:31:03Z</time>
      </trkpt>
      <trkpt lat="-24.7103040" lon="-53.7010750">
        <ele>569.3</ele>
        <time>2018-09-15T17:31:04Z</time>
      </trkpt>
      <trkpt lat="-24.7102530" lon="-53.7010490">
        <ele>569.2</ele>
        <time>2018-09-15T17:31:05Z</time>
      </trkpt>
      <trkpt lat="-24.7102020" lon="-53.7010240">
        <ele>569.1</ele>
        <time>2018-09-15T17:31:06Z</time>
      </trkpt>
      <trkpt lat="-24.7101510" lon="-53.7009980">
        <ele>569.0</ele>
        <time>2018-09-15T17:31:07Z</time>
      </trkpt>
      <trkpt lat="-24.7101000" lon="-53.7009700">
        <ele>568.5</ele>
        <time>2018-09-15T17:31:08Z</time>
      </trkpt>
      <trkpt lat="-24.7100490" lon="-53.7009430">
        <ele>567.9</ele>
        <time>2018-09-15T17:31:09Z</time>
      </trkpt>
      <trkpt lat="-24.7099990" lon="-53.7009150">
        <ele>567.3</ele>
        <time>2018-09-15T17:31:10Z</time>
      </trkpt>
      <trkpt lat="-24.7099490" lon="-53.7008870">
        <ele>566.7</ele>
        <time>2018-09-15T17:31:11Z</time>
      </trkpt>
      <trkpt lat="-24.7099000" lon="-53.7008580">
        <ele>566.2</ele>
        <time>2018-09-15T17:31:12Z</time>
      </trkpt>
      <trkpt lat="-24.7098030" lon="-53.7007990">
        <ele>565.9</ele>
        <time>2018-09-15T17:31:13Z</time>
      </trkpt>
      <trkpt lat="-24.7097540" lon="-53.7007710">
        <ele>565.9</ele>
        <time>2018-09-15T17:31:14Z</time>
      </trkpt>
      <trkpt lat="-24.7097050" lon="-53.7007430">
        <ele>565.9</ele>
        <time>2018-09-15T17:31:15Z</time>
      </trkpt>
      <trkpt lat="-24.7096550" lon="-53.7007150">
        <ele>565.8</ele>
        <time>2018-09-15T17:31:16Z</time>
      </trkpt>
      <trkpt lat="-24.7096030" lon="-53.7006860">
        <ele>565.8</ele>
        <time>2018-09-15T17:31:17Z</time>
      </trkpt>
      <trkpt lat="-24.7095520" lon="-53.7006550">
        <ele>565.8</ele>
        <time>2018-09-15T17:31:18Z</time>
      </trkpt>
      <trkpt lat="-24.7095000" lon="-53.7006240">
        <ele>565.8</ele>
        <time>2018-09-15T17:31:19Z</time>
      </trkpt>
      <trkpt lat="-24.7094470" lon="-53.7005920">
        <ele>565.8</ele>
        <time>2018-09-15T17:31:20Z</time>
      </trkpt>
      <trkpt lat="-24.7093940" lon="-53.7005590">
        <ele>565.7</ele>
        <time>2018-09-15T17:31:21Z</time>
      </trkpt>
      <trkpt lat="-24.7093390" lon="-53.7005250">
        <ele>565.7</ele>
        <time>2018-09-15T17:31:22Z</time>
      </trkpt>
      <trkpt lat="-24.7092830" lon="-53.7004920">
        <ele>565.7</ele>
        <time>2018-09-15T17:31:23Z</time>
      </trkpt>
      <trkpt lat="-24.7092270" lon="-53.7004610">
        <ele>565.7</ele>
        <time>2018-09-15T17:31:24Z</time>
      </trkpt>
      <trkpt lat="-24.7091710" lon="-53.7004310">
        <ele>565.6</ele>
        <time>2018-09-15T17:31:25Z</time>
      </trkpt>
      <trkpt lat="-24.7090610" lon="-53.7003680">
        <ele>565.5</ele>
        <time>2018-09-15T17:31:27Z</time>
      </trkpt>
      <trkpt lat="-24.7090070" lon="-53.7003350">
        <ele>565.4</ele>
        <time>2018-09-15T17:31:28Z</time>
      </trkpt>
      <trkpt lat="-24.7089530" lon="-53.7003040">
        <ele>565.2</ele>
        <time>2018-09-15T17:31:29Z</time>
      </trkpt>
      <trkpt lat="-24.7088980" lon="-53.7002740">
        <ele>565.1</ele>
        <time>2018-09-15T17:31:30Z</time>
      </trkpt>
      <trkpt lat="-24.7088430" lon="-53.7002430">
        <ele>564.9</ele>
        <time>2018-09-15T17:31:31Z</time>
      </trkpt>
      <trkpt lat="-24.7087890" lon="-53.7002110">
        <ele>564.8</ele>
        <time>2018-09-15T17:31:32Z</time>
      </trkpt>
      <trkpt lat="-24.7087350" lon="-53.7001790">
        <ele>564.8</ele>
        <time>2018-09-15T17:31:33Z</time>
      </trkpt>
      <trkpt lat="-24.7086800" lon="-53.7001470">
        <ele>564.7</ele>
        <time>2018-09-15T17:31:34Z</time>
      </trkpt>
      <trkpt lat="-24.7086250" lon="-53.7001170">
        <ele>564.7</ele>
        <time>2018-09-15T17:31:35Z</time>
      </trkpt>
      <trkpt lat="-24.7085700" lon="-53.7000860">
        <ele>564.7</ele>
        <time>2018-09-15T17:31:36Z</time>
      </trkpt>
      <trkpt lat="-24.7085150" lon="-53.7000540">
        <ele>564.7</ele>
        <time>2018-09-15T17:31:37Z</time>
      </trkpt>
      <trkpt lat="-24.7084600" lon="-53.7000210">
        <ele>564.6</ele>
        <time>2018-09-15T17:31:38Z</time>
      </trkpt>
      <trkpt lat="-24.7084030" lon="-53.6999900">
        <ele>564.6</ele>
        <time>2018-09-15T17:31:39Z</time>
      </trkpt>
      <trkpt lat="-24.7083460" lon="-53.6999590">
        <ele>564.6</ele>
        <time>2018-09-15T17:31:40Z</time>
      </trkpt>
      <trkpt lat="-24.7082880" lon="-53.6999270">
        <ele>564.5</ele>
        <time>2018-09-15T17:31:41Z</time>
      </trkpt>
      <trkpt lat="-24.7082310" lon="-53.6998930">
        <ele>564.5</ele>
        <time>2018-09-15T17:31:42Z</time>
      </trkpt>
      <trkpt lat="-24.7081730" lon="-53.6998590">
        <ele>564.4</ele>
        <time>2018-09-15T17:31:43Z</time>
      </trkpt>
      <trkpt lat="-24.7081140" lon="-53.6998250">
        <ele>564.3</ele>
        <time>2018-09-15T17:31:44Z</time>
      </trkpt>
      <trkpt lat="-24.7080550" lon="-53.6997920">
        <ele>564.1</ele>
        <time>2018-09-15T17:31:45Z</time>
      </trkpt>
      <trkpt lat="-24.7079330" lon="-53.6997240">
        <ele>563.7</ele>
        <time>2018-09-15T17:31:47Z</time>
      </trkpt>
      <trkpt lat="-24.7078720" lon="-53.6996900">
        <ele>563.6</ele>
        <time>2018-09-15T17:31:48Z</time>
      </trkpt>
      <trkpt lat="-24.7078090" lon="-53.6996550">
        <ele>563.5</ele>
        <time>2018-09-15T17:31:49Z</time>
      </trkpt>
      <trkpt lat="-24.7077470" lon="-53.6996220">
        <ele>563.5</ele>
        <time>2018-09-15T17:31:50Z</time>
      </trkpt>
      <trkpt lat="-24.7076840" lon="-53.6995880">
        <ele>563.4</ele>
        <time>2018-09-15T17:31:51Z</time>
      </trkpt>
      <trkpt lat="-24.7076230" lon="-53.6995530">
        <ele>563.4</ele>
        <time>2018-09-15T17:31:52Z</time>
      </trkpt>
      <trkpt lat="-24.7075610" lon="-53.6995170">
        <ele>563.4</ele>
        <time>2018-09-15T17:31:53Z</time>
      </trkpt>
      <trkpt lat="-24.7075000" lon="-53.6994820">
        <ele>563.4</ele>
        <time>2018-09-15T17:31:54Z</time>
      </trkpt>
      <trkpt lat="-24.7074380" lon="-53.6994470">
        <ele>563.4</ele>
        <time>2018-09-15T17:31:55Z</time>
      </trkpt>
      <trkpt lat="-24.7073770" lon="-53.6994120">
        <ele>563.4</ele>
        <time>2018-09-15T17:31:56Z</time>
      </trkpt>
      <trkpt lat="-24.7073150" lon="-53.6993790">
        <ele>563.4</ele>
        <time>2018-09-15T17:31:57Z</time>
      </trkpt>
      <trkpt lat="-24.7072530" lon="-53.6993450">
        <ele>563.3</ele>
        <time>2018-09-15T17:31:58Z</time>
      </trkpt>
      <trkpt lat="-24.7071930" lon="-53.6993110">
        <ele>563.3</ele>
        <time>2018-09-15T17:31:59Z</time>
      </trkpt>
      <trkpt lat="-24.7071310" lon="-53.6992760">
        <ele>563.3</ele>
        <time>2018-09-15T17:32:00Z</time>
      </trkpt>
      <trkpt lat="-24.7070690" lon="-53.6992400">
        <ele>563.3</ele>
        <time>2018-09-15T17:32:01Z</time>
      </trkpt>
      <trkpt lat="-24.7070070" lon="-53.6992040">
        <ele>563.3</ele>
        <time>2018-09-15T17:32:02Z</time>
      </trkpt>
      <trkpt lat="-24.7069440" lon="-53.6991690">
        <ele>563.2</ele>
        <time>2018-09-15T17:32:03Z</time>
      </trkpt>
      <trkpt lat="-24.7068810" lon="-53.6991350">
        <ele>563.1</ele>
        <time>2018-09-15T17:32:04Z</time>
      </trkpt>
      <trkpt lat="-24.7068190" lon="-53.6991010">
        <ele>562.9</ele>
        <time>2018-09-15T17:32:05Z</time>
      </trkpt>
      <trkpt lat="-24.7068190" lon="-53.6991010">
        <ele>562.9</ele>
        <time>2018-09-15T17:32:06Z</time>
      </trkpt>
      <trkpt lat="-24.7067570" lon="-53.6990660">
        <ele>562.3</ele>
        <time>2018-09-15T17:32:07Z</time>
      </trkpt>
      <trkpt lat="-24.7067000" lon="-53.6990260">
        <ele>561.8</ele>
        <time>2018-09-15T17:32:08Z</time>
      </trkpt>
      <trkpt lat="-24.7066460" lon="-53.6989820">
        <ele>561.3</ele>
        <time>2018-09-15T17:32:09Z</time>
      </trkpt>
      <trkpt lat="-24.7065940" lon="-53.6989370">
        <ele>560.7</ele>
        <time>2018-09-15T17:32:10Z</time>
      </trkpt>
      <trkpt lat="-24.7065490" lon="-53.6988840">
        <ele>560.2</ele>
        <time>2018-09-15T17:32:11Z</time>
      </trkpt>
      <trkpt lat="-24.7065140" lon="-53.6988270">
        <ele>560.1</ele>
        <time>2018-09-15T17:32:12Z</time>
      </trkpt>
      <trkpt lat="-24.7064850" lon="-53.6987690">
        <ele>560.2</ele>
        <time>2018-09-15T17:32:13Z</time>
      </trkpt>
      <trkpt lat="-24.7064650" lon="-53.6987120">
        <ele>560.3</ele>
        <time>2018-09-15T17:32:14Z</time>
      </trkpt>
      <trkpt lat="-24.7064470" lon="-53.6986590">
        <ele>560.4</ele>
        <time>2018-09-15T17:32:15Z</time>
      </trkpt>
      <trkpt lat="-24.7064350" lon="-53.6986090">
        <ele>560.4</ele>
        <time>2018-09-15T17:32:16Z</time>
      </trkpt>
      <trkpt lat="-24.7064220" lon="-53.6985630">
        <ele>560.5</ele>
        <time>2018-09-15T17:32:17Z</time>
      </trkpt>
      <trkpt lat="-24.7064060" lon="-53.6985200">
        <ele>560.6</ele>
        <time>2018-09-15T17:32:18Z</time>
      </trkpt>
      <trkpt lat="-24.7063900" lon="-53.6984800">
        <ele>560.6</ele>
        <time>2018-09-15T17:32:19Z</time>
      </trkpt>
      <trkpt lat="-24.7063770" lon="-53.6984430">
        <ele>560.7</ele>
        <time>2018-09-15T17:32:20Z</time>
      </trkpt>
      <trkpt lat="-24.7063650" lon="-53.6984070">
        <ele>560.8</ele>
        <time>2018-09-15T17:32:21Z</time>
      </trkpt>
      <trkpt lat="-24.7063550" lon="-53.6983730">
        <ele>560.8</ele>
        <time>2018-09-15T17:32:22Z</time>
      </trkpt>
      <trkpt lat="-24.7063460" lon="-53.6983420">
        <ele>560.9</ele>
        <time>2018-09-15T17:32:23Z</time>
      </trkpt>
      <trkpt lat="-24.7063360" lon="-53.6983140">
        <ele>560.9</ele>
        <time>2018-09-15T17:32:24Z</time>
      </trkpt>
      <trkpt lat="-24.7063280" lon="-53.6982860">
        <ele>561.0</ele>
        <time>2018-09-15T17:32:25Z</time>
      </trkpt>
      <trkpt lat="-24.7063200" lon="-53.6982600">
        <ele>561.0</ele>
        <time>2018-09-15T17:32:26Z</time>
      </trkpt>
      <trkpt lat="-24.7063100" lon="-53.6982350">
        <ele>561.1</ele>
        <time>2018-09-15T17:32:27Z</time>
      </trkpt>
      <trkpt lat="-24.7063000" lon="-53.6982120">
        <ele>561.1</ele>
        <time>2018-09-15T17:32:28Z</time>
      </trkpt>
      <trkpt lat="-24.7062880" lon="-53.6981910">
        <ele>561.2</ele>
        <time>2018-09-15T17:32:29Z</time>
      </trkpt>
      <trkpt lat="-24.7062810" lon="-53.6981780">
        <ele>561.2</ele>
        <time>2018-09-15T17:32:30Z</time>
      </trkpt>
      <trkpt lat="-24.7062770" lon="-53.6981740">
        <ele>561.2</ele>
        <time>2018-09-15T17:32:31Z</time>
      </trkpt>
      <trkpt lat="-24.7062760" lon="-53.6981730">
        <ele>561.2</ele>
        <time>2018-09-15T17:32:32Z</time>
      </trkpt>
      <trkpt lat="-24.7062750" lon="-53.6981740">
        <ele>561.2</ele>
        <time>2018-09-15T17:32:33Z</time>
      </trkpt>
      <trkpt lat="-24.7062660" lon="-53.6981750">
        <ele>561.3</ele>
        <time>2018-09-15T17:35:16Z</time>
      </trkpt>
      <trkpt lat="-24.7062630" lon="-53.6981720">
        <ele>561.3</ele>
        <time>2018-09-15T17:35:17Z</time>
      </trkpt>
      <trkpt lat="-24.7062620" lon="-53.6981700">
        <ele>561.3</ele>
        <time>2018-09-15T17:35:18Z</time>
      </trkpt>
      <trkpt lat="-24.7062600" lon="-53.6981710">
        <ele>561.3</ele>
        <time>2018-09-15T17:35:19Z</time>
      </trkpt>
      <trkpt lat="-24.7062620" lon="-53.6981630">
        <ele>561.3</ele>
        <time>2018-09-15T17:35:20Z</time>
      </trkpt>
      <trkpt lat="-24.7062640" lon="-53.6981550">
        <ele>561.3</ele>
        <time>2018-09-15T17:35:21Z</time>
      </trkpt>
      <trkpt lat="-24.7062670" lon="-53.6981520">
        <ele>561.3</ele>
        <time>2018-09-15T17:35:22Z</time>
      </trkpt>
      <trkpt lat="-24.7062630" lon="-53.6981590">
        <ele>561.3</ele>
        <time>2018-09-15T17:35:23Z</time>
      </trkpt>
      <trkpt lat="-24.7062730" lon="-53.6981560">
        <ele>561.4</ele>
        <time>2018-09-15T17:35:24Z</time>
      </trkpt>
      <trkpt lat="-24.7062610" lon="-53.6981610">
        <ele>561.4</ele>
        <time>2018-09-15T17:35:25Z</time>
      </trkpt>
      <trkpt lat="-24.7062610" lon="-53.6981660">
        <ele>561.4</ele>
        <time>2018-09-15T17:35:26Z</time>
      </trkpt>
      <trkpt lat="-24.7062710" lon="-53.6981650">
        <ele>561.4</ele>
        <time>2018-09-15T17:35:50Z</time>
      </trkpt>
      <trkpt lat="-24.7062650" lon="-53.6981530">
        <ele>561.5</ele>
        <time>2018-09-15T17:35:51Z</time>
      </trkpt>
      <trkpt lat="-24.7062560" lon="-53.6981350">
        <ele>561.5</ele>
        <time>2018-09-15T17:35:52Z</time>
      </trkpt>
      <trkpt lat="-24.7062430" lon="-53.6981150">
        <ele>561.6</ele>
        <time>2018-09-15T17:35:53Z</time>
      </trkpt>
      <trkpt lat="-24.7062330" lon="-53.6980900">
        <ele>561.6</ele>
        <time>2018-09-15T17:35:54Z</time>
      </trkpt>
      <trkpt lat="-24.7062210" lon="-53.6980600">
        <ele>561.7</ele>
        <time>2018-09-15T17:35:55Z</time>
      </trkpt>
      <trkpt lat="-24.7062060" lon="-53.6980250">
        <ele>561.7</ele>
        <time>2018-09-15T17:35:56Z</time>
      </trkpt>
      <trkpt lat="-24.7061910" lon="-53.6979890">
        <ele>561.8</ele>
        <time>2018-09-15T17:35:57Z</time>
      </trkpt>
      <trkpt lat="-24.7061910" lon="-53.6979890">
        <ele>561.8</ele>
        <time>2018-09-15T17:35:58Z</time>
      </trkpt>
      <trkpt lat="-24.7061600" lon="-53.6979150">
        <ele>561.9</ele>
        <time>2018-09-15T17:35:59Z</time>
      </trkpt>
      <trkpt lat="-24.7061450" lon="-53.6978770">
        <ele>562.0</ele>
        <time>2018-09-15T17:36:00Z</time>
      </trkpt>
      <trkpt lat="-24.7061280" lon="-53.6978390">
        <ele>562.1</ele>
        <time>2018-09-15T17:36:01Z</time>
      </trkpt>
      <trkpt lat="-24.7061280" lon="-53.6978390">
        <ele>562.1</ele>
        <time>2018-09-15T17:36:02Z</time>
      </trkpt>
      <trkpt lat="-24.7061100" lon="-53.6978000">
        <ele>562.2</ele>
        <time>2018-09-15T17:36:03Z</time>
      </trkpt>
      <trkpt lat="-24.7060920" lon="-53.6977620">
        <ele>562.2</ele>
        <time>2018-09-15T17:36:04Z</time>
      </trkpt>
      <trkpt lat="-24.7060720" lon="-53.6977240">
        <ele>562.3</ele>
        <time>2018-09-15T17:36:05Z</time>
      </trkpt>
      <trkpt lat="-24.7060530" lon="-53.6976860">
        <ele>562.4</ele>
        <time>2018-09-15T17:36:06Z</time>
      </trkpt>
      <trkpt lat="-24.7060360" lon="-53.6976480">
        <ele>562.5</ele>
        <time>2018-09-15T17:36:07Z</time>
      </trkpt>
      <trkpt lat="-24.7060190" lon="-53.6976080">
        <ele>562.6</ele>
        <time>2018-09-15T17:36:08Z</time>
      </trkpt>
      <trkpt lat="-24.7060010" lon="-53.6975680">
        <ele>562.7</ele>
        <time>2018-09-15T17:36:09Z</time>
      </trkpt>
      <trkpt lat="-24.7059840" lon="-53.6975270">
        <ele>562.8</ele>
        <time>2018-09-15T17:36:10Z</time>
      </trkpt>
      <trkpt lat="-24.7059670" lon="-53.6974860">
        <ele>562.9</ele>
        <time>2018-09-15T17:36:11Z</time>
      </trkpt>
      <trkpt lat="-24.7059500" lon="-53.6974450">
        <ele>563.0</ele>
        <time>2018-09-15T17:36:12Z</time>
      </trkpt>
      <trkpt lat="-24.7059340" lon="-53.6974050">
        <ele>563.1</ele>
        <time>2018-09-15T17:36:13Z</time>
      </trkpt>
      <trkpt lat="-24.7059180" lon="-53.6973650">
        <ele>563.2</ele>
        <time>2018-09-15T17:36:14Z</time>
      </trkpt>
      <trkpt lat="-24.7059010" lon="-53.6973250">
        <ele>563.3</ele>
        <time>2018-09-15T17:36:15Z</time>
      </trkpt>
      <trkpt lat="-24.7058820" lon="-53.6972870">
        <ele>563.4</ele>
        <time>2018-09-15T17:36:16Z</time>
      </trkpt>
      <trkpt lat="-24.7058640" lon="-53.6972490">
        <ele>563.4</ele>
        <time>2018-09-15T17:36:17Z</time>
      </trkpt>
      <trkpt lat="-24.7058460" lon="-53.6972120">
        <ele>563.5</ele>
        <time>2018-09-15T17:36:18Z</time>
      </trkpt>
      <trkpt lat="-24.7058290" lon="-53.6971730">
        <ele>563.5</ele>
        <time>2018-09-15T17:36:19Z</time>
      </trkpt>
      <trkpt lat="-24.7058110" lon="-53.6971350">
        <ele>563.6</ele>
        <time>2018-09-15T17:36:20Z</time>
      </trkpt>
      <trkpt lat="-24.7057930" lon="-53.6970970">
        <ele>563.6</ele>
        <time>2018-09-15T17:36:21Z</time>
      </trkpt>
      <trkpt lat="-24.7057750" lon="-53.6970590">
        <ele>563.6</ele>
        <time>2018-09-15T17:36:22Z</time>
      </trkpt>
      <trkpt lat="-24.7057580" lon="-53.6970190">
        <ele>563.7</ele>
        <time>2018-09-15T17:36:23Z</time>
      </trkpt>
      <trkpt lat="-24.7057430" lon="-53.6969800">
        <ele>563.7</ele>
        <time>2018-09-15T17:36:24Z</time>
      </trkpt>
      <trkpt lat="-24.7057270" lon="-53.6969420">
        <ele>563.7</ele>
        <time>2018-09-15T17:36:25Z</time>
      </trkpt>
      <trkpt lat="-24.7057110" lon="-53.6969040">
        <ele>563.8</ele>
        <time>2018-09-15T17:36:26Z</time>
      </trkpt>
      <trkpt lat="-24.7056940" lon="-53.6968670">
        <ele>563.8</ele>
        <time>2018-09-15T17:36:27Z</time>
      </trkpt>
      <trkpt lat="-24.7056790" lon="-53.6968290">
        <ele>563.8</ele>
        <time>2018-09-15T17:36:28Z</time>
      </trkpt>
      <trkpt lat="-24.7056640" lon="-53.6967920">
        <ele>563.8</ele>
        <time>2018-09-15T17:36:29Z</time>
      </trkpt>
      <trkpt lat="-24.7056500" lon="-53.6967540">
        <ele>563.9</ele>
        <time>2018-09-15T17:36:30Z</time>
      </trkpt>
      <trkpt lat="-24.7056380" lon="-53.6967170">
        <ele>563.9</ele>
        <time>2018-09-15T17:36:31Z</time>
      </trkpt>
      <trkpt lat="-24.7056250" lon="-53.6966810">
        <ele>563.9</ele>
        <time>2018-09-15T17:36:32Z</time>
      </trkpt>
      <trkpt lat="-24.7056120" lon="-53.6966440">
        <ele>564.0</ele>
        <time>2018-09-15T17:36:33Z</time>
      </trkpt>
      <trkpt lat="-24.7056010" lon="-53.6966060">
        <ele>564.0</ele>
        <time>2018-09-15T17:36:34Z</time>
      </trkpt>
      <trkpt lat="-24.7055890" lon="-53.6965680">
        <ele>564.1</ele>
        <time>2018-09-15T17:36:35Z</time>
      </trkpt>
      <trkpt lat="-24.7055760" lon="-53.6965300">
        <ele>564.1</ele>
        <time>2018-09-15T17:36:36Z</time>
      </trkpt>
      <trkpt lat="-24.7055620" lon="-53.6964900">
        <ele>564.2</ele>
        <time>2018-09-15T17:36:37Z</time>
      </trkpt>
      <trkpt lat="-24.7055470" lon="-53.6964500">
        <ele>564.2</ele>
        <time>2018-09-15T17:36:38Z</time>
      </trkpt>
      <trkpt lat="-24.7055290" lon="-53.6964100">
        <ele>564.2</ele>
        <time>2018-09-15T17:36:39Z</time>
      </trkpt>
      <trkpt lat="-24.7055100" lon="-53.6963690">
        <ele>564.3</ele>
        <time>2018-09-15T17:36:40Z</time>
      </trkpt>
      <trkpt lat="-24.7054920" lon="-53.6963280">
        <ele>564.4</ele>
        <time>2018-09-15T17:36:41Z</time>
      </trkpt>
      <trkpt lat="-24.7054740" lon="-53.6962860">
        <ele>564.4</ele>
        <time>2018-09-15T17:36:42Z</time>
      </trkpt>
      <trkpt lat="-24.7054560" lon="-53.6962440">
        <ele>564.5</ele>
        <time>2018-09-15T17:36:43Z</time>
      </trkpt>
      <trkpt lat="-24.7054360" lon="-53.6962030">
        <ele>564.6</ele>
        <time>2018-09-15T17:36:44Z</time>
      </trkpt>
      <trkpt lat="-24.7054190" lon="-53.6961630">
        <ele>564.7</ele>
        <time>2018-09-15T17:36:45Z</time>
      </trkpt>
      <trkpt lat="-24.7054030" lon="-53.6961220">
        <ele>564.8</ele>
        <time>2018-09-15T17:36:46Z</time>
      </trkpt>
      <trkpt lat="-24.7053870" lon="-53.6960820">
        <ele>565.0</ele>
        <time>2018-09-15T17:36:47Z</time>
      </trkpt>
      <trkpt lat="-24.7053700" lon="-53.6960430">
        <ele>565.1</ele>
        <time>2018-09-15T17:36:48Z</time>
      </trkpt>
      <trkpt lat="-24.7053520" lon="-53.6960050">
        <ele>565.2</ele>
        <time>2018-09-15T17:36:49Z</time>
      </trkpt>
      <trkpt lat="-24.7053350" lon="-53.6959660">
        <ele>565.4</ele>
        <time>2018-09-15T17:36:50Z</time>
      </trkpt>
      <trkpt lat="-24.7053170" lon="-53.6959260">
        <ele>565.5</ele>
        <time>2018-09-15T17:36:51Z</time>
      </trkpt>
      <trkpt lat="-24.7053000" lon="-53.6958860">
        <ele>565.7</ele>
        <time>2018-09-15T17:36:52Z</time>
      </trkpt>
      <trkpt lat="-24.7052830" lon="-53.6958460">
        <ele>565.8</ele>
        <time>2018-09-15T17:36:53Z</time>
      </trkpt>
      <trkpt lat="-24.7052660" lon="-53.6958060">
        <ele>565.9</ele>
        <time>2018-09-15T17:36:54Z</time>
      </trkpt>
      <trkpt lat="-24.7052480" lon="-53.6957660">
        <ele>566.0</ele>
        <time>2018-09-15T17:36:55Z</time>
      </trkpt>
      <trkpt lat="-24.7052300" lon="-53.6957250">
        <ele>566.1</ele>
        <time>2018-09-15T17:36:56Z</time>
      </trkpt>
      <trkpt lat="-24.7052130" lon="-53.6956840">
        <ele>566.1</ele>
        <time>2018-09-15T17:36:57Z</time>
      </trkpt>
      <trkpt lat="-24.7051970" lon="-53.6956430">
        <ele>566.2</ele>
        <time>2018-09-15T17:36:58Z</time>
      </trkpt>
      <trkpt lat="-24.7051800" lon="-53.6956020">
        <ele>566.2</ele>
        <time>2018-09-15T17:36:59Z</time>
      </trkpt>
      <trkpt lat="-24.7051620" lon="-53.6955620">
        <ele>566.3</ele>
        <time>2018-09-15T17:37:00Z</time>
      </trkpt>
      <trkpt lat="-24.7051450" lon="-53.6955220">
        <ele>566.3</ele>
        <time>2018-09-15T17:37:01Z</time>
      </trkpt>
      <trkpt lat="-24.7051280" lon="-53.6954820">
        <ele>566.3</ele>
        <time>2018-09-15T17:37:02Z</time>
      </trkpt>
      <trkpt lat="-24.7051110" lon="-53.6954420">
        <ele>566.4</ele>
        <time>2018-09-15T17:37:03Z</time>
      </trkpt>
      <trkpt lat="-24.7050930" lon="-53.6954020">
        <ele>566.4</ele>
        <time>2018-09-15T17:37:04Z</time>
      </trkpt>
      <trkpt lat="-24.7050750" lon="-53.6953610">
        <ele>566.4</ele>
        <time>2018-09-15T17:37:05Z</time>
      </trkpt>
      <trkpt lat="-24.7050570" lon="-53.6953190">
        <ele>566.5</ele>
        <time>2018-09-15T17:37:06Z</time>
      </trkpt>
      <trkpt lat="-24.7050390" lon="-53.6952770">
        <ele>566.5</ele>
        <time>2018-09-15T17:37:07Z</time>
      </trkpt>
      <trkpt lat="-24.7050210" lon="-53.6952350">
        <ele>566.5</ele>
        <time>2018-09-15T17:37:08Z</time>
      </trkpt>
      <trkpt lat="-24.7050020" lon="-53.6951930">
        <ele>566.6</ele>
        <time>2018-09-15T17:37:09Z</time>
      </trkpt>
      <trkpt lat="-24.7049820" lon="-53.6951490">
        <ele>566.6</ele>
        <time>2018-09-15T17:37:10Z</time>
      </trkpt>
      <trkpt lat="-24.7049630" lon="-53.6951040">
        <ele>566.6</ele>
        <time>2018-09-15T17:37:11Z</time>
      </trkpt>
      <trkpt lat="-24.7049440" lon="-53.6950580">
        <ele>566.6</ele>
        <time>2018-09-15T17:37:12Z</time>
      </trkpt>
      <trkpt lat="-24.7049240" lon="-53.6950120">
        <ele>566.7</ele>
        <time>2018-09-15T17:37:13Z</time>
      </trkpt>
      <trkpt lat="-24.7049030" lon="-53.6949650">
        <ele>566.7</ele>
        <time>2018-09-15T17:37:14Z</time>
      </trkpt>
      <trkpt lat="-24.7048820" lon="-53.6949180">
        <ele>566.7</ele>
        <time>2018-09-15T17:37:15Z</time>
      </trkpt>
      <trkpt lat="-24.7048610" lon="-53.6948700">
        <ele>566.7</ele>
        <time>2018-09-15T17:37:16Z</time>
      </trkpt>
      <trkpt lat="-24.7048400" lon="-53.6948210">
        <ele>566.7</ele>
        <time>2018-09-15T17:37:17Z</time>
      </trkpt>
      <trkpt lat="-24.7048190" lon="-53.6947710">
        <ele>566.8</ele>
        <time>2018-09-15T17:37:18Z</time>
      </trkpt>
      <trkpt lat="-24.7047980" lon="-53.6947210">
        <ele>566.8</ele>
        <time>2018-09-15T17:37:19Z</time>
      </trkpt>
      <trkpt lat="-24.7047740" lon="-53.6946710">
        <ele>566.8</ele>
        <time>2018-09-15T17:37:20Z</time>
      </trkpt>
      <trkpt lat="-24.7047500" lon="-53.6946210">
        <ele>566.8</ele>
        <time>2018-09-15T17:37:21Z</time>
      </trkpt>
      <trkpt lat="-24.7047270" lon="-53.6945710">
        <ele>566.8</ele>
        <time>2018-09-15T17:37:22Z</time>
      </trkpt>
      <trkpt lat="-24.7047060" lon="-53.6945200">
        <ele>566.8</ele>
        <time>2018-09-15T17:37:23Z</time>
      </trkpt>
      <trkpt lat="-24.7046850" lon="-53.6944690">
        <ele>566.8</ele>
        <time>2018-09-15T17:37:24Z</time>
      </trkpt>
      <trkpt lat="-24.7046630" lon="-53.6944180">
        <ele>566.8</ele>
        <time>2018-09-15T17:37:25Z</time>
      </trkpt>
      <trkpt lat="-24.7046420" lon="-53.6943680">
        <ele>566.9</ele>
        <time>2018-09-15T17:37:26Z</time>
      </trkpt>
      <trkpt lat="-24.7046200" lon="-53.6943160">
        <ele>566.9</ele>
        <time>2018-09-15T17:37:27Z</time>
      </trkpt>
      <trkpt lat="-24.7045970" lon="-53.6942640">
        <ele>566.9</ele>
        <time>2018-09-15T17:37:28Z</time>
      </trkpt>
      <trkpt lat="-24.7045740" lon="-53.6942130">
        <ele>566.9</ele>
        <time>2018-09-15T17:37:29Z</time>
      </trkpt>
      <trkpt lat="-24.7045510" lon="-53.6941610">
        <ele>566.9</ele>
        <time>2018-09-15T17:37:30Z</time>
      </trkpt>
      <trkpt lat="-24.7045290" lon="-53.6941090">
        <ele>566.9</ele>
        <time>2018-09-15T17:37:31Z</time>
      </trkpt>
      <trkpt lat="-24.7045070" lon="-53.6940570">
        <ele>566.9</ele>
        <time>2018-09-15T17:37:32Z</time>
      </trkpt>
      <trkpt lat="-24.7044850" lon="-53.6940040">
        <ele>566.9</ele>
        <time>2018-09-15T17:37:33Z</time>
      </trkpt>
      <trkpt lat="-24.7044620" lon="-53.6939530">
        <ele>566.9</ele>
        <time>2018-09-15T17:37:34Z</time>
      </trkpt>
      <trkpt lat="-24.7044390" lon="-53.6939020">
        <ele>566.9</ele>
        <time>2018-09-15T17:37:35Z</time>
      </trkpt>
      <trkpt lat="-24.7044160" lon="-53.6938500">
        <ele>567.0</ele>
        <time>2018-09-15T17:37:36Z</time>
      </trkpt>
      <trkpt lat="-24.7043930" lon="-53.6937980">
        <ele>567.0</ele>
        <time>2018-09-15T17:37:37Z</time>
      </trkpt>
      <trkpt lat="-24.7043690" lon="-53.6937460">
        <ele>567.0</ele>
        <time>2018-09-15T17:37:38Z</time>
      </trkpt>
      <trkpt lat="-24.7043440" lon="-53.6936940">
        <ele>567.0</ele>
        <time>2018-09-15T17:37:39Z</time>
      </trkpt>
      <trkpt lat="-24.7043220" lon="-53.6936410">
        <ele>567.0</ele>
        <time>2018-09-15T17:37:40Z</time>
      </trkpt>
      <trkpt lat="-24.7042980" lon="-53.6935890">
        <ele>566.9</ele>
        <time>2018-09-15T17:37:41Z</time>
      </trkpt>
      <trkpt lat="-24.7042750" lon="-53.6935380">
        <ele>566.9</ele>
        <time>2018-09-15T17:37:42Z</time>
      </trkpt>
      <trkpt lat="-24.7042510" lon="-53.6934870">
        <ele>566.8</ele>
        <time>2018-09-15T17:37:43Z</time>
      </trkpt>
      <trkpt lat="-24.7042270" lon="-53.6934350">
        <ele>566.8</ele>
        <time>2018-09-15T17:37:44Z</time>
      </trkpt>
      <trkpt lat="-24.7042030" lon="-53.6933830">
        <ele>566.7</ele>
        <time>2018-09-15T17:37:45Z</time>
      </trkpt>
      <trkpt lat="-24.7041800" lon="-53.6933300">
        <ele>566.6</ele>
        <time>2018-09-15T17:37:46Z</time>
      </trkpt>
      <trkpt lat="-24.7041560" lon="-53.6932770">
        <ele>566.6</ele>
        <time>2018-09-15T17:37:47Z</time>
      </trkpt>
      <trkpt lat="-24.7041310" lon="-53.6932230">
        <ele>566.5</ele>
        <time>2018-09-15T17:37:48Z</time>
      </trkpt>
      <trkpt lat="-24.7041070" lon="-53.6931700">
        <ele>566.4</ele>
        <time>2018-09-15T17:37:49Z</time>
      </trkpt>
      <trkpt lat="-24.7040830" lon="-53.6931160">
        <ele>566.3</ele>
        <time>2018-09-15T17:37:50Z</time>
      </trkpt>
      <trkpt lat="-24.7040610" lon="-53.6930620">
        <ele>566.2</ele>
        <time>2018-09-15T17:37:51Z</time>
      </trkpt>
      <trkpt lat="-24.7040370" lon="-53.6930080">
        <ele>566.1</ele>
        <time>2018-09-15T17:37:52Z</time>
      </trkpt>
      <trkpt lat="-24.7040110" lon="-53.6929520">
        <ele>566.0</ele>
        <time>2018-09-15T17:37:53Z</time>
      </trkpt>
      <trkpt lat="-24.7039850" lon="-53.6928950">
        <ele>565.9</ele>
        <time>2018-09-15T17:37:54Z</time>
      </trkpt>
      <trkpt lat="-24.7039590" lon="-53.6928370">
        <ele>565.8</ele>
        <time>2018-09-15T17:37:55Z</time>
      </trkpt>
      <trkpt lat="-24.7039320" lon="-53.6927770">
        <ele>565.7</ele>
        <time>2018-09-15T17:37:56Z</time>
      </trkpt>
      <trkpt lat="-24.7039070" lon="-53.6927190">
        <ele>565.6</ele>
        <time>2018-09-15T17:37:57Z</time>
      </trkpt>
      <trkpt lat="-24.7038840" lon="-53.6926600">
        <ele>565.5</ele>
        <time>2018-09-15T17:37:58Z</time>
      </trkpt>
      <trkpt lat="-24.7038620" lon="-53.6926030">
        <ele>565.4</ele>
        <time>2018-09-15T17:37:59Z</time>
      </trkpt>
      <trkpt lat="-24.7038370" lon="-53.6925450">
        <ele>565.3</ele>
        <time>2018-09-15T17:38:00Z</time>
      </trkpt>
      <trkpt lat="-24.7038100" lon="-53.6924850">
        <ele>565.2</ele>
        <time>2018-09-15T17:38:01Z</time>
      </trkpt>
      <trkpt lat="-24.7037830" lon="-53.6924230">
        <ele>565.1</ele>
        <time>2018-09-15T17:38:02Z</time>
      </trkpt>
      <trkpt lat="-24.7037570" lon="-53.6923600">
        <ele>565.0</ele>
        <time>2018-09-15T17:38:03Z</time>
      </trkpt>
      <trkpt lat="-24.7037290" lon="-53.6922980">
        <ele>564.9</ele>
        <time>2018-09-15T17:38:04Z</time>
      </trkpt>
      <trkpt lat="-24.7037020" lon="-53.6922360">
        <ele>564.6</ele>
        <time>2018-09-15T17:38:05Z</time>
      </trkpt>
      <trkpt lat="-24.7036760" lon="-53.6921740">
        <ele>564.3</ele>
        <time>2018-09-15T17:38:06Z</time>
      </trkpt>
      <trkpt lat="-24.7036500" lon="-53.6921130">
        <ele>564.0</ele>
        <time>2018-09-15T17:38:07Z</time>
      </trkpt>
      <trkpt lat="-24.7036250" lon="-53.6920500">
        <ele>563.8</ele>
        <time>2018-09-15T17:38:08Z</time>
      </trkpt>
      <trkpt lat="-24.7035980" lon="-53.6919870">
        <ele>563.5</ele>
        <time>2018-09-15T17:38:09Z</time>
      </trkpt>
      <trkpt lat="-24.7035700" lon="-53.6919220">
        <ele>563.3</ele>
        <time>2018-09-15T17:38:10Z</time>
      </trkpt>
      <trkpt lat="-24.7035420" lon="-53.6918560">
        <ele>563.2</ele>
        <time>2018-09-15T17:38:11Z</time>
      </trkpt>
      <trkpt lat="-24.7035140" lon="-53.6917900">
        <ele>563.0</ele>
        <time>2018-09-15T17:38:12Z</time>
      </trkpt>
      <trkpt lat="-24.7034850" lon="-53.6917230">
        <ele>562.9</ele>
        <time>2018-09-15T17:38:13Z</time>
      </trkpt>
      <trkpt lat="-24.7034570" lon="-53.6916560">
        <ele>562.7</ele>
        <time>2018-09-15T17:38:14Z</time>
      </trkpt>
      <trkpt lat="-24.7034280" lon="-53.6915900">
        <ele>562.6</ele>
        <time>2018-09-15T17:38:15Z</time>
      </trkpt>
      <trkpt lat="-24.7033970" lon="-53.6915230">
        <ele>562.4</ele>
        <time>2018-09-15T17:38:16Z</time>
      </trkpt>
      <trkpt lat="-24.7033680" lon="-53.6914540">
        <ele>562.2</ele>
        <time>2018-09-15T17:38:17Z</time>
      </trkpt>
      <trkpt lat="-24.7033370" lon="-53.6913860">
        <ele>562.0</ele>
        <time>2018-09-15T17:38:18Z</time>
      </trkpt>
      <trkpt lat="-24.7033080" lon="-53.6913170">
        <ele>561.9</ele>
        <time>2018-09-15T17:38:19Z</time>
      </trkpt>
      <trkpt lat="-24.7032780" lon="-53.6912470">
        <ele>561.7</ele>
        <time>2018-09-15T17:38:20Z</time>
      </trkpt>
      <trkpt lat="-24.7032470" lon="-53.6911760">
        <ele>561.7</ele>
        <time>2018-09-15T17:38:21Z</time>
      </trkpt>
      <trkpt lat="-24.7032150" lon="-53.6911030">
        <ele>561.6</ele>
        <time>2018-09-15T17:38:22Z</time>
      </trkpt>
      <trkpt lat="-24.7031840" lon="-53.6910290">
        <ele>561.5</ele>
        <time>2018-09-15T17:38:23Z</time>
      </trkpt>
      <trkpt lat="-24.7031520" lon="-53.6909550">
        <ele>561.5</ele>
        <time>2018-09-15T17:38:24Z</time>
      </trkpt>
      <trkpt lat="-24.7031200" lon="-53.6908810">
        <ele>561.4</ele>
        <time>2018-09-15T17:38:25Z</time>
      </trkpt>
      <trkpt lat="-24.7030870" lon="-53.6908060">
        <ele>561.3</ele>
        <time>2018-09-15T17:38:26Z</time>
      </trkpt>
      <trkpt lat="-24.7030560" lon="-53.6907300">
        <ele>561.2</ele>
        <time>2018-09-15T17:38:27Z</time>
      </trkpt>
      <trkpt lat="-24.7030240" lon="-53.6906530">
        <ele>560.9</ele>
        <time>2018-09-15T17:38:28Z</time>
      </trkpt>
      <trkpt lat="-24.7029900" lon="-53.6905760">
        <ele>560.7</ele>
        <time>2018-09-15T17:38:29Z</time>
      </trkpt>
      <trkpt lat="-24.7029560" lon="-53.6904990">
        <ele>560.3</ele>
        <time>2018-09-15T17:38:30Z</time>
      </trkpt>
      <trkpt lat="-24.7029220" lon="-53.6904200">
        <ele>560.0</ele>
        <time>2018-09-15T17:38:31Z</time>
      </trkpt>
      <trkpt lat="-24.7028870" lon="-53.6903410">
        <ele>559.6</ele>
        <time>2018-09-15T17:38:32Z</time>
      </trkpt>
      <trkpt lat="-24.7028510" lon="-53.6902620">
        <ele>559.3</ele>
        <time>2018-09-15T17:38:33Z</time>
      </trkpt>
      <trkpt lat="-24.7028140" lon="-53.6901850">
        <ele>558.9</ele>
        <time>2018-09-15T17:38:34Z</time>
      </trkpt>
      <trkpt lat="-24.7027770" lon="-53.6901080">
        <ele>558.3</ele>
        <time>2018-09-15T17:38:35Z</time>
      </trkpt>
      <trkpt lat="-24.7027390" lon="-53.6900310">
        <ele>557.7</ele>
        <time>2018-09-15T17:38:36Z</time>
      </trkpt>
      <trkpt lat="-24.7027010" lon="-53.6899540">
        <ele>557.1</ele>
        <time>2018-09-15T17:38:37Z</time>
      </trkpt>
      <trkpt lat="-24.7026620" lon="-53.6898760">
        <ele>556.6</ele>
        <time>2018-09-15T17:38:38Z</time>
      </trkpt>
      <trkpt lat="-24.7026240" lon="-53.6897980">
        <ele>556.1</ele>
        <time>2018-09-15T17:38:39Z</time>
      </trkpt>
      <trkpt lat="-24.7025850" lon="-53.6897200">
        <ele>555.7</ele>
        <time>2018-09-15T17:38:40Z</time>
      </trkpt>
      <trkpt lat="-24.7025470" lon="-53.6896420">
        <ele>555.3</ele>
        <time>2018-09-15T17:38:41Z</time>
      </trkpt>
      <trkpt lat="-24.7025100" lon="-53.6895610">
        <ele>554.8</ele>
        <time>2018-09-15T17:38:42Z</time>
      </trkpt>
      <trkpt lat="-24.7024720" lon="-53.6894760">
        <ele>554.3</ele>
        <time>2018-09-15T17:38:43Z</time>
      </trkpt>
      <trkpt lat="-24.7024350" lon="-53.6893880">
        <ele>553.8</ele>
        <time>2018-09-15T17:38:44Z</time>
      </trkpt>
      <trkpt lat="-24.7023980" lon="-53.6892970">
        <ele>553.4</ele>
        <time>2018-09-15T17:38:45Z</time>
      </trkpt>
      <trkpt lat="-24.7023620" lon="-53.6892040">
        <ele>553.0</ele>
        <time>2018-09-15T17:38:46Z</time>
      </trkpt>
      <trkpt lat="-24.7023260" lon="-53.6891100">
        <ele>552.6</ele>
        <time>2018-09-15T17:38:47Z</time>
      </trkpt>
      <trkpt lat="-24.7022870" lon="-53.6890140">
        <ele>552.2</ele>
        <time>2018-09-15T17:38:48Z</time>
      </trkpt>
      <trkpt lat="-24.7022460" lon="-53.6889130">
        <ele>551.8</ele>
        <time>2018-09-15T17:38:49Z</time>
      </trkpt>
      <trkpt lat="-24.7022020" lon="-53.6888100">
        <ele>551.3</ele>
        <time>2018-09-15T17:38:50Z</time>
      </trkpt>
      <trkpt lat="-24.7021570" lon="-53.6887070">
        <ele>550.7</ele>
        <time>2018-09-15T17:38:51Z</time>
      </trkpt>
      <trkpt lat="-24.7021120" lon="-53.6886050">
        <ele>550.0</ele>
        <time>2018-09-15T17:38:52Z</time>
      </trkpt>
      <trkpt lat="-24.7020660" lon="-53.6885000">
        <ele>549.1</ele>
        <time>2018-09-15T17:38:53Z</time>
      </trkpt>
      <trkpt lat="-24.7020180" lon="-53.6883920">
        <ele>548.2</ele>
        <time>2018-09-15T17:38:54Z</time>
      </trkpt>
      <trkpt lat="-24.7019720" lon="-53.6882850">
        <ele>547.2</ele>
        <time>2018-09-15T17:38:55Z</time>
      </trkpt>
      <trkpt lat="-24.7019230" lon="-53.6881730">
        <ele>546.1</ele>
        <time>2018-09-15T17:38:56Z</time>
      </trkpt>
      <trkpt lat="-24.7018730" lon="-53.6880590">
        <ele>545.0</ele>
        <time>2018-09-15T17:38:57Z</time>
      </trkpt>
      <trkpt lat="-24.7018210" lon="-53.6879420">
        <ele>543.8</ele>
        <time>2018-09-15T17:38:58Z</time>
      </trkpt>
      <trkpt lat="-24.7017660" lon="-53.6878140">
        <ele>542.7</ele>
        <time>2018-09-15T17:38:59Z</time>
      </trkpt>
      <trkpt lat="-24.7016570" lon="-53.6875590">
        <ele>540.4</ele>
        <time>2018-09-15T17:39:01Z</time>
      </trkpt>
      <trkpt lat="-24.7016030" lon="-53.6874220">
        <ele>539.2</ele>
        <time>2018-09-15T17:39:02Z</time>
      </trkpt>
      <trkpt lat="-24.7015450" lon="-53.6872820">
        <ele>537.9</ele>
        <time>2018-09-15T17:39:03Z</time>
      </trkpt>
      <trkpt lat="-24.7014640" lon="-53.6870870">
        <ele>536.4</ele>
        <time>2018-09-15T17:39:04Z</time>
      </trkpt>
      <trkpt lat="-24.7013020" lon="-53.6866970">
        <ele>531.2</ele>
        <time>2018-09-15T17:39:06Z</time>
      </trkpt>
      <trkpt lat="-24.7012350" lon="-53.6865430">
        <ele>529.4</ele>
        <time>2018-09-15T17:39:07Z</time>
      </trkpt>
      <trkpt lat="-24.7011650" lon="-53.6863860">
        <ele>528.0</ele>
        <time>2018-09-15T17:39:08Z</time>
      </trkpt>
      <trkpt lat="-24.7010970" lon="-53.6862250">
        <ele>527.1</ele>
        <time>2018-09-15T17:39:09Z</time>
      </trkpt>
      <trkpt lat="-24.7010380" lon="-53.6860640">
        <ele>526.6</ele>
        <time>2018-09-15T17:39:10Z</time>
      </trkpt>
      <trkpt lat="-24.7009830" lon="-53.6859060">
        <ele>526.3</ele>
        <time>2018-09-15T17:39:11Z</time>
      </trkpt>
      <trkpt lat="-24.7009270" lon="-53.6857480">
        <ele>526.1</ele>
        <time>2018-09-15T17:39:12Z</time>
      </trkpt>
      <trkpt lat="-24.7008690" lon="-53.6856000">
        <ele>525.9</ele>
        <time>2018-09-15T17:39:13Z</time>
      </trkpt>
      <trkpt lat="-24.7008110" lon="-53.6854620">
        <ele>525.7</ele>
        <time>2018-09-15T17:39:14Z</time>
      </trkpt>
      <trkpt lat="-24.7007500" lon="-53.6853320">
        <ele>525.6</ele>
        <time>2018-09-15T17:39:15Z</time>
      </trkpt>
      <trkpt lat="-24.7006920" lon="-53.6852100">
        <ele>525.6</ele>
        <time>2018-09-15T17:39:16Z</time>
      </trkpt>
      <trkpt lat="-24.7006380" lon="-53.6851020">
        <ele>525.6</ele>
        <time>2018-09-15T17:39:17Z</time>
      </trkpt>
      <trkpt lat="-24.7005890" lon="-53.6850020">
        <ele>525.5</ele>
        <time>2018-09-15T17:39:18Z</time>
      </trkpt>
      <trkpt lat="-24.7005470" lon="-53.6849090">
        <ele>525.5</ele>
        <time>2018-09-15T17:39:19Z</time>
      </trkpt>
      <trkpt lat="-24.7005080" lon="-53.6848170">
        <ele>525.5</ele>
        <time>2018-09-15T17:39:20Z</time>
      </trkpt>
      <trkpt lat="-24.7004750" lon="-53.6847280">
        <ele>525.5</ele>
        <time>2018-09-15T17:39:21Z</time>
      </trkpt>
      <trkpt lat="-24.7004450" lon="-53.6846440">
        <ele>525.5</ele>
        <time>2018-09-15T17:39:22Z</time>
      </trkpt>
      <trkpt lat="-24.7004160" lon="-53.6845700">
        <ele>525.6</ele>
        <time>2018-09-15T17:39:23Z</time>
      </trkpt>
      <trkpt lat="-24.7003570" lon="-53.6844360">
        <ele>525.9</ele>
        <time>2018-09-15T17:39:25Z</time>
      </trkpt>
      <trkpt lat="-24.7003260" lon="-53.6843700">
        <ele>526.2</ele>
        <time>2018-09-15T17:39:26Z</time>
      </trkpt>
      <trkpt lat="-24.7002950" lon="-53.6843060">
        <ele>526.5</ele>
        <time>2018-09-15T17:39:27Z</time>
      </trkpt>
      <trkpt lat="-24.7002610" lon="-53.6842460">
        <ele>526.8</ele>
        <time>2018-09-15T17:39:28Z</time>
      </trkpt>
      <trkpt lat="-24.7002260" lon="-53.6841900">
        <ele>527.1</ele>
        <time>2018-09-15T17:39:29Z</time>
      </trkpt>
      <trkpt lat="-24.7001990" lon="-53.6841370">
        <ele>527.4</ele>
        <time>2018-09-15T17:39:30Z</time>
      </trkpt>
      <trkpt lat="-24.7001760" lon="-53.6840820">
        <ele>527.6</ele>
        <time>2018-09-15T17:39:31Z</time>
      </trkpt>
      <trkpt lat="-24.7001540" lon="-53.6840240">
        <ele>527.8</ele>
        <time>2018-09-15T17:39:32Z</time>
      </trkpt>
      <trkpt lat="-24.7001310" lon="-53.6839660">
        <ele>528.1</ele>
        <time>2018-09-15T17:39:33Z</time>
      </trkpt>
      <trkpt lat="-24.7001060" lon="-53.6839120">
        <ele>528.4</ele>
        <time>2018-09-15T17:39:34Z</time>
      </trkpt>
      <trkpt lat="-24.7000800" lon="-53.6838590">
        <ele>528.7</ele>
        <time>2018-09-15T17:39:35Z</time>
      </trkpt>
      <trkpt lat="-24.7000540" lon="-53.6838120">
        <ele>528.9</ele>
        <time>2018-09-15T17:39:36Z</time>
      </trkpt>
      <trkpt lat="-24.7000310" lon="-53.6837680">
        <ele>529.1</ele>
        <time>2018-09-15T17:39:37Z</time>
      </trkpt>
      <trkpt lat="-24.7000080" lon="-53.6837250">
        <ele>529.2</ele>
        <time>2018-09-15T17:39:38Z</time>
      </trkpt>
      <trkpt lat="-24.6999850" lon="-53.6836830">
        <ele>529.4</ele>
        <time>2018-09-15T17:39:39Z</time>
      </trkpt>
      <trkpt lat="-24.6999590" lon="-53.6836420">
        <ele>529.5</ele>
        <time>2018-09-15T17:39:40Z</time>
      </trkpt>
      <trkpt lat="-24.6999320" lon="-53.6836010">
        <ele>529.6</ele>
        <time>2018-09-15T17:39:41Z</time>
      </trkpt>
      <trkpt lat="-24.6999050" lon="-53.6835620">
        <ele>529.8</ele>
        <time>2018-09-15T17:39:42Z</time>
      </trkpt>
      <trkpt lat="-24.6998760" lon="-53.6835240">
        <ele>530.0</ele>
        <time>2018-09-15T17:39:43Z</time>
      </trkpt>
      <trkpt lat="-24.6998480" lon="-53.6834870">
        <ele>530.1</ele>
        <time>2018-09-15T17:39:44Z</time>
      </trkpt>
      <trkpt lat="-24.6998190" lon="-53.6834510">
        <ele>530.3</ele>
        <time>2018-09-15T17:39:45Z</time>
      </trkpt>
      <trkpt lat="-24.6997900" lon="-53.6834150">
        <ele>530.4</ele>
        <time>2018-09-15T17:39:46Z</time>
      </trkpt>
      <trkpt lat="-24.6997620" lon="-53.6833800">
        <ele>530.6</ele>
        <time>2018-09-15T17:39:47Z</time>
      </trkpt>
      <trkpt lat="-24.6997320" lon="-53.6833450">
        <ele>530.7</ele>
        <time>2018-09-15T17:39:48Z</time>
      </trkpt>
      <trkpt lat="-24.6997020" lon="-53.6833110">
        <ele>530.8</ele>
        <time>2018-09-15T17:39:49Z</time>
      </trkpt>
      <trkpt lat="-24.6996710" lon="-53.6832770">
        <ele>530.9</ele>
        <time>2018-09-15T17:39:50Z</time>
      </trkpt>
      <trkpt lat="-24.6996420" lon="-53.6832420">
        <ele>531.0</ele>
        <time>2018-09-15T17:39:51Z</time>
      </trkpt>
      <trkpt lat="-24.6996130" lon="-53.6832060">
        <ele>531.1</ele>
        <time>2018-09-15T17:39:52Z</time>
      </trkpt>
      <trkpt lat="-24.6995840" lon="-53.6831700">
        <ele>531.2</ele>
        <time>2018-09-15T17:39:53Z</time>
      </trkpt>
      <trkpt lat="-24.6995540" lon="-53.6831310">
        <ele>531.3</ele>
        <time>2018-09-15T17:39:54Z</time>
      </trkpt>
      <trkpt lat="-24.6995540" lon="-53.6831310">
        <ele>531.3</ele>
        <time>2018-09-15T17:39:55Z</time>
      </trkpt>
      <trkpt lat="-24.6995220" lon="-53.6830920">
        <ele>531.4</ele>
        <time>2018-09-15T17:39:56Z</time>
      </trkpt>
      <trkpt lat="-24.6994880" lon="-53.6830510">
        <ele>531.4</ele>
        <time>2018-09-15T17:39:57Z</time>
      </trkpt>
      <trkpt lat="-24.6994530" lon="-53.6830080">
        <ele>531.5</ele>
        <time>2018-09-15T17:39:58Z</time>
      </trkpt>
      <trkpt lat="-24.6993760" lon="-53.6829210">
        <ele>531.7</ele>
        <time>2018-09-15T17:39:59Z</time>
      </trkpt>
      <trkpt lat="-24.6993760" lon="-53.6829210">
        <ele>531.7</ele>
        <time>2018-09-15T17:40:00Z</time>
      </trkpt>
      <trkpt lat="-24.6993360" lon="-53.6828740">
        <ele>531.7</ele>
        <time>2018-09-15T17:40:01Z</time>
      </trkpt>
      <trkpt lat="-24.6992940" lon="-53.6828260">
        <ele>531.8</ele>
        <time>2018-09-15T17:40:02Z</time>
      </trkpt>
      <trkpt lat="-24.6992490" lon="-53.6827770">
        <ele>531.9</ele>
        <time>2018-09-15T17:40:03Z</time>
      </trkpt>
      <trkpt lat="-24.6992010" lon="-53.6827270">
        <ele>532.0</ele>
        <time>2018-09-15T17:40:04Z</time>
      </trkpt>
      <trkpt lat="-24.6991510" lon="-53.6826790">
        <ele>532.0</ele>
        <time>2018-09-15T17:40:05Z</time>
      </trkpt>
      <trkpt lat="-24.6990980" lon="-53.6826310">
        <ele>532.1</ele>
        <time>2018-09-15T17:40:06Z</time>
      </trkpt>
      <trkpt lat="-24.6990430" lon="-53.6825810">
        <ele>532.1</ele>
        <time>2018-09-15T17:40:07Z</time>
      </trkpt>
      <trkpt lat="-24.6989860" lon="-53.6825300">
        <ele>532.1</ele>
        <time>2018-09-15T17:40:08Z</time>
      </trkpt>
      <trkpt lat="-24.6989270" lon="-53.6824790">
        <ele>532.1</ele>
        <time>2018-09-15T17:40:09Z</time>
      </trkpt>
      <trkpt lat="-24.6988660" lon="-53.6824280">
        <ele>532.0</ele>
        <time>2018-09-15T17:40:10Z</time>
      </trkpt>
      <trkpt lat="-24.6988040" lon="-53.6823790">
        <ele>532.0</ele>
        <time>2018-09-15T17:40:11Z</time>
      </trkpt>
      <trkpt lat="-24.6987380" lon="-53.6823260">
        <ele>531.9</ele>
        <time>2018-09-15T17:40:12Z</time>
      </trkpt>
      <trkpt lat="-24.6986680" lon="-53.6822730">
        <ele>531.8</ele>
        <time>2018-09-15T17:40:13Z</time>
      </trkpt>
      <trkpt lat="-24.6985970" lon="-53.6822200">
        <ele>531.7</ele>
        <time>2018-09-15T17:40:14Z</time>
      </trkpt>
      <trkpt lat="-24.6985240" lon="-53.6821650">
        <ele>531.5</ele>
        <time>2018-09-15T17:40:15Z</time>
      </trkpt>
      <trkpt lat="-24.6984500" lon="-53.6821090">
        <ele>531.1</ele>
        <time>2018-09-15T17:40:16Z</time>
      </trkpt>
      <trkpt lat="-24.6983770" lon="-53.6820510">
        <ele>530.6</ele>
        <time>2018-09-15T17:40:17Z</time>
      </trkpt>
      <trkpt lat="-24.6983020" lon="-53.6819920">
        <ele>530.0</ele>
        <time>2018-09-15T17:40:18Z</time>
      </trkpt>
      <trkpt lat="-24.6982240" lon="-53.6819310">
        <ele>529.5</ele>
        <time>2018-09-15T17:40:19Z</time>
      </trkpt>
      <trkpt lat="-24.6981430" lon="-53.6818680">
        <ele>528.9</ele>
        <time>2018-09-15T17:40:20Z</time>
      </trkpt>
      <trkpt lat="-24.6980590" lon="-53.6818040">
        <ele>528.3</ele>
        <time>2018-09-15T17:40:21Z</time>
      </trkpt>
      <trkpt lat="-24.6979750" lon="-53.6817400">
        <ele>527.8</ele>
        <time>2018-09-15T17:40:22Z</time>
      </trkpt>
      <trkpt lat="-24.6978900" lon="-53.6816750">
        <ele>527.4</ele>
        <time>2018-09-15T17:40:23Z</time>
      </trkpt>
      <trkpt lat="-24.6978030" lon="-53.6816060">
        <ele>526.9</ele>
        <time>2018-09-15T17:40:24Z</time>
      </trkpt>
      <trkpt lat="-24.6977120" lon="-53.6815350">
        <ele>526.3</ele>
        <time>2018-09-15T17:40:25Z</time>
      </trkpt>
      <trkpt lat="-24.6976190" lon="-53.6814630">
        <ele>525.8</ele>
        <time>2018-09-15T17:40:26Z</time>
      </trkpt>
      <trkpt lat="-24.6975240" lon="-53.6813860">
        <ele>525.1</ele>
        <time>2018-09-15T17:40:27Z</time>
      </trkpt>
      <trkpt lat="-24.6974290" lon="-53.6813110">
        <ele>524.5</ele>
        <time>2018-09-15T17:40:28Z</time>
      </trkpt>
      <trkpt lat="-24.6973310" lon="-53.6812340">
        <ele>523.7</ele>
        <time>2018-09-15T17:40:29Z</time>
      </trkpt>
      <trkpt lat="-24.6972280" lon="-53.6811550">
        <ele>522.9</ele>
        <time>2018-09-15T17:40:30Z</time>
      </trkpt>
      <trkpt lat="-24.6971230" lon="-53.6810750">
        <ele>522.0</ele>
        <time>2018-09-15T17:40:31Z</time>
      </trkpt>
      <trkpt lat="-24.6970180" lon="-53.6809930">
        <ele>521.1</ele>
        <time>2018-09-15T17:40:32Z</time>
      </trkpt>
      <trkpt lat="-24.6969090" lon="-53.6809090">
        <ele>520.0</ele>
        <time>2018-09-15T17:40:33Z</time>
      </trkpt>
      <trkpt lat="-24.6967980" lon="-53.6808250">
        <ele>518.9</ele>
        <time>2018-09-15T17:40:34Z</time>
      </trkpt>
      <trkpt lat="-24.6966860" lon="-53.6807390">
        <ele>517.8</ele>
        <time>2018-09-15T17:40:35Z</time>
      </trkpt>
      <trkpt lat="-24.6965690" lon="-53.6806510">
        <ele>516.6</ele>
        <time>2018-09-15T17:40:36Z</time>
      </trkpt>
      <trkpt lat="-24.6964490" lon="-53.6805610">
        <ele>515.4</ele>
        <time>2018-09-15T17:40:37Z</time>
      </trkpt>
      <trkpt lat="-24.6963290" lon="-53.6804680">
        <ele>514.2</ele>
        <time>2018-09-15T17:40:38Z</time>
      </trkpt>
      <trkpt lat="-24.6962080" lon="-53.6803720">
        <ele>513.0</ele>
        <time>2018-09-15T17:40:39Z</time>
      </trkpt>
      <trkpt lat="-24.6960890" lon="-53.6802760">
        <ele>512.0</ele>
        <time>2018-09-15T17:40:40Z</time>
      </trkpt>
      <trkpt lat="-24.6959660" lon="-53.6801790">
        <ele>510.9</ele>
        <time>2018-09-15T17:40:41Z</time>
      </trkpt>
      <trkpt lat="-24.6958400" lon="-53.6800790">
        <ele>510.0</ele>
        <time>2018-09-15T17:40:42Z</time>
      </trkpt>
      <trkpt lat="-24.6957120" lon="-53.6799770">
        <ele>509.1</ele>
        <time>2018-09-15T17:40:43Z</time>
      </trkpt>
      <trkpt lat="-24.6955780" lon="-53.6798730">
        <ele>508.2</ele>
        <time>2018-09-15T17:40:44Z</time>
      </trkpt>
      <trkpt lat="-24.6954410" lon="-53.6797670">
        <ele>507.3</ele>
        <time>2018-09-15T17:40:45Z</time>
      </trkpt>
      <trkpt lat="-24.6953020" lon="-53.6796580">
        <ele>506.2</ele>
        <time>2018-09-15T17:40:46Z</time>
      </trkpt>
      <trkpt lat="-24.6951680" lon="-53.6795480">
        <ele>505.1</ele>
        <time>2018-09-15T17:40:47Z</time>
      </trkpt>
      <trkpt lat="-24.6950380" lon="-53.6794400">
        <ele>504.1</ele>
        <time>2018-09-15T17:40:48Z</time>
      </trkpt>
      <trkpt lat="-24.6949070" lon="-53.6793400">
        <ele>503.3</ele>
        <time>2018-09-15T17:40:49Z</time>
      </trkpt>
      <trkpt lat="-24.6947960" lon="-53.6792510">
        <ele>502.9</ele>
        <time>2018-09-15T17:40:50Z</time>
      </trkpt>
      <trkpt lat="-24.6946840" lon="-53.6791850">
        <ele>502.7</ele>
        <time>2018-09-15T17:40:51Z</time>
      </trkpt>
      <trkpt lat="-24.6945900" lon="-53.6791160">
        <ele>502.9</ele>
        <time>2018-09-15T17:40:52Z</time>
      </trkpt>
      <trkpt lat="-24.6945210" lon="-53.6790510">
        <ele>503.2</ele>
        <time>2018-09-15T17:40:53Z</time>
      </trkpt>
      <trkpt lat="-24.6944720" lon="-53.6789940">
        <ele>503.5</ele>
        <time>2018-09-15T17:40:54Z</time>
      </trkpt>
      <trkpt lat="-24.6944310" lon="-53.6789540">
        <ele>503.8</ele>
        <time>2018-09-15T17:40:55Z</time>
      </trkpt>
      <trkpt lat="-24.6943760" lon="-53.6789050">
        <ele>504.3</ele>
        <time>2018-09-15T17:40:56Z</time>
      </trkpt>
      <trkpt lat="-24.6943110" lon="-53.6788650">
        <ele>504.9</ele>
        <time>2018-09-15T17:40:57Z</time>
      </trkpt>
      <trkpt lat="-24.6942450" lon="-53.6788290">
        <ele>505.6</ele>
        <time>2018-09-15T17:40:58Z</time>
      </trkpt>
      <trkpt lat="-24.6941980" lon="-53.6787970">
        <ele>506.1</ele>
        <time>2018-09-15T17:40:59Z</time>
      </trkpt>
      <trkpt lat="-24.6941540" lon="-53.6787660">
        <ele>506.7</ele>
        <time>2018-09-15T17:41:00Z</time>
      </trkpt>
      <trkpt lat="-24.6941150" lon="-53.6787370">
        <ele>507.2</ele>
        <time>2018-09-15T17:41:01Z</time>
      </trkpt>
      <trkpt lat="-24.6940860" lon="-53.6787090">
        <ele>507.7</ele>
        <time>2018-09-15T17:41:02Z</time>
      </trkpt>
      <trkpt lat="-24.6940570" lon="-53.6786850">
        <ele>508.0</ele>
        <time>2018-09-15T17:41:03Z</time>
      </trkpt>
      <trkpt lat="-24.6940280" lon="-53.6786590">
        <ele>508.3</ele>
        <time>2018-09-15T17:41:04Z</time>
      </trkpt>
      <trkpt lat="-24.6940000" lon="-53.6786310">
        <ele>508.6</ele>
        <time>2018-09-15T17:41:05Z</time>
      </trkpt>
      <trkpt lat="-24.6939720" lon="-53.6786060">
        <ele>508.9</ele>
        <time>2018-09-15T17:41:06Z</time>
      </trkpt>
      <trkpt lat="-24.6939440" lon="-53.6785830">
        <ele>509.2</ele>
        <time>2018-09-15T17:41:07Z</time>
      </trkpt>
      <trkpt lat="-24.6939120" lon="-53.6785580">
        <ele>509.5</ele>
        <time>2018-09-15T17:41:08Z</time>
      </trkpt>
      <trkpt lat="-24.6938850" lon="-53.6785380">
        <ele>509.7</ele>
        <time>2018-09-15T17:41:09Z</time>
      </trkpt>
      <trkpt lat="-24.6938580" lon="-53.6785190">
        <ele>509.8</ele>
        <time>2018-09-15T17:41:10Z</time>
      </trkpt>
      <trkpt lat="-24.6938300" lon="-53.6784990">
        <ele>509.9</ele>
        <time>2018-09-15T17:41:11Z</time>
      </trkpt>
      <trkpt lat="-24.6938040" lon="-53.6784770">
        <ele>510.1</ele>
        <time>2018-09-15T17:41:12Z</time>
      </trkpt>
      <trkpt lat="-24.6937760" lon="-53.6784550">
        <ele>510.3</ele>
        <time>2018-09-15T17:41:13Z</time>
      </trkpt>
      <trkpt lat="-24.6937530" lon="-53.6784350">
        <ele>510.4</ele>
        <time>2018-09-15T17:41:14Z</time>
      </trkpt>
      <trkpt lat="-24.6937250" lon="-53.6784130">
        <ele>510.6</ele>
        <time>2018-09-15T17:41:15Z</time>
      </trkpt>
      <trkpt lat="-24.6936990" lon="-53.6783920">
        <ele>510.8</ele>
        <time>2018-09-15T17:41:16Z</time>
      </trkpt>
      <trkpt lat="-24.6936730" lon="-53.6783690">
        <ele>510.8</ele>
        <time>2018-09-15T17:41:17Z</time>
      </trkpt>
      <trkpt lat="-24.6936480" lon="-53.6783470">
        <ele>510.9</ele>
        <time>2018-09-15T17:41:18Z</time>
      </trkpt>
      <trkpt lat="-24.6936230" lon="-53.6783260">
        <ele>511.0</ele>
        <time>2018-09-15T17:41:19Z</time>
      </trkpt>
      <trkpt lat="-24.6935970" lon="-53.6783050">
        <ele>511.1</ele>
        <time>2018-09-15T17:41:20Z</time>
      </trkpt>
      <trkpt lat="-24.6935720" lon="-53.6782850">
        <ele>511.1</ele>
        <time>2018-09-15T17:41:21Z</time>
      </trkpt>
      <trkpt lat="-24.6935490" lon="-53.6782670">
        <ele>511.2</ele>
        <time>2018-09-15T17:41:22Z</time>
      </trkpt>
      <trkpt lat="-24.6935270" lon="-53.6782490">
        <ele>511.2</ele>
        <time>2018-09-15T17:41:23Z</time>
      </trkpt>
      <trkpt lat="-24.6935030" lon="-53.6782320">
        <ele>511.2</ele>
        <time>2018-09-15T17:41:24Z</time>
      </trkpt>
      <trkpt lat="-24.6934780" lon="-53.6782140">
        <ele>511.3</ele>
        <time>2018-09-15T17:41:25Z</time>
      </trkpt>
      <trkpt lat="-24.6934550" lon="-53.6781980">
        <ele>511.3</ele>
        <time>2018-09-15T17:41:26Z</time>
      </trkpt>
      <trkpt lat="-24.6934330" lon="-53.6781800">
        <ele>511.4</ele>
        <time>2018-09-15T17:41:27Z</time>
      </trkpt>
      <trkpt lat="-24.6934110" lon="-53.6781620">
        <ele>511.4</ele>
        <time>2018-09-15T17:41:28Z</time>
      </trkpt>
      <trkpt lat="-24.6933890" lon="-53.6781450">
        <ele>511.5</ele>
        <time>2018-09-15T17:41:29Z</time>
      </trkpt>
      <trkpt lat="-24.6933690" lon="-53.6781290">
        <ele>511.6</ele>
        <time>2018-09-15T17:41:30Z</time>
      </trkpt>
      <trkpt lat="-24.6933490" lon="-53.6781130">
        <ele>511.7</ele>
        <time>2018-09-15T17:41:31Z</time>
      </trkpt>
      <trkpt lat="-24.6933300" lon="-53.6780980">
        <ele>511.8</ele>
        <time>2018-09-15T17:41:32Z</time>
      </trkpt>
      <trkpt lat="-24.6933090" lon="-53.6780840">
        <ele>511.9</ele>
        <time>2018-09-15T17:41:33Z</time>
      </trkpt>
      <trkpt lat="-24.6932880" lon="-53.6780670">
        <ele>512.0</ele>
        <time>2018-09-15T17:41:34Z</time>
      </trkpt>
      <trkpt lat="-24.6932660" lon="-53.6780490">
        <ele>512.1</ele>
        <time>2018-09-15T17:41:35Z</time>
      </trkpt>
      <trkpt lat="-24.6932430" lon="-53.6780310">
        <ele>512.2</ele>
        <time>2018-09-15T17:41:36Z</time>
      </trkpt>
      <trkpt lat="-24.6932190" lon="-53.6780120">
        <ele>512.3</ele>
        <time>2018-09-15T17:41:37Z</time>
      </trkpt>
      <trkpt lat="-24.6931950" lon="-53.6779910">
        <ele>512.4</ele>
        <time>2018-09-15T17:41:38Z</time>
      </trkpt>
      <trkpt lat="-24.6931710" lon="-53.6779720">
        <ele>512.5</ele>
        <time>2018-09-15T17:41:39Z</time>
      </trkpt>
      <trkpt lat="-24.6931460" lon="-53.6779530">
        <ele>512.6</ele>
        <time>2018-09-15T17:41:40Z</time>
      </trkpt>
      <trkpt lat="-24.6931210" lon="-53.6779340">
        <ele>512.7</ele>
        <time>2018-09-15T17:41:41Z</time>
      </trkpt>
      <trkpt lat="-24.6930970" lon="-53.6779160">
        <ele>512.8</ele>
        <time>2018-09-15T17:41:42Z</time>
      </trkpt>
      <trkpt lat="-24.6930730" lon="-53.6778980">
        <ele>512.8</ele>
        <time>2018-09-15T17:41:43Z</time>
      </trkpt>
      <trkpt lat="-24.6930500" lon="-53.6778800">
        <ele>512.9</ele>
        <time>2018-09-15T17:41:44Z</time>
      </trkpt>
      <trkpt lat="-24.6930280" lon="-53.6778630">
        <ele>513.0</ele>
        <time>2018-09-15T17:41:45Z</time>
      </trkpt>
      <trkpt lat="-24.6930060" lon="-53.6778450">
        <ele>513.1</ele>
        <time>2018-09-15T17:41:46Z</time>
      </trkpt>
      <trkpt lat="-24.6929830" lon="-53.6778270">
        <ele>513.1</ele>
        <time>2018-09-15T17:41:47Z</time>
      </trkpt>
      <trkpt lat="-24.6929610" lon="-53.6778100">
        <ele>513.2</ele>
        <time>2018-09-15T17:41:48Z</time>
      </trkpt>
      <trkpt lat="-24.6929390" lon="-53.6777920">
        <ele>513.4</ele>
        <time>2018-09-15T17:41:49Z</time>
      </trkpt>
      <trkpt lat="-24.6929160" lon="-53.6777750">
        <ele>513.7</ele>
        <time>2018-09-15T17:41:50Z</time>
      </trkpt>
      <trkpt lat="-24.6928930" lon="-53.6777590">
        <ele>513.9</ele>
        <time>2018-09-15T17:41:51Z</time>
      </trkpt>
      <trkpt lat="-24.6928700" lon="-53.6777420">
        <ele>514.1</ele>
        <time>2018-09-15T17:41:52Z</time>
      </trkpt>
      <trkpt lat="-24.6928490" lon="-53.6777250">
        <ele>514.4</ele>
        <time>2018-09-15T17:41:53Z</time>
      </trkpt>
      <trkpt lat="-24.6928260" lon="-53.6777080">
        <ele>514.5</ele>
        <time>2018-09-15T17:41:54Z</time>
      </trkpt>
      <trkpt lat="-24.6928040" lon="-53.6776910">
        <ele>514.6</ele>
        <time>2018-09-15T17:41:55Z</time>
      </trkpt>
      <trkpt lat="-24.6927810" lon="-53.6776740">
        <ele>514.7</ele>
        <time>2018-09-15T17:41:56Z</time>
      </trkpt>
      <trkpt lat="-24.6927580" lon="-53.6776550">
        <ele>514.9</ele>
        <time>2018-09-15T17:41:57Z</time>
      </trkpt>
      <trkpt lat="-24.6927340" lon="-53.6776350">
        <ele>515.0</ele>
        <time>2018-09-15T17:41:58Z</time>
      </trkpt>
      <trkpt lat="-24.6927100" lon="-53.6776170">
        <ele>515.2</ele>
        <time>2018-09-15T17:41:59Z</time>
      </trkpt>
      <trkpt lat="-24.6926870" lon="-53.6775990">
        <ele>515.4</ele>
        <time>2018-09-15T17:42:00Z</time>
      </trkpt>
      <trkpt lat="-24.6926650" lon="-53.6775800">
        <ele>515.7</ele>
        <time>2018-09-15T17:42:01Z</time>
      </trkpt>
      <trkpt lat="-24.6926450" lon="-53.6775630">
        <ele>515.9</ele>
        <time>2018-09-15T17:42:02Z</time>
      </trkpt>
      <trkpt lat="-24.6926220" lon="-53.6775450">
        <ele>516.2</ele>
        <time>2018-09-15T17:42:03Z</time>
      </trkpt>
      <trkpt lat="-24.6926000" lon="-53.6775270">
        <ele>516.4</ele>
        <time>2018-09-15T17:42:04Z</time>
      </trkpt>
      <trkpt lat="-24.6925780" lon="-53.6775110">
        <ele>516.8</ele>
        <time>2018-09-15T17:42:05Z</time>
      </trkpt>
      <trkpt lat="-24.6925560" lon="-53.6774940">
        <ele>516.9</ele>
        <time>2018-09-15T17:42:06Z</time>
      </trkpt>
      <trkpt lat="-24.6925340" lon="-53.6774770">
        <ele>517.0</ele>
        <time>2018-09-15T17:42:07Z</time>
      </trkpt>
      <trkpt lat="-24.6925110" lon="-53.6774610">
        <ele>517.1</ele>
        <time>2018-09-15T17:42:08Z</time>
      </trkpt>
      <trkpt lat="-24.6924890" lon="-53.6774440">
        <ele>517.2</ele>
        <time>2018-09-15T17:42:09Z</time>
      </trkpt>
      <trkpt lat="-24.6924660" lon="-53.6774280">
        <ele>517.3</ele>
        <time>2018-09-15T17:42:10Z</time>
      </trkpt>
      <trkpt lat="-24.6924450" lon="-53.6774100">
        <ele>517.4</ele>
        <time>2018-09-15T17:42:11Z</time>
      </trkpt>
      <trkpt lat="-24.6924240" lon="-53.6773920">
        <ele>517.5</ele>
        <time>2018-09-15T17:42:12Z</time>
      </trkpt>
      <trkpt lat="-24.6924030" lon="-53.6773740">
        <ele>517.6</ele>
        <time>2018-09-15T17:42:13Z</time>
      </trkpt>
      <trkpt lat="-24.6923830" lon="-53.6773550">
        <ele>517.8</ele>
        <time>2018-09-15T17:42:14Z</time>
      </trkpt>
      <trkpt lat="-24.6923630" lon="-53.6773350">
        <ele>517.9</ele>
        <time>2018-09-15T17:42:15Z</time>
      </trkpt>
      <trkpt lat="-24.6923410" lon="-53.6773160">
        <ele>518.0</ele>
        <time>2018-09-15T17:42:16Z</time>
      </trkpt>
      <trkpt lat="-24.6923190" lon="-53.6772980">
        <ele>518.1</ele>
        <time>2018-09-15T17:42:17Z</time>
      </trkpt>
      <trkpt lat="-24.6922980" lon="-53.6772810">
        <ele>518.3</ele>
        <time>2018-09-15T17:42:18Z</time>
      </trkpt>
      <trkpt lat="-24.6922770" lon="-53.6772620">
        <ele>518.4</ele>
        <time>2018-09-15T17:42:19Z</time>
      </trkpt>
      <trkpt lat="-24.6922550" lon="-53.6772440">
        <ele>518.5</ele>
        <time>2018-09-15T17:42:20Z</time>
      </trkpt>
      <trkpt lat="-24.6922330" lon="-53.6772260">
        <ele>518.6</ele>
        <time>2018-09-15T17:42:21Z</time>
      </trkpt>
      <trkpt lat="-24.6922090" lon="-53.6772080">
        <ele>518.7</ele>
        <time>2018-09-15T17:42:22Z</time>
      </trkpt>
      <trkpt lat="-24.6921860" lon="-53.6771900">
        <ele>518.7</ele>
        <time>2018-09-15T17:42:23Z</time>
      </trkpt>
      <trkpt lat="-24.6921620" lon="-53.6771720">
        <ele>518.8</ele>
        <time>2018-09-15T17:42:24Z</time>
      </trkpt>
      <trkpt lat="-24.6921390" lon="-53.6771540">
        <ele>518.9</ele>
        <time>2018-09-15T17:42:25Z</time>
      </trkpt>
      <trkpt lat="-24.6921150" lon="-53.6771360">
        <ele>519.0</ele>
        <time>2018-09-15T17:42:26Z</time>
      </trkpt>
      <trkpt lat="-24.6920910" lon="-53.6771180">
        <ele>519.1</ele>
        <time>2018-09-15T17:42:27Z</time>
      </trkpt>
      <trkpt lat="-24.6920690" lon="-53.6771000">
        <ele>519.1</ele>
        <time>2018-09-15T17:42:28Z</time>
      </trkpt>
      <trkpt lat="-24.6920460" lon="-53.6770830">
        <ele>519.2</ele>
        <time>2018-09-15T17:42:29Z</time>
      </trkpt>
      <trkpt lat="-24.6920240" lon="-53.6770680">
        <ele>519.3</ele>
        <time>2018-09-15T17:42:30Z</time>
      </trkpt>
      <trkpt lat="-24.6920000" lon="-53.6770500">
        <ele>519.3</ele>
        <time>2018-09-15T17:42:31Z</time>
      </trkpt>
      <trkpt lat="-24.6919740" lon="-53.6770310">
        <ele>519.4</ele>
        <time>2018-09-15T17:42:32Z</time>
      </trkpt>
      <trkpt lat="-24.6919460" lon="-53.6770100">
        <ele>519.5</ele>
        <time>2018-09-15T17:42:33Z</time>
      </trkpt>
      <trkpt lat="-24.6919180" lon="-53.6769880">
        <ele>519.5</ele>
        <time>2018-09-15T17:42:34Z</time>
      </trkpt>
      <trkpt lat="-24.6918890" lon="-53.6769650">
        <ele>519.6</ele>
        <time>2018-09-15T17:42:35Z</time>
      </trkpt>
      <trkpt lat="-24.6918590" lon="-53.6769420">
        <ele>519.7</ele>
        <time>2018-09-15T17:42:36Z</time>
      </trkpt>
      <trkpt lat="-24.6918290" lon="-53.6769180">
        <ele>519.8</ele>
        <time>2018-09-15T17:42:37Z</time>
      </trkpt>
      <trkpt lat="-24.6917980" lon="-53.6768940">
        <ele>519.9</ele>
        <time>2018-09-15T17:42:38Z</time>
      </trkpt>
      <trkpt lat="-24.6917660" lon="-53.6768700">
        <ele>519.9</ele>
        <time>2018-09-15T17:42:39Z</time>
      </trkpt>
      <trkpt lat="-24.6917350" lon="-53.6768450">
        <ele>520.0</ele>
        <time>2018-09-15T17:42:40Z</time>
      </trkpt>
      <trkpt lat="-24.6917050" lon="-53.6768200">
        <ele>520.1</ele>
        <time>2018-09-15T17:42:41Z</time>
      </trkpt>
      <trkpt lat="-24.6916730" lon="-53.6767950">
        <ele>520.2</ele>
        <time>2018-09-15T17:42:42Z</time>
      </trkpt>
      <trkpt lat="-24.6916410" lon="-53.6767700">
        <ele>520.2</ele>
        <time>2018-09-15T17:42:43Z</time>
      </trkpt>
      <trkpt lat="-24.6916090" lon="-53.6767460">
        <ele>520.3</ele>
        <time>2018-09-15T17:42:44Z</time>
      </trkpt>
      <trkpt lat="-24.6915760" lon="-53.6767210">
        <ele>520.3</ele>
        <time>2018-09-15T17:42:45Z</time>
      </trkpt>
      <trkpt lat="-24.6915420" lon="-53.6766960">
        <ele>520.4</ele>
        <time>2018-09-15T17:42:46Z</time>
      </trkpt>
      <trkpt lat="-24.6915100" lon="-53.6766720">
        <ele>520.5</ele>
        <time>2018-09-15T17:42:47Z</time>
      </trkpt>
      <trkpt lat="-24.6914760" lon="-53.6766470">
        <ele>520.5</ele>
        <time>2018-09-15T17:42:48Z</time>
      </trkpt>
      <trkpt lat="-24.6914430" lon="-53.6766220">
        <ele>520.6</ele>
        <time>2018-09-15T17:42:49Z</time>
      </trkpt>
      <trkpt lat="-24.6914100" lon="-53.6765980">
        <ele>520.7</ele>
        <time>2018-09-15T17:42:50Z</time>
      </trkpt>
      <trkpt lat="-24.6913770" lon="-53.6765720">
        <ele>520.7</ele>
        <time>2018-09-15T17:42:51Z</time>
      </trkpt>
      <trkpt lat="-24.6913430" lon="-53.6765460">
        <ele>520.8</ele>
        <time>2018-09-15T17:42:52Z</time>
      </trkpt>
      <trkpt lat="-24.6913080" lon="-53.6765180">
        <ele>520.9</ele>
        <time>2018-09-15T17:42:53Z</time>
      </trkpt>
      <trkpt lat="-24.6912740" lon="-53.6764890">
        <ele>520.9</ele>
        <time>2018-09-15T17:42:54Z</time>
      </trkpt>
      <trkpt lat="-24.6912380" lon="-53.6764610">
        <ele>521.0</ele>
        <time>2018-09-15T17:42:55Z</time>
      </trkpt>
      <trkpt lat="-24.6912020" lon="-53.6764320">
        <ele>521.1</ele>
        <time>2018-09-15T17:42:56Z</time>
      </trkpt>
      <trkpt lat="-24.6911650" lon="-53.6764030">
        <ele>521.2</ele>
        <time>2018-09-15T17:42:57Z</time>
      </trkpt>
      <trkpt lat="-24.6910870" lon="-53.6763420">
        <ele>521.4</ele>
        <time>2018-09-15T17:42:58Z</time>
      </trkpt>
      <trkpt lat="-24.6910440" lon="-53.6763200">
        <ele>521.5</ele>
        <time>2018-09-15T17:42:59Z</time>
      </trkpt>
      <trkpt lat="-24.6909620" lon="-53.6762640">
        <ele>521.7</ele>
        <time>2018-09-15T17:43:01Z</time>
      </trkpt>
      <trkpt lat="-24.6909230" lon="-53.6762250">
        <ele>521.9</ele>
        <time>2018-09-15T17:43:02Z</time>
      </trkpt>
      <trkpt lat="-24.6908790" lon="-53.6761880">
        <ele>522.0</ele>
        <time>2018-09-15T17:43:03Z</time>
      </trkpt>
      <trkpt lat="-24.6908340" lon="-53.6761510">
        <ele>522.0</ele>
        <time>2018-09-15T17:43:04Z</time>
      </trkpt>
      <trkpt lat="-24.6907860" lon="-53.6761140">
        <ele>522.1</ele>
        <time>2018-09-15T17:43:05Z</time>
      </trkpt>
      <trkpt lat="-24.6907380" lon="-53.6760770">
        <ele>522.2</ele>
        <time>2018-09-15T17:43:06Z</time>
      </trkpt>
      <trkpt lat="-24.6906920" lon="-53.6760400">
        <ele>522.2</ele>
        <time>2018-09-15T17:43:07Z</time>
      </trkpt>
      <trkpt lat="-24.6906450" lon="-53.6760050">
        <ele>522.3</ele>
        <time>2018-09-15T17:43:08Z</time>
      </trkpt>
      <trkpt lat="-24.6905980" lon="-53.6759690">
        <ele>522.3</ele>
        <time>2018-09-15T17:43:09Z</time>
      </trkpt>
      <trkpt lat="-24.6905510" lon="-53.6759330">
        <ele>522.4</ele>
        <time>2018-09-15T17:43:10Z</time>
      </trkpt>
      <trkpt lat="-24.6905050" lon="-53.6758980">
        <ele>522.5</ele>
        <time>2018-09-15T17:43:11Z</time>
      </trkpt>
      <trkpt lat="-24.6904590" lon="-53.6758630">
        <ele>522.5</ele>
        <time>2018-09-15T17:43:12Z</time>
      </trkpt>
      <trkpt lat="-24.6904130" lon="-53.6758280">
        <ele>522.6</ele>
        <time>2018-09-15T17:43:13Z</time>
      </trkpt>
      <trkpt lat="-24.6903680" lon="-53.6757940">
        <ele>522.6</ele>
        <time>2018-09-15T17:43:14Z</time>
      </trkpt>
      <trkpt lat="-24.6903230" lon="-53.6757610">
        <ele>522.7</ele>
        <time>2018-09-15T17:43:15Z</time>
      </trkpt>
      <trkpt lat="-24.6902790" lon="-53.6757290">
        <ele>522.8</ele>
        <time>2018-09-15T17:43:16Z</time>
      </trkpt>
      <trkpt lat="-24.6902370" lon="-53.6756970">
        <ele>522.9</ele>
        <time>2018-09-15T17:43:17Z</time>
      </trkpt>
      <trkpt lat="-24.6901950" lon="-53.6756650">
        <ele>523.1</ele>
        <time>2018-09-15T17:43:18Z</time>
      </trkpt>
      <trkpt lat="-24.6901550" lon="-53.6756350">
        <ele>523.2</ele>
        <time>2018-09-15T17:43:19Z</time>
      </trkpt>
      <trkpt lat="-24.6900770" lon="-53.6755770">
        <ele>523.3</ele>
        <time>2018-09-15T17:43:21Z</time>
      </trkpt>
      <trkpt lat="-24.6900400" lon="-53.6755490">
        <ele>523.4</ele>
        <time>2018-09-15T17:43:22Z</time>
      </trkpt>
      <trkpt lat="-24.6900040" lon="-53.6755220">
        <ele>523.4</ele>
        <time>2018-09-15T17:43:23Z</time>
      </trkpt>
      <trkpt lat="-24.6899690" lon="-53.6754960">
        <ele>523.5</ele>
        <time>2018-09-15T17:43:24Z</time>
      </trkpt>
      <trkpt lat="-24.6899350" lon="-53.6754700">
        <ele>523.5</ele>
        <time>2018-09-15T17:43:25Z</time>
      </trkpt>
      <trkpt lat="-24.6899020" lon="-53.6754440">
        <ele>523.6</ele>
        <time>2018-09-15T17:43:26Z</time>
      </trkpt>
      <trkpt lat="-24.6898710" lon="-53.6754200">
        <ele>523.6</ele>
        <time>2018-09-15T17:43:27Z</time>
      </trkpt>
      <trkpt lat="-24.6898420" lon="-53.6753990">
        <ele>523.6</ele>
        <time>2018-09-15T17:43:28Z</time>
      </trkpt>
      <trkpt lat="-24.6898140" lon="-53.6753810">
        <ele>523.7</ele>
        <time>2018-09-15T17:43:29Z</time>
      </trkpt>
      <trkpt lat="-24.6897860" lon="-53.6753640">
        <ele>523.7</ele>
        <time>2018-09-15T17:43:30Z</time>
      </trkpt>
      <trkpt lat="-24.6897580" lon="-53.6753460">
        <ele>523.8</ele>
        <time>2018-09-15T17:43:31Z</time>
      </trkpt>
      <trkpt lat="-24.6897300" lon="-53.6753280">
        <ele>523.8</ele>
        <time>2018-09-15T17:43:32Z</time>
      </trkpt>
      <trkpt lat="-24.6897020" lon="-53.6753080">
        <ele>523.8</ele>
        <time>2018-09-15T17:43:33Z</time>
      </trkpt>
      <trkpt lat="-24.6896750" lon="-53.6752880">
        <ele>523.9</ele>
        <time>2018-09-15T17:43:34Z</time>
      </trkpt>
      <trkpt lat="-24.6896480" lon="-53.6752690">
        <ele>523.9</ele>
        <time>2018-09-15T17:43:35Z</time>
      </trkpt>
      <trkpt lat="-24.6896220" lon="-53.6752510">
        <ele>523.9</ele>
        <time>2018-09-15T17:43:36Z</time>
      </trkpt>
      <trkpt lat="-24.6895980" lon="-53.6752350">
        <ele>523.9</ele>
        <time>2018-09-15T17:43:37Z</time>
      </trkpt>
      <trkpt lat="-24.6895730" lon="-53.6752180">
        <ele>524.0</ele>
        <time>2018-09-15T17:43:38Z</time>
      </trkpt>
      <trkpt lat="-24.6895500" lon="-53.6751990">
        <ele>524.0</ele>
        <time>2018-09-15T17:43:39Z</time>
      </trkpt>
      <trkpt lat="-24.6895260" lon="-53.6751800">
        <ele>524.0</ele>
        <time>2018-09-15T17:43:40Z</time>
      </trkpt>
      <trkpt lat="-24.6895020" lon="-53.6751610">
        <ele>524.0</ele>
        <time>2018-09-15T17:43:41Z</time>
      </trkpt>
      <trkpt lat="-24.6894770" lon="-53.6751420">
        <ele>524.0</ele>
        <time>2018-09-15T17:43:42Z</time>
      </trkpt>
      <trkpt lat="-24.6894530" lon="-53.6751230">
        <ele>524.1</ele>
        <time>2018-09-15T17:43:43Z</time>
      </trkpt>
      <trkpt lat="-24.6894290" lon="-53.6751050">
        <ele>524.2</ele>
        <time>2018-09-15T17:43:44Z</time>
      </trkpt>
      <trkpt lat="-24.6894040" lon="-53.6750890">
        <ele>524.3</ele>
        <time>2018-09-15T17:43:45Z</time>
      </trkpt>
      <trkpt lat="-24.6893790" lon="-53.6750720">
        <ele>524.4</ele>
        <time>2018-09-15T17:43:46Z</time>
      </trkpt>
      <trkpt lat="-24.6893560" lon="-53.6750550">
        <ele>524.5</ele>
        <time>2018-09-15T17:43:47Z</time>
      </trkpt>
      <trkpt lat="-24.6893350" lon="-53.6750370">
        <ele>524.7</ele>
        <time>2018-09-15T17:43:48Z</time>
      </trkpt>
      <trkpt lat="-24.6893350" lon="-53.6750370">
        <ele>524.7</ele>
        <time>2018-09-15T17:43:49Z</time>
      </trkpt>
      <trkpt lat="-24.6893140" lon="-53.6750190">
        <ele>524.8</ele>
        <time>2018-09-15T17:43:50Z</time>
      </trkpt>
      <trkpt lat="-24.6892950" lon="-53.6750020">
        <ele>524.9</ele>
        <time>2018-09-15T17:43:51Z</time>
      </trkpt>
      <trkpt lat="-24.6892780" lon="-53.6749870">
        <ele>525.1</ele>
        <time>2018-09-15T17:43:52Z</time>
      </trkpt>
      <trkpt lat="-24.6892620" lon="-53.6749740">
        <ele>525.2</ele>
        <time>2018-09-15T17:43:53Z</time>
      </trkpt>
      <trkpt lat="-24.6892440" lon="-53.6749600">
        <ele>525.2</ele>
        <time>2018-09-15T17:43:54Z</time>
      </trkpt>
      <trkpt lat="-24.6892300" lon="-53.6749480">
        <ele>525.3</ele>
        <time>2018-09-15T17:43:55Z</time>
      </trkpt>
      <trkpt lat="-24.6892150" lon="-53.6749360">
        <ele>525.3</ele>
        <time>2018-09-15T17:43:56Z</time>
      </trkpt>
      <trkpt lat="-24.6891990" lon="-53.6749260">
        <ele>525.4</ele>
        <time>2018-09-15T17:43:57Z</time>
      </trkpt>
      <trkpt lat="-24.6891820" lon="-53.6749150">
        <ele>525.4</ele>
        <time>2018-09-15T17:43:58Z</time>
      </trkpt>
      <trkpt lat="-24.6891660" lon="-53.6749010">
        <ele>525.5</ele>
        <time>2018-09-15T17:43:59Z</time>
      </trkpt>
      <trkpt lat="-24.6891480" lon="-53.6748870">
        <ele>525.5</ele>
        <time>2018-09-15T17:44:00Z</time>
      </trkpt>
      <trkpt lat="-24.6891290" lon="-53.6748710">
        <ele>525.6</ele>
        <time>2018-09-15T17:44:01Z</time>
      </trkpt>
      <trkpt lat="-24.6891090" lon="-53.6748530">
        <ele>525.7</ele>
        <time>2018-09-15T17:44:02Z</time>
      </trkpt>
      <trkpt lat="-24.6890870" lon="-53.6748370">
        <ele>525.8</ele>
        <time>2018-09-15T17:44:03Z</time>
      </trkpt>
      <trkpt lat="-24.6890650" lon="-53.6748220">
        <ele>525.9</ele>
        <time>2018-09-15T17:44:04Z</time>
      </trkpt>
      <trkpt lat="-24.6890460" lon="-53.6748060">
        <ele>526.0</ele>
        <time>2018-09-15T17:44:05Z</time>
      </trkpt>
      <trkpt lat="-24.6890290" lon="-53.6747920">
        <ele>526.1</ele>
        <time>2018-09-15T17:44:06Z</time>
      </trkpt>
      <trkpt lat="-24.6890120" lon="-53.6747770">
        <ele>526.2</ele>
        <time>2018-09-15T17:44:07Z</time>
      </trkpt>
      <trkpt lat="-24.6889950" lon="-53.6747610">
        <ele>526.3</ele>
        <time>2018-09-15T17:44:08Z</time>
      </trkpt>
      <trkpt lat="-24.6889790" lon="-53.6747480">
        <ele>526.3</ele>
        <time>2018-09-15T17:44:09Z</time>
      </trkpt>
      <trkpt lat="-24.6889630" lon="-53.6747340">
        <ele>526.4</ele>
        <time>2018-09-15T17:44:10Z</time>
      </trkpt>
      <trkpt lat="-24.6889480" lon="-53.6747200">
        <ele>526.5</ele>
        <time>2018-09-15T17:44:11Z</time>
      </trkpt>
      <trkpt lat="-24.6889320" lon="-53.6747050">
        <ele>526.6</ele>
        <time>2018-09-15T17:44:12Z</time>
      </trkpt>
      <trkpt lat="-24.6889150" lon="-53.6746920">
        <ele>526.6</ele>
        <time>2018-09-15T17:44:13Z</time>
      </trkpt>
      <trkpt lat="-24.6888990" lon="-53.6746800">
        <ele>526.7</ele>
        <time>2018-09-15T17:44:14Z</time>
      </trkpt>
      <trkpt lat="-24.6888810" lon="-53.6746700">
        <ele>526.7</ele>
        <time>2018-09-15T17:44:15Z</time>
      </trkpt>
      <trkpt lat="-24.6888640" lon="-53.6746590">
        <ele>526.9</ele>
        <time>2018-09-15T17:44:16Z</time>
      </trkpt>
      <trkpt lat="-24.6888470" lon="-53.6746470">
        <ele>527.0</ele>
        <time>2018-09-15T17:44:17Z</time>
      </trkpt>
      <trkpt lat="-24.6888300" lon="-53.6746340">
        <ele>527.1</ele>
        <time>2018-09-15T17:44:18Z</time>
      </trkpt>
      <trkpt lat="-24.6888120" lon="-53.6746190">
        <ele>527.3</ele>
        <time>2018-09-15T17:44:19Z</time>
      </trkpt>
      <trkpt lat="-24.6887920" lon="-53.6746050">
        <ele>527.5</ele>
        <time>2018-09-15T17:44:20Z</time>
      </trkpt>
      <trkpt lat="-24.6887720" lon="-53.6745910">
        <ele>527.8</ele>
        <time>2018-09-15T17:44:21Z</time>
      </trkpt>
      <trkpt lat="-24.6887520" lon="-53.6745770">
        <ele>528.1</ele>
        <time>2018-09-15T17:44:22Z</time>
      </trkpt>
      <trkpt lat="-24.6887330" lon="-53.6745630">
        <ele>528.4</ele>
        <time>2018-09-15T17:44:23Z</time>
      </trkpt>
      <trkpt lat="-24.6887150" lon="-53.6745490">
        <ele>528.6</ele>
        <time>2018-09-15T17:44:24Z</time>
      </trkpt>
      <trkpt lat="-24.6887000" lon="-53.6745330">
        <ele>528.7</ele>
        <time>2018-09-15T17:44:25Z</time>
      </trkpt>
      <trkpt lat="-24.6886860" lon="-53.6745170">
        <ele>528.8</ele>
        <time>2018-09-15T17:44:26Z</time>
      </trkpt>
      <trkpt lat="-24.6886700" lon="-53.6745030">
        <ele>528.9</ele>
        <time>2018-09-15T17:44:27Z</time>
      </trkpt>
      <trkpt lat="-24.6886560" lon="-53.6744900">
        <ele>529.0</ele>
        <time>2018-09-15T17:44:28Z</time>
      </trkpt>
      <trkpt lat="-24.6886400" lon="-53.6744770">
        <ele>529.1</ele>
        <time>2018-09-15T17:44:29Z</time>
      </trkpt>
      <trkpt lat="-24.6886260" lon="-53.6744630">
        <ele>529.2</ele>
        <time>2018-09-15T17:44:30Z</time>
      </trkpt>
      <trkpt lat="-24.6886110" lon="-53.6744480">
        <ele>529.3</ele>
        <time>2018-09-15T17:44:31Z</time>
      </trkpt>
      <trkpt lat="-24.6885960" lon="-53.6744340">
        <ele>529.4</ele>
        <time>2018-09-15T17:44:32Z</time>
      </trkpt>
      <trkpt lat="-24.6885780" lon="-53.6744220">
        <ele>529.5</ele>
        <time>2018-09-15T17:44:33Z</time>
      </trkpt>
      <trkpt lat="-24.6885600" lon="-53.6744110">
        <ele>529.7</ele>
        <time>2018-09-15T17:44:34Z</time>
      </trkpt>
      <trkpt lat="-24.6885410" lon="-53.6744010">
        <ele>529.8</ele>
        <time>2018-09-15T17:44:35Z</time>
      </trkpt>
      <trkpt lat="-24.6885240" lon="-53.6743900">
        <ele>529.9</ele>
        <time>2018-09-15T17:44:36Z</time>
      </trkpt>
      <trkpt lat="-24.6885070" lon="-53.6743780">
        <ele>530.0</ele>
        <time>2018-09-15T17:44:37Z</time>
      </trkpt>
      <trkpt lat="-24.6884920" lon="-53.6743640">
        <ele>530.1</ele>
        <time>2018-09-15T17:44:38Z</time>
      </trkpt>
      <trkpt lat="-24.6884770" lon="-53.6743500">
        <ele>530.2</ele>
        <time>2018-09-15T17:44:39Z</time>
      </trkpt>
      <trkpt lat="-24.6884630" lon="-53.6743370">
        <ele>530.3</ele>
        <time>2018-09-15T17:44:40Z</time>
      </trkpt>
      <trkpt lat="-24.6884480" lon="-53.6743230">
        <ele>530.6</ele>
        <time>2018-09-15T17:44:41Z</time>
      </trkpt>
      <trkpt lat="-24.6884310" lon="-53.6743110">
        <ele>530.9</ele>
        <time>2018-09-15T17:44:42Z</time>
      </trkpt>
      <trkpt lat="-24.6884140" lon="-53.6743010">
        <ele>531.2</ele>
        <time>2018-09-15T17:44:43Z</time>
      </trkpt>
      <trkpt lat="-24.6883940" lon="-53.6742900">
        <ele>531.5</ele>
        <time>2018-09-15T17:44:44Z</time>
      </trkpt>
      <trkpt lat="-24.6883750" lon="-53.6742790">
        <ele>531.7</ele>
        <time>2018-09-15T17:44:45Z</time>
      </trkpt>
      <trkpt lat="-24.6883570" lon="-53.6742670">
        <ele>532.0</ele>
        <time>2018-09-15T17:44:46Z</time>
      </trkpt>
      <trkpt lat="-24.6883390" lon="-53.6742560">
        <ele>532.1</ele>
        <time>2018-09-15T17:44:47Z</time>
      </trkpt>
      <trkpt lat="-24.6883230" lon="-53.6742440">
        <ele>532.3</ele>
        <time>2018-09-15T17:44:48Z</time>
      </trkpt>
      <trkpt lat="-24.6883040" lon="-53.6742320">
        <ele>532.5</ele>
        <time>2018-09-15T17:44:49Z</time>
      </trkpt>
      <trkpt lat="-24.6882870" lon="-53.6742190">
        <ele>532.7</ele>
        <time>2018-09-15T17:44:50Z</time>
      </trkpt>
      <trkpt lat="-24.6882700" lon="-53.6742060">
        <ele>533.0</ele>
        <time>2018-09-15T17:44:51Z</time>
      </trkpt>
      <trkpt lat="-24.6882520" lon="-53.6741930">
        <ele>533.2</ele>
        <time>2018-09-15T17:44:52Z</time>
      </trkpt>
      <trkpt lat="-24.6882310" lon="-53.6741780">
        <ele>533.5</ele>
        <time>2018-09-15T17:44:53Z</time>
      </trkpt>
      <trkpt lat="-24.6882100" lon="-53.6741620">
        <ele>533.8</ele>
        <time>2018-09-15T17:44:54Z</time>
      </trkpt>
      <trkpt lat="-24.6881880" lon="-53.6741470">
        <ele>534.1</ele>
        <time>2018-09-15T17:44:55Z</time>
      </trkpt>
      <trkpt lat="-24.6881670" lon="-53.6741310">
        <ele>534.3</ele>
        <time>2018-09-15T17:44:56Z</time>
      </trkpt>
      <trkpt lat="-24.6881470" lon="-53.6741150">
        <ele>534.5</ele>
        <time>2018-09-15T17:44:57Z</time>
      </trkpt>
      <trkpt lat="-24.6881270" lon="-53.6740990">
        <ele>534.6</ele>
        <time>2018-09-15T17:44:58Z</time>
      </trkpt>
      <trkpt lat="-24.6881070" lon="-53.6740820">
        <ele>534.8</ele>
        <time>2018-09-15T17:44:59Z</time>
      </trkpt>
      <trkpt lat="-24.6880880" lon="-53.6740670">
        <ele>535.0</ele>
        <time>2018-09-15T17:45:00Z</time>
      </trkpt>
      <trkpt lat="-24.6880700" lon="-53.6740530">
        <ele>535.1</ele>
        <time>2018-09-15T17:45:01Z</time>
      </trkpt>
      <trkpt lat="-24.6880510" lon="-53.6740390">
        <ele>535.3</ele>
        <time>2018-09-15T17:45:02Z</time>
      </trkpt>
      <trkpt lat="-24.6880330" lon="-53.6740250">
        <ele>535.4</ele>
        <time>2018-09-15T17:45:03Z</time>
      </trkpt>
      <trkpt lat="-24.6880140" lon="-53.6740110">
        <ele>535.6</ele>
        <time>2018-09-15T17:45:04Z</time>
      </trkpt>
      <trkpt lat="-24.6879950" lon="-53.6739960">
        <ele>535.7</ele>
        <time>2018-09-15T17:45:05Z</time>
      </trkpt>
      <trkpt lat="-24.6879750" lon="-53.6739830">
        <ele>535.9</ele>
        <time>2018-09-15T17:45:06Z</time>
      </trkpt>
      <trkpt lat="-24.6879550" lon="-53.6739690">
        <ele>536.0</ele>
        <time>2018-09-15T17:45:07Z</time>
      </trkpt>
      <trkpt lat="-24.6879370" lon="-53.6739530">
        <ele>536.2</ele>
        <time>2018-09-15T17:45:08Z</time>
      </trkpt>
      <trkpt lat="-24.6879180" lon="-53.6739390">
        <ele>536.5</ele>
        <time>2018-09-15T17:45:09Z</time>
      </trkpt>
      <trkpt lat="-24.6879000" lon="-53.6739250">
        <ele>536.8</ele>
        <time>2018-09-15T17:45:10Z</time>
      </trkpt>
      <trkpt lat="-24.6878810" lon="-53.6739100">
        <ele>537.0</ele>
        <time>2018-09-15T17:45:11Z</time>
      </trkpt>
      <trkpt lat="-24.6878630" lon="-53.6738930">
        <ele>537.3</ele>
        <time>2018-09-15T17:45:12Z</time>
      </trkpt>
      <trkpt lat="-24.6878420" lon="-53.6738770">
        <ele>537.5</ele>
        <time>2018-09-15T17:45:13Z</time>
      </trkpt>
      <trkpt lat="-24.6878220" lon="-53.6738610">
        <ele>537.8</ele>
        <time>2018-09-15T17:45:14Z</time>
      </trkpt>
      <trkpt lat="-24.6878020" lon="-53.6738450">
        <ele>537.9</ele>
        <time>2018-09-15T17:45:15Z</time>
      </trkpt>
      <trkpt lat="-24.6877820" lon="-53.6738290">
        <ele>538.0</ele>
        <time>2018-09-15T17:45:16Z</time>
      </trkpt>
      <trkpt lat="-24.6877630" lon="-53.6738140">
        <ele>538.1</ele>
        <time>2018-09-15T17:45:17Z</time>
      </trkpt>
      <trkpt lat="-24.6877430" lon="-53.6738000">
        <ele>538.2</ele>
        <time>2018-09-15T17:45:18Z</time>
      </trkpt>
      <trkpt lat="-24.6877230" lon="-53.6737870">
        <ele>538.3</ele>
        <time>2018-09-15T17:45:19Z</time>
      </trkpt>
      <trkpt lat="-24.6877000" lon="-53.6737760">
        <ele>538.6</ele>
        <time>2018-09-15T17:45:20Z</time>
      </trkpt>
      <trkpt lat="-24.6876750" lon="-53.6737620">
        <ele>538.8</ele>
        <time>2018-09-15T17:45:21Z</time>
      </trkpt>
      <trkpt lat="-24.6876510" lon="-53.6737460">
        <ele>539.1</ele>
        <time>2018-09-15T17:45:22Z</time>
      </trkpt>
      <trkpt lat="-24.6876270" lon="-53.6737290">
        <ele>539.4</ele>
        <time>2018-09-15T17:45:23Z</time>
      </trkpt>
      <trkpt lat="-24.6876040" lon="-53.6737110">
        <ele>539.5</ele>
        <time>2018-09-15T17:45:24Z</time>
      </trkpt>
      <trkpt lat="-24.6875820" lon="-53.6736940">
        <ele>539.6</ele>
        <time>2018-09-15T17:45:25Z</time>
      </trkpt>
      <trkpt lat="-24.6875600" lon="-53.6736780">
        <ele>539.7</ele>
        <time>2018-09-15T17:45:26Z</time>
      </trkpt>
      <trkpt lat="-24.6875380" lon="-53.6736630">
        <ele>539.8</ele>
        <time>2018-09-15T17:45:27Z</time>
      </trkpt>
      <trkpt lat="-24.6875160" lon="-53.6736470">
        <ele>539.9</ele>
        <time>2018-09-15T17:45:28Z</time>
      </trkpt>
      <trkpt lat="-24.6874960" lon="-53.6736320">
        <ele>540.0</ele>
        <time>2018-09-15T17:45:29Z</time>
      </trkpt>
      <trkpt lat="-24.6874750" lon="-53.6736170">
        <ele>540.2</ele>
        <time>2018-09-15T17:45:30Z</time>
      </trkpt>
      <trkpt lat="-24.6874550" lon="-53.6736040">
        <ele>540.3</ele>
        <time>2018-09-15T17:45:31Z</time>
      </trkpt>
      <trkpt lat="-24.6874370" lon="-53.6735900">
        <ele>540.4</ele>
        <time>2018-09-15T17:45:32Z</time>
      </trkpt>
      <trkpt lat="-24.6874180" lon="-53.6735740">
        <ele>540.5</ele>
        <time>2018-09-15T17:45:33Z</time>
      </trkpt>
      <trkpt lat="-24.6873990" lon="-53.6735590">
        <ele>540.6</ele>
        <time>2018-09-15T17:45:34Z</time>
      </trkpt>
      <trkpt lat="-24.6873800" lon="-53.6735440">
        <ele>540.7</ele>
        <time>2018-09-15T17:45:35Z</time>
      </trkpt>
      <trkpt lat="-24.6873610" lon="-53.6735310">
        <ele>540.8</ele>
        <time>2018-09-15T17:45:36Z</time>
      </trkpt>
      <trkpt lat="-24.6873420" lon="-53.6735180">
        <ele>541.0</ele>
        <time>2018-09-15T17:45:37Z</time>
      </trkpt>
      <trkpt lat="-24.6873250" lon="-53.6735050">
        <ele>541.1</ele>
        <time>2018-09-15T17:45:38Z</time>
      </trkpt>
      <trkpt lat="-24.6873070" lon="-53.6734910">
        <ele>541.3</ele>
        <time>2018-09-15T17:45:39Z</time>
      </trkpt>
      <trkpt lat="-24.6872880" lon="-53.6734770">
        <ele>541.5</ele>
        <time>2018-09-15T17:45:40Z</time>
      </trkpt>
      <trkpt lat="-24.6872680" lon="-53.6734640">
        <ele>541.6</ele>
        <time>2018-09-15T17:45:41Z</time>
      </trkpt>
      <trkpt lat="-24.6872490" lon="-53.6734490">
        <ele>541.8</ele>
        <time>2018-09-15T17:45:42Z</time>
      </trkpt>
      <trkpt lat="-24.6872300" lon="-53.6734330">
        <ele>542.0</ele>
        <time>2018-09-15T17:45:43Z</time>
      </trkpt>
      <trkpt lat="-24.6872110" lon="-53.6734190">
        <ele>542.1</ele>
        <time>2018-09-15T17:45:44Z</time>
      </trkpt>
      <trkpt lat="-24.6871930" lon="-53.6734040">
        <ele>542.2</ele>
        <time>2018-09-15T17:45:45Z</time>
      </trkpt>
      <trkpt lat="-24.6871760" lon="-53.6733910">
        <ele>542.3</ele>
        <time>2018-09-15T17:45:46Z</time>
      </trkpt>
      <trkpt lat="-24.6871580" lon="-53.6733760">
        <ele>542.4</ele>
        <time>2018-09-15T17:45:47Z</time>
      </trkpt>
      <trkpt lat="-24.6871400" lon="-53.6733600">
        <ele>542.5</ele>
        <time>2018-09-15T17:45:48Z</time>
      </trkpt>
      <trkpt lat="-24.6871200" lon="-53.6733450">
        <ele>542.6</ele>
        <time>2018-09-15T17:45:49Z</time>
      </trkpt>
      <trkpt lat="-24.6871010" lon="-53.6733300">
        <ele>542.6</ele>
        <time>2018-09-15T17:45:50Z</time>
      </trkpt>
      <trkpt lat="-24.6870830" lon="-53.6733140">
        <ele>542.7</ele>
        <time>2018-09-15T17:45:51Z</time>
      </trkpt>
      <trkpt lat="-24.6870660" lon="-53.6732990">
        <ele>542.8</ele>
        <time>2018-09-15T17:45:52Z</time>
      </trkpt>
      <trkpt lat="-24.6870480" lon="-53.6732860">
        <ele>542.9</ele>
        <time>2018-09-15T17:45:53Z</time>
      </trkpt>
      <trkpt lat="-24.6870300" lon="-53.6732710">
        <ele>543.1</ele>
        <time>2018-09-15T17:45:54Z</time>
      </trkpt>
      <trkpt lat="-24.6870110" lon="-53.6732560">
        <ele>543.2</ele>
        <time>2018-09-15T17:45:55Z</time>
      </trkpt>
      <trkpt lat="-24.6869910" lon="-53.6732400">
        <ele>543.3</ele>
        <time>2018-09-15T17:45:56Z</time>
      </trkpt>
      <trkpt lat="-24.6869710" lon="-53.6732230">
        <ele>543.5</ele>
        <time>2018-09-15T17:45:57Z</time>
      </trkpt>
      <trkpt lat="-24.6869520" lon="-53.6732070">
        <ele>543.6</ele>
        <time>2018-09-15T17:45:58Z</time>
      </trkpt>
      <trkpt lat="-24.6869320" lon="-53.6731920">
        <ele>543.8</ele>
        <time>2018-09-15T17:45:59Z</time>
      </trkpt>
      <trkpt lat="-24.6869140" lon="-53.6731780">
        <ele>543.9</ele>
        <time>2018-09-15T17:46:00Z</time>
      </trkpt>
      <trkpt lat="-24.6868960" lon="-53.6731630">
        <ele>544.0</ele>
        <time>2018-09-15T17:46:01Z</time>
      </trkpt>
      <trkpt lat="-24.6868770" lon="-53.6731490">
        <ele>544.1</ele>
        <time>2018-09-15T17:46:02Z</time>
      </trkpt>
      <trkpt lat="-24.6868580" lon="-53.6731340">
        <ele>544.1</ele>
        <time>2018-09-15T17:46:03Z</time>
      </trkpt>
      <trkpt lat="-24.6868400" lon="-53.6731190">
        <ele>544.2</ele>
        <time>2018-09-15T17:46:04Z</time>
      </trkpt>
      <trkpt lat="-24.6868210" lon="-53.6731030">
        <ele>544.2</ele>
        <time>2018-09-15T17:46:05Z</time>
      </trkpt>
      <trkpt lat="-24.6868010" lon="-53.6730880">
        <ele>544.3</ele>
        <time>2018-09-15T17:46:06Z</time>
      </trkpt>
      <trkpt lat="-24.6867830" lon="-53.6730720">
        <ele>544.4</ele>
        <time>2018-09-15T17:46:07Z</time>
      </trkpt>
      <trkpt lat="-24.6867640" lon="-53.6730560">
        <ele>544.4</ele>
        <time>2018-09-15T17:46:08Z</time>
      </trkpt>
      <trkpt lat="-24.6867460" lon="-53.6730410">
        <ele>544.5</ele>
        <time>2018-09-15T17:46:09Z</time>
      </trkpt>
      <trkpt lat="-24.6867270" lon="-53.6730260">
        <ele>544.5</ele>
        <time>2018-09-15T17:46:10Z</time>
      </trkpt>
      <trkpt lat="-24.6867100" lon="-53.6730120">
        <ele>544.6</ele>
        <time>2018-09-15T17:46:11Z</time>
      </trkpt>
      <trkpt lat="-24.6866930" lon="-53.6729980">
        <ele>544.6</ele>
        <time>2018-09-15T17:46:12Z</time>
      </trkpt>
      <trkpt lat="-24.6866760" lon="-53.6729840">
        <ele>544.7</ele>
        <time>2018-09-15T17:46:13Z</time>
      </trkpt>
      <trkpt lat="-24.6866590" lon="-53.6729690">
        <ele>544.8</ele>
        <time>2018-09-15T17:46:14Z</time>
      </trkpt>
      <trkpt lat="-24.6866420" lon="-53.6729530">
        <ele>544.9</ele>
        <time>2018-09-15T17:46:15Z</time>
      </trkpt>
      <trkpt lat="-24.6866250" lon="-53.6729380">
        <ele>545.0</ele>
        <time>2018-09-15T17:46:16Z</time>
      </trkpt>
      <trkpt lat="-24.6866060" lon="-53.6729270">
        <ele>545.1</ele>
        <time>2018-09-15T17:46:17Z</time>
      </trkpt>
      <trkpt lat="-24.6865870" lon="-53.6729160">
        <ele>545.2</ele>
        <time>2018-09-15T17:46:18Z</time>
      </trkpt>
      <trkpt lat="-24.6865670" lon="-53.6729030">
        <ele>545.3</ele>
        <time>2018-09-15T17:46:19Z</time>
      </trkpt>
      <trkpt lat="-24.6865490" lon="-53.6728910">
        <ele>545.4</ele>
        <time>2018-09-15T17:46:20Z</time>
      </trkpt>
      <trkpt lat="-24.6865320" lon="-53.6728790">
        <ele>545.5</ele>
        <time>2018-09-15T17:46:21Z</time>
      </trkpt>
      <trkpt lat="-24.6865150" lon="-53.6728670">
        <ele>545.6</ele>
        <time>2018-09-15T17:46:22Z</time>
      </trkpt>
      <trkpt lat="-24.6864980" lon="-53.6728530">
        <ele>545.7</ele>
        <time>2018-09-15T17:46:23Z</time>
      </trkpt>
      <trkpt lat="-24.6864800" lon="-53.6728380">
        <ele>545.8</ele>
        <time>2018-09-15T17:46:24Z</time>
      </trkpt>
      <trkpt lat="-24.6864580" lon="-53.6728210">
        <ele>546.0</ele>
        <time>2018-09-15T17:46:25Z</time>
      </trkpt>
      <trkpt lat="-24.6864350" lon="-53.6728050">
        <ele>546.1</ele>
        <time>2018-09-15T17:46:26Z</time>
      </trkpt>
      <trkpt lat="-24.6864110" lon="-53.6727860">
        <ele>546.2</ele>
        <time>2018-09-15T17:46:27Z</time>
      </trkpt>
      <trkpt lat="-24.6863870" lon="-53.6727670">
        <ele>546.2</ele>
        <time>2018-09-15T17:46:28Z</time>
      </trkpt>
      <trkpt lat="-24.6863650" lon="-53.6727470">
        <ele>546.3</ele>
        <time>2018-09-15T17:46:29Z</time>
      </trkpt>
      <trkpt lat="-24.6863430" lon="-53.6727290">
        <ele>546.4</ele>
        <time>2018-09-15T17:46:30Z</time>
      </trkpt>
      <trkpt lat="-24.6863200" lon="-53.6727100">
        <ele>546.4</ele>
        <time>2018-09-15T17:46:31Z</time>
      </trkpt>
      <trkpt lat="-24.6862970" lon="-53.6726930">
        <ele>546.5</ele>
        <time>2018-09-15T17:46:32Z</time>
      </trkpt>
      <trkpt lat="-24.6862750" lon="-53.6726770">
        <ele>546.5</ele>
        <time>2018-09-15T17:46:33Z</time>
      </trkpt>
      <trkpt lat="-24.6862540" lon="-53.6726590">
        <ele>546.6</ele>
        <time>2018-09-15T17:46:34Z</time>
      </trkpt>
      <trkpt lat="-24.6862340" lon="-53.6726420">
        <ele>546.7</ele>
        <time>2018-09-15T17:46:35Z</time>
      </trkpt>
      <trkpt lat="-24.6862140" lon="-53.6726260">
        <ele>546.7</ele>
        <time>2018-09-15T17:46:36Z</time>
      </trkpt>
      <trkpt lat="-24.6861940" lon="-53.6726090">
        <ele>546.8</ele>
        <time>2018-09-15T17:46:37Z</time>
      </trkpt>
      <trkpt lat="-24.6861730" lon="-53.6725930">
        <ele>546.8</ele>
        <time>2018-09-15T17:46:38Z</time>
      </trkpt>
      <trkpt lat="-24.6861530" lon="-53.6725760">
        <ele>546.9</ele>
        <time>2018-09-15T17:46:39Z</time>
      </trkpt>
      <trkpt lat="-24.6861330" lon="-53.6725600">
        <ele>546.9</ele>
        <time>2018-09-15T17:46:40Z</time>
      </trkpt>
      <trkpt lat="-24.6861140" lon="-53.6725430">
        <ele>547.0</ele>
        <time>2018-09-15T17:46:41Z</time>
      </trkpt>
      <trkpt lat="-24.6860950" lon="-53.6725290">
        <ele>547.0</ele>
        <time>2018-09-15T17:46:42Z</time>
      </trkpt>
      <trkpt lat="-24.6860780" lon="-53.6725150">
        <ele>547.1</ele>
        <time>2018-09-15T17:46:43Z</time>
      </trkpt>
      <trkpt lat="-24.6860640" lon="-53.6725010">
        <ele>547.1</ele>
        <time>2018-09-15T17:46:44Z</time>
      </trkpt>
      <trkpt lat="-24.6860440" lon="-53.6724870">
        <ele>547.2</ele>
        <time>2018-09-15T17:46:45Z</time>
      </trkpt>
      <trkpt lat="-24.6860420" lon="-53.6724860">
        <ele>547.2</ele>
        <time>2018-09-15T17:46:46Z</time>
      </trkpt>
      <trkpt lat="-24.6860430" lon="-53.6724860">
        <ele>547.2</ele>
        <time>2018-09-15T17:46:47Z</time>
      </trkpt>
      <trkpt lat="-24.6860440" lon="-53.6724810">
        <ele>547.2</ele>
        <time>2018-09-15T17:48:24Z</time>
      </trkpt>
      <trkpt lat="-24.6860360" lon="-53.6724740">
        <ele>547.2</ele>
        <time>2018-09-15T17:48:25Z</time>
      </trkpt>
      <trkpt lat="-24.6860220" lon="-53.6724630">
        <ele>547.2</ele>
        <time>2018-09-15T17:48:26Z</time>
      </trkpt>
      <trkpt lat="-24.6860030" lon="-53.6724480">
        <ele>547.3</ele>
        <time>2018-09-15T17:48:27Z</time>
      </trkpt>
      <trkpt lat="-24.6859840" lon="-53.6724320">
        <ele>547.3</ele>
        <time>2018-09-15T17:48:28Z</time>
      </trkpt>
      <trkpt lat="-24.6859630" lon="-53.6724140">
        <ele>547.4</ele>
        <time>2018-09-15T17:48:29Z</time>
      </trkpt>
      <trkpt lat="-24.6859410" lon="-53.6723960">
        <ele>547.5</ele>
        <time>2018-09-15T17:48:30Z</time>
      </trkpt>
      <trkpt lat="-24.6859180" lon="-53.6723780">
        <ele>547.5</ele>
        <time>2018-09-15T17:48:31Z</time>
      </trkpt>
      <trkpt lat="-24.6858940" lon="-53.6723610">
        <ele>547.6</ele>
        <time>2018-09-15T17:48:32Z</time>
      </trkpt>
      <trkpt lat="-24.6858700" lon="-53.6723430">
        <ele>547.6</ele>
        <time>2018-09-15T17:48:33Z</time>
      </trkpt>
      <trkpt lat="-24.6858450" lon="-53.6723250">
        <ele>547.7</ele>
        <time>2018-09-15T17:48:34Z</time>
      </trkpt>
      <trkpt lat="-24.6858190" lon="-53.6723070">
        <ele>547.8</ele>
        <time>2018-09-15T17:48:35Z</time>
      </trkpt>
      <trkpt lat="-24.6857940" lon="-53.6722860">
        <ele>547.8</ele>
        <time>2018-09-15T17:48:36Z</time>
      </trkpt>
      <trkpt lat="-24.6857690" lon="-53.6722660">
        <ele>547.8</ele>
        <time>2018-09-15T17:48:37Z</time>
      </trkpt>
      <trkpt lat="-24.6857450" lon="-53.6722420">
        <ele>547.9</ele>
        <time>2018-09-15T17:48:38Z</time>
      </trkpt>
      <trkpt lat="-24.6857170" lon="-53.6722210">
        <ele>547.9</ele>
        <time>2018-09-15T17:48:39Z</time>
      </trkpt>
      <trkpt lat="-24.6856880" lon="-53.6721990">
        <ele>548.0</ele>
        <time>2018-09-15T17:48:40Z</time>
      </trkpt>
      <trkpt lat="-24.6856580" lon="-53.6721760">
        <ele>548.0</ele>
        <time>2018-09-15T17:48:41Z</time>
      </trkpt>
      <trkpt lat="-24.6856270" lon="-53.6721520">
        <ele>548.0</ele>
        <time>2018-09-15T17:48:42Z</time>
      </trkpt>
      <trkpt lat="-24.6855950" lon="-53.6721260">
        <ele>548.1</ele>
        <time>2018-09-15T17:48:43Z</time>
      </trkpt>
      <trkpt lat="-24.6855630" lon="-53.6721010">
        <ele>548.1</ele>
        <time>2018-09-15T17:48:44Z</time>
      </trkpt>
      <trkpt lat="-24.6855310" lon="-53.6720740">
        <ele>548.2</ele>
        <time>2018-09-15T17:48:45Z</time>
      </trkpt>
      <trkpt lat="-24.6854970" lon="-53.6720480">
        <ele>548.2</ele>
        <time>2018-09-15T17:48:46Z</time>
      </trkpt>
      <trkpt lat="-24.6854610" lon="-53.6720230">
        <ele>548.3</ele>
        <time>2018-09-15T17:48:47Z</time>
      </trkpt>
      <trkpt lat="-24.6854250" lon="-53.6719980">
        <ele>548.3</ele>
        <time>2018-09-15T17:48:48Z</time>
      </trkpt>
      <trkpt lat="-24.6853890" lon="-53.6719710">
        <ele>548.4</ele>
        <time>2018-09-15T17:48:49Z</time>
      </trkpt>
      <trkpt lat="-24.6853520" lon="-53.6719430">
        <ele>548.4</ele>
        <time>2018-09-15T17:48:50Z</time>
      </trkpt>
      <trkpt lat="-24.6853150" lon="-53.6719120">
        <ele>548.4</ele>
        <time>2018-09-15T17:48:51Z</time>
      </trkpt>
      <trkpt lat="-24.6852780" lon="-53.6718810">
        <ele>548.4</ele>
        <time>2018-09-15T17:48:52Z</time>
      </trkpt>
      <trkpt lat="-24.6852390" lon="-53.6718500">
        <ele>548.4</ele>
        <time>2018-09-15T17:48:53Z</time>
      </trkpt>
      <trkpt lat="-24.6852020" lon="-53.6718190">
        <ele>548.4</ele>
        <time>2018-09-15T17:48:54Z</time>
      </trkpt>
      <trkpt lat="-24.6851680" lon="-53.6717920">
        <ele>548.4</ele>
        <time>2018-09-15T17:48:55Z</time>
      </trkpt>
      <trkpt lat="-24.6851410" lon="-53.6717690">
        <ele>548.4</ele>
        <time>2018-09-15T17:48:56Z</time>
      </trkpt>
      <trkpt lat="-24.6851160" lon="-53.6717480">
        <ele>548.4</ele>
        <time>2018-09-15T17:48:57Z</time>
      </trkpt>
      <trkpt lat="-24.6850890" lon="-53.6717280">
        <ele>548.4</ele>
        <time>2018-09-15T17:48:58Z</time>
      </trkpt>
      <trkpt lat="-24.6850590" lon="-53.6717050">
        <ele>548.3</ele>
        <time>2018-09-15T17:48:59Z</time>
      </trkpt>
      <trkpt lat="-24.6850270" lon="-53.6716800">
        <ele>548.3</ele>
        <time>2018-09-15T17:49:00Z</time>
      </trkpt>
      <trkpt lat="-24.6849940" lon="-53.6716530">
        <ele>548.3</ele>
        <time>2018-09-15T17:49:01Z</time>
      </trkpt>
      <trkpt lat="-24.6849580" lon="-53.6716240">
        <ele>548.2</ele>
        <time>2018-09-15T17:49:02Z</time>
      </trkpt>
      <trkpt lat="-24.6849210" lon="-53.6715940">
        <ele>548.1</ele>
        <time>2018-09-15T17:49:03Z</time>
      </trkpt>
      <trkpt lat="-24.6848820" lon="-53.6715630">
        <ele>548.0</ele>
        <time>2018-09-15T17:49:04Z</time>
      </trkpt>
      <trkpt lat="-24.6848410" lon="-53.6715320">
        <ele>547.9</ele>
        <time>2018-09-15T17:49:05Z</time>
      </trkpt>
      <trkpt lat="-24.6848010" lon="-53.6715000">
        <ele>547.9</ele>
        <time>2018-09-15T17:49:06Z</time>
      </trkpt>
      <trkpt lat="-24.6847600" lon="-53.6714670">
        <ele>547.8</ele>
        <time>2018-09-15T17:49:07Z</time>
      </trkpt>
      <trkpt lat="-24.6847190" lon="-53.6714350">
        <ele>547.7</ele>
        <time>2018-09-15T17:49:08Z</time>
      </trkpt>
      <trkpt lat="-24.6846780" lon="-53.6714030">
        <ele>547.6</ele>
        <time>2018-09-15T17:49:09Z</time>
      </trkpt>
      <trkpt lat="-24.6846390" lon="-53.6713710">
        <ele>547.5</ele>
        <time>2018-09-15T17:49:10Z</time>
      </trkpt>
      <trkpt lat="-24.6845990" lon="-53.6713420">
        <ele>547.4</ele>
        <time>2018-09-15T17:49:11Z</time>
      </trkpt>
      <trkpt lat="-24.6845580" lon="-53.6713110">
        <ele>547.3</ele>
        <time>2018-09-15T17:49:12Z</time>
      </trkpt>
      <trkpt lat="-24.6845160" lon="-53.6712780">
        <ele>547.1</ele>
        <time>2018-09-15T17:49:13Z</time>
      </trkpt>
      <trkpt lat="-24.6844730" lon="-53.6712440">
        <ele>546.9</ele>
        <time>2018-09-15T17:49:14Z</time>
      </trkpt>
      <trkpt lat="-24.6844280" lon="-53.6712090">
        <ele>546.7</ele>
        <time>2018-09-15T17:49:15Z</time>
      </trkpt>
      <trkpt lat="-24.6843820" lon="-53.6711750">
        <ele>546.6</ele>
        <time>2018-09-15T17:49:16Z</time>
      </trkpt>
      <trkpt lat="-24.6843350" lon="-53.6711400">
        <ele>546.4</ele>
        <time>2018-09-15T17:49:17Z</time>
      </trkpt>
      <trkpt lat="-24.6842900" lon="-53.6711020">
        <ele>546.3</ele>
        <time>2018-09-15T17:49:18Z</time>
      </trkpt>
      <trkpt lat="-24.6842430" lon="-53.6710640">
        <ele>546.1</ele>
        <time>2018-09-15T17:49:19Z</time>
      </trkpt>
      <trkpt lat="-24.6841940" lon="-53.6710270">
        <ele>546.0</ele>
        <time>2018-09-15T17:49:20Z</time>
      </trkpt>
      <trkpt lat="-24.6841450" lon="-53.6709880">
        <ele>545.9</ele>
        <time>2018-09-15T17:49:21Z</time>
      </trkpt>
      <trkpt lat="-24.6840950" lon="-53.6709480">
        <ele>545.8</ele>
        <time>2018-09-15T17:49:22Z</time>
      </trkpt>
      <trkpt lat="-24.6840440" lon="-53.6709080">
        <ele>545.6</ele>
        <time>2018-09-15T17:49:23Z</time>
      </trkpt>
      <trkpt lat="-24.6839920" lon="-53.6708680">
        <ele>545.5</ele>
        <time>2018-09-15T17:49:24Z</time>
      </trkpt>
      <trkpt lat="-24.6839390" lon="-53.6708290">
        <ele>545.4</ele>
        <time>2018-09-15T17:49:25Z</time>
      </trkpt>
      <trkpt lat="-24.6838850" lon="-53.6707860">
        <ele>545.3</ele>
        <time>2018-09-15T17:49:26Z</time>
      </trkpt>
      <trkpt lat="-24.6838270" lon="-53.6707400">
        <ele>545.3</ele>
        <time>2018-09-15T17:49:27Z</time>
      </trkpt>
      <trkpt lat="-24.6837660" lon="-53.6706920">
        <ele>545.2</ele>
        <time>2018-09-15T17:49:28Z</time>
      </trkpt>
      <trkpt lat="-24.6837030" lon="-53.6706430">
        <ele>545.1</ele>
        <time>2018-09-15T17:49:29Z</time>
      </trkpt>
      <trkpt lat="-24.6836370" lon="-53.6705930">
        <ele>545.0</ele>
        <time>2018-09-15T17:49:30Z</time>
      </trkpt>
      <trkpt lat="-24.6835690" lon="-53.6705420">
        <ele>544.9</ele>
        <time>2018-09-15T17:49:31Z</time>
      </trkpt>
      <trkpt lat="-24.6835010" lon="-53.6704890">
        <ele>544.6</ele>
        <time>2018-09-15T17:49:32Z</time>
      </trkpt>
      <trkpt lat="-24.6834330" lon="-53.6704360">
        <ele>544.3</ele>
        <time>2018-09-15T17:49:33Z</time>
      </trkpt>
      <trkpt lat="-24.6833630" lon="-53.6703840">
        <ele>543.9</ele>
        <time>2018-09-15T17:49:34Z</time>
      </trkpt>
      <trkpt lat="-24.6832940" lon="-53.6703330">
        <ele>543.6</ele>
        <time>2018-09-15T17:49:35Z</time>
      </trkpt>
      <trkpt lat="-24.6832230" lon="-53.6702800">
        <ele>543.3</ele>
        <time>2018-09-15T17:49:36Z</time>
      </trkpt>
      <trkpt lat="-24.6831500" lon="-53.6702250">
        <ele>543.0</ele>
        <time>2018-09-15T17:49:37Z</time>
      </trkpt>
      <trkpt lat="-24.6830750" lon="-53.6701690">
        <ele>542.6</ele>
        <time>2018-09-15T17:49:38Z</time>
      </trkpt>
      <trkpt lat="-24.6830000" lon="-53.6701120">
        <ele>542.1</ele>
        <time>2018-09-15T17:49:39Z</time>
      </trkpt>
      <trkpt lat="-24.6829260" lon="-53.6700560">
        <ele>541.6</ele>
        <time>2018-09-15T17:49:40Z</time>
      </trkpt>
      <trkpt lat="-24.6828550" lon="-53.6700040">
        <ele>541.1</ele>
        <time>2018-09-15T17:49:41Z</time>
      </trkpt>
      <trkpt lat="-24.6827860" lon="-53.6699500">
        <ele>540.7</ele>
        <time>2018-09-15T17:49:42Z</time>
      </trkpt>
      <trkpt lat="-24.6827210" lon="-53.6698980">
        <ele>540.3</ele>
        <time>2018-09-15T17:49:43Z</time>
      </trkpt>
      <trkpt lat="-24.6826600" lon="-53.6698470">
        <ele>540.1</ele>
        <time>2018-09-15T17:49:44Z</time>
      </trkpt>
      <trkpt lat="-24.6826000" lon="-53.6697940">
        <ele>539.8</ele>
        <time>2018-09-15T17:49:45Z</time>
      </trkpt>
      <trkpt lat="-24.6825390" lon="-53.6697420">
        <ele>539.6</ele>
        <time>2018-09-15T17:49:46Z</time>
      </trkpt>
      <trkpt lat="-24.6824820" lon="-53.6696890">
        <ele>539.4</ele>
        <time>2018-09-15T17:49:47Z</time>
      </trkpt>
      <trkpt lat="-24.6824290" lon="-53.6696360">
        <ele>539.2</ele>
        <time>2018-09-15T17:49:48Z</time>
      </trkpt>
      <trkpt lat="-24.6823820" lon="-53.6695840">
        <ele>539.0</ele>
        <time>2018-09-15T17:49:49Z</time>
      </trkpt>
      <trkpt lat="-24.6823380" lon="-53.6695330">
        <ele>538.9</ele>
        <time>2018-09-15T17:49:50Z</time>
      </trkpt>
      <trkpt lat="-24.6823000" lon="-53.6694860">
        <ele>538.9</ele>
        <time>2018-09-15T17:49:51Z</time>
      </trkpt>
      <trkpt lat="-24.6822650" lon="-53.6694440">
        <ele>539.0</ele>
        <time>2018-09-15T17:49:52Z</time>
      </trkpt>
      <trkpt lat="-24.6822290" lon="-53.6694090">
        <ele>538.7</ele>
        <time>2018-09-15T17:49:53Z</time>
      </trkpt>
      <trkpt lat="-24.6821880" lon="-53.6693840">
        <ele>538.1</ele>
        <time>2018-09-15T17:49:54Z</time>
      </trkpt>
      <trkpt lat="-24.6821390" lon="-53.6693690">
        <ele>537.5</ele>
        <time>2018-09-15T17:49:55Z</time>
      </trkpt>
      <trkpt lat="-24.6820840" lon="-53.6693670">
        <ele>536.8</ele>
        <time>2018-09-15T17:49:56Z</time>
      </trkpt>
      <trkpt lat="-24.6820270" lon="-53.6693750">
        <ele>536.0</ele>
        <time>2018-09-15T17:49:57Z</time>
      </trkpt>
      <trkpt lat="-24.6819690" lon="-53.6693910">
        <ele>535.4</ele>
        <time>2018-09-15T17:49:58Z</time>
      </trkpt>
      <trkpt lat="-24.6819090" lon="-53.6694100">
        <ele>534.9</ele>
        <time>2018-09-15T17:49:59Z</time>
      </trkpt>
      <trkpt lat="-24.6818450" lon="-53.6694290">
        <ele>534.2</ele>
        <time>2018-09-15T17:50:00Z</time>
      </trkpt>
      <trkpt lat="-24.6817810" lon="-53.6694470">
        <ele>533.4</ele>
        <time>2018-09-15T17:50:01Z</time>
      </trkpt>
      <trkpt lat="-24.6817240" lon="-53.6694630">
        <ele>532.7</ele>
        <time>2018-09-15T17:50:02Z</time>
      </trkpt>
      <trkpt lat="-24.6816650" lon="-53.6694800">
        <ele>532.1</ele>
        <time>2018-09-15T17:50:03Z</time>
      </trkpt>
      <trkpt lat="-24.6816000" lon="-53.6694990">
        <ele>531.4</ele>
        <time>2018-09-15T17:50:04Z</time>
      </trkpt>
      <trkpt lat="-24.6815340" lon="-53.6695180">
        <ele>530.7</ele>
        <time>2018-09-15T17:50:05Z</time>
      </trkpt>
      <trkpt lat="-24.6814710" lon="-53.6695380">
        <ele>530.1</ele>
        <time>2018-09-15T17:50:06Z</time>
      </trkpt>
      <trkpt lat="-24.6814070" lon="-53.6695590">
        <ele>529.6</ele>
        <time>2018-09-15T17:50:07Z</time>
      </trkpt>
      <trkpt lat="-24.6813460" lon="-53.6695810">
        <ele>529.1</ele>
        <time>2018-09-15T17:50:08Z</time>
      </trkpt>
      <trkpt lat="-24.6812840" lon="-53.6696020">
        <ele>528.7</ele>
        <time>2018-09-15T17:50:09Z</time>
      </trkpt>
      <trkpt lat="-24.6812190" lon="-53.6696240">
        <ele>528.3</ele>
        <time>2018-09-15T17:50:10Z</time>
      </trkpt>
      <trkpt lat="-24.6811510" lon="-53.6696480">
        <ele>527.9</ele>
        <time>2018-09-15T17:50:11Z</time>
      </trkpt>
      <trkpt lat="-24.6810830" lon="-53.6696720">
        <ele>527.5</ele>
        <time>2018-09-15T17:50:12Z</time>
      </trkpt>
      <trkpt lat="-24.6810140" lon="-53.6696920">
        <ele>527.2</ele>
        <time>2018-09-15T17:50:13Z</time>
      </trkpt>
      <trkpt lat="-24.6809410" lon="-53.6697130">
        <ele>526.8</ele>
        <time>2018-09-15T17:50:14Z</time>
      </trkpt>
      <trkpt lat="-24.6808620" lon="-53.6697350">
        <ele>526.4</ele>
        <time>2018-09-15T17:50:15Z</time>
      </trkpt>
      <trkpt lat="-24.6807820" lon="-53.6697580">
        <ele>526.0</ele>
        <time>2018-09-15T17:50:16Z</time>
      </trkpt>
      <trkpt lat="-24.6807000" lon="-53.6697820">
        <ele>525.6</ele>
        <time>2018-09-15T17:50:17Z</time>
      </trkpt>
      <trkpt lat="-24.6806250" lon="-53.6698010">
        <ele>525.2</ele>
        <time>2018-09-15T17:50:18Z</time>
      </trkpt>
      <trkpt lat="-24.6805490" lon="-53.6698190">
        <ele>524.8</ele>
        <time>2018-09-15T17:50:19Z</time>
      </trkpt>
      <trkpt lat="-24.6804720" lon="-53.6698380">
        <ele>524.4</ele>
        <time>2018-09-15T17:50:20Z</time>
      </trkpt>
      <trkpt lat="-24.6803940" lon="-53.6698570">
        <ele>524.0</ele>
        <time>2018-09-15T17:50:21Z</time>
      </trkpt>
      <trkpt lat="-24.6803170" lon="-53.6698780">
        <ele>523.5</ele>
        <time>2018-09-15T17:50:22Z</time>
      </trkpt>
      <trkpt lat="-24.6802400" lon="-53.6698990">
        <ele>523.0</ele>
        <time>2018-09-15T17:50:23Z</time>
      </trkpt>
      <trkpt lat="-24.6801660" lon="-53.6699190">
        <ele>522.5</ele>
        <time>2018-09-15T17:50:24Z</time>
      </trkpt>
      <trkpt lat="-24.6800950" lon="-53.6699370">
        <ele>522.1</ele>
        <time>2018-09-15T17:50:25Z</time>
      </trkpt>
      <trkpt lat="-24.6800170" lon="-53.6699590">
        <ele>521.6</ele>
        <time>2018-09-15T17:50:26Z</time>
      </trkpt>
      <trkpt lat="-24.6799340" lon="-53.6699800">
        <ele>521.0</ele>
        <time>2018-09-15T17:50:27Z</time>
      </trkpt>
      <trkpt lat="-24.6798460" lon="-53.6700030">
        <ele>520.5</ele>
        <time>2018-09-15T17:50:28Z</time>
      </trkpt>
      <trkpt lat="-24.6797590" lon="-53.6700280">
        <ele>520.0</ele>
        <time>2018-09-15T17:50:29Z</time>
      </trkpt>
      <trkpt lat="-24.6796700" lon="-53.6700570">
        <ele>519.5</ele>
        <time>2018-09-15T17:50:30Z</time>
      </trkpt>
      <trkpt lat="-24.6795830" lon="-53.6700910">
        <ele>519.0</ele>
        <time>2018-09-15T17:50:31Z</time>
      </trkpt>
      <trkpt lat="-24.6794980" lon="-53.6701260">
        <ele>518.6</ele>
        <time>2018-09-15T17:50:32Z</time>
      </trkpt>
      <trkpt lat="-24.6793380" lon="-53.6702050">
        <ele>518.0</ele>
        <time>2018-09-15T17:50:33Z</time>
      </trkpt>
      <trkpt lat="-24.6792560" lon="-53.6702510">
        <ele>517.7</ele>
        <time>2018-09-15T17:50:34Z</time>
      </trkpt>
      <trkpt lat="-24.6791760" lon="-53.6702980">
        <ele>517.5</ele>
        <time>2018-09-15T17:50:35Z</time>
      </trkpt>
      <trkpt lat="-24.6790980" lon="-53.6703450">
        <ele>517.4</ele>
        <time>2018-09-15T17:50:36Z</time>
      </trkpt>
      <trkpt lat="-24.6790210" lon="-53.6703930">
        <ele>517.2</ele>
        <time>2018-09-15T17:50:37Z</time>
      </trkpt>
      <trkpt lat="-24.6789470" lon="-53.6704400">
        <ele>517.2</ele>
        <time>2018-09-15T17:50:38Z</time>
      </trkpt>
      <trkpt lat="-24.6788740" lon="-53.6704850">
        <ele>517.2</ele>
        <time>2018-09-15T17:50:39Z</time>
      </trkpt>
      <trkpt lat="-24.6788040" lon="-53.6705280">
        <ele>517.1</ele>
        <time>2018-09-15T17:50:40Z</time>
      </trkpt>
      <trkpt lat="-24.6787340" lon="-53.6705700">
        <ele>517.1</ele>
        <time>2018-09-15T17:50:41Z</time>
      </trkpt>
      <trkpt lat="-24.6786680" lon="-53.6706100">
        <ele>517.1</ele>
        <time>2018-09-15T17:50:42Z</time>
      </trkpt>
      <trkpt lat="-24.6786030" lon="-53.6706510">
        <ele>517.1</ele>
        <time>2018-09-15T17:50:43Z</time>
      </trkpt>
      <trkpt lat="-24.6785410" lon="-53.6706900">
        <ele>517.0</ele>
        <time>2018-09-15T17:50:44Z</time>
      </trkpt>
      <trkpt lat="-24.6784800" lon="-53.6707290">
        <ele>517.0</ele>
        <time>2018-09-15T17:50:45Z</time>
      </trkpt>
      <trkpt lat="-24.6784220" lon="-53.6707680">
        <ele>517.0</ele>
        <time>2018-09-15T17:50:46Z</time>
      </trkpt>
      <trkpt lat="-24.6783670" lon="-53.6708040">
        <ele>516.9</ele>
        <time>2018-09-15T17:50:47Z</time>
      </trkpt>
      <trkpt lat="-24.6782550" lon="-53.6708690">
        <ele>516.8</ele>
        <time>2018-09-15T17:50:49Z</time>
      </trkpt>
      <trkpt lat="-24.6781990" lon="-53.6709000">
        <ele>516.8</ele>
        <time>2018-09-15T17:50:50Z</time>
      </trkpt>
      <trkpt lat="-24.6781450" lon="-53.6709340">
        <ele>516.7</ele>
        <time>2018-09-15T17:50:51Z</time>
      </trkpt>
      <trkpt lat="-24.6780900" lon="-53.6709670">
        <ele>516.6</ele>
        <time>2018-09-15T17:50:52Z</time>
      </trkpt>
      <trkpt lat="-24.6780350" lon="-53.6709930">
        <ele>516.5</ele>
        <time>2018-09-15T17:50:53Z</time>
      </trkpt>
      <trkpt lat="-24.6779820" lon="-53.6710220">
        <ele>516.4</ele>
        <time>2018-09-15T17:50:54Z</time>
      </trkpt>
      <trkpt lat="-24.6779250" lon="-53.6710590">
        <ele>516.3</ele>
        <time>2018-09-15T17:50:55Z</time>
      </trkpt>
      <trkpt lat="-24.6778680" lon="-53.6710950">
        <ele>516.2</ele>
        <time>2018-09-15T17:50:56Z</time>
      </trkpt>
      <trkpt lat="-24.6778100" lon="-53.6711300">
        <ele>516.1</ele>
        <time>2018-09-15T17:50:57Z</time>
      </trkpt>
      <trkpt lat="-24.6777530" lon="-53.6711640">
        <ele>516.0</ele>
        <time>2018-09-15T17:50:58Z</time>
      </trkpt>
      <trkpt lat="-24.6776990" lon="-53.6711980">
        <ele>516.0</ele>
        <time>2018-09-15T17:50:59Z</time>
      </trkpt>
      <trkpt lat="-24.6776450" lon="-53.6712320">
        <ele>515.9</ele>
        <time>2018-09-15T17:51:00Z</time>
      </trkpt>
      <trkpt lat="-24.6775910" lon="-53.6712640">
        <ele>515.7</ele>
        <time>2018-09-15T17:51:01Z</time>
      </trkpt>
      <trkpt lat="-24.6775390" lon="-53.6712980">
        <ele>515.5</ele>
        <time>2018-09-15T17:51:02Z</time>
      </trkpt>
      <trkpt lat="-24.6774880" lon="-53.6713330">
        <ele>515.5</ele>
        <time>2018-09-15T17:51:03Z</time>
      </trkpt>
      <trkpt lat="-24.6774400" lon="-53.6713680">
        <ele>515.4</ele>
        <time>2018-09-15T17:51:04Z</time>
      </trkpt>
      <trkpt lat="-24.6773920" lon="-53.6714030">
        <ele>515.3</ele>
        <time>2018-09-15T17:51:05Z</time>
      </trkpt>
      <trkpt lat="-24.6773450" lon="-53.6714380">
        <ele>515.2</ele>
        <time>2018-09-15T17:51:06Z</time>
      </trkpt>
      <trkpt lat="-24.6772970" lon="-53.6714750">
        <ele>515.1</ele>
        <time>2018-09-15T17:51:07Z</time>
      </trkpt>
      <trkpt lat="-24.6772500" lon="-53.6715130">
        <ele>515.0</ele>
        <time>2018-09-15T17:51:08Z</time>
      </trkpt>
      <trkpt lat="-24.6772010" lon="-53.6715510">
        <ele>515.0</ele>
        <time>2018-09-15T17:51:09Z</time>
      </trkpt>
      <trkpt lat="-24.6771520" lon="-53.6715910">
        <ele>514.9</ele>
        <time>2018-09-15T17:51:10Z</time>
      </trkpt>
      <trkpt lat="-24.6771030" lon="-53.6716300">
        <ele>514.7</ele>
        <time>2018-09-15T17:51:11Z</time>
      </trkpt>
      <trkpt lat="-24.6770550" lon="-53.6716690">
        <ele>514.6</ele>
        <time>2018-09-15T17:51:12Z</time>
      </trkpt>
      <trkpt lat="-24.6770060" lon="-53.6717090">
        <ele>514.5</ele>
        <time>2018-09-15T17:51:13Z</time>
      </trkpt>
      <trkpt lat="-24.6769570" lon="-53.6717480">
        <ele>514.3</ele>
        <time>2018-09-15T17:51:14Z</time>
      </trkpt>
      <trkpt lat="-24.6769070" lon="-53.6717880">
        <ele>514.1</ele>
        <time>2018-09-15T17:51:15Z</time>
      </trkpt>
      <trkpt lat="-24.6768560" lon="-53.6718270">
        <ele>514.0</ele>
        <time>2018-09-15T17:51:16Z</time>
      </trkpt>
      <trkpt lat="-24.6768040" lon="-53.6718650">
        <ele>513.8</ele>
        <time>2018-09-15T17:51:17Z</time>
      </trkpt>
      <trkpt lat="-24.6767540" lon="-53.6719010">
        <ele>513.6</ele>
        <time>2018-09-15T17:51:18Z</time>
      </trkpt>
      <trkpt lat="-24.6767010" lon="-53.6719390">
        <ele>513.5</ele>
        <time>2018-09-15T17:51:19Z</time>
      </trkpt>
      <trkpt lat="-24.6766460" lon="-53.6719790">
        <ele>513.3</ele>
        <time>2018-09-15T17:51:20Z</time>
      </trkpt>
      <trkpt lat="-24.6765900" lon="-53.6720190">
        <ele>513.1</ele>
        <time>2018-09-15T17:51:21Z</time>
      </trkpt>
      <trkpt lat="-24.6765330" lon="-53.6720580">
        <ele>512.9</ele>
        <time>2018-09-15T17:51:22Z</time>
      </trkpt>
      <trkpt lat="-24.6765330" lon="-53.6720580">
        <ele>512.9</ele>
        <time>2018-09-15T17:51:23Z</time>
      </trkpt>
      <trkpt lat="-24.6764750" lon="-53.6720990">
        <ele>512.8</ele>
        <time>2018-09-15T17:51:24Z</time>
      </trkpt>
      <trkpt lat="-24.6764160" lon="-53.6721420">
        <ele>512.6</ele>
        <time>2018-09-15T17:51:25Z</time>
      </trkpt>
      <trkpt lat="-24.6763560" lon="-53.6721870">
        <ele>512.4</ele>
        <time>2018-09-15T17:51:26Z</time>
      </trkpt>
      <trkpt lat="-24.6762970" lon="-53.6722360">
        <ele>512.1</ele>
        <time>2018-09-15T17:51:27Z</time>
      </trkpt>
      <trkpt lat="-24.6762420" lon="-53.6722880">
        <ele>511.9</ele>
        <time>2018-09-15T17:51:28Z</time>
      </trkpt>
      <trkpt lat="-24.6761880" lon="-53.6723430">
        <ele>511.7</ele>
        <time>2018-09-15T17:51:29Z</time>
      </trkpt>
      <trkpt lat="-24.6761390" lon="-53.6724010">
        <ele>511.6</ele>
        <time>2018-09-15T17:51:30Z</time>
      </trkpt>
      <trkpt lat="-24.6760960" lon="-53.6724630">
        <ele>511.5</ele>
        <time>2018-09-15T17:51:31Z</time>
      </trkpt>
      <trkpt lat="-24.6760550" lon="-53.6725260">
        <ele>511.5</ele>
        <time>2018-09-15T17:51:32Z</time>
      </trkpt>
      <trkpt lat="-24.6760190" lon="-53.6725890">
        <ele>511.4</ele>
        <time>2018-09-15T17:51:33Z</time>
      </trkpt>
      <trkpt lat="-24.6759870" lon="-53.6726520">
        <ele>511.4</ele>
        <time>2018-09-15T17:51:34Z</time>
      </trkpt>
      <trkpt lat="-24.6759580" lon="-53.6727160">
        <ele>511.5</ele>
        <time>2018-09-15T17:51:35Z</time>
      </trkpt>
      <trkpt lat="-24.6759330" lon="-53.6727800">
        <ele>511.5</ele>
        <time>2018-09-15T17:51:36Z</time>
      </trkpt>
      <trkpt lat="-24.6759100" lon="-53.6728410">
        <ele>511.5</ele>
        <time>2018-09-15T17:51:37Z</time>
      </trkpt>
      <trkpt lat="-24.6758900" lon="-53.6729010">
        <ele>511.5</ele>
        <time>2018-09-15T17:51:38Z</time>
      </trkpt>
      <trkpt lat="-24.6758680" lon="-53.6729610">
        <ele>511.6</ele>
        <time>2018-09-15T17:51:39Z</time>
      </trkpt>
      <trkpt lat="-24.6758470" lon="-53.6730190">
        <ele>511.6</ele>
        <time>2018-09-15T17:51:40Z</time>
      </trkpt>
      <trkpt lat="-24.6758270" lon="-53.6730750">
        <ele>511.6</ele>
        <time>2018-09-15T17:51:41Z</time>
      </trkpt>
      <trkpt lat="-24.6758130" lon="-53.6731330">
        <ele>511.6</ele>
        <time>2018-09-15T17:51:42Z</time>
      </trkpt>
      <trkpt lat="-24.6757960" lon="-53.6731870">
        <ele>511.7</ele>
        <time>2018-09-15T17:51:43Z</time>
      </trkpt>
      <trkpt lat="-24.6757770" lon="-53.6732400">
        <ele>511.7</ele>
        <time>2018-09-15T17:51:44Z</time>
      </trkpt>
      <trkpt lat="-24.6757570" lon="-53.6732940">
        <ele>511.8</ele>
        <time>2018-09-15T17:51:45Z</time>
      </trkpt>
      <trkpt lat="-24.6757320" lon="-53.6733450">
        <ele>511.8</ele>
        <time>2018-09-15T17:51:46Z</time>
      </trkpt>
      <trkpt lat="-24.6757000" lon="-53.6733930">
        <ele>511.9</ele>
        <time>2018-09-15T17:51:47Z</time>
      </trkpt>
      <trkpt lat="-24.6756670" lon="-53.6734420">
        <ele>511.9</ele>
        <time>2018-09-15T17:51:48Z</time>
      </trkpt>
      <trkpt lat="-24.6756290" lon="-53.6734910">
        <ele>511.9</ele>
        <time>2018-09-15T17:51:49Z</time>
      </trkpt>
      <trkpt lat="-24.6755920" lon="-53.6735290">
        <ele>511.9</ele>
        <time>2018-09-15T17:51:50Z</time>
      </trkpt>
      <trkpt lat="-24.6755530" lon="-53.6735620">
        <ele>511.9</ele>
        <time>2018-09-15T17:51:51Z</time>
      </trkpt>
      <trkpt lat="-24.6755030" lon="-53.6735890">
        <ele>511.8</ele>
        <time>2018-09-15T17:51:52Z</time>
      </trkpt>
      <trkpt lat="-24.6754590" lon="-53.6736100">
        <ele>511.8</ele>
        <time>2018-09-15T17:51:53Z</time>
      </trkpt>
      <trkpt lat="-24.6754180" lon="-53.6736290">
        <ele>511.8</ele>
        <time>2018-09-15T17:51:54Z</time>
      </trkpt>
      <trkpt lat="-24.6753750" lon="-53.6736470">
        <ele>511.8</ele>
        <time>2018-09-15T17:51:55Z</time>
      </trkpt>
      <trkpt lat="-24.6753370" lon="-53.6736640">
        <ele>511.8</ele>
        <time>2018-09-15T17:51:56Z</time>
      </trkpt>
      <trkpt lat="-24.6752910" lon="-53.6736740">
        <ele>511.8</ele>
        <time>2018-09-15T17:51:57Z</time>
      </trkpt>
      <trkpt lat="-24.6752440" lon="-53.6736830">
        <ele>511.8</ele>
        <time>2018-09-15T17:51:58Z</time>
      </trkpt>
      <trkpt lat="-24.6751920" lon="-53.6736880">
        <ele>511.8</ele>
        <time>2018-09-15T17:51:59Z</time>
      </trkpt>
      <trkpt lat="-24.6751390" lon="-53.6736970">
        <ele>511.8</ele>
        <time>2018-09-15T17:52:00Z</time>
      </trkpt>
      <trkpt lat="-24.6750930" lon="-53.6737060">
        <ele>511.8</ele>
        <time>2018-09-15T17:52:01Z</time>
      </trkpt>
      <trkpt lat="-24.6750410" lon="-53.6737200">
        <ele>511.8</ele>
        <time>2018-09-15T17:52:02Z</time>
      </trkpt>
      <trkpt lat="-24.6749910" lon="-53.6737280">
        <ele>511.8</ele>
        <time>2018-09-15T17:52:03Z</time>
      </trkpt>
      <trkpt lat="-24.6749410" lon="-53.6737340">
        <ele>511.9</ele>
        <time>2018-09-15T17:52:04Z</time>
      </trkpt>
      <trkpt lat="-24.6748860" lon="-53.6737510">
        <ele>511.9</ele>
        <time>2018-09-15T17:52:05Z</time>
      </trkpt>
      <trkpt lat="-24.6748280" lon="-53.6737660">
        <ele>511.9</ele>
        <time>2018-09-15T17:52:06Z</time>
      </trkpt>
      <trkpt lat="-24.6747740" lon="-53.6737810">
        <ele>511.9</ele>
        <time>2018-09-15T17:52:07Z</time>
      </trkpt>
      <trkpt lat="-24.6747230" lon="-53.6737960">
        <ele>511.9</ele>
        <time>2018-09-15T17:52:08Z</time>
      </trkpt>
      <trkpt lat="-24.6746730" lon="-53.6738140">
        <ele>512.0</ele>
        <time>2018-09-15T17:52:09Z</time>
      </trkpt>
      <trkpt lat="-24.6746190" lon="-53.6738260">
        <ele>512.0</ele>
        <time>2018-09-15T17:52:10Z</time>
      </trkpt>
      <trkpt lat="-24.6745680" lon="-53.6738380">
        <ele>512.0</ele>
        <time>2018-09-15T17:52:11Z</time>
      </trkpt>
      <trkpt lat="-24.6745220" lon="-53.6738540">
        <ele>512.0</ele>
        <time>2018-09-15T17:52:12Z</time>
      </trkpt>
      <trkpt lat="-24.6744700" lon="-53.6738730">
        <ele>512.1</ele>
        <time>2018-09-15T17:52:13Z</time>
      </trkpt>
      <trkpt lat="-24.6744260" lon="-53.6738890">
        <ele>512.1</ele>
        <time>2018-09-15T17:52:14Z</time>
      </trkpt>
      <trkpt lat="-24.6743820" lon="-53.6739100">
        <ele>512.1</ele>
        <time>2018-09-15T17:52:15Z</time>
      </trkpt>
      <trkpt lat="-24.6743330" lon="-53.6739300">
        <ele>512.1</ele>
        <time>2018-09-15T17:52:16Z</time>
      </trkpt>
      <trkpt lat="-24.6742910" lon="-53.6739490">
        <ele>512.1</ele>
        <time>2018-09-15T17:52:17Z</time>
      </trkpt>
      <trkpt lat="-24.6742500" lon="-53.6739690">
        <ele>512.1</ele>
        <time>2018-09-15T17:52:18Z</time>
      </trkpt>
      <trkpt lat="-24.6742060" lon="-53.6739900">
        <ele>512.1</ele>
        <time>2018-09-15T17:52:19Z</time>
      </trkpt>
      <trkpt lat="-24.6741580" lon="-53.6740120">
        <ele>512.2</ele>
        <time>2018-09-15T17:52:20Z</time>
      </trkpt>
      <trkpt lat="-24.6741150" lon="-53.6740350">
        <ele>512.2</ele>
        <time>2018-09-15T17:52:21Z</time>
      </trkpt>
      <trkpt lat="-24.6740820" lon="-53.6740550">
        <ele>512.2</ele>
        <time>2018-09-15T17:52:22Z</time>
      </trkpt>
      <trkpt lat="-24.6740350" lon="-53.6740700">
        <ele>512.2</ele>
        <time>2018-09-15T17:52:23Z</time>
      </trkpt>
      <trkpt lat="-24.6739940" lon="-53.6740950">
        <ele>512.2</ele>
        <time>2018-09-15T17:52:24Z</time>
      </trkpt>
      <trkpt lat="-24.6739430" lon="-53.6741220">
        <ele>512.2</ele>
        <time>2018-09-15T17:52:25Z</time>
      </trkpt>
      <trkpt lat="-24.6738890" lon="-53.6741430">
        <ele>512.2</ele>
        <time>2018-09-15T17:52:26Z</time>
      </trkpt>
      <trkpt lat="-24.6738190" lon="-53.6741650">
        <ele>512.2</ele>
        <time>2018-09-15T17:52:27Z</time>
      </trkpt>
      <trkpt lat="-24.6737640" lon="-53.6741820">
        <ele>512.2</ele>
        <time>2018-09-15T17:52:28Z</time>
      </trkpt>
      <trkpt lat="-24.6736990" lon="-53.6741950">
        <ele>512.1</ele>
        <time>2018-09-15T17:52:29Z</time>
      </trkpt>
      <trkpt lat="-24.6736510" lon="-53.6742120">
        <ele>512.1</ele>
        <time>2018-09-15T17:52:30Z</time>
      </trkpt>
      <trkpt lat="-24.6735920" lon="-53.6742280">
        <ele>512.0</ele>
        <time>2018-09-15T17:52:31Z</time>
      </trkpt>
      <trkpt lat="-24.6735380" lon="-53.6742510">
        <ele>512.0</ele>
        <time>2018-09-15T17:52:32Z</time>
      </trkpt>
      <trkpt lat="-24.6734800" lon="-53.6742740">
        <ele>511.9</ele>
        <time>2018-09-15T17:52:33Z</time>
      </trkpt>
      <trkpt lat="-24.6734190" lon="-53.6743030">
        <ele>511.9</ele>
        <time>2018-09-15T17:52:34Z</time>
      </trkpt>
      <trkpt lat="-24.6733660" lon="-53.6743260">
        <ele>511.8</ele>
        <time>2018-09-15T17:52:35Z</time>
      </trkpt>
      <trkpt lat="-24.6733160" lon="-53.6743490">
        <ele>511.8</ele>
        <time>2018-09-15T17:52:36Z</time>
      </trkpt>
      <trkpt lat="-24.6732520" lon="-53.6743680">
        <ele>511.7</ele>
        <time>2018-09-15T17:52:37Z</time>
      </trkpt>
      <trkpt lat="-24.6732010" lon="-53.6743850">
        <ele>511.7</ele>
        <time>2018-09-15T17:52:38Z</time>
      </trkpt>
      <trkpt lat="-24.6731440" lon="-53.6743980">
        <ele>511.6</ele>
        <time>2018-09-15T17:52:39Z</time>
      </trkpt>
      <trkpt lat="-24.6730970" lon="-53.6744200">
        <ele>511.6</ele>
        <time>2018-09-15T17:52:40Z</time>
      </trkpt>
      <trkpt lat="-24.6730550" lon="-53.6744370">
        <ele>511.6</ele>
        <time>2018-09-15T17:52:41Z</time>
      </trkpt>
      <trkpt lat="-24.6730000" lon="-53.6744550">
        <ele>511.5</ele>
        <time>2018-09-15T17:52:42Z</time>
      </trkpt>
      <trkpt lat="-24.6729470" lon="-53.6744740">
        <ele>511.5</ele>
        <time>2018-09-15T17:52:43Z</time>
      </trkpt>
      <trkpt lat="-24.6728990" lon="-53.6744900">
        <ele>511.5</ele>
        <time>2018-09-15T17:52:44Z</time>
      </trkpt>
      <trkpt lat="-24.6728430" lon="-53.6745070">
        <ele>511.5</ele>
        <time>2018-09-15T17:52:45Z</time>
      </trkpt>
      <trkpt lat="-24.6727970" lon="-53.6745280">
        <ele>511.5</ele>
        <time>2018-09-15T17:52:46Z</time>
      </trkpt>
      <trkpt lat="-24.6727510" lon="-53.6745540">
        <ele>511.5</ele>
        <time>2018-09-15T17:52:47Z</time>
      </trkpt>
      <trkpt lat="-24.6726980" lon="-53.6745720">
        <ele>511.5</ele>
        <time>2018-09-15T17:52:48Z</time>
      </trkpt>
      <trkpt lat="-24.6726460" lon="-53.6745920">
        <ele>511.4</ele>
        <time>2018-09-15T17:52:49Z</time>
      </trkpt>
      <trkpt lat="-24.6725930" lon="-53.6746110">
        <ele>511.5</ele>
        <time>2018-09-15T17:52:50Z</time>
      </trkpt>
      <trkpt lat="-24.6725470" lon="-53.6746370">
        <ele>511.5</ele>
        <time>2018-09-15T17:52:51Z</time>
      </trkpt>
      <trkpt lat="-24.6724880" lon="-53.6746590">
        <ele>511.5</ele>
        <time>2018-09-15T17:52:52Z</time>
      </trkpt>
      <trkpt lat="-24.6724440" lon="-53.6746770">
        <ele>511.5</ele>
        <time>2018-09-15T17:52:53Z</time>
      </trkpt>
      <trkpt lat="-24.6724100" lon="-53.6746970">
        <ele>511.5</ele>
        <time>2018-09-15T17:52:54Z</time>
      </trkpt>
      <trkpt lat="-24.6723650" lon="-53.6747130">
        <ele>511.5</ele>
        <time>2018-09-15T17:52:55Z</time>
      </trkpt>
      <trkpt lat="-24.6723150" lon="-53.6747310">
        <ele>511.5</ele>
        <time>2018-09-15T17:52:56Z</time>
      </trkpt>
      <trkpt lat="-24.6722810" lon="-53.6747490">
        <ele>511.5</ele>
        <time>2018-09-15T17:52:57Z</time>
      </trkpt>
      <trkpt lat="-24.6722330" lon="-53.6747640">
        <ele>511.5</ele>
        <time>2018-09-15T17:52:58Z</time>
      </trkpt>
      <trkpt lat="-24.6721860" lon="-53.6747790">
        <ele>511.5</ele>
        <time>2018-09-15T17:52:59Z</time>
      </trkpt>
      <trkpt lat="-24.6721420" lon="-53.6747940">
        <ele>511.5</ele>
        <time>2018-09-15T17:53:00Z</time>
      </trkpt>
      <trkpt lat="-24.6720930" lon="-53.6748110">
        <ele>511.5</ele>
        <time>2018-09-15T17:53:01Z</time>
      </trkpt>
      <trkpt lat="-24.6720390" lon="-53.6748310">
        <ele>511.5</ele>
        <time>2018-09-15T17:53:02Z</time>
      </trkpt>
      <trkpt lat="-24.6719850" lon="-53.6748490">
        <ele>511.5</ele>
        <time>2018-09-15T17:53:03Z</time>
      </trkpt>
      <trkpt lat="-24.6719350" lon="-53.6748650">
        <ele>511.5</ele>
        <time>2018-09-15T17:53:04Z</time>
      </trkpt>
      <trkpt lat="-24.6718830" lon="-53.6748790">
        <ele>511.5</ele>
        <time>2018-09-15T17:53:05Z</time>
      </trkpt>
      <trkpt lat="-24.6718310" lon="-53.6749030">
        <ele>511.5</ele>
        <time>2018-09-15T17:53:06Z</time>
      </trkpt>
      <trkpt lat="-24.6717830" lon="-53.6749220">
        <ele>511.5</ele>
        <time>2018-09-15T17:53:07Z</time>
      </trkpt>
      <trkpt lat="-24.6717330" lon="-53.6749400">
        <ele>511.5</ele>
        <time>2018-09-15T17:53:08Z</time>
      </trkpt>
      <trkpt lat="-24.6716820" lon="-53.6749510">
        <ele>511.5</ele>
        <time>2018-09-15T17:53:09Z</time>
      </trkpt>
      <trkpt lat="-24.6716350" lon="-53.6749660">
        <ele>511.5</ele>
        <time>2018-09-15T17:53:10Z</time>
      </trkpt>
      <trkpt lat="-24.6715870" lon="-53.6749840">
        <ele>511.5</ele>
        <time>2018-09-15T17:53:11Z</time>
      </trkpt>
      <trkpt lat="-24.6715410" lon="-53.6750010">
        <ele>511.5</ele>
        <time>2018-09-15T17:53:12Z</time>
      </trkpt>
      <trkpt lat="-24.6715010" lon="-53.6750210">
        <ele>511.5</ele>
        <time>2018-09-15T17:53:13Z</time>
      </trkpt>
      <trkpt lat="-24.6714570" lon="-53.6750390">
        <ele>511.5</ele>
        <time>2018-09-15T17:53:14Z</time>
      </trkpt>
      <trkpt lat="-24.6714180" lon="-53.6750620">
        <ele>511.5</ele>
        <time>2018-09-15T17:53:15Z</time>
      </trkpt>
      <trkpt lat="-24.6713790" lon="-53.6750850">
        <ele>511.4</ele>
        <time>2018-09-15T17:53:16Z</time>
      </trkpt>
      <trkpt lat="-24.6713370" lon="-53.6751040">
        <ele>511.4</ele>
        <time>2018-09-15T17:53:17Z</time>
      </trkpt>
      <trkpt lat="-24.6712690" lon="-53.6751160">
        <ele>511.4</ele>
        <time>2018-09-15T17:53:18Z</time>
      </trkpt>
      <trkpt lat="-24.6712150" lon="-53.6751270">
        <ele>511.4</ele>
        <time>2018-09-15T17:53:19Z</time>
      </trkpt>
      <trkpt lat="-24.6711570" lon="-53.6751450">
        <ele>511.3</ele>
        <time>2018-09-15T17:53:20Z</time>
      </trkpt>
      <trkpt lat="-24.6711060" lon="-53.6751650">
        <ele>511.3</ele>
        <time>2018-09-15T17:53:21Z</time>
      </trkpt>
      <trkpt lat="-24.6710480" lon="-53.6751870">
        <ele>511.3</ele>
        <time>2018-09-15T17:53:22Z</time>
      </trkpt>
      <trkpt lat="-24.6709930" lon="-53.6752150">
        <ele>511.2</ele>
        <time>2018-09-15T17:53:23Z</time>
      </trkpt>
      <trkpt lat="-24.6709400" lon="-53.6752460">
        <ele>511.2</ele>
        <time>2018-09-15T17:53:24Z</time>
      </trkpt>
      <trkpt lat="-24.6708840" lon="-53.6752800">
        <ele>511.2</ele>
        <time>2018-09-15T17:53:25Z</time>
      </trkpt>
      <trkpt lat="-24.6708240" lon="-53.6753030">
        <ele>511.1</ele>
        <time>2018-09-15T17:53:26Z</time>
      </trkpt>
      <trkpt lat="-24.6707640" lon="-53.6753160">
        <ele>511.1</ele>
        <time>2018-09-15T17:53:27Z</time>
      </trkpt>
      <trkpt lat="-24.6706980" lon="-53.6753240">
        <ele>511.1</ele>
        <time>2018-09-15T17:53:28Z</time>
      </trkpt>
      <trkpt lat="-24.6706260" lon="-53.6753380">
        <ele>511.1</ele>
        <time>2018-09-15T17:53:29Z</time>
      </trkpt>
      <trkpt lat="-24.6705620" lon="-53.6753520">
        <ele>511.1</ele>
        <time>2018-09-15T17:53:30Z</time>
      </trkpt>
      <trkpt lat="-24.6705040" lon="-53.6753670">
        <ele>511.1</ele>
        <time>2018-09-15T17:53:31Z</time>
      </trkpt>
      <trkpt lat="-24.6704480" lon="-53.6753830">
        <ele>511.1</ele>
        <time>2018-09-15T17:53:32Z</time>
      </trkpt>
      <trkpt lat="-24.6703910" lon="-53.6753990">
        <ele>511.2</ele>
        <time>2018-09-15T17:53:33Z</time>
      </trkpt>
      <trkpt lat="-24.6703300" lon="-53.6754150">
        <ele>511.2</ele>
        <time>2018-09-15T17:53:34Z</time>
      </trkpt>
      <trkpt lat="-24.6702710" lon="-53.6754350">
        <ele>511.2</ele>
        <time>2018-09-15T17:53:35Z</time>
      </trkpt>
      <trkpt lat="-24.6702140" lon="-53.6754580">
        <ele>511.3</ele>
        <time>2018-09-15T17:53:36Z</time>
      </trkpt>
      <trkpt lat="-24.6701580" lon="-53.6754820">
        <ele>511.4</ele>
        <time>2018-09-15T17:53:37Z</time>
      </trkpt>
      <trkpt lat="-24.6701020" lon="-53.6755040">
        <ele>511.4</ele>
        <time>2018-09-15T17:53:38Z</time>
      </trkpt>
      <trkpt lat="-24.6700460" lon="-53.6755250">
        <ele>511.5</ele>
        <time>2018-09-15T17:53:39Z</time>
      </trkpt>
      <trkpt lat="-24.6699910" lon="-53.6755460">
        <ele>511.6</ele>
        <time>2018-09-15T17:53:40Z</time>
      </trkpt>
      <trkpt lat="-24.6699370" lon="-53.6755670">
        <ele>511.6</ele>
        <time>2018-09-15T17:53:41Z</time>
      </trkpt>
      <trkpt lat="-24.6698860" lon="-53.6755890">
        <ele>511.7</ele>
        <time>2018-09-15T17:53:42Z</time>
      </trkpt>
      <trkpt lat="-24.6698350" lon="-53.6756110">
        <ele>511.8</ele>
        <time>2018-09-15T17:53:43Z</time>
      </trkpt>
      <trkpt lat="-24.6697840" lon="-53.6756320">
        <ele>511.8</ele>
        <time>2018-09-15T17:53:44Z</time>
      </trkpt>
      <trkpt lat="-24.6697320" lon="-53.6756550">
        <ele>511.9</ele>
        <time>2018-09-15T17:53:45Z</time>
      </trkpt>
      <trkpt lat="-24.6696820" lon="-53.6756780">
        <ele>512.0</ele>
        <time>2018-09-15T17:53:46Z</time>
      </trkpt>
      <trkpt lat="-24.6696310" lon="-53.6757020">
        <ele>512.0</ele>
        <time>2018-09-15T17:53:47Z</time>
      </trkpt>
      <trkpt lat="-24.6695810" lon="-53.6757270">
        <ele>512.1</ele>
        <time>2018-09-15T17:53:48Z</time>
      </trkpt>
      <trkpt lat="-24.6695310" lon="-53.6757520">
        <ele>512.2</ele>
        <time>2018-09-15T17:53:49Z</time>
      </trkpt>
      <trkpt lat="-24.6694800" lon="-53.6757780">
        <ele>512.2</ele>
        <time>2018-09-15T17:53:50Z</time>
      </trkpt>
      <trkpt lat="-24.6694330" lon="-53.6758070">
        <ele>512.3</ele>
        <time>2018-09-15T17:53:51Z</time>
      </trkpt>
      <trkpt lat="-24.6693850" lon="-53.6758370">
        <ele>512.4</ele>
        <time>2018-09-15T17:53:52Z</time>
      </trkpt>
      <trkpt lat="-24.6693380" lon="-53.6758660">
        <ele>512.4</ele>
        <time>2018-09-15T17:53:53Z</time>
      </trkpt>
      <trkpt lat="-24.6692920" lon="-53.6758980">
        <ele>512.5</ele>
        <time>2018-09-15T17:53:54Z</time>
      </trkpt>
      <trkpt lat="-24.6692480" lon="-53.6759320">
        <ele>512.6</ele>
        <time>2018-09-15T17:53:55Z</time>
      </trkpt>
      <trkpt lat="-24.6692040" lon="-53.6759670">
        <ele>512.6</ele>
        <time>2018-09-15T17:53:56Z</time>
      </trkpt>
      <trkpt lat="-24.6691610" lon="-53.6760020">
        <ele>512.6</ele>
        <time>2018-09-15T17:53:57Z</time>
      </trkpt>
      <trkpt lat="-24.6691180" lon="-53.6760380">
        <ele>512.7</ele>
        <time>2018-09-15T17:53:58Z</time>
      </trkpt>
      <trkpt lat="-24.6690330" lon="-53.6761080">
        <ele>512.8</ele>
        <time>2018-09-15T17:53:59Z</time>
      </trkpt>
      <trkpt lat="-24.6689880" lon="-53.6761380">
        <ele>512.8</ele>
        <time>2018-09-15T17:54:01Z</time>
      </trkpt>
      <trkpt lat="-24.6689440" lon="-53.6761670">
        <ele>512.9</ele>
        <time>2018-09-15T17:54:02Z</time>
      </trkpt>
      <trkpt lat="-24.6689020" lon="-53.6761960">
        <ele>512.9</ele>
        <time>2018-09-15T17:54:03Z</time>
      </trkpt>
      <trkpt lat="-24.6688590" lon="-53.6762240">
        <ele>513.0</ele>
        <time>2018-09-15T17:54:04Z</time>
      </trkpt>
      <trkpt lat="-24.6688160" lon="-53.6762520">
        <ele>513.0</ele>
        <time>2018-09-15T17:54:05Z</time>
      </trkpt>
      <trkpt lat="-24.6687720" lon="-53.6762800">
        <ele>512.9</ele>
        <time>2018-09-15T17:54:06Z</time>
      </trkpt>
      <trkpt lat="-24.6687300" lon="-53.6763100">
        <ele>512.7</ele>
        <time>2018-09-15T17:54:07Z</time>
      </trkpt>
      <trkpt lat="-24.6686880" lon="-53.6763400">
        <ele>512.6</ele>
        <time>2018-09-15T17:54:08Z</time>
      </trkpt>
      <trkpt lat="-24.6686460" lon="-53.6763690">
        <ele>512.5</ele>
        <time>2018-09-15T17:54:09Z</time>
      </trkpt>
      <trkpt lat="-24.6686030" lon="-53.6763980">
        <ele>512.4</ele>
        <time>2018-09-15T17:54:10Z</time>
      </trkpt>
      <trkpt lat="-24.6685600" lon="-53.6764260">
        <ele>512.3</ele>
        <time>2018-09-15T17:54:11Z</time>
      </trkpt>
      <trkpt lat="-24.6685170" lon="-53.6764560">
        <ele>512.2</ele>
        <time>2018-09-15T17:54:12Z</time>
      </trkpt>
      <trkpt lat="-24.6684730" lon="-53.6764870">
        <ele>512.0</ele>
        <time>2018-09-15T17:54:13Z</time>
      </trkpt>
      <trkpt lat="-24.6684270" lon="-53.6765160">
        <ele>511.9</ele>
        <time>2018-09-15T17:54:14Z</time>
      </trkpt>
      <trkpt lat="-24.6683790" lon="-53.6765440">
        <ele>511.8</ele>
        <time>2018-09-15T17:54:15Z</time>
      </trkpt>
      <trkpt lat="-24.6683320" lon="-53.6765750">
        <ele>511.5</ele>
        <time>2018-09-15T17:54:16Z</time>
      </trkpt>
      <trkpt lat="-24.6682840" lon="-53.6766100">
        <ele>511.1</ele>
        <time>2018-09-15T17:54:17Z</time>
      </trkpt>
      <trkpt lat="-24.6682380" lon="-53.6766480">
        <ele>510.9</ele>
        <time>2018-09-15T17:54:18Z</time>
      </trkpt>
      <trkpt lat="-24.6681910" lon="-53.6766860">
        <ele>510.7</ele>
        <time>2018-09-15T17:54:19Z</time>
      </trkpt>
      <trkpt lat="-24.6681430" lon="-53.6767240">
        <ele>510.5</ele>
        <time>2018-09-15T17:54:20Z</time>
      </trkpt>
      <trkpt lat="-24.6680910" lon="-53.6767630">
        <ele>510.2</ele>
        <time>2018-09-15T17:54:21Z</time>
      </trkpt>
      <trkpt lat="-24.6680380" lon="-53.6768040">
        <ele>510.0</ele>
        <time>2018-09-15T17:54:22Z</time>
      </trkpt>
      <trkpt lat="-24.6679840" lon="-53.6768420">
        <ele>509.8</ele>
        <time>2018-09-15T17:54:23Z</time>
      </trkpt>
      <trkpt lat="-24.6679300" lon="-53.6768800">
        <ele>509.6</ele>
        <time>2018-09-15T17:54:24Z</time>
      </trkpt>
      <trkpt lat="-24.6678740" lon="-53.6769220">
        <ele>509.3</ele>
        <time>2018-09-15T17:54:25Z</time>
      </trkpt>
      <trkpt lat="-24.6677570" lon="-53.6770100">
        <ele>508.6</ele>
        <time>2018-09-15T17:54:26Z</time>
      </trkpt>
      <trkpt lat="-24.6676990" lon="-53.6770540">
        <ele>508.2</ele>
        <time>2018-09-15T17:54:27Z</time>
      </trkpt>
      <trkpt lat="-24.6676390" lon="-53.6770990">
        <ele>507.8</ele>
        <time>2018-09-15T17:54:28Z</time>
      </trkpt>
      <trkpt lat="-24.6675780" lon="-53.6771430">
        <ele>507.4</ele>
        <time>2018-09-15T17:54:29Z</time>
      </trkpt>
      <trkpt lat="-24.6675170" lon="-53.6771890">
        <ele>507.2</ele>
        <time>2018-09-15T17:54:30Z</time>
      </trkpt>
      <trkpt lat="-24.6674540" lon="-53.6772360">
        <ele>506.9</ele>
        <time>2018-09-15T17:54:31Z</time>
      </trkpt>
      <trkpt lat="-24.6673910" lon="-53.6772830">
        <ele>506.7</ele>
        <time>2018-09-15T17:54:32Z</time>
      </trkpt>
      <trkpt lat="-24.6673280" lon="-53.6773290">
        <ele>506.6</ele>
        <time>2018-09-15T17:54:33Z</time>
      </trkpt>
      <trkpt lat="-24.6672660" lon="-53.6773730">
        <ele>506.4</ele>
        <time>2018-09-15T17:54:34Z</time>
      </trkpt>
      <trkpt lat="-24.6672050" lon="-53.6774180">
        <ele>506.3</ele>
        <time>2018-09-15T17:54:35Z</time>
      </trkpt>
      <trkpt lat="-24.6671410" lon="-53.6774640">
        <ele>506.0</ele>
        <time>2018-09-15T17:54:36Z</time>
      </trkpt>
      <trkpt lat="-24.6670750" lon="-53.6775110">
        <ele>505.8</ele>
        <time>2018-09-15T17:54:37Z</time>
      </trkpt>
      <trkpt lat="-24.6670090" lon="-53.6775590">
        <ele>505.5</ele>
        <time>2018-09-15T17:54:38Z</time>
      </trkpt>
      <trkpt lat="-24.6669420" lon="-53.6776070">
        <ele>505.3</ele>
        <time>2018-09-15T17:54:39Z</time>
      </trkpt>
      <trkpt lat="-24.6668760" lon="-53.6776550">
        <ele>505.1</ele>
        <time>2018-09-15T17:54:40Z</time>
      </trkpt>
      <trkpt lat="-24.6668120" lon="-53.6777020">
        <ele>504.9</ele>
        <time>2018-09-15T17:54:41Z</time>
      </trkpt>
      <trkpt lat="-24.6667460" lon="-53.6777500">
        <ele>504.8</ele>
        <time>2018-09-15T17:54:42Z</time>
      </trkpt>
      <trkpt lat="-24.6666790" lon="-53.6777990">
        <ele>504.7</ele>
        <time>2018-09-15T17:54:43Z</time>
      </trkpt>
      <trkpt lat="-24.6665430" lon="-53.6779020">
        <ele>504.5</ele>
        <time>2018-09-15T17:54:45Z</time>
      </trkpt>
      <trkpt lat="-24.6664740" lon="-53.6779540">
        <ele>504.4</ele>
        <time>2018-09-15T17:54:46Z</time>
      </trkpt>
      <trkpt lat="-24.6664070" lon="-53.6780060">
        <ele>504.3</ele>
        <time>2018-09-15T17:54:47Z</time>
      </trkpt>
      <trkpt lat="-24.6663400" lon="-53.6780590">
        <ele>504.3</ele>
        <time>2018-09-15T17:54:48Z</time>
      </trkpt>
      <trkpt lat="-24.6662730" lon="-53.6781120">
        <ele>504.1</ele>
        <time>2018-09-15T17:54:49Z</time>
      </trkpt>
      <trkpt lat="-24.6662090" lon="-53.6781640">
        <ele>503.9</ele>
        <time>2018-09-15T17:54:50Z</time>
      </trkpt>
      <trkpt lat="-24.6661480" lon="-53.6782130">
        <ele>503.7</ele>
        <time>2018-09-15T17:54:51Z</time>
      </trkpt>
      <trkpt lat="-24.6660830" lon="-53.6782630">
        <ele>503.5</ele>
        <time>2018-09-15T17:54:52Z</time>
      </trkpt>
      <trkpt lat="-24.6660160" lon="-53.6783150">
        <ele>503.3</ele>
        <time>2018-09-15T17:54:53Z</time>
      </trkpt>
      <trkpt lat="-24.6659500" lon="-53.6783670">
        <ele>503.1</ele>
        <time>2018-09-15T17:54:54Z</time>
      </trkpt>
      <trkpt lat="-24.6658830" lon="-53.6784190">
        <ele>502.8</ele>
        <time>2018-09-15T17:54:55Z</time>
      </trkpt>
      <trkpt lat="-24.6658170" lon="-53.6784720">
        <ele>502.5</ele>
        <time>2018-09-15T17:54:56Z</time>
      </trkpt>
      <trkpt lat="-24.6657520" lon="-53.6785240">
        <ele>502.2</ele>
        <time>2018-09-15T17:54:57Z</time>
      </trkpt>
      <trkpt lat="-24.6656880" lon="-53.6785760">
        <ele>501.9</ele>
        <time>2018-09-15T17:54:58Z</time>
      </trkpt>
      <trkpt lat="-24.6656250" lon="-53.6786290">
        <ele>501.6</ele>
        <time>2018-09-15T17:54:59Z</time>
      </trkpt>
      <trkpt lat="-24.6655620" lon="-53.6786800">
        <ele>501.4</ele>
        <time>2018-09-15T17:55:00Z</time>
      </trkpt>
      <trkpt lat="-24.6655000" lon="-53.6787300">
        <ele>501.3</ele>
        <time>2018-09-15T17:55:01Z</time>
      </trkpt>
      <trkpt lat="-24.6654390" lon="-53.6787780">
        <ele>501.2</ele>
        <time>2018-09-15T17:55:02Z</time>
      </trkpt>
      <trkpt lat="-24.6653770" lon="-53.6788270">
        <ele>501.0</ele>
        <time>2018-09-15T17:55:03Z</time>
      </trkpt>
      <trkpt lat="-24.6653140" lon="-53.6788760">
        <ele>500.9</ele>
        <time>2018-09-15T17:55:04Z</time>
      </trkpt>
      <trkpt lat="-24.6652500" lon="-53.6789260">
        <ele>500.8</ele>
        <time>2018-09-15T17:55:05Z</time>
      </trkpt>
      <trkpt lat="-24.6651890" lon="-53.6789750">
        <ele>500.6</ele>
        <time>2018-09-15T17:55:06Z</time>
      </trkpt>
      <trkpt lat="-24.6651290" lon="-53.6790240">
        <ele>500.4</ele>
        <time>2018-09-15T17:55:07Z</time>
      </trkpt>
      <trkpt lat="-24.6650710" lon="-53.6790730">
        <ele>500.2</ele>
        <time>2018-09-15T17:55:08Z</time>
      </trkpt>
      <trkpt lat="-24.6650140" lon="-53.6791210">
        <ele>500.1</ele>
        <time>2018-09-15T17:55:09Z</time>
      </trkpt>
      <trkpt lat="-24.6649580" lon="-53.6791690">
        <ele>500.0</ele>
        <time>2018-09-15T17:55:10Z</time>
      </trkpt>
      <trkpt lat="-24.6649060" lon="-53.6792180">
        <ele>499.9</ele>
        <time>2018-09-15T17:55:11Z</time>
      </trkpt>
      <trkpt lat="-24.6649060" lon="-53.6792180">
        <ele>499.9</ele>
        <time>2018-09-15T17:55:12Z</time>
      </trkpt>
      <trkpt lat="-24.6648540" lon="-53.6792670">
        <ele>499.9</ele>
        <time>2018-09-15T17:55:13Z</time>
      </trkpt>
      <trkpt lat="-24.6648040" lon="-53.6793170">
        <ele>499.8</ele>
        <time>2018-09-15T17:55:14Z</time>
      </trkpt>
      <trkpt lat="-24.6647560" lon="-53.6793660">
        <ele>499.8</ele>
        <time>2018-09-15T17:55:15Z</time>
      </trkpt>
      <trkpt lat="-24.6646650" lon="-53.6794610">
        <ele>499.7</ele>
        <time>2018-09-15T17:55:16Z</time>
      </trkpt>
      <trkpt lat="-24.6646220" lon="-53.6795090">
        <ele>499.6</ele>
        <time>2018-09-15T17:55:17Z</time>
      </trkpt>
      <trkpt lat="-24.6645780" lon="-53.6795550">
        <ele>499.6</ele>
        <time>2018-09-15T17:55:18Z</time>
      </trkpt>
      <trkpt lat="-24.6645780" lon="-53.6795550">
        <ele>499.6</ele>
        <time>2018-09-15T17:55:19Z</time>
      </trkpt>
      <trkpt lat="-24.6645340" lon="-53.6795990">
        <ele>499.6</ele>
        <time>2018-09-15T17:55:20Z</time>
      </trkpt>
      <trkpt lat="-24.6644910" lon="-53.6796430">
        <ele>499.5</ele>
        <time>2018-09-15T17:55:21Z</time>
      </trkpt>
      <trkpt lat="-24.6644490" lon="-53.6796860">
        <ele>499.5</ele>
        <time>2018-09-15T17:55:22Z</time>
      </trkpt>
      <trkpt lat="-24.6644060" lon="-53.6797280">
        <ele>499.5</ele>
        <time>2018-09-15T17:55:23Z</time>
      </trkpt>
      <trkpt lat="-24.6643630" lon="-53.6797700">
        <ele>499.5</ele>
        <time>2018-09-15T17:55:24Z</time>
      </trkpt>
      <trkpt lat="-24.6643230" lon="-53.6798140">
        <ele>499.4</ele>
        <time>2018-09-15T17:55:25Z</time>
      </trkpt>
      <trkpt lat="-24.6642850" lon="-53.6798610">
        <ele>499.4</ele>
        <time>2018-09-15T17:55:26Z</time>
      </trkpt>
      <trkpt lat="-24.6642450" lon="-53.6799050">
        <ele>499.4</ele>
        <time>2018-09-15T17:55:27Z</time>
      </trkpt>
      <trkpt lat="-24.6642050" lon="-53.6799480">
        <ele>499.3</ele>
        <time>2018-09-15T17:55:28Z</time>
      </trkpt>
      <trkpt lat="-24.6641660" lon="-53.6799900">
        <ele>499.3</ele>
        <time>2018-09-15T17:55:29Z</time>
      </trkpt>
      <trkpt lat="-24.6641250" lon="-53.6800290">
        <ele>499.3</ele>
        <time>2018-09-15T17:55:30Z</time>
      </trkpt>
      <trkpt lat="-24.6640850" lon="-53.6800680">
        <ele>499.2</ele>
        <time>2018-09-15T17:55:31Z</time>
      </trkpt>
      <trkpt lat="-24.6640500" lon="-53.6801110">
        <ele>499.2</ele>
        <time>2018-09-15T17:55:32Z</time>
      </trkpt>
      <trkpt lat="-24.6640150" lon="-53.6801540">
        <ele>499.2</ele>
        <time>2018-09-15T17:55:33Z</time>
      </trkpt>
      <trkpt lat="-24.6639810" lon="-53.6801960">
        <ele>499.2</ele>
        <time>2018-09-15T17:55:34Z</time>
      </trkpt>
      <trkpt lat="-24.6639470" lon="-53.6802380">
        <ele>499.2</ele>
        <time>2018-09-15T17:55:35Z</time>
      </trkpt>
      <trkpt lat="-24.6639110" lon="-53.6802790">
        <ele>499.2</ele>
        <time>2018-09-15T17:55:36Z</time>
      </trkpt>
      <trkpt lat="-24.6638770" lon="-53.6803190">
        <ele>499.2</ele>
        <time>2018-09-15T17:55:37Z</time>
      </trkpt>
      <trkpt lat="-24.6638450" lon="-53.6803600">
        <ele>499.1</ele>
        <time>2018-09-15T17:55:38Z</time>
      </trkpt>
      <trkpt lat="-24.6638120" lon="-53.6804010">
        <ele>499.1</ele>
        <time>2018-09-15T17:55:39Z</time>
      </trkpt>
      <trkpt lat="-24.6637780" lon="-53.6804420">
        <ele>499.1</ele>
        <time>2018-09-15T17:55:40Z</time>
      </trkpt>
      <trkpt lat="-24.6637450" lon="-53.6804840">
        <ele>499.1</ele>
        <time>2018-09-15T17:55:41Z</time>
      </trkpt>
      <trkpt lat="-24.6637130" lon="-53.6805260">
        <ele>499.1</ele>
        <time>2018-09-15T17:55:42Z</time>
      </trkpt>
      <trkpt lat="-24.6636800" lon="-53.6805680">
        <ele>499.1</ele>
        <time>2018-09-15T17:55:43Z</time>
      </trkpt>
      <trkpt lat="-24.6636470" lon="-53.6806110">
        <ele>499.1</ele>
        <time>2018-09-15T17:55:44Z</time>
      </trkpt>
      <trkpt lat="-24.6636190" lon="-53.6806560">
        <ele>499.0</ele>
        <time>2018-09-15T17:55:45Z</time>
      </trkpt>
      <trkpt lat="-24.6635940" lon="-53.6807010">
        <ele>499.0</ele>
        <time>2018-09-15T17:55:46Z</time>
      </trkpt>
      <trkpt lat="-24.6635650" lon="-53.6807460">
        <ele>499.0</ele>
        <time>2018-09-15T17:55:47Z</time>
      </trkpt>
      <trkpt lat="-24.6635340" lon="-53.6807890">
        <ele>499.0</ele>
        <time>2018-09-15T17:55:48Z</time>
      </trkpt>
      <trkpt lat="-24.6635040" lon="-53.6808330">
        <ele>499.0</ele>
        <time>2018-09-15T17:55:49Z</time>
      </trkpt>
      <trkpt lat="-24.6634740" lon="-53.6808780">
        <ele>499.0</ele>
        <time>2018-09-15T17:55:50Z</time>
      </trkpt>
      <trkpt lat="-24.6634460" lon="-53.6809230">
        <ele>499.0</ele>
        <time>2018-09-15T17:55:51Z</time>
      </trkpt>
      <trkpt lat="-24.6634180" lon="-53.6809670">
        <ele>499.0</ele>
        <time>2018-09-15T17:55:52Z</time>
      </trkpt>
      <trkpt lat="-24.6633900" lon="-53.6810120">
        <ele>499.0</ele>
        <time>2018-09-15T17:55:53Z</time>
      </trkpt>
      <trkpt lat="-24.6633640" lon="-53.6810570">
        <ele>499.0</ele>
        <time>2018-09-15T17:55:54Z</time>
      </trkpt>
      <trkpt lat="-24.6633380" lon="-53.6811030">
        <ele>499.0</ele>
        <time>2018-09-15T17:55:55Z</time>
      </trkpt>
      <trkpt lat="-24.6633130" lon="-53.6811490">
        <ele>499.0</ele>
        <time>2018-09-15T17:55:56Z</time>
      </trkpt>
      <trkpt lat="-24.6632890" lon="-53.6811950">
        <ele>499.0</ele>
        <time>2018-09-15T17:55:57Z</time>
      </trkpt>
      <trkpt lat="-24.6632660" lon="-53.6812410">
        <ele>499.0</ele>
        <time>2018-09-15T17:55:58Z</time>
      </trkpt>
      <trkpt lat="-24.6632420" lon="-53.6812860">
        <ele>499.0</ele>
        <time>2018-09-15T17:55:59Z</time>
      </trkpt>
      <trkpt lat="-24.6632190" lon="-53.6813300">
        <ele>499.0</ele>
        <time>2018-09-15T17:56:00Z</time>
      </trkpt>
      <trkpt lat="-24.6631970" lon="-53.6813740">
        <ele>499.0</ele>
        <time>2018-09-15T17:56:01Z</time>
      </trkpt>
      <trkpt lat="-24.6631750" lon="-53.6814200">
        <ele>499.0</ele>
        <time>2018-09-15T17:56:02Z</time>
      </trkpt>
      <trkpt lat="-24.6631530" lon="-53.6814660">
        <ele>499.0</ele>
        <time>2018-09-15T17:56:03Z</time>
      </trkpt>
      <trkpt lat="-24.6631300" lon="-53.6815120">
        <ele>499.0</ele>
        <time>2018-09-15T17:56:04Z</time>
      </trkpt>
      <trkpt lat="-24.6631080" lon="-53.6815570">
        <ele>499.0</ele>
        <time>2018-09-15T17:56:05Z</time>
      </trkpt>
      <trkpt lat="-24.6630850" lon="-53.6816020">
        <ele>499.0</ele>
        <time>2018-09-15T17:56:06Z</time>
      </trkpt>
      <trkpt lat="-24.6630640" lon="-53.6816470">
        <ele>499.0</ele>
        <time>2018-09-15T17:56:07Z</time>
      </trkpt>
      <trkpt lat="-24.6630420" lon="-53.6816930">
        <ele>499.0</ele>
        <time>2018-09-15T17:56:08Z</time>
      </trkpt>
      <trkpt lat="-24.6630200" lon="-53.6817390">
        <ele>499.0</ele>
        <time>2018-09-15T17:56:09Z</time>
      </trkpt>
      <trkpt lat="-24.6629990" lon="-53.6817860">
        <ele>499.0</ele>
        <time>2018-09-15T17:56:10Z</time>
      </trkpt>
      <trkpt lat="-24.6629780" lon="-53.6818350">
        <ele>499.0</ele>
        <time>2018-09-15T17:56:11Z</time>
      </trkpt>
      <trkpt lat="-24.6629570" lon="-53.6818850">
        <ele>499.0</ele>
        <time>2018-09-15T17:56:12Z</time>
      </trkpt>
      <trkpt lat="-24.6629370" lon="-53.6819350">
        <ele>498.9</ele>
        <time>2018-09-15T17:56:13Z</time>
      </trkpt>
      <trkpt lat="-24.6629170" lon="-53.6819860">
        <ele>498.9</ele>
        <time>2018-09-15T17:56:14Z</time>
      </trkpt>
      <trkpt lat="-24.6628980" lon="-53.6820370">
        <ele>498.9</ele>
        <time>2018-09-15T17:56:15Z</time>
      </trkpt>
      <trkpt lat="-24.6628780" lon="-53.6820880">
        <ele>498.8</ele>
        <time>2018-09-15T17:56:16Z</time>
      </trkpt>
      <trkpt lat="-24.6628590" lon="-53.6821380">
        <ele>498.8</ele>
        <time>2018-09-15T17:56:17Z</time>
      </trkpt>
      <trkpt lat="-24.6628400" lon="-53.6821870">
        <ele>498.8</ele>
        <time>2018-09-15T17:56:18Z</time>
      </trkpt>
      <trkpt lat="-24.6628230" lon="-53.6822360">
        <ele>498.8</ele>
        <time>2018-09-15T17:56:19Z</time>
      </trkpt>
      <trkpt lat="-24.6628070" lon="-53.6822850">
        <ele>498.7</ele>
        <time>2018-09-15T17:56:20Z</time>
      </trkpt>
      <trkpt lat="-24.6627910" lon="-53.6823350">
        <ele>498.7</ele>
        <time>2018-09-15T17:56:21Z</time>
      </trkpt>
      <trkpt lat="-24.6627760" lon="-53.6823850">
        <ele>498.7</ele>
        <time>2018-09-15T17:56:22Z</time>
      </trkpt>
      <trkpt lat="-24.6627610" lon="-53.6824350">
        <ele>498.6</ele>
        <time>2018-09-15T17:56:23Z</time>
      </trkpt>
      <trkpt lat="-24.6627460" lon="-53.6824860">
        <ele>498.6</ele>
        <time>2018-09-15T17:56:24Z</time>
      </trkpt>
      <trkpt lat="-24.6627320" lon="-53.6825370">
        <ele>498.3</ele>
        <time>2018-09-15T17:56:25Z</time>
      </trkpt>
      <trkpt lat="-24.6627200" lon="-53.6825880">
        <ele>498.2</ele>
        <time>2018-09-15T17:56:26Z</time>
      </trkpt>
      <trkpt lat="-24.6627080" lon="-53.6826390">
        <ele>498.0</ele>
        <time>2018-09-15T17:56:27Z</time>
      </trkpt>
      <trkpt lat="-24.6626970" lon="-53.6826920">
        <ele>497.9</ele>
        <time>2018-09-15T17:56:28Z</time>
      </trkpt>
      <trkpt lat="-24.6626860" lon="-53.6827450">
        <ele>497.8</ele>
        <time>2018-09-15T17:56:29Z</time>
      </trkpt>
      <trkpt lat="-24.6626770" lon="-53.6827970">
        <ele>497.6</ele>
        <time>2018-09-15T17:56:30Z</time>
      </trkpt>
      <trkpt lat="-24.6626690" lon="-53.6828500">
        <ele>497.5</ele>
        <time>2018-09-15T17:56:31Z</time>
      </trkpt>
      <trkpt lat="-24.6626620" lon="-53.6829010">
        <ele>497.3</ele>
        <time>2018-09-15T17:56:32Z</time>
      </trkpt>
      <trkpt lat="-24.6626580" lon="-53.6829520">
        <ele>497.2</ele>
        <time>2018-09-15T17:56:33Z</time>
      </trkpt>
      <trkpt lat="-24.6626540" lon="-53.6830000">
        <ele>497.1</ele>
        <time>2018-09-15T17:56:34Z</time>
      </trkpt>
      <trkpt lat="-24.6626500" lon="-53.6830470">
        <ele>497.0</ele>
        <time>2018-09-15T17:56:35Z</time>
      </trkpt>
      <trkpt lat="-24.6626490" lon="-53.6830920">
        <ele>496.8</ele>
        <time>2018-09-15T17:56:36Z</time>
      </trkpt>
      <trkpt lat="-24.6626500" lon="-53.6831370">
        <ele>496.7</ele>
        <time>2018-09-15T17:56:37Z</time>
      </trkpt>
      <trkpt lat="-24.6626490" lon="-53.6831840">
        <ele>496.5</ele>
        <time>2018-09-15T17:56:38Z</time>
      </trkpt>
      <trkpt lat="-24.6626480" lon="-53.6832290">
        <ele>496.4</ele>
        <time>2018-09-15T17:56:39Z</time>
      </trkpt>
      <trkpt lat="-24.6626490" lon="-53.6832740">
        <ele>496.2</ele>
        <time>2018-09-15T17:56:40Z</time>
      </trkpt>
      <trkpt lat="-24.6626500" lon="-53.6833180">
        <ele>496.0</ele>
        <time>2018-09-15T17:56:41Z</time>
      </trkpt>
      <trkpt lat="-24.6626500" lon="-53.6833630">
        <ele>495.9</ele>
        <time>2018-09-15T17:56:42Z</time>
      </trkpt>
      <trkpt lat="-24.6626500" lon="-53.6834080">
        <ele>495.7</ele>
        <time>2018-09-15T17:56:43Z</time>
      </trkpt>
      <trkpt lat="-24.6626500" lon="-53.6834540">
        <ele>495.5</ele>
        <time>2018-09-15T17:56:44Z</time>
      </trkpt>
      <trkpt lat="-24.6626500" lon="-53.6835000">
        <ele>495.4</ele>
        <time>2018-09-15T17:56:45Z</time>
      </trkpt>
      <trkpt lat="-24.6626490" lon="-53.6835450">
        <ele>495.2</ele>
        <time>2018-09-15T17:56:46Z</time>
      </trkpt>
      <trkpt lat="-24.6626480" lon="-53.6835890">
        <ele>495.0</ele>
        <time>2018-09-15T17:56:47Z</time>
      </trkpt>
      <trkpt lat="-24.6626480" lon="-53.6836340">
        <ele>494.9</ele>
        <time>2018-09-15T17:56:48Z</time>
      </trkpt>
      <trkpt lat="-24.6626480" lon="-53.6836780">
        <ele>494.7</ele>
        <time>2018-09-15T17:56:49Z</time>
      </trkpt>
      <trkpt lat="-24.6626480" lon="-53.6837220">
        <ele>494.5</ele>
        <time>2018-09-15T17:56:50Z</time>
      </trkpt>
      <trkpt lat="-24.6626480" lon="-53.6837660">
        <ele>494.4</ele>
        <time>2018-09-15T17:56:51Z</time>
      </trkpt>
      <trkpt lat="-24.6626480" lon="-53.6838080">
        <ele>494.2</ele>
        <time>2018-09-15T17:56:52Z</time>
      </trkpt>
      <trkpt lat="-24.6626480" lon="-53.6838520">
        <ele>494.0</ele>
        <time>2018-09-15T17:56:53Z</time>
      </trkpt>
      <trkpt lat="-24.6626480" lon="-53.6838980">
        <ele>493.8</ele>
        <time>2018-09-15T17:56:54Z</time>
      </trkpt>
      <trkpt lat="-24.6626510" lon="-53.6839470">
        <ele>493.6</ele>
        <time>2018-09-15T17:56:55Z</time>
      </trkpt>
      <trkpt lat="-24.6626540" lon="-53.6839960">
        <ele>493.4</ele>
        <time>2018-09-15T17:56:56Z</time>
      </trkpt>
      <trkpt lat="-24.6626560" lon="-53.6840460">
        <ele>493.2</ele>
        <time>2018-09-15T17:56:57Z</time>
      </trkpt>
      <trkpt lat="-24.6626560" lon="-53.6840970">
        <ele>493.0</ele>
        <time>2018-09-15T17:56:58Z</time>
      </trkpt>
      <trkpt lat="-24.6626570" lon="-53.6841480">
        <ele>492.8</ele>
        <time>2018-09-15T17:56:59Z</time>
      </trkpt>
      <trkpt lat="-24.6626590" lon="-53.6841990">
        <ele>492.6</ele>
        <time>2018-09-15T17:57:00Z</time>
      </trkpt>
      <trkpt lat="-24.6626600" lon="-53.6842500">
        <ele>492.3</ele>
        <time>2018-09-15T17:57:01Z</time>
      </trkpt>
      <trkpt lat="-24.6626610" lon="-53.6843040">
        <ele>492.1</ele>
        <time>2018-09-15T17:57:02Z</time>
      </trkpt>
      <trkpt lat="-24.6626620" lon="-53.6843590">
        <ele>491.8</ele>
        <time>2018-09-15T17:57:03Z</time>
      </trkpt>
      <trkpt lat="-24.6626650" lon="-53.6844160">
        <ele>491.4</ele>
        <time>2018-09-15T17:57:04Z</time>
      </trkpt>
      <trkpt lat="-24.6626660" lon="-53.6844740">
        <ele>490.9</ele>
        <time>2018-09-15T17:57:05Z</time>
      </trkpt>
      <trkpt lat="-24.6626680" lon="-53.6845330">
        <ele>490.5</ele>
        <time>2018-09-15T17:57:06Z</time>
      </trkpt>
      <trkpt lat="-24.6626670" lon="-53.6845920">
        <ele>490.2</ele>
        <time>2018-09-15T17:57:07Z</time>
      </trkpt>
      <trkpt lat="-24.6626670" lon="-53.6846500">
        <ele>489.9</ele>
        <time>2018-09-15T17:57:08Z</time>
      </trkpt>
      <trkpt lat="-24.6626650" lon="-53.6847040">
        <ele>489.6</ele>
        <time>2018-09-15T17:57:09Z</time>
      </trkpt>
      <trkpt lat="-24.6626560" lon="-53.6847540">
        <ele>489.3</ele>
        <time>2018-09-15T17:57:10Z</time>
      </trkpt>
      <trkpt lat="-24.6626360" lon="-53.6847980">
        <ele>489.1</ele>
        <time>2018-09-15T17:57:11Z</time>
      </trkpt>
      <trkpt lat="-24.6626050" lon="-53.6848350">
        <ele>489.0</ele>
        <time>2018-09-15T17:57:12Z</time>
      </trkpt>
      <trkpt lat="-24.6625670" lon="-53.6848620">
        <ele>489.0</ele>
        <time>2018-09-15T17:57:13Z</time>
      </trkpt>
      <trkpt lat="-24.6625220" lon="-53.6848830">
        <ele>488.9</ele>
        <time>2018-09-15T17:57:14Z</time>
      </trkpt>
      <trkpt lat="-24.6624740" lon="-53.6848990">
        <ele>488.9</ele>
        <time>2018-09-15T17:57:15Z</time>
      </trkpt>
      <trkpt lat="-24.6624240" lon="-53.6849150">
        <ele>488.9</ele>
        <time>2018-09-15T17:57:16Z</time>
      </trkpt>
      <trkpt lat="-24.6623710" lon="-53.6849340">
        <ele>488.8</ele>
        <time>2018-09-15T17:57:17Z</time>
      </trkpt>
      <trkpt lat="-24.6623160" lon="-53.6849520">
        <ele>488.8</ele>
        <time>2018-09-15T17:57:18Z</time>
      </trkpt>
      <trkpt lat="-24.6622600" lon="-53.6849690">
        <ele>488.7</ele>
        <time>2018-09-15T17:57:19Z</time>
      </trkpt>
      <trkpt lat="-24.6622040" lon="-53.6849880">
        <ele>488.6</ele>
        <time>2018-09-15T17:57:20Z</time>
      </trkpt>
      <trkpt lat="-24.6621460" lon="-53.6850090">
        <ele>488.4</ele>
        <time>2018-09-15T17:57:21Z</time>
      </trkpt>
      <trkpt lat="-24.6620850" lon="-53.6850310">
        <ele>488.3</ele>
        <time>2018-09-15T17:57:22Z</time>
      </trkpt>
      <trkpt lat="-24.6620230" lon="-53.6850540">
        <ele>488.2</ele>
        <time>2018-09-15T17:57:23Z</time>
      </trkpt>
      <trkpt lat="-24.6619610" lon="-53.6850780">
        <ele>488.1</ele>
        <time>2018-09-15T17:57:24Z</time>
      </trkpt>
      <trkpt lat="-24.6619010" lon="-53.6851040">
        <ele>488.0</ele>
        <time>2018-09-15T17:57:25Z</time>
      </trkpt>
      <trkpt lat="-24.6618410" lon="-53.6851300">
        <ele>487.9</ele>
        <time>2018-09-15T17:57:26Z</time>
      </trkpt>
      <trkpt lat="-24.6617800" lon="-53.6851530">
        <ele>487.6</ele>
        <time>2018-09-15T17:57:27Z</time>
      </trkpt>
      <trkpt lat="-24.6617210" lon="-53.6851760">
        <ele>487.4</ele>
        <time>2018-09-15T17:57:28Z</time>
      </trkpt>
      <trkpt lat="-24.6616630" lon="-53.6851980">
        <ele>487.2</ele>
        <time>2018-09-15T17:57:29Z</time>
      </trkpt>
      <trkpt lat="-24.6616060" lon="-53.6852210">
        <ele>487.0</ele>
        <time>2018-09-15T17:57:30Z</time>
      </trkpt>
      <trkpt lat="-24.6615490" lon="-53.6852430">
        <ele>486.8</ele>
        <time>2018-09-15T17:57:31Z</time>
      </trkpt>
      <trkpt lat="-24.6614930" lon="-53.6852630">
        <ele>486.6</ele>
        <time>2018-09-15T17:57:32Z</time>
      </trkpt>
      <trkpt lat="-24.6614390" lon="-53.6852810">
        <ele>486.4</ele>
        <time>2018-09-15T17:57:33Z</time>
      </trkpt>
      <trkpt lat="-24.6613850" lon="-53.6853010">
        <ele>486.3</ele>
        <time>2018-09-15T17:57:34Z</time>
      </trkpt>
      <trkpt lat="-24.6613260" lon="-53.6853220">
        <ele>486.1</ele>
        <time>2018-09-15T17:57:35Z</time>
      </trkpt>
      <trkpt lat="-24.6612630" lon="-53.6853460">
        <ele>485.9</ele>
        <time>2018-09-15T17:57:36Z</time>
      </trkpt>
      <trkpt lat="-24.6612000" lon="-53.6853710">
        <ele>485.6</ele>
        <time>2018-09-15T17:57:37Z</time>
      </trkpt>
      <trkpt lat="-24.6611350" lon="-53.6853980">
        <ele>485.2</ele>
        <time>2018-09-15T17:57:38Z</time>
      </trkpt>
      <trkpt lat="-24.6610710" lon="-53.6854250">
        <ele>484.9</ele>
        <time>2018-09-15T17:57:39Z</time>
      </trkpt>
      <trkpt lat="-24.6610050" lon="-53.6854540">
        <ele>484.6</ele>
        <time>2018-09-15T17:57:40Z</time>
      </trkpt>
      <trkpt lat="-24.6609380" lon="-53.6854830">
        <ele>484.2</ele>
        <time>2018-09-15T17:57:41Z</time>
      </trkpt>
      <trkpt lat="-24.6608710" lon="-53.6855130">
        <ele>483.8</ele>
        <time>2018-09-15T17:57:42Z</time>
      </trkpt>
      <trkpt lat="-24.6608050" lon="-53.6855440">
        <ele>483.5</ele>
        <time>2018-09-15T17:57:43Z</time>
      </trkpt>
      <trkpt lat="-24.6607370" lon="-53.6855760">
        <ele>483.1</ele>
        <time>2018-09-15T17:57:44Z</time>
      </trkpt>
      <trkpt lat="-24.6606650" lon="-53.6856080">
        <ele>482.7</ele>
        <time>2018-09-15T17:57:45Z</time>
      </trkpt>
      <trkpt lat="-24.6605910" lon="-53.6856420">
        <ele>482.3</ele>
        <time>2018-09-15T17:57:46Z</time>
      </trkpt>
      <trkpt lat="-24.6605150" lon="-53.6856780">
        <ele>481.9</ele>
        <time>2018-09-15T17:57:47Z</time>
      </trkpt>
      <trkpt lat="-24.6604390" lon="-53.6857120">
        <ele>481.5</ele>
        <time>2018-09-15T17:57:48Z</time>
      </trkpt>
      <trkpt lat="-24.6603630" lon="-53.6857460">
        <ele>481.1</ele>
        <time>2018-09-15T17:57:49Z</time>
      </trkpt>
      <trkpt lat="-24.6602900" lon="-53.6857810">
        <ele>480.7</ele>
        <time>2018-09-15T17:57:50Z</time>
      </trkpt>
      <trkpt lat="-24.6602140" lon="-53.6858220">
        <ele>480.3</ele>
        <time>2018-09-15T17:57:51Z</time>
      </trkpt>
      <trkpt lat="-24.6601350" lon="-53.6858640">
        <ele>479.8</ele>
        <time>2018-09-15T17:57:52Z</time>
      </trkpt>
      <trkpt lat="-24.6600600" lon="-53.6859010">
        <ele>479.4</ele>
        <time>2018-09-15T17:57:53Z</time>
      </trkpt>
      <trkpt lat="-24.6599840" lon="-53.6859330">
        <ele>478.9</ele>
        <time>2018-09-15T17:57:54Z</time>
      </trkpt>
      <trkpt lat="-24.6599120" lon="-53.6859650">
        <ele>478.5</ele>
        <time>2018-09-15T17:57:55Z</time>
      </trkpt>
      <trkpt lat="-24.6598390" lon="-53.6859960">
        <ele>478.0</ele>
        <time>2018-09-15T17:57:56Z</time>
      </trkpt>
      <trkpt lat="-24.6597690" lon="-53.6860260">
        <ele>477.5</ele>
        <time>2018-09-15T17:57:57Z</time>
      </trkpt>
      <trkpt lat="-24.6597010" lon="-53.6860540">
        <ele>477.0</ele>
        <time>2018-09-15T17:57:58Z</time>
      </trkpt>
      <trkpt lat="-24.6595760" lon="-53.6861080">
        <ele>476.0</ele>
        <time>2018-09-15T17:57:59Z</time>
      </trkpt>
      <trkpt lat="-24.6595140" lon="-53.6861360">
        <ele>475.6</ele>
        <time>2018-09-15T17:58:01Z</time>
      </trkpt>
      <trkpt lat="-24.6594460" lon="-53.6861650">
        <ele>475.3</ele>
        <time>2018-09-15T17:58:02Z</time>
      </trkpt>
      <trkpt lat="-24.6593730" lon="-53.6861930">
        <ele>474.8</ele>
        <time>2018-09-15T17:58:03Z</time>
      </trkpt>
      <trkpt lat="-24.6592970" lon="-53.6862220">
        <ele>474.2</ele>
        <time>2018-09-15T17:58:04Z</time>
      </trkpt>
      <trkpt lat="-24.6592210" lon="-53.6862520">
        <ele>473.7</ele>
        <time>2018-09-15T17:58:05Z</time>
      </trkpt>
      <trkpt lat="-24.6591460" lon="-53.6862840">
        <ele>473.2</ele>
        <time>2018-09-15T17:58:06Z</time>
      </trkpt>
      <trkpt lat="-24.6590720" lon="-53.6863200">
        <ele>472.7</ele>
        <time>2018-09-15T17:58:07Z</time>
      </trkpt>
      <trkpt lat="-24.6590000" lon="-53.6863650">
        <ele>472.3</ele>
        <time>2018-09-15T17:58:08Z</time>
      </trkpt>
      <trkpt lat="-24.6589400" lon="-53.6864230">
        <ele>471.9</ele>
        <time>2018-09-15T17:58:09Z</time>
      </trkpt>
      <trkpt lat="-24.6588930" lon="-53.6864920">
        <ele>471.6</ele>
        <time>2018-09-15T17:58:10Z</time>
      </trkpt>
      <trkpt lat="-24.6588590" lon="-53.6865690">
        <ele>471.5</ele>
        <time>2018-09-15T17:58:11Z</time>
      </trkpt>
      <trkpt lat="-24.6588350" lon="-53.6866480">
        <ele>471.3</ele>
        <time>2018-09-15T17:58:12Z</time>
      </trkpt>
      <trkpt lat="-24.6588130" lon="-53.6867270">
        <ele>471.2</ele>
        <time>2018-09-15T17:58:13Z</time>
      </trkpt>
      <trkpt lat="-24.6587930" lon="-53.6868020">
        <ele>471.1</ele>
        <time>2018-09-15T17:58:14Z</time>
      </trkpt>
      <trkpt lat="-24.6587760" lon="-53.6868750">
        <ele>471.0</ele>
        <time>2018-09-15T17:58:15Z</time>
      </trkpt>
      <trkpt lat="-24.6587570" lon="-53.6869450">
        <ele>471.1</ele>
        <time>2018-09-15T17:58:16Z</time>
      </trkpt>
      <trkpt lat="-24.6587120" lon="-53.6870630">
        <ele>471.3</ele>
        <time>2018-09-15T17:58:17Z</time>
      </trkpt>
      <trkpt lat="-24.6586890" lon="-53.6871160">
        <ele>471.6</ele>
        <time>2018-09-15T17:58:18Z</time>
      </trkpt>
      <trkpt lat="-24.6586480" lon="-53.6871960">
        <ele>472.1</ele>
        <time>2018-09-15T17:58:20Z</time>
      </trkpt>
      <trkpt lat="-24.6586220" lon="-53.6872330">
        <ele>472.5</ele>
        <time>2018-09-15T17:58:21Z</time>
      </trkpt>
      <trkpt lat="-24.6585940" lon="-53.6872730">
        <ele>472.8</ele>
        <time>2018-09-15T17:58:22Z</time>
      </trkpt>
      <trkpt lat="-24.6585750" lon="-53.6873110">
        <ele>473.0</ele>
        <time>2018-09-15T17:58:23Z</time>
      </trkpt>
      <trkpt lat="-24.6585530" lon="-53.6873470">
        <ele>473.3</ele>
        <time>2018-09-15T17:58:24Z</time>
      </trkpt>
      <trkpt lat="-24.6585200" lon="-53.6873870">
        <ele>473.5</ele>
        <time>2018-09-15T17:58:25Z</time>
      </trkpt>
      <trkpt lat="-24.6584840" lon="-53.6874270">
        <ele>473.7</ele>
        <time>2018-09-15T17:58:26Z</time>
      </trkpt>
      <trkpt lat="-24.6584430" lon="-53.6874620">
        <ele>473.9</ele>
        <time>2018-09-15T17:58:27Z</time>
      </trkpt>
      <trkpt lat="-24.6584040" lon="-53.6874980">
        <ele>474.1</ele>
        <time>2018-09-15T17:58:28Z</time>
      </trkpt>
      <trkpt lat="-24.6583660" lon="-53.6875300">
        <ele>474.3</ele>
        <time>2018-09-15T17:58:29Z</time>
      </trkpt>
      <trkpt lat="-24.6583250" lon="-53.6875610">
        <ele>474.5</ele>
        <time>2018-09-15T17:58:30Z</time>
      </trkpt>
      <trkpt lat="-24.6582880" lon="-53.6875880">
        <ele>474.7</ele>
        <time>2018-09-15T17:58:31Z</time>
      </trkpt>
      <trkpt lat="-24.6582550" lon="-53.6876160">
        <ele>474.8</ele>
        <time>2018-09-15T17:58:32Z</time>
      </trkpt>
      <trkpt lat="-24.6582300" lon="-53.6876460">
        <ele>475.0</ele>
        <time>2018-09-15T17:58:33Z</time>
      </trkpt>
      <trkpt lat="-24.6582030" lon="-53.6876720">
        <ele>475.1</ele>
        <time>2018-09-15T17:58:34Z</time>
      </trkpt>
      <trkpt lat="-24.6581740" lon="-53.6876930">
        <ele>475.2</ele>
        <time>2018-09-15T17:58:35Z</time>
      </trkpt>
      <trkpt lat="-24.6581460" lon="-53.6877160">
        <ele>475.3</ele>
        <time>2018-09-15T17:58:36Z</time>
      </trkpt>
      <trkpt lat="-24.6581200" lon="-53.6877380">
        <ele>475.4</ele>
        <time>2018-09-15T17:58:37Z</time>
      </trkpt>
      <trkpt lat="-24.6581070" lon="-53.6877630">
        <ele>475.5</ele>
        <time>2018-09-15T17:58:38Z</time>
      </trkpt>
      <trkpt lat="-24.6580860" lon="-53.6878000">
        <ele>475.6</ele>
        <time>2018-09-15T17:58:40Z</time>
      </trkpt>
      <trkpt lat="-24.6580770" lon="-53.6878120">
        <ele>475.7</ele>
        <time>2018-09-15T17:58:41Z</time>
      </trkpt>
      <trkpt lat="-24.6580730" lon="-53.6878260">
        <ele>475.7</ele>
        <time>2018-09-15T17:58:42Z</time>
      </trkpt>
      <trkpt lat="-24.6580650" lon="-53.6878390">
        <ele>475.8</ele>
        <time>2018-09-15T17:58:43Z</time>
      </trkpt>
      <trkpt lat="-24.6580620" lon="-53.6878500">
        <ele>475.8</ele>
        <time>2018-09-15T17:58:44Z</time>
      </trkpt>
      <trkpt lat="-24.6580570" lon="-53.6878610">
        <ele>475.9</ele>
        <time>2018-09-15T17:58:45Z</time>
      </trkpt>
      <trkpt lat="-24.6580490" lon="-53.6878720">
        <ele>475.9</ele>
        <time>2018-09-15T17:58:46Z</time>
      </trkpt>
      <trkpt lat="-24.6580430" lon="-53.6878780">
        <ele>476.1</ele>
        <time>2018-09-15T17:58:47Z</time>
      </trkpt>
      <trkpt lat="-24.6580340" lon="-53.6878780">
        <ele>476.2</ele>
        <time>2018-09-15T17:58:48Z</time>
      </trkpt>
      <trkpt lat="-24.6580230" lon="-53.6878770">
        <ele>476.3</ele>
        <time>2018-09-15T17:58:49Z</time>
      </trkpt>
      <trkpt lat="-24.6580100" lon="-53.6878770">
        <ele>476.4</ele>
        <time>2018-09-15T17:58:50Z</time>
      </trkpt>
      <trkpt lat="-24.6579970" lon="-53.6878750">
        <ele>476.4</ele>
        <time>2018-09-15T17:58:51Z</time>
      </trkpt>
      <trkpt lat="-24.6579870" lon="-53.6878710">
        <ele>476.5</ele>
        <time>2018-09-15T17:58:52Z</time>
      </trkpt>
      <trkpt lat="-24.6579830" lon="-53.6878650">
        <ele>476.6</ele>
        <time>2018-09-15T17:58:53Z</time>
      </trkpt>
      <trkpt lat="-24.6579760" lon="-53.6878620">
        <ele>476.6</ele>
        <time>2018-09-15T17:58:54Z</time>
      </trkpt>
      <trkpt lat="-24.6579660" lon="-53.6878570">
        <ele>476.7</ele>
        <time>2018-09-15T17:58:55Z</time>
      </trkpt>
      <trkpt lat="-24.6579570" lon="-53.6878510">
        <ele>476.7</ele>
        <time>2018-09-15T17:58:56Z</time>
      </trkpt>
      <trkpt lat="-24.6579510" lon="-53.6878480">
        <ele>476.8</ele>
        <time>2018-09-15T17:58:57Z</time>
      </trkpt>
      <trkpt lat="-24.6579400" lon="-53.6878440">
        <ele>476.9</ele>
        <time>2018-09-15T17:58:58Z</time>
      </trkpt>
      <trkpt lat="-24.6579280" lon="-53.6878350">
        <ele>477.0</ele>
        <time>2018-09-15T17:58:59Z</time>
      </trkpt>
      <trkpt lat="-24.6579200" lon="-53.6878250">
        <ele>477.0</ele>
        <time>2018-09-15T17:59:00Z</time>
      </trkpt>
      <trkpt lat="-24.6579130" lon="-53.6878140">
        <ele>477.1</ele>
        <time>2018-09-15T17:59:01Z</time>
      </trkpt>
      <trkpt lat="-24.6579070" lon="-53.6878070">
        <ele>477.2</ele>
        <time>2018-09-15T17:59:02Z</time>
      </trkpt>
      <trkpt lat="-24.6578970" lon="-53.6878010">
        <ele>477.2</ele>
        <time>2018-09-15T17:59:03Z</time>
      </trkpt>
      <trkpt lat="-24.6578880" lon="-53.6877970">
        <ele>477.3</ele>
        <time>2018-09-15T17:59:04Z</time>
      </trkpt>
      <trkpt lat="-24.6578740" lon="-53.6877930">
        <ele>477.4</ele>
        <time>2018-09-15T17:59:05Z</time>
      </trkpt>
      <trkpt lat="-24.6578740" lon="-53.6877930">
        <ele>477.4</ele>
        <time>2018-09-15T17:59:06Z</time>
      </trkpt>
      <trkpt lat="-24.6578620" lon="-53.6877880">
        <ele>477.5</ele>
        <time>2018-09-15T17:59:07Z</time>
      </trkpt>
      <trkpt lat="-24.6578480" lon="-53.6877760">
        <ele>477.6</ele>
        <time>2018-09-15T17:59:08Z</time>
      </trkpt>
      <trkpt lat="-24.6578370" lon="-53.6877700">
        <ele>477.7</ele>
        <time>2018-09-15T17:59:09Z</time>
      </trkpt>
      <trkpt lat="-24.6578370" lon="-53.6877700">
        <ele>477.7</ele>
        <time>2018-09-15T17:59:10Z</time>
      </trkpt>
      <trkpt lat="-24.6578290" lon="-53.6877650">
        <ele>477.7</ele>
        <time>2018-09-15T17:59:11Z</time>
      </trkpt>
      <trkpt lat="-24.6578210" lon="-53.6877600">
        <ele>477.8</ele>
        <time>2018-09-15T17:59:12Z</time>
      </trkpt>
      <trkpt lat="-24.6578060" lon="-53.6877560">
        <ele>477.9</ele>
        <time>2018-09-15T17:59:13Z</time>
      </trkpt>
      <trkpt lat="-24.6577940" lon="-53.6877520">
        <ele>478.0</ele>
        <time>2018-09-15T17:59:14Z</time>
      </trkpt>
      <trkpt lat="-24.6577810" lon="-53.6877490">
        <ele>478.1</ele>
        <time>2018-09-15T17:59:15Z</time>
      </trkpt>
      <trkpt lat="-24.6577680" lon="-53.6877460">
        <ele>478.1</ele>
        <time>2018-09-15T17:59:16Z</time>
      </trkpt>
      <trkpt lat="-24.6577530" lon="-53.6877430">
        <ele>478.2</ele>
        <time>2018-09-15T17:59:17Z</time>
      </trkpt>
      <trkpt lat="-24.6577420" lon="-53.6877390">
        <ele>478.3</ele>
        <time>2018-09-15T17:59:18Z</time>
      </trkpt>
      <trkpt lat="-24.6577340" lon="-53.6877340">
        <ele>478.4</ele>
        <time>2018-09-15T17:59:19Z</time>
      </trkpt>
      <trkpt lat="-24.6577250" lon="-53.6877290">
        <ele>478.4</ele>
        <time>2018-09-15T17:59:20Z</time>
      </trkpt>
      <trkpt lat="-24.6577170" lon="-53.6877200">
        <ele>478.5</ele>
        <time>2018-09-15T17:59:21Z</time>
      </trkpt>
      <trkpt lat="-24.6577070" lon="-53.6877130">
        <ele>478.6</ele>
        <time>2018-09-15T17:59:22Z</time>
      </trkpt>
      <trkpt lat="-24.6576970" lon="-53.6877080">
        <ele>478.7</ele>
        <time>2018-09-15T17:59:23Z</time>
      </trkpt>
      <trkpt lat="-24.6576860" lon="-53.6877030">
        <ele>478.7</ele>
        <time>2018-09-15T17:59:24Z</time>
      </trkpt>
      <trkpt lat="-24.6576710" lon="-53.6877000">
        <ele>478.8</ele>
        <time>2018-09-15T17:59:25Z</time>
      </trkpt>
      <trkpt lat="-24.6576640" lon="-53.6876910">
        <ele>478.9</ele>
        <time>2018-09-15T17:59:26Z</time>
      </trkpt>
      <trkpt lat="-24.6576570" lon="-53.6876870">
        <ele>479.0</ele>
        <time>2018-09-15T17:59:27Z</time>
      </trkpt>
      <trkpt lat="-24.6576480" lon="-53.6876810">
        <ele>479.0</ele>
        <time>2018-09-15T17:59:28Z</time>
      </trkpt>
      <trkpt lat="-24.6576390" lon="-53.6876760">
        <ele>479.1</ele>
        <time>2018-09-15T17:59:29Z</time>
      </trkpt>
      <trkpt lat="-24.6576300" lon="-53.6876730">
        <ele>479.1</ele>
        <time>2018-09-15T17:59:30Z</time>
      </trkpt>
      <trkpt lat="-24.6576180" lon="-53.6876670">
        <ele>479.2</ele>
        <time>2018-09-15T17:59:31Z</time>
      </trkpt>
      <trkpt lat="-24.6576050" lon="-53.6876620">
        <ele>479.3</ele>
        <time>2018-09-15T17:59:32Z</time>
      </trkpt>
      <trkpt lat="-24.6575920" lon="-53.6876560">
        <ele>479.4</ele>
        <time>2018-09-15T17:59:33Z</time>
      </trkpt>
      <trkpt lat="-24.6575820" lon="-53.6876510">
        <ele>479.5</ele>
        <time>2018-09-15T17:59:34Z</time>
      </trkpt>
      <trkpt lat="-24.6575700" lon="-53.6876440">
        <ele>479.6</ele>
        <time>2018-09-15T17:59:35Z</time>
      </trkpt>
      <trkpt lat="-24.6575600" lon="-53.6876390">
        <ele>479.6</ele>
        <time>2018-09-15T17:59:36Z</time>
      </trkpt>
      <trkpt lat="-24.6575480" lon="-53.6876310">
        <ele>479.7</ele>
        <time>2018-09-15T17:59:37Z</time>
      </trkpt>
      <trkpt lat="-24.6575350" lon="-53.6876270">
        <ele>479.8</ele>
        <time>2018-09-15T17:59:38Z</time>
      </trkpt>
      <trkpt lat="-24.6575200" lon="-53.6876240">
        <ele>479.9</ele>
        <time>2018-09-15T17:59:39Z</time>
      </trkpt>
      <trkpt lat="-24.6575050" lon="-53.6876220">
        <ele>480.0</ele>
        <time>2018-09-15T17:59:40Z</time>
      </trkpt>
      <trkpt lat="-24.6574960" lon="-53.6876150">
        <ele>480.1</ele>
        <time>2018-09-15T17:59:41Z</time>
      </trkpt>
      <trkpt lat="-24.6574860" lon="-53.6876070">
        <ele>480.2</ele>
        <time>2018-09-15T17:59:42Z</time>
      </trkpt>
      <trkpt lat="-24.6574790" lon="-53.6876010">
        <ele>480.2</ele>
        <time>2018-09-15T17:59:43Z</time>
      </trkpt>
      <trkpt lat="-24.6574690" lon="-53.6875950">
        <ele>480.3</ele>
        <time>2018-09-15T17:59:44Z</time>
      </trkpt>
      <trkpt lat="-24.6574540" lon="-53.6875920">
        <ele>480.4</ele>
        <time>2018-09-15T17:59:45Z</time>
      </trkpt>
      <trkpt lat="-24.6574410" lon="-53.6875870">
        <ele>480.5</ele>
        <time>2018-09-15T17:59:46Z</time>
      </trkpt>
      <trkpt lat="-24.6574280" lon="-53.6875830">
        <ele>480.6</ele>
        <time>2018-09-15T17:59:47Z</time>
      </trkpt>
      <trkpt lat="-24.6574170" lon="-53.6875790">
        <ele>480.6</ele>
        <time>2018-09-15T17:59:48Z</time>
      </trkpt>
      <trkpt lat="-24.6574070" lon="-53.6875760">
        <ele>480.7</ele>
        <time>2018-09-15T17:59:49Z</time>
      </trkpt>
      <trkpt lat="-24.6573970" lon="-53.6875700">
        <ele>480.8</ele>
        <time>2018-09-15T17:59:50Z</time>
      </trkpt>
      <trkpt lat="-24.6573870" lon="-53.6875640">
        <ele>480.9</ele>
        <time>2018-09-15T17:59:51Z</time>
      </trkpt>
      <trkpt lat="-24.6573770" lon="-53.6875580">
        <ele>480.9</ele>
        <time>2018-09-15T17:59:52Z</time>
      </trkpt>
      <trkpt lat="-24.6573680" lon="-53.6875470">
        <ele>481.0</ele>
        <time>2018-09-15T17:59:53Z</time>
      </trkpt>
      <trkpt lat="-24.6573600" lon="-53.6875350">
        <ele>481.1</ele>
        <time>2018-09-15T17:59:54Z</time>
      </trkpt>
      <trkpt lat="-24.6573480" lon="-53.6875260">
        <ele>481.2</ele>
        <time>2018-09-15T17:59:55Z</time>
      </trkpt>
      <trkpt lat="-24.6573340" lon="-53.6875210">
        <ele>481.3</ele>
        <time>2018-09-15T17:59:56Z</time>
      </trkpt>
      <trkpt lat="-24.6573210" lon="-53.6875150">
        <ele>481.4</ele>
        <time>2018-09-15T17:59:57Z</time>
      </trkpt>
      <trkpt lat="-24.6573070" lon="-53.6875130">
        <ele>481.5</ele>
        <time>2018-09-15T17:59:58Z</time>
      </trkpt>
      <trkpt lat="-24.6572920" lon="-53.6875090">
        <ele>481.6</ele>
        <time>2018-09-15T17:59:59Z</time>
      </trkpt>
      <trkpt lat="-24.6572800" lon="-53.6875020">
        <ele>481.7</ele>
        <time>2018-09-15T18:00:00Z</time>
      </trkpt>
      <trkpt lat="-24.6572670" lon="-53.6874970">
        <ele>481.8</ele>
        <time>2018-09-15T18:00:01Z</time>
      </trkpt>
      <trkpt lat="-24.6572560" lon="-53.6874920">
        <ele>481.9</ele>
        <time>2018-09-15T18:00:02Z</time>
      </trkpt>
      <trkpt lat="-24.6572450" lon="-53.6874870">
        <ele>482.0</ele>
        <time>2018-09-15T18:00:03Z</time>
      </trkpt>
      <trkpt lat="-24.6572330" lon="-53.6874830">
        <ele>482.0</ele>
        <time>2018-09-15T18:00:04Z</time>
      </trkpt>
      <trkpt lat="-24.6572210" lon="-53.6874770">
        <ele>482.1</ele>
        <time>2018-09-15T18:00:05Z</time>
      </trkpt>
      <trkpt lat="-24.6572080" lon="-53.6874710">
        <ele>482.2</ele>
        <time>2018-09-15T18:00:06Z</time>
      </trkpt>
      <trkpt lat="-24.6571950" lon="-53.6874630">
        <ele>482.3</ele>
        <time>2018-09-15T18:00:07Z</time>
      </trkpt>
      <trkpt lat="-24.6571820" lon="-53.6874560">
        <ele>482.4</ele>
        <time>2018-09-15T18:00:08Z</time>
      </trkpt>
      <trkpt lat="-24.6571680" lon="-53.6874500">
        <ele>482.5</ele>
        <time>2018-09-15T18:00:09Z</time>
      </trkpt>
      <trkpt lat="-24.6571550" lon="-53.6874440">
        <ele>482.6</ele>
        <time>2018-09-15T18:00:10Z</time>
      </trkpt>
      <trkpt lat="-24.6571420" lon="-53.6874380">
        <ele>482.7</ele>
        <time>2018-09-15T18:00:11Z</time>
      </trkpt>
      <trkpt lat="-24.6571290" lon="-53.6874320">
        <ele>482.8</ele>
        <time>2018-09-15T18:00:12Z</time>
      </trkpt>
      <trkpt lat="-24.6571160" lon="-53.6874240">
        <ele>482.9</ele>
        <time>2018-09-15T18:00:13Z</time>
      </trkpt>
      <trkpt lat="-24.6571050" lon="-53.6874180">
        <ele>483.0</ele>
        <time>2018-09-15T18:00:14Z</time>
      </trkpt>
      <trkpt lat="-24.6570920" lon="-53.6874140">
        <ele>483.1</ele>
        <time>2018-09-15T18:00:15Z</time>
      </trkpt>
      <trkpt lat="-24.6570790" lon="-53.6874100">
        <ele>483.1</ele>
        <time>2018-09-15T18:00:16Z</time>
      </trkpt>
      <trkpt lat="-24.6570670" lon="-53.6874060">
        <ele>483.2</ele>
        <time>2018-09-15T18:00:17Z</time>
      </trkpt>
      <trkpt lat="-24.6570540" lon="-53.6873990">
        <ele>483.3</ele>
        <time>2018-09-15T18:00:18Z</time>
      </trkpt>
      <trkpt lat="-24.6570400" lon="-53.6873930">
        <ele>483.4</ele>
        <time>2018-09-15T18:00:19Z</time>
      </trkpt>
      <trkpt lat="-24.6570260" lon="-53.6873850">
        <ele>483.5</ele>
        <time>2018-09-15T18:00:20Z</time>
      </trkpt>
      <trkpt lat="-24.6570130" lon="-53.6873810">
        <ele>483.6</ele>
        <time>2018-09-15T18:00:21Z</time>
      </trkpt>
      <trkpt lat="-24.6569990" lon="-53.6873770">
        <ele>483.7</ele>
        <time>2018-09-15T18:00:22Z</time>
      </trkpt>
      <trkpt lat="-24.6569840" lon="-53.6873740">
        <ele>483.8</ele>
        <time>2018-09-15T18:00:23Z</time>
      </trkpt>
      <trkpt lat="-24.6569690" lon="-53.6873730">
        <ele>483.9</ele>
        <time>2018-09-15T18:00:24Z</time>
      </trkpt>
      <trkpt lat="-24.6569530" lon="-53.6873710">
        <ele>484.0</ele>
        <time>2018-09-15T18:00:25Z</time>
      </trkpt>
      <trkpt lat="-24.6569380" lon="-53.6873690">
        <ele>484.2</ele>
        <time>2018-09-15T18:00:26Z</time>
      </trkpt>
      <trkpt lat="-24.6569230" lon="-53.6873670">
        <ele>484.3</ele>
        <time>2018-09-15T18:00:27Z</time>
      </trkpt>
      <trkpt lat="-24.6569100" lon="-53.6873660">
        <ele>484.3</ele>
        <time>2018-09-15T18:00:28Z</time>
      </trkpt>
      <trkpt lat="-24.6568970" lon="-53.6873640">
        <ele>484.4</ele>
        <time>2018-09-15T18:00:29Z</time>
      </trkpt>
      <trkpt lat="-24.6568850" lon="-53.6873670">
        <ele>484.5</ele>
        <time>2018-09-15T18:00:30Z</time>
      </trkpt>
      <trkpt lat="-24.6568720" lon="-53.6873720">
        <ele>484.6</ele>
        <time>2018-09-15T18:00:31Z</time>
      </trkpt>
      <trkpt lat="-24.6568580" lon="-53.6873720">
        <ele>484.7</ele>
        <time>2018-09-15T18:00:32Z</time>
      </trkpt>
      <trkpt lat="-24.6568440" lon="-53.6873740">
        <ele>484.9</ele>
        <time>2018-09-15T18:00:33Z</time>
      </trkpt>
      <trkpt lat="-24.6568330" lon="-53.6873820">
        <ele>484.8</ele>
        <time>2018-09-15T18:00:34Z</time>
      </trkpt>
      <trkpt lat="-24.6568210" lon="-53.6873910">
        <ele>484.8</ele>
        <time>2018-09-15T18:00:35Z</time>
      </trkpt>
      <trkpt lat="-24.6568080" lon="-53.6874000">
        <ele>484.7</ele>
        <time>2018-09-15T18:00:36Z</time>
      </trkpt>
      <trkpt lat="-24.6567980" lon="-53.6874120">
        <ele>484.7</ele>
        <time>2018-09-15T18:00:37Z</time>
      </trkpt>
      <trkpt lat="-24.6567880" lon="-53.6874260">
        <ele>484.6</ele>
        <time>2018-09-15T18:00:38Z</time>
      </trkpt>
      <trkpt lat="-24.6567780" lon="-53.6874410">
        <ele>484.6</ele>
        <time>2018-09-15T18:00:39Z</time>
      </trkpt>
      <trkpt lat="-24.6567660" lon="-53.6874560">
        <ele>484.5</ele>
        <time>2018-09-15T18:00:40Z</time>
      </trkpt>
      <trkpt lat="-24.6567540" lon="-53.6874710">
        <ele>484.5</ele>
        <time>2018-09-15T18:00:41Z</time>
      </trkpt>
      <trkpt lat="-24.6567390" lon="-53.6874850">
        <ele>484.4</ele>
        <time>2018-09-15T18:00:42Z</time>
      </trkpt>
      <trkpt lat="-24.6567250" lon="-53.6875010">
        <ele>484.3</ele>
        <time>2018-09-15T18:00:43Z</time>
      </trkpt>
      <trkpt lat="-24.6567100" lon="-53.6875160">
        <ele>484.3</ele>
        <time>2018-09-15T18:00:44Z</time>
      </trkpt>
      <trkpt lat="-24.6566940" lon="-53.6875320">
        <ele>484.2</ele>
        <time>2018-09-15T18:00:45Z</time>
      </trkpt>
      <trkpt lat="-24.6566790" lon="-53.6875470">
        <ele>484.1</ele>
        <time>2018-09-15T18:00:46Z</time>
      </trkpt>
      <trkpt lat="-24.6566640" lon="-53.6875630">
        <ele>484.1</ele>
        <time>2018-09-15T18:00:47Z</time>
      </trkpt>
      <trkpt lat="-24.6566470" lon="-53.6875810">
        <ele>484.0</ele>
        <time>2018-09-15T18:00:48Z</time>
      </trkpt>
      <trkpt lat="-24.6566290" lon="-53.6875980">
        <ele>483.9</ele>
        <time>2018-09-15T18:00:49Z</time>
      </trkpt>
      <trkpt lat="-24.6566090" lon="-53.6876150">
        <ele>483.8</ele>
        <time>2018-09-15T18:00:50Z</time>
      </trkpt>
      <trkpt lat="-24.6565900" lon="-53.6876340">
        <ele>483.7</ele>
        <time>2018-09-15T18:00:51Z</time>
      </trkpt>
      <trkpt lat="-24.6565690" lon="-53.6876540">
        <ele>483.6</ele>
        <time>2018-09-15T18:00:52Z</time>
      </trkpt>
      <trkpt lat="-24.6565460" lon="-53.6876750">
        <ele>483.5</ele>
        <time>2018-09-15T18:00:53Z</time>
      </trkpt>
      <trkpt lat="-24.6565210" lon="-53.6876980">
        <ele>483.4</ele>
        <time>2018-09-15T18:00:54Z</time>
      </trkpt>
      <trkpt lat="-24.6564940" lon="-53.6877230">
        <ele>483.3</ele>
        <time>2018-09-15T18:00:55Z</time>
      </trkpt>
      <trkpt lat="-24.6564670" lon="-53.6877500">
        <ele>483.1</ele>
        <time>2018-09-15T18:00:56Z</time>
      </trkpt>
      <trkpt lat="-24.6564370" lon="-53.6877780">
        <ele>483.0</ele>
        <time>2018-09-15T18:00:57Z</time>
      </trkpt>
      <trkpt lat="-24.6564070" lon="-53.6878070">
        <ele>483.0</ele>
        <time>2018-09-15T18:00:58Z</time>
      </trkpt>
      <trkpt lat="-24.6563760" lon="-53.6878380">
        <ele>482.9</ele>
        <time>2018-09-15T18:00:59Z</time>
      </trkpt>
      <trkpt lat="-24.6563440" lon="-53.6878710">
        <ele>482.7</ele>
        <time>2018-09-15T18:01:00Z</time>
      </trkpt>
      <trkpt lat="-24.6563130" lon="-53.6879070">
        <ele>482.6</ele>
        <time>2018-09-15T18:01:01Z</time>
      </trkpt>
      <trkpt lat="-24.6562810" lon="-53.6879440">
        <ele>482.5</ele>
        <time>2018-09-15T18:01:02Z</time>
      </trkpt>
      <trkpt lat="-24.6562500" lon="-53.6879810">
        <ele>482.4</ele>
        <time>2018-09-15T18:01:03Z</time>
      </trkpt>
      <trkpt lat="-24.6562200" lon="-53.6880150">
        <ele>482.4</ele>
        <time>2018-09-15T18:01:04Z</time>
      </trkpt>
      <trkpt lat="-24.6561900" lon="-53.6880480">
        <ele>482.3</ele>
        <time>2018-09-15T18:01:05Z</time>
      </trkpt>
      <trkpt lat="-24.6561580" lon="-53.6880830">
        <ele>482.3</ele>
        <time>2018-09-15T18:01:06Z</time>
      </trkpt>
      <trkpt lat="-24.6561250" lon="-53.6881190">
        <ele>482.3</ele>
        <time>2018-09-15T18:01:07Z</time>
      </trkpt>
      <trkpt lat="-24.6560930" lon="-53.6881560">
        <ele>482.2</ele>
        <time>2018-09-15T18:01:08Z</time>
      </trkpt>
      <trkpt lat="-24.6560610" lon="-53.6881920">
        <ele>482.2</ele>
        <time>2018-09-15T18:01:09Z</time>
      </trkpt>
      <trkpt lat="-24.6560320" lon="-53.6882280">
        <ele>482.1</ele>
        <time>2018-09-15T18:01:10Z</time>
      </trkpt>
      <trkpt lat="-24.6560040" lon="-53.6882640">
        <ele>482.1</ele>
        <time>2018-09-15T18:01:11Z</time>
      </trkpt>
      <trkpt lat="-24.6559770" lon="-53.6882990">
        <ele>482.0</ele>
        <time>2018-09-15T18:01:12Z</time>
      </trkpt>
      <trkpt lat="-24.6559500" lon="-53.6883330">
        <ele>482.0</ele>
        <time>2018-09-15T18:01:13Z</time>
      </trkpt>
      <trkpt lat="-24.6559230" lon="-53.6883680">
        <ele>482.0</ele>
        <time>2018-09-15T18:01:14Z</time>
      </trkpt>
      <trkpt lat="-24.6558980" lon="-53.6884040">
        <ele>481.9</ele>
        <time>2018-09-15T18:01:15Z</time>
      </trkpt>
      <trkpt lat="-24.6558710" lon="-53.6884410">
        <ele>482.0</ele>
        <time>2018-09-15T18:01:16Z</time>
      </trkpt>
      <trkpt lat="-24.6558470" lon="-53.6884790">
        <ele>482.0</ele>
        <time>2018-09-15T18:01:17Z</time>
      </trkpt>
      <trkpt lat="-24.6558210" lon="-53.6885180">
        <ele>482.0</ele>
        <time>2018-09-15T18:01:18Z</time>
      </trkpt>
      <trkpt lat="-24.6558000" lon="-53.6885560">
        <ele>482.0</ele>
        <time>2018-09-15T18:01:19Z</time>
      </trkpt>
      <trkpt lat="-24.6557770" lon="-53.6885940">
        <ele>482.1</ele>
        <time>2018-09-15T18:01:20Z</time>
      </trkpt>
      <trkpt lat="-24.6557550" lon="-53.6886310">
        <ele>482.1</ele>
        <time>2018-09-15T18:01:21Z</time>
      </trkpt>
      <trkpt lat="-24.6557370" lon="-53.6886690">
        <ele>482.1</ele>
        <time>2018-09-15T18:01:22Z</time>
      </trkpt>
      <trkpt lat="-24.6557200" lon="-53.6887050">
        <ele>482.2</ele>
        <time>2018-09-15T18:01:23Z</time>
      </trkpt>
      <trkpt lat="-24.6557020" lon="-53.6887400">
        <ele>482.3</ele>
        <time>2018-09-15T18:01:24Z</time>
      </trkpt>
      <trkpt lat="-24.6556860" lon="-53.6887730">
        <ele>482.4</ele>
        <time>2018-09-15T18:01:25Z</time>
      </trkpt>
      <trkpt lat="-24.6556730" lon="-53.6888060">
        <ele>482.5</ele>
        <time>2018-09-15T18:01:26Z</time>
      </trkpt>
      <trkpt lat="-24.6556590" lon="-53.6888400">
        <ele>482.6</ele>
        <time>2018-09-15T18:01:27Z</time>
      </trkpt>
      <trkpt lat="-24.6556440" lon="-53.6888710">
        <ele>482.6</ele>
        <time>2018-09-15T18:01:28Z</time>
      </trkpt>
      <trkpt lat="-24.6556300" lon="-53.6889010">
        <ele>482.7</ele>
        <time>2018-09-15T18:01:29Z</time>
      </trkpt>
      <trkpt lat="-24.6556180" lon="-53.6889310">
        <ele>482.8</ele>
        <time>2018-09-15T18:01:30Z</time>
      </trkpt>
      <trkpt lat="-24.6556060" lon="-53.6889610">
        <ele>483.0</ele>
        <time>2018-09-15T18:01:31Z</time>
      </trkpt>
      <trkpt lat="-24.6555920" lon="-53.6889900">
        <ele>483.2</ele>
        <time>2018-09-15T18:01:32Z</time>
      </trkpt>
      <trkpt lat="-24.6555790" lon="-53.6890180">
        <ele>483.3</ele>
        <time>2018-09-15T18:01:33Z</time>
      </trkpt>
      <trkpt lat="-24.6555670" lon="-53.6890460">
        <ele>483.4</ele>
        <time>2018-09-15T18:01:34Z</time>
      </trkpt>
      <trkpt lat="-24.6555540" lon="-53.6890740">
        <ele>483.6</ele>
        <time>2018-09-15T18:01:35Z</time>
      </trkpt>
      <trkpt lat="-24.6555400" lon="-53.6891030">
        <ele>483.7</ele>
        <time>2018-09-15T18:01:36Z</time>
      </trkpt>
      <trkpt lat="-24.6555260" lon="-53.6891340">
        <ele>483.8</ele>
        <time>2018-09-15T18:01:37Z</time>
      </trkpt>
      <trkpt lat="-24.6555110" lon="-53.6891650">
        <ele>484.0</ele>
        <time>2018-09-15T18:01:38Z</time>
      </trkpt>
      <trkpt lat="-24.6554960" lon="-53.6891960">
        <ele>484.1</ele>
        <time>2018-09-15T18:01:39Z</time>
      </trkpt>
      <trkpt lat="-24.6554810" lon="-53.6892270">
        <ele>484.2</ele>
        <time>2018-09-15T18:01:40Z</time>
      </trkpt>
      <trkpt lat="-24.6554670" lon="-53.6892570">
        <ele>484.2</ele>
        <time>2018-09-15T18:01:41Z</time>
      </trkpt>
      <trkpt lat="-24.6554550" lon="-53.6892850">
        <ele>484.3</ele>
        <time>2018-09-15T18:01:42Z</time>
      </trkpt>
      <trkpt lat="-24.6554450" lon="-53.6893110">
        <ele>484.4</ele>
        <time>2018-09-15T18:01:43Z</time>
      </trkpt>
      <trkpt lat="-24.6554330" lon="-53.6893370">
        <ele>484.4</ele>
        <time>2018-09-15T18:01:44Z</time>
      </trkpt>
      <trkpt lat="-24.6554200" lon="-53.6893640">
        <ele>484.5</ele>
        <time>2018-09-15T18:01:45Z</time>
      </trkpt>
      <trkpt lat="-24.6554060" lon="-53.6893920">
        <ele>484.6</ele>
        <time>2018-09-15T18:01:46Z</time>
      </trkpt>
      <trkpt lat="-24.6553910" lon="-53.6894210">
        <ele>484.6</ele>
        <time>2018-09-15T18:01:47Z</time>
      </trkpt>
      <trkpt lat="-24.6553760" lon="-53.6894510">
        <ele>484.7</ele>
        <time>2018-09-15T18:01:48Z</time>
      </trkpt>
      <trkpt lat="-24.6553610" lon="-53.6894810">
        <ele>484.8</ele>
        <time>2018-09-15T18:01:49Z</time>
      </trkpt>
      <trkpt lat="-24.6553460" lon="-53.6895110">
        <ele>484.8</ele>
        <time>2018-09-15T18:01:50Z</time>
      </trkpt>
      <trkpt lat="-24.6553310" lon="-53.6895390">
        <ele>484.9</ele>
        <time>2018-09-15T18:01:51Z</time>
      </trkpt>
      <trkpt lat="-24.6553150" lon="-53.6895670">
        <ele>485.0</ele>
        <time>2018-09-15T18:01:52Z</time>
      </trkpt>
      <trkpt lat="-24.6553000" lon="-53.6895940">
        <ele>485.1</ele>
        <time>2018-09-15T18:01:53Z</time>
      </trkpt>
      <trkpt lat="-24.6552860" lon="-53.6896220">
        <ele>485.1</ele>
        <time>2018-09-15T18:01:54Z</time>
      </trkpt>
      <trkpt lat="-24.6552730" lon="-53.6896520">
        <ele>485.2</ele>
        <time>2018-09-15T18:01:55Z</time>
      </trkpt>
      <trkpt lat="-24.6552590" lon="-53.6896810">
        <ele>485.3</ele>
        <time>2018-09-15T18:01:56Z</time>
      </trkpt>
      <trkpt lat="-24.6552430" lon="-53.6897110">
        <ele>485.3</ele>
        <time>2018-09-15T18:01:57Z</time>
      </trkpt>
      <trkpt lat="-24.6552280" lon="-53.6897390">
        <ele>485.4</ele>
        <time>2018-09-15T18:01:58Z</time>
      </trkpt>
      <trkpt lat="-24.6551970" lon="-53.6897920">
        <ele>485.5</ele>
        <time>2018-09-15T18:01:59Z</time>
      </trkpt>
      <trkpt lat="-24.6551790" lon="-53.6898190">
        <ele>485.6</ele>
        <time>2018-09-15T18:02:01Z</time>
      </trkpt>
      <trkpt lat="-24.6551620" lon="-53.6898460">
        <ele>485.6</ele>
        <time>2018-09-15T18:02:02Z</time>
      </trkpt>
      <trkpt lat="-24.6551440" lon="-53.6898740">
        <ele>485.7</ele>
        <time>2018-09-15T18:02:03Z</time>
      </trkpt>
      <trkpt lat="-24.6551260" lon="-53.6899030">
        <ele>485.8</ele>
        <time>2018-09-15T18:02:04Z</time>
      </trkpt>
      <trkpt lat="-24.6551070" lon="-53.6899300">
        <ele>485.9</ele>
        <time>2018-09-15T18:02:05Z</time>
      </trkpt>
      <trkpt lat="-24.6550650" lon="-53.6899820">
        <ele>485.9</ele>
        <time>2018-09-15T18:02:06Z</time>
      </trkpt>
      <trkpt lat="-24.6550430" lon="-53.6900080">
        <ele>486.0</ele>
        <time>2018-09-15T18:02:07Z</time>
      </trkpt>
      <trkpt lat="-24.6550210" lon="-53.6900340">
        <ele>486.0</ele>
        <time>2018-09-15T18:02:08Z</time>
      </trkpt>
      <trkpt lat="-24.6549980" lon="-53.6900600">
        <ele>486.0</ele>
        <time>2018-09-15T18:02:09Z</time>
      </trkpt>
      <trkpt lat="-24.6549750" lon="-53.6900840">
        <ele>486.0</ele>
        <time>2018-09-15T18:02:10Z</time>
      </trkpt>
      <trkpt lat="-24.6549510" lon="-53.6901070">
        <ele>486.0</ele>
        <time>2018-09-15T18:02:11Z</time>
      </trkpt>
      <trkpt lat="-24.6549270" lon="-53.6901280">
        <ele>486.0</ele>
        <time>2018-09-15T18:02:12Z</time>
      </trkpt>
      <trkpt lat="-24.6549030" lon="-53.6901470">
        <ele>486.0</ele>
        <time>2018-09-15T18:02:13Z</time>
      </trkpt>
      <trkpt lat="-24.6548620" lon="-53.6901800">
        <ele>486.0</ele>
        <time>2018-09-15T18:02:15Z</time>
      </trkpt>
      <trkpt lat="-24.6548410" lon="-53.6901970">
        <ele>486.0</ele>
        <time>2018-09-15T18:02:16Z</time>
      </trkpt>
      <trkpt lat="-24.6548190" lon="-53.6902130">
        <ele>486.0</ele>
        <time>2018-09-15T18:02:17Z</time>
      </trkpt>
      <trkpt lat="-24.6547920" lon="-53.6902300">
        <ele>486.3</ele>
        <time>2018-09-15T18:02:18Z</time>
      </trkpt>
      <trkpt lat="-24.6547630" lon="-53.6902450">
        <ele>486.5</ele>
        <time>2018-09-15T18:02:19Z</time>
      </trkpt>
      <trkpt lat="-24.6547330" lon="-53.6902570">
        <ele>486.8</ele>
        <time>2018-09-15T18:02:20Z</time>
      </trkpt>
      <trkpt lat="-24.6547000" lon="-53.6902620">
        <ele>487.0</ele>
        <time>2018-09-15T18:02:21Z</time>
      </trkpt>
      <trkpt lat="-24.6546670" lon="-53.6902640">
        <ele>487.3</ele>
        <time>2018-09-15T18:02:22Z</time>
      </trkpt>
      <trkpt lat="-24.6546350" lon="-53.6902640">
        <ele>487.5</ele>
        <time>2018-09-15T18:02:23Z</time>
      </trkpt>
      <trkpt lat="-24.6546030" lon="-53.6902620">
        <ele>487.7</ele>
        <time>2018-09-15T18:02:24Z</time>
      </trkpt>
      <trkpt lat="-24.6545720" lon="-53.6902590">
        <ele>487.9</ele>
        <time>2018-09-15T18:02:25Z</time>
      </trkpt>
      <trkpt lat="-24.6545410" lon="-53.6902550">
        <ele>488.0</ele>
        <time>2018-09-15T18:02:26Z</time>
      </trkpt>
      <trkpt lat="-24.6545130" lon="-53.6902530">
        <ele>488.2</ele>
        <time>2018-09-15T18:02:27Z</time>
      </trkpt>
      <trkpt lat="-24.6544870" lon="-53.6902520">
        <ele>488.3</ele>
        <time>2018-09-15T18:02:28Z</time>
      </trkpt>
      <trkpt lat="-24.6544620" lon="-53.6902470">
        <ele>488.5</ele>
        <time>2018-09-15T18:02:29Z</time>
      </trkpt>
      <trkpt lat="-24.6544370" lon="-53.6902410">
        <ele>488.6</ele>
        <time>2018-09-15T18:02:30Z</time>
      </trkpt>
      <trkpt lat="-24.6544110" lon="-53.6902340">
        <ele>488.7</ele>
        <time>2018-09-15T18:02:31Z</time>
      </trkpt>
      <trkpt lat="-24.6543860" lon="-53.6902280">
        <ele>488.9</ele>
        <time>2018-09-15T18:02:32Z</time>
      </trkpt>
      <trkpt lat="-24.6543620" lon="-53.6902230">
        <ele>489.0</ele>
        <time>2018-09-15T18:02:33Z</time>
      </trkpt>
      <trkpt lat="-24.6543170" lon="-53.6902130">
        <ele>489.3</ele>
        <time>2018-09-15T18:02:35Z</time>
      </trkpt>
      <trkpt lat="-24.6542950" lon="-53.6902080">
        <ele>489.4</ele>
        <time>2018-09-15T18:02:36Z</time>
      </trkpt>
      <trkpt lat="-24.6542740" lon="-53.6902040">
        <ele>489.6</ele>
        <time>2018-09-15T18:02:37Z</time>
      </trkpt>
      <trkpt lat="-24.6542520" lon="-53.6902000">
        <ele>489.9</ele>
        <time>2018-09-15T18:02:38Z</time>
      </trkpt>
      <trkpt lat="-24.6542300" lon="-53.6901950">
        <ele>490.1</ele>
        <time>2018-09-15T18:02:39Z</time>
      </trkpt>
      <trkpt lat="-24.6542080" lon="-53.6901920">
        <ele>490.2</ele>
        <time>2018-09-15T18:02:40Z</time>
      </trkpt>
      <trkpt lat="-24.6541870" lon="-53.6901880">
        <ele>490.4</ele>
        <time>2018-09-15T18:02:41Z</time>
      </trkpt>
      <trkpt lat="-24.6541650" lon="-53.6901850">
        <ele>490.5</ele>
        <time>2018-09-15T18:02:42Z</time>
      </trkpt>
      <trkpt lat="-24.6541410" lon="-53.6901820">
        <ele>490.7</ele>
        <time>2018-09-15T18:02:43Z</time>
      </trkpt>
      <trkpt lat="-24.6541190" lon="-53.6901770">
        <ele>490.8</ele>
        <time>2018-09-15T18:02:44Z</time>
      </trkpt>
      <trkpt lat="-24.6540970" lon="-53.6901740">
        <ele>491.0</ele>
        <time>2018-09-15T18:02:45Z</time>
      </trkpt>
      <trkpt lat="-24.6540760" lon="-53.6901700">
        <ele>491.1</ele>
        <time>2018-09-15T18:02:46Z</time>
      </trkpt>
      <trkpt lat="-24.6540550" lon="-53.6901650">
        <ele>491.2</ele>
        <time>2018-09-15T18:02:47Z</time>
      </trkpt>
      <trkpt lat="-24.6540340" lon="-53.6901600">
        <ele>491.3</ele>
        <time>2018-09-15T18:02:48Z</time>
      </trkpt>
      <trkpt lat="-24.6540140" lon="-53.6901560">
        <ele>491.4</ele>
        <time>2018-09-15T18:02:49Z</time>
      </trkpt>
      <trkpt lat="-24.6539930" lon="-53.6901540">
        <ele>491.5</ele>
        <time>2018-09-15T18:02:50Z</time>
      </trkpt>
      <trkpt lat="-24.6539720" lon="-53.6901510">
        <ele>491.6</ele>
        <time>2018-09-15T18:02:51Z</time>
      </trkpt>
      <trkpt lat="-24.6539500" lon="-53.6901470">
        <ele>491.6</ele>
        <time>2018-09-15T18:02:52Z</time>
      </trkpt>
      <trkpt lat="-24.6539290" lon="-53.6901440">
        <ele>491.7</ele>
        <time>2018-09-15T18:02:53Z</time>
      </trkpt>
      <trkpt lat="-24.6539080" lon="-53.6901400">
        <ele>491.8</ele>
        <time>2018-09-15T18:02:54Z</time>
      </trkpt>
      <trkpt lat="-24.6538870" lon="-53.6901360">
        <ele>491.9</ele>
        <time>2018-09-15T18:02:55Z</time>
      </trkpt>
      <trkpt lat="-24.6538670" lon="-53.6901300">
        <ele>492.0</ele>
        <time>2018-09-15T18:02:56Z</time>
      </trkpt>
      <trkpt lat="-24.6538470" lon="-53.6901260">
        <ele>492.0</ele>
        <time>2018-09-15T18:02:57Z</time>
      </trkpt>
      <trkpt lat="-24.6538470" lon="-53.6901260">
        <ele>492.0</ele>
        <time>2018-09-15T18:02:58Z</time>
      </trkpt>
      <trkpt lat="-24.6538270" lon="-53.6901220">
        <ele>492.1</ele>
        <time>2018-09-15T18:02:59Z</time>
      </trkpt>
      <trkpt lat="-24.6538070" lon="-53.6901190">
        <ele>492.2</ele>
        <time>2018-09-15T18:03:00Z</time>
      </trkpt>
      <trkpt lat="-24.6537870" lon="-53.6901150">
        <ele>492.3</ele>
        <time>2018-09-15T18:03:01Z</time>
      </trkpt>
      <trkpt lat="-24.6537670" lon="-53.6901110">
        <ele>492.3</ele>
        <time>2018-09-15T18:03:02Z</time>
      </trkpt>
      <trkpt lat="-24.6537470" lon="-53.6901060">
        <ele>492.4</ele>
        <time>2018-09-15T18:03:03Z</time>
      </trkpt>
      <trkpt lat="-24.6537260" lon="-53.6901010">
        <ele>492.5</ele>
        <time>2018-09-15T18:03:04Z</time>
      </trkpt>
      <trkpt lat="-24.6537070" lon="-53.6900960">
        <ele>492.6</ele>
        <time>2018-09-15T18:03:05Z</time>
      </trkpt>
      <trkpt lat="-24.6536880" lon="-53.6900920">
        <ele>492.6</ele>
        <time>2018-09-15T18:03:06Z</time>
      </trkpt>
      <trkpt lat="-24.6536680" lon="-53.6900890">
        <ele>492.7</ele>
        <time>2018-09-15T18:03:07Z</time>
      </trkpt>
      <trkpt lat="-24.6536490" lon="-53.6900870">
        <ele>492.8</ele>
        <time>2018-09-15T18:03:08Z</time>
      </trkpt>
      <trkpt lat="-24.6536290" lon="-53.6900840">
        <ele>492.9</ele>
        <time>2018-09-15T18:03:09Z</time>
      </trkpt>
      <trkpt lat="-24.6536120" lon="-53.6900800">
        <ele>493.0</ele>
        <time>2018-09-15T18:03:10Z</time>
      </trkpt>
      <trkpt lat="-24.6535960" lon="-53.6900780">
        <ele>493.1</ele>
        <time>2018-09-15T18:03:11Z</time>
      </trkpt>
      <trkpt lat="-24.6535810" lon="-53.6900760">
        <ele>493.2</ele>
        <time>2018-09-15T18:03:12Z</time>
      </trkpt>
      <trkpt lat="-24.6535650" lon="-53.6900750">
        <ele>493.3</ele>
        <time>2018-09-15T18:03:13Z</time>
      </trkpt>
      <trkpt lat="-24.6535450" lon="-53.6900730">
        <ele>493.4</ele>
        <time>2018-09-15T18:03:14Z</time>
      </trkpt>
      <trkpt lat="-24.6535240" lon="-53.6900690">
        <ele>493.6</ele>
        <time>2018-09-15T18:03:15Z</time>
      </trkpt>
      <trkpt lat="-24.6534980" lon="-53.6900650">
        <ele>493.7</ele>
        <time>2018-09-15T18:03:16Z</time>
      </trkpt>
      <trkpt lat="-24.6534710" lon="-53.6900590">
        <ele>493.9</ele>
        <time>2018-09-15T18:03:17Z</time>
      </trkpt>
      <trkpt lat="-24.6534430" lon="-53.6900530">
        <ele>494.0</ele>
        <time>2018-09-15T18:03:18Z</time>
      </trkpt>
      <trkpt lat="-24.6534140" lon="-53.6900480">
        <ele>494.2</ele>
        <time>2018-09-15T18:03:19Z</time>
      </trkpt>
      <trkpt lat="-24.6533860" lon="-53.6900410">
        <ele>494.3</ele>
        <time>2018-09-15T18:03:20Z</time>
      </trkpt>
      <trkpt lat="-24.6533580" lon="-53.6900350">
        <ele>494.5</ele>
        <time>2018-09-15T18:03:21Z</time>
      </trkpt>
      <trkpt lat="-24.6533300" lon="-53.6900300">
        <ele>494.6</ele>
        <time>2018-09-15T18:03:22Z</time>
      </trkpt>
      <trkpt lat="-24.6533030" lon="-53.6900250">
        <ele>494.8</ele>
        <time>2018-09-15T18:03:23Z</time>
      </trkpt>
      <trkpt lat="-24.6532780" lon="-53.6900180">
        <ele>494.9</ele>
        <time>2018-09-15T18:03:24Z</time>
      </trkpt>
      <trkpt lat="-24.6532510" lon="-53.6900100">
        <ele>495.1</ele>
        <time>2018-09-15T18:03:25Z</time>
      </trkpt>
      <trkpt lat="-24.6532240" lon="-53.6900050">
        <ele>495.2</ele>
        <time>2018-09-15T18:03:26Z</time>
      </trkpt>
      <trkpt lat="-24.6531970" lon="-53.6900020">
        <ele>495.3</ele>
        <time>2018-09-15T18:03:27Z</time>
      </trkpt>
      <trkpt lat="-24.6531690" lon="-53.6899980">
        <ele>495.4</ele>
        <time>2018-09-15T18:03:28Z</time>
      </trkpt>
      <trkpt lat="-24.6531420" lon="-53.6899930">
        <ele>495.5</ele>
        <time>2018-09-15T18:03:29Z</time>
      </trkpt>
      <trkpt lat="-24.6531140" lon="-53.6899890">
        <ele>495.5</ele>
        <time>2018-09-15T18:03:30Z</time>
      </trkpt>
      <trkpt lat="-24.6530850" lon="-53.6899860">
        <ele>495.6</ele>
        <time>2018-09-15T18:03:31Z</time>
      </trkpt>
      <trkpt lat="-24.6530580" lon="-53.6899840">
        <ele>495.7</ele>
        <time>2018-09-15T18:03:32Z</time>
      </trkpt>
      <trkpt lat="-24.6530330" lon="-53.6899800">
        <ele>495.8</ele>
        <time>2018-09-15T18:03:33Z</time>
      </trkpt>
      <trkpt lat="-24.6530090" lon="-53.6899770">
        <ele>495.8</ele>
        <time>2018-09-15T18:03:34Z</time>
      </trkpt>
      <trkpt lat="-24.6529850" lon="-53.6899740">
        <ele>495.9</ele>
        <time>2018-09-15T18:03:35Z</time>
      </trkpt>
      <trkpt lat="-24.6529600" lon="-53.6899710">
        <ele>496.0</ele>
        <time>2018-09-15T18:03:36Z</time>
      </trkpt>
      <trkpt lat="-24.6529340" lon="-53.6899670">
        <ele>496.0</ele>
        <time>2018-09-15T18:03:37Z</time>
      </trkpt>
      <trkpt lat="-24.6529060" lon="-53.6899630">
        <ele>496.1</ele>
        <time>2018-09-15T18:03:38Z</time>
      </trkpt>
      <trkpt lat="-24.6528770" lon="-53.6899590">
        <ele>496.2</ele>
        <time>2018-09-15T18:03:39Z</time>
      </trkpt>
      <trkpt lat="-24.6528490" lon="-53.6899570">
        <ele>496.3</ele>
        <time>2018-09-15T18:03:40Z</time>
      </trkpt>
      <trkpt lat="-24.6528220" lon="-53.6899530">
        <ele>496.4</ele>
        <time>2018-09-15T18:03:41Z</time>
      </trkpt>
      <trkpt lat="-24.6527950" lon="-53.6899500">
        <ele>496.5</ele>
        <time>2018-09-15T18:03:42Z</time>
      </trkpt>
      <trkpt lat="-24.6527690" lon="-53.6899490">
        <ele>496.6</ele>
        <time>2018-09-15T18:03:43Z</time>
      </trkpt>
      <trkpt lat="-24.6527430" lon="-53.6899460">
        <ele>496.7</ele>
        <time>2018-09-15T18:03:44Z</time>
      </trkpt>
      <trkpt lat="-24.6527190" lon="-53.6899440">
        <ele>496.8</ele>
        <time>2018-09-15T18:03:45Z</time>
      </trkpt>
      <trkpt lat="-24.6526950" lon="-53.6899420">
        <ele>496.9</ele>
        <time>2018-09-15T18:03:46Z</time>
      </trkpt>
      <trkpt lat="-24.6526700" lon="-53.6899410">
        <ele>497.0</ele>
        <time>2018-09-15T18:03:47Z</time>
      </trkpt>
      <trkpt lat="-24.6526450" lon="-53.6899400">
        <ele>497.2</ele>
        <time>2018-09-15T18:03:48Z</time>
      </trkpt>
      <trkpt lat="-24.6526210" lon="-53.6899390">
        <ele>497.2</ele>
        <time>2018-09-15T18:03:49Z</time>
      </trkpt>
      <trkpt lat="-24.6525970" lon="-53.6899370">
        <ele>497.3</ele>
        <time>2018-09-15T18:03:50Z</time>
      </trkpt>
      <trkpt lat="-24.6525740" lon="-53.6899360">
        <ele>497.3</ele>
        <time>2018-09-15T18:03:51Z</time>
      </trkpt>
      <trkpt lat="-24.6525510" lon="-53.6899360">
        <ele>497.3</ele>
        <time>2018-09-15T18:03:52Z</time>
      </trkpt>
      <trkpt lat="-24.6525290" lon="-53.6899370">
        <ele>497.4</ele>
        <time>2018-09-15T18:03:53Z</time>
      </trkpt>
      <trkpt lat="-24.6525090" lon="-53.6899370">
        <ele>497.4</ele>
        <time>2018-09-15T18:03:54Z</time>
      </trkpt>
      <trkpt lat="-24.6524890" lon="-53.6899370">
        <ele>497.5</ele>
        <time>2018-09-15T18:03:55Z</time>
      </trkpt>
      <trkpt lat="-24.6524690" lon="-53.6899370">
        <ele>497.5</ele>
        <time>2018-09-15T18:03:56Z</time>
      </trkpt>
      <trkpt lat="-24.6524500" lon="-53.6899480">
        <ele>497.5</ele>
        <time>2018-09-15T18:03:57Z</time>
      </trkpt>
      <trkpt lat="-24.6524270" lon="-53.6899530">
        <ele>497.6</ele>
        <time>2018-09-15T18:03:58Z</time>
      </trkpt>
      <trkpt lat="-24.6524040" lon="-53.6899540">
        <ele>497.6</ele>
        <time>2018-09-15T18:03:59Z</time>
      </trkpt>
      <trkpt lat="-24.6523790" lon="-53.6899560">
        <ele>497.7</ele>
        <time>2018-09-15T18:04:00Z</time>
      </trkpt>
      <trkpt lat="-24.6523560" lon="-53.6899570">
        <ele>497.7</ele>
        <time>2018-09-15T18:04:01Z</time>
      </trkpt>
      <trkpt lat="-24.6523330" lon="-53.6899590">
        <ele>497.7</ele>
        <time>2018-09-15T18:04:02Z</time>
      </trkpt>
      <trkpt lat="-24.6523110" lon="-53.6899640">
        <ele>497.8</ele>
        <time>2018-09-15T18:04:03Z</time>
      </trkpt>
      <trkpt lat="-24.6522890" lon="-53.6899670">
        <ele>497.8</ele>
        <time>2018-09-15T18:04:04Z</time>
      </trkpt>
      <trkpt lat="-24.6522660" lon="-53.6899710">
        <ele>497.9</ele>
        <time>2018-09-15T18:04:05Z</time>
      </trkpt>
      <trkpt lat="-24.6522420" lon="-53.6899730">
        <ele>497.9</ele>
        <time>2018-09-15T18:04:06Z</time>
      </trkpt>
      <trkpt lat="-24.6522170" lon="-53.6899780">
        <ele>497.9</ele>
        <time>2018-09-15T18:04:07Z</time>
      </trkpt>
      <trkpt lat="-24.6521910" lon="-53.6899820">
        <ele>498.0</ele>
        <time>2018-09-15T18:04:08Z</time>
      </trkpt>
      <trkpt lat="-24.6521640" lon="-53.6899860">
        <ele>498.0</ele>
        <time>2018-09-15T18:04:09Z</time>
      </trkpt>
      <trkpt lat="-24.6521380" lon="-53.6899920">
        <ele>498.1</ele>
        <time>2018-09-15T18:04:10Z</time>
      </trkpt>
      <trkpt lat="-24.6521110" lon="-53.6899970">
        <ele>498.1</ele>
        <time>2018-09-15T18:04:11Z</time>
      </trkpt>
      <trkpt lat="-24.6520840" lon="-53.6900010">
        <ele>498.2</ele>
        <time>2018-09-15T18:04:12Z</time>
      </trkpt>
      <trkpt lat="-24.6520580" lon="-53.6900060">
        <ele>498.2</ele>
        <time>2018-09-15T18:04:13Z</time>
      </trkpt>
      <trkpt lat="-24.6520320" lon="-53.6900110">
        <ele>498.3</ele>
        <time>2018-09-15T18:04:14Z</time>
      </trkpt>
      <trkpt lat="-24.6520050" lon="-53.6900150">
        <ele>498.3</ele>
        <time>2018-09-15T18:04:15Z</time>
      </trkpt>
      <trkpt lat="-24.6519790" lon="-53.6900190">
        <ele>498.4</ele>
        <time>2018-09-15T18:04:16Z</time>
      </trkpt>
      <trkpt lat="-24.6519530" lon="-53.6900240">
        <ele>498.4</ele>
        <time>2018-09-15T18:04:17Z</time>
      </trkpt>
      <trkpt lat="-24.6519260" lon="-53.6900310">
        <ele>498.4</ele>
        <time>2018-09-15T18:04:18Z</time>
      </trkpt>
      <trkpt lat="-24.6519000" lon="-53.6900360">
        <ele>498.5</ele>
        <time>2018-09-15T18:04:19Z</time>
      </trkpt>
      <trkpt lat="-24.6518710" lon="-53.6900420">
        <ele>498.5</ele>
        <time>2018-09-15T18:04:20Z</time>
      </trkpt>
      <trkpt lat="-24.6518420" lon="-53.6900490">
        <ele>498.6</ele>
        <time>2018-09-15T18:04:21Z</time>
      </trkpt>
      <trkpt lat="-24.6518140" lon="-53.6900550">
        <ele>498.6</ele>
        <time>2018-09-15T18:04:22Z</time>
      </trkpt>
      <trkpt lat="-24.6517860" lon="-53.6900610">
        <ele>498.7</ele>
        <time>2018-09-15T18:04:23Z</time>
      </trkpt>
      <trkpt lat="-24.6517610" lon="-53.6900670">
        <ele>498.7</ele>
        <time>2018-09-15T18:04:24Z</time>
      </trkpt>
      <trkpt lat="-24.6517370" lon="-53.6900700">
        <ele>498.8</ele>
        <time>2018-09-15T18:04:25Z</time>
      </trkpt>
      <trkpt lat="-24.6517140" lon="-53.6900740">
        <ele>498.8</ele>
        <time>2018-09-15T18:04:26Z</time>
      </trkpt>
      <trkpt lat="-24.6516910" lon="-53.6900810">
        <ele>498.9</ele>
        <time>2018-09-15T18:04:27Z</time>
      </trkpt>
      <trkpt lat="-24.6516690" lon="-53.6900860">
        <ele>499.0</ele>
        <time>2018-09-15T18:04:28Z</time>
      </trkpt>
      <trkpt lat="-24.6516440" lon="-53.6900910">
        <ele>499.0</ele>
        <time>2018-09-15T18:04:29Z</time>
      </trkpt>
      <trkpt lat="-24.6516160" lon="-53.6900970">
        <ele>499.1</ele>
        <time>2018-09-15T18:04:30Z</time>
      </trkpt>
      <trkpt lat="-24.6515850" lon="-53.6901030">
        <ele>499.2</ele>
        <time>2018-09-15T18:04:31Z</time>
      </trkpt>
      <trkpt lat="-24.6515520" lon="-53.6901110">
        <ele>499.3</ele>
        <time>2018-09-15T18:04:32Z</time>
      </trkpt>
      <trkpt lat="-24.6515180" lon="-53.6901180">
        <ele>499.4</ele>
        <time>2018-09-15T18:04:33Z</time>
      </trkpt>
      <trkpt lat="-24.6514840" lon="-53.6901250">
        <ele>499.5</ele>
        <time>2018-09-15T18:04:34Z</time>
      </trkpt>
      <trkpt lat="-24.6514520" lon="-53.6901320">
        <ele>499.7</ele>
        <time>2018-09-15T18:04:35Z</time>
      </trkpt>
      <trkpt lat="-24.6514190" lon="-53.6901390">
        <ele>499.8</ele>
        <time>2018-09-15T18:04:36Z</time>
      </trkpt>
      <trkpt lat="-24.6513880" lon="-53.6901460">
        <ele>499.9</ele>
        <time>2018-09-15T18:04:37Z</time>
      </trkpt>
      <trkpt lat="-24.6513580" lon="-53.6901540">
        <ele>500.0</ele>
        <time>2018-09-15T18:04:38Z</time>
      </trkpt>
      <trkpt lat="-24.6513280" lon="-53.6901600">
        <ele>500.2</ele>
        <time>2018-09-15T18:04:39Z</time>
      </trkpt>
      <trkpt lat="-24.6512980" lon="-53.6901670">
        <ele>500.3</ele>
        <time>2018-09-15T18:04:40Z</time>
      </trkpt>
      <trkpt lat="-24.6512700" lon="-53.6901750">
        <ele>500.4</ele>
        <time>2018-09-15T18:04:41Z</time>
      </trkpt>
      <trkpt lat="-24.6512420" lon="-53.6901810">
        <ele>500.6</ele>
        <time>2018-09-15T18:04:42Z</time>
      </trkpt>
      <trkpt lat="-24.6512140" lon="-53.6901880">
        <ele>500.8</ele>
        <time>2018-09-15T18:04:43Z</time>
      </trkpt>
      <trkpt lat="-24.6511870" lon="-53.6901950">
        <ele>501.0</ele>
        <time>2018-09-15T18:04:44Z</time>
      </trkpt>
      <trkpt lat="-24.6511600" lon="-53.6902030">
        <ele>501.2</ele>
        <time>2018-09-15T18:04:45Z</time>
      </trkpt>
      <trkpt lat="-24.6511340" lon="-53.6902100">
        <ele>501.3</ele>
        <time>2018-09-15T18:04:46Z</time>
      </trkpt>
      <trkpt lat="-24.6511070" lon="-53.6902160">
        <ele>501.5</ele>
        <time>2018-09-15T18:04:47Z</time>
      </trkpt>
      <trkpt lat="-24.6510820" lon="-53.6902230">
        <ele>501.6</ele>
        <time>2018-09-15T18:04:48Z</time>
      </trkpt>
      <trkpt lat="-24.6510590" lon="-53.6902310">
        <ele>501.7</ele>
        <time>2018-09-15T18:04:49Z</time>
      </trkpt>
      <trkpt lat="-24.6510360" lon="-53.6902410">
        <ele>501.9</ele>
        <time>2018-09-15T18:04:50Z</time>
      </trkpt>
      <trkpt lat="-24.6510110" lon="-53.6902520">
        <ele>502.0</ele>
        <time>2018-09-15T18:04:51Z</time>
      </trkpt>
      <trkpt lat="-24.6509850" lon="-53.6902610">
        <ele>502.1</ele>
        <time>2018-09-15T18:04:52Z</time>
      </trkpt>
      <trkpt lat="-24.6509590" lon="-53.6902720">
        <ele>502.3</ele>
        <time>2018-09-15T18:04:53Z</time>
      </trkpt>
      <trkpt lat="-24.6509320" lon="-53.6902830">
        <ele>502.5</ele>
        <time>2018-09-15T18:04:54Z</time>
      </trkpt>
      <trkpt lat="-24.6509070" lon="-53.6902950">
        <ele>502.8</ele>
        <time>2018-09-15T18:04:55Z</time>
      </trkpt>
      <trkpt lat="-24.6508820" lon="-53.6903070">
        <ele>503.1</ele>
        <time>2018-09-15T18:04:56Z</time>
      </trkpt>
      <trkpt lat="-24.6508570" lon="-53.6903200">
        <ele>503.4</ele>
        <time>2018-09-15T18:04:57Z</time>
      </trkpt>
      <trkpt lat="-24.6508330" lon="-53.6903340">
        <ele>503.6</ele>
        <time>2018-09-15T18:04:58Z</time>
      </trkpt>
      <trkpt lat="-24.6508100" lon="-53.6903480">
        <ele>503.9</ele>
        <time>2018-09-15T18:04:59Z</time>
      </trkpt>
      <trkpt lat="-24.6507870" lon="-53.6903620">
        <ele>504.1</ele>
        <time>2018-09-15T18:05:00Z</time>
      </trkpt>
      <trkpt lat="-24.6507660" lon="-53.6903760">
        <ele>504.3</ele>
        <time>2018-09-15T18:05:01Z</time>
      </trkpt>
      <trkpt lat="-24.6507450" lon="-53.6903930">
        <ele>504.4</ele>
        <time>2018-09-15T18:05:02Z</time>
      </trkpt>
      <trkpt lat="-24.6507250" lon="-53.6904090">
        <ele>504.6</ele>
        <time>2018-09-15T18:05:03Z</time>
      </trkpt>
      <trkpt lat="-24.6507060" lon="-53.6904270">
        <ele>504.8</ele>
        <time>2018-09-15T18:05:04Z</time>
      </trkpt>
      <trkpt lat="-24.6506880" lon="-53.6904460">
        <ele>505.0</ele>
        <time>2018-09-15T18:05:05Z</time>
      </trkpt>
      <trkpt lat="-24.6506720" lon="-53.6904630">
        <ele>505.3</ele>
        <time>2018-09-15T18:05:06Z</time>
      </trkpt>
      <trkpt lat="-24.6506580" lon="-53.6904830">
        <ele>505.5</ele>
        <time>2018-09-15T18:05:07Z</time>
      </trkpt>
      <trkpt lat="-24.6506420" lon="-53.6905020">
        <ele>505.6</ele>
        <time>2018-09-15T18:05:08Z</time>
      </trkpt>
      <trkpt lat="-24.6506280" lon="-53.6905230">
        <ele>505.7</ele>
        <time>2018-09-15T18:05:09Z</time>
      </trkpt>
      <trkpt lat="-24.6506140" lon="-53.6905450">
        <ele>505.8</ele>
        <time>2018-09-15T18:05:10Z</time>
      </trkpt>
      <trkpt lat="-24.6506010" lon="-53.6905680">
        <ele>505.9</ele>
        <time>2018-09-15T18:05:11Z</time>
      </trkpt>
      <trkpt lat="-24.6505870" lon="-53.6905910">
        <ele>506.0</ele>
        <time>2018-09-15T18:05:12Z</time>
      </trkpt>
      <trkpt lat="-24.6505720" lon="-53.6906120">
        <ele>506.1</ele>
        <time>2018-09-15T18:05:13Z</time>
      </trkpt>
      <trkpt lat="-24.6505560" lon="-53.6906320">
        <ele>506.2</ele>
        <time>2018-09-15T18:05:14Z</time>
      </trkpt>
      <trkpt lat="-24.6505390" lon="-53.6906500">
        <ele>506.3</ele>
        <time>2018-09-15T18:05:15Z</time>
      </trkpt>
      <trkpt lat="-24.6505240" lon="-53.6906690">
        <ele>506.4</ele>
        <time>2018-09-15T18:05:16Z</time>
      </trkpt>
      <trkpt lat="-24.6505120" lon="-53.6906900">
        <ele>506.5</ele>
        <time>2018-09-15T18:05:17Z</time>
      </trkpt>
      <trkpt lat="-24.6505010" lon="-53.6907130">
        <ele>506.5</ele>
        <time>2018-09-15T18:05:18Z</time>
      </trkpt>
      <trkpt lat="-24.6504910" lon="-53.6907370">
        <ele>506.6</ele>
        <time>2018-09-15T18:05:19Z</time>
      </trkpt>
      <trkpt lat="-24.6504810" lon="-53.6907600">
        <ele>506.7</ele>
        <time>2018-09-15T18:05:20Z</time>
      </trkpt>
      <trkpt lat="-24.6504710" lon="-53.6907830">
        <ele>506.8</ele>
        <time>2018-09-15T18:05:21Z</time>
      </trkpt>
      <trkpt lat="-24.6504630" lon="-53.6908050">
        <ele>506.8</ele>
        <time>2018-09-15T18:05:22Z</time>
      </trkpt>
      <trkpt lat="-24.6504550" lon="-53.6908270">
        <ele>506.9</ele>
        <time>2018-09-15T18:05:23Z</time>
      </trkpt>
      <trkpt lat="-24.6504480" lon="-53.6908470">
        <ele>507.0</ele>
        <time>2018-09-15T18:05:24Z</time>
      </trkpt>
      <trkpt lat="-24.6504420" lon="-53.6908680">
        <ele>507.0</ele>
        <time>2018-09-15T18:05:25Z</time>
      </trkpt>
      <trkpt lat="-24.6504350" lon="-53.6908870">
        <ele>507.1</ele>
        <time>2018-09-15T18:05:26Z</time>
      </trkpt>
      <trkpt lat="-24.6504300" lon="-53.6909070">
        <ele>507.1</ele>
        <time>2018-09-15T18:05:27Z</time>
      </trkpt>
      <trkpt lat="-24.6504240" lon="-53.6909250">
        <ele>507.2</ele>
        <time>2018-09-15T18:05:28Z</time>
      </trkpt>
      <trkpt lat="-24.6504190" lon="-53.6909420">
        <ele>507.3</ele>
        <time>2018-09-15T18:05:29Z</time>
      </trkpt>
      <trkpt lat="-24.6504150" lon="-53.6909570">
        <ele>507.3</ele>
        <time>2018-09-15T18:05:30Z</time>
      </trkpt>
      <trkpt lat="-24.6504110" lon="-53.6909740">
        <ele>507.4</ele>
        <time>2018-09-15T18:05:31Z</time>
      </trkpt>
      <trkpt lat="-24.6504070" lon="-53.6909930">
        <ele>507.4</ele>
        <time>2018-09-15T18:05:32Z</time>
      </trkpt>
      <trkpt lat="-24.6504020" lon="-53.6910130">
        <ele>507.4</ele>
        <time>2018-09-15T18:05:33Z</time>
      </trkpt>
      <trkpt lat="-24.6503980" lon="-53.6910340">
        <ele>507.4</ele>
        <time>2018-09-15T18:05:34Z</time>
      </trkpt>
      <trkpt lat="-24.6503950" lon="-53.6910570">
        <ele>507.5</ele>
        <time>2018-09-15T18:05:35Z</time>
      </trkpt>
      <trkpt lat="-24.6503900" lon="-53.6910820">
        <ele>507.5</ele>
        <time>2018-09-15T18:05:36Z</time>
      </trkpt>
      <trkpt lat="-24.6503860" lon="-53.6911090">
        <ele>507.5</ele>
        <time>2018-09-15T18:05:37Z</time>
      </trkpt>
      <trkpt lat="-24.6503820" lon="-53.6911380">
        <ele>507.6</ele>
        <time>2018-09-15T18:05:38Z</time>
      </trkpt>
      <trkpt lat="-24.6503770" lon="-53.6911670">
        <ele>507.6</ele>
        <time>2018-09-15T18:05:39Z</time>
      </trkpt>
      <trkpt lat="-24.6503710" lon="-53.6911950">
        <ele>507.7</ele>
        <time>2018-09-15T18:05:40Z</time>
      </trkpt>
      <trkpt lat="-24.6503650" lon="-53.6912240">
        <ele>507.7</ele>
        <time>2018-09-15T18:05:41Z</time>
      </trkpt>
      <trkpt lat="-24.6503580" lon="-53.6912520">
        <ele>507.7</ele>
        <time>2018-09-15T18:05:42Z</time>
      </trkpt>
      <trkpt lat="-24.6503520" lon="-53.6912810">
        <ele>507.8</ele>
        <time>2018-09-15T18:05:43Z</time>
      </trkpt>
      <trkpt lat="-24.6503470" lon="-53.6913090">
        <ele>507.8</ele>
        <time>2018-09-15T18:05:44Z</time>
      </trkpt>
      <trkpt lat="-24.6503410" lon="-53.6913380">
        <ele>507.9</ele>
        <time>2018-09-15T18:05:45Z</time>
      </trkpt>
      <trkpt lat="-24.6503360" lon="-53.6913680">
        <ele>507.9</ele>
        <time>2018-09-15T18:05:46Z</time>
      </trkpt>
      <trkpt lat="-24.6503290" lon="-53.6913990">
        <ele>507.9</ele>
        <time>2018-09-15T18:05:47Z</time>
      </trkpt>
      <trkpt lat="-24.6503220" lon="-53.6914290">
        <ele>508.0</ele>
        <time>2018-09-15T18:05:48Z</time>
      </trkpt>
      <trkpt lat="-24.6503160" lon="-53.6914590">
        <ele>508.1</ele>
        <time>2018-09-15T18:05:49Z</time>
      </trkpt>
      <trkpt lat="-24.6503110" lon="-53.6914900">
        <ele>508.2</ele>
        <time>2018-09-15T18:05:50Z</time>
      </trkpt>
      <trkpt lat="-24.6503040" lon="-53.6915200">
        <ele>508.2</ele>
        <time>2018-09-15T18:05:51Z</time>
      </trkpt>
      <trkpt lat="-24.6502970" lon="-53.6915500">
        <ele>508.3</ele>
        <time>2018-09-15T18:05:52Z</time>
      </trkpt>
      <trkpt lat="-24.6502870" lon="-53.6915790">
        <ele>508.3</ele>
        <time>2018-09-15T18:05:53Z</time>
      </trkpt>
      <trkpt lat="-24.6502780" lon="-53.6916090">
        <ele>508.4</ele>
        <time>2018-09-15T18:05:54Z</time>
      </trkpt>
      <trkpt lat="-24.6502600" lon="-53.6916670">
        <ele>508.4</ele>
        <time>2018-09-15T18:05:55Z</time>
      </trkpt>
      <trkpt lat="-24.6502480" lon="-53.6916950">
        <ele>508.5</ele>
        <time>2018-09-15T18:05:56Z</time>
      </trkpt>
      <trkpt lat="-24.6502380" lon="-53.6917220">
        <ele>508.5</ele>
        <time>2018-09-15T18:05:57Z</time>
      </trkpt>
      <trkpt lat="-24.6502280" lon="-53.6917500">
        <ele>508.6</ele>
        <time>2018-09-15T18:05:58Z</time>
      </trkpt>
      <trkpt lat="-24.6502170" lon="-53.6917780">
        <ele>508.6</ele>
        <time>2018-09-15T18:05:59Z</time>
      </trkpt>
      <trkpt lat="-24.6502060" lon="-53.6918060">
        <ele>508.7</ele>
        <time>2018-09-15T18:06:00Z</time>
      </trkpt>
      <trkpt lat="-24.6501930" lon="-53.6918340">
        <ele>508.7</ele>
        <time>2018-09-15T18:06:01Z</time>
      </trkpt>
      <trkpt lat="-24.6501810" lon="-53.6918620">
        <ele>508.7</ele>
        <time>2018-09-15T18:06:02Z</time>
      </trkpt>
      <trkpt lat="-24.6501690" lon="-53.6918900">
        <ele>508.8</ele>
        <time>2018-09-15T18:06:03Z</time>
      </trkpt>
      <trkpt lat="-24.6501570" lon="-53.6919180">
        <ele>508.8</ele>
        <time>2018-09-15T18:06:04Z</time>
      </trkpt>
      <trkpt lat="-24.6501460" lon="-53.6919450">
        <ele>508.9</ele>
        <time>2018-09-15T18:06:05Z</time>
      </trkpt>
      <trkpt lat="-24.6501350" lon="-53.6919720">
        <ele>508.9</ele>
        <time>2018-09-15T18:06:06Z</time>
      </trkpt>
      <trkpt lat="-24.6501240" lon="-53.6919970">
        <ele>509.0</ele>
        <time>2018-09-15T18:06:07Z</time>
      </trkpt>
      <trkpt lat="-24.6501140" lon="-53.6920230">
        <ele>509.0</ele>
        <time>2018-09-15T18:06:08Z</time>
      </trkpt>
      <trkpt lat="-24.6501030" lon="-53.6920490">
        <ele>509.0</ele>
        <time>2018-09-15T18:06:09Z</time>
      </trkpt>
      <trkpt lat="-24.6500860" lon="-53.6921030">
        <ele>509.1</ele>
        <time>2018-09-15T18:06:11Z</time>
      </trkpt>
      <trkpt lat="-24.6500790" lon="-53.6921310">
        <ele>509.1</ele>
        <time>2018-09-15T18:06:12Z</time>
      </trkpt>
      <trkpt lat="-24.6500710" lon="-53.6921590">
        <ele>509.1</ele>
        <time>2018-09-15T18:06:13Z</time>
      </trkpt>
      <trkpt lat="-24.6500600" lon="-53.6921870">
        <ele>509.1</ele>
        <time>2018-09-15T18:06:14Z</time>
      </trkpt>
      <trkpt lat="-24.6500470" lon="-53.6922150">
        <ele>509.1</ele>
        <time>2018-09-15T18:06:15Z</time>
      </trkpt>
      <trkpt lat="-24.6500330" lon="-53.6922450">
        <ele>509.1</ele>
        <time>2018-09-15T18:06:16Z</time>
      </trkpt>
      <trkpt lat="-24.6500200" lon="-53.6922750">
        <ele>509.1</ele>
        <time>2018-09-15T18:06:17Z</time>
      </trkpt>
      <trkpt lat="-24.6500070" lon="-53.6923070">
        <ele>509.1</ele>
        <time>2018-09-15T18:06:18Z</time>
      </trkpt>
      <trkpt lat="-24.6499950" lon="-53.6923400">
        <ele>509.1</ele>
        <time>2018-09-15T18:06:19Z</time>
      </trkpt>
      <trkpt lat="-24.6499850" lon="-53.6923740">
        <ele>509.1</ele>
        <time>2018-09-15T18:06:20Z</time>
      </trkpt>
      <trkpt lat="-24.6499750" lon="-53.6924090">
        <ele>509.1</ele>
        <time>2018-09-15T18:06:21Z</time>
      </trkpt>
      <trkpt lat="-24.6499650" lon="-53.6924450">
        <ele>509.1</ele>
        <time>2018-09-15T18:06:22Z</time>
      </trkpt>
      <trkpt lat="-24.6499560" lon="-53.6924810">
        <ele>509.1</ele>
        <time>2018-09-15T18:06:23Z</time>
      </trkpt>
      <trkpt lat="-24.6499450" lon="-53.6925170">
        <ele>509.1</ele>
        <time>2018-09-15T18:06:24Z</time>
      </trkpt>
      <trkpt lat="-24.6499300" lon="-53.6925520">
        <ele>509.1</ele>
        <time>2018-09-15T18:06:25Z</time>
      </trkpt>
      <trkpt lat="-24.6499130" lon="-53.6925840">
        <ele>509.1</ele>
        <time>2018-09-15T18:06:26Z</time>
      </trkpt>
      <trkpt lat="-24.6498950" lon="-53.6926160">
        <ele>509.1</ele>
        <time>2018-09-15T18:06:27Z</time>
      </trkpt>
      <trkpt lat="-24.6498770" lon="-53.6926480">
        <ele>509.1</ele>
        <time>2018-09-15T18:06:28Z</time>
      </trkpt>
      <trkpt lat="-24.6498590" lon="-53.6926800">
        <ele>509.1</ele>
        <time>2018-09-15T18:06:29Z</time>
      </trkpt>
      <trkpt lat="-24.6498410" lon="-53.6927140">
        <ele>509.1</ele>
        <time>2018-09-15T18:06:30Z</time>
      </trkpt>
      <trkpt lat="-24.6498220" lon="-53.6927500">
        <ele>509.1</ele>
        <time>2018-09-15T18:06:31Z</time>
      </trkpt>
      <trkpt lat="-24.6498030" lon="-53.6927870">
        <ele>509.0</ele>
        <time>2018-09-15T18:06:32Z</time>
      </trkpt>
      <trkpt lat="-24.6497830" lon="-53.6928240">
        <ele>509.0</ele>
        <time>2018-09-15T18:06:33Z</time>
      </trkpt>
      <trkpt lat="-24.6497610" lon="-53.6928600">
        <ele>509.0</ele>
        <time>2018-09-15T18:06:34Z</time>
      </trkpt>
      <trkpt lat="-24.6497370" lon="-53.6928950">
        <ele>509.0</ele>
        <time>2018-09-15T18:06:35Z</time>
      </trkpt>
      <trkpt lat="-24.6497120" lon="-53.6929300">
        <ele>509.0</ele>
        <time>2018-09-15T18:06:36Z</time>
      </trkpt>
      <trkpt lat="-24.6496860" lon="-53.6929650">
        <ele>508.9</ele>
        <time>2018-09-15T18:06:37Z</time>
      </trkpt>
      <trkpt lat="-24.6496610" lon="-53.6930010">
        <ele>508.9</ele>
        <time>2018-09-15T18:06:38Z</time>
      </trkpt>
      <trkpt lat="-24.6496370" lon="-53.6930380">
        <ele>508.9</ele>
        <time>2018-09-15T18:06:39Z</time>
      </trkpt>
      <trkpt lat="-24.6496140" lon="-53.6930760">
        <ele>508.9</ele>
        <time>2018-09-15T18:06:40Z</time>
      </trkpt>
      <trkpt lat="-24.6495890" lon="-53.6931130">
        <ele>508.9</ele>
        <time>2018-09-15T18:06:41Z</time>
      </trkpt>
      <trkpt lat="-24.6495890" lon="-53.6931130">
        <ele>508.9</ele>
        <time>2018-09-15T18:06:42Z</time>
      </trkpt>
      <trkpt lat="-24.6495640" lon="-53.6931480">
        <ele>508.9</ele>
        <time>2018-09-15T18:06:43Z</time>
      </trkpt>
      <trkpt lat="-24.6495390" lon="-53.6931830">
        <ele>508.9</ele>
        <time>2018-09-15T18:06:44Z</time>
      </trkpt>
      <trkpt lat="-24.6495140" lon="-53.6932180">
        <ele>508.8</ele>
        <time>2018-09-15T18:06:45Z</time>
      </trkpt>
      <trkpt lat="-24.6494910" lon="-53.6932540">
        <ele>508.8</ele>
        <time>2018-09-15T18:06:46Z</time>
      </trkpt>
      <trkpt lat="-24.6494680" lon="-53.6932890">
        <ele>508.7</ele>
        <time>2018-09-15T18:06:47Z</time>
      </trkpt>
      <trkpt lat="-24.6494470" lon="-53.6933250">
        <ele>508.6</ele>
        <time>2018-09-15T18:06:48Z</time>
      </trkpt>
      <trkpt lat="-24.6494260" lon="-53.6933590">
        <ele>508.6</ele>
        <time>2018-09-15T18:06:49Z</time>
      </trkpt>
      <trkpt lat="-24.6494060" lon="-53.6933910">
        <ele>508.5</ele>
        <time>2018-09-15T18:06:50Z</time>
      </trkpt>
      <trkpt lat="-24.6493850" lon="-53.6934210">
        <ele>508.5</ele>
        <time>2018-09-15T18:06:51Z</time>
      </trkpt>
      <trkpt lat="-24.6493650" lon="-53.6934490">
        <ele>508.4</ele>
        <time>2018-09-15T18:06:52Z</time>
      </trkpt>
      <trkpt lat="-24.6493440" lon="-53.6934800">
        <ele>508.4</ele>
        <time>2018-09-15T18:06:53Z</time>
      </trkpt>
      <trkpt lat="-24.6493190" lon="-53.6935160">
        <ele>508.3</ele>
        <time>2018-09-15T18:06:54Z</time>
      </trkpt>
      <trkpt lat="-24.6492920" lon="-53.6935550">
        <ele>508.2</ele>
        <time>2018-09-15T18:06:55Z</time>
      </trkpt>
      <trkpt lat="-24.6492640" lon="-53.6935970">
        <ele>508.1</ele>
        <time>2018-09-15T18:06:56Z</time>
      </trkpt>
      <trkpt lat="-24.6492370" lon="-53.6936400">
        <ele>508.1</ele>
        <time>2018-09-15T18:06:57Z</time>
      </trkpt>
      <trkpt lat="-24.6492120" lon="-53.6936830">
        <ele>508.0</ele>
        <time>2018-09-15T18:06:58Z</time>
      </trkpt>
      <trkpt lat="-24.6491870" lon="-53.6937230">
        <ele>507.9</ele>
        <time>2018-09-15T18:06:59Z</time>
      </trkpt>
      <trkpt lat="-24.6491610" lon="-53.6937610">
        <ele>507.8</ele>
        <time>2018-09-15T18:07:00Z</time>
      </trkpt>
      <trkpt lat="-24.6491370" lon="-53.6937950">
        <ele>507.6</ele>
        <time>2018-09-15T18:07:01Z</time>
      </trkpt>
      <trkpt lat="-24.6491150" lon="-53.6938300">
        <ele>507.5</ele>
        <time>2018-09-15T18:07:02Z</time>
      </trkpt>
      <trkpt lat="-24.6490920" lon="-53.6938680">
        <ele>507.5</ele>
        <time>2018-09-15T18:07:03Z</time>
      </trkpt>
      <trkpt lat="-24.6490640" lon="-53.6939100">
        <ele>507.4</ele>
        <time>2018-09-15T18:07:04Z</time>
      </trkpt>
      <trkpt lat="-24.6490330" lon="-53.6939550">
        <ele>507.2</ele>
        <time>2018-09-15T18:07:05Z</time>
      </trkpt>
      <trkpt lat="-24.6490010" lon="-53.6940020">
        <ele>507.1</ele>
        <time>2018-09-15T18:07:06Z</time>
      </trkpt>
      <trkpt lat="-24.6489680" lon="-53.6940490">
        <ele>507.0</ele>
        <time>2018-09-15T18:07:07Z</time>
      </trkpt>
      <trkpt lat="-24.6489350" lon="-53.6940970">
        <ele>506.9</ele>
        <time>2018-09-15T18:07:08Z</time>
      </trkpt>
      <trkpt lat="-24.6489030" lon="-53.6941440">
        <ele>506.7</ele>
        <time>2018-09-15T18:07:09Z</time>
      </trkpt>
      <trkpt lat="-24.6488710" lon="-53.6941910">
        <ele>506.6</ele>
        <time>2018-09-15T18:07:10Z</time>
      </trkpt>
      <trkpt lat="-24.6488390" lon="-53.6942370">
        <ele>506.4</ele>
        <time>2018-09-15T18:07:11Z</time>
      </trkpt>
      <trkpt lat="-24.6488080" lon="-53.6942790">
        <ele>506.2</ele>
        <time>2018-09-15T18:07:12Z</time>
      </trkpt>
      <trkpt lat="-24.6487790" lon="-53.6943160">
        <ele>506.0</ele>
        <time>2018-09-15T18:07:13Z</time>
      </trkpt>
      <trkpt lat="-24.6487490" lon="-53.6943520">
        <ele>505.8</ele>
        <time>2018-09-15T18:07:14Z</time>
      </trkpt>
      <trkpt lat="-24.6487150" lon="-53.6943940">
        <ele>505.5</ele>
        <time>2018-09-15T18:07:15Z</time>
      </trkpt>
      <trkpt lat="-24.6486740" lon="-53.6944400">
        <ele>505.2</ele>
        <time>2018-09-15T18:07:16Z</time>
      </trkpt>
      <trkpt lat="-24.6486310" lon="-53.6944900">
        <ele>504.9</ele>
        <time>2018-09-15T18:07:17Z</time>
      </trkpt>
      <trkpt lat="-24.6485900" lon="-53.6945410">
        <ele>504.6</ele>
        <time>2018-09-15T18:07:18Z</time>
      </trkpt>
      <trkpt lat="-24.6485500" lon="-53.6945930">
        <ele>504.3</ele>
        <time>2018-09-15T18:07:19Z</time>
      </trkpt>
      <trkpt lat="-24.6485110" lon="-53.6946440">
        <ele>504.0</ele>
        <time>2018-09-15T18:07:20Z</time>
      </trkpt>
      <trkpt lat="-24.6484690" lon="-53.6946980">
        <ele>503.8</ele>
        <time>2018-09-15T18:07:21Z</time>
      </trkpt>
      <trkpt lat="-24.6484260" lon="-53.6947550">
        <ele>503.6</ele>
        <time>2018-09-15T18:07:22Z</time>
      </trkpt>
      <trkpt lat="-24.6483810" lon="-53.6948120">
        <ele>503.4</ele>
        <time>2018-09-15T18:07:23Z</time>
      </trkpt>
      <trkpt lat="-24.6483370" lon="-53.6948690">
        <ele>503.2</ele>
        <time>2018-09-15T18:07:24Z</time>
      </trkpt>
      <trkpt lat="-24.6482940" lon="-53.6949260">
        <ele>502.7</ele>
        <time>2018-09-15T18:07:25Z</time>
      </trkpt>
      <trkpt lat="-24.6482540" lon="-53.6949810">
        <ele>502.4</ele>
        <time>2018-09-15T18:07:26Z</time>
      </trkpt>
      <trkpt lat="-24.6482150" lon="-53.6950350">
        <ele>502.0</ele>
        <time>2018-09-15T18:07:27Z</time>
      </trkpt>
      <trkpt lat="-24.6481730" lon="-53.6950950">
        <ele>501.5</ele>
        <time>2018-09-15T18:07:28Z</time>
      </trkpt>
      <trkpt lat="-24.6481280" lon="-53.6951610">
        <ele>501.0</ele>
        <time>2018-09-15T18:07:29Z</time>
      </trkpt>
      <trkpt lat="-24.6480840" lon="-53.6952290">
        <ele>500.6</ele>
        <time>2018-09-15T18:07:30Z</time>
      </trkpt>
      <trkpt lat="-24.6480380" lon="-53.6952990">
        <ele>500.3</ele>
        <time>2018-09-15T18:07:31Z</time>
      </trkpt>
      <trkpt lat="-24.6479910" lon="-53.6953710">
        <ele>500.0</ele>
        <time>2018-09-15T18:07:32Z</time>
      </trkpt>
      <trkpt lat="-24.6479420" lon="-53.6954430">
        <ele>499.7</ele>
        <time>2018-09-15T18:07:33Z</time>
      </trkpt>
      <trkpt lat="-24.6478930" lon="-53.6955150">
        <ele>499.5</ele>
        <time>2018-09-15T18:07:34Z</time>
      </trkpt>
      <trkpt lat="-24.6478450" lon="-53.6955870">
        <ele>499.1</ele>
        <time>2018-09-15T18:07:35Z</time>
      </trkpt>
      <trkpt lat="-24.6477970" lon="-53.6956560">
        <ele>498.8</ele>
        <time>2018-09-15T18:07:36Z</time>
      </trkpt>
      <trkpt lat="-24.6477520" lon="-53.6957250">
        <ele>498.4</ele>
        <time>2018-09-15T18:07:37Z</time>
      </trkpt>
      <trkpt lat="-24.6477070" lon="-53.6957940">
        <ele>497.8</ele>
        <time>2018-09-15T18:07:38Z</time>
      </trkpt>
      <trkpt lat="-24.6476580" lon="-53.6958670">
        <ele>497.5</ele>
        <time>2018-09-15T18:07:39Z</time>
      </trkpt>
      <trkpt lat="-24.6476080" lon="-53.6959390">
        <ele>496.9</ele>
        <time>2018-09-15T18:07:40Z</time>
      </trkpt>
      <trkpt lat="-24.6475620" lon="-53.6960050">
        <ele>496.5</ele>
        <time>2018-09-15T18:07:41Z</time>
      </trkpt>
      <trkpt lat="-24.6475150" lon="-53.6960720">
        <ele>496.0</ele>
        <time>2018-09-15T18:07:42Z</time>
      </trkpt>
      <trkpt lat="-24.6474650" lon="-53.6961390">
        <ele>495.4</ele>
        <time>2018-09-15T18:07:43Z</time>
      </trkpt>
      <trkpt lat="-24.6474180" lon="-53.6962020">
        <ele>495.1</ele>
        <time>2018-09-15T18:07:44Z</time>
      </trkpt>
      <trkpt lat="-24.6473740" lon="-53.6962610">
        <ele>494.9</ele>
        <time>2018-09-15T18:07:45Z</time>
      </trkpt>
      <trkpt lat="-24.6473320" lon="-53.6963150">
        <ele>494.6</ele>
        <time>2018-09-15T18:07:46Z</time>
      </trkpt>
      <trkpt lat="-24.6472920" lon="-53.6963660">
        <ele>494.4</ele>
        <time>2018-09-15T18:07:47Z</time>
      </trkpt>
      <trkpt lat="-24.6472560" lon="-53.6964170">
        <ele>494.0</ele>
        <time>2018-09-15T18:07:48Z</time>
      </trkpt>
      <trkpt lat="-24.6472240" lon="-53.6964660">
        <ele>493.6</ele>
        <time>2018-09-15T18:07:49Z</time>
      </trkpt>
      <trkpt lat="-24.6471880" lon="-53.6965150">
        <ele>493.3</ele>
        <time>2018-09-15T18:07:50Z</time>
      </trkpt>
      <trkpt lat="-24.6471490" lon="-53.6965690">
        <ele>492.8</ele>
        <time>2018-09-15T18:07:51Z</time>
      </trkpt>
      <trkpt lat="-24.6471090" lon="-53.6966270">
        <ele>492.4</ele>
        <time>2018-09-15T18:07:52Z</time>
      </trkpt>
      <trkpt lat="-24.6470720" lon="-53.6966820">
        <ele>492.0</ele>
        <time>2018-09-15T18:07:53Z</time>
      </trkpt>
      <trkpt lat="-24.6470370" lon="-53.6967370">
        <ele>491.6</ele>
        <time>2018-09-15T18:07:54Z</time>
      </trkpt>
      <trkpt lat="-24.6469990" lon="-53.6967930">
        <ele>490.9</ele>
        <time>2018-09-15T18:07:55Z</time>
      </trkpt>
      <trkpt lat="-24.6469600" lon="-53.6968510">
        <ele>490.6</ele>
        <time>2018-09-15T18:07:56Z</time>
      </trkpt>
      <trkpt lat="-24.6469230" lon="-53.6969100">
        <ele>490.3</ele>
        <time>2018-09-15T18:07:57Z</time>
      </trkpt>
      <trkpt lat="-24.6468870" lon="-53.6969650">
        <ele>490.0</ele>
        <time>2018-09-15T18:07:58Z</time>
      </trkpt>
      <trkpt lat="-24.6468510" lon="-53.6970150">
        <ele>489.6</ele>
        <time>2018-09-15T18:07:59Z</time>
      </trkpt>
      <trkpt lat="-24.6468170" lon="-53.6970610">
        <ele>489.3</ele>
        <time>2018-09-15T18:08:00Z</time>
      </trkpt>
      <trkpt lat="-24.6467890" lon="-53.6971020">
        <ele>489.2</ele>
        <time>2018-09-15T18:08:01Z</time>
      </trkpt>
      <trkpt lat="-24.6467590" lon="-53.6971430">
        <ele>489.0</ele>
        <time>2018-09-15T18:08:02Z</time>
      </trkpt>
      <trkpt lat="-24.6467270" lon="-53.6971860">
        <ele>488.8</ele>
        <time>2018-09-15T18:08:03Z</time>
      </trkpt>
      <trkpt lat="-24.6466930" lon="-53.6972310">
        <ele>488.5</ele>
        <time>2018-09-15T18:08:04Z</time>
      </trkpt>
      <trkpt lat="-24.6466560" lon="-53.6972770">
        <ele>488.2</ele>
        <time>2018-09-15T18:08:05Z</time>
      </trkpt>
      <trkpt lat="-24.6466170" lon="-53.6973270">
        <ele>488.0</ele>
        <time>2018-09-15T18:08:06Z</time>
      </trkpt>
      <trkpt lat="-24.6465770" lon="-53.6973770">
        <ele>487.7</ele>
        <time>2018-09-15T18:08:07Z</time>
      </trkpt>
      <trkpt lat="-24.6465420" lon="-53.6974240">
        <ele>487.2</ele>
        <time>2018-09-15T18:08:08Z</time>
      </trkpt>
      <trkpt lat="-24.6465070" lon="-53.6974740">
        <ele>486.8</ele>
        <time>2018-09-15T18:08:09Z</time>
      </trkpt>
      <trkpt lat="-24.6464670" lon="-53.6975280">
        <ele>486.3</ele>
        <time>2018-09-15T18:08:10Z</time>
      </trkpt>
      <trkpt lat="-24.6464260" lon="-53.6975820">
        <ele>486.0</ele>
        <time>2018-09-15T18:08:11Z</time>
      </trkpt>
      <trkpt lat="-24.6463830" lon="-53.6976360">
        <ele>485.7</ele>
        <time>2018-09-15T18:08:12Z</time>
      </trkpt>
      <trkpt lat="-24.6463400" lon="-53.6976910">
        <ele>485.4</ele>
        <time>2018-09-15T18:08:13Z</time>
      </trkpt>
      <trkpt lat="-24.6462980" lon="-53.6977460">
        <ele>485.1</ele>
        <time>2018-09-15T18:08:14Z</time>
      </trkpt>
      <trkpt lat="-24.6462590" lon="-53.6977970">
        <ele>484.7</ele>
        <time>2018-09-15T18:08:15Z</time>
      </trkpt>
      <trkpt lat="-24.6462220" lon="-53.6978440">
        <ele>484.3</ele>
        <time>2018-09-15T18:08:16Z</time>
      </trkpt>
      <trkpt lat="-24.6461840" lon="-53.6978920">
        <ele>483.8</ele>
        <time>2018-09-15T18:08:17Z</time>
      </trkpt>
      <trkpt lat="-24.6461420" lon="-53.6979420">
        <ele>483.4</ele>
        <time>2018-09-15T18:08:18Z</time>
      </trkpt>
      <trkpt lat="-24.6461000" lon="-53.6979920">
        <ele>483.0</ele>
        <time>2018-09-15T18:08:19Z</time>
      </trkpt>
      <trkpt lat="-24.6460590" lon="-53.6980410">
        <ele>482.5</ele>
        <time>2018-09-15T18:08:20Z</time>
      </trkpt>
      <trkpt lat="-24.6460190" lon="-53.6980900">
        <ele>482.3</ele>
        <time>2018-09-15T18:08:21Z</time>
      </trkpt>
      <trkpt lat="-24.6459800" lon="-53.6981400">
        <ele>482.0</ele>
        <time>2018-09-15T18:08:22Z</time>
      </trkpt>
      <trkpt lat="-24.6459440" lon="-53.6981900">
        <ele>481.8</ele>
        <time>2018-09-15T18:08:23Z</time>
      </trkpt>
      <trkpt lat="-24.6459050" lon="-53.6982460">
        <ele>481.5</ele>
        <time>2018-09-15T18:08:24Z</time>
      </trkpt>
      <trkpt lat="-24.6458660" lon="-53.6983060">
        <ele>481.1</ele>
        <time>2018-09-15T18:08:25Z</time>
      </trkpt>
      <trkpt lat="-24.6458240" lon="-53.6983650">
        <ele>480.7</ele>
        <time>2018-09-15T18:08:26Z</time>
      </trkpt>
      <trkpt lat="-24.6457820" lon="-53.6984200">
        <ele>480.4</ele>
        <time>2018-09-15T18:08:27Z</time>
      </trkpt>
      <trkpt lat="-24.6457380" lon="-53.6984690">
        <ele>480.0</ele>
        <time>2018-09-15T18:08:28Z</time>
      </trkpt>
      <trkpt lat="-24.6456950" lon="-53.6985150">
        <ele>479.6</ele>
        <time>2018-09-15T18:08:29Z</time>
      </trkpt>
      <trkpt lat="-24.6456530" lon="-53.6985600">
        <ele>479.3</ele>
        <time>2018-09-15T18:08:30Z</time>
      </trkpt>
      <trkpt lat="-24.6456110" lon="-53.6986030">
        <ele>479.0</ele>
        <time>2018-09-15T18:08:31Z</time>
      </trkpt>
      <trkpt lat="-24.6455680" lon="-53.6986450">
        <ele>478.7</ele>
        <time>2018-09-15T18:08:32Z</time>
      </trkpt>
      <trkpt lat="-24.6455230" lon="-53.6986840">
        <ele>478.3</ele>
        <time>2018-09-15T18:08:33Z</time>
      </trkpt>
      <trkpt lat="-24.6454780" lon="-53.6987230">
        <ele>477.9</ele>
        <time>2018-09-15T18:08:34Z</time>
      </trkpt>
      <trkpt lat="-24.6454350" lon="-53.6987580">
        <ele>477.5</ele>
        <time>2018-09-15T18:08:35Z</time>
      </trkpt>
      <trkpt lat="-24.6453920" lon="-53.6987910">
        <ele>477.1</ele>
        <time>2018-09-15T18:08:36Z</time>
      </trkpt>
      <trkpt lat="-24.6453490" lon="-53.6988240">
        <ele>476.7</ele>
        <time>2018-09-15T18:08:37Z</time>
      </trkpt>
      <trkpt lat="-24.6453020" lon="-53.6988570">
        <ele>476.3</ele>
        <time>2018-09-15T18:08:38Z</time>
      </trkpt>
      <trkpt lat="-24.6452550" lon="-53.6988920">
        <ele>475.9</ele>
        <time>2018-09-15T18:08:39Z</time>
      </trkpt>
      <trkpt lat="-24.6452090" lon="-53.6989290">
        <ele>475.4</ele>
        <time>2018-09-15T18:08:40Z</time>
      </trkpt>
      <trkpt lat="-24.6451660" lon="-53.6989680">
        <ele>474.9</ele>
        <time>2018-09-15T18:08:41Z</time>
      </trkpt>
      <trkpt lat="-24.6451260" lon="-53.6990070">
        <ele>474.3</ele>
        <time>2018-09-15T18:08:42Z</time>
      </trkpt>
      <trkpt lat="-24.6450870" lon="-53.6990460">
        <ele>473.7</ele>
        <time>2018-09-15T18:08:43Z</time>
      </trkpt>
      <trkpt lat="-24.6450470" lon="-53.6990840">
        <ele>473.2</ele>
        <time>2018-09-15T18:08:44Z</time>
      </trkpt>
      <trkpt lat="-24.6450040" lon="-53.6991200">
        <ele>472.8</ele>
        <time>2018-09-15T18:08:45Z</time>
      </trkpt>
      <trkpt lat="-24.6449630" lon="-53.6991590">
        <ele>472.6</ele>
        <time>2018-09-15T18:08:46Z</time>
      </trkpt>
      <trkpt lat="-24.6449200" lon="-53.6992040">
        <ele>472.3</ele>
        <time>2018-09-15T18:08:47Z</time>
      </trkpt>
      <trkpt lat="-24.6448760" lon="-53.6992560">
        <ele>472.0</ele>
        <time>2018-09-15T18:08:48Z</time>
      </trkpt>
      <trkpt lat="-24.6448300" lon="-53.6993140">
        <ele>471.6</ele>
        <time>2018-09-15T18:08:49Z</time>
      </trkpt>
      <trkpt lat="-24.6447830" lon="-53.6993750">
        <ele>471.1</ele>
        <time>2018-09-15T18:08:50Z</time>
      </trkpt>
      <trkpt lat="-24.6447340" lon="-53.6994340">
        <ele>470.6</ele>
        <time>2018-09-15T18:08:51Z</time>
      </trkpt>
      <trkpt lat="-24.6446850" lon="-53.6994910">
        <ele>470.1</ele>
        <time>2018-09-15T18:08:52Z</time>
      </trkpt>
      <trkpt lat="-24.6446350" lon="-53.6995460">
        <ele>469.6</ele>
        <time>2018-09-15T18:08:53Z</time>
      </trkpt>
      <trkpt lat="-24.6445870" lon="-53.6996010">
        <ele>469.1</ele>
        <time>2018-09-15T18:08:54Z</time>
      </trkpt>
      <trkpt lat="-24.6445390" lon="-53.6996550">
        <ele>468.7</ele>
        <time>2018-09-15T18:08:55Z</time>
      </trkpt>
      <trkpt lat="-24.6444910" lon="-53.6997090">
        <ele>468.3</ele>
        <time>2018-09-15T18:08:56Z</time>
      </trkpt>
      <trkpt lat="-24.6444440" lon="-53.6997630">
        <ele>468.0</ele>
        <time>2018-09-15T18:08:57Z</time>
      </trkpt>
      <trkpt lat="-24.6443980" lon="-53.6998150">
        <ele>467.8</ele>
        <time>2018-09-15T18:08:58Z</time>
      </trkpt>
      <trkpt lat="-24.6443500" lon="-53.6998650">
        <ele>467.7</ele>
        <time>2018-09-15T18:08:59Z</time>
      </trkpt>
      <trkpt lat="-24.6443030" lon="-53.6999140">
        <ele>467.5</ele>
        <time>2018-09-15T18:09:00Z</time>
      </trkpt>
      <trkpt lat="-24.6442580" lon="-53.6999640">
        <ele>467.4</ele>
        <time>2018-09-15T18:09:01Z</time>
      </trkpt>
      <trkpt lat="-24.6442140" lon="-53.7000120">
        <ele>467.2</ele>
        <time>2018-09-15T18:09:02Z</time>
      </trkpt>
      <trkpt lat="-24.6441690" lon="-53.7000610">
        <ele>467.0</ele>
        <time>2018-09-15T18:09:03Z</time>
      </trkpt>
      <trkpt lat="-24.6441250" lon="-53.7001090">
        <ele>466.8</ele>
        <time>2018-09-15T18:09:04Z</time>
      </trkpt>
      <trkpt lat="-24.6440830" lon="-53.7001540">
        <ele>466.7</ele>
        <time>2018-09-15T18:09:05Z</time>
      </trkpt>
      <trkpt lat="-24.6440430" lon="-53.7001920">
        <ele>466.7</ele>
        <time>2018-09-15T18:09:06Z</time>
      </trkpt>
      <trkpt lat="-24.6440060" lon="-53.7002240">
        <ele>466.8</ele>
        <time>2018-09-15T18:09:07Z</time>
      </trkpt>
      <trkpt lat="-24.6439750" lon="-53.7002450">
        <ele>466.9</ele>
        <time>2018-09-15T18:09:08Z</time>
      </trkpt>
      <trkpt lat="-24.6439530" lon="-53.7002570">
        <ele>467.0</ele>
        <time>2018-09-15T18:09:09Z</time>
      </trkpt>
      <trkpt lat="-24.6439370" lon="-53.7002640">
        <ele>467.0</ele>
        <time>2018-09-15T18:09:10Z</time>
      </trkpt>
      <trkpt lat="-24.6439290" lon="-53.7002650">
        <ele>467.1</ele>
        <time>2018-09-15T18:09:11Z</time>
      </trkpt>
      <trkpt lat="-24.6439280" lon="-53.7002660">
        <ele>467.1</ele>
        <time>2018-09-15T18:09:12Z</time>
      </trkpt>
      <trkpt lat="-24.6439250" lon="-53.7002680">
        <ele>467.1</ele>
        <time>2018-09-15T18:09:13Z</time>
      </trkpt>
      <trkpt lat="-24.6439180" lon="-53.7002670">
        <ele>467.1</ele>
        <time>2018-09-15T18:09:31Z</time>
      </trkpt>
      <trkpt lat="-24.6439170" lon="-53.7002660">
        <ele>467.1</ele>
        <time>2018-09-15T18:09:32Z</time>
      </trkpt>
      <trkpt lat="-24.6439160" lon="-53.7002660">
        <ele>467.1</ele>
        <time>2018-09-15T18:09:33Z</time>
      </trkpt>
      <trkpt lat="-24.6439090" lon="-53.7002710">
        <ele>467.1</ele>
        <time>2018-09-15T18:10:02Z</time>
      </trkpt>
      <trkpt lat="-24.6439100" lon="-53.7002710">
        <ele>467.1</ele>
        <time>2018-09-15T18:10:03Z</time>
      </trkpt>
      <trkpt lat="-24.6439120" lon="-53.7002690">
        <ele>467.1</ele>
        <time>2018-09-15T18:10:04Z</time>
      </trkpt>
      <trkpt lat="-24.6439140" lon="-53.7002720">
        <ele>467.2</ele>
        <time>2018-09-15T18:10:19Z</time>
      </trkpt>
      <trkpt lat="-24.6439060" lon="-53.7002770">
        <ele>467.2</ele>
        <time>2018-09-15T18:10:20Z</time>
      </trkpt>
      <trkpt lat="-24.6438900" lon="-53.7002820">
        <ele>467.2</ele>
        <time>2018-09-15T18:10:21Z</time>
      </trkpt>
      <trkpt lat="-24.6438700" lon="-53.7002960">
        <ele>467.3</ele>
        <time>2018-09-15T18:10:22Z</time>
      </trkpt>
      <trkpt lat="-24.6438470" lon="-53.7003100">
        <ele>467.4</ele>
        <time>2018-09-15T18:10:23Z</time>
      </trkpt>
      <trkpt lat="-24.6438270" lon="-53.7003260">
        <ele>467.4</ele>
        <time>2018-09-15T18:10:24Z</time>
      </trkpt>
      <trkpt lat="-24.6438030" lon="-53.7003390">
        <ele>467.5</ele>
        <time>2018-09-15T18:10:25Z</time>
      </trkpt>
      <trkpt lat="-24.6437770" lon="-53.7003440">
        <ele>467.6</ele>
        <time>2018-09-15T18:10:26Z</time>
      </trkpt>
      <trkpt lat="-24.6437560" lon="-53.7003530">
        <ele>467.6</ele>
        <time>2018-09-15T18:10:27Z</time>
      </trkpt>
      <trkpt lat="-24.6437560" lon="-53.7003530">
        <ele>467.6</ele>
        <time>2018-09-15T18:10:28Z</time>
      </trkpt>
      <trkpt lat="-24.6437280" lon="-53.7003640">
        <ele>467.7</ele>
        <time>2018-09-15T18:10:29Z</time>
      </trkpt>
      <trkpt lat="-24.6436970" lon="-53.7003710">
        <ele>467.8</ele>
        <time>2018-09-15T18:10:30Z</time>
      </trkpt>
      <trkpt lat="-24.6436670" lon="-53.7003770">
        <ele>467.9</ele>
        <time>2018-09-15T18:10:31Z</time>
      </trkpt>
      <trkpt lat="-24.6436440" lon="-53.7003790">
        <ele>468.1</ele>
        <time>2018-09-15T18:10:32Z</time>
      </trkpt>
      <trkpt lat="-24.6436200" lon="-53.7003800">
        <ele>468.2</ele>
        <time>2018-09-15T18:10:33Z</time>
      </trkpt>
      <trkpt lat="-24.6435910" lon="-53.7003800">
        <ele>468.4</ele>
        <time>2018-09-15T18:10:34Z</time>
      </trkpt>
      <trkpt lat="-24.6435600" lon="-53.7003850">
        <ele>468.5</ele>
        <time>2018-09-15T18:10:35Z</time>
      </trkpt>
      <trkpt lat="-24.6435250" lon="-53.7003910">
        <ele>468.8</ele>
        <time>2018-09-15T18:10:36Z</time>
      </trkpt>
      <trkpt lat="-24.6434910" lon="-53.7003980">
        <ele>469.2</ele>
        <time>2018-09-15T18:10:37Z</time>
      </trkpt>
      <trkpt lat="-24.6434550" lon="-53.7004030">
        <ele>469.5</ele>
        <time>2018-09-15T18:10:38Z</time>
      </trkpt>
      <trkpt lat="-24.6434170" lon="-53.7004090">
        <ele>469.8</ele>
        <time>2018-09-15T18:10:39Z</time>
      </trkpt>
      <trkpt lat="-24.6433780" lon="-53.7004140">
        <ele>470.0</ele>
        <time>2018-09-15T18:10:40Z</time>
      </trkpt>
      <trkpt lat="-24.6433400" lon="-53.7004180">
        <ele>470.3</ele>
        <time>2018-09-15T18:10:41Z</time>
      </trkpt>
      <trkpt lat="-24.6433030" lon="-53.7004230">
        <ele>470.5</ele>
        <time>2018-09-15T18:10:42Z</time>
      </trkpt>
      <trkpt lat="-24.6432680" lon="-53.7004280">
        <ele>470.8</ele>
        <time>2018-09-15T18:10:43Z</time>
      </trkpt>
      <trkpt lat="-24.6432320" lon="-53.7004300">
        <ele>471.1</ele>
        <time>2018-09-15T18:10:44Z</time>
      </trkpt>
      <trkpt lat="-24.6431950" lon="-53.7004290">
        <ele>471.4</ele>
        <time>2018-09-15T18:10:45Z</time>
      </trkpt>
      <trkpt lat="-24.6431580" lon="-53.7004300">
        <ele>471.8</ele>
        <time>2018-09-15T18:10:46Z</time>
      </trkpt>
      <trkpt lat="-24.6431210" lon="-53.7004330">
        <ele>472.1</ele>
        <time>2018-09-15T18:10:47Z</time>
      </trkpt>
      <trkpt lat="-24.6430860" lon="-53.7004360">
        <ele>472.3</ele>
        <time>2018-09-15T18:10:48Z</time>
      </trkpt>
      <trkpt lat="-24.6430510" lon="-53.7004380">
        <ele>472.6</ele>
        <time>2018-09-15T18:10:49Z</time>
      </trkpt>
      <trkpt lat="-24.6430180" lon="-53.7004410">
        <ele>472.8</ele>
        <time>2018-09-15T18:10:50Z</time>
      </trkpt>
      <trkpt lat="-24.6429840" lon="-53.7004440">
        <ele>473.0</ele>
        <time>2018-09-15T18:10:51Z</time>
      </trkpt>
      <trkpt lat="-24.6429510" lon="-53.7004480">
        <ele>473.2</ele>
        <time>2018-09-15T18:10:52Z</time>
      </trkpt>
      <trkpt lat="-24.6429170" lon="-53.7004490">
        <ele>473.4</ele>
        <time>2018-09-15T18:10:53Z</time>
      </trkpt>
      <trkpt lat="-24.6428870" lon="-53.7004510">
        <ele>473.6</ele>
        <time>2018-09-15T18:10:54Z</time>
      </trkpt>
      <trkpt lat="-24.6428580" lon="-53.7004550">
        <ele>473.8</ele>
        <time>2018-09-15T18:10:55Z</time>
      </trkpt>
      <trkpt lat="-24.6428300" lon="-53.7004590">
        <ele>474.1</ele>
        <time>2018-09-15T18:10:56Z</time>
      </trkpt>
      <trkpt lat="-24.6428030" lon="-53.7004640">
        <ele>474.3</ele>
        <time>2018-09-15T18:10:57Z</time>
      </trkpt>
      <trkpt lat="-24.6427760" lon="-53.7004680">
        <ele>474.6</ele>
        <time>2018-09-15T18:10:58Z</time>
      </trkpt>
      <trkpt lat="-24.6427490" lon="-53.7004730">
        <ele>474.8</ele>
        <time>2018-09-15T18:10:59Z</time>
      </trkpt>
      <trkpt lat="-24.6427220" lon="-53.7004760">
        <ele>475.2</ele>
        <time>2018-09-15T18:11:00Z</time>
      </trkpt>
      <trkpt lat="-24.6426980" lon="-53.7004800">
        <ele>475.4</ele>
        <time>2018-09-15T18:11:01Z</time>
      </trkpt>
      <trkpt lat="-24.6426740" lon="-53.7004830">
        <ele>475.7</ele>
        <time>2018-09-15T18:11:02Z</time>
      </trkpt>
      <trkpt lat="-24.6426490" lon="-53.7004860">
        <ele>476.0</ele>
        <time>2018-09-15T18:11:03Z</time>
      </trkpt>
      <trkpt lat="-24.6426230" lon="-53.7004890">
        <ele>476.2</ele>
        <time>2018-09-15T18:11:04Z</time>
      </trkpt>
      <trkpt lat="-24.6425960" lon="-53.7004950">
        <ele>476.5</ele>
        <time>2018-09-15T18:11:05Z</time>
      </trkpt>
      <trkpt lat="-24.6425700" lon="-53.7005010">
        <ele>476.7</ele>
        <time>2018-09-15T18:11:06Z</time>
      </trkpt>
      <trkpt lat="-24.6425440" lon="-53.7005070">
        <ele>476.9</ele>
        <time>2018-09-15T18:11:07Z</time>
      </trkpt>
      <trkpt lat="-24.6425190" lon="-53.7005120">
        <ele>477.2</ele>
        <time>2018-09-15T18:11:08Z</time>
      </trkpt>
      <trkpt lat="-24.6424960" lon="-53.7005120">
        <ele>477.4</ele>
        <time>2018-09-15T18:11:09Z</time>
      </trkpt>
      <trkpt lat="-24.6424730" lon="-53.7005140">
        <ele>477.6</ele>
        <time>2018-09-15T18:11:10Z</time>
      </trkpt>
      <trkpt lat="-24.6424510" lon="-53.7005140">
        <ele>477.8</ele>
        <time>2018-09-15T18:11:11Z</time>
      </trkpt>
      <trkpt lat="-24.6424280" lon="-53.7005140">
        <ele>478.0</ele>
        <time>2018-09-15T18:11:12Z</time>
      </trkpt>
      <trkpt lat="-24.6424050" lon="-53.7005130">
        <ele>478.1</ele>
        <time>2018-09-15T18:11:13Z</time>
      </trkpt>
      <trkpt lat="-24.6423800" lon="-53.7005140">
        <ele>478.2</ele>
        <time>2018-09-15T18:11:14Z</time>
      </trkpt>
      <trkpt lat="-24.6423550" lon="-53.7005160">
        <ele>478.4</ele>
        <time>2018-09-15T18:11:15Z</time>
      </trkpt>
      <trkpt lat="-24.6423310" lon="-53.7005170">
        <ele>478.5</ele>
        <time>2018-09-15T18:11:16Z</time>
      </trkpt>
      <trkpt lat="-24.6423070" lon="-53.7005160">
        <ele>478.6</ele>
        <time>2018-09-15T18:11:17Z</time>
      </trkpt>
      <trkpt lat="-24.6422850" lon="-53.7005160">
        <ele>478.7</ele>
        <time>2018-09-15T18:11:18Z</time>
      </trkpt>
      <trkpt lat="-24.6422640" lon="-53.7005170">
        <ele>478.7</ele>
        <time>2018-09-15T18:11:19Z</time>
      </trkpt>
      <trkpt lat="-24.6422410" lon="-53.7005170">
        <ele>478.8</ele>
        <time>2018-09-15T18:11:20Z</time>
      </trkpt>
      <trkpt lat="-24.6422180" lon="-53.7005160">
        <ele>478.9</ele>
        <time>2018-09-15T18:11:21Z</time>
      </trkpt>
      <trkpt lat="-24.6421930" lon="-53.7005130">
        <ele>479.0</ele>
        <time>2018-09-15T18:11:22Z</time>
      </trkpt>
      <trkpt lat="-24.6421660" lon="-53.7005120">
        <ele>479.0</ele>
        <time>2018-09-15T18:11:23Z</time>
      </trkpt>
      <trkpt lat="-24.6421390" lon="-53.7005110">
        <ele>479.1</ele>
        <time>2018-09-15T18:11:24Z</time>
      </trkpt>
      <trkpt lat="-24.6421110" lon="-53.7005080">
        <ele>479.2</ele>
        <time>2018-09-15T18:11:25Z</time>
      </trkpt>
      <trkpt lat="-24.6420840" lon="-53.7005080">
        <ele>479.3</ele>
        <time>2018-09-15T18:11:26Z</time>
      </trkpt>
      <trkpt lat="-24.6420570" lon="-53.7005090">
        <ele>479.4</ele>
        <time>2018-09-15T18:11:27Z</time>
      </trkpt>
      <trkpt lat="-24.6420300" lon="-53.7005090">
        <ele>479.3</ele>
        <time>2018-09-15T18:11:28Z</time>
      </trkpt>
      <trkpt lat="-24.6420020" lon="-53.7005090">
        <ele>479.3</ele>
        <time>2018-09-15T18:11:29Z</time>
      </trkpt>
      <trkpt lat="-24.6419730" lon="-53.7005090">
        <ele>479.1</ele>
        <time>2018-09-15T18:11:30Z</time>
      </trkpt>
      <trkpt lat="-24.6419440" lon="-53.7005100">
        <ele>478.9</ele>
        <time>2018-09-15T18:11:31Z</time>
      </trkpt>
      <trkpt lat="-24.6419140" lon="-53.7005090">
        <ele>478.6</ele>
        <time>2018-09-15T18:11:32Z</time>
      </trkpt>
      <trkpt lat="-24.6418830" lon="-53.7005090">
        <ele>478.3</ele>
        <time>2018-09-15T18:11:33Z</time>
      </trkpt>
      <trkpt lat="-24.6418520" lon="-53.7005090">
        <ele>478.1</ele>
        <time>2018-09-15T18:11:34Z</time>
      </trkpt>
      <trkpt lat="-24.6418210" lon="-53.7005100">
        <ele>477.9</ele>
        <time>2018-09-15T18:11:35Z</time>
      </trkpt>
      <trkpt lat="-24.6417900" lon="-53.7005090">
        <ele>477.7</ele>
        <time>2018-09-15T18:11:36Z</time>
      </trkpt>
      <trkpt lat="-24.6417590" lon="-53.7005080">
        <ele>477.5</ele>
        <time>2018-09-15T18:11:37Z</time>
      </trkpt>
      <trkpt lat="-24.6417290" lon="-53.7005090">
        <ele>477.4</ele>
        <time>2018-09-15T18:11:38Z</time>
      </trkpt>
      <trkpt lat="-24.6417000" lon="-53.7005100">
        <ele>477.2</ele>
        <time>2018-09-15T18:11:39Z</time>
      </trkpt>
      <trkpt lat="-24.6416700" lon="-53.7005100">
        <ele>477.1</ele>
        <time>2018-09-15T18:11:40Z</time>
      </trkpt>
      <trkpt lat="-24.6416390" lon="-53.7005100">
        <ele>476.9</ele>
        <time>2018-09-15T18:11:41Z</time>
      </trkpt>
      <trkpt lat="-24.6416100" lon="-53.7005100">
        <ele>476.8</ele>
        <time>2018-09-15T18:11:42Z</time>
      </trkpt>
      <trkpt lat="-24.6415810" lon="-53.7005110">
        <ele>476.6</ele>
        <time>2018-09-15T18:11:43Z</time>
      </trkpt>
      <trkpt lat="-24.6415540" lon="-53.7005120">
        <ele>476.3</ele>
        <time>2018-09-15T18:11:44Z</time>
      </trkpt>
      <trkpt lat="-24.6415270" lon="-53.7005130">
        <ele>476.0</ele>
        <time>2018-09-15T18:11:45Z</time>
      </trkpt>
      <trkpt lat="-24.6415000" lon="-53.7005130">
        <ele>475.7</ele>
        <time>2018-09-15T18:11:46Z</time>
      </trkpt>
      <trkpt lat="-24.6414730" lon="-53.7005150">
        <ele>475.4</ele>
        <time>2018-09-15T18:11:47Z</time>
      </trkpt>
      <trkpt lat="-24.6414410" lon="-53.7005160">
        <ele>475.1</ele>
        <time>2018-09-15T18:11:48Z</time>
      </trkpt>
      <trkpt lat="-24.6414070" lon="-53.7005150">
        <ele>475.0</ele>
        <time>2018-09-15T18:11:49Z</time>
      </trkpt>
      <trkpt lat="-24.6413730" lon="-53.7005150">
        <ele>474.8</ele>
        <time>2018-09-15T18:11:50Z</time>
      </trkpt>
      <trkpt lat="-24.6413400" lon="-53.7005160">
        <ele>474.7</ele>
        <time>2018-09-15T18:11:51Z</time>
      </trkpt>
      <trkpt lat="-24.6413050" lon="-53.7005150">
        <ele>474.6</ele>
        <time>2018-09-15T18:11:52Z</time>
      </trkpt>
      <trkpt lat="-24.6412720" lon="-53.7005140">
        <ele>474.5</ele>
        <time>2018-09-15T18:11:53Z</time>
      </trkpt>
      <trkpt lat="-24.6412400" lon="-53.7005130">
        <ele>474.4</ele>
        <time>2018-09-15T18:11:54Z</time>
      </trkpt>
      <trkpt lat="-24.6412090" lon="-53.7005130">
        <ele>474.3</ele>
        <time>2018-09-15T18:11:55Z</time>
      </trkpt>
      <trkpt lat="-24.6411780" lon="-53.7005140">
        <ele>474.3</ele>
        <time>2018-09-15T18:11:56Z</time>
      </trkpt>
      <trkpt lat="-24.6411480" lon="-53.7005140">
        <ele>474.2</ele>
        <time>2018-09-15T18:11:57Z</time>
      </trkpt>
      <trkpt lat="-24.6411190" lon="-53.7005130">
        <ele>474.1</ele>
        <time>2018-09-15T18:11:58Z</time>
      </trkpt>
      <trkpt lat="-24.6410890" lon="-53.7005120">
        <ele>474.1</ele>
        <time>2018-09-15T18:11:59Z</time>
      </trkpt>
      <trkpt lat="-24.6410600" lon="-53.7005120">
        <ele>474.0</ele>
        <time>2018-09-15T18:12:00Z</time>
      </trkpt>
      <trkpt lat="-24.6410300" lon="-53.7005130">
        <ele>473.9</ele>
        <time>2018-09-15T18:12:01Z</time>
      </trkpt>
      <trkpt lat="-24.6410000" lon="-53.7005150">
        <ele>473.9</ele>
        <time>2018-09-15T18:12:02Z</time>
      </trkpt>
      <trkpt lat="-24.6409710" lon="-53.7005160">
        <ele>473.8</ele>
        <time>2018-09-15T18:12:03Z</time>
      </trkpt>
      <trkpt lat="-24.6409410" lon="-53.7005180">
        <ele>473.6</ele>
        <time>2018-09-15T18:12:04Z</time>
      </trkpt>
      <trkpt lat="-24.6409130" lon="-53.7005190">
        <ele>473.5</ele>
        <time>2018-09-15T18:12:05Z</time>
      </trkpt>
      <trkpt lat="-24.6408850" lon="-53.7005210">
        <ele>473.5</ele>
        <time>2018-09-15T18:12:06Z</time>
      </trkpt>
      <trkpt lat="-24.6408570" lon="-53.7005240">
        <ele>473.4</ele>
        <time>2018-09-15T18:12:07Z</time>
      </trkpt>
      <trkpt lat="-24.6408280" lon="-53.7005260">
        <ele>473.3</ele>
        <time>2018-09-15T18:12:08Z</time>
      </trkpt>
      <trkpt lat="-24.6407960" lon="-53.7005290">
        <ele>473.3</ele>
        <time>2018-09-15T18:12:09Z</time>
      </trkpt>
      <trkpt lat="-24.6407600" lon="-53.7005320">
        <ele>473.3</ele>
        <time>2018-09-15T18:12:10Z</time>
      </trkpt>
      <trkpt lat="-24.6407220" lon="-53.7005320">
        <ele>473.2</ele>
        <time>2018-09-15T18:12:11Z</time>
      </trkpt>
      <trkpt lat="-24.6406850" lon="-53.7005300">
        <ele>473.2</ele>
        <time>2018-09-15T18:12:12Z</time>
      </trkpt>
      <trkpt lat="-24.6406470" lon="-53.7005280">
        <ele>473.2</ele>
        <time>2018-09-15T18:12:13Z</time>
      </trkpt>
      <trkpt lat="-24.6406110" lon="-53.7005250">
        <ele>473.2</ele>
        <time>2018-09-15T18:12:14Z</time>
      </trkpt>
      <trkpt lat="-24.6405750" lon="-53.7005200">
        <ele>473.1</ele>
        <time>2018-09-15T18:12:15Z</time>
      </trkpt>
      <trkpt lat="-24.6405380" lon="-53.7005160">
        <ele>473.1</ele>
        <time>2018-09-15T18:12:16Z</time>
      </trkpt>
      <trkpt lat="-24.6405020" lon="-53.7005100">
        <ele>473.1</ele>
        <time>2018-09-15T18:12:17Z</time>
      </trkpt>
      <trkpt lat="-24.6404650" lon="-53.7005050">
        <ele>473.1</ele>
        <time>2018-09-15T18:12:18Z</time>
      </trkpt>
      <trkpt lat="-24.6404300" lon="-53.7004990">
        <ele>473.0</ele>
        <time>2018-09-15T18:12:19Z</time>
      </trkpt>
      <trkpt lat="-24.6403950" lon="-53.7004920">
        <ele>473.0</ele>
        <time>2018-09-15T18:12:20Z</time>
      </trkpt>
      <trkpt lat="-24.6403590" lon="-53.7004860">
        <ele>473.0</ele>
        <time>2018-09-15T18:12:21Z</time>
      </trkpt>
      <trkpt lat="-24.6403230" lon="-53.7004820">
        <ele>473.0</ele>
        <time>2018-09-15T18:12:22Z</time>
      </trkpt>
      <trkpt lat="-24.6402890" lon="-53.7004780">
        <ele>473.1</ele>
        <time>2018-09-15T18:12:23Z</time>
      </trkpt>
      <trkpt lat="-24.6402570" lon="-53.7004720">
        <ele>473.1</ele>
        <time>2018-09-15T18:12:24Z</time>
      </trkpt>
      <trkpt lat="-24.6402250" lon="-53.7004650">
        <ele>473.1</ele>
        <time>2018-09-15T18:12:25Z</time>
      </trkpt>
      <trkpt lat="-24.6401930" lon="-53.7004580">
        <ele>473.2</ele>
        <time>2018-09-15T18:12:26Z</time>
      </trkpt>
      <trkpt lat="-24.6401590" lon="-53.7004510">
        <ele>473.2</ele>
        <time>2018-09-15T18:12:27Z</time>
      </trkpt>
      <trkpt lat="-24.6401230" lon="-53.7004470">
        <ele>473.2</ele>
        <time>2018-09-15T18:12:28Z</time>
      </trkpt>
      <trkpt lat="-24.6400870" lon="-53.7004410">
        <ele>473.3</ele>
        <time>2018-09-15T18:12:29Z</time>
      </trkpt>
      <trkpt lat="-24.6400490" lon="-53.7004330">
        <ele>473.3</ele>
        <time>2018-09-15T18:12:30Z</time>
      </trkpt>
      <trkpt lat="-24.6400110" lon="-53.7004230">
        <ele>473.4</ele>
        <time>2018-09-15T18:12:31Z</time>
      </trkpt>
      <trkpt lat="-24.6399720" lon="-53.7004140">
        <ele>473.4</ele>
        <time>2018-09-15T18:12:32Z</time>
      </trkpt>
      <trkpt lat="-24.6399330" lon="-53.7004050">
        <ele>473.5</ele>
        <time>2018-09-15T18:12:33Z</time>
      </trkpt>
      <trkpt lat="-24.6398960" lon="-53.7003940">
        <ele>473.5</ele>
        <time>2018-09-15T18:12:34Z</time>
      </trkpt>
      <trkpt lat="-24.6398620" lon="-53.7003820">
        <ele>473.6</ele>
        <time>2018-09-15T18:12:35Z</time>
      </trkpt>
      <trkpt lat="-24.6398250" lon="-53.7003700">
        <ele>473.6</ele>
        <time>2018-09-15T18:12:36Z</time>
      </trkpt>
      <trkpt lat="-24.6397860" lon="-53.7003560">
        <ele>473.7</ele>
        <time>2018-09-15T18:12:37Z</time>
      </trkpt>
      <trkpt lat="-24.6397460" lon="-53.7003450">
        <ele>473.7</ele>
        <time>2018-09-15T18:12:38Z</time>
      </trkpt>
      <trkpt lat="-24.6397040" lon="-53.7003330">
        <ele>473.8</ele>
        <time>2018-09-15T18:12:39Z</time>
      </trkpt>
      <trkpt lat="-24.6396620" lon="-53.7003200">
        <ele>473.8</ele>
        <time>2018-09-15T18:12:40Z</time>
      </trkpt>
      <trkpt lat="-24.6396220" lon="-53.7003080">
        <ele>473.9</ele>
        <time>2018-09-15T18:12:41Z</time>
      </trkpt>
      <trkpt lat="-24.6395810" lon="-53.7002950">
        <ele>474.0</ele>
        <time>2018-09-15T18:12:42Z</time>
      </trkpt>
      <trkpt lat="-24.6395400" lon="-53.7002830">
        <ele>474.0</ele>
        <time>2018-09-15T18:12:43Z</time>
      </trkpt>
      <trkpt lat="-24.6394970" lon="-53.7002720">
        <ele>474.1</ele>
        <time>2018-09-15T18:12:44Z</time>
      </trkpt>
      <trkpt lat="-24.6394540" lon="-53.7002620">
        <ele>474.1</ele>
        <time>2018-09-15T18:12:45Z</time>
      </trkpt>
      <trkpt lat="-24.6394100" lon="-53.7002500">
        <ele>474.2</ele>
        <time>2018-09-15T18:12:46Z</time>
      </trkpt>
      <trkpt lat="-24.6393660" lon="-53.7002370">
        <ele>474.2</ele>
        <time>2018-09-15T18:12:47Z</time>
      </trkpt>
      <trkpt lat="-24.6393210" lon="-53.7002250">
        <ele>474.3</ele>
        <time>2018-09-15T18:12:48Z</time>
      </trkpt>
      <trkpt lat="-24.6392770" lon="-53.7002140">
        <ele>474.4</ele>
        <time>2018-09-15T18:12:49Z</time>
      </trkpt>
      <trkpt lat="-24.6392320" lon="-53.7002020">
        <ele>474.4</ele>
        <time>2018-09-15T18:12:50Z</time>
      </trkpt>
      <trkpt lat="-24.6391860" lon="-53.7001910">
        <ele>474.5</ele>
        <time>2018-09-15T18:12:51Z</time>
      </trkpt>
      <trkpt lat="-24.6391400" lon="-53.7001790">
        <ele>474.5</ele>
        <time>2018-09-15T18:12:52Z</time>
      </trkpt>
      <trkpt lat="-24.6390930" lon="-53.7001670">
        <ele>474.6</ele>
        <time>2018-09-15T18:12:53Z</time>
      </trkpt>
      <trkpt lat="-24.6390440" lon="-53.7001560">
        <ele>474.6</ele>
        <time>2018-09-15T18:12:54Z</time>
      </trkpt>
      <trkpt lat="-24.6389960" lon="-53.7001420">
        <ele>474.7</ele>
        <time>2018-09-15T18:12:55Z</time>
      </trkpt>
      <trkpt lat="-24.6389490" lon="-53.7001280">
        <ele>474.7</ele>
        <time>2018-09-15T18:12:56Z</time>
      </trkpt>
      <trkpt lat="-24.6389010" lon="-53.7001160">
        <ele>474.7</ele>
        <time>2018-09-15T18:12:57Z</time>
      </trkpt>
      <trkpt lat="-24.6388550" lon="-53.7001030">
        <ele>474.8</ele>
        <time>2018-09-15T18:12:58Z</time>
      </trkpt>
      <trkpt lat="-24.6388090" lon="-53.7000910">
        <ele>474.8</ele>
        <time>2018-09-15T18:12:59Z</time>
      </trkpt>
      <trkpt lat="-24.6387640" lon="-53.7000750">
        <ele>474.8</ele>
        <time>2018-09-15T18:13:00Z</time>
      </trkpt>
      <trkpt lat="-24.6387180" lon="-53.7000560">
        <ele>474.9</ele>
        <time>2018-09-15T18:13:01Z</time>
      </trkpt>
      <trkpt lat="-24.6386730" lon="-53.7000340">
        <ele>474.9</ele>
        <time>2018-09-15T18:13:02Z</time>
      </trkpt>
      <trkpt lat="-24.6386260" lon="-53.7000110">
        <ele>474.9</ele>
        <time>2018-09-15T18:13:03Z</time>
      </trkpt>
      <trkpt lat="-24.6385800" lon="-53.6999860">
        <ele>474.9</ele>
        <time>2018-09-15T18:13:04Z</time>
      </trkpt>
      <trkpt lat="-24.6385350" lon="-53.6999560">
        <ele>474.9</ele>
        <time>2018-09-15T18:13:05Z</time>
      </trkpt>
      <trkpt lat="-24.6384870" lon="-53.6999270">
        <ele>474.9</ele>
        <time>2018-09-15T18:13:06Z</time>
      </trkpt>
      <trkpt lat="-24.6384370" lon="-53.6999010">
        <ele>474.8</ele>
        <time>2018-09-15T18:13:07Z</time>
      </trkpt>
      <trkpt lat="-24.6383800" lon="-53.6998810">
        <ele>474.8</ele>
        <time>2018-09-15T18:13:08Z</time>
      </trkpt>
      <trkpt lat="-24.6383150" lon="-53.6998730">
        <ele>474.7</ele>
        <time>2018-09-15T18:13:09Z</time>
      </trkpt>
      <trkpt lat="-24.6382450" lon="-53.6998790">
        <ele>474.5</ele>
        <time>2018-09-15T18:13:10Z</time>
      </trkpt>
      <trkpt lat="-24.6381760" lon="-53.6998980">
        <ele>474.4</ele>
        <time>2018-09-15T18:13:11Z</time>
      </trkpt>
      <trkpt lat="-24.6381080" lon="-53.6999210">
        <ele>474.2</ele>
        <time>2018-09-15T18:13:12Z</time>
      </trkpt>
      <trkpt lat="-24.6380430" lon="-53.6999490">
        <ele>474.1</ele>
        <time>2018-09-15T18:13:13Z</time>
      </trkpt>
      <trkpt lat="-24.6379810" lon="-53.6999800">
        <ele>473.9</ele>
        <time>2018-09-15T18:13:14Z</time>
      </trkpt>
      <trkpt lat="-24.6379240" lon="-53.7000160">
        <ele>473.8</ele>
        <time>2018-09-15T18:13:15Z</time>
      </trkpt>
      <trkpt lat="-24.6378680" lon="-53.7000510">
        <ele>473.9</ele>
        <time>2018-09-15T18:13:16Z</time>
      </trkpt>
      <trkpt lat="-24.6378160" lon="-53.7000840">
        <ele>474.0</ele>
        <time>2018-09-15T18:13:17Z</time>
      </trkpt>
      <trkpt lat="-24.6377660" lon="-53.7001150">
        <ele>474.2</ele>
        <time>2018-09-15T18:13:18Z</time>
      </trkpt>
      <trkpt lat="-24.6377190" lon="-53.7001430">
        <ele>474.4</ele>
        <time>2018-09-15T18:13:19Z</time>
      </trkpt>
      <trkpt lat="-24.6376750" lon="-53.7001680">
        <ele>474.5</ele>
        <time>2018-09-15T18:13:20Z</time>
      </trkpt>
      <trkpt lat="-24.6376380" lon="-53.7001920">
        <ele>474.7</ele>
        <time>2018-09-15T18:13:21Z</time>
      </trkpt>
      <trkpt lat="-24.6376010" lon="-53.7002040">
        <ele>474.8</ele>
        <time>2018-09-15T18:13:22Z</time>
      </trkpt>
      <trkpt lat="-24.6375690" lon="-53.7002170">
        <ele>474.9</ele>
        <time>2018-09-15T18:13:23Z</time>
      </trkpt>
      <trkpt lat="-24.6375380" lon="-53.7002260">
        <ele>475.0</ele>
        <time>2018-09-15T18:13:24Z</time>
      </trkpt>
      <trkpt lat="-24.6375080" lon="-53.7002290">
        <ele>475.2</ele>
        <time>2018-09-15T18:13:25Z</time>
      </trkpt>
      <trkpt lat="-24.6374820" lon="-53.7002310">
        <ele>475.3</ele>
        <time>2018-09-15T18:13:26Z</time>
      </trkpt>
      <trkpt lat="-24.6374600" lon="-53.7002330">
        <ele>475.5</ele>
        <time>2018-09-15T18:13:27Z</time>
      </trkpt>
      <trkpt lat="-24.6374370" lon="-53.7002310">
        <ele>475.6</ele>
        <time>2018-09-15T18:13:28Z</time>
      </trkpt>
      <trkpt lat="-24.6374170" lon="-53.7002280">
        <ele>475.7</ele>
        <time>2018-09-15T18:13:29Z</time>
      </trkpt>
      <trkpt lat="-24.6373790" lon="-53.7002130">
        <ele>476.0</ele>
        <time>2018-09-15T18:13:30Z</time>
      </trkpt>
      <trkpt lat="-24.6373570" lon="-53.7002060">
        <ele>476.1</ele>
        <time>2018-09-15T18:13:31Z</time>
      </trkpt>
      <trkpt lat="-24.6373340" lon="-53.7001970">
        <ele>476.3</ele>
        <time>2018-09-15T18:13:32Z</time>
      </trkpt>
      <trkpt lat="-24.6373080" lon="-53.7001870">
        <ele>476.5</ele>
        <time>2018-09-15T18:13:33Z</time>
      </trkpt>
      <trkpt lat="-24.6372870" lon="-53.7001790">
        <ele>476.6</ele>
        <time>2018-09-15T18:13:34Z</time>
      </trkpt>
      <trkpt lat="-24.6372650" lon="-53.7001720">
        <ele>476.8</ele>
        <time>2018-09-15T18:13:35Z</time>
      </trkpt>
      <trkpt lat="-24.6372460" lon="-53.7001660">
        <ele>476.9</ele>
        <time>2018-09-15T18:13:36Z</time>
      </trkpt>
      <trkpt lat="-24.6372280" lon="-53.7001550">
        <ele>477.1</ele>
        <time>2018-09-15T18:13:37Z</time>
      </trkpt>
      <trkpt lat="-24.6372080" lon="-53.7001450">
        <ele>477.3</ele>
        <time>2018-09-15T18:13:38Z</time>
      </trkpt>
      <trkpt lat="-24.6371880" lon="-53.7001360">
        <ele>477.6</ele>
        <time>2018-09-15T18:13:39Z</time>
      </trkpt>
      <trkpt lat="-24.6371700" lon="-53.7001270">
        <ele>477.8</ele>
        <time>2018-09-15T18:13:40Z</time>
      </trkpt>
      <trkpt lat="-24.6371530" lon="-53.7001170">
        <ele>478.0</ele>
        <time>2018-09-15T18:13:41Z</time>
      </trkpt>
      <trkpt lat="-24.6371210" lon="-53.7001000">
        <ele>478.3</ele>
        <time>2018-09-15T18:13:43Z</time>
      </trkpt>
      <trkpt lat="-24.6371040" lon="-53.7000910">
        <ele>478.5</ele>
        <time>2018-09-15T18:13:44Z</time>
      </trkpt>
      <trkpt lat="-24.6370850" lon="-53.7000820">
        <ele>478.7</ele>
        <time>2018-09-15T18:13:45Z</time>
      </trkpt>
      <trkpt lat="-24.6370670" lon="-53.7000740">
        <ele>478.8</ele>
        <time>2018-09-15T18:13:46Z</time>
      </trkpt>
      <trkpt lat="-24.6370490" lon="-53.7000680">
        <ele>479.0</ele>
        <time>2018-09-15T18:13:47Z</time>
      </trkpt>
      <trkpt lat="-24.6370310" lon="-53.7000620">
        <ele>479.1</ele>
        <time>2018-09-15T18:13:48Z</time>
      </trkpt>
      <trkpt lat="-24.6370140" lon="-53.7000550">
        <ele>479.3</ele>
        <time>2018-09-15T18:13:49Z</time>
      </trkpt>
      <trkpt lat="-24.6369980" lon="-53.7000460">
        <ele>479.4</ele>
        <time>2018-09-15T18:13:50Z</time>
      </trkpt>
      <trkpt lat="-24.6369820" lon="-53.7000400">
        <ele>479.6</ele>
        <time>2018-09-15T18:13:51Z</time>
      </trkpt>
      <trkpt lat="-24.6369650" lon="-53.7000340">
        <ele>479.8</ele>
        <time>2018-09-15T18:13:52Z</time>
      </trkpt>
      <trkpt lat="-24.6369500" lon="-53.7000280">
        <ele>479.9</ele>
        <time>2018-09-15T18:13:53Z</time>
      </trkpt>
      <trkpt lat="-24.6369350" lon="-53.7000220">
        <ele>480.0</ele>
        <time>2018-09-15T18:13:54Z</time>
      </trkpt>
      <trkpt lat="-24.6369190" lon="-53.7000160">
        <ele>480.2</ele>
        <time>2018-09-15T18:13:55Z</time>
      </trkpt>
      <trkpt lat="-24.6369040" lon="-53.7000110">
        <ele>480.3</ele>
        <time>2018-09-15T18:13:56Z</time>
      </trkpt>
      <trkpt lat="-24.6368880" lon="-53.7000030">
        <ele>480.5</ele>
        <time>2018-09-15T18:13:57Z</time>
      </trkpt>
      <trkpt lat="-24.6368730" lon="-53.6999970">
        <ele>480.6</ele>
        <time>2018-09-15T18:13:58Z</time>
      </trkpt>
      <trkpt lat="-24.6368580" lon="-53.6999930">
        <ele>480.7</ele>
        <time>2018-09-15T18:13:59Z</time>
      </trkpt>
      <trkpt lat="-24.6368420" lon="-53.6999870">
        <ele>480.8</ele>
        <time>2018-09-15T18:14:00Z</time>
      </trkpt>
      <trkpt lat="-24.6368110" lon="-53.6999760">
        <ele>481.1</ele>
        <time>2018-09-15T18:14:02Z</time>
      </trkpt>
      <trkpt lat="-24.6367960" lon="-53.6999720">
        <ele>481.3</ele>
        <time>2018-09-15T18:14:03Z</time>
      </trkpt>
      <trkpt lat="-24.6367830" lon="-53.6999680">
        <ele>481.4</ele>
        <time>2018-09-15T18:14:04Z</time>
      </trkpt>
      <trkpt lat="-24.6367690" lon="-53.6999640">
        <ele>481.6</ele>
        <time>2018-09-15T18:14:05Z</time>
      </trkpt>
      <trkpt lat="-24.6367560" lon="-53.6999600">
        <ele>481.7</ele>
        <time>2018-09-15T18:14:06Z</time>
      </trkpt>
      <trkpt lat="-24.6367430" lon="-53.6999560">
        <ele>481.9</ele>
        <time>2018-09-15T18:14:07Z</time>
      </trkpt>
      <trkpt lat="-24.6367290" lon="-53.6999510">
        <ele>482.0</ele>
        <time>2018-09-15T18:14:08Z</time>
      </trkpt>
      <trkpt lat="-24.6367160" lon="-53.6999450">
        <ele>482.1</ele>
        <time>2018-09-15T18:14:09Z</time>
      </trkpt>
      <trkpt lat="-24.6367030" lon="-53.6999420">
        <ele>482.2</ele>
        <time>2018-09-15T18:14:10Z</time>
      </trkpt>
      <trkpt lat="-24.6366890" lon="-53.6999400">
        <ele>482.3</ele>
        <time>2018-09-15T18:14:11Z</time>
      </trkpt>
      <trkpt lat="-24.6366750" lon="-53.6999360">
        <ele>482.4</ele>
        <time>2018-09-15T18:14:12Z</time>
      </trkpt>
      <trkpt lat="-24.6366620" lon="-53.6999310">
        <ele>482.6</ele>
        <time>2018-09-15T18:14:13Z</time>
      </trkpt>
      <trkpt lat="-24.6366480" lon="-53.6999290">
        <ele>482.7</ele>
        <time>2018-09-15T18:14:14Z</time>
      </trkpt>
      <trkpt lat="-24.6366340" lon="-53.6999270">
        <ele>482.9</ele>
        <time>2018-09-15T18:14:15Z</time>
      </trkpt>
      <trkpt lat="-24.6366190" lon="-53.6999230">
        <ele>483.0</ele>
        <time>2018-09-15T18:14:16Z</time>
      </trkpt>
      <trkpt lat="-24.6366190" lon="-53.6999230">
        <ele>483.0</ele>
        <time>2018-09-15T18:14:17Z</time>
      </trkpt>
      <trkpt lat="-24.6366050" lon="-53.6999210">
        <ele>483.2</ele>
        <time>2018-09-15T18:14:18Z</time>
      </trkpt>
      <trkpt lat="-24.6365900" lon="-53.6999200">
        <ele>483.3</ele>
        <time>2018-09-15T18:14:19Z</time>
      </trkpt>
      <trkpt lat="-24.6365740" lon="-53.6999210">
        <ele>483.5</ele>
        <time>2018-09-15T18:14:20Z</time>
      </trkpt>
      <trkpt lat="-24.6365580" lon="-53.6999240">
        <ele>483.7</ele>
        <time>2018-09-15T18:14:21Z</time>
      </trkpt>
      <trkpt lat="-24.6365430" lon="-53.6999300">
        <ele>483.8</ele>
        <time>2018-09-15T18:14:22Z</time>
      </trkpt>
      <trkpt lat="-24.6365280" lon="-53.6999380">
        <ele>483.9</ele>
        <time>2018-09-15T18:14:23Z</time>
      </trkpt>
      <trkpt lat="-24.6365120" lon="-53.6999490">
        <ele>484.0</ele>
        <time>2018-09-15T18:14:24Z</time>
      </trkpt>
      <trkpt lat="-24.6364970" lon="-53.6999600">
        <ele>484.8</ele>
        <time>2018-09-15T18:14:25Z</time>
      </trkpt>
      <trkpt lat="-24.6364840" lon="-53.6999740">
        <ele>484.7</ele>
        <time>2018-09-15T18:14:26Z</time>
      </trkpt>
      <trkpt lat="-24.6364740" lon="-53.6999890">
        <ele>484.7</ele>
        <time>2018-09-15T18:14:27Z</time>
      </trkpt>
      <trkpt lat="-24.6364640" lon="-53.7000050">
        <ele>484.6</ele>
        <time>2018-09-15T18:14:28Z</time>
      </trkpt>
      <trkpt lat="-24.6364580" lon="-53.7000210">
        <ele>484.6</ele>
        <time>2018-09-15T18:14:29Z</time>
      </trkpt>
      <trkpt lat="-24.6364540" lon="-53.7000380">
        <ele>484.6</ele>
        <time>2018-09-15T18:14:30Z</time>
      </trkpt>
      <trkpt lat="-24.6364510" lon="-53.7000570">
        <ele>484.5</ele>
        <time>2018-09-15T18:14:31Z</time>
      </trkpt>
      <trkpt lat="-24.6364490" lon="-53.7000770">
        <ele>484.5</ele>
        <time>2018-09-15T18:14:32Z</time>
      </trkpt>
      <trkpt lat="-24.6364520" lon="-53.7000990">
        <ele>484.5</ele>
        <time>2018-09-15T18:14:33Z</time>
      </trkpt>
      <trkpt lat="-24.6364540" lon="-53.7001210">
        <ele>484.4</ele>
        <time>2018-09-15T18:14:34Z</time>
      </trkpt>
      <trkpt lat="-24.6364560" lon="-53.7001430">
        <ele>484.4</ele>
        <time>2018-09-15T18:14:35Z</time>
      </trkpt>
      <trkpt lat="-24.6364580" lon="-53.7001650">
        <ele>484.3</ele>
        <time>2018-09-15T18:14:36Z</time>
      </trkpt>
      <trkpt lat="-24.6364600" lon="-53.7001870">
        <ele>484.3</ele>
        <time>2018-09-15T18:14:37Z</time>
      </trkpt>
      <trkpt lat="-24.6364630" lon="-53.7002100">
        <ele>484.2</ele>
        <time>2018-09-15T18:14:38Z</time>
      </trkpt>
      <trkpt lat="-24.6364660" lon="-53.7002330">
        <ele>484.2</ele>
        <time>2018-09-15T18:14:39Z</time>
      </trkpt>
      <trkpt lat="-24.6364680" lon="-53.7002580">
        <ele>484.1</ele>
        <time>2018-09-15T18:14:40Z</time>
      </trkpt>
      <trkpt lat="-24.6364700" lon="-53.7002840">
        <ele>484.1</ele>
        <time>2018-09-15T18:14:41Z</time>
      </trkpt>
      <trkpt lat="-24.6364710" lon="-53.7003110">
        <ele>484.1</ele>
        <time>2018-09-15T18:14:42Z</time>
      </trkpt>
      <trkpt lat="-24.6364700" lon="-53.7003400">
        <ele>484.0</ele>
        <time>2018-09-15T18:14:43Z</time>
      </trkpt>
      <trkpt lat="-24.6364690" lon="-53.7003700">
        <ele>484.0</ele>
        <time>2018-09-15T18:14:44Z</time>
      </trkpt>
      <trkpt lat="-24.6364700" lon="-53.7004010">
        <ele>483.9</ele>
        <time>2018-09-15T18:14:45Z</time>
      </trkpt>
      <trkpt lat="-24.6364700" lon="-53.7004330">
        <ele>483.9</ele>
        <time>2018-09-15T18:14:46Z</time>
      </trkpt>
      <trkpt lat="-24.6364680" lon="-53.7004660">
        <ele>483.9</ele>
        <time>2018-09-15T18:14:47Z</time>
      </trkpt>
      <trkpt lat="-24.6364660" lon="-53.7004990">
        <ele>483.9</ele>
        <time>2018-09-15T18:14:48Z</time>
      </trkpt>
      <trkpt lat="-24.6364640" lon="-53.7005330">
        <ele>484.0</ele>
        <time>2018-09-15T18:14:49Z</time>
      </trkpt>
      <trkpt lat="-24.6364590" lon="-53.7005660">
        <ele>484.0</ele>
        <time>2018-09-15T18:14:50Z</time>
      </trkpt>
      <trkpt lat="-24.6364550" lon="-53.7006000">
        <ele>484.0</ele>
        <time>2018-09-15T18:14:51Z</time>
      </trkpt>
      <trkpt lat="-24.6364490" lon="-53.7006340">
        <ele>484.0</ele>
        <time>2018-09-15T18:14:52Z</time>
      </trkpt>
      <trkpt lat="-24.6364420" lon="-53.7006670">
        <ele>484.1</ele>
        <time>2018-09-15T18:14:53Z</time>
      </trkpt>
      <trkpt lat="-24.6364380" lon="-53.7007010">
        <ele>484.2</ele>
        <time>2018-09-15T18:14:54Z</time>
      </trkpt>
      <trkpt lat="-24.6364320" lon="-53.7007350">
        <ele>484.2</ele>
        <time>2018-09-15T18:14:55Z</time>
      </trkpt>
      <trkpt lat="-24.6364230" lon="-53.7007680">
        <ele>484.3</ele>
        <time>2018-09-15T18:14:56Z</time>
      </trkpt>
      <trkpt lat="-24.6364120" lon="-53.7008000">
        <ele>484.4</ele>
        <time>2018-09-15T18:14:57Z</time>
      </trkpt>
      <trkpt lat="-24.6363980" lon="-53.7008340">
        <ele>484.5</ele>
        <time>2018-09-15T18:14:58Z</time>
      </trkpt>
      <trkpt lat="-24.6363850" lon="-53.7008710">
        <ele>484.5</ele>
        <time>2018-09-15T18:14:59Z</time>
      </trkpt>
      <trkpt lat="-24.6363710" lon="-53.7009070">
        <ele>484.7</ele>
        <time>2018-09-15T18:15:00Z</time>
      </trkpt>
      <trkpt lat="-24.6363560" lon="-53.7009430">
        <ele>484.9</ele>
        <time>2018-09-15T18:15:01Z</time>
      </trkpt>
      <trkpt lat="-24.6363370" lon="-53.7009780">
        <ele>484.9</ele>
        <time>2018-09-15T18:15:02Z</time>
      </trkpt>
      <trkpt lat="-24.6363170" lon="-53.7010110">
        <ele>484.9</ele>
        <time>2018-09-15T18:15:03Z</time>
      </trkpt>
      <trkpt lat="-24.6362970" lon="-53.7010450">
        <ele>485.0</ele>
        <time>2018-09-15T18:15:04Z</time>
      </trkpt>
      <trkpt lat="-24.6362780" lon="-53.7010810">
        <ele>485.0</ele>
        <time>2018-09-15T18:15:05Z</time>
      </trkpt>
      <trkpt lat="-24.6362590" lon="-53.7011180">
        <ele>485.1</ele>
        <time>2018-09-15T18:15:06Z</time>
      </trkpt>
      <trkpt lat="-24.6362410" lon="-53.7011540">
        <ele>485.1</ele>
        <time>2018-09-15T18:15:07Z</time>
      </trkpt>
      <trkpt lat="-24.6362210" lon="-53.7011910">
        <ele>485.1</ele>
        <time>2018-09-15T18:15:08Z</time>
      </trkpt>
      <trkpt lat="-24.6362010" lon="-53.7012280">
        <ele>485.2</ele>
        <time>2018-09-15T18:15:09Z</time>
      </trkpt>
      <trkpt lat="-24.6361800" lon="-53.7012680">
        <ele>485.2</ele>
        <time>2018-09-15T18:15:10Z</time>
      </trkpt>
      <trkpt lat="-24.6361580" lon="-53.7013070">
        <ele>485.3</ele>
        <time>2018-09-15T18:15:11Z</time>
      </trkpt>
      <trkpt lat="-24.6361370" lon="-53.7013490">
        <ele>485.3</ele>
        <time>2018-09-15T18:15:12Z</time>
      </trkpt>
      <trkpt lat="-24.6361150" lon="-53.7013910">
        <ele>485.4</ele>
        <time>2018-09-15T18:15:13Z</time>
      </trkpt>
      <trkpt lat="-24.6360930" lon="-53.7014340">
        <ele>485.4</ele>
        <time>2018-09-15T18:15:14Z</time>
      </trkpt>
      <trkpt lat="-24.6360720" lon="-53.7014770">
        <ele>485.5</ele>
        <time>2018-09-15T18:15:15Z</time>
      </trkpt>
      <trkpt lat="-24.6360520" lon="-53.7015220">
        <ele>485.5</ele>
        <time>2018-09-15T18:15:16Z</time>
      </trkpt>
      <trkpt lat="-24.6360330" lon="-53.7015680">
        <ele>485.4</ele>
        <time>2018-09-15T18:15:17Z</time>
      </trkpt>
      <trkpt lat="-24.6360150" lon="-53.7016150">
        <ele>485.4</ele>
        <time>2018-09-15T18:15:18Z</time>
      </trkpt>
      <trkpt lat="-24.6359960" lon="-53.7016620">
        <ele>485.4</ele>
        <time>2018-09-15T18:15:19Z</time>
      </trkpt>
      <trkpt lat="-24.6359770" lon="-53.7017110">
        <ele>485.3</ele>
        <time>2018-09-15T18:15:20Z</time>
      </trkpt>
      <trkpt lat="-24.6359560" lon="-53.7017550">
        <ele>485.3</ele>
        <time>2018-09-15T18:15:21Z</time>
      </trkpt>
      <trkpt lat="-24.6359350" lon="-53.7018000">
        <ele>485.3</ele>
        <time>2018-09-15T18:15:22Z</time>
      </trkpt>
      <trkpt lat="-24.6359150" lon="-53.7018470">
        <ele>485.2</ele>
        <time>2018-09-15T18:15:23Z</time>
      </trkpt>
      <trkpt lat="-24.6358950" lon="-53.7018940">
        <ele>485.2</ele>
        <time>2018-09-15T18:15:24Z</time>
      </trkpt>
      <trkpt lat="-24.6358750" lon="-53.7019410">
        <ele>485.2</ele>
        <time>2018-09-15T18:15:25Z</time>
      </trkpt>
      <trkpt lat="-24.6358540" lon="-53.7019860">
        <ele>485.1</ele>
        <time>2018-09-15T18:15:26Z</time>
      </trkpt>
      <trkpt lat="-24.6358340" lon="-53.7020310">
        <ele>485.1</ele>
        <time>2018-09-15T18:15:27Z</time>
      </trkpt>
      <trkpt lat="-24.6358140" lon="-53.7020750">
        <ele>485.0</ele>
        <time>2018-09-15T18:15:28Z</time>
      </trkpt>
      <trkpt lat="-24.6357930" lon="-53.7021190">
        <ele>484.9</ele>
        <time>2018-09-15T18:15:29Z</time>
      </trkpt>
      <trkpt lat="-24.6357700" lon="-53.7021610">
        <ele>484.9</ele>
        <time>2018-09-15T18:15:30Z</time>
      </trkpt>
      <trkpt lat="-24.6357470" lon="-53.7022020">
        <ele>484.8</ele>
        <time>2018-09-15T18:15:31Z</time>
      </trkpt>
      <trkpt lat="-24.6357240" lon="-53.7022420">
        <ele>484.7</ele>
        <time>2018-09-15T18:15:32Z</time>
      </trkpt>
      <trkpt lat="-24.6357000" lon="-53.7022820">
        <ele>484.7</ele>
        <time>2018-09-15T18:15:33Z</time>
      </trkpt>
      <trkpt lat="-24.6356740" lon="-53.7023210">
        <ele>484.6</ele>
        <time>2018-09-15T18:15:34Z</time>
      </trkpt>
      <trkpt lat="-24.6356510" lon="-53.7023600">
        <ele>484.5</ele>
        <time>2018-09-15T18:15:35Z</time>
      </trkpt>
      <trkpt lat="-24.6356290" lon="-53.7023970">
        <ele>484.5</ele>
        <time>2018-09-15T18:15:36Z</time>
      </trkpt>
      <trkpt lat="-24.6356040" lon="-53.7024330">
        <ele>484.4</ele>
        <time>2018-09-15T18:15:37Z</time>
      </trkpt>
      <trkpt lat="-24.6355790" lon="-53.7024700">
        <ele>484.3</ele>
        <time>2018-09-15T18:15:38Z</time>
      </trkpt>
      <trkpt lat="-24.6355510" lon="-53.7025080">
        <ele>484.2</ele>
        <time>2018-09-15T18:15:39Z</time>
      </trkpt>
      <trkpt lat="-24.6355230" lon="-53.7025470">
        <ele>484.0</ele>
        <time>2018-09-15T18:15:40Z</time>
      </trkpt>
      <trkpt lat="-24.6354950" lon="-53.7025870">
        <ele>483.9</ele>
        <time>2018-09-15T18:15:41Z</time>
      </trkpt>
      <trkpt lat="-24.6354670" lon="-53.7026270">
        <ele>483.7</ele>
        <time>2018-09-15T18:15:42Z</time>
      </trkpt>
      <trkpt lat="-24.6354360" lon="-53.7026670">
        <ele>483.5</ele>
        <time>2018-09-15T18:15:43Z</time>
      </trkpt>
      <trkpt lat="-24.6354070" lon="-53.7027080">
        <ele>483.4</ele>
        <time>2018-09-15T18:15:44Z</time>
      </trkpt>
      <trkpt lat="-24.6353810" lon="-53.7027490">
        <ele>483.2</ele>
        <time>2018-09-15T18:15:45Z</time>
      </trkpt>
      <trkpt lat="-24.6353560" lon="-53.7027890">
        <ele>483.1</ele>
        <time>2018-09-15T18:15:46Z</time>
      </trkpt>
      <trkpt lat="-24.6353310" lon="-53.7028310">
        <ele>483.0</ele>
        <time>2018-09-15T18:15:47Z</time>
      </trkpt>
      <trkpt lat="-24.6353070" lon="-53.7028710">
        <ele>483.0</ele>
        <time>2018-09-15T18:15:48Z</time>
      </trkpt>
      <trkpt lat="-24.6352820" lon="-53.7029100">
        <ele>482.9</ele>
        <time>2018-09-15T18:15:49Z</time>
      </trkpt>
      <trkpt lat="-24.6352560" lon="-53.7029480">
        <ele>482.9</ele>
        <time>2018-09-15T18:15:50Z</time>
      </trkpt>
      <trkpt lat="-24.6352320" lon="-53.7029860">
        <ele>482.8</ele>
        <time>2018-09-15T18:15:51Z</time>
      </trkpt>
      <trkpt lat="-24.6352070" lon="-53.7030210">
        <ele>482.8</ele>
        <time>2018-09-15T18:15:52Z</time>
      </trkpt>
      <trkpt lat="-24.6351810" lon="-53.7030560">
        <ele>482.8</ele>
        <time>2018-09-15T18:15:53Z</time>
      </trkpt>
      <trkpt lat="-24.6351560" lon="-53.7030880">
        <ele>482.8</ele>
        <time>2018-09-15T18:15:54Z</time>
      </trkpt>
      <trkpt lat="-24.6351310" lon="-53.7031210">
        <ele>482.9</ele>
        <time>2018-09-15T18:15:55Z</time>
      </trkpt>
      <trkpt lat="-24.6351040" lon="-53.7031540">
        <ele>483.0</ele>
        <time>2018-09-15T18:15:56Z</time>
      </trkpt>
      <trkpt lat="-24.6350780" lon="-53.7031860">
        <ele>483.1</ele>
        <time>2018-09-15T18:15:57Z</time>
      </trkpt>
      <trkpt lat="-24.6350510" lon="-53.7032150">
        <ele>483.2</ele>
        <time>2018-09-15T18:15:58Z</time>
      </trkpt>
      <trkpt lat="-24.6350240" lon="-53.7032460">
        <ele>483.3</ele>
        <time>2018-09-15T18:15:59Z</time>
      </trkpt>
      <trkpt lat="-24.6349960" lon="-53.7032760">
        <ele>483.4</ele>
        <time>2018-09-15T18:16:00Z</time>
      </trkpt>
      <trkpt lat="-24.6349670" lon="-53.7033020">
        <ele>483.6</ele>
        <time>2018-09-15T18:16:01Z</time>
      </trkpt>
      <trkpt lat="-24.6349380" lon="-53.7033270">
        <ele>483.8</ele>
        <time>2018-09-15T18:16:02Z</time>
      </trkpt>
      <trkpt lat="-24.6349110" lon="-53.7033490">
        <ele>483.9</ele>
        <time>2018-09-15T18:16:03Z</time>
      </trkpt>
      <trkpt lat="-24.6348830" lon="-53.7033710">
        <ele>484.1</ele>
        <time>2018-09-15T18:16:04Z</time>
      </trkpt>
      <trkpt lat="-24.6348550" lon="-53.7033910">
        <ele>484.4</ele>
        <time>2018-09-15T18:16:05Z</time>
      </trkpt>
      <trkpt lat="-24.6348280" lon="-53.7034090">
        <ele>484.7</ele>
        <time>2018-09-15T18:16:06Z</time>
      </trkpt>
      <trkpt lat="-24.6348000" lon="-53.7034240">
        <ele>485.0</ele>
        <time>2018-09-15T18:16:07Z</time>
      </trkpt>
      <trkpt lat="-24.6347750" lon="-53.7034410">
        <ele>485.3</ele>
        <time>2018-09-15T18:16:08Z</time>
      </trkpt>
      <trkpt lat="-24.6347500" lon="-53.7034570">
        <ele>485.5</ele>
        <time>2018-09-15T18:16:09Z</time>
      </trkpt>
      <trkpt lat="-24.6347260" lon="-53.7034710">
        <ele>485.8</ele>
        <time>2018-09-15T18:16:10Z</time>
      </trkpt>
      <trkpt lat="-24.6347020" lon="-53.7034850">
        <ele>486.0</ele>
        <time>2018-09-15T18:16:11Z</time>
      </trkpt>
      <trkpt lat="-24.6346790" lon="-53.7034970">
        <ele>486.2</ele>
        <time>2018-09-15T18:16:12Z</time>
      </trkpt>
      <trkpt lat="-24.6346560" lon="-53.7035090">
        <ele>486.5</ele>
        <time>2018-09-15T18:16:13Z</time>
      </trkpt>
      <trkpt lat="-24.6346360" lon="-53.7035200">
        <ele>486.6</ele>
        <time>2018-09-15T18:16:14Z</time>
      </trkpt>
      <trkpt lat="-24.6346160" lon="-53.7035300">
        <ele>486.8</ele>
        <time>2018-09-15T18:16:15Z</time>
      </trkpt>
      <trkpt lat="-24.6345970" lon="-53.7035390">
        <ele>487.0</ele>
        <time>2018-09-15T18:16:16Z</time>
      </trkpt>
      <trkpt lat="-24.6345750" lon="-53.7035480">
        <ele>487.2</ele>
        <time>2018-09-15T18:16:17Z</time>
      </trkpt>
      <trkpt lat="-24.6345510" lon="-53.7035610">
        <ele>487.4</ele>
        <time>2018-09-15T18:16:18Z</time>
      </trkpt>
      <trkpt lat="-24.6345300" lon="-53.7035750">
        <ele>487.6</ele>
        <time>2018-09-15T18:16:19Z</time>
      </trkpt>
      <trkpt lat="-24.6345090" lon="-53.7035870">
        <ele>487.8</ele>
        <time>2018-09-15T18:16:20Z</time>
      </trkpt>
      <trkpt lat="-24.6344890" lon="-53.7035980">
        <ele>488.0</ele>
        <time>2018-09-15T18:16:21Z</time>
      </trkpt>
      <trkpt lat="-24.6344680" lon="-53.7036090">
        <ele>488.2</ele>
        <time>2018-09-15T18:16:22Z</time>
      </trkpt>
      <trkpt lat="-24.6344470" lon="-53.7036190">
        <ele>488.4</ele>
        <time>2018-09-15T18:16:23Z</time>
      </trkpt>
      <trkpt lat="-24.6344260" lon="-53.7036290">
        <ele>488.6</ele>
        <time>2018-09-15T18:16:24Z</time>
      </trkpt>
      <trkpt lat="-24.6344060" lon="-53.7036400">
        <ele>488.7</ele>
        <time>2018-09-15T18:16:25Z</time>
      </trkpt>
      <trkpt lat="-24.6343870" lon="-53.7036510">
        <ele>488.9</ele>
        <time>2018-09-15T18:16:26Z</time>
      </trkpt>
      <trkpt lat="-24.6343680" lon="-53.7036620">
        <ele>489.1</ele>
        <time>2018-09-15T18:16:27Z</time>
      </trkpt>
      <trkpt lat="-24.6343490" lon="-53.7036740">
        <ele>489.3</ele>
        <time>2018-09-15T18:16:28Z</time>
      </trkpt>
      <trkpt lat="-24.6343310" lon="-53.7036830">
        <ele>489.4</ele>
        <time>2018-09-15T18:16:29Z</time>
      </trkpt>
      <trkpt lat="-24.6343130" lon="-53.7036910">
        <ele>489.6</ele>
        <time>2018-09-15T18:16:30Z</time>
      </trkpt>
      <trkpt lat="-24.6342940" lon="-53.7037010">
        <ele>489.7</ele>
        <time>2018-09-15T18:16:31Z</time>
      </trkpt>
      <trkpt lat="-24.6342740" lon="-53.7037110">
        <ele>489.9</ele>
        <time>2018-09-15T18:16:32Z</time>
      </trkpt>
      <trkpt lat="-24.6342510" lon="-53.7037220">
        <ele>490.1</ele>
        <time>2018-09-15T18:16:33Z</time>
      </trkpt>
      <trkpt lat="-24.6342270" lon="-53.7037320">
        <ele>490.3</ele>
        <time>2018-09-15T18:16:34Z</time>
      </trkpt>
      <trkpt lat="-24.6342050" lon="-53.7037430">
        <ele>490.5</ele>
        <time>2018-09-15T18:16:35Z</time>
      </trkpt>
      <trkpt lat="-24.6341830" lon="-53.7037550">
        <ele>490.7</ele>
        <time>2018-09-15T18:16:36Z</time>
      </trkpt>
      <trkpt lat="-24.6341620" lon="-53.7037650">
        <ele>490.9</ele>
        <time>2018-09-15T18:16:37Z</time>
      </trkpt>
      <trkpt lat="-24.6341410" lon="-53.7037750">
        <ele>491.1</ele>
        <time>2018-09-15T18:16:38Z</time>
      </trkpt>
      <trkpt lat="-24.6341210" lon="-53.7037860">
        <ele>491.3</ele>
        <time>2018-09-15T18:16:39Z</time>
      </trkpt>
      <trkpt lat="-24.6341010" lon="-53.7037960">
        <ele>491.5</ele>
        <time>2018-09-15T18:16:40Z</time>
      </trkpt>
      <trkpt lat="-24.6340820" lon="-53.7038050">
        <ele>491.7</ele>
        <time>2018-09-15T18:16:41Z</time>
      </trkpt>
      <trkpt lat="-24.6340630" lon="-53.7038140">
        <ele>491.8</ele>
        <time>2018-09-15T18:16:42Z</time>
      </trkpt>
      <trkpt lat="-24.6340430" lon="-53.7038240">
        <ele>492.0</ele>
        <time>2018-09-15T18:16:43Z</time>
      </trkpt>
      <trkpt lat="-24.6340220" lon="-53.7038340">
        <ele>492.2</ele>
        <time>2018-09-15T18:16:44Z</time>
      </trkpt>
      <trkpt lat="-24.6340030" lon="-53.7038450">
        <ele>492.4</ele>
        <time>2018-09-15T18:16:45Z</time>
      </trkpt>
      <trkpt lat="-24.6339830" lon="-53.7038590">
        <ele>492.6</ele>
        <time>2018-09-15T18:16:46Z</time>
      </trkpt>
      <trkpt lat="-24.6339620" lon="-53.7038690">
        <ele>492.8</ele>
        <time>2018-09-15T18:16:47Z</time>
      </trkpt>
      <trkpt lat="-24.6339400" lon="-53.7038780">
        <ele>493.0</ele>
        <time>2018-09-15T18:16:48Z</time>
      </trkpt>
      <trkpt lat="-24.6339190" lon="-53.7038880">
        <ele>493.3</ele>
        <time>2018-09-15T18:16:49Z</time>
      </trkpt>
      <trkpt lat="-24.6338990" lon="-53.7038980">
        <ele>493.5</ele>
        <time>2018-09-15T18:16:50Z</time>
      </trkpt>
      <trkpt lat="-24.6338810" lon="-53.7039060">
        <ele>493.6</ele>
        <time>2018-09-15T18:16:51Z</time>
      </trkpt>
      <trkpt lat="-24.6338640" lon="-53.7039160">
        <ele>493.8</ele>
        <time>2018-09-15T18:16:52Z</time>
      </trkpt>
      <trkpt lat="-24.6338460" lon="-53.7039280">
        <ele>494.0</ele>
        <time>2018-09-15T18:16:53Z</time>
      </trkpt>
      <trkpt lat="-24.6338270" lon="-53.7039400">
        <ele>494.2</ele>
        <time>2018-09-15T18:16:54Z</time>
      </trkpt>
      <trkpt lat="-24.6338070" lon="-53.7039490">
        <ele>494.4</ele>
        <time>2018-09-15T18:16:55Z</time>
      </trkpt>
      <trkpt lat="-24.6337890" lon="-53.7039560">
        <ele>494.6</ele>
        <time>2018-09-15T18:16:56Z</time>
      </trkpt>
      <trkpt lat="-24.6337710" lon="-53.7039640">
        <ele>494.9</ele>
        <time>2018-09-15T18:16:57Z</time>
      </trkpt>
      <trkpt lat="-24.6337550" lon="-53.7039720">
        <ele>495.0</ele>
        <time>2018-09-15T18:16:58Z</time>
      </trkpt>
      <trkpt lat="-24.6337240" lon="-53.7039870">
        <ele>495.4</ele>
        <time>2018-09-15T18:16:59Z</time>
      </trkpt>
      <trkpt lat="-24.6337090" lon="-53.7039940">
        <ele>495.6</ele>
        <time>2018-09-15T18:17:01Z</time>
      </trkpt>
      <trkpt lat="-24.6336960" lon="-53.7040020">
        <ele>495.8</ele>
        <time>2018-09-15T18:17:02Z</time>
      </trkpt>
      <trkpt lat="-24.6336810" lon="-53.7040100">
        <ele>496.0</ele>
        <time>2018-09-15T18:17:03Z</time>
      </trkpt>
      <trkpt lat="-24.6336650" lon="-53.7040160">
        <ele>496.2</ele>
        <time>2018-09-15T18:17:04Z</time>
      </trkpt>
      <trkpt lat="-24.6336480" lon="-53.7040220">
        <ele>496.4</ele>
        <time>2018-09-15T18:17:05Z</time>
      </trkpt>
      <trkpt lat="-24.6336300" lon="-53.7040320">
        <ele>496.7</ele>
        <time>2018-09-15T18:17:06Z</time>
      </trkpt>
      <trkpt lat="-24.6336120" lon="-53.7040410">
        <ele>497.0</ele>
        <time>2018-09-15T18:17:07Z</time>
      </trkpt>
      <trkpt lat="-24.6335920" lon="-53.7040520">
        <ele>497.3</ele>
        <time>2018-09-15T18:17:08Z</time>
      </trkpt>
      <trkpt lat="-24.6335750" lon="-53.7040600">
        <ele>497.5</ele>
        <time>2018-09-15T18:17:09Z</time>
      </trkpt>
      <trkpt lat="-24.6335560" lon="-53.7040700">
        <ele>497.6</ele>
        <time>2018-09-15T18:17:10Z</time>
      </trkpt>
      <trkpt lat="-24.6335390" lon="-53.7040780">
        <ele>497.7</ele>
        <time>2018-09-15T18:17:11Z</time>
      </trkpt>
      <trkpt lat="-24.6335200" lon="-53.7040860">
        <ele>497.8</ele>
        <time>2018-09-15T18:17:12Z</time>
      </trkpt>
      <trkpt lat="-24.6335020" lon="-53.7040960">
        <ele>498.0</ele>
        <time>2018-09-15T18:17:13Z</time>
      </trkpt>
      <trkpt lat="-24.6334850" lon="-53.7041050">
        <ele>498.1</ele>
        <time>2018-09-15T18:17:14Z</time>
      </trkpt>
      <trkpt lat="-24.6334680" lon="-53.7041130">
        <ele>498.2</ele>
        <time>2018-09-15T18:17:15Z</time>
      </trkpt>
      <trkpt lat="-24.6334500" lon="-53.7041220">
        <ele>498.3</ele>
        <time>2018-09-15T18:17:16Z</time>
      </trkpt>
      <trkpt lat="-24.6334320" lon="-53.7041310">
        <ele>498.4</ele>
        <time>2018-09-15T18:17:17Z</time>
      </trkpt>
      <trkpt lat="-24.6333980" lon="-53.7041460">
        <ele>498.7</ele>
        <time>2018-09-15T18:17:18Z</time>
      </trkpt>
      <trkpt lat="-24.6333810" lon="-53.7041540">
        <ele>498.8</ele>
        <time>2018-09-15T18:17:19Z</time>
      </trkpt>
      <trkpt lat="-24.6333640" lon="-53.7041620">
        <ele>498.9</ele>
        <time>2018-09-15T18:17:20Z</time>
      </trkpt>
      <trkpt lat="-24.6333470" lon="-53.7041710">
        <ele>499.0</ele>
        <time>2018-09-15T18:17:21Z</time>
      </trkpt>
      <trkpt lat="-24.6333270" lon="-53.7041820">
        <ele>499.1</ele>
        <time>2018-09-15T18:17:22Z</time>
      </trkpt>
      <trkpt lat="-24.6333060" lon="-53.7041930">
        <ele>499.3</ele>
        <time>2018-09-15T18:17:23Z</time>
      </trkpt>
      <trkpt lat="-24.6332850" lon="-53.7042030">
        <ele>499.4</ele>
        <time>2018-09-15T18:17:24Z</time>
      </trkpt>
      <trkpt lat="-24.6332650" lon="-53.7042140">
        <ele>499.6</ele>
        <time>2018-09-15T18:17:25Z</time>
      </trkpt>
      <trkpt lat="-24.6332460" lon="-53.7042240">
        <ele>499.7</ele>
        <time>2018-09-15T18:17:26Z</time>
      </trkpt>
      <trkpt lat="-24.6332270" lon="-53.7042330">
        <ele>499.8</ele>
        <time>2018-09-15T18:17:27Z</time>
      </trkpt>
      <trkpt lat="-24.6332080" lon="-53.7042400">
        <ele>499.9</ele>
        <time>2018-09-15T18:17:28Z</time>
      </trkpt>
      <trkpt lat="-24.6331890" lon="-53.7042470">
        <ele>500.1</ele>
        <time>2018-09-15T18:17:29Z</time>
      </trkpt>
      <trkpt lat="-24.6331680" lon="-53.7042570">
        <ele>500.2</ele>
        <time>2018-09-15T18:17:30Z</time>
      </trkpt>
      <trkpt lat="-24.6331490" lon="-53.7042680">
        <ele>500.3</ele>
        <time>2018-09-15T18:17:31Z</time>
      </trkpt>
      <trkpt lat="-24.6331310" lon="-53.7042780">
        <ele>500.4</ele>
        <time>2018-09-15T18:17:32Z</time>
      </trkpt>
      <trkpt lat="-24.6331130" lon="-53.7042870">
        <ele>500.5</ele>
        <time>2018-09-15T18:17:33Z</time>
      </trkpt>
      <trkpt lat="-24.6330960" lon="-53.7042980">
        <ele>500.5</ele>
        <time>2018-09-15T18:17:34Z</time>
      </trkpt>
      <trkpt lat="-24.6330780" lon="-53.7043060">
        <ele>500.6</ele>
        <time>2018-09-15T18:17:35Z</time>
      </trkpt>
      <trkpt lat="-24.6330600" lon="-53.7043150">
        <ele>500.7</ele>
        <time>2018-09-15T18:17:36Z</time>
      </trkpt>
      <trkpt lat="-24.6330200" lon="-53.7043340">
        <ele>500.9</ele>
        <time>2018-09-15T18:17:38Z</time>
      </trkpt>
      <trkpt lat="-24.6330010" lon="-53.7043440">
        <ele>501.0</ele>
        <time>2018-09-15T18:17:39Z</time>
      </trkpt>
      <trkpt lat="-24.6329810" lon="-53.7043520">
        <ele>501.1</ele>
        <time>2018-09-15T18:17:40Z</time>
      </trkpt>
      <trkpt lat="-24.6329630" lon="-53.7043610">
        <ele>501.2</ele>
        <time>2018-09-15T18:17:41Z</time>
      </trkpt>
      <trkpt lat="-24.6329450" lon="-53.7043730">
        <ele>501.3</ele>
        <time>2018-09-15T18:17:42Z</time>
      </trkpt>
      <trkpt lat="-24.6329260" lon="-53.7043810">
        <ele>501.4</ele>
        <time>2018-09-15T18:17:43Z</time>
      </trkpt>
      <trkpt lat="-24.6329080" lon="-53.7043900">
        <ele>501.4</ele>
        <time>2018-09-15T18:17:44Z</time>
      </trkpt>
      <trkpt lat="-24.6328900" lon="-53.7043990">
        <ele>501.5</ele>
        <time>2018-09-15T18:17:45Z</time>
      </trkpt>
      <trkpt lat="-24.6328730" lon="-53.7044070">
        <ele>501.6</ele>
        <time>2018-09-15T18:17:46Z</time>
      </trkpt>
      <trkpt lat="-24.6328560" lon="-53.7044150">
        <ele>501.7</ele>
        <time>2018-09-15T18:17:47Z</time>
      </trkpt>
      <trkpt lat="-24.6328400" lon="-53.7044230">
        <ele>501.8</ele>
        <time>2018-09-15T18:17:48Z</time>
      </trkpt>
      <trkpt lat="-24.6328240" lon="-53.7044310">
        <ele>501.8</ele>
        <time>2018-09-15T18:17:49Z</time>
      </trkpt>
      <trkpt lat="-24.6328070" lon="-53.7044390">
        <ele>501.9</ele>
        <time>2018-09-15T18:17:50Z</time>
      </trkpt>
      <trkpt lat="-24.6327900" lon="-53.7044480">
        <ele>502.0</ele>
        <time>2018-09-15T18:17:51Z</time>
      </trkpt>
      <trkpt lat="-24.6327720" lon="-53.7044560">
        <ele>502.1</ele>
        <time>2018-09-15T18:17:52Z</time>
      </trkpt>
      <trkpt lat="-24.6327530" lon="-53.7044660">
        <ele>502.2</ele>
        <time>2018-09-15T18:17:53Z</time>
      </trkpt>
      <trkpt lat="-24.6327340" lon="-53.7044770">
        <ele>502.3</ele>
        <time>2018-09-15T18:17:54Z</time>
      </trkpt>
      <trkpt lat="-24.6327150" lon="-53.7044870">
        <ele>502.4</ele>
        <time>2018-09-15T18:17:55Z</time>
      </trkpt>
      <trkpt lat="-24.6326950" lon="-53.7044980">
        <ele>502.5</ele>
        <time>2018-09-15T18:17:56Z</time>
      </trkpt>
      <trkpt lat="-24.6326770" lon="-53.7045080">
        <ele>502.6</ele>
        <time>2018-09-15T18:17:57Z</time>
      </trkpt>
      <trkpt lat="-24.6326610" lon="-53.7045140">
        <ele>502.6</ele>
        <time>2018-09-15T18:17:58Z</time>
      </trkpt>
      <trkpt lat="-24.6326460" lon="-53.7045180">
        <ele>502.7</ele>
        <time>2018-09-15T18:17:59Z</time>
      </trkpt>
      <trkpt lat="-24.6326350" lon="-53.7045220">
        <ele>502.7</ele>
        <time>2018-09-15T18:18:00Z</time>
      </trkpt>
      <trkpt lat="-24.6326320" lon="-53.7045250">
        <ele>502.8</ele>
        <time>2018-09-15T18:18:01Z</time>
      </trkpt>
      <trkpt lat="-24.6326320" lon="-53.7045250">
        <ele>502.8</ele>
        <time>2018-09-15T18:18:02Z</time>
      </trkpt>
      <trkpt lat="-24.6326290" lon="-53.7045240">
        <ele>502.8</ele>
        <time>2018-09-15T18:19:32Z</time>
      </trkpt>
      <trkpt lat="-24.6326300" lon="-53.7045240">
        <ele>502.8</ele>
        <time>2018-09-15T18:19:33Z</time>
      </trkpt>
      <trkpt lat="-24.6326300" lon="-53.7045260">
        <ele>502.8</ele>
        <time>2018-09-15T18:19:34Z</time>
      </trkpt>
      <trkpt lat="-24.6326340" lon="-53.7045220">
        <ele>502.8</ele>
        <time>2018-09-15T18:22:21Z</time>
      </trkpt>
      <trkpt lat="-24.6326280" lon="-53.7045250">
        <ele>502.8</ele>
        <time>2018-09-15T18:22:22Z</time>
      </trkpt>
      <trkpt lat="-24.6326170" lon="-53.7045330">
        <ele>502.9</ele>
        <time>2018-09-15T18:22:23Z</time>
      </trkpt>
      <trkpt lat="-24.6326010" lon="-53.7045410">
        <ele>503.0</ele>
        <time>2018-09-15T18:22:24Z</time>
      </trkpt>
      <trkpt lat="-24.6325830" lon="-53.7045490">
        <ele>503.1</ele>
        <time>2018-09-15T18:22:25Z</time>
      </trkpt>
      <trkpt lat="-24.6325650" lon="-53.7045580">
        <ele>503.1</ele>
        <time>2018-09-15T18:22:26Z</time>
      </trkpt>
      <trkpt lat="-24.6325450" lon="-53.7045680">
        <ele>503.2</ele>
        <time>2018-09-15T18:22:27Z</time>
      </trkpt>
      <trkpt lat="-24.6325250" lon="-53.7045800">
        <ele>503.3</ele>
        <time>2018-09-15T18:22:28Z</time>
      </trkpt>
      <trkpt lat="-24.6325010" lon="-53.7045930">
        <ele>503.4</ele>
        <time>2018-09-15T18:22:29Z</time>
      </trkpt>
      <trkpt lat="-24.6324740" lon="-53.7046070">
        <ele>503.5</ele>
        <time>2018-09-15T18:22:30Z</time>
      </trkpt>
      <trkpt lat="-24.6324440" lon="-53.7046220">
        <ele>503.6</ele>
        <time>2018-09-15T18:22:31Z</time>
      </trkpt>
      <trkpt lat="-24.6324140" lon="-53.7046370">
        <ele>503.6</ele>
        <time>2018-09-15T18:22:32Z</time>
      </trkpt>
      <trkpt lat="-24.6323840" lon="-53.7046530">
        <ele>503.7</ele>
        <time>2018-09-15T18:22:33Z</time>
      </trkpt>
      <trkpt lat="-24.6323540" lon="-53.7046700">
        <ele>503.7</ele>
        <time>2018-09-15T18:22:34Z</time>
      </trkpt>
      <trkpt lat="-24.6323220" lon="-53.7046860">
        <ele>503.7</ele>
        <time>2018-09-15T18:22:35Z</time>
      </trkpt>
      <trkpt lat="-24.6322890" lon="-53.7047030">
        <ele>503.7</ele>
        <time>2018-09-15T18:22:36Z</time>
      </trkpt>
      <trkpt lat="-24.6322570" lon="-53.7047210">
        <ele>503.7</ele>
        <time>2018-09-15T18:22:37Z</time>
      </trkpt>
      <trkpt lat="-24.6322230" lon="-53.7047380">
        <ele>503.7</ele>
        <time>2018-09-15T18:22:38Z</time>
      </trkpt>
      <trkpt lat="-24.6321880" lon="-53.7047570">
        <ele>503.7</ele>
        <time>2018-09-15T18:22:39Z</time>
      </trkpt>
      <trkpt lat="-24.6321520" lon="-53.7047750">
        <ele>503.7</ele>
        <time>2018-09-15T18:22:40Z</time>
      </trkpt>
      <trkpt lat="-24.6321160" lon="-53.7047950">
        <ele>503.7</ele>
        <time>2018-09-15T18:22:41Z</time>
      </trkpt>
      <trkpt lat="-24.6320780" lon="-53.7048160">
        <ele>503.7</ele>
        <time>2018-09-15T18:22:42Z</time>
      </trkpt>
      <trkpt lat="-24.6320390" lon="-53.7048360">
        <ele>503.7</ele>
        <time>2018-09-15T18:22:43Z</time>
      </trkpt>
      <trkpt lat="-24.6320000" lon="-53.7048570">
        <ele>503.7</ele>
        <time>2018-09-15T18:22:44Z</time>
      </trkpt>
      <trkpt lat="-24.6319610" lon="-53.7048760">
        <ele>503.6</ele>
        <time>2018-09-15T18:22:45Z</time>
      </trkpt>
      <trkpt lat="-24.6319230" lon="-53.7048950">
        <ele>503.6</ele>
        <time>2018-09-15T18:22:46Z</time>
      </trkpt>
      <trkpt lat="-24.6318800" lon="-53.7049170">
        <ele>503.6</ele>
        <time>2018-09-15T18:22:47Z</time>
      </trkpt>
      <trkpt lat="-24.6318360" lon="-53.7049410">
        <ele>503.6</ele>
        <time>2018-09-15T18:22:48Z</time>
      </trkpt>
      <trkpt lat="-24.6317910" lon="-53.7049650">
        <ele>503.6</ele>
        <time>2018-09-15T18:22:49Z</time>
      </trkpt>
      <trkpt lat="-24.6317450" lon="-53.7049900">
        <ele>503.5</ele>
        <time>2018-09-15T18:22:50Z</time>
      </trkpt>
      <trkpt lat="-24.6316980" lon="-53.7050150">
        <ele>503.4</ele>
        <time>2018-09-15T18:22:51Z</time>
      </trkpt>
      <trkpt lat="-24.6316500" lon="-53.7050390">
        <ele>503.4</ele>
        <time>2018-09-15T18:22:52Z</time>
      </trkpt>
      <trkpt lat="-24.6316020" lon="-53.7050640">
        <ele>503.3</ele>
        <time>2018-09-15T18:22:53Z</time>
      </trkpt>
      <trkpt lat="-24.6315520" lon="-53.7050860">
        <ele>503.3</ele>
        <time>2018-09-15T18:22:54Z</time>
      </trkpt>
      <trkpt lat="-24.6315020" lon="-53.7051100">
        <ele>503.2</ele>
        <time>2018-09-15T18:22:55Z</time>
      </trkpt>
      <trkpt lat="-24.6314520" lon="-53.7051360">
        <ele>503.1</ele>
        <time>2018-09-15T18:22:56Z</time>
      </trkpt>
      <trkpt lat="-24.6314020" lon="-53.7051620">
        <ele>503.1</ele>
        <time>2018-09-15T18:22:57Z</time>
      </trkpt>
      <trkpt lat="-24.6313520" lon="-53.7051870">
        <ele>503.0</ele>
        <time>2018-09-15T18:22:58Z</time>
      </trkpt>
      <trkpt lat="-24.6312990" lon="-53.7052140">
        <ele>502.9</ele>
        <time>2018-09-15T18:22:59Z</time>
      </trkpt>
      <trkpt lat="-24.6312460" lon="-53.7052420">
        <ele>502.9</ele>
        <time>2018-09-15T18:23:00Z</time>
      </trkpt>
      <trkpt lat="-24.6311920" lon="-53.7052700">
        <ele>502.8</ele>
        <time>2018-09-15T18:23:01Z</time>
      </trkpt>
      <trkpt lat="-24.6311380" lon="-53.7052990">
        <ele>502.8</ele>
        <time>2018-09-15T18:23:02Z</time>
      </trkpt>
      <trkpt lat="-24.6310840" lon="-53.7053270">
        <ele>502.7</ele>
        <time>2018-09-15T18:23:03Z</time>
      </trkpt>
      <trkpt lat="-24.6310300" lon="-53.7053560">
        <ele>502.7</ele>
        <time>2018-09-15T18:23:04Z</time>
      </trkpt>
      <trkpt lat="-24.6309760" lon="-53.7053840">
        <ele>502.6</ele>
        <time>2018-09-15T18:23:05Z</time>
      </trkpt>
      <trkpt lat="-24.6309230" lon="-53.7054130">
        <ele>502.6</ele>
        <time>2018-09-15T18:23:06Z</time>
      </trkpt>
      <trkpt lat="-24.6308720" lon="-53.7054420">
        <ele>502.6</ele>
        <time>2018-09-15T18:23:07Z</time>
      </trkpt>
      <trkpt lat="-24.6308230" lon="-53.7054700">
        <ele>502.5</ele>
        <time>2018-09-15T18:23:08Z</time>
      </trkpt>
      <trkpt lat="-24.6307770" lon="-53.7054940">
        <ele>502.5</ele>
        <time>2018-09-15T18:23:09Z</time>
      </trkpt>
      <trkpt lat="-24.6307310" lon="-53.7055140">
        <ele>502.5</ele>
        <time>2018-09-15T18:23:10Z</time>
      </trkpt>
      <trkpt lat="-24.6306820" lon="-53.7055320">
        <ele>502.5</ele>
        <time>2018-09-15T18:23:11Z</time>
      </trkpt>
      <trkpt lat="-24.6306290" lon="-53.7055470">
        <ele>502.5</ele>
        <time>2018-09-15T18:23:12Z</time>
      </trkpt>
      <trkpt lat="-24.6305730" lon="-53.7055510">
        <ele>502.5</ele>
        <time>2018-09-15T18:23:13Z</time>
      </trkpt>
      <trkpt lat="-24.6305170" lon="-53.7055470">
        <ele>502.5</ele>
        <time>2018-09-15T18:23:14Z</time>
      </trkpt>
      <trkpt lat="-24.6304620" lon="-53.7055330">
        <ele>502.6</ele>
        <time>2018-09-15T18:23:15Z</time>
      </trkpt>
      <trkpt lat="-24.6304110" lon="-53.7055110">
        <ele>502.7</ele>
        <time>2018-09-15T18:23:16Z</time>
      </trkpt>
      <trkpt lat="-24.6303650" lon="-53.7054850">
        <ele>502.8</ele>
        <time>2018-09-15T18:23:17Z</time>
      </trkpt>
      <trkpt lat="-24.6303240" lon="-53.7054560">
        <ele>502.9</ele>
        <time>2018-09-15T18:23:18Z</time>
      </trkpt>
      <trkpt lat="-24.6302900" lon="-53.7054250">
        <ele>503.1</ele>
        <time>2018-09-15T18:23:19Z</time>
      </trkpt>
      <trkpt lat="-24.6302590" lon="-53.7053910">
        <ele>503.2</ele>
        <time>2018-09-15T18:23:20Z</time>
      </trkpt>
      <trkpt lat="-24.6302310" lon="-53.7053590">
        <ele>503.4</ele>
        <time>2018-09-15T18:23:21Z</time>
      </trkpt>
      <trkpt lat="-24.6302040" lon="-53.7053290">
        <ele>503.5</ele>
        <time>2018-09-15T18:23:22Z</time>
      </trkpt>
      <trkpt lat="-24.6301810" lon="-53.7053000">
        <ele>503.7</ele>
        <time>2018-09-15T18:23:23Z</time>
      </trkpt>
      <trkpt lat="-24.6301590" lon="-53.7052730">
        <ele>503.8</ele>
        <time>2018-09-15T18:23:24Z</time>
      </trkpt>
      <trkpt lat="-24.6301380" lon="-53.7052440">
        <ele>503.9</ele>
        <time>2018-09-15T18:23:25Z</time>
      </trkpt>
      <trkpt lat="-24.6301160" lon="-53.7052170">
        <ele>504.1</ele>
        <time>2018-09-15T18:23:26Z</time>
      </trkpt>
      <trkpt lat="-24.6300930" lon="-53.7051940">
        <ele>504.2</ele>
        <time>2018-09-15T18:23:27Z</time>
      </trkpt>
      <trkpt lat="-24.6300700" lon="-53.7051730">
        <ele>504.3</ele>
        <time>2018-09-15T18:23:28Z</time>
      </trkpt>
      <trkpt lat="-24.6300470" lon="-53.7051510">
        <ele>504.4</ele>
        <time>2018-09-15T18:23:29Z</time>
      </trkpt>
      <trkpt lat="-24.6300230" lon="-53.7051310">
        <ele>504.5</ele>
        <time>2018-09-15T18:23:30Z</time>
      </trkpt>
      <trkpt lat="-24.6300000" lon="-53.7051110">
        <ele>504.6</ele>
        <time>2018-09-15T18:23:31Z</time>
      </trkpt>
      <trkpt lat="-24.6299740" lon="-53.7050950">
        <ele>504.5</ele>
        <time>2018-09-15T18:23:32Z</time>
      </trkpt>
      <trkpt lat="-24.6299430" lon="-53.7050850">
        <ele>504.4</ele>
        <time>2018-09-15T18:23:33Z</time>
      </trkpt>
      <trkpt lat="-24.6299120" lon="-53.7050830">
        <ele>504.3</ele>
        <time>2018-09-15T18:23:34Z</time>
      </trkpt>
      <trkpt lat="-24.6298830" lon="-53.7050860">
        <ele>504.1</ele>
        <time>2018-09-15T18:23:35Z</time>
      </trkpt>
      <trkpt lat="-24.6298580" lon="-53.7050900">
        <ele>504.0</ele>
        <time>2018-09-15T18:23:36Z</time>
      </trkpt>
      <trkpt lat="-24.6298350" lon="-53.7050980">
        <ele>504.0</ele>
        <time>2018-09-15T18:23:37Z</time>
      </trkpt>
      <trkpt lat="-24.6298120" lon="-53.7051090">
        <ele>503.9</ele>
        <time>2018-09-15T18:23:38Z</time>
      </trkpt>
      <trkpt lat="-24.6297860" lon="-53.7051230">
        <ele>503.9</ele>
        <time>2018-09-15T18:23:39Z</time>
      </trkpt>
      <trkpt lat="-24.6297550" lon="-53.7051390">
        <ele>503.8</ele>
        <time>2018-09-15T18:23:40Z</time>
      </trkpt>
      <trkpt lat="-24.6297220" lon="-53.7051550">
        <ele>503.8</ele>
        <time>2018-09-15T18:23:41Z</time>
      </trkpt>
      <trkpt lat="-24.6296880" lon="-53.7051710">
        <ele>503.7</ele>
        <time>2018-09-15T18:23:42Z</time>
      </trkpt>
      <trkpt lat="-24.6296510" lon="-53.7051850">
        <ele>503.6</ele>
        <time>2018-09-15T18:23:43Z</time>
      </trkpt>
      <trkpt lat="-24.6296140" lon="-53.7052020">
        <ele>503.6</ele>
        <time>2018-09-15T18:23:44Z</time>
      </trkpt>
      <trkpt lat="-24.6295760" lon="-53.7052180">
        <ele>503.5</ele>
        <time>2018-09-15T18:23:45Z</time>
      </trkpt>
      <trkpt lat="-24.6295340" lon="-53.7052340">
        <ele>503.5</ele>
        <time>2018-09-15T18:23:46Z</time>
      </trkpt>
      <trkpt lat="-24.6294880" lon="-53.7052540">
        <ele>503.5</ele>
        <time>2018-09-15T18:23:47Z</time>
      </trkpt>
      <trkpt lat="-24.6294400" lon="-53.7052750">
        <ele>503.5</ele>
        <time>2018-09-15T18:23:48Z</time>
      </trkpt>
      <trkpt lat="-24.6293910" lon="-53.7052950">
        <ele>503.5</ele>
        <time>2018-09-15T18:23:49Z</time>
      </trkpt>
      <trkpt lat="-24.6293420" lon="-53.7053180">
        <ele>503.5</ele>
        <time>2018-09-15T18:23:50Z</time>
      </trkpt>
      <trkpt lat="-24.6292930" lon="-53.7053390">
        <ele>503.5</ele>
        <time>2018-09-15T18:23:51Z</time>
      </trkpt>
      <trkpt lat="-24.6292420" lon="-53.7053580">
        <ele>503.5</ele>
        <time>2018-09-15T18:23:52Z</time>
      </trkpt>
      <trkpt lat="-24.6291900" lon="-53.7053780">
        <ele>503.5</ele>
        <time>2018-09-15T18:23:53Z</time>
      </trkpt>
      <trkpt lat="-24.6291360" lon="-53.7053980">
        <ele>503.6</ele>
        <time>2018-09-15T18:23:54Z</time>
      </trkpt>
      <trkpt lat="-24.6290810" lon="-53.7054210">
        <ele>503.6</ele>
        <time>2018-09-15T18:23:55Z</time>
      </trkpt>
      <trkpt lat="-24.6290320" lon="-53.7054440">
        <ele>503.7</ele>
        <time>2018-09-15T18:23:56Z</time>
      </trkpt>
      <trkpt lat="-24.6289870" lon="-53.7054660">
        <ele>503.7</ele>
        <time>2018-09-15T18:23:57Z</time>
      </trkpt>
      <trkpt lat="-24.6289400" lon="-53.7054920">
        <ele>503.8</ele>
        <time>2018-09-15T18:23:58Z</time>
      </trkpt>
      <trkpt lat="-24.6288900" lon="-53.7055280">
        <ele>503.9</ele>
        <time>2018-09-15T18:23:59Z</time>
      </trkpt>
      <trkpt lat="-24.6288410" lon="-53.7055770">
        <ele>504.0</ele>
        <time>2018-09-15T18:24:00Z</time>
      </trkpt>
      <trkpt lat="-24.6287960" lon="-53.7056320">
        <ele>504.2</ele>
        <time>2018-09-15T18:24:01Z</time>
      </trkpt>
      <trkpt lat="-24.6287540" lon="-53.7056930">
        <ele>504.4</ele>
        <time>2018-09-15T18:24:02Z</time>
      </trkpt>
      <trkpt lat="-24.6287160" lon="-53.7057590">
        <ele>504.5</ele>
        <time>2018-09-15T18:24:03Z</time>
      </trkpt>
      <trkpt lat="-24.6286860" lon="-53.7058280">
        <ele>504.6</ele>
        <time>2018-09-15T18:24:04Z</time>
      </trkpt>
      <trkpt lat="-24.6286670" lon="-53.7058980">
        <ele>504.6</ele>
        <time>2018-09-15T18:24:05Z</time>
      </trkpt>
      <trkpt lat="-24.6286570" lon="-53.7059700">
        <ele>504.7</ele>
        <time>2018-09-15T18:24:06Z</time>
      </trkpt>
      <trkpt lat="-24.6286560" lon="-53.7060400">
        <ele>504.7</ele>
        <time>2018-09-15T18:24:07Z</time>
      </trkpt>
      <trkpt lat="-24.6286660" lon="-53.7061040">
        <ele>504.8</ele>
        <time>2018-09-15T18:24:08Z</time>
      </trkpt>
      <trkpt lat="-24.6286820" lon="-53.7061610">
        <ele>504.9</ele>
        <time>2018-09-15T18:24:09Z</time>
      </trkpt>
      <trkpt lat="-24.6287010" lon="-53.7062160">
        <ele>505.0</ele>
        <time>2018-09-15T18:24:10Z</time>
      </trkpt>
      <trkpt lat="-24.6287210" lon="-53.7062650">
        <ele>505.1</ele>
        <time>2018-09-15T18:24:11Z</time>
      </trkpt>
      <trkpt lat="-24.6287400" lon="-53.7063120">
        <ele>505.2</ele>
        <time>2018-09-15T18:24:12Z</time>
      </trkpt>
      <trkpt lat="-24.6287590" lon="-53.7063550">
        <ele>505.4</ele>
        <time>2018-09-15T18:24:13Z</time>
      </trkpt>
      <trkpt lat="-24.6287770" lon="-53.7063960">
        <ele>505.6</ele>
        <time>2018-09-15T18:24:14Z</time>
      </trkpt>
      <trkpt lat="-24.6287940" lon="-53.7064360">
        <ele>505.7</ele>
        <time>2018-09-15T18:24:15Z</time>
      </trkpt>
      <trkpt lat="-24.6288100" lon="-53.7064730">
        <ele>505.9</ele>
        <time>2018-09-15T18:24:16Z</time>
      </trkpt>
      <trkpt lat="-24.6288270" lon="-53.7065060">
        <ele>506.0</ele>
        <time>2018-09-15T18:24:17Z</time>
      </trkpt>
      <trkpt lat="-24.6288430" lon="-53.7065370">
        <ele>506.2</ele>
        <time>2018-09-15T18:24:18Z</time>
      </trkpt>
      <trkpt lat="-24.6288590" lon="-53.7065670">
        <ele>506.3</ele>
        <time>2018-09-15T18:24:19Z</time>
      </trkpt>
      <trkpt lat="-24.6288780" lon="-53.7065960">
        <ele>506.5</ele>
        <time>2018-09-15T18:24:20Z</time>
      </trkpt>
      <trkpt lat="-24.6288950" lon="-53.7066260">
        <ele>506.6</ele>
        <time>2018-09-15T18:24:21Z</time>
      </trkpt>
      <trkpt lat="-24.6289120" lon="-53.7066560">
        <ele>506.8</ele>
        <time>2018-09-15T18:24:22Z</time>
      </trkpt>
      <trkpt lat="-24.6289270" lon="-53.7066870">
        <ele>506.9</ele>
        <time>2018-09-15T18:24:23Z</time>
      </trkpt>
      <trkpt lat="-24.6289420" lon="-53.7067190">
        <ele>507.1</ele>
        <time>2018-09-15T18:24:24Z</time>
      </trkpt>
      <trkpt lat="-24.6289570" lon="-53.7067470">
        <ele>507.2</ele>
        <time>2018-09-15T18:24:25Z</time>
      </trkpt>
      <trkpt lat="-24.6289710" lon="-53.7067780">
        <ele>507.3</ele>
        <time>2018-09-15T18:24:26Z</time>
      </trkpt>
      <trkpt lat="-24.6289830" lon="-53.7068050">
        <ele>507.4</ele>
        <time>2018-09-15T18:24:27Z</time>
      </trkpt>
      <trkpt lat="-24.6289990" lon="-53.7068340">
        <ele>507.6</ele>
        <time>2018-09-15T18:24:28Z</time>
      </trkpt>
      <trkpt lat="-24.6290130" lon="-53.7068630">
        <ele>507.7</ele>
        <time>2018-09-15T18:24:29Z</time>
      </trkpt>
      <trkpt lat="-24.6290290" lon="-53.7068930">
        <ele>507.8</ele>
        <time>2018-09-15T18:24:30Z</time>
      </trkpt>
      <trkpt lat="-24.6290440" lon="-53.7069220">
        <ele>507.9</ele>
        <time>2018-09-15T18:24:31Z</time>
      </trkpt>
      <trkpt lat="-24.6290570" lon="-53.7069510">
        <ele>508.0</ele>
        <time>2018-09-15T18:24:32Z</time>
      </trkpt>
      <trkpt lat="-24.6290690" lon="-53.7069790">
        <ele>508.0</ele>
        <time>2018-09-15T18:24:33Z</time>
      </trkpt>
      <trkpt lat="-24.6290820" lon="-53.7070060">
        <ele>508.1</ele>
        <time>2018-09-15T18:24:34Z</time>
      </trkpt>
      <trkpt lat="-24.6290950" lon="-53.7070320">
        <ele>508.2</ele>
        <time>2018-09-15T18:24:35Z</time>
      </trkpt>
      <trkpt lat="-24.6291070" lon="-53.7070580">
        <ele>508.2</ele>
        <time>2018-09-15T18:24:36Z</time>
      </trkpt>
      <trkpt lat="-24.6291190" lon="-53.7070840">
        <ele>508.2</ele>
        <time>2018-09-15T18:24:37Z</time>
      </trkpt>
      <trkpt lat="-24.6291330" lon="-53.7071130">
        <ele>508.3</ele>
        <time>2018-09-15T18:24:38Z</time>
      </trkpt>
      <trkpt lat="-24.6291490" lon="-53.7071430">
        <ele>508.3</ele>
        <time>2018-09-15T18:24:39Z</time>
      </trkpt>
      <trkpt lat="-24.6291660" lon="-53.7071760">
        <ele>508.3</ele>
        <time>2018-09-15T18:24:40Z</time>
      </trkpt>
      <trkpt lat="-24.6291790" lon="-53.7072110">
        <ele>508.4</ele>
        <time>2018-09-15T18:24:41Z</time>
      </trkpt>
      <trkpt lat="-24.6291940" lon="-53.7072450">
        <ele>508.4</ele>
        <time>2018-09-15T18:24:42Z</time>
      </trkpt>
      <trkpt lat="-24.6292080" lon="-53.7072740">
        <ele>508.4</ele>
        <time>2018-09-15T18:24:43Z</time>
      </trkpt>
      <trkpt lat="-24.6292220" lon="-53.7073040">
        <ele>508.4</ele>
        <time>2018-09-15T18:24:44Z</time>
      </trkpt>
      <trkpt lat="-24.6292340" lon="-53.7073350">
        <ele>508.5</ele>
        <time>2018-09-15T18:24:45Z</time>
      </trkpt>
      <trkpt lat="-24.6292490" lon="-53.7073660">
        <ele>508.5</ele>
        <time>2018-09-15T18:24:46Z</time>
      </trkpt>
      <trkpt lat="-24.6292650" lon="-53.7073960">
        <ele>508.5</ele>
        <time>2018-09-15T18:24:47Z</time>
      </trkpt>
      <trkpt lat="-24.6292800" lon="-53.7074260">
        <ele>508.5</ele>
        <time>2018-09-15T18:24:48Z</time>
      </trkpt>
      <trkpt lat="-24.6292960" lon="-53.7074560">
        <ele>508.5</ele>
        <time>2018-09-15T18:24:49Z</time>
      </trkpt>
      <trkpt lat="-24.6293210" lon="-53.7075130">
        <ele>508.4</ele>
        <time>2018-09-15T18:24:50Z</time>
      </trkpt>
      <trkpt lat="-24.6293350" lon="-53.7075400">
        <ele>508.4</ele>
        <time>2018-09-15T18:24:51Z</time>
      </trkpt>
      <trkpt lat="-24.6293480" lon="-53.7075660">
        <ele>508.4</ele>
        <time>2018-09-15T18:24:52Z</time>
      </trkpt>
      <trkpt lat="-24.6293610" lon="-53.7075920">
        <ele>508.4</ele>
        <time>2018-09-15T18:24:53Z</time>
      </trkpt>
      <trkpt lat="-24.6293740" lon="-53.7076170">
        <ele>508.4</ele>
        <time>2018-09-15T18:24:54Z</time>
      </trkpt>
      <trkpt lat="-24.6293860" lon="-53.7076430">
        <ele>508.4</ele>
        <time>2018-09-15T18:24:55Z</time>
      </trkpt>
      <trkpt lat="-24.6294000" lon="-53.7076700">
        <ele>508.4</ele>
        <time>2018-09-15T18:24:56Z</time>
      </trkpt>
      <trkpt lat="-24.6294160" lon="-53.7076990">
        <ele>508.4</ele>
        <time>2018-09-15T18:24:57Z</time>
      </trkpt>
      <trkpt lat="-24.6294320" lon="-53.7077300">
        <ele>508.4</ele>
        <time>2018-09-15T18:24:58Z</time>
      </trkpt>
      <trkpt lat="-24.6294460" lon="-53.7077620">
        <ele>508.4</ele>
        <time>2018-09-15T18:24:59Z</time>
      </trkpt>
      <trkpt lat="-24.6294620" lon="-53.7077930">
        <ele>508.5</ele>
        <time>2018-09-15T18:25:00Z</time>
      </trkpt>
      <trkpt lat="-24.6294760" lon="-53.7078240">
        <ele>508.5</ele>
        <time>2018-09-15T18:25:01Z</time>
      </trkpt>
      <trkpt lat="-24.6294880" lon="-53.7078540">
        <ele>508.6</ele>
        <time>2018-09-15T18:25:02Z</time>
      </trkpt>
      <trkpt lat="-24.6294980" lon="-53.7078840">
        <ele>508.6</ele>
        <time>2018-09-15T18:25:03Z</time>
      </trkpt>
      <trkpt lat="-24.6295060" lon="-53.7079140">
        <ele>508.7</ele>
        <time>2018-09-15T18:25:04Z</time>
      </trkpt>
      <trkpt lat="-24.6295120" lon="-53.7079450">
        <ele>508.8</ele>
        <time>2018-09-15T18:25:05Z</time>
      </trkpt>
      <trkpt lat="-24.6295180" lon="-53.7079760">
        <ele>508.9</ele>
        <time>2018-09-15T18:25:06Z</time>
      </trkpt>
      <trkpt lat="-24.6295230" lon="-53.7080060">
        <ele>509.0</ele>
        <time>2018-09-15T18:25:07Z</time>
      </trkpt>
      <trkpt lat="-24.6295230" lon="-53.7080670">
        <ele>509.3</ele>
        <time>2018-09-15T18:25:09Z</time>
      </trkpt>
      <trkpt lat="-24.6295180" lon="-53.7080970">
        <ele>509.4</ele>
        <time>2018-09-15T18:25:10Z</time>
      </trkpt>
      <trkpt lat="-24.6295110" lon="-53.7081260">
        <ele>509.5</ele>
        <time>2018-09-15T18:25:11Z</time>
      </trkpt>
      <trkpt lat="-24.6295030" lon="-53.7081550">
        <ele>509.7</ele>
        <time>2018-09-15T18:25:12Z</time>
      </trkpt>
      <trkpt lat="-24.6294950" lon="-53.7081820">
        <ele>509.8</ele>
        <time>2018-09-15T18:25:13Z</time>
      </trkpt>
      <trkpt lat="-24.6294860" lon="-53.7082090">
        <ele>510.0</ele>
        <time>2018-09-15T18:25:14Z</time>
      </trkpt>
      <trkpt lat="-24.6294780" lon="-53.7082350">
        <ele>510.2</ele>
        <time>2018-09-15T18:25:15Z</time>
      </trkpt>
      <trkpt lat="-24.6294700" lon="-53.7082600">
        <ele>510.3</ele>
        <time>2018-09-15T18:25:16Z</time>
      </trkpt>
      <trkpt lat="-24.6294620" lon="-53.7082830">
        <ele>510.5</ele>
        <time>2018-09-15T18:25:17Z</time>
      </trkpt>
      <trkpt lat="-24.6294530" lon="-53.7083070">
        <ele>510.6</ele>
        <time>2018-09-15T18:25:18Z</time>
      </trkpt>
      <trkpt lat="-24.6294440" lon="-53.7083290">
        <ele>510.8</ele>
        <time>2018-09-15T18:25:19Z</time>
      </trkpt>
      <trkpt lat="-24.6294360" lon="-53.7083510">
        <ele>510.9</ele>
        <time>2018-09-15T18:25:20Z</time>
      </trkpt>
      <trkpt lat="-24.6294280" lon="-53.7083740">
        <ele>511.1</ele>
        <time>2018-09-15T18:25:21Z</time>
      </trkpt>
      <trkpt lat="-24.6294180" lon="-53.7083970">
        <ele>511.2</ele>
        <time>2018-09-15T18:25:22Z</time>
      </trkpt>
      <trkpt lat="-24.6294080" lon="-53.7084190">
        <ele>511.4</ele>
        <time>2018-09-15T18:25:23Z</time>
      </trkpt>
      <trkpt lat="-24.6294000" lon="-53.7084420">
        <ele>511.6</ele>
        <time>2018-09-15T18:25:24Z</time>
      </trkpt>
      <trkpt lat="-24.6293920" lon="-53.7084660">
        <ele>511.7</ele>
        <time>2018-09-15T18:25:25Z</time>
      </trkpt>
      <trkpt lat="-24.6293850" lon="-53.7084900">
        <ele>511.9</ele>
        <time>2018-09-15T18:25:26Z</time>
      </trkpt>
      <trkpt lat="-24.6293770" lon="-53.7085140">
        <ele>512.0</ele>
        <time>2018-09-15T18:25:27Z</time>
      </trkpt>
      <trkpt lat="-24.6293690" lon="-53.7085390">
        <ele>512.2</ele>
        <time>2018-09-15T18:25:28Z</time>
      </trkpt>
      <trkpt lat="-24.6293600" lon="-53.7085630">
        <ele>512.4</ele>
        <time>2018-09-15T18:25:29Z</time>
      </trkpt>
      <trkpt lat="-24.6293520" lon="-53.7085860">
        <ele>512.5</ele>
        <time>2018-09-15T18:25:30Z</time>
      </trkpt>
      <trkpt lat="-24.6293410" lon="-53.7086100">
        <ele>512.5</ele>
        <time>2018-09-15T18:25:31Z</time>
      </trkpt>
      <trkpt lat="-24.6293310" lon="-53.7086330">
        <ele>512.6</ele>
        <time>2018-09-15T18:25:32Z</time>
      </trkpt>
      <trkpt lat="-24.6293220" lon="-53.7086560">
        <ele>512.7</ele>
        <time>2018-09-15T18:25:33Z</time>
      </trkpt>
      <trkpt lat="-24.6293150" lon="-53.7086790">
        <ele>512.7</ele>
        <time>2018-09-15T18:25:34Z</time>
      </trkpt>
      <trkpt lat="-24.6293090" lon="-53.7087020">
        <ele>512.8</ele>
        <time>2018-09-15T18:25:35Z</time>
      </trkpt>
      <trkpt lat="-24.6293020" lon="-53.7087250">
        <ele>512.9</ele>
        <time>2018-09-15T18:25:36Z</time>
      </trkpt>
      <trkpt lat="-24.6292950" lon="-53.7087480">
        <ele>512.9</ele>
        <time>2018-09-15T18:25:37Z</time>
      </trkpt>
      <trkpt lat="-24.6292950" lon="-53.7087480">
        <ele>512.9</ele>
        <time>2018-09-15T18:25:38Z</time>
      </trkpt>
      <trkpt lat="-24.6292890" lon="-53.7087710">
        <ele>513.0</ele>
        <time>2018-09-15T18:25:39Z</time>
      </trkpt>
      <trkpt lat="-24.6292830" lon="-53.7087940">
        <ele>513.1</ele>
        <time>2018-09-15T18:25:40Z</time>
      </trkpt>
      <trkpt lat="-24.6292730" lon="-53.7088160">
        <ele>513.1</ele>
        <time>2018-09-15T18:25:41Z</time>
      </trkpt>
      <trkpt lat="-24.6292630" lon="-53.7088380">
        <ele>513.2</ele>
        <time>2018-09-15T18:25:42Z</time>
      </trkpt>
      <trkpt lat="-24.6292550" lon="-53.7088610">
        <ele>513.3</ele>
        <time>2018-09-15T18:25:43Z</time>
      </trkpt>
      <trkpt lat="-24.6292470" lon="-53.7088850">
        <ele>513.4</ele>
        <time>2018-09-15T18:25:44Z</time>
      </trkpt>
      <trkpt lat="-24.6292390" lon="-53.7089070">
        <ele>513.4</ele>
        <time>2018-09-15T18:25:45Z</time>
      </trkpt>
      <trkpt lat="-24.6292320" lon="-53.7089290">
        <ele>513.5</ele>
        <time>2018-09-15T18:25:46Z</time>
      </trkpt>
      <trkpt lat="-24.6292250" lon="-53.7089510">
        <ele>513.6</ele>
        <time>2018-09-15T18:25:47Z</time>
      </trkpt>
      <trkpt lat="-24.6292190" lon="-53.7089730">
        <ele>513.6</ele>
        <time>2018-09-15T18:25:48Z</time>
      </trkpt>
      <trkpt lat="-24.6292090" lon="-53.7089950">
        <ele>513.7</ele>
        <time>2018-09-15T18:25:49Z</time>
      </trkpt>
      <trkpt lat="-24.6291970" lon="-53.7090170">
        <ele>513.7</ele>
        <time>2018-09-15T18:25:50Z</time>
      </trkpt>
      <trkpt lat="-24.6291880" lon="-53.7090410">
        <ele>513.8</ele>
        <time>2018-09-15T18:25:51Z</time>
      </trkpt>
      <trkpt lat="-24.6291790" lon="-53.7090670">
        <ele>513.8</ele>
        <time>2018-09-15T18:25:52Z</time>
      </trkpt>
      <trkpt lat="-24.6291720" lon="-53.7090930">
        <ele>513.9</ele>
        <time>2018-09-15T18:25:53Z</time>
      </trkpt>
      <trkpt lat="-24.6291670" lon="-53.7091200">
        <ele>513.9</ele>
        <time>2018-09-15T18:25:54Z</time>
      </trkpt>
      <trkpt lat="-24.6291590" lon="-53.7091480">
        <ele>514.0</ele>
        <time>2018-09-15T18:25:55Z</time>
      </trkpt>
      <trkpt lat="-24.6291500" lon="-53.7091760">
        <ele>514.0</ele>
        <time>2018-09-15T18:25:56Z</time>
      </trkpt>
      <trkpt lat="-24.6291410" lon="-53.7092040">
        <ele>514.1</ele>
        <time>2018-09-15T18:25:57Z</time>
      </trkpt>
      <trkpt lat="-24.6291330" lon="-53.7092310">
        <ele>514.2</ele>
        <time>2018-09-15T18:25:58Z</time>
      </trkpt>
      <trkpt lat="-24.6291250" lon="-53.7092580">
        <ele>514.2</ele>
        <time>2018-09-15T18:25:59Z</time>
      </trkpt>
      <trkpt lat="-24.6291170" lon="-53.7092830">
        <ele>514.3</ele>
        <time>2018-09-15T18:26:00Z</time>
      </trkpt>
      <trkpt lat="-24.6291080" lon="-53.7093080">
        <ele>514.3</ele>
        <time>2018-09-15T18:26:01Z</time>
      </trkpt>
      <trkpt lat="-24.6290990" lon="-53.7093340">
        <ele>514.4</ele>
        <time>2018-09-15T18:26:02Z</time>
      </trkpt>
      <trkpt lat="-24.6290910" lon="-53.7093600">
        <ele>514.4</ele>
        <time>2018-09-15T18:26:03Z</time>
      </trkpt>
      <trkpt lat="-24.6290830" lon="-53.7093860">
        <ele>514.5</ele>
        <time>2018-09-15T18:26:04Z</time>
      </trkpt>
      <trkpt lat="-24.6290740" lon="-53.7094140">
        <ele>514.5</ele>
        <time>2018-09-15T18:26:05Z</time>
      </trkpt>
      <trkpt lat="-24.6290640" lon="-53.7094430">
        <ele>514.6</ele>
        <time>2018-09-15T18:26:06Z</time>
      </trkpt>
      <trkpt lat="-24.6290540" lon="-53.7094730">
        <ele>514.6</ele>
        <time>2018-09-15T18:26:07Z</time>
      </trkpt>
      <trkpt lat="-24.6290440" lon="-53.7095020">
        <ele>514.7</ele>
        <time>2018-09-15T18:26:08Z</time>
      </trkpt>
      <trkpt lat="-24.6290350" lon="-53.7095310">
        <ele>514.7</ele>
        <time>2018-09-15T18:26:09Z</time>
      </trkpt>
      <trkpt lat="-24.6290270" lon="-53.7095610">
        <ele>514.8</ele>
        <time>2018-09-15T18:26:10Z</time>
      </trkpt>
      <trkpt lat="-24.6290190" lon="-53.7095890">
        <ele>514.8</ele>
        <time>2018-09-15T18:26:11Z</time>
      </trkpt>
      <trkpt lat="-24.6290110" lon="-53.7096180">
        <ele>514.8</ele>
        <time>2018-09-15T18:26:12Z</time>
      </trkpt>
      <trkpt lat="-24.6290010" lon="-53.7096460">
        <ele>514.8</ele>
        <time>2018-09-15T18:26:13Z</time>
      </trkpt>
      <trkpt lat="-24.6289910" lon="-53.7096740">
        <ele>514.9</ele>
        <time>2018-09-15T18:26:14Z</time>
      </trkpt>
      <trkpt lat="-24.6289830" lon="-53.7097020">
        <ele>514.9</ele>
        <time>2018-09-15T18:26:15Z</time>
      </trkpt>
      <trkpt lat="-24.6289740" lon="-53.7097300">
        <ele>514.9</ele>
        <time>2018-09-15T18:26:16Z</time>
      </trkpt>
      <trkpt lat="-24.6289670" lon="-53.7097570">
        <ele>515.0</ele>
        <time>2018-09-15T18:26:17Z</time>
      </trkpt>
      <trkpt lat="-24.6289580" lon="-53.7097820">
        <ele>515.0</ele>
        <time>2018-09-15T18:26:18Z</time>
      </trkpt>
      <trkpt lat="-24.6289470" lon="-53.7098080">
        <ele>515.0</ele>
        <time>2018-09-15T18:26:19Z</time>
      </trkpt>
      <trkpt lat="-24.6289360" lon="-53.7098350">
        <ele>515.0</ele>
        <time>2018-09-15T18:26:20Z</time>
      </trkpt>
      <trkpt lat="-24.6289280" lon="-53.7098630">
        <ele>515.1</ele>
        <time>2018-09-15T18:26:21Z</time>
      </trkpt>
      <trkpt lat="-24.6289180" lon="-53.7098920">
        <ele>515.1</ele>
        <time>2018-09-15T18:26:22Z</time>
      </trkpt>
      <trkpt lat="-24.6289060" lon="-53.7099230">
        <ele>515.1</ele>
        <time>2018-09-15T18:26:23Z</time>
      </trkpt>
      <trkpt lat="-24.6288940" lon="-53.7099550">
        <ele>515.2</ele>
        <time>2018-09-15T18:26:24Z</time>
      </trkpt>
      <trkpt lat="-24.6288850" lon="-53.7099880">
        <ele>515.2</ele>
        <time>2018-09-15T18:26:25Z</time>
      </trkpt>
      <trkpt lat="-24.6288760" lon="-53.7100220">
        <ele>515.2</ele>
        <time>2018-09-15T18:26:26Z</time>
      </trkpt>
      <trkpt lat="-24.6288650" lon="-53.7100550">
        <ele>515.2</ele>
        <time>2018-09-15T18:26:27Z</time>
      </trkpt>
      <trkpt lat="-24.6288520" lon="-53.7100880">
        <ele>515.2</ele>
        <time>2018-09-15T18:26:28Z</time>
      </trkpt>
      <trkpt lat="-24.6288400" lon="-53.7101210">
        <ele>515.2</ele>
        <time>2018-09-15T18:26:29Z</time>
      </trkpt>
      <trkpt lat="-24.6288300" lon="-53.7101560">
        <ele>515.1</ele>
        <time>2018-09-15T18:26:30Z</time>
      </trkpt>
      <trkpt lat="-24.6288210" lon="-53.7101910">
        <ele>515.1</ele>
        <time>2018-09-15T18:26:31Z</time>
      </trkpt>
      <trkpt lat="-24.6288100" lon="-53.7102260">
        <ele>515.1</ele>
        <time>2018-09-15T18:26:32Z</time>
      </trkpt>
      <trkpt lat="-24.6287980" lon="-53.7102610">
        <ele>515.1</ele>
        <time>2018-09-15T18:26:33Z</time>
      </trkpt>
      <trkpt lat="-24.6287850" lon="-53.7102960">
        <ele>515.1</ele>
        <time>2018-09-15T18:26:34Z</time>
      </trkpt>
      <trkpt lat="-24.6287730" lon="-53.7103320">
        <ele>515.1</ele>
        <time>2018-09-15T18:26:35Z</time>
      </trkpt>
      <trkpt lat="-24.6287600" lon="-53.7103680">
        <ele>515.1</ele>
        <time>2018-09-15T18:26:36Z</time>
      </trkpt>
      <trkpt lat="-24.6287480" lon="-53.7104040">
        <ele>515.1</ele>
        <time>2018-09-15T18:26:37Z</time>
      </trkpt>
      <trkpt lat="-24.6287370" lon="-53.7104410">
        <ele>515.1</ele>
        <time>2018-09-15T18:26:38Z</time>
      </trkpt>
      <trkpt lat="-24.6287260" lon="-53.7104790">
        <ele>515.0</ele>
        <time>2018-09-15T18:26:39Z</time>
      </trkpt>
      <trkpt lat="-24.6287140" lon="-53.7105180">
        <ele>514.9</ele>
        <time>2018-09-15T18:26:40Z</time>
      </trkpt>
      <trkpt lat="-24.6287010" lon="-53.7105580">
        <ele>514.9</ele>
        <time>2018-09-15T18:26:41Z</time>
      </trkpt>
      <trkpt lat="-24.6286860" lon="-53.7105980">
        <ele>514.8</ele>
        <time>2018-09-15T18:26:42Z</time>
      </trkpt>
      <trkpt lat="-24.6286710" lon="-53.7106380">
        <ele>514.7</ele>
        <time>2018-09-15T18:26:43Z</time>
      </trkpt>
      <trkpt lat="-24.6286590" lon="-53.7106800">
        <ele>514.7</ele>
        <time>2018-09-15T18:26:44Z</time>
      </trkpt>
      <trkpt lat="-24.6286470" lon="-53.7107200">
        <ele>514.6</ele>
        <time>2018-09-15T18:26:45Z</time>
      </trkpt>
      <trkpt lat="-24.6286340" lon="-53.7107580">
        <ele>514.5</ele>
        <time>2018-09-15T18:26:46Z</time>
      </trkpt>
      <trkpt lat="-24.6286220" lon="-53.7107930">
        <ele>514.5</ele>
        <time>2018-09-15T18:26:47Z</time>
      </trkpt>
      <trkpt lat="-24.6286130" lon="-53.7108280">
        <ele>514.3</ele>
        <time>2018-09-15T18:26:48Z</time>
      </trkpt>
      <trkpt lat="-24.6286050" lon="-53.7108640">
        <ele>514.2</ele>
        <time>2018-09-15T18:26:49Z</time>
      </trkpt>
      <trkpt lat="-24.6285960" lon="-53.7109020">
        <ele>514.1</ele>
        <time>2018-09-15T18:26:50Z</time>
      </trkpt>
      <trkpt lat="-24.6285860" lon="-53.7109440">
        <ele>514.0</ele>
        <time>2018-09-15T18:26:51Z</time>
      </trkpt>
      <trkpt lat="-24.6285750" lon="-53.7109890">
        <ele>513.8</ele>
        <time>2018-09-15T18:26:52Z</time>
      </trkpt>
      <trkpt lat="-24.6285650" lon="-53.7110370">
        <ele>513.4</ele>
        <time>2018-09-15T18:26:53Z</time>
      </trkpt>
      <trkpt lat="-24.6285540" lon="-53.7110840">
        <ele>513.0</ele>
        <time>2018-09-15T18:26:54Z</time>
      </trkpt>
      <trkpt lat="-24.6285400" lon="-53.7111330">
        <ele>512.6</ele>
        <time>2018-09-15T18:26:55Z</time>
      </trkpt>
      <trkpt lat="-24.6285260" lon="-53.7111820">
        <ele>512.2</ele>
        <time>2018-09-15T18:26:56Z</time>
      </trkpt>
      <trkpt lat="-24.6285140" lon="-53.7112310">
        <ele>511.9</ele>
        <time>2018-09-15T18:26:57Z</time>
      </trkpt>
      <trkpt lat="-24.6285040" lon="-53.7112790">
        <ele>511.7</ele>
        <time>2018-09-15T18:26:58Z</time>
      </trkpt>
      <trkpt lat="-24.6284950" lon="-53.7113270">
        <ele>511.5</ele>
        <time>2018-09-15T18:26:59Z</time>
      </trkpt>
      <trkpt lat="-24.6284850" lon="-53.7113750">
        <ele>511.3</ele>
        <time>2018-09-15T18:27:00Z</time>
      </trkpt>
      <trkpt lat="-24.6284750" lon="-53.7114200">
        <ele>511.1</ele>
        <time>2018-09-15T18:27:01Z</time>
      </trkpt>
      <trkpt lat="-24.6284670" lon="-53.7114660">
        <ele>511.0</ele>
        <time>2018-09-15T18:27:02Z</time>
      </trkpt>
      <trkpt lat="-24.6284560" lon="-53.7115140">
        <ele>510.6</ele>
        <time>2018-09-15T18:27:03Z</time>
      </trkpt>
      <trkpt lat="-24.6284450" lon="-53.7115620">
        <ele>510.2</ele>
        <time>2018-09-15T18:27:04Z</time>
      </trkpt>
      <trkpt lat="-24.6284320" lon="-53.7116140">
        <ele>509.7</ele>
        <time>2018-09-15T18:27:05Z</time>
      </trkpt>
      <trkpt lat="-24.6284200" lon="-53.7116680">
        <ele>509.2</ele>
        <time>2018-09-15T18:27:06Z</time>
      </trkpt>
      <trkpt lat="-24.6284100" lon="-53.7117250">
        <ele>508.8</ele>
        <time>2018-09-15T18:27:07Z</time>
      </trkpt>
      <trkpt lat="-24.6284090" lon="-53.7117850">
        <ele>508.6</ele>
        <time>2018-09-15T18:27:08Z</time>
      </trkpt>
      <trkpt lat="-24.6284200" lon="-53.7118430">
        <ele>507.7</ele>
        <time>2018-09-15T18:27:09Z</time>
      </trkpt>
      <trkpt lat="-24.6284400" lon="-53.7118960">
        <ele>507.5</ele>
        <time>2018-09-15T18:27:10Z</time>
      </trkpt>
      <trkpt lat="-24.6284670" lon="-53.7119420">
        <ele>507.4</ele>
        <time>2018-09-15T18:27:11Z</time>
      </trkpt>
      <trkpt lat="-24.6285040" lon="-53.7119740">
        <ele>507.2</ele>
        <time>2018-09-15T18:27:12Z</time>
      </trkpt>
      <trkpt lat="-24.6285460" lon="-53.7119940">
        <ele>507.1</ele>
        <time>2018-09-15T18:27:13Z</time>
      </trkpt>
      <trkpt lat="-24.6285910" lon="-53.7120030">
        <ele>507.0</ele>
        <time>2018-09-15T18:27:14Z</time>
      </trkpt>
      <trkpt lat="-24.6286370" lon="-53.7120050">
        <ele>506.8</ele>
        <time>2018-09-15T18:27:15Z</time>
      </trkpt>
      <trkpt lat="-24.6286820" lon="-53.7120060">
        <ele>506.7</ele>
        <time>2018-09-15T18:27:16Z</time>
      </trkpt>
      <trkpt lat="-24.6287270" lon="-53.7120060">
        <ele>506.6</ele>
        <time>2018-09-15T18:27:17Z</time>
      </trkpt>
      <trkpt lat="-24.6287720" lon="-53.7120050">
        <ele>506.5</ele>
        <time>2018-09-15T18:27:18Z</time>
      </trkpt>
      <trkpt lat="-24.6288150" lon="-53.7120060">
        <ele>506.4</ele>
        <time>2018-09-15T18:27:19Z</time>
      </trkpt>
      <trkpt lat="-24.6288570" lon="-53.7120070">
        <ele>506.4</ele>
        <time>2018-09-15T18:27:20Z</time>
      </trkpt>
      <trkpt lat="-24.6289000" lon="-53.7120070">
        <ele>506.3</ele>
        <time>2018-09-15T18:27:21Z</time>
      </trkpt>
      <trkpt lat="-24.6289420" lon="-53.7120060">
        <ele>506.2</ele>
        <time>2018-09-15T18:27:22Z</time>
      </trkpt>
      <trkpt lat="-24.6289840" lon="-53.7120050">
        <ele>506.2</ele>
        <time>2018-09-15T18:27:23Z</time>
      </trkpt>
      <trkpt lat="-24.6290260" lon="-53.7120030">
        <ele>506.2</ele>
        <time>2018-09-15T18:27:24Z</time>
      </trkpt>
      <trkpt lat="-24.6290680" lon="-53.7120000">
        <ele>506.2</ele>
        <time>2018-09-15T18:27:25Z</time>
      </trkpt>
      <trkpt lat="-24.6291080" lon="-53.7120000">
        <ele>506.2</ele>
        <time>2018-09-15T18:27:26Z</time>
      </trkpt>
      <trkpt lat="-24.6291480" lon="-53.7119980">
        <ele>506.2</ele>
        <time>2018-09-15T18:27:27Z</time>
      </trkpt>
      <trkpt lat="-24.6291870" lon="-53.7119950">
        <ele>506.1</ele>
        <time>2018-09-15T18:27:28Z</time>
      </trkpt>
      <trkpt lat="-24.6292250" lon="-53.7119930">
        <ele>506.1</ele>
        <time>2018-09-15T18:27:29Z</time>
      </trkpt>
      <trkpt lat="-24.6292620" lon="-53.7119910">
        <ele>506.1</ele>
        <time>2018-09-15T18:27:30Z</time>
      </trkpt>
      <trkpt lat="-24.6292990" lon="-53.7119920">
        <ele>506.1</ele>
        <time>2018-09-15T18:27:31Z</time>
      </trkpt>
      <trkpt lat="-24.6293360" lon="-53.7119920">
        <ele>506.1</ele>
        <time>2018-09-15T18:27:32Z</time>
      </trkpt>
      <trkpt lat="-24.6293700" lon="-53.7119900">
        <ele>506.1</ele>
        <time>2018-09-15T18:27:33Z</time>
      </trkpt>
      <trkpt lat="-24.6294010" lon="-53.7119880">
        <ele>506.1</ele>
        <time>2018-09-15T18:27:34Z</time>
      </trkpt>
      <trkpt lat="-24.6294280" lon="-53.7119860">
        <ele>506.1</ele>
        <time>2018-09-15T18:27:35Z</time>
      </trkpt>
      <trkpt lat="-24.6294510" lon="-53.7119850">
        <ele>506.1</ele>
        <time>2018-09-15T18:27:36Z</time>
      </trkpt>
      <trkpt lat="-24.6294710" lon="-53.7119840">
        <ele>506.0</ele>
        <time>2018-09-15T18:27:37Z</time>
      </trkpt>
      <trkpt lat="-24.6294890" lon="-53.7119820">
        <ele>506.0</ele>
        <time>2018-09-15T18:27:38Z</time>
      </trkpt>
      <trkpt lat="-24.6295010" lon="-53.7119870">
        <ele>506.0</ele>
        <time>2018-09-15T18:27:39Z</time>
      </trkpt>
      <trkpt lat="-24.6295080" lon="-53.7119910">
        <ele>506.0</ele>
        <time>2018-09-15T18:27:40Z</time>
      </trkpt>
      <trkpt lat="-24.6295100" lon="-53.7119900">
        <ele>506.0</ele>
        <time>2018-09-15T18:27:41Z</time>
      </trkpt>
      <trkpt lat="-24.6295110" lon="-53.7119900">
        <ele>506.0</ele>
        <time>2018-09-15T18:27:42Z</time>
      </trkpt>
      <trkpt lat="-24.6295140" lon="-53.7119920">
        <ele>506.0</ele>
        <time>2018-09-15T18:27:44Z</time>
      </trkpt>
      <trkpt lat="-24.6295140" lon="-53.7119930">
        <ele>506.0</ele>
        <time>2018-09-15T18:27:45Z</time>
      </trkpt>
      <trkpt lat="-24.6295150" lon="-53.7119950">
        <ele>506.0</ele>
        <time>2018-09-15T18:27:46Z</time>
      </trkpt>
      <trkpt lat="-24.6295150" lon="-53.7119970">
        <ele>506.0</ele>
        <time>2018-09-15T18:27:47Z</time>
      </trkpt>
      <trkpt lat="-24.6295150" lon="-53.7119980">
        <ele>506.0</ele>
        <time>2018-09-15T18:27:48Z</time>
      </trkpt>
      <trkpt lat="-24.6295160" lon="-53.7119980">
        <ele>506.0</ele>
        <time>2018-09-15T18:27:49Z</time>
      </trkpt>
      <trkpt lat="-24.6295220" lon="-53.7119960">
        <ele>506.0</ele>
        <time>2018-09-15T18:28:26Z</time>
      </trkpt>
      <trkpt lat="-24.6295230" lon="-53.7119960">
        <ele>506.0</ele>
        <time>2018-09-15T18:28:27Z</time>
      </trkpt>
      <trkpt lat="-24.6295220" lon="-53.7119960">
        <ele>506.0</ele>
        <time>2018-09-15T18:28:28Z</time>
      </trkpt>
      <trkpt lat="-24.6295240" lon="-53.7119980">
        <ele>506.0</ele>
        <time>2018-09-15T18:28:31Z</time>
      </trkpt>
      <trkpt lat="-24.6295250" lon="-53.7120000">
        <ele>506.0</ele>
        <time>2018-09-15T18:28:32Z</time>
      </trkpt>
      <trkpt lat="-24.6295260" lon="-53.7119990">
        <ele>506.0</ele>
        <time>2018-09-15T18:28:33Z</time>
      </trkpt>
      <trkpt lat="-24.6295280" lon="-53.7119990">
        <ele>506.0</ele>
        <time>2018-09-15T18:28:34Z</time>
      </trkpt>
      <trkpt lat="-24.6295430" lon="-53.7119980">
        <ele>506.0</ele>
        <time>2018-09-15T18:28:35Z</time>
      </trkpt>
      <trkpt lat="-24.6295520" lon="-53.7119970">
        <ele>505.4</ele>
        <time>2018-09-15T18:28:36Z</time>
      </trkpt>
      <trkpt lat="-24.6295610" lon="-53.7120020">
        <ele>505.4</ele>
        <time>2018-09-15T18:28:37Z</time>
      </trkpt>
      <trkpt lat="-24.6295710" lon="-53.7120100">
        <ele>505.3</ele>
        <time>2018-09-15T18:28:38Z</time>
      </trkpt>
      <trkpt lat="-24.6295810" lon="-53.7120230">
        <ele>505.2</ele>
        <time>2018-09-15T18:28:39Z</time>
      </trkpt>
      <trkpt lat="-24.6295870" lon="-53.7120420">
        <ele>505.1</ele>
        <time>2018-09-15T18:28:40Z</time>
      </trkpt>
      <trkpt lat="-24.6295870" lon="-53.7120600">
        <ele>505.0</ele>
        <time>2018-09-15T18:28:41Z</time>
      </trkpt>
      <trkpt lat="-24.6295830" lon="-53.7120750">
        <ele>505.0</ele>
        <time>2018-09-15T18:28:42Z</time>
      </trkpt>
      <trkpt lat="-24.6295680" lon="-53.7121050">
        <ele>504.8</ele>
        <time>2018-09-15T18:28:44Z</time>
      </trkpt>
      <trkpt lat="-24.6295640" lon="-53.7121240">
        <ele>504.6</ele>
        <time>2018-09-15T18:28:45Z</time>
      </trkpt>
      <trkpt lat="-24.6295640" lon="-53.7121450">
        <ele>504.4</ele>
        <time>2018-09-15T18:28:46Z</time>
      </trkpt>
      <trkpt lat="-24.6295620" lon="-53.7121700">
        <ele>504.3</ele>
        <time>2018-09-15T18:28:47Z</time>
      </trkpt>
      <trkpt lat="-24.6295540" lon="-53.7121990">
        <ele>504.1</ele>
        <time>2018-09-15T18:28:48Z</time>
      </trkpt>
      <trkpt lat="-24.6295420" lon="-53.7122290">
        <ele>503.9</ele>
        <time>2018-09-15T18:28:49Z</time>
      </trkpt>
      <trkpt lat="-24.6295280" lon="-53.7122610">
        <ele>503.8</ele>
        <time>2018-09-15T18:28:50Z</time>
      </trkpt>
      <trkpt lat="-24.6295140" lon="-53.7122990">
        <ele>503.5</ele>
        <time>2018-09-15T18:28:51Z</time>
      </trkpt>
      <trkpt lat="-24.6294980" lon="-53.7123430">
        <ele>503.3</ele>
        <time>2018-09-15T18:28:52Z</time>
      </trkpt>
      <trkpt lat="-24.6294790" lon="-53.7123920">
        <ele>503.0</ele>
        <time>2018-09-15T18:28:53Z</time>
      </trkpt>
      <trkpt lat="-24.6294560" lon="-53.7124450">
        <ele>502.6</ele>
        <time>2018-09-15T18:28:54Z</time>
      </trkpt>
      <trkpt lat="-24.6294310" lon="-53.7125020">
        <ele>502.2</ele>
        <time>2018-09-15T18:28:55Z</time>
      </trkpt>
      <trkpt lat="-24.6294010" lon="-53.7125600">
        <ele>501.9</ele>
        <time>2018-09-15T18:28:56Z</time>
      </trkpt>
      <trkpt lat="-24.6293690" lon="-53.7126210">
        <ele>501.6</ele>
        <time>2018-09-15T18:28:57Z</time>
      </trkpt>
      <trkpt lat="-24.6293330" lon="-53.7126860">
        <ele>501.2</ele>
        <time>2018-09-15T18:28:58Z</time>
      </trkpt>
      <trkpt lat="-24.6292920" lon="-53.7127510">
        <ele>500.9</ele>
        <time>2018-09-15T18:28:59Z</time>
      </trkpt>
      <trkpt lat="-24.6292460" lon="-53.7128170">
        <ele>500.6</ele>
        <time>2018-09-15T18:29:00Z</time>
      </trkpt>
      <trkpt lat="-24.6291950" lon="-53.7128810">
        <ele>500.3</ele>
        <time>2018-09-15T18:29:01Z</time>
      </trkpt>
      <trkpt lat="-24.6291440" lon="-53.7129450">
        <ele>500.1</ele>
        <time>2018-09-15T18:29:02Z</time>
      </trkpt>
      <trkpt lat="-24.6290900" lon="-53.7130060">
        <ele>499.8</ele>
        <time>2018-09-15T18:29:03Z</time>
      </trkpt>
      <trkpt lat="-24.6290300" lon="-53.7130650">
        <ele>499.6</ele>
        <time>2018-09-15T18:29:04Z</time>
      </trkpt>
      <trkpt lat="-24.6289690" lon="-53.7131200">
        <ele>499.5</ele>
        <time>2018-09-15T18:29:05Z</time>
      </trkpt>
      <trkpt lat="-24.6289060" lon="-53.7131710">
        <ele>499.3</ele>
        <time>2018-09-15T18:29:06Z</time>
      </trkpt>
      <trkpt lat="-24.6288430" lon="-53.7132200">
        <ele>499.1</ele>
        <time>2018-09-15T18:29:07Z</time>
      </trkpt>
      <trkpt lat="-24.6287780" lon="-53.7132660">
        <ele>498.9</ele>
        <time>2018-09-15T18:29:08Z</time>
      </trkpt>
      <trkpt lat="-24.6287120" lon="-53.7133110">
        <ele>498.7</ele>
        <time>2018-09-15T18:29:09Z</time>
      </trkpt>
      <trkpt lat="-24.6286450" lon="-53.7133530">
        <ele>498.7</ele>
        <time>2018-09-15T18:29:10Z</time>
      </trkpt>
      <trkpt lat="-24.6285760" lon="-53.7133960">
        <ele>498.6</ele>
        <time>2018-09-15T18:29:11Z</time>
      </trkpt>
      <trkpt lat="-24.6285070" lon="-53.7134400">
        <ele>498.6</ele>
        <time>2018-09-15T18:29:12Z</time>
      </trkpt>
      <trkpt lat="-24.6284380" lon="-53.7134840">
        <ele>498.6</ele>
        <time>2018-09-15T18:29:13Z</time>
      </trkpt>
      <trkpt lat="-24.6283670" lon="-53.7135280">
        <ele>498.7</ele>
        <time>2018-09-15T18:29:14Z</time>
      </trkpt>
      <trkpt lat="-24.6282960" lon="-53.7135750">
        <ele>498.8</ele>
        <time>2018-09-15T18:29:15Z</time>
      </trkpt>
      <trkpt lat="-24.6282260" lon="-53.7136250">
        <ele>499.0</ele>
        <time>2018-09-15T18:29:16Z</time>
      </trkpt>
      <trkpt lat="-24.6281560" lon="-53.7136770">
        <ele>499.2</ele>
        <time>2018-09-15T18:29:17Z</time>
      </trkpt>
      <trkpt lat="-24.6281560" lon="-53.7136770">
        <ele>499.2</ele>
        <time>2018-09-15T18:29:18Z</time>
      </trkpt>
      <trkpt lat="-24.6280890" lon="-53.7137320">
        <ele>499.3</ele>
        <time>2018-09-15T18:29:19Z</time>
      </trkpt>
      <trkpt lat="-24.6280260" lon="-53.7137870">
        <ele>499.5</ele>
        <time>2018-09-15T18:29:20Z</time>
      </trkpt>
      <trkpt lat="-24.6279670" lon="-53.7138440">
        <ele>499.6</ele>
        <time>2018-09-15T18:29:21Z</time>
      </trkpt>
      <trkpt lat="-24.6279160" lon="-53.7139040">
        <ele>500.0</ele>
        <time>2018-09-15T18:29:22Z</time>
      </trkpt>
      <trkpt lat="-24.6278700" lon="-53.7139640">
        <ele>500.3</ele>
        <time>2018-09-15T18:29:23Z</time>
      </trkpt>
      <trkpt lat="-24.6278260" lon="-53.7140210">
        <ele>500.6</ele>
        <time>2018-09-15T18:29:24Z</time>
      </trkpt>
      <trkpt lat="-24.6277850" lon="-53.7140770">
        <ele>500.8</ele>
        <time>2018-09-15T18:29:25Z</time>
      </trkpt>
      <trkpt lat="-24.6277450" lon="-53.7141300">
        <ele>501.1</ele>
        <time>2018-09-15T18:29:26Z</time>
      </trkpt>
      <trkpt lat="-24.6277090" lon="-53.7141800">
        <ele>501.3</ele>
        <time>2018-09-15T18:29:27Z</time>
      </trkpt>
      <trkpt lat="-24.6276760" lon="-53.7142320">
        <ele>501.5</ele>
        <time>2018-09-15T18:29:28Z</time>
      </trkpt>
      <trkpt lat="-24.6276430" lon="-53.7142820">
        <ele>501.7</ele>
        <time>2018-09-15T18:29:29Z</time>
      </trkpt>
      <trkpt lat="-24.6276090" lon="-53.7143300">
        <ele>502.2</ele>
        <time>2018-09-15T18:29:30Z</time>
      </trkpt>
      <trkpt lat="-24.6275780" lon="-53.7143750">
        <ele>502.7</ele>
        <time>2018-09-15T18:29:31Z</time>
      </trkpt>
      <trkpt lat="-24.6275480" lon="-53.7144180">
        <ele>503.2</ele>
        <time>2018-09-15T18:29:32Z</time>
      </trkpt>
      <trkpt lat="-24.6275180" lon="-53.7144580">
        <ele>503.6</ele>
        <time>2018-09-15T18:29:33Z</time>
      </trkpt>
      <trkpt lat="-24.6274920" lon="-53.7144960">
        <ele>504.1</ele>
        <time>2018-09-15T18:29:34Z</time>
      </trkpt>
      <trkpt lat="-24.6274690" lon="-53.7145310">
        <ele>504.5</ele>
        <time>2018-09-15T18:29:35Z</time>
      </trkpt>
      <trkpt lat="-24.6274500" lon="-53.7145630">
        <ele>504.7</ele>
        <time>2018-09-15T18:29:36Z</time>
      </trkpt>
      <trkpt lat="-24.6274330" lon="-53.7145920">
        <ele>505.0</ele>
        <time>2018-09-15T18:29:37Z</time>
      </trkpt>
      <trkpt lat="-24.6274170" lon="-53.7146170">
        <ele>505.2</ele>
        <time>2018-09-15T18:29:38Z</time>
      </trkpt>
      <trkpt lat="-24.6274020" lon="-53.7146400">
        <ele>505.4</ele>
        <time>2018-09-15T18:29:39Z</time>
      </trkpt>
      <trkpt lat="-24.6273860" lon="-53.7146620">
        <ele>505.6</ele>
        <time>2018-09-15T18:29:40Z</time>
      </trkpt>
      <trkpt lat="-24.6273700" lon="-53.7146810">
        <ele>505.8</ele>
        <time>2018-09-15T18:29:41Z</time>
      </trkpt>
      <trkpt lat="-24.6273540" lon="-53.7147000">
        <ele>505.9</ele>
        <time>2018-09-15T18:29:42Z</time>
      </trkpt>
      <trkpt lat="-24.6273370" lon="-53.7147190">
        <ele>506.1</ele>
        <time>2018-09-15T18:29:43Z</time>
      </trkpt>
      <trkpt lat="-24.6273220" lon="-53.7147400">
        <ele>506.2</ele>
        <time>2018-09-15T18:29:44Z</time>
      </trkpt>
      <trkpt lat="-24.6273050" lon="-53.7147600">
        <ele>506.4</ele>
        <time>2018-09-15T18:29:45Z</time>
      </trkpt>
      <trkpt lat="-24.6272880" lon="-53.7147800">
        <ele>506.5</ele>
        <time>2018-09-15T18:29:46Z</time>
      </trkpt>
      <trkpt lat="-24.6272730" lon="-53.7148000">
        <ele>506.6</ele>
        <time>2018-09-15T18:29:47Z</time>
      </trkpt>
      <trkpt lat="-24.6272600" lon="-53.7148200">
        <ele>506.8</ele>
        <time>2018-09-15T18:29:48Z</time>
      </trkpt>
      <trkpt lat="-24.6272470" lon="-53.7148390">
        <ele>506.9</ele>
        <time>2018-09-15T18:29:49Z</time>
      </trkpt>
      <trkpt lat="-24.6272340" lon="-53.7148570">
        <ele>507.0</ele>
        <time>2018-09-15T18:29:50Z</time>
      </trkpt>
      <trkpt lat="-24.6272210" lon="-53.7148770">
        <ele>507.1</ele>
        <time>2018-09-15T18:29:51Z</time>
      </trkpt>
      <trkpt lat="-24.6272070" lon="-53.7148960">
        <ele>507.3</ele>
        <time>2018-09-15T18:29:52Z</time>
      </trkpt>
      <trkpt lat="-24.6271950" lon="-53.7149150">
        <ele>507.4</ele>
        <time>2018-09-15T18:29:53Z</time>
      </trkpt>
      <trkpt lat="-24.6271820" lon="-53.7149340">
        <ele>507.5</ele>
        <time>2018-09-15T18:29:54Z</time>
      </trkpt>
      <trkpt lat="-24.6271700" lon="-53.7149530">
        <ele>507.7</ele>
        <time>2018-09-15T18:29:55Z</time>
      </trkpt>
      <trkpt lat="-24.6271600" lon="-53.7149710">
        <ele>507.8</ele>
        <time>2018-09-15T18:29:56Z</time>
      </trkpt>
      <trkpt lat="-24.6271490" lon="-53.7149870">
        <ele>507.9</ele>
        <time>2018-09-15T18:29:57Z</time>
      </trkpt>
      <trkpt lat="-24.6271380" lon="-53.7150020">
        <ele>508.0</ele>
        <time>2018-09-15T18:29:58Z</time>
      </trkpt>
      <trkpt lat="-24.6271270" lon="-53.7150190">
        <ele>508.1</ele>
        <time>2018-09-15T18:29:59Z</time>
      </trkpt>
      <trkpt lat="-24.6271150" lon="-53.7150340">
        <ele>508.3</ele>
        <time>2018-09-15T18:30:00Z</time>
      </trkpt>
      <trkpt lat="-24.6271020" lon="-53.7150500">
        <ele>508.4</ele>
        <time>2018-09-15T18:30:01Z</time>
      </trkpt>
      <trkpt lat="-24.6270880" lon="-53.7150680">
        <ele>508.5</ele>
        <time>2018-09-15T18:30:02Z</time>
      </trkpt>
      <trkpt lat="-24.6270740" lon="-53.7150860">
        <ele>508.7</ele>
        <time>2018-09-15T18:30:03Z</time>
      </trkpt>
      <trkpt lat="-24.6270610" lon="-53.7151050">
        <ele>508.8</ele>
        <time>2018-09-15T18:30:04Z</time>
      </trkpt>
      <trkpt lat="-24.6270480" lon="-53.7151240">
        <ele>508.9</ele>
        <time>2018-09-15T18:30:05Z</time>
      </trkpt>
      <trkpt lat="-24.6270340" lon="-53.7151420">
        <ele>509.0</ele>
        <time>2018-09-15T18:30:06Z</time>
      </trkpt>
      <trkpt lat="-24.6270240" lon="-53.7151600">
        <ele>509.1</ele>
        <time>2018-09-15T18:30:07Z</time>
      </trkpt>
      <trkpt lat="-24.6270130" lon="-53.7151770">
        <ele>509.2</ele>
        <time>2018-09-15T18:30:08Z</time>
      </trkpt>
      <trkpt lat="-24.6270010" lon="-53.7151920">
        <ele>509.3</ele>
        <time>2018-09-15T18:30:09Z</time>
      </trkpt>
      <trkpt lat="-24.6269890" lon="-53.7152070">
        <ele>509.4</ele>
        <time>2018-09-15T18:30:10Z</time>
      </trkpt>
      <trkpt lat="-24.6269790" lon="-53.7152230">
        <ele>509.5</ele>
        <time>2018-09-15T18:30:11Z</time>
      </trkpt>
      <trkpt lat="-24.6269660" lon="-53.7152390">
        <ele>509.6</ele>
        <time>2018-09-15T18:30:12Z</time>
      </trkpt>
      <trkpt lat="-24.6269530" lon="-53.7152590">
        <ele>509.7</ele>
        <time>2018-09-15T18:30:13Z</time>
      </trkpt>
      <trkpt lat="-24.6269380" lon="-53.7152780">
        <ele>509.9</ele>
        <time>2018-09-15T18:30:14Z</time>
      </trkpt>
      <trkpt lat="-24.6269250" lon="-53.7152990">
        <ele>510.0</ele>
        <time>2018-09-15T18:30:15Z</time>
      </trkpt>
      <trkpt lat="-24.6269140" lon="-53.7153190">
        <ele>510.1</ele>
        <time>2018-09-15T18:30:16Z</time>
      </trkpt>
      <trkpt lat="-24.6269030" lon="-53.7153370">
        <ele>510.2</ele>
        <time>2018-09-15T18:30:17Z</time>
      </trkpt>
      <trkpt lat="-24.6268920" lon="-53.7153530">
        <ele>510.3</ele>
        <time>2018-09-15T18:30:18Z</time>
      </trkpt>
      <trkpt lat="-24.6268790" lon="-53.7153660">
        <ele>510.4</ele>
        <time>2018-09-15T18:30:19Z</time>
      </trkpt>
      <trkpt lat="-24.6268670" lon="-53.7153810">
        <ele>510.5</ele>
        <time>2018-09-15T18:30:20Z</time>
      </trkpt>
      <trkpt lat="-24.6268520" lon="-53.7153960">
        <ele>510.6</ele>
        <time>2018-09-15T18:30:21Z</time>
      </trkpt>
      <trkpt lat="-24.6268360" lon="-53.7154110">
        <ele>510.8</ele>
        <time>2018-09-15T18:30:22Z</time>
      </trkpt>
      <trkpt lat="-24.6268220" lon="-53.7154270">
        <ele>510.9</ele>
        <time>2018-09-15T18:30:23Z</time>
      </trkpt>
      <trkpt lat="-24.6268090" lon="-53.7154440">
        <ele>511.1</ele>
        <time>2018-09-15T18:30:24Z</time>
      </trkpt>
      <trkpt lat="-24.6267950" lon="-53.7154620">
        <ele>511.2</ele>
        <time>2018-09-15T18:30:25Z</time>
      </trkpt>
      <trkpt lat="-24.6267810" lon="-53.7154790">
        <ele>511.3</ele>
        <time>2018-09-15T18:30:26Z</time>
      </trkpt>
      <trkpt lat="-24.6267670" lon="-53.7154960">
        <ele>511.5</ele>
        <time>2018-09-15T18:30:27Z</time>
      </trkpt>
      <trkpt lat="-24.6267540" lon="-53.7155140">
        <ele>511.6</ele>
        <time>2018-09-15T18:30:28Z</time>
      </trkpt>
      <trkpt lat="-24.6267410" lon="-53.7155310">
        <ele>511.7</ele>
        <time>2018-09-15T18:30:29Z</time>
      </trkpt>
      <trkpt lat="-24.6267290" lon="-53.7155480">
        <ele>511.8</ele>
        <time>2018-09-15T18:30:30Z</time>
      </trkpt>
      <trkpt lat="-24.6267170" lon="-53.7155650">
        <ele>511.9</ele>
        <time>2018-09-15T18:30:31Z</time>
      </trkpt>
      <trkpt lat="-24.6267050" lon="-53.7155830">
        <ele>512.0</ele>
        <time>2018-09-15T18:30:32Z</time>
      </trkpt>
      <trkpt lat="-24.6266930" lon="-53.7156020">
        <ele>512.1</ele>
        <time>2018-09-15T18:30:33Z</time>
      </trkpt>
      <trkpt lat="-24.6266800" lon="-53.7156200">
        <ele>512.2</ele>
        <time>2018-09-15T18:30:34Z</time>
      </trkpt>
      <trkpt lat="-24.6266670" lon="-53.7156380">
        <ele>512.4</ele>
        <time>2018-09-15T18:30:35Z</time>
      </trkpt>
      <trkpt lat="-24.6266540" lon="-53.7156550">
        <ele>512.5</ele>
        <time>2018-09-15T18:30:36Z</time>
      </trkpt>
      <trkpt lat="-24.6266410" lon="-53.7156720">
        <ele>512.6</ele>
        <time>2018-09-15T18:30:37Z</time>
      </trkpt>
      <trkpt lat="-24.6266280" lon="-53.7156900">
        <ele>512.7</ele>
        <time>2018-09-15T18:30:38Z</time>
      </trkpt>
      <trkpt lat="-24.6266160" lon="-53.7157080">
        <ele>512.8</ele>
        <time>2018-09-15T18:30:39Z</time>
      </trkpt>
      <trkpt lat="-24.6266040" lon="-53.7157260">
        <ele>512.9</ele>
        <time>2018-09-15T18:30:40Z</time>
      </trkpt>
      <trkpt lat="-24.6265920" lon="-53.7157420">
        <ele>513.0</ele>
        <time>2018-09-15T18:30:41Z</time>
      </trkpt>
      <trkpt lat="-24.6265800" lon="-53.7157560">
        <ele>513.1</ele>
        <time>2018-09-15T18:30:42Z</time>
      </trkpt>
      <trkpt lat="-24.6265680" lon="-53.7157710">
        <ele>513.2</ele>
        <time>2018-09-15T18:30:43Z</time>
      </trkpt>
      <trkpt lat="-24.6265580" lon="-53.7157850">
        <ele>513.3</ele>
        <time>2018-09-15T18:30:44Z</time>
      </trkpt>
      <trkpt lat="-24.6265480" lon="-53.7158000">
        <ele>513.4</ele>
        <time>2018-09-15T18:30:45Z</time>
      </trkpt>
      <trkpt lat="-24.6265370" lon="-53.7158140">
        <ele>513.5</ele>
        <time>2018-09-15T18:30:46Z</time>
      </trkpt>
      <trkpt lat="-24.6265250" lon="-53.7158260">
        <ele>513.6</ele>
        <time>2018-09-15T18:30:47Z</time>
      </trkpt>
      <trkpt lat="-24.6265140" lon="-53.7158390">
        <ele>513.7</ele>
        <time>2018-09-15T18:30:48Z</time>
      </trkpt>
      <trkpt lat="-24.6265030" lon="-53.7158540">
        <ele>513.8</ele>
        <time>2018-09-15T18:30:49Z</time>
      </trkpt>
      <trkpt lat="-24.6264920" lon="-53.7158690">
        <ele>513.9</ele>
        <time>2018-09-15T18:30:50Z</time>
      </trkpt>
      <trkpt lat="-24.6264810" lon="-53.7158850">
        <ele>514.0</ele>
        <time>2018-09-15T18:30:51Z</time>
      </trkpt>
      <trkpt lat="-24.6264710" lon="-53.7159010">
        <ele>514.1</ele>
        <time>2018-09-15T18:30:52Z</time>
      </trkpt>
      <trkpt lat="-24.6264590" lon="-53.7159150">
        <ele>514.2</ele>
        <time>2018-09-15T18:30:53Z</time>
      </trkpt>
      <trkpt lat="-24.6264480" lon="-53.7159300">
        <ele>514.3</ele>
        <time>2018-09-15T18:30:54Z</time>
      </trkpt>
      <trkpt lat="-24.6264360" lon="-53.7159440">
        <ele>514.4</ele>
        <time>2018-09-15T18:30:55Z</time>
      </trkpt>
      <trkpt lat="-24.6264230" lon="-53.7159560">
        <ele>514.5</ele>
        <time>2018-09-15T18:30:56Z</time>
      </trkpt>
      <trkpt lat="-24.6264100" lon="-53.7159660">
        <ele>514.6</ele>
        <time>2018-09-15T18:30:57Z</time>
      </trkpt>
      <trkpt lat="-24.6263960" lon="-53.7159780">
        <ele>514.7</ele>
        <time>2018-09-15T18:30:58Z</time>
      </trkpt>
      <trkpt lat="-24.6263840" lon="-53.7159920">
        <ele>514.8</ele>
        <time>2018-09-15T18:30:59Z</time>
      </trkpt>
      <trkpt lat="-24.6263730" lon="-53.7160080">
        <ele>514.9</ele>
        <time>2018-09-15T18:31:00Z</time>
      </trkpt>
      <trkpt lat="-24.6263620" lon="-53.7160220">
        <ele>515.0</ele>
        <time>2018-09-15T18:31:01Z</time>
      </trkpt>
      <trkpt lat="-24.6263520" lon="-53.7160370">
        <ele>515.1</ele>
        <time>2018-09-15T18:31:02Z</time>
      </trkpt>
      <trkpt lat="-24.6263430" lon="-53.7160520">
        <ele>515.2</ele>
        <time>2018-09-15T18:31:03Z</time>
      </trkpt>
      <trkpt lat="-24.6263350" lon="-53.7160690">
        <ele>515.3</ele>
        <time>2018-09-15T18:31:04Z</time>
      </trkpt>
      <trkpt lat="-24.6263250" lon="-53.7160850">
        <ele>515.4</ele>
        <time>2018-09-15T18:31:05Z</time>
      </trkpt>
      <trkpt lat="-24.6263150" lon="-53.7161000">
        <ele>515.5</ele>
        <time>2018-09-15T18:31:06Z</time>
      </trkpt>
      <trkpt lat="-24.6263040" lon="-53.7161160">
        <ele>515.7</ele>
        <time>2018-09-15T18:31:07Z</time>
      </trkpt>
      <trkpt lat="-24.6262910" lon="-53.7161310">
        <ele>515.9</ele>
        <time>2018-09-15T18:31:08Z</time>
      </trkpt>
      <trkpt lat="-24.6262780" lon="-53.7161450">
        <ele>516.0</ele>
        <time>2018-09-15T18:31:09Z</time>
      </trkpt>
      <trkpt lat="-24.6262640" lon="-53.7161570">
        <ele>516.2</ele>
        <time>2018-09-15T18:31:10Z</time>
      </trkpt>
      <trkpt lat="-24.6262500" lon="-53.7161680">
        <ele>516.2</ele>
        <time>2018-09-15T18:31:11Z</time>
      </trkpt>
      <trkpt lat="-24.6262350" lon="-53.7161760">
        <ele>516.3</ele>
        <time>2018-09-15T18:31:12Z</time>
      </trkpt>
      <trkpt lat="-24.6262210" lon="-53.7161880">
        <ele>516.4</ele>
        <time>2018-09-15T18:31:13Z</time>
      </trkpt>
      <trkpt lat="-24.6262040" lon="-53.7162000">
        <ele>516.5</ele>
        <time>2018-09-15T18:31:14Z</time>
      </trkpt>
      <trkpt lat="-24.6261870" lon="-53.7162130">
        <ele>516.6</ele>
        <time>2018-09-15T18:31:15Z</time>
      </trkpt>
      <trkpt lat="-24.6261710" lon="-53.7162280">
        <ele>516.7</ele>
        <time>2018-09-15T18:31:16Z</time>
      </trkpt>
      <trkpt lat="-24.6261540" lon="-53.7162450">
        <ele>516.8</ele>
        <time>2018-09-15T18:31:17Z</time>
      </trkpt>
      <trkpt lat="-24.6261380" lon="-53.7162610">
        <ele>516.9</ele>
        <time>2018-09-15T18:31:18Z</time>
      </trkpt>
      <trkpt lat="-24.6261230" lon="-53.7162770">
        <ele>517.0</ele>
        <time>2018-09-15T18:31:19Z</time>
      </trkpt>
      <trkpt lat="-24.6261090" lon="-53.7162930">
        <ele>517.1</ele>
        <time>2018-09-15T18:31:20Z</time>
      </trkpt>
      <trkpt lat="-24.6260960" lon="-53.7163090">
        <ele>517.2</ele>
        <time>2018-09-15T18:31:21Z</time>
      </trkpt>
      <trkpt lat="-24.6260820" lon="-53.7163260">
        <ele>517.3</ele>
        <time>2018-09-15T18:31:22Z</time>
      </trkpt>
      <trkpt lat="-24.6260680" lon="-53.7163420">
        <ele>517.4</ele>
        <time>2018-09-15T18:31:23Z</time>
      </trkpt>
      <trkpt lat="-24.6260550" lon="-53.7163600">
        <ele>517.5</ele>
        <time>2018-09-15T18:31:24Z</time>
      </trkpt>
      <trkpt lat="-24.6260420" lon="-53.7163780">
        <ele>517.5</ele>
        <time>2018-09-15T18:31:25Z</time>
      </trkpt>
      <trkpt lat="-24.6260270" lon="-53.7163950">
        <ele>517.6</ele>
        <time>2018-09-15T18:31:26Z</time>
      </trkpt>
      <trkpt lat="-24.6260120" lon="-53.7164120">
        <ele>517.7</ele>
        <time>2018-09-15T18:31:27Z</time>
      </trkpt>
      <trkpt lat="-24.6259970" lon="-53.7164280">
        <ele>517.8</ele>
        <time>2018-09-15T18:31:28Z</time>
      </trkpt>
      <trkpt lat="-24.6259830" lon="-53.7164450">
        <ele>517.9</ele>
        <time>2018-09-15T18:31:29Z</time>
      </trkpt>
      <trkpt lat="-24.6259700" lon="-53.7164620">
        <ele>517.9</ele>
        <time>2018-09-15T18:31:30Z</time>
      </trkpt>
      <trkpt lat="-24.6259570" lon="-53.7164790">
        <ele>518.0</ele>
        <time>2018-09-15T18:31:31Z</time>
      </trkpt>
      <trkpt lat="-24.6259430" lon="-53.7164950">
        <ele>518.1</ele>
        <time>2018-09-15T18:31:32Z</time>
      </trkpt>
      <trkpt lat="-24.6259290" lon="-53.7165120">
        <ele>518.2</ele>
        <time>2018-09-15T18:31:33Z</time>
      </trkpt>
      <trkpt lat="-24.6259170" lon="-53.7165300">
        <ele>518.3</ele>
        <time>2018-09-15T18:31:34Z</time>
      </trkpt>
      <trkpt lat="-24.6259050" lon="-53.7165470">
        <ele>518.3</ele>
        <time>2018-09-15T18:31:35Z</time>
      </trkpt>
      <trkpt lat="-24.6258910" lon="-53.7165640">
        <ele>518.4</ele>
        <time>2018-09-15T18:31:36Z</time>
      </trkpt>
      <trkpt lat="-24.6258780" lon="-53.7165810">
        <ele>518.5</ele>
        <time>2018-09-15T18:31:37Z</time>
      </trkpt>
      <trkpt lat="-24.6258640" lon="-53.7165980">
        <ele>518.6</ele>
        <time>2018-09-15T18:31:38Z</time>
      </trkpt>
      <trkpt lat="-24.6258490" lon="-53.7166140">
        <ele>518.7</ele>
        <time>2018-09-15T18:31:39Z</time>
      </trkpt>
      <trkpt lat="-24.6258350" lon="-53.7166310">
        <ele>518.8</ele>
        <time>2018-09-15T18:31:40Z</time>
      </trkpt>
      <trkpt lat="-24.6258210" lon="-53.7166490">
        <ele>518.9</ele>
        <time>2018-09-15T18:31:41Z</time>
      </trkpt>
      <trkpt lat="-24.6258080" lon="-53.7166670">
        <ele>519.0</ele>
        <time>2018-09-15T18:31:42Z</time>
      </trkpt>
      <trkpt lat="-24.6257940" lon="-53.7166830">
        <ele>519.2</ele>
        <time>2018-09-15T18:31:43Z</time>
      </trkpt>
      <trkpt lat="-24.6257790" lon="-53.7167000">
        <ele>519.3</ele>
        <time>2018-09-15T18:31:44Z</time>
      </trkpt>
      <trkpt lat="-24.6257640" lon="-53.7167160">
        <ele>519.4</ele>
        <time>2018-09-15T18:31:45Z</time>
      </trkpt>
      <trkpt lat="-24.6257490" lon="-53.7167330">
        <ele>519.5</ele>
        <time>2018-09-15T18:31:46Z</time>
      </trkpt>
      <trkpt lat="-24.6257340" lon="-53.7167500">
        <ele>519.5</ele>
        <time>2018-09-15T18:31:47Z</time>
      </trkpt>
      <trkpt lat="-24.6257190" lon="-53.7167680">
        <ele>519.6</ele>
        <time>2018-09-15T18:31:48Z</time>
      </trkpt>
      <trkpt lat="-24.6257040" lon="-53.7167860">
        <ele>519.7</ele>
        <time>2018-09-15T18:31:49Z</time>
      </trkpt>
      <trkpt lat="-24.6256890" lon="-53.7168040">
        <ele>519.8</ele>
        <time>2018-09-15T18:31:50Z</time>
      </trkpt>
      <trkpt lat="-24.6256740" lon="-53.7168210">
        <ele>519.9</ele>
        <time>2018-09-15T18:31:51Z</time>
      </trkpt>
      <trkpt lat="-24.6256570" lon="-53.7168380">
        <ele>519.9</ele>
        <time>2018-09-15T18:31:52Z</time>
      </trkpt>
      <trkpt lat="-24.6256410" lon="-53.7168560">
        <ele>520.0</ele>
        <time>2018-09-15T18:31:53Z</time>
      </trkpt>
      <trkpt lat="-24.6256240" lon="-53.7168730">
        <ele>520.1</ele>
        <time>2018-09-15T18:31:54Z</time>
      </trkpt>
      <trkpt lat="-24.6256080" lon="-53.7168920">
        <ele>520.2</ele>
        <time>2018-09-15T18:31:55Z</time>
      </trkpt>
      <trkpt lat="-24.6255940" lon="-53.7169100">
        <ele>520.3</ele>
        <time>2018-09-15T18:31:56Z</time>
      </trkpt>
      <trkpt lat="-24.6255800" lon="-53.7169280">
        <ele>520.3</ele>
        <time>2018-09-15T18:31:57Z</time>
      </trkpt>
      <trkpt lat="-24.6255670" lon="-53.7169450">
        <ele>520.4</ele>
        <time>2018-09-15T18:31:58Z</time>
      </trkpt>
      <trkpt lat="-24.6255380" lon="-53.7169790">
        <ele>520.6</ele>
        <time>2018-09-15T18:31:59Z</time>
      </trkpt>
      <trkpt lat="-24.6255240" lon="-53.7169970">
        <ele>520.8</ele>
        <time>2018-09-15T18:32:01Z</time>
      </trkpt>
      <trkpt lat="-24.6255080" lon="-53.7170150">
        <ele>520.9</ele>
        <time>2018-09-15T18:32:02Z</time>
      </trkpt>
      <trkpt lat="-24.6254930" lon="-53.7170340">
        <ele>521.0</ele>
        <time>2018-09-15T18:32:03Z</time>
      </trkpt>
      <trkpt lat="-24.6254770" lon="-53.7170520">
        <ele>521.1</ele>
        <time>2018-09-15T18:32:04Z</time>
      </trkpt>
      <trkpt lat="-24.6254610" lon="-53.7170700">
        <ele>521.2</ele>
        <time>2018-09-15T18:32:05Z</time>
      </trkpt>
      <trkpt lat="-24.6254460" lon="-53.7170860">
        <ele>521.3</ele>
        <time>2018-09-15T18:32:06Z</time>
      </trkpt>
      <trkpt lat="-24.6254310" lon="-53.7171030">
        <ele>521.4</ele>
        <time>2018-09-15T18:32:07Z</time>
      </trkpt>
      <trkpt lat="-24.6254160" lon="-53.7171210">
        <ele>521.4</ele>
        <time>2018-09-15T18:32:08Z</time>
      </trkpt>
      <trkpt lat="-24.6254010" lon="-53.7171360">
        <ele>521.5</ele>
        <time>2018-09-15T18:32:09Z</time>
      </trkpt>
      <trkpt lat="-24.6253840" lon="-53.7171530">
        <ele>521.6</ele>
        <time>2018-09-15T18:32:10Z</time>
      </trkpt>
      <trkpt lat="-24.6253670" lon="-53.7171700">
        <ele>521.7</ele>
        <time>2018-09-15T18:32:11Z</time>
      </trkpt>
      <trkpt lat="-24.6253510" lon="-53.7171890">
        <ele>521.8</ele>
        <time>2018-09-15T18:32:12Z</time>
      </trkpt>
      <trkpt lat="-24.6253360" lon="-53.7172080">
        <ele>521.9</ele>
        <time>2018-09-15T18:32:13Z</time>
      </trkpt>
      <trkpt lat="-24.6253220" lon="-53.7172270">
        <ele>522.0</ele>
        <time>2018-09-15T18:32:14Z</time>
      </trkpt>
      <trkpt lat="-24.6253070" lon="-53.7172470">
        <ele>522.0</ele>
        <time>2018-09-15T18:32:15Z</time>
      </trkpt>
      <trkpt lat="-24.6252910" lon="-53.7172680">
        <ele>522.2</ele>
        <time>2018-09-15T18:32:16Z</time>
      </trkpt>
      <trkpt lat="-24.6252740" lon="-53.7172890">
        <ele>522.3</ele>
        <time>2018-09-15T18:32:17Z</time>
      </trkpt>
      <trkpt lat="-24.6252550" lon="-53.7173110">
        <ele>522.5</ele>
        <time>2018-09-15T18:32:18Z</time>
      </trkpt>
      <trkpt lat="-24.6252370" lon="-53.7173330">
        <ele>522.6</ele>
        <time>2018-09-15T18:32:19Z</time>
      </trkpt>
      <trkpt lat="-24.6252000" lon="-53.7173760">
        <ele>522.7</ele>
        <time>2018-09-15T18:32:20Z</time>
      </trkpt>
      <trkpt lat="-24.6251810" lon="-53.7173980">
        <ele>522.8</ele>
        <time>2018-09-15T18:32:21Z</time>
      </trkpt>
      <trkpt lat="-24.6251620" lon="-53.7174210">
        <ele>522.9</ele>
        <time>2018-09-15T18:32:22Z</time>
      </trkpt>
      <trkpt lat="-24.6251410" lon="-53.7174450">
        <ele>523.0</ele>
        <time>2018-09-15T18:32:23Z</time>
      </trkpt>
      <trkpt lat="-24.6251210" lon="-53.7174710">
        <ele>523.1</ele>
        <time>2018-09-15T18:32:24Z</time>
      </trkpt>
      <trkpt lat="-24.6251010" lon="-53.7174970">
        <ele>523.2</ele>
        <time>2018-09-15T18:32:25Z</time>
      </trkpt>
      <trkpt lat="-24.6250810" lon="-53.7175220">
        <ele>523.3</ele>
        <time>2018-09-15T18:32:26Z</time>
      </trkpt>
      <trkpt lat="-24.6250610" lon="-53.7175470">
        <ele>523.4</ele>
        <time>2018-09-15T18:32:27Z</time>
      </trkpt>
      <trkpt lat="-24.6250410" lon="-53.7175720">
        <ele>523.5</ele>
        <time>2018-09-15T18:32:28Z</time>
      </trkpt>
      <trkpt lat="-24.6250200" lon="-53.7175970">
        <ele>523.6</ele>
        <time>2018-09-15T18:32:29Z</time>
      </trkpt>
      <trkpt lat="-24.6250000" lon="-53.7176230">
        <ele>523.7</ele>
        <time>2018-09-15T18:32:30Z</time>
      </trkpt>
      <trkpt lat="-24.6249810" lon="-53.7176480">
        <ele>523.9</ele>
        <time>2018-09-15T18:32:31Z</time>
      </trkpt>
      <trkpt lat="-24.6249640" lon="-53.7176730">
        <ele>524.0</ele>
        <time>2018-09-15T18:32:32Z</time>
      </trkpt>
      <trkpt lat="-24.6249470" lon="-53.7176980">
        <ele>524.2</ele>
        <time>2018-09-15T18:32:33Z</time>
      </trkpt>
      <trkpt lat="-24.6249300" lon="-53.7177230">
        <ele>524.3</ele>
        <time>2018-09-15T18:32:34Z</time>
      </trkpt>
      <trkpt lat="-24.6249150" lon="-53.7177480">
        <ele>524.3</ele>
        <time>2018-09-15T18:32:35Z</time>
      </trkpt>
      <trkpt lat="-24.6248980" lon="-53.7177750">
        <ele>524.4</ele>
        <time>2018-09-15T18:32:36Z</time>
      </trkpt>
      <trkpt lat="-24.6248810" lon="-53.7178030">
        <ele>524.5</ele>
        <time>2018-09-15T18:32:37Z</time>
      </trkpt>
      <trkpt lat="-24.6248470" lon="-53.7178560">
        <ele>524.7</ele>
        <time>2018-09-15T18:32:39Z</time>
      </trkpt>
      <trkpt lat="-24.6248300" lon="-53.7178820">
        <ele>524.8</ele>
        <time>2018-09-15T18:32:40Z</time>
      </trkpt>
      <trkpt lat="-24.6248120" lon="-53.7179090">
        <ele>524.9</ele>
        <time>2018-09-15T18:32:41Z</time>
      </trkpt>
      <trkpt lat="-24.6247940" lon="-53.7179380">
        <ele>525.0</ele>
        <time>2018-09-15T18:32:42Z</time>
      </trkpt>
      <trkpt lat="-24.6247760" lon="-53.7179680">
        <ele>525.0</ele>
        <time>2018-09-15T18:32:43Z</time>
      </trkpt>
      <trkpt lat="-24.6247570" lon="-53.7179950">
        <ele>525.1</ele>
        <time>2018-09-15T18:32:44Z</time>
      </trkpt>
      <trkpt lat="-24.6247400" lon="-53.7180220">
        <ele>525.2</ele>
        <time>2018-09-15T18:32:45Z</time>
      </trkpt>
      <trkpt lat="-24.6247240" lon="-53.7180490">
        <ele>525.2</ele>
        <time>2018-09-15T18:32:46Z</time>
      </trkpt>
      <trkpt lat="-24.6247090" lon="-53.7180750">
        <ele>525.3</ele>
        <time>2018-09-15T18:32:47Z</time>
      </trkpt>
      <trkpt lat="-24.6246940" lon="-53.7181020">
        <ele>525.4</ele>
        <time>2018-09-15T18:32:48Z</time>
      </trkpt>
      <trkpt lat="-24.6246790" lon="-53.7181310">
        <ele>525.4</ele>
        <time>2018-09-15T18:32:49Z</time>
      </trkpt>
      <trkpt lat="-24.6246620" lon="-53.7181620">
        <ele>525.5</ele>
        <time>2018-09-15T18:32:50Z</time>
      </trkpt>
      <trkpt lat="-24.6246440" lon="-53.7181920">
        <ele>525.7</ele>
        <time>2018-09-15T18:32:51Z</time>
      </trkpt>
      <trkpt lat="-24.6246260" lon="-53.7182230">
        <ele>525.8</ele>
        <time>2018-09-15T18:32:52Z</time>
      </trkpt>
      <trkpt lat="-24.6246090" lon="-53.7182540">
        <ele>525.8</ele>
        <time>2018-09-15T18:32:53Z</time>
      </trkpt>
      <trkpt lat="-24.6245910" lon="-53.7182850">
        <ele>525.9</ele>
        <time>2018-09-15T18:32:54Z</time>
      </trkpt>
      <trkpt lat="-24.6245730" lon="-53.7183160">
        <ele>526.0</ele>
        <time>2018-09-15T18:32:55Z</time>
      </trkpt>
      <trkpt lat="-24.6245550" lon="-53.7183480">
        <ele>526.0</ele>
        <time>2018-09-15T18:32:56Z</time>
      </trkpt>
      <trkpt lat="-24.6245370" lon="-53.7183810">
        <ele>526.1</ele>
        <time>2018-09-15T18:32:57Z</time>
      </trkpt>
      <trkpt lat="-24.6245180" lon="-53.7184150">
        <ele>526.2</ele>
        <time>2018-09-15T18:32:58Z</time>
      </trkpt>
      <trkpt lat="-24.6244990" lon="-53.7184480">
        <ele>526.2</ele>
        <time>2018-09-15T18:32:59Z</time>
      </trkpt>
      <trkpt lat="-24.6244790" lon="-53.7184810">
        <ele>526.3</ele>
        <time>2018-09-15T18:33:00Z</time>
      </trkpt>
      <trkpt lat="-24.6244580" lon="-53.7185150">
        <ele>526.4</ele>
        <time>2018-09-15T18:33:01Z</time>
      </trkpt>
      <trkpt lat="-24.6244380" lon="-53.7185500">
        <ele>526.5</ele>
        <time>2018-09-15T18:33:02Z</time>
      </trkpt>
      <trkpt lat="-24.6244160" lon="-53.7185840">
        <ele>526.6</ele>
        <time>2018-09-15T18:33:03Z</time>
      </trkpt>
      <trkpt lat="-24.6243950" lon="-53.7186170">
        <ele>526.7</ele>
        <time>2018-09-15T18:33:04Z</time>
      </trkpt>
      <trkpt lat="-24.6243950" lon="-53.7186170">
        <ele>526.7</ele>
        <time>2018-09-15T18:33:05Z</time>
      </trkpt>
      <trkpt lat="-24.6243750" lon="-53.7186500">
        <ele>526.8</ele>
        <time>2018-09-15T18:33:06Z</time>
      </trkpt>
      <trkpt lat="-24.6243570" lon="-53.7186830">
        <ele>526.8</ele>
        <time>2018-09-15T18:33:07Z</time>
      </trkpt>
      <trkpt lat="-24.6243400" lon="-53.7187140">
        <ele>526.9</ele>
        <time>2018-09-15T18:33:08Z</time>
      </trkpt>
      <trkpt lat="-24.6243230" lon="-53.7187420">
        <ele>526.9</ele>
        <time>2018-09-15T18:33:09Z</time>
      </trkpt>
      <trkpt lat="-24.6243060" lon="-53.7187690">
        <ele>527.0</ele>
        <time>2018-09-15T18:33:10Z</time>
      </trkpt>
      <trkpt lat="-24.6242880" lon="-53.7187980">
        <ele>527.1</ele>
        <time>2018-09-15T18:33:11Z</time>
      </trkpt>
      <trkpt lat="-24.6242670" lon="-53.7188290">
        <ele>527.1</ele>
        <time>2018-09-15T18:33:12Z</time>
      </trkpt>
      <trkpt lat="-24.6242450" lon="-53.7188600">
        <ele>527.1</ele>
        <time>2018-09-15T18:33:13Z</time>
      </trkpt>
      <trkpt lat="-24.6242230" lon="-53.7188920">
        <ele>527.2</ele>
        <time>2018-09-15T18:33:14Z</time>
      </trkpt>
      <trkpt lat="-24.6242000" lon="-53.7189240">
        <ele>527.2</ele>
        <time>2018-09-15T18:33:15Z</time>
      </trkpt>
      <trkpt lat="-24.6241780" lon="-53.7189560">
        <ele>527.2</ele>
        <time>2018-09-15T18:33:16Z</time>
      </trkpt>
      <trkpt lat="-24.6241550" lon="-53.7189890">
        <ele>527.3</ele>
        <time>2018-09-15T18:33:17Z</time>
      </trkpt>
      <trkpt lat="-24.6241330" lon="-53.7190220">
        <ele>527.3</ele>
        <time>2018-09-15T18:33:18Z</time>
      </trkpt>
      <trkpt lat="-24.6241110" lon="-53.7190560">
        <ele>527.3</ele>
        <time>2018-09-15T18:33:19Z</time>
      </trkpt>
      <trkpt lat="-24.6240890" lon="-53.7190900">
        <ele>527.4</ele>
        <time>2018-09-15T18:33:20Z</time>
      </trkpt>
      <trkpt lat="-24.6240670" lon="-53.7191230">
        <ele>527.4</ele>
        <time>2018-09-15T18:33:21Z</time>
      </trkpt>
      <trkpt lat="-24.6240450" lon="-53.7191560">
        <ele>527.4</ele>
        <time>2018-09-15T18:33:22Z</time>
      </trkpt>
      <trkpt lat="-24.6240240" lon="-53.7191900">
        <ele>527.5</ele>
        <time>2018-09-15T18:33:23Z</time>
      </trkpt>
      <trkpt lat="-24.6240020" lon="-53.7192230">
        <ele>527.5</ele>
        <time>2018-09-15T18:33:24Z</time>
      </trkpt>
      <trkpt lat="-24.6239800" lon="-53.7192570">
        <ele>527.5</ele>
        <time>2018-09-15T18:33:25Z</time>
      </trkpt>
      <trkpt lat="-24.6239560" lon="-53.7192900">
        <ele>527.6</ele>
        <time>2018-09-15T18:33:26Z</time>
      </trkpt>
      <trkpt lat="-24.6239330" lon="-53.7193240">
        <ele>527.6</ele>
        <time>2018-09-15T18:33:27Z</time>
      </trkpt>
      <trkpt lat="-24.6239090" lon="-53.7193590">
        <ele>527.7</ele>
        <time>2018-09-15T18:33:28Z</time>
      </trkpt>
      <trkpt lat="-24.6238860" lon="-53.7193940">
        <ele>527.7</ele>
        <time>2018-09-15T18:33:29Z</time>
      </trkpt>
      <trkpt lat="-24.6238620" lon="-53.7194290">
        <ele>527.7</ele>
        <time>2018-09-15T18:33:30Z</time>
      </trkpt>
      <trkpt lat="-24.6238370" lon="-53.7194650">
        <ele>527.7</ele>
        <time>2018-09-15T18:33:31Z</time>
      </trkpt>
      <trkpt lat="-24.6238120" lon="-53.7195010">
        <ele>527.7</ele>
        <time>2018-09-15T18:33:32Z</time>
      </trkpt>
      <trkpt lat="-24.6237860" lon="-53.7195370">
        <ele>527.7</ele>
        <time>2018-09-15T18:33:33Z</time>
      </trkpt>
      <trkpt lat="-24.6237610" lon="-53.7195730">
        <ele>527.8</ele>
        <time>2018-09-15T18:33:34Z</time>
      </trkpt>
      <trkpt lat="-24.6237340" lon="-53.7196090">
        <ele>527.8</ele>
        <time>2018-09-15T18:33:35Z</time>
      </trkpt>
      <trkpt lat="-24.6237060" lon="-53.7196450">
        <ele>527.8</ele>
        <time>2018-09-15T18:33:36Z</time>
      </trkpt>
      <trkpt lat="-24.6236750" lon="-53.7196820">
        <ele>527.8</ele>
        <time>2018-09-15T18:33:37Z</time>
      </trkpt>
      <trkpt lat="-24.6236430" lon="-53.7197200">
        <ele>527.8</ele>
        <time>2018-09-15T18:33:38Z</time>
      </trkpt>
      <trkpt lat="-24.6236080" lon="-53.7197600">
        <ele>527.8</ele>
        <time>2018-09-15T18:33:39Z</time>
      </trkpt>
      <trkpt lat="-24.6235730" lon="-53.7197990">
        <ele>527.8</ele>
        <time>2018-09-15T18:33:40Z</time>
      </trkpt>
      <trkpt lat="-24.6235390" lon="-53.7198400">
        <ele>527.7</ele>
        <time>2018-09-15T18:33:41Z</time>
      </trkpt>
      <trkpt lat="-24.6235050" lon="-53.7198790">
        <ele>527.7</ele>
        <time>2018-09-15T18:33:42Z</time>
      </trkpt>
      <trkpt lat="-24.6234700" lon="-53.7199170">
        <ele>527.6</ele>
        <time>2018-09-15T18:33:43Z</time>
      </trkpt>
      <trkpt lat="-24.6234330" lon="-53.7199550">
        <ele>527.5</ele>
        <time>2018-09-15T18:33:44Z</time>
      </trkpt>
      <trkpt lat="-24.6233960" lon="-53.7199940">
        <ele>527.5</ele>
        <time>2018-09-15T18:33:45Z</time>
      </trkpt>
      <trkpt lat="-24.6233590" lon="-53.7200310">
        <ele>527.4</ele>
        <time>2018-09-15T18:33:46Z</time>
      </trkpt>
      <trkpt lat="-24.6233210" lon="-53.7200680">
        <ele>527.3</ele>
        <time>2018-09-15T18:33:47Z</time>
      </trkpt>
      <trkpt lat="-24.6232830" lon="-53.7201050">
        <ele>527.2</ele>
        <time>2018-09-15T18:33:48Z</time>
      </trkpt>
      <trkpt lat="-24.6232470" lon="-53.7201420">
        <ele>527.0</ele>
        <time>2018-09-15T18:33:49Z</time>
      </trkpt>
      <trkpt lat="-24.6232120" lon="-53.7201780">
        <ele>526.9</ele>
        <time>2018-09-15T18:33:50Z</time>
      </trkpt>
      <trkpt lat="-24.6231780" lon="-53.7202150">
        <ele>526.8</ele>
        <time>2018-09-15T18:33:51Z</time>
      </trkpt>
      <trkpt lat="-24.6231410" lon="-53.7202530">
        <ele>526.7</ele>
        <time>2018-09-15T18:33:52Z</time>
      </trkpt>
      <trkpt lat="-24.6231010" lon="-53.7202910">
        <ele>526.6</ele>
        <time>2018-09-15T18:33:53Z</time>
      </trkpt>
      <trkpt lat="-24.6230610" lon="-53.7203290">
        <ele>526.5</ele>
        <time>2018-09-15T18:33:54Z</time>
      </trkpt>
      <trkpt lat="-24.6230190" lon="-53.7203680">
        <ele>526.4</ele>
        <time>2018-09-15T18:33:55Z</time>
      </trkpt>
      <trkpt lat="-24.6229800" lon="-53.7204090">
        <ele>526.3</ele>
        <time>2018-09-15T18:33:56Z</time>
      </trkpt>
      <trkpt lat="-24.6229440" lon="-53.7204470">
        <ele>526.2</ele>
        <time>2018-09-15T18:33:57Z</time>
      </trkpt>
      <trkpt lat="-24.6229150" lon="-53.7204780">
        <ele>526.2</ele>
        <time>2018-09-15T18:33:58Z</time>
      </trkpt>
      <trkpt lat="-24.6228910" lon="-53.7205010">
        <ele>526.1</ele>
        <time>2018-09-15T18:33:59Z</time>
      </trkpt>
      <trkpt lat="-24.6228730" lon="-53.7205190">
        <ele>526.1</ele>
        <time>2018-09-15T18:34:00Z</time>
      </trkpt>
      <trkpt lat="-24.6228600" lon="-53.7205340">
        <ele>526.1</ele>
        <time>2018-09-15T18:34:01Z</time>
      </trkpt>
      <trkpt lat="-24.6228510" lon="-53.7205430">
        <ele>526.0</ele>
        <time>2018-09-15T18:34:02Z</time>
      </trkpt>
      <trkpt lat="-24.6228490" lon="-53.7205470">
        <ele>526.0</ele>
        <time>2018-09-15T18:34:03Z</time>
      </trkpt>
      <trkpt lat="-24.6228480" lon="-53.7205470">
        <ele>526.0</ele>
        <time>2018-09-15T18:34:04Z</time>
      </trkpt>
      <trkpt lat="-24.6228390" lon="-53.7205540">
        <ele>526.0</ele>
        <time>2018-09-15T18:34:23Z</time>
      </trkpt>
      <trkpt lat="-24.6228410" lon="-53.7205560">
        <ele>525.8</ele>
        <time>2018-09-15T18:34:24Z</time>
      </trkpt>
      <trkpt lat="-24.6228410" lon="-53.7205570">
        <ele>525.8</ele>
        <time>2018-09-15T18:34:25Z</time>
      </trkpt>
      <trkpt lat="-24.6228410" lon="-53.7205600">
        <ele>525.8</ele>
        <time>2018-09-15T18:34:26Z</time>
      </trkpt>
      <trkpt lat="-24.6228420" lon="-53.7205630">
        <ele>525.8</ele>
        <time>2018-09-15T18:34:27Z</time>
      </trkpt>
      <trkpt lat="-24.6228410" lon="-53.7205670">
        <ele>525.8</ele>
        <time>2018-09-15T18:34:28Z</time>
      </trkpt>
      <trkpt lat="-24.6228400" lon="-53.7205740">
        <ele>525.8</ele>
        <time>2018-09-15T18:34:29Z</time>
      </trkpt>
      <trkpt lat="-24.6228360" lon="-53.7205810">
        <ele>525.7</ele>
        <time>2018-09-15T18:34:30Z</time>
      </trkpt>
      <trkpt lat="-24.6228370" lon="-53.7205840">
        <ele>525.7</ele>
        <time>2018-09-15T18:34:31Z</time>
      </trkpt>
      <trkpt lat="-24.6228400" lon="-53.7205850">
        <ele>525.7</ele>
        <time>2018-09-15T18:34:32Z</time>
      </trkpt>
      <trkpt lat="-24.6228400" lon="-53.7205860">
        <ele>525.7</ele>
        <time>2018-09-15T18:34:33Z</time>
      </trkpt>
      <trkpt lat="-24.6228380" lon="-53.7205950">
        <ele>525.7</ele>
        <time>2018-09-15T18:35:07Z</time>
      </trkpt>
      <trkpt lat="-24.6228320" lon="-53.7205980">
        <ele>525.6</ele>
        <time>2018-09-15T18:35:08Z</time>
      </trkpt>
      <trkpt lat="-24.6228300" lon="-53.7205990">
        <ele>525.6</ele>
        <time>2018-09-15T18:35:09Z</time>
      </trkpt>
      <trkpt lat="-24.6228300" lon="-53.7205990">
        <ele>525.6</ele>
        <time>2018-09-15T18:35:10Z</time>
      </trkpt>
      <trkpt lat="-24.6228280" lon="-53.7206010">
        <ele>525.6</ele>
        <time>2018-09-15T18:35:14Z</time>
      </trkpt>
      <trkpt lat="-24.6228210" lon="-53.7206030">
        <ele>525.6</ele>
        <time>2018-09-15T18:35:15Z</time>
      </trkpt>
      <trkpt lat="-24.6228140" lon="-53.7206090">
        <ele>525.5</ele>
        <time>2018-09-15T18:35:16Z</time>
      </trkpt>
      <trkpt lat="-24.6228060" lon="-53.7206170">
        <ele>525.5</ele>
        <time>2018-09-15T18:35:17Z</time>
      </trkpt>
      <trkpt lat="-24.6227940" lon="-53.7206330">
        <ele>525.4</ele>
        <time>2018-09-15T18:35:18Z</time>
      </trkpt>
      <trkpt lat="-24.6227800" lon="-53.7206530">
        <ele>525.2</ele>
        <time>2018-09-15T18:35:19Z</time>
      </trkpt>
      <trkpt lat="-24.6227620" lon="-53.7206730">
        <ele>525.1</ele>
        <time>2018-09-15T18:35:20Z</time>
      </trkpt>
      <trkpt lat="-24.6227450" lon="-53.7206950">
        <ele>524.9</ele>
        <time>2018-09-15T18:35:21Z</time>
      </trkpt>
      <trkpt lat="-24.6227250" lon="-53.7207200">
        <ele>524.7</ele>
        <time>2018-09-15T18:35:22Z</time>
      </trkpt>
      <trkpt lat="-24.6227050" lon="-53.7207450">
        <ele>524.5</ele>
        <time>2018-09-15T18:35:23Z</time>
      </trkpt>
      <trkpt lat="-24.6226840" lon="-53.7207710">
        <ele>524.3</ele>
        <time>2018-09-15T18:35:24Z</time>
      </trkpt>
      <trkpt lat="-24.6226650" lon="-53.7207990">
        <ele>524.1</ele>
        <time>2018-09-15T18:35:25Z</time>
      </trkpt>
      <trkpt lat="-24.6226430" lon="-53.7208280">
        <ele>523.9</ele>
        <time>2018-09-15T18:35:26Z</time>
      </trkpt>
      <trkpt lat="-24.6226170" lon="-53.7208570">
        <ele>523.7</ele>
        <time>2018-09-15T18:35:27Z</time>
      </trkpt>
      <trkpt lat="-24.6225860" lon="-53.7208830">
        <ele>523.6</ele>
        <time>2018-09-15T18:35:28Z</time>
      </trkpt>
      <trkpt lat="-24.6225560" lon="-53.7209120">
        <ele>523.5</ele>
        <time>2018-09-15T18:35:29Z</time>
      </trkpt>
      <trkpt lat="-24.6225270" lon="-53.7209450">
        <ele>523.3</ele>
        <time>2018-09-15T18:35:30Z</time>
      </trkpt>
      <trkpt lat="-24.6225000" lon="-53.7209820">
        <ele>523.2</ele>
        <time>2018-09-15T18:35:31Z</time>
      </trkpt>
      <trkpt lat="-24.6224720" lon="-53.7210210">
        <ele>523.1</ele>
        <time>2018-09-15T18:35:32Z</time>
      </trkpt>
      <trkpt lat="-24.6224440" lon="-53.7210600">
        <ele>523.0</ele>
        <time>2018-09-15T18:35:33Z</time>
      </trkpt>
      <trkpt lat="-24.6224170" lon="-53.7211010">
        <ele>522.7</ele>
        <time>2018-09-15T18:35:34Z</time>
      </trkpt>
      <trkpt lat="-24.6223910" lon="-53.7211410">
        <ele>522.5</ele>
        <time>2018-09-15T18:35:35Z</time>
      </trkpt>
      <trkpt lat="-24.6223620" lon="-53.7211790">
        <ele>522.2</ele>
        <time>2018-09-15T18:35:36Z</time>
      </trkpt>
      <trkpt lat="-24.6223320" lon="-53.7212150">
        <ele>521.9</ele>
        <time>2018-09-15T18:35:37Z</time>
      </trkpt>
      <trkpt lat="-24.6222990" lon="-53.7212550">
        <ele>521.6</ele>
        <time>2018-09-15T18:35:38Z</time>
      </trkpt>
      <trkpt lat="-24.6222630" lon="-53.7212990">
        <ele>521.4</ele>
        <time>2018-09-15T18:35:39Z</time>
      </trkpt>
      <trkpt lat="-24.6222250" lon="-53.7213480">
        <ele>521.2</ele>
        <time>2018-09-15T18:35:40Z</time>
      </trkpt>
      <trkpt lat="-24.6221840" lon="-53.7213990">
        <ele>521.0</ele>
        <time>2018-09-15T18:35:41Z</time>
      </trkpt>
      <trkpt lat="-24.6221410" lon="-53.7214510">
        <ele>520.9</ele>
        <time>2018-09-15T18:35:42Z</time>
      </trkpt>
      <trkpt lat="-24.6220980" lon="-53.7215060">
        <ele>520.8</ele>
        <time>2018-09-15T18:35:43Z</time>
      </trkpt>
      <trkpt lat="-24.6220540" lon="-53.7215630">
        <ele>520.6</ele>
        <time>2018-09-15T18:35:44Z</time>
      </trkpt>
      <trkpt lat="-24.6220100" lon="-53.7216200">
        <ele>520.5</ele>
        <time>2018-09-15T18:35:45Z</time>
      </trkpt>
      <trkpt lat="-24.6219660" lon="-53.7216770">
        <ele>520.2</ele>
        <time>2018-09-15T18:35:46Z</time>
      </trkpt>
      <trkpt lat="-24.6219210" lon="-53.7217350">
        <ele>519.9</ele>
        <time>2018-09-15T18:35:47Z</time>
      </trkpt>
      <trkpt lat="-24.6218750" lon="-53.7217950">
        <ele>519.5</ele>
        <time>2018-09-15T18:35:48Z</time>
      </trkpt>
      <trkpt lat="-24.6218270" lon="-53.7218560">
        <ele>519.0</ele>
        <time>2018-09-15T18:35:49Z</time>
      </trkpt>
      <trkpt lat="-24.6217770" lon="-53.7219190">
        <ele>518.5</ele>
        <time>2018-09-15T18:35:50Z</time>
      </trkpt>
      <trkpt lat="-24.6217270" lon="-53.7219840">
        <ele>518.0</ele>
        <time>2018-09-15T18:35:51Z</time>
      </trkpt>
      <trkpt lat="-24.6216760" lon="-53.7220490">
        <ele>517.4</ele>
        <time>2018-09-15T18:35:52Z</time>
      </trkpt>
      <trkpt lat="-24.6216240" lon="-53.7221150">
        <ele>516.9</ele>
        <time>2018-09-15T18:35:53Z</time>
      </trkpt>
      <trkpt lat="-24.6215690" lon="-53.7221830">
        <ele>516.3</ele>
        <time>2018-09-15T18:35:54Z</time>
      </trkpt>
      <trkpt lat="-24.6215130" lon="-53.7222520">
        <ele>515.7</ele>
        <time>2018-09-15T18:35:55Z</time>
      </trkpt>
      <trkpt lat="-24.6214570" lon="-53.7223220">
        <ele>515.1</ele>
        <time>2018-09-15T18:35:56Z</time>
      </trkpt>
      <trkpt lat="-24.6213990" lon="-53.7223930">
        <ele>514.5</ele>
        <time>2018-09-15T18:35:57Z</time>
      </trkpt>
      <trkpt lat="-24.6213410" lon="-53.7224650">
        <ele>513.9</ele>
        <time>2018-09-15T18:35:58Z</time>
      </trkpt>
      <trkpt lat="-24.6212210" lon="-53.7226100">
        <ele>512.9</ele>
        <time>2018-09-15T18:35:59Z</time>
      </trkpt>
      <trkpt lat="-24.6211590" lon="-53.7226820">
        <ele>512.4</ele>
        <time>2018-09-15T18:36:01Z</time>
      </trkpt>
      <trkpt lat="-24.6210970" lon="-53.7227570">
        <ele>512.1</ele>
        <time>2018-09-15T18:36:02Z</time>
      </trkpt>
      <trkpt lat="-24.6210330" lon="-53.7228330">
        <ele>511.7</ele>
        <time>2018-09-15T18:36:03Z</time>
      </trkpt>
      <trkpt lat="-24.6209680" lon="-53.7229110">
        <ele>511.4</ele>
        <time>2018-09-15T18:36:04Z</time>
      </trkpt>
      <trkpt lat="-24.6209020" lon="-53.7229910">
        <ele>511.0</ele>
        <time>2018-09-15T18:36:05Z</time>
      </trkpt>
      <trkpt lat="-24.6208330" lon="-53.7230710">
        <ele>510.8</ele>
        <time>2018-09-15T18:36:06Z</time>
      </trkpt>
      <trkpt lat="-24.6207270" lon="-53.7231910">
        <ele>510.5</ele>
        <time>2018-09-15T18:36:07Z</time>
      </trkpt>
      <trkpt lat="-24.6206210" lon="-53.7233100">
        <ele>510.2</ele>
        <time>2018-09-15T18:36:08Z</time>
      </trkpt>
      <trkpt lat="-24.6204730" lon="-53.7234760">
        <ele>509.3</ele>
        <time>2018-09-15T18:36:10Z</time>
      </trkpt>
      <trkpt lat="-24.6203960" lon="-53.7235620">
        <ele>508.8</ele>
        <time>2018-09-15T18:36:11Z</time>
      </trkpt>
      <trkpt lat="-24.6203180" lon="-53.7236490">
        <ele>508.3</ele>
        <time>2018-09-15T18:36:12Z</time>
      </trkpt>
      <trkpt lat="-24.6202390" lon="-53.7237360">
        <ele>507.7</ele>
        <time>2018-09-15T18:36:13Z</time>
      </trkpt>
      <trkpt lat="-24.6201590" lon="-53.7238240">
        <ele>507.0</ele>
        <time>2018-09-15T18:36:14Z</time>
      </trkpt>
      <trkpt lat="-24.6200790" lon="-53.7239110">
        <ele>506.4</ele>
        <time>2018-09-15T18:36:15Z</time>
      </trkpt>
      <trkpt lat="-24.6199980" lon="-53.7239960">
        <ele>505.7</ele>
        <time>2018-09-15T18:36:16Z</time>
      </trkpt>
      <trkpt lat="-24.6199150" lon="-53.7240820">
        <ele>504.9</ele>
        <time>2018-09-15T18:36:17Z</time>
      </trkpt>
      <trkpt lat="-24.6198320" lon="-53.7241680">
        <ele>504.3</ele>
        <time>2018-09-15T18:36:18Z</time>
      </trkpt>
      <trkpt lat="-24.6197480" lon="-53.7242540">
        <ele>503.6</ele>
        <time>2018-09-15T18:36:19Z</time>
      </trkpt>
      <trkpt lat="-24.6196630" lon="-53.7243410">
        <ele>503.1</ele>
        <time>2018-09-15T18:36:20Z</time>
      </trkpt>
      <trkpt lat="-24.6195790" lon="-53.7244280">
        <ele>502.7</ele>
        <time>2018-09-15T18:36:21Z</time>
      </trkpt>
      <trkpt lat="-24.6194960" lon="-53.7245170">
        <ele>502.2</ele>
        <time>2018-09-15T18:36:22Z</time>
      </trkpt>
      <trkpt lat="-24.6194120" lon="-53.7246030">
        <ele>501.9</ele>
        <time>2018-09-15T18:36:23Z</time>
      </trkpt>
      <trkpt lat="-24.6193280" lon="-53.7246890">
        <ele>501.5</ele>
        <time>2018-09-15T18:36:24Z</time>
      </trkpt>
      <trkpt lat="-24.6192430" lon="-53.7247760">
        <ele>501.2</ele>
        <time>2018-09-15T18:36:25Z</time>
      </trkpt>
      <trkpt lat="-24.6191580" lon="-53.7248610">
        <ele>500.6</ele>
        <time>2018-09-15T18:36:26Z</time>
      </trkpt>
      <trkpt lat="-24.6190740" lon="-53.7249460">
        <ele>499.9</ele>
        <time>2018-09-15T18:36:27Z</time>
      </trkpt>
      <trkpt lat="-24.6189920" lon="-53.7250300">
        <ele>499.2</ele>
        <time>2018-09-15T18:36:28Z</time>
      </trkpt>
      <trkpt lat="-24.6188350" lon="-53.7251950">
        <ele>497.9</ele>
        <time>2018-09-15T18:36:30Z</time>
      </trkpt>
      <trkpt lat="-24.6187630" lon="-53.7252760">
        <ele>497.3</ele>
        <time>2018-09-15T18:36:31Z</time>
      </trkpt>
      <trkpt lat="-24.6186950" lon="-53.7253550">
        <ele>496.8</ele>
        <time>2018-09-15T18:36:32Z</time>
      </trkpt>
      <trkpt lat="-24.6186290" lon="-53.7254300">
        <ele>496.3</ele>
        <time>2018-09-15T18:36:33Z</time>
      </trkpt>
      <trkpt lat="-24.6185650" lon="-53.7255010">
        <ele>495.9</ele>
        <time>2018-09-15T18:36:34Z</time>
      </trkpt>
      <trkpt lat="-24.6185040" lon="-53.7255700">
        <ele>495.7</ele>
        <time>2018-09-15T18:36:35Z</time>
      </trkpt>
      <trkpt lat="-24.6184450" lon="-53.7256380">
        <ele>495.6</ele>
        <time>2018-09-15T18:36:36Z</time>
      </trkpt>
      <trkpt lat="-24.6183890" lon="-53.7257040">
        <ele>495.5</ele>
        <time>2018-09-15T18:36:37Z</time>
      </trkpt>
      <trkpt lat="-24.6183370" lon="-53.7257680">
        <ele>495.4</ele>
        <time>2018-09-15T18:36:38Z</time>
      </trkpt>
      <trkpt lat="-24.6182880" lon="-53.7258310">
        <ele>495.3</ele>
        <time>2018-09-15T18:36:39Z</time>
      </trkpt>
      <trkpt lat="-24.6182410" lon="-53.7258920">
        <ele>495.3</ele>
        <time>2018-09-15T18:36:40Z</time>
      </trkpt>
      <trkpt lat="-24.6181950" lon="-53.7259490">
        <ele>495.3</ele>
        <time>2018-09-15T18:36:41Z</time>
      </trkpt>
      <trkpt lat="-24.6181490" lon="-53.7260030">
        <ele>495.3</ele>
        <time>2018-09-15T18:36:42Z</time>
      </trkpt>
      <trkpt lat="-24.6181050" lon="-53.7260540">
        <ele>495.2</ele>
        <time>2018-09-15T18:36:43Z</time>
      </trkpt>
      <trkpt lat="-24.6180600" lon="-53.7261030">
        <ele>495.2</ele>
        <time>2018-09-15T18:36:44Z</time>
      </trkpt>
      <trkpt lat="-24.6180160" lon="-53.7261490">
        <ele>495.2</ele>
        <time>2018-09-15T18:36:45Z</time>
      </trkpt>
      <trkpt lat="-24.6179710" lon="-53.7261980">
        <ele>495.2</ele>
        <time>2018-09-15T18:36:46Z</time>
      </trkpt>
      <trkpt lat="-24.6179260" lon="-53.7262460">
        <ele>495.1</ele>
        <time>2018-09-15T18:36:47Z</time>
      </trkpt>
      <trkpt lat="-24.6178760" lon="-53.7262920">
        <ele>495.1</ele>
        <time>2018-09-15T18:36:48Z</time>
      </trkpt>
      <trkpt lat="-24.6178250" lon="-53.7263370">
        <ele>495.1</ele>
        <time>2018-09-15T18:36:49Z</time>
      </trkpt>
      <trkpt lat="-24.6178250" lon="-53.7263370">
        <ele>495.1</ele>
        <time>2018-09-15T18:36:50Z</time>
      </trkpt>
      <trkpt lat="-24.6177730" lon="-53.7263810">
        <ele>495.1</ele>
        <time>2018-09-15T18:36:51Z</time>
      </trkpt>
      <trkpt lat="-24.6177220" lon="-53.7264240">
        <ele>495.1</ele>
        <time>2018-09-15T18:36:52Z</time>
      </trkpt>
      <trkpt lat="-24.6176690" lon="-53.7264660">
        <ele>495.0</ele>
        <time>2018-09-15T18:36:53Z</time>
      </trkpt>
      <trkpt lat="-24.6176160" lon="-53.7265070">
        <ele>495.0</ele>
        <time>2018-09-15T18:36:54Z</time>
      </trkpt>
      <trkpt lat="-24.6175630" lon="-53.7265480">
        <ele>495.0</ele>
        <time>2018-09-15T18:36:55Z</time>
      </trkpt>
      <trkpt lat="-24.6175100" lon="-53.7265880">
        <ele>495.0</ele>
        <time>2018-09-15T18:36:56Z</time>
      </trkpt>
      <trkpt lat="-24.6174580" lon="-53.7266250">
        <ele>495.0</ele>
        <time>2018-09-15T18:36:57Z</time>
      </trkpt>
      <trkpt lat="-24.6174050" lon="-53.7266610">
        <ele>495.1</ele>
        <time>2018-09-15T18:36:58Z</time>
      </trkpt>
      <trkpt lat="-24.6173540" lon="-53.7266970">
        <ele>495.1</ele>
        <time>2018-09-15T18:36:59Z</time>
      </trkpt>
      <trkpt lat="-24.6173040" lon="-53.7267330">
        <ele>495.1</ele>
        <time>2018-09-15T18:37:00Z</time>
      </trkpt>
      <trkpt lat="-24.6172540" lon="-53.7267660">
        <ele>495.2</ele>
        <time>2018-09-15T18:37:01Z</time>
      </trkpt>
      <trkpt lat="-24.6172050" lon="-53.7267990">
        <ele>495.2</ele>
        <time>2018-09-15T18:37:02Z</time>
      </trkpt>
      <trkpt lat="-24.6171560" lon="-53.7268290">
        <ele>495.2</ele>
        <time>2018-09-15T18:37:03Z</time>
      </trkpt>
      <trkpt lat="-24.6171080" lon="-53.7268560">
        <ele>495.3</ele>
        <time>2018-09-15T18:37:04Z</time>
      </trkpt>
      <trkpt lat="-24.6170600" lon="-53.7268830">
        <ele>495.3</ele>
        <time>2018-09-15T18:37:05Z</time>
      </trkpt>
      <trkpt lat="-24.6170140" lon="-53.7269080">
        <ele>495.3</ele>
        <time>2018-09-15T18:37:06Z</time>
      </trkpt>
      <trkpt lat="-24.6169690" lon="-53.7269320">
        <ele>495.4</ele>
        <time>2018-09-15T18:37:07Z</time>
      </trkpt>
      <trkpt lat="-24.6169240" lon="-53.7269570">
        <ele>495.5</ele>
        <time>2018-09-15T18:37:08Z</time>
      </trkpt>
      <trkpt lat="-24.6168810" lon="-53.7269810">
        <ele>495.7</ele>
        <time>2018-09-15T18:37:09Z</time>
      </trkpt>
      <trkpt lat="-24.6168390" lon="-53.7270060">
        <ele>495.9</ele>
        <time>2018-09-15T18:37:10Z</time>
      </trkpt>
      <trkpt lat="-24.6167960" lon="-53.7270310">
        <ele>496.1</ele>
        <time>2018-09-15T18:37:11Z</time>
      </trkpt>
      <trkpt lat="-24.6167550" lon="-53.7270550">
        <ele>496.3</ele>
        <time>2018-09-15T18:37:12Z</time>
      </trkpt>
      <trkpt lat="-24.6167150" lon="-53.7270790">
        <ele>496.4</ele>
        <time>2018-09-15T18:37:13Z</time>
      </trkpt>
      <trkpt lat="-24.6166750" lon="-53.7271030">
        <ele>496.6</ele>
        <time>2018-09-15T18:37:14Z</time>
      </trkpt>
      <trkpt lat="-24.6166320" lon="-53.7271270">
        <ele>496.7</ele>
        <time>2018-09-15T18:37:15Z</time>
      </trkpt>
      <trkpt lat="-24.6165900" lon="-53.7271520">
        <ele>496.8</ele>
        <time>2018-09-15T18:37:16Z</time>
      </trkpt>
      <trkpt lat="-24.6165480" lon="-53.7271780">
        <ele>496.9</ele>
        <time>2018-09-15T18:37:17Z</time>
      </trkpt>
      <trkpt lat="-24.6165060" lon="-53.7272030">
        <ele>497.0</ele>
        <time>2018-09-15T18:37:18Z</time>
      </trkpt>
      <trkpt lat="-24.6164650" lon="-53.7272280">
        <ele>497.0</ele>
        <time>2018-09-15T18:37:19Z</time>
      </trkpt>
      <trkpt lat="-24.6164230" lon="-53.7272510">
        <ele>497.1</ele>
        <time>2018-09-15T18:37:20Z</time>
      </trkpt>
      <trkpt lat="-24.6163820" lon="-53.7272740">
        <ele>497.2</ele>
        <time>2018-09-15T18:37:21Z</time>
      </trkpt>
      <trkpt lat="-24.6163400" lon="-53.7272960">
        <ele>497.3</ele>
        <time>2018-09-15T18:37:22Z</time>
      </trkpt>
      <trkpt lat="-24.6163010" lon="-53.7273180">
        <ele>497.3</ele>
        <time>2018-09-15T18:37:23Z</time>
      </trkpt>
      <trkpt lat="-24.6162620" lon="-53.7273420">
        <ele>497.5</ele>
        <time>2018-09-15T18:37:24Z</time>
      </trkpt>
      <trkpt lat="-24.6162240" lon="-53.7273650">
        <ele>497.6</ele>
        <time>2018-09-15T18:37:25Z</time>
      </trkpt>
      <trkpt lat="-24.6161870" lon="-53.7273860">
        <ele>497.8</ele>
        <time>2018-09-15T18:37:26Z</time>
      </trkpt>
      <trkpt lat="-24.6161490" lon="-53.7274060">
        <ele>497.9</ele>
        <time>2018-09-15T18:37:27Z</time>
      </trkpt>
      <trkpt lat="-24.6161120" lon="-53.7274260">
        <ele>498.1</ele>
        <time>2018-09-15T18:37:28Z</time>
      </trkpt>
      <trkpt lat="-24.6160750" lon="-53.7274470">
        <ele>498.2</ele>
        <time>2018-09-15T18:37:29Z</time>
      </trkpt>
      <trkpt lat="-24.6160390" lon="-53.7274690">
        <ele>498.2</ele>
        <time>2018-09-15T18:37:30Z</time>
      </trkpt>
      <trkpt lat="-24.6160030" lon="-53.7274890">
        <ele>498.3</ele>
        <time>2018-09-15T18:37:31Z</time>
      </trkpt>
      <trkpt lat="-24.6159670" lon="-53.7275110">
        <ele>498.3</ele>
        <time>2018-09-15T18:37:32Z</time>
      </trkpt>
      <trkpt lat="-24.6159310" lon="-53.7275310">
        <ele>498.3</ele>
        <time>2018-09-15T18:37:33Z</time>
      </trkpt>
      <trkpt lat="-24.6158970" lon="-53.7275520">
        <ele>498.4</ele>
        <time>2018-09-15T18:37:34Z</time>
      </trkpt>
      <trkpt lat="-24.6158620" lon="-53.7275720">
        <ele>498.4</ele>
        <time>2018-09-15T18:37:35Z</time>
      </trkpt>
      <trkpt lat="-24.6158270" lon="-53.7275910">
        <ele>498.5</ele>
        <time>2018-09-15T18:37:36Z</time>
      </trkpt>
      <trkpt lat="-24.6157910" lon="-53.7276100">
        <ele>498.5</ele>
        <time>2018-09-15T18:37:37Z</time>
      </trkpt>
      <trkpt lat="-24.6157550" lon="-53.7276320">
        <ele>498.6</ele>
        <time>2018-09-15T18:37:38Z</time>
      </trkpt>
      <trkpt lat="-24.6157210" lon="-53.7276550">
        <ele>498.6</ele>
        <time>2018-09-15T18:37:39Z</time>
      </trkpt>
      <trkpt lat="-24.6156840" lon="-53.7276750">
        <ele>498.7</ele>
        <time>2018-09-15T18:37:40Z</time>
      </trkpt>
      <trkpt lat="-24.6156480" lon="-53.7276960">
        <ele>498.7</ele>
        <time>2018-09-15T18:37:41Z</time>
      </trkpt>
      <trkpt lat="-24.6156120" lon="-53.7277170">
        <ele>498.8</ele>
        <time>2018-09-15T18:37:42Z</time>
      </trkpt>
      <trkpt lat="-24.6155770" lon="-53.7277390">
        <ele>498.8</ele>
        <time>2018-09-15T18:37:43Z</time>
      </trkpt>
      <trkpt lat="-24.6155410" lon="-53.7277620">
        <ele>498.9</ele>
        <time>2018-09-15T18:37:44Z</time>
      </trkpt>
      <trkpt lat="-24.6155060" lon="-53.7277830">
        <ele>498.9</ele>
        <time>2018-09-15T18:37:45Z</time>
      </trkpt>
      <trkpt lat="-24.6154710" lon="-53.7278020">
        <ele>499.0</ele>
        <time>2018-09-15T18:37:46Z</time>
      </trkpt>
      <trkpt lat="-24.6154370" lon="-53.7278220">
        <ele>499.0</ele>
        <time>2018-09-15T18:37:47Z</time>
      </trkpt>
      <trkpt lat="-24.6154020" lon="-53.7278420">
        <ele>499.1</ele>
        <time>2018-09-15T18:37:48Z</time>
      </trkpt>
      <trkpt lat="-24.6153650" lon="-53.7278630">
        <ele>499.2</ele>
        <time>2018-09-15T18:37:49Z</time>
      </trkpt>
      <trkpt lat="-24.6153270" lon="-53.7278830">
        <ele>499.4</ele>
        <time>2018-09-15T18:37:50Z</time>
      </trkpt>
      <trkpt lat="-24.6152890" lon="-53.7279030">
        <ele>499.6</ele>
        <time>2018-09-15T18:37:51Z</time>
      </trkpt>
      <trkpt lat="-24.6152510" lon="-53.7279240">
        <ele>499.7</ele>
        <time>2018-09-15T18:37:52Z</time>
      </trkpt>
      <trkpt lat="-24.6152140" lon="-53.7279450">
        <ele>499.9</ele>
        <time>2018-09-15T18:37:53Z</time>
      </trkpt>
      <trkpt lat="-24.6151770" lon="-53.7279670">
        <ele>500.1</ele>
        <time>2018-09-15T18:37:54Z</time>
      </trkpt>
      <trkpt lat="-24.6151390" lon="-53.7279900">
        <ele>500.3</ele>
        <time>2018-09-15T18:37:55Z</time>
      </trkpt>
      <trkpt lat="-24.6151020" lon="-53.7280120">
        <ele>500.5</ele>
        <time>2018-09-15T18:37:56Z</time>
      </trkpt>
      <trkpt lat="-24.6150650" lon="-53.7280330">
        <ele>500.6</ele>
        <time>2018-09-15T18:37:57Z</time>
      </trkpt>
      <trkpt lat="-24.6150280" lon="-53.7280540">
        <ele>500.8</ele>
        <time>2018-09-15T18:37:58Z</time>
      </trkpt>
      <trkpt lat="-24.6149920" lon="-53.7280750">
        <ele>500.9</ele>
        <time>2018-09-15T18:37:59Z</time>
      </trkpt>
      <trkpt lat="-24.6149560" lon="-53.7280960">
        <ele>501.1</ele>
        <time>2018-09-15T18:38:00Z</time>
      </trkpt>
      <trkpt lat="-24.6149200" lon="-53.7281160">
        <ele>501.3</ele>
        <time>2018-09-15T18:38:01Z</time>
      </trkpt>
      <trkpt lat="-24.6148850" lon="-53.7281370">
        <ele>501.5</ele>
        <time>2018-09-15T18:38:02Z</time>
      </trkpt>
      <trkpt lat="-24.6148500" lon="-53.7281580">
        <ele>501.7</ele>
        <time>2018-09-15T18:38:03Z</time>
      </trkpt>
      <trkpt lat="-24.6148160" lon="-53.7281790">
        <ele>501.9</ele>
        <time>2018-09-15T18:38:04Z</time>
      </trkpt>
      <trkpt lat="-24.6147820" lon="-53.7281990">
        <ele>502.0</ele>
        <time>2018-09-15T18:38:05Z</time>
      </trkpt>
      <trkpt lat="-24.6147490" lon="-53.7282180">
        <ele>502.1</ele>
        <time>2018-09-15T18:38:06Z</time>
      </trkpt>
      <trkpt lat="-24.6147170" lon="-53.7282370">
        <ele>502.2</ele>
        <time>2018-09-15T18:38:07Z</time>
      </trkpt>
      <trkpt lat="-24.6146860" lon="-53.7282550">
        <ele>502.3</ele>
        <time>2018-09-15T18:38:08Z</time>
      </trkpt>
      <trkpt lat="-24.6146540" lon="-53.7282730">
        <ele>502.4</ele>
        <time>2018-09-15T18:38:09Z</time>
      </trkpt>
      <trkpt lat="-24.6146230" lon="-53.7282920">
        <ele>502.5</ele>
        <time>2018-09-15T18:38:10Z</time>
      </trkpt>
      <trkpt lat="-24.6145920" lon="-53.7283110">
        <ele>502.6</ele>
        <time>2018-09-15T18:38:11Z</time>
      </trkpt>
      <trkpt lat="-24.6145610" lon="-53.7283300">
        <ele>502.7</ele>
        <time>2018-09-15T18:38:12Z</time>
      </trkpt>
      <trkpt lat="-24.6145320" lon="-53.7283480">
        <ele>502.7</ele>
        <time>2018-09-15T18:38:13Z</time>
      </trkpt>
      <trkpt lat="-24.6145020" lon="-53.7283660">
        <ele>502.8</ele>
        <time>2018-09-15T18:38:14Z</time>
      </trkpt>
      <trkpt lat="-24.6144720" lon="-53.7283830">
        <ele>502.9</ele>
        <time>2018-09-15T18:38:15Z</time>
      </trkpt>
      <trkpt lat="-24.6144440" lon="-53.7283980">
        <ele>503.0</ele>
        <time>2018-09-15T18:38:16Z</time>
      </trkpt>
      <trkpt lat="-24.6144170" lon="-53.7284120">
        <ele>503.2</ele>
        <time>2018-09-15T18:38:17Z</time>
      </trkpt>
      <trkpt lat="-24.6143890" lon="-53.7284290">
        <ele>503.4</ele>
        <time>2018-09-15T18:38:18Z</time>
      </trkpt>
      <trkpt lat="-24.6143600" lon="-53.7284460">
        <ele>503.6</ele>
        <time>2018-09-15T18:38:19Z</time>
      </trkpt>
      <trkpt lat="-24.6143300" lon="-53.7284620">
        <ele>503.8</ele>
        <time>2018-09-15T18:38:20Z</time>
      </trkpt>
      <trkpt lat="-24.6143010" lon="-53.7284780">
        <ele>504.0</ele>
        <time>2018-09-15T18:38:21Z</time>
      </trkpt>
      <trkpt lat="-24.6142700" lon="-53.7284950">
        <ele>504.2</ele>
        <time>2018-09-15T18:38:22Z</time>
      </trkpt>
      <trkpt lat="-24.6142390" lon="-53.7285130">
        <ele>504.5</ele>
        <time>2018-09-15T18:38:23Z</time>
      </trkpt>
      <trkpt lat="-24.6142080" lon="-53.7285310">
        <ele>504.8</ele>
        <time>2018-09-15T18:38:24Z</time>
      </trkpt>
      <trkpt lat="-24.6141760" lon="-53.7285500">
        <ele>505.0</ele>
        <time>2018-09-15T18:38:25Z</time>
      </trkpt>
      <trkpt lat="-24.6141460" lon="-53.7285710">
        <ele>505.3</ele>
        <time>2018-09-15T18:38:26Z</time>
      </trkpt>
      <trkpt lat="-24.6141150" lon="-53.7285910">
        <ele>505.5</ele>
        <time>2018-09-15T18:38:27Z</time>
      </trkpt>
      <trkpt lat="-24.6140830" lon="-53.7286120">
        <ele>505.8</ele>
        <time>2018-09-15T18:38:28Z</time>
      </trkpt>
      <trkpt lat="-24.6140510" lon="-53.7286320">
        <ele>506.0</ele>
        <time>2018-09-15T18:38:29Z</time>
      </trkpt>
      <trkpt lat="-24.6140190" lon="-53.7286520">
        <ele>506.1</ele>
        <time>2018-09-15T18:38:30Z</time>
      </trkpt>
      <trkpt lat="-24.6139860" lon="-53.7286710">
        <ele>506.2</ele>
        <time>2018-09-15T18:38:31Z</time>
      </trkpt>
      <trkpt lat="-24.6139520" lon="-53.7286910">
        <ele>506.2</ele>
        <time>2018-09-15T18:38:32Z</time>
      </trkpt>
      <trkpt lat="-24.6139180" lon="-53.7287100">
        <ele>506.3</ele>
        <time>2018-09-15T18:38:33Z</time>
      </trkpt>
      <trkpt lat="-24.6138830" lon="-53.7287290">
        <ele>506.4</ele>
        <time>2018-09-15T18:38:34Z</time>
      </trkpt>
      <trkpt lat="-24.6138490" lon="-53.7287510">
        <ele>506.5</ele>
        <time>2018-09-15T18:38:35Z</time>
      </trkpt>
      <trkpt lat="-24.6138140" lon="-53.7287720">
        <ele>506.6</ele>
        <time>2018-09-15T18:38:36Z</time>
      </trkpt>
      <trkpt lat="-24.6137790" lon="-53.7287930">
        <ele>506.6</ele>
        <time>2018-09-15T18:38:37Z</time>
      </trkpt>
      <trkpt lat="-24.6137450" lon="-53.7288140">
        <ele>506.7</ele>
        <time>2018-09-15T18:38:38Z</time>
      </trkpt>
      <trkpt lat="-24.6137110" lon="-53.7288330">
        <ele>506.8</ele>
        <time>2018-09-15T18:38:39Z</time>
      </trkpt>
      <trkpt lat="-24.6136780" lon="-53.7288520">
        <ele>506.9</ele>
        <time>2018-09-15T18:38:40Z</time>
      </trkpt>
      <trkpt lat="-24.6136460" lon="-53.7288710">
        <ele>507.1</ele>
        <time>2018-09-15T18:38:41Z</time>
      </trkpt>
      <trkpt lat="-24.6136140" lon="-53.7288900">
        <ele>507.3</ele>
        <time>2018-09-15T18:38:42Z</time>
      </trkpt>
      <trkpt lat="-24.6135800" lon="-53.7289110">
        <ele>507.6</ele>
        <time>2018-09-15T18:38:43Z</time>
      </trkpt>
      <trkpt lat="-24.6135450" lon="-53.7289310">
        <ele>507.9</ele>
        <time>2018-09-15T18:38:44Z</time>
      </trkpt>
      <trkpt lat="-24.6135100" lon="-53.7289510">
        <ele>508.1</ele>
        <time>2018-09-15T18:38:45Z</time>
      </trkpt>
      <trkpt lat="-24.6134750" lon="-53.7289720">
        <ele>508.4</ele>
        <time>2018-09-15T18:38:46Z</time>
      </trkpt>
      <trkpt lat="-24.6134400" lon="-53.7289920">
        <ele>508.6</ele>
        <time>2018-09-15T18:38:47Z</time>
      </trkpt>
      <trkpt lat="-24.6134050" lon="-53.7290120">
        <ele>508.8</ele>
        <time>2018-09-15T18:38:48Z</time>
      </trkpt>
      <trkpt lat="-24.6133700" lon="-53.7290330">
        <ele>508.9</ele>
        <time>2018-09-15T18:38:49Z</time>
      </trkpt>
      <trkpt lat="-24.6133350" lon="-53.7290520">
        <ele>509.0</ele>
        <time>2018-09-15T18:38:50Z</time>
      </trkpt>
      <trkpt lat="-24.6132990" lon="-53.7290710">
        <ele>509.1</ele>
        <time>2018-09-15T18:38:51Z</time>
      </trkpt>
      <trkpt lat="-24.6132620" lon="-53.7290910">
        <ele>509.2</ele>
        <time>2018-09-15T18:38:52Z</time>
      </trkpt>
      <trkpt lat="-24.6132260" lon="-53.7291120">
        <ele>509.3</ele>
        <time>2018-09-15T18:38:53Z</time>
      </trkpt>
      <trkpt lat="-24.6131910" lon="-53.7291330">
        <ele>509.3</ele>
        <time>2018-09-15T18:38:54Z</time>
      </trkpt>
      <trkpt lat="-24.6131570" lon="-53.7291560">
        <ele>509.4</ele>
        <time>2018-09-15T18:38:55Z</time>
      </trkpt>
      <trkpt lat="-24.6131230" lon="-53.7291790">
        <ele>509.5</ele>
        <time>2018-09-15T18:38:56Z</time>
      </trkpt>
      <trkpt lat="-24.6130910" lon="-53.7292020">
        <ele>509.6</ele>
        <time>2018-09-15T18:38:57Z</time>
      </trkpt>
      <trkpt lat="-24.6130580" lon="-53.7292240">
        <ele>509.6</ele>
        <time>2018-09-15T18:38:58Z</time>
      </trkpt>
      <trkpt lat="-24.6130260" lon="-53.7292450">
        <ele>509.7</ele>
        <time>2018-09-15T18:38:59Z</time>
      </trkpt>
      <trkpt lat="-24.6129940" lon="-53.7292650">
        <ele>509.8</ele>
        <time>2018-09-15T18:39:00Z</time>
      </trkpt>
      <trkpt lat="-24.6129620" lon="-53.7292850">
        <ele>509.9</ele>
        <time>2018-09-15T18:39:01Z</time>
      </trkpt>
      <trkpt lat="-24.6129310" lon="-53.7293060">
        <ele>509.9</ele>
        <time>2018-09-15T18:39:02Z</time>
      </trkpt>
      <trkpt lat="-24.6128970" lon="-53.7293270">
        <ele>510.0</ele>
        <time>2018-09-15T18:39:03Z</time>
      </trkpt>
      <trkpt lat="-24.6128630" lon="-53.7293480">
        <ele>510.2</ele>
        <time>2018-09-15T18:39:04Z</time>
      </trkpt>
      <trkpt lat="-24.6128280" lon="-53.7293700">
        <ele>510.5</ele>
        <time>2018-09-15T18:39:05Z</time>
      </trkpt>
      <trkpt lat="-24.6127920" lon="-53.7293930">
        <ele>510.7</ele>
        <time>2018-09-15T18:39:06Z</time>
      </trkpt>
      <trkpt lat="-24.6127560" lon="-53.7294160">
        <ele>510.9</ele>
        <time>2018-09-15T18:39:07Z</time>
      </trkpt>
      <trkpt lat="-24.6127170" lon="-53.7294400">
        <ele>511.1</ele>
        <time>2018-09-15T18:39:08Z</time>
      </trkpt>
      <trkpt lat="-24.6126780" lon="-53.7294630">
        <ele>511.3</ele>
        <time>2018-09-15T18:39:09Z</time>
      </trkpt>
      <trkpt lat="-24.6126390" lon="-53.7294890">
        <ele>511.5</ele>
        <time>2018-09-15T18:39:10Z</time>
      </trkpt>
      <trkpt lat="-24.6125990" lon="-53.7295180">
        <ele>511.6</ele>
        <time>2018-09-15T18:39:11Z</time>
      </trkpt>
      <trkpt lat="-24.6125580" lon="-53.7295480">
        <ele>511.7</ele>
        <time>2018-09-15T18:39:12Z</time>
      </trkpt>
      <trkpt lat="-24.6125140" lon="-53.7295780">
        <ele>511.7</ele>
        <time>2018-09-15T18:39:13Z</time>
      </trkpt>
      <trkpt lat="-24.6124680" lon="-53.7296060">
        <ele>511.8</ele>
        <time>2018-09-15T18:39:14Z</time>
      </trkpt>
      <trkpt lat="-24.6124200" lon="-53.7296360">
        <ele>511.8</ele>
        <time>2018-09-15T18:39:15Z</time>
      </trkpt>
      <trkpt lat="-24.6123700" lon="-53.7296660">
        <ele>511.9</ele>
        <time>2018-09-15T18:39:16Z</time>
      </trkpt>
      <trkpt lat="-24.6123190" lon="-53.7296970">
        <ele>512.0</ele>
        <time>2018-09-15T18:39:17Z</time>
      </trkpt>
      <trkpt lat="-24.6122670" lon="-53.7297280">
        <ele>511.8</ele>
        <time>2018-09-15T18:39:18Z</time>
      </trkpt>
      <trkpt lat="-24.6122130" lon="-53.7297590">
        <ele>511.6</ele>
        <time>2018-09-15T18:39:19Z</time>
      </trkpt>
      <trkpt lat="-24.6121570" lon="-53.7297910">
        <ele>511.4</ele>
        <time>2018-09-15T18:39:20Z</time>
      </trkpt>
      <trkpt lat="-24.6121010" lon="-53.7298240">
        <ele>511.2</ele>
        <time>2018-09-15T18:39:21Z</time>
      </trkpt>
      <trkpt lat="-24.6120450" lon="-53.7298600">
        <ele>510.9</ele>
        <time>2018-09-15T18:39:22Z</time>
      </trkpt>
      <trkpt lat="-24.6119910" lon="-53.7299030">
        <ele>510.7</ele>
        <time>2018-09-15T18:39:23Z</time>
      </trkpt>
      <trkpt lat="-24.6119360" lon="-53.7299460">
        <ele>510.4</ele>
        <time>2018-09-15T18:39:24Z</time>
      </trkpt>
      <trkpt lat="-24.6118750" lon="-53.7299820">
        <ele>510.2</ele>
        <time>2018-09-15T18:39:25Z</time>
      </trkpt>
      <trkpt lat="-24.6118120" lon="-53.7300130">
        <ele>510.0</ele>
        <time>2018-09-15T18:39:26Z</time>
      </trkpt>
      <trkpt lat="-24.6117480" lon="-53.7300450">
        <ele>509.7</ele>
        <time>2018-09-15T18:39:27Z</time>
      </trkpt>
      <trkpt lat="-24.6116840" lon="-53.7300800">
        <ele>509.5</ele>
        <time>2018-09-15T18:39:28Z</time>
      </trkpt>
      <trkpt lat="-24.6116220" lon="-53.7301160">
        <ele>509.2</ele>
        <time>2018-09-15T18:39:29Z</time>
      </trkpt>
      <trkpt lat="-24.6115560" lon="-53.7301520">
        <ele>509.0</ele>
        <time>2018-09-15T18:39:30Z</time>
      </trkpt>
      <trkpt lat="-24.6114890" lon="-53.7301860">
        <ele>508.7</ele>
        <time>2018-09-15T18:39:31Z</time>
      </trkpt>
      <trkpt lat="-24.6114240" lon="-53.7302240">
        <ele>508.5</ele>
        <time>2018-09-15T18:39:32Z</time>
      </trkpt>
      <trkpt lat="-24.6113590" lon="-53.7302670">
        <ele>508.2</ele>
        <time>2018-09-15T18:39:33Z</time>
      </trkpt>
      <trkpt lat="-24.6112920" lon="-53.7303080">
        <ele>507.9</ele>
        <time>2018-09-15T18:39:34Z</time>
      </trkpt>
      <trkpt lat="-24.6112220" lon="-53.7303440">
        <ele>507.6</ele>
        <time>2018-09-15T18:39:35Z</time>
      </trkpt>
      <trkpt lat="-24.6111510" lon="-53.7303800">
        <ele>507.4</ele>
        <time>2018-09-15T18:39:36Z</time>
      </trkpt>
      <trkpt lat="-24.6110810" lon="-53.7304190">
        <ele>507.1</ele>
        <time>2018-09-15T18:39:37Z</time>
      </trkpt>
      <trkpt lat="-24.6110110" lon="-53.7304560">
        <ele>506.9</ele>
        <time>2018-09-15T18:39:38Z</time>
      </trkpt>
      <trkpt lat="-24.6109420" lon="-53.7304920">
        <ele>506.7</ele>
        <time>2018-09-15T18:39:39Z</time>
      </trkpt>
      <trkpt lat="-24.6108740" lon="-53.7305330">
        <ele>506.5</ele>
        <time>2018-09-15T18:39:40Z</time>
      </trkpt>
      <trkpt lat="-24.6108070" lon="-53.7305760">
        <ele>506.2</ele>
        <time>2018-09-15T18:39:41Z</time>
      </trkpt>
      <trkpt lat="-24.6107400" lon="-53.7306170">
        <ele>505.9</ele>
        <time>2018-09-15T18:39:42Z</time>
      </trkpt>
      <trkpt lat="-24.6106720" lon="-53.7306550">
        <ele>505.7</ele>
        <time>2018-09-15T18:39:43Z</time>
      </trkpt>
      <trkpt lat="-24.6106040" lon="-53.7306890">
        <ele>505.4</ele>
        <time>2018-09-15T18:39:44Z</time>
      </trkpt>
      <trkpt lat="-24.6105360" lon="-53.7307200">
        <ele>505.3</ele>
        <time>2018-09-15T18:39:45Z</time>
      </trkpt>
      <trkpt lat="-24.6104700" lon="-53.7307530">
        <ele>505.1</ele>
        <time>2018-09-15T18:39:46Z</time>
      </trkpt>
      <trkpt lat="-24.6104070" lon="-53.7307890">
        <ele>505.0</ele>
        <time>2018-09-15T18:39:47Z</time>
      </trkpt>
      <trkpt lat="-24.6103430" lon="-53.7308250">
        <ele>504.8</ele>
        <time>2018-09-15T18:39:48Z</time>
      </trkpt>
      <trkpt lat="-24.6102820" lon="-53.7308590">
        <ele>504.7</ele>
        <time>2018-09-15T18:39:49Z</time>
      </trkpt>
      <trkpt lat="-24.6102200" lon="-53.7308940">
        <ele>504.5</ele>
        <time>2018-09-15T18:39:50Z</time>
      </trkpt>
      <trkpt lat="-24.6101610" lon="-53.7309310">
        <ele>504.4</ele>
        <time>2018-09-15T18:39:51Z</time>
      </trkpt>
      <trkpt lat="-24.6101020" lon="-53.7309680">
        <ele>504.1</ele>
        <time>2018-09-15T18:39:52Z</time>
      </trkpt>
      <trkpt lat="-24.6100440" lon="-53.7310060">
        <ele>503.9</ele>
        <time>2018-09-15T18:39:53Z</time>
      </trkpt>
      <trkpt lat="-24.6099820" lon="-53.7310460">
        <ele>503.6</ele>
        <time>2018-09-15T18:39:54Z</time>
      </trkpt>
      <trkpt lat="-24.6099180" lon="-53.7310870">
        <ele>503.4</ele>
        <time>2018-09-15T18:39:55Z</time>
      </trkpt>
      <trkpt lat="-24.6097880" lon="-53.7311760">
        <ele>503.0</ele>
        <time>2018-09-15T18:39:56Z</time>
      </trkpt>
      <trkpt lat="-24.6097240" lon="-53.7312250">
        <ele>503.1</ele>
        <time>2018-09-15T18:39:57Z</time>
      </trkpt>
      <trkpt lat="-24.6096580" lon="-53.7312760">
        <ele>503.1</ele>
        <time>2018-09-15T18:39:58Z</time>
      </trkpt>
      <trkpt lat="-24.6095900" lon="-53.7313270">
        <ele>503.1</ele>
        <time>2018-09-15T18:39:59Z</time>
      </trkpt>
      <trkpt lat="-24.6095220" lon="-53.7313820">
        <ele>503.2</ele>
        <time>2018-09-15T18:40:00Z</time>
      </trkpt>
      <trkpt lat="-24.6094520" lon="-53.7314380">
        <ele>503.3</ele>
        <time>2018-09-15T18:40:01Z</time>
      </trkpt>
      <trkpt lat="-24.6093810" lon="-53.7314950">
        <ele>503.3</ele>
        <time>2018-09-15T18:40:02Z</time>
      </trkpt>
      <trkpt lat="-24.6093090" lon="-53.7315550">
        <ele>503.3</ele>
        <time>2018-09-15T18:40:03Z</time>
      </trkpt>
      <trkpt lat="-24.6091620" lon="-53.7316750">
        <ele>503.4</ele>
        <time>2018-09-15T18:40:05Z</time>
      </trkpt>
      <trkpt lat="-24.6090900" lon="-53.7317320">
        <ele>503.5</ele>
        <time>2018-09-15T18:40:06Z</time>
      </trkpt>
      <trkpt lat="-24.6090180" lon="-53.7317870">
        <ele>503.5</ele>
        <time>2018-09-15T18:40:07Z</time>
      </trkpt>
      <trkpt lat="-24.6089490" lon="-53.7318430">
        <ele>503.5</ele>
        <time>2018-09-15T18:40:08Z</time>
      </trkpt>
      <trkpt lat="-24.6088820" lon="-53.7318960">
        <ele>503.6</ele>
        <time>2018-09-15T18:40:09Z</time>
      </trkpt>
      <trkpt lat="-24.6088160" lon="-53.7319460">
        <ele>503.6</ele>
        <time>2018-09-15T18:40:10Z</time>
      </trkpt>
      <trkpt lat="-24.6087520" lon="-53.7319950">
        <ele>503.7</ele>
        <time>2018-09-15T18:40:11Z</time>
      </trkpt>
      <trkpt lat="-24.6086910" lon="-53.7320450">
        <ele>503.7</ele>
        <time>2018-09-15T18:40:12Z</time>
      </trkpt>
      <trkpt lat="-24.6086320" lon="-53.7320930">
        <ele>503.8</ele>
        <time>2018-09-15T18:40:13Z</time>
      </trkpt>
      <trkpt lat="-24.6085750" lon="-53.7321400">
        <ele>503.8</ele>
        <time>2018-09-15T18:40:14Z</time>
      </trkpt>
      <trkpt lat="-24.6085200" lon="-53.7321860">
        <ele>503.8</ele>
        <time>2018-09-15T18:40:15Z</time>
      </trkpt>
      <trkpt lat="-24.6084650" lon="-53.7322290">
        <ele>503.8</ele>
        <time>2018-09-15T18:40:16Z</time>
      </trkpt>
      <trkpt lat="-24.6084110" lon="-53.7322720">
        <ele>503.9</ele>
        <time>2018-09-15T18:40:17Z</time>
      </trkpt>
      <trkpt lat="-24.6083570" lon="-53.7323170">
        <ele>503.9</ele>
        <time>2018-09-15T18:40:18Z</time>
      </trkpt>
      <trkpt lat="-24.6083020" lon="-53.7323610">
        <ele>503.9</ele>
        <time>2018-09-15T18:40:19Z</time>
      </trkpt>
      <trkpt lat="-24.6082480" lon="-53.7324040">
        <ele>503.9</ele>
        <time>2018-09-15T18:40:20Z</time>
      </trkpt>
      <trkpt lat="-24.6081940" lon="-53.7324470">
        <ele>503.9</ele>
        <time>2018-09-15T18:40:21Z</time>
      </trkpt>
      <trkpt lat="-24.6081390" lon="-53.7324900">
        <ele>503.9</ele>
        <time>2018-09-15T18:40:22Z</time>
      </trkpt>
      <trkpt lat="-24.6080850" lon="-53.7325340">
        <ele>503.9</ele>
        <time>2018-09-15T18:40:23Z</time>
      </trkpt>
      <trkpt lat="-24.6080330" lon="-53.7325790">
        <ele>503.9</ele>
        <time>2018-09-15T18:40:24Z</time>
      </trkpt>
      <trkpt lat="-24.6079820" lon="-53.7326220">
        <ele>503.9</ele>
        <time>2018-09-15T18:40:25Z</time>
      </trkpt>
      <trkpt lat="-24.6079310" lon="-53.7326640">
        <ele>503.8</ele>
        <time>2018-09-15T18:40:26Z</time>
      </trkpt>
      <trkpt lat="-24.6078810" lon="-53.7327050">
        <ele>503.8</ele>
        <time>2018-09-15T18:40:27Z</time>
      </trkpt>
      <trkpt lat="-24.6078310" lon="-53.7327450">
        <ele>503.7</ele>
        <time>2018-09-15T18:40:28Z</time>
      </trkpt>
      <trkpt lat="-24.6077820" lon="-53.7327860">
        <ele>503.7</ele>
        <time>2018-09-15T18:40:29Z</time>
      </trkpt>
      <trkpt lat="-24.6077330" lon="-53.7328260">
        <ele>503.6</ele>
        <time>2018-09-15T18:40:30Z</time>
      </trkpt>
      <trkpt lat="-24.6076860" lon="-53.7328660">
        <ele>503.6</ele>
        <time>2018-09-15T18:40:31Z</time>
      </trkpt>
      <trkpt lat="-24.6076370" lon="-53.7329050">
        <ele>503.5</ele>
        <time>2018-09-15T18:40:32Z</time>
      </trkpt>
      <trkpt lat="-24.6075890" lon="-53.7329440">
        <ele>503.5</ele>
        <time>2018-09-15T18:40:33Z</time>
      </trkpt>
      <trkpt lat="-24.6075420" lon="-53.7329830">
        <ele>503.4</ele>
        <time>2018-09-15T18:40:34Z</time>
      </trkpt>
      <trkpt lat="-24.6074960" lon="-53.7330240">
        <ele>503.4</ele>
        <time>2018-09-15T18:40:35Z</time>
      </trkpt>
      <trkpt lat="-24.6074500" lon="-53.7330650">
        <ele>503.3</ele>
        <time>2018-09-15T18:40:36Z</time>
      </trkpt>
      <trkpt lat="-24.6074060" lon="-53.7331060">
        <ele>503.3</ele>
        <time>2018-09-15T18:40:37Z</time>
      </trkpt>
      <trkpt lat="-24.6073610" lon="-53.7331460">
        <ele>503.2</ele>
        <time>2018-09-15T18:40:38Z</time>
      </trkpt>
      <trkpt lat="-24.6073160" lon="-53.7331880">
        <ele>503.2</ele>
        <time>2018-09-15T18:40:39Z</time>
      </trkpt>
      <trkpt lat="-24.6072690" lon="-53.7332280">
        <ele>503.1</ele>
        <time>2018-09-15T18:40:40Z</time>
      </trkpt>
      <trkpt lat="-24.6072690" lon="-53.7332280">
        <ele>503.1</ele>
        <time>2018-09-15T18:40:41Z</time>
      </trkpt>
      <trkpt lat="-24.6072210" lon="-53.7332660">
        <ele>503.1</ele>
        <time>2018-09-15T18:40:42Z</time>
      </trkpt>
      <trkpt lat="-24.6071730" lon="-53.7333050">
        <ele>503.1</ele>
        <time>2018-09-15T18:40:43Z</time>
      </trkpt>
      <trkpt lat="-24.6070790" lon="-53.7333830">
        <ele>503.0</ele>
        <time>2018-09-15T18:40:45Z</time>
      </trkpt>
      <trkpt lat="-24.6070330" lon="-53.7334230">
        <ele>503.0</ele>
        <time>2018-09-15T18:40:46Z</time>
      </trkpt>
      <trkpt lat="-24.6069870" lon="-53.7334630">
        <ele>503.0</ele>
        <time>2018-09-15T18:40:47Z</time>
      </trkpt>
      <trkpt lat="-24.6069440" lon="-53.7335010">
        <ele>503.0</ele>
        <time>2018-09-15T18:40:48Z</time>
      </trkpt>
      <trkpt lat="-24.6068990" lon="-53.7335360">
        <ele>503.0</ele>
        <time>2018-09-15T18:40:49Z</time>
      </trkpt>
      <trkpt lat="-24.6068520" lon="-53.7335670">
        <ele>503.0</ele>
        <time>2018-09-15T18:40:50Z</time>
      </trkpt>
      <trkpt lat="-24.6068070" lon="-53.7335970">
        <ele>503.0</ele>
        <time>2018-09-15T18:40:51Z</time>
      </trkpt>
      <trkpt lat="-24.6067620" lon="-53.7336260">
        <ele>503.0</ele>
        <time>2018-09-15T18:40:52Z</time>
      </trkpt>
      <trkpt lat="-24.6067190" lon="-53.7336530">
        <ele>503.0</ele>
        <time>2018-09-15T18:40:53Z</time>
      </trkpt>
      <trkpt lat="-24.6066780" lon="-53.7336820">
        <ele>503.0</ele>
        <time>2018-09-15T18:40:54Z</time>
      </trkpt>
      <trkpt lat="-24.6066360" lon="-53.7337110">
        <ele>503.1</ele>
        <time>2018-09-15T18:40:55Z</time>
      </trkpt>
      <trkpt lat="-24.6065940" lon="-53.7337420">
        <ele>503.1</ele>
        <time>2018-09-15T18:40:56Z</time>
      </trkpt>
      <trkpt lat="-24.6065530" lon="-53.7337740">
        <ele>503.2</ele>
        <time>2018-09-15T18:40:57Z</time>
      </trkpt>
      <trkpt lat="-24.6065140" lon="-53.7338070">
        <ele>503.3</ele>
        <time>2018-09-15T18:40:58Z</time>
      </trkpt>
      <trkpt lat="-24.6064750" lon="-53.7338410">
        <ele>503.4</ele>
        <time>2018-09-15T18:40:59Z</time>
      </trkpt>
      <trkpt lat="-24.6064390" lon="-53.7338790">
        <ele>503.5</ele>
        <time>2018-09-15T18:41:00Z</time>
      </trkpt>
      <trkpt lat="-24.6064040" lon="-53.7339170">
        <ele>503.7</ele>
        <time>2018-09-15T18:41:01Z</time>
      </trkpt>
      <trkpt lat="-24.6063710" lon="-53.7339580">
        <ele>503.8</ele>
        <time>2018-09-15T18:41:02Z</time>
      </trkpt>
      <trkpt lat="-24.6063400" lon="-53.7340020">
        <ele>503.9</ele>
        <time>2018-09-15T18:41:03Z</time>
      </trkpt>
      <trkpt lat="-24.6063180" lon="-53.7340530">
        <ele>503.9</ele>
        <time>2018-09-15T18:41:04Z</time>
      </trkpt>
      <trkpt lat="-24.6063060" lon="-53.7341110">
        <ele>503.8</ele>
        <time>2018-09-15T18:41:05Z</time>
      </trkpt>
      <trkpt lat="-24.6063030" lon="-53.7341710">
        <ele>503.7</ele>
        <time>2018-09-15T18:41:06Z</time>
      </trkpt>
      <trkpt lat="-24.6063030" lon="-53.7342310">
        <ele>503.6</ele>
        <time>2018-09-15T18:41:07Z</time>
      </trkpt>
      <trkpt lat="-24.6063030" lon="-53.7342950">
        <ele>503.5</ele>
        <time>2018-09-15T18:41:08Z</time>
      </trkpt>
      <trkpt lat="-24.6063030" lon="-53.7343640">
        <ele>503.4</ele>
        <time>2018-09-15T18:41:09Z</time>
      </trkpt>
      <trkpt lat="-24.6063040" lon="-53.7344370">
        <ele>503.2</ele>
        <time>2018-09-15T18:41:10Z</time>
      </trkpt>
      <trkpt lat="-24.6063050" lon="-53.7345130">
        <ele>502.8</ele>
        <time>2018-09-15T18:41:11Z</time>
      </trkpt>
      <trkpt lat="-24.6063050" lon="-53.7345920">
        <ele>502.4</ele>
        <time>2018-09-15T18:41:12Z</time>
      </trkpt>
      <trkpt lat="-24.6063060" lon="-53.7346730">
        <ele>501.9</ele>
        <time>2018-09-15T18:41:13Z</time>
      </trkpt>
      <trkpt lat="-24.6063060" lon="-53.7347550">
        <ele>501.4</ele>
        <time>2018-09-15T18:41:14Z</time>
      </trkpt>
      <trkpt lat="-24.6063040" lon="-53.7348380">
        <ele>500.9</ele>
        <time>2018-09-15T18:41:15Z</time>
      </trkpt>
      <trkpt lat="-24.6063020" lon="-53.7349250">
        <ele>500.4</ele>
        <time>2018-09-15T18:41:16Z</time>
      </trkpt>
      <trkpt lat="-24.6063000" lon="-53.7350120">
        <ele>499.9</ele>
        <time>2018-09-15T18:41:17Z</time>
      </trkpt>
      <trkpt lat="-24.6062990" lon="-53.7350970">
        <ele>499.4</ele>
        <time>2018-09-15T18:41:18Z</time>
      </trkpt>
      <trkpt lat="-24.6062960" lon="-53.7351810">
        <ele>498.9</ele>
        <time>2018-09-15T18:41:19Z</time>
      </trkpt>
      <trkpt lat="-24.6062890" lon="-53.7352660">
        <ele>498.4</ele>
        <time>2018-09-15T18:41:20Z</time>
      </trkpt>
      <trkpt lat="-24.6062810" lon="-53.7353520">
        <ele>497.9</ele>
        <time>2018-09-15T18:41:21Z</time>
      </trkpt>
      <trkpt lat="-24.6062780" lon="-53.7354410">
        <ele>497.3</ele>
        <time>2018-09-15T18:41:22Z</time>
      </trkpt>
      <trkpt lat="-24.6062760" lon="-53.7355360">
        <ele>496.6</ele>
        <time>2018-09-15T18:41:23Z</time>
      </trkpt>
      <trkpt lat="-24.6062750" lon="-53.7356370">
        <ele>495.9</ele>
        <time>2018-09-15T18:41:24Z</time>
      </trkpt>
      <trkpt lat="-24.6062740" lon="-53.7357430">
        <ele>495.1</ele>
        <time>2018-09-15T18:41:25Z</time>
      </trkpt>
      <trkpt lat="-24.6062720" lon="-53.7358500">
        <ele>494.4</ele>
        <time>2018-09-15T18:41:26Z</time>
      </trkpt>
      <trkpt lat="-24.6062700" lon="-53.7359620">
        <ele>493.6</ele>
        <time>2018-09-15T18:41:27Z</time>
      </trkpt>
      <trkpt lat="-24.6062680" lon="-53.7360760">
        <ele>493.0</ele>
        <time>2018-09-15T18:41:28Z</time>
      </trkpt>
      <trkpt lat="-24.6062660" lon="-53.7361920">
        <ele>492.3</ele>
        <time>2018-09-15T18:41:29Z</time>
      </trkpt>
      <trkpt lat="-24.6062660" lon="-53.7363110">
        <ele>491.6</ele>
        <time>2018-09-15T18:41:30Z</time>
      </trkpt>
      <trkpt lat="-24.6062650" lon="-53.7364330">
        <ele>490.9</ele>
        <time>2018-09-15T18:41:31Z</time>
      </trkpt>
      <trkpt lat="-24.6062640" lon="-53.7365560">
        <ele>490.0</ele>
        <time>2018-09-15T18:41:32Z</time>
      </trkpt>
      <trkpt lat="-24.6062640" lon="-53.7366770">
        <ele>489.1</ele>
        <time>2018-09-15T18:41:33Z</time>
      </trkpt>
      <trkpt lat="-24.6062620" lon="-53.7367990">
        <ele>488.2</ele>
        <time>2018-09-15T18:41:34Z</time>
      </trkpt>
      <trkpt lat="-24.6062610" lon="-53.7369190">
        <ele>487.4</ele>
        <time>2018-09-15T18:41:35Z</time>
      </trkpt>
      <trkpt lat="-24.6062600" lon="-53.7370360">
        <ele>486.5</ele>
        <time>2018-09-15T18:41:36Z</time>
      </trkpt>
      <trkpt lat="-24.6062600" lon="-53.7371470">
        <ele>485.7</ele>
        <time>2018-09-15T18:41:37Z</time>
      </trkpt>
      <trkpt lat="-24.6062600" lon="-53.7372510">
        <ele>484.9</ele>
        <time>2018-09-15T18:41:38Z</time>
      </trkpt>
      <trkpt lat="-24.6062570" lon="-53.7373480">
        <ele>484.1</ele>
        <time>2018-09-15T18:41:39Z</time>
      </trkpt>
      <trkpt lat="-24.6062550" lon="-53.7374430">
        <ele>483.3</ele>
        <time>2018-09-15T18:41:40Z</time>
      </trkpt>
      <trkpt lat="-24.6062540" lon="-53.7375400">
        <ele>482.6</ele>
        <time>2018-09-15T18:41:41Z</time>
      </trkpt>
      <trkpt lat="-24.6062530" lon="-53.7376370">
        <ele>481.8</ele>
        <time>2018-09-15T18:41:42Z</time>
      </trkpt>
      <trkpt lat="-24.6062520" lon="-53.7377310">
        <ele>481.2</ele>
        <time>2018-09-15T18:41:43Z</time>
      </trkpt>
      <trkpt lat="-24.6062490" lon="-53.7378220">
        <ele>480.5</ele>
        <time>2018-09-15T18:41:44Z</time>
      </trkpt>
      <trkpt lat="-24.6062480" lon="-53.7379130">
        <ele>480.0</ele>
        <time>2018-09-15T18:41:45Z</time>
      </trkpt>
      <trkpt lat="-24.6062450" lon="-53.7380050">
        <ele>479.4</ele>
        <time>2018-09-15T18:41:46Z</time>
      </trkpt>
      <trkpt lat="-24.6062410" lon="-53.7380960">
        <ele>478.9</ele>
        <time>2018-09-15T18:41:47Z</time>
      </trkpt>
      <trkpt lat="-24.6062370" lon="-53.7381890">
        <ele>478.4</ele>
        <time>2018-09-15T18:41:48Z</time>
      </trkpt>
      <trkpt lat="-24.6062340" lon="-53.7382870">
        <ele>478.0</ele>
        <time>2018-09-15T18:41:49Z</time>
      </trkpt>
      <trkpt lat="-24.6062340" lon="-53.7383870">
        <ele>477.5</ele>
        <time>2018-09-15T18:41:50Z</time>
      </trkpt>
      <trkpt lat="-24.6062330" lon="-53.7384880">
        <ele>476.8</ele>
        <time>2018-09-15T18:41:51Z</time>
      </trkpt>
      <trkpt lat="-24.6062330" lon="-53.7385900">
        <ele>476.1</ele>
        <time>2018-09-15T18:41:52Z</time>
      </trkpt>
      <trkpt lat="-24.6062310" lon="-53.7386900">
        <ele>475.3</ele>
        <time>2018-09-15T18:41:53Z</time>
      </trkpt>
      <trkpt lat="-24.6062320" lon="-53.7387930">
        <ele>474.6</ele>
        <time>2018-09-15T18:41:54Z</time>
      </trkpt>
      <trkpt lat="-24.6062360" lon="-53.7388950">
        <ele>473.9</ele>
        <time>2018-09-15T18:41:55Z</time>
      </trkpt>
      <trkpt lat="-24.6062390" lon="-53.7389930">
        <ele>473.4</ele>
        <time>2018-09-15T18:41:56Z</time>
      </trkpt>
      <trkpt lat="-24.6062410" lon="-53.7390870">
        <ele>473.0</ele>
        <time>2018-09-15T18:41:57Z</time>
      </trkpt>
      <trkpt lat="-24.6062450" lon="-53.7391790">
        <ele>472.7</ele>
        <time>2018-09-15T18:41:58Z</time>
      </trkpt>
      <trkpt lat="-24.6062460" lon="-53.7392710">
        <ele>472.2</ele>
        <time>2018-09-15T18:41:59Z</time>
      </trkpt>
      <trkpt lat="-24.6062480" lon="-53.7393610">
        <ele>471.8</ele>
        <time>2018-09-15T18:42:00Z</time>
      </trkpt>
      <trkpt lat="-24.6062510" lon="-53.7394520">
        <ele>471.4</ele>
        <time>2018-09-15T18:42:01Z</time>
      </trkpt>
      <trkpt lat="-24.6062510" lon="-53.7395400">
        <ele>471.0</ele>
        <time>2018-09-15T18:42:02Z</time>
      </trkpt>
      <trkpt lat="-24.6062530" lon="-53.7396260">
        <ele>470.7</ele>
        <time>2018-09-15T18:42:03Z</time>
      </trkpt>
      <trkpt lat="-24.6062550" lon="-53.7397080">
        <ele>470.4</ele>
        <time>2018-09-15T18:42:04Z</time>
      </trkpt>
      <trkpt lat="-24.6062560" lon="-53.7397860">
        <ele>470.1</ele>
        <time>2018-09-15T18:42:05Z</time>
      </trkpt>
      <trkpt lat="-24.6062560" lon="-53.7398600">
        <ele>469.8</ele>
        <time>2018-09-15T18:42:06Z</time>
      </trkpt>
      <trkpt lat="-24.6062570" lon="-53.7399310">
        <ele>469.4</ele>
        <time>2018-09-15T18:42:07Z</time>
      </trkpt>
      <trkpt lat="-24.6062570" lon="-53.7400030">
        <ele>469.1</ele>
        <time>2018-09-15T18:42:08Z</time>
      </trkpt>
      <trkpt lat="-24.6062570" lon="-53.7400750">
        <ele>468.7</ele>
        <time>2018-09-15T18:42:09Z</time>
      </trkpt>
      <trkpt lat="-24.6062580" lon="-53.7401450">
        <ele>468.4</ele>
        <time>2018-09-15T18:42:10Z</time>
      </trkpt>
      <trkpt lat="-24.6062580" lon="-53.7402150">
        <ele>468.0</ele>
        <time>2018-09-15T18:42:11Z</time>
      </trkpt>
      <trkpt lat="-24.6062580" lon="-53.7402860">
        <ele>467.7</ele>
        <time>2018-09-15T18:42:12Z</time>
      </trkpt>
      <trkpt lat="-24.6062560" lon="-53.7403580">
        <ele>467.3</ele>
        <time>2018-09-15T18:42:13Z</time>
      </trkpt>
      <trkpt lat="-24.6062560" lon="-53.7404290">
        <ele>466.9</ele>
        <time>2018-09-15T18:42:14Z</time>
      </trkpt>
      <trkpt lat="-24.6062560" lon="-53.7405010">
        <ele>466.5</ele>
        <time>2018-09-15T18:42:15Z</time>
      </trkpt>
      <trkpt lat="-24.6062570" lon="-53.7405740">
        <ele>466.1</ele>
        <time>2018-09-15T18:42:16Z</time>
      </trkpt>
      <trkpt lat="-24.6062570" lon="-53.7406490">
        <ele>465.7</ele>
        <time>2018-09-15T18:42:17Z</time>
      </trkpt>
      <trkpt lat="-24.6062580" lon="-53.7407250">
        <ele>465.3</ele>
        <time>2018-09-15T18:42:18Z</time>
      </trkpt>
      <trkpt lat="-24.6062580" lon="-53.7408010">
        <ele>464.8</ele>
        <time>2018-09-15T18:42:19Z</time>
      </trkpt>
      <trkpt lat="-24.6062590" lon="-53.7408750">
        <ele>464.3</ele>
        <time>2018-09-15T18:42:20Z</time>
      </trkpt>
      <trkpt lat="-24.6062590" lon="-53.7409470">
        <ele>463.8</ele>
        <time>2018-09-15T18:42:21Z</time>
      </trkpt>
      <trkpt lat="-24.6062580" lon="-53.7410190">
        <ele>463.2</ele>
        <time>2018-09-15T18:42:22Z</time>
      </trkpt>
      <trkpt lat="-24.6062560" lon="-53.7410920">
        <ele>462.7</ele>
        <time>2018-09-15T18:42:23Z</time>
      </trkpt>
      <trkpt lat="-24.6062550" lon="-53.7411620">
        <ele>462.2</ele>
        <time>2018-09-15T18:42:24Z</time>
      </trkpt>
      <trkpt lat="-24.6062530" lon="-53.7412280">
        <ele>461.6</ele>
        <time>2018-09-15T18:42:25Z</time>
      </trkpt>
      <trkpt lat="-24.6062520" lon="-53.7412930">
        <ele>461.1</ele>
        <time>2018-09-15T18:42:26Z</time>
      </trkpt>
      <trkpt lat="-24.6062510" lon="-53.7413610">
        <ele>460.5</ele>
        <time>2018-09-15T18:42:27Z</time>
      </trkpt>
      <trkpt lat="-24.6062500" lon="-53.7414290">
        <ele>459.9</ele>
        <time>2018-09-15T18:42:28Z</time>
      </trkpt>
      <trkpt lat="-24.6062480" lon="-53.7414940">
        <ele>459.3</ele>
        <time>2018-09-15T18:42:29Z</time>
      </trkpt>
      <trkpt lat="-24.6062510" lon="-53.7415590">
        <ele>458.7</ele>
        <time>2018-09-15T18:42:30Z</time>
      </trkpt>
      <trkpt lat="-24.6062600" lon="-53.7416240">
        <ele>458.1</ele>
        <time>2018-09-15T18:42:31Z</time>
      </trkpt>
      <trkpt lat="-24.6062800" lon="-53.7416900">
        <ele>457.4</ele>
        <time>2018-09-15T18:42:32Z</time>
      </trkpt>
      <trkpt lat="-24.6063100" lon="-53.7417530">
        <ele>456.7</ele>
        <time>2018-09-15T18:42:33Z</time>
      </trkpt>
      <trkpt lat="-24.6063490" lon="-53.7418120">
        <ele>455.9</ele>
        <time>2018-09-15T18:42:34Z</time>
      </trkpt>
      <trkpt lat="-24.6063910" lon="-53.7418640">
        <ele>455.2</ele>
        <time>2018-09-15T18:42:35Z</time>
      </trkpt>
      <trkpt lat="-24.6064370" lon="-53.7419080">
        <ele>454.5</ele>
        <time>2018-09-15T18:42:36Z</time>
      </trkpt>
      <trkpt lat="-24.6064860" lon="-53.7419500">
        <ele>453.8</ele>
        <time>2018-09-15T18:42:37Z</time>
      </trkpt>
      <trkpt lat="-24.6065370" lon="-53.7419910">
        <ele>453.1</ele>
        <time>2018-09-15T18:42:38Z</time>
      </trkpt>
      <trkpt lat="-24.6065890" lon="-53.7420310">
        <ele>452.4</ele>
        <time>2018-09-15T18:42:39Z</time>
      </trkpt>
      <trkpt lat="-24.6066410" lon="-53.7420720">
        <ele>451.7</ele>
        <time>2018-09-15T18:42:40Z</time>
      </trkpt>
      <trkpt lat="-24.6066920" lon="-53.7421130">
        <ele>451.0</ele>
        <time>2018-09-15T18:42:41Z</time>
      </trkpt>
      <trkpt lat="-24.6067400" lon="-53.7421550">
        <ele>450.3</ele>
        <time>2018-09-15T18:42:42Z</time>
      </trkpt>
      <trkpt lat="-24.6067830" lon="-53.7422010">
        <ele>449.7</ele>
        <time>2018-09-15T18:42:43Z</time>
      </trkpt>
      <trkpt lat="-24.6068200" lon="-53.7422500">
        <ele>449.0</ele>
        <time>2018-09-15T18:42:44Z</time>
      </trkpt>
      <trkpt lat="-24.6068510" lon="-53.7423020">
        <ele>448.3</ele>
        <time>2018-09-15T18:42:45Z</time>
      </trkpt>
      <trkpt lat="-24.6068710" lon="-53.7423560">
        <ele>447.6</ele>
        <time>2018-09-15T18:42:46Z</time>
      </trkpt>
      <trkpt lat="-24.6068830" lon="-53.7424120">
        <ele>446.9</ele>
        <time>2018-09-15T18:42:47Z</time>
      </trkpt>
      <trkpt lat="-24.6068920" lon="-53.7424670">
        <ele>446.3</ele>
        <time>2018-09-15T18:42:48Z</time>
      </trkpt>
      <trkpt lat="-24.6068970" lon="-53.7425240">
        <ele>445.6</ele>
        <time>2018-09-15T18:42:49Z</time>
      </trkpt>
      <trkpt lat="-24.6068980" lon="-53.7425860">
        <ele>444.9</ele>
        <time>2018-09-15T18:42:50Z</time>
      </trkpt>
      <trkpt lat="-24.6068990" lon="-53.7426510">
        <ele>444.2</ele>
        <time>2018-09-15T18:42:51Z</time>
      </trkpt>
      <trkpt lat="-24.6068980" lon="-53.7427160">
        <ele>443.5</ele>
        <time>2018-09-15T18:42:52Z</time>
      </trkpt>
      <trkpt lat="-24.6068980" lon="-53.7427800">
        <ele>442.9</ele>
        <time>2018-09-15T18:42:53Z</time>
      </trkpt>
      <trkpt lat="-24.6068990" lon="-53.7428430">
        <ele>442.3</ele>
        <time>2018-09-15T18:42:54Z</time>
      </trkpt>
      <trkpt lat="-24.6069020" lon="-53.7429070">
        <ele>441.7</ele>
        <time>2018-09-15T18:42:55Z</time>
      </trkpt>
      <trkpt lat="-24.6069060" lon="-53.7429760">
        <ele>441.1</ele>
        <time>2018-09-15T18:42:56Z</time>
      </trkpt>
      <trkpt lat="-24.6069120" lon="-53.7430450">
        <ele>440.4</ele>
        <time>2018-09-15T18:42:57Z</time>
      </trkpt>
      <trkpt lat="-24.6069190" lon="-53.7431090">
        <ele>439.9</ele>
        <time>2018-09-15T18:42:58Z</time>
      </trkpt>
      <trkpt lat="-24.6069250" lon="-53.7431600">
        <ele>439.4</ele>
        <time>2018-09-15T18:42:59Z</time>
      </trkpt>
      <trkpt lat="-24.6069330" lon="-53.7432030">
        <ele>439.0</ele>
        <time>2018-09-15T18:43:00Z</time>
      </trkpt>
      <trkpt lat="-24.6069410" lon="-53.7432430">
        <ele>438.7</ele>
        <time>2018-09-15T18:43:01Z</time>
      </trkpt>
      <trkpt lat="-24.6069490" lon="-53.7432810">
        <ele>438.3</ele>
        <time>2018-09-15T18:43:02Z</time>
      </trkpt>
      <trkpt lat="-24.6069560" lon="-53.7433190">
        <ele>438.0</ele>
        <time>2018-09-15T18:43:03Z</time>
      </trkpt>
      <trkpt lat="-24.6069620" lon="-53.7433570">
        <ele>437.7</ele>
        <time>2018-09-15T18:43:04Z</time>
      </trkpt>
      <trkpt lat="-24.6069680" lon="-53.7433940">
        <ele>437.3</ele>
        <time>2018-09-15T18:43:05Z</time>
      </trkpt>
      <trkpt lat="-24.6069740" lon="-53.7434310">
        <ele>437.0</ele>
        <time>2018-09-15T18:43:06Z</time>
      </trkpt>
      <trkpt lat="-24.6069810" lon="-53.7434690">
        <ele>436.7</ele>
        <time>2018-09-15T18:43:07Z</time>
      </trkpt>
      <trkpt lat="-24.6069870" lon="-53.7435040">
        <ele>436.4</ele>
        <time>2018-09-15T18:43:08Z</time>
      </trkpt>
      <trkpt lat="-24.6069920" lon="-53.7435380">
        <ele>436.1</ele>
        <time>2018-09-15T18:43:09Z</time>
      </trkpt>
      <trkpt lat="-24.6069970" lon="-53.7435730">
        <ele>435.8</ele>
        <time>2018-09-15T18:43:10Z</time>
      </trkpt>
      <trkpt lat="-24.6070020" lon="-53.7436110">
        <ele>435.4</ele>
        <time>2018-09-15T18:43:11Z</time>
      </trkpt>
      <trkpt lat="-24.6070070" lon="-53.7436500">
        <ele>435.1</ele>
        <time>2018-09-15T18:43:12Z</time>
      </trkpt>
      <trkpt lat="-24.6070120" lon="-53.7436920">
        <ele>434.7</ele>
        <time>2018-09-15T18:43:13Z</time>
      </trkpt>
      <trkpt lat="-24.6070170" lon="-53.7437330">
        <ele>434.3</ele>
        <time>2018-09-15T18:43:14Z</time>
      </trkpt>
      <trkpt lat="-24.6070230" lon="-53.7437740">
        <ele>433.9</ele>
        <time>2018-09-15T18:43:15Z</time>
      </trkpt>
      <trkpt lat="-24.6070270" lon="-53.7438150">
        <ele>433.5</ele>
        <time>2018-09-15T18:43:16Z</time>
      </trkpt>
      <trkpt lat="-24.6070300" lon="-53.7438600">
        <ele>433.1</ele>
        <time>2018-09-15T18:43:17Z</time>
      </trkpt>
      <trkpt lat="-24.6070310" lon="-53.7439040">
        <ele>432.6</ele>
        <time>2018-09-15T18:43:18Z</time>
      </trkpt>
      <trkpt lat="-24.6070280" lon="-53.7439530">
        <ele>432.1</ele>
        <time>2018-09-15T18:43:19Z</time>
      </trkpt>
      <trkpt lat="-24.6070190" lon="-53.7440020">
        <ele>431.6</ele>
        <time>2018-09-15T18:43:20Z</time>
      </trkpt>
      <trkpt lat="-24.6070080" lon="-53.7440510">
        <ele>431.0</ele>
        <time>2018-09-15T18:43:21Z</time>
      </trkpt>
      <trkpt lat="-24.6069960" lon="-53.7441000">
        <ele>430.5</ele>
        <time>2018-09-15T18:43:22Z</time>
      </trkpt>
      <trkpt lat="-24.6069830" lon="-53.7441480">
        <ele>429.9</ele>
        <time>2018-09-15T18:43:23Z</time>
      </trkpt>
      <trkpt lat="-24.6069710" lon="-53.7442010">
        <ele>429.4</ele>
        <time>2018-09-15T18:43:24Z</time>
      </trkpt>
      <trkpt lat="-24.6069610" lon="-53.7442600">
        <ele>428.7</ele>
        <time>2018-09-15T18:43:25Z</time>
      </trkpt>
      <trkpt lat="-24.6069550" lon="-53.7443240">
        <ele>428.0</ele>
        <time>2018-09-15T18:43:26Z</time>
      </trkpt>
      <trkpt lat="-24.6069540" lon="-53.7443860">
        <ele>427.3</ele>
        <time>2018-09-15T18:43:27Z</time>
      </trkpt>
      <trkpt lat="-24.6069580" lon="-53.7444440">
        <ele>426.7</ele>
        <time>2018-09-15T18:43:28Z</time>
      </trkpt>
      <trkpt lat="-24.6069630" lon="-53.7444950">
        <ele>426.2</ele>
        <time>2018-09-15T18:43:29Z</time>
      </trkpt>
      <trkpt lat="-24.6069660" lon="-53.7445360">
        <ele>425.7</ele>
        <time>2018-09-15T18:43:30Z</time>
      </trkpt>
      <trkpt lat="-24.6069740" lon="-53.7445730">
        <ele>425.4</ele>
        <time>2018-09-15T18:43:31Z</time>
      </trkpt>
      <trkpt lat="-24.6069830" lon="-53.7446040">
        <ele>425.0</ele>
        <time>2018-09-15T18:43:32Z</time>
      </trkpt>
      <trkpt lat="-24.6069910" lon="-53.7446270">
        <ele>424.8</ele>
        <time>2018-09-15T18:43:33Z</time>
      </trkpt>
      <trkpt lat="-24.6069960" lon="-53.7446440">
        <ele>424.6</ele>
        <time>2018-09-15T18:43:34Z</time>
      </trkpt>
      <trkpt lat="-24.6070020" lon="-53.7446580">
        <ele>424.4</ele>
        <time>2018-09-15T18:43:35Z</time>
      </trkpt>
      <trkpt lat="-24.6070110" lon="-53.7446670">
        <ele>424.3</ele>
        <time>2018-09-15T18:43:36Z</time>
      </trkpt>
      <trkpt lat="-24.6070170" lon="-53.7446750">
        <ele>424.2</ele>
        <time>2018-09-15T18:43:37Z</time>
      </trkpt>
      <trkpt lat="-24.6070210" lon="-53.7446860">
        <ele>424.0</ele>
        <time>2018-09-15T18:43:38Z</time>
      </trkpt>
      <trkpt lat="-24.6070270" lon="-53.7446970">
        <ele>423.9</ele>
        <time>2018-09-15T18:43:39Z</time>
      </trkpt>
      <trkpt lat="-24.6070350" lon="-53.7447040">
        <ele>423.8</ele>
        <time>2018-09-15T18:43:40Z</time>
      </trkpt>
      <trkpt lat="-24.6070400" lon="-53.7447070">
        <ele>423.7</ele>
        <time>2018-09-15T18:43:41Z</time>
      </trkpt>
      <trkpt lat="-24.6070540" lon="-53.7447140">
        <ele>423.5</ele>
        <time>2018-09-15T18:43:42Z</time>
      </trkpt>
      <trkpt lat="-24.6070700" lon="-53.7447220">
        <ele>423.3</ele>
        <time>2018-09-15T18:44:58Z</time>
      </trkpt>
      <trkpt lat="-24.6070690" lon="-53.7447230">
        <ele>423.3</ele>
        <time>2018-09-15T18:44:59Z</time>
      </trkpt>
      <trkpt lat="-24.6070710" lon="-53.7447230">
        <ele>423.3</ele>
        <time>2018-09-15T18:45:00Z</time>
      </trkpt>
      <trkpt lat="-24.6070780" lon="-53.7447300">
        <ele>423.2</ele>
        <time>2018-09-15T18:45:09Z</time>
      </trkpt>
      <trkpt lat="-24.6070820" lon="-53.7447350">
        <ele>423.1</ele>
        <time>2018-09-15T18:45:10Z</time>
      </trkpt>
      <trkpt lat="-24.6070870" lon="-53.7447430">
        <ele>423.0</ele>
        <time>2018-09-15T18:45:11Z</time>
      </trkpt>
      <trkpt lat="-24.6070920" lon="-53.7447560">
        <ele>422.9</ele>
        <time>2018-09-15T18:45:12Z</time>
      </trkpt>
      <trkpt lat="-24.6070950" lon="-53.7447660">
        <ele>422.8</ele>
        <time>2018-09-15T18:45:13Z</time>
      </trkpt>
      <trkpt lat="-24.6070980" lon="-53.7447790">
        <ele>422.6</ele>
        <time>2018-09-15T18:45:14Z</time>
      </trkpt>
      <trkpt lat="-24.6071000" lon="-53.7447960">
        <ele>422.5</ele>
        <time>2018-09-15T18:45:15Z</time>
      </trkpt>
      <trkpt lat="-24.6071010" lon="-53.7448110">
        <ele>422.3</ele>
        <time>2018-09-15T18:45:16Z</time>
      </trkpt>
      <trkpt lat="-24.6071090" lon="-53.7448240">
        <ele>422.2</ele>
        <time>2018-09-15T18:45:17Z</time>
      </trkpt>
      <trkpt lat="-24.6071150" lon="-53.7448400">
        <ele>422.0</ele>
        <time>2018-09-15T18:45:18Z</time>
      </trkpt>
      <trkpt lat="-24.6071190" lon="-53.7448560">
        <ele>421.8</ele>
        <time>2018-09-15T18:45:19Z</time>
      </trkpt>
      <trkpt lat="-24.6071230" lon="-53.7448720">
        <ele>421.6</ele>
        <time>2018-09-15T18:45:20Z</time>
      </trkpt>
      <trkpt lat="-24.6071300" lon="-53.7448860">
        <ele>421.5</ele>
        <time>2018-09-15T18:45:21Z</time>
      </trkpt>
      <trkpt lat="-24.6071280" lon="-53.7449030">
        <ele>421.3</ele>
        <time>2018-09-15T18:45:22Z</time>
      </trkpt>
      <trkpt lat="-24.6071310" lon="-53.7449210">
        <ele>421.1</ele>
        <time>2018-09-15T18:45:23Z</time>
      </trkpt>
      <trkpt lat="-24.6071330" lon="-53.7449370">
        <ele>421.0</ele>
        <time>2018-09-15T18:45:24Z</time>
      </trkpt>
      <trkpt lat="-24.6071410" lon="-53.7449500">
        <ele>420.8</ele>
        <time>2018-09-15T18:45:25Z</time>
      </trkpt>
      <trkpt lat="-24.6071480" lon="-53.7449640">
        <ele>420.7</ele>
        <time>2018-09-15T18:45:26Z</time>
      </trkpt>
      <trkpt lat="-24.6071550" lon="-53.7449770">
        <ele>420.5</ele>
        <time>2018-09-15T18:45:27Z</time>
      </trkpt>
      <trkpt lat="-24.6071610" lon="-53.7449940">
        <ele>420.4</ele>
        <time>2018-09-15T18:45:28Z</time>
      </trkpt>
      <trkpt lat="-24.6071700" lon="-53.7450070">
        <ele>420.2</ele>
        <time>2018-09-15T18:45:29Z</time>
      </trkpt>
      <trkpt lat="-24.6071770" lon="-53.7450210">
        <ele>420.1</ele>
        <time>2018-09-15T18:45:30Z</time>
      </trkpt>
      <trkpt lat="-24.6071870" lon="-53.7450370">
        <ele>420.0</ele>
        <time>2018-09-15T18:45:31Z</time>
      </trkpt>
      <trkpt lat="-24.6071960" lon="-53.7450530">
        <ele>419.8</ele>
        <time>2018-09-15T18:45:32Z</time>
      </trkpt>
      <trkpt lat="-24.6072080" lon="-53.7450690">
        <ele>419.7</ele>
        <time>2018-09-15T18:45:33Z</time>
      </trkpt>
      <trkpt lat="-24.6072210" lon="-53.7450880">
        <ele>419.5</ele>
        <time>2018-09-15T18:45:34Z</time>
      </trkpt>
      <trkpt lat="-24.6072280" lon="-53.7451060">
        <ele>419.3</ele>
        <time>2018-09-15T18:45:35Z</time>
      </trkpt>
      <trkpt lat="-24.6072420" lon="-53.7451160">
        <ele>419.3</ele>
        <time>2018-09-15T18:45:36Z</time>
      </trkpt>
      <trkpt lat="-24.6072460" lon="-53.7451290">
        <ele>419.2</ele>
        <time>2018-09-15T18:45:37Z</time>
      </trkpt>
      <trkpt lat="-24.6072540" lon="-53.7451390">
        <ele>419.1</ele>
        <time>2018-09-15T18:45:38Z</time>
      </trkpt>
      <trkpt lat="-24.6072620" lon="-53.7451500">
        <ele>419.1</ele>
        <time>2018-09-15T18:45:39Z</time>
      </trkpt>
      <trkpt lat="-24.6072730" lon="-53.7451620">
        <ele>419.0</ele>
        <time>2018-09-15T18:45:40Z</time>
      </trkpt>
      <trkpt lat="-24.6072830" lon="-53.7451730">
        <ele>418.9</ele>
        <time>2018-09-15T18:45:41Z</time>
      </trkpt>
      <trkpt lat="-24.6072920" lon="-53.7451840">
        <ele>418.9</ele>
        <time>2018-09-15T18:45:42Z</time>
      </trkpt>
      <trkpt lat="-24.6072990" lon="-53.7451960">
        <ele>418.9</ele>
        <time>2018-09-15T18:45:43Z</time>
      </trkpt>
      <trkpt lat="-24.6073070" lon="-53.7452100">
        <ele>418.9</ele>
        <time>2018-09-15T18:45:44Z</time>
      </trkpt>
      <trkpt lat="-24.6073190" lon="-53.7452220">
        <ele>418.8</ele>
        <time>2018-09-15T18:45:45Z</time>
      </trkpt>
      <trkpt lat="-24.6073290" lon="-53.7452310">
        <ele>418.8</ele>
        <time>2018-09-15T18:45:46Z</time>
      </trkpt>
      <trkpt lat="-24.6073410" lon="-53.7452430">
        <ele>418.8</ele>
        <time>2018-09-15T18:45:47Z</time>
      </trkpt>
      <trkpt lat="-24.6073490" lon="-53.7452580">
        <ele>418.8</ele>
        <time>2018-09-15T18:45:48Z</time>
      </trkpt>
      <trkpt lat="-24.6073630" lon="-53.7452690">
        <ele>418.8</ele>
        <time>2018-09-15T18:45:49Z</time>
      </trkpt>
      <trkpt lat="-24.6073740" lon="-53.7452800">
        <ele>418.8</ele>
        <time>2018-09-15T18:45:50Z</time>
      </trkpt>
      <trkpt lat="-24.6073860" lon="-53.7452910">
        <ele>418.7</ele>
        <time>2018-09-15T18:45:51Z</time>
      </trkpt>
      <trkpt lat="-24.6073960" lon="-53.7453010">
        <ele>418.8</ele>
        <time>2018-09-15T18:45:52Z</time>
      </trkpt>
      <trkpt lat="-24.6074070" lon="-53.7453090">
        <ele>418.8</ele>
        <time>2018-09-15T18:45:53Z</time>
      </trkpt>
      <trkpt lat="-24.6074130" lon="-53.7453190">
        <ele>418.8</ele>
        <time>2018-09-15T18:45:54Z</time>
      </trkpt>
      <trkpt lat="-24.6074200" lon="-53.7453290">
        <ele>418.8</ele>
        <time>2018-09-15T18:45:55Z</time>
      </trkpt>
      <trkpt lat="-24.6074310" lon="-53.7453340">
        <ele>418.9</ele>
        <time>2018-09-15T18:45:56Z</time>
      </trkpt>
      <trkpt lat="-24.6074400" lon="-53.7453380">
        <ele>418.9</ele>
        <time>2018-09-15T18:45:57Z</time>
      </trkpt>
      <trkpt lat="-24.6074520" lon="-53.7453420">
        <ele>419.0</ele>
        <time>2018-09-15T18:45:58Z</time>
      </trkpt>
      <trkpt lat="-24.6074640" lon="-53.7453510">
        <ele>419.0</ele>
        <time>2018-09-15T18:45:59Z</time>
      </trkpt>
      <trkpt lat="-24.6074820" lon="-53.7453640">
        <ele>419.2</ele>
        <time>2018-09-15T18:46:00Z</time>
      </trkpt>
      <trkpt lat="-24.6074930" lon="-53.7453700">
        <ele>419.3</ele>
        <time>2018-09-15T18:46:01Z</time>
      </trkpt>
      <trkpt lat="-24.6075060" lon="-53.7453780">
        <ele>419.4</ele>
        <time>2018-09-15T18:46:02Z</time>
      </trkpt>
      <trkpt lat="-24.6075160" lon="-53.7453870">
        <ele>419.5</ele>
        <time>2018-09-15T18:46:03Z</time>
      </trkpt>
      <trkpt lat="-24.6075290" lon="-53.7453910">
        <ele>419.6</ele>
        <time>2018-09-15T18:46:04Z</time>
      </trkpt>
      <trkpt lat="-24.6075410" lon="-53.7453950">
        <ele>419.7</ele>
        <time>2018-09-15T18:46:05Z</time>
      </trkpt>
      <trkpt lat="-24.6075550" lon="-53.7454010">
        <ele>419.8</ele>
        <time>2018-09-15T18:46:06Z</time>
      </trkpt>
      <trkpt lat="-24.6075680" lon="-53.7454080">
        <ele>420.0</ele>
        <time>2018-09-15T18:46:07Z</time>
      </trkpt>
      <trkpt lat="-24.6075860" lon="-53.7454120">
        <ele>420.1</ele>
        <time>2018-09-15T18:46:08Z</time>
      </trkpt>
      <trkpt lat="-24.6075970" lon="-53.7454160">
        <ele>420.2</ele>
        <time>2018-09-15T18:46:09Z</time>
      </trkpt>
      <trkpt lat="-24.6076090" lon="-53.7454220">
        <ele>420.3</ele>
        <time>2018-09-15T18:46:10Z</time>
      </trkpt>
      <trkpt lat="-24.6076260" lon="-53.7454270">
        <ele>420.5</ele>
        <time>2018-09-15T18:46:11Z</time>
      </trkpt>
      <trkpt lat="-24.6076430" lon="-53.7454290">
        <ele>420.6</ele>
        <time>2018-09-15T18:46:12Z</time>
      </trkpt>
      <trkpt lat="-24.6076560" lon="-53.7454320">
        <ele>420.7</ele>
        <time>2018-09-15T18:46:13Z</time>
      </trkpt>
      <trkpt lat="-24.6076690" lon="-53.7454340">
        <ele>420.9</ele>
        <time>2018-09-15T18:46:14Z</time>
      </trkpt>
      <trkpt lat="-24.6076810" lon="-53.7454360">
        <ele>421.1</ele>
        <time>2018-09-15T18:46:15Z</time>
      </trkpt>
      <trkpt lat="-24.6076930" lon="-53.7454370">
        <ele>421.3</ele>
        <time>2018-09-15T18:46:16Z</time>
      </trkpt>
      <trkpt lat="-24.6077050" lon="-53.7454410">
        <ele>421.5</ele>
        <time>2018-09-15T18:46:17Z</time>
      </trkpt>
      <trkpt lat="-24.6077140" lon="-53.7454420">
        <ele>421.6</ele>
        <time>2018-09-15T18:46:18Z</time>
      </trkpt>
      <trkpt lat="-24.6077250" lon="-53.7454420">
        <ele>421.8</ele>
        <time>2018-09-15T18:46:19Z</time>
      </trkpt>
      <trkpt lat="-24.6077350" lon="-53.7454430">
        <ele>422.0</ele>
        <time>2018-09-15T18:46:20Z</time>
      </trkpt>
      <trkpt lat="-24.6077440" lon="-53.7454440">
        <ele>422.2</ele>
        <time>2018-09-15T18:46:21Z</time>
      </trkpt>
      <trkpt lat="-24.6077530" lon="-53.7454460">
        <ele>422.4</ele>
        <time>2018-09-15T18:46:22Z</time>
      </trkpt>
      <trkpt lat="-24.6077660" lon="-53.7454470">
        <ele>422.6</ele>
        <time>2018-09-15T18:46:23Z</time>
      </trkpt>
      <trkpt lat="-24.6077770" lon="-53.7454490">
        <ele>422.8</ele>
        <time>2018-09-15T18:46:24Z</time>
      </trkpt>
      <trkpt lat="-24.6077880" lon="-53.7454480">
        <ele>423.0</ele>
        <time>2018-09-15T18:46:25Z</time>
      </trkpt>
      <trkpt lat="-24.6078000" lon="-53.7454490">
        <ele>423.1</ele>
        <time>2018-09-15T18:46:26Z</time>
      </trkpt>
      <trkpt lat="-24.6078100" lon="-53.7454480">
        <ele>423.3</ele>
        <time>2018-09-15T18:46:27Z</time>
      </trkpt>
      <trkpt lat="-24.6078220" lon="-53.7454510">
        <ele>423.6</ele>
        <time>2018-09-15T18:46:28Z</time>
      </trkpt>
      <trkpt lat="-24.6078340" lon="-53.7454480">
        <ele>424.0</ele>
        <time>2018-09-15T18:46:29Z</time>
      </trkpt>
      <trkpt lat="-24.6078490" lon="-53.7454480">
        <ele>424.3</ele>
        <time>2018-09-15T18:46:30Z</time>
      </trkpt>
      <trkpt lat="-24.6078650" lon="-53.7454470">
        <ele>424.7</ele>
        <time>2018-09-15T18:46:31Z</time>
      </trkpt>
      <trkpt lat="-24.6078800" lon="-53.7454460">
        <ele>425.0</ele>
        <time>2018-09-15T18:46:32Z</time>
      </trkpt>
      <trkpt lat="-24.6078930" lon="-53.7454460">
        <ele>425.2</ele>
        <time>2018-09-15T18:46:33Z</time>
      </trkpt>
      <trkpt lat="-24.6079040" lon="-53.7454440">
        <ele>425.3</ele>
        <time>2018-09-15T18:46:34Z</time>
      </trkpt>
      <trkpt lat="-24.6079180" lon="-53.7454400">
        <ele>425.5</ele>
        <time>2018-09-15T18:46:35Z</time>
      </trkpt>
      <trkpt lat="-24.6079300" lon="-53.7454360">
        <ele>425.6</ele>
        <time>2018-09-15T18:46:36Z</time>
      </trkpt>
      <trkpt lat="-24.6079380" lon="-53.7454350">
        <ele>425.7</ele>
        <time>2018-09-15T18:46:37Z</time>
      </trkpt>
      <trkpt lat="-24.6079500" lon="-53.7454350">
        <ele>425.9</ele>
        <time>2018-09-15T18:46:38Z</time>
      </trkpt>
      <trkpt lat="-24.6079590" lon="-53.7454310">
        <ele>426.1</ele>
        <time>2018-09-15T18:46:39Z</time>
      </trkpt>
      <trkpt lat="-24.6079730" lon="-53.7454330">
        <ele>426.4</ele>
        <time>2018-09-15T18:46:40Z</time>
      </trkpt>
      <trkpt lat="-24.6079860" lon="-53.7454330">
        <ele>426.6</ele>
        <time>2018-09-15T18:46:41Z</time>
      </trkpt>
      <trkpt lat="-24.6079950" lon="-53.7454300">
        <ele>426.8</ele>
        <time>2018-09-15T18:46:42Z</time>
      </trkpt>
      <trkpt lat="-24.6080040" lon="-53.7454290">
        <ele>427.0</ele>
        <time>2018-09-15T18:46:43Z</time>
      </trkpt>
      <trkpt lat="-24.6080150" lon="-53.7454300">
        <ele>427.2</ele>
        <time>2018-09-15T18:46:44Z</time>
      </trkpt>
      <trkpt lat="-24.6080230" lon="-53.7454310">
        <ele>427.3</ele>
        <time>2018-09-15T18:46:45Z</time>
      </trkpt>
      <trkpt lat="-24.6080380" lon="-53.7454250">
        <ele>427.5</ele>
        <time>2018-09-15T18:46:46Z</time>
      </trkpt>
      <trkpt lat="-24.6080510" lon="-53.7454230">
        <ele>427.6</ele>
        <time>2018-09-15T18:46:47Z</time>
      </trkpt>
      <trkpt lat="-24.6080620" lon="-53.7454190">
        <ele>427.7</ele>
        <time>2018-09-15T18:46:48Z</time>
      </trkpt>
      <trkpt lat="-24.6080770" lon="-53.7454160">
        <ele>427.9</ele>
        <time>2018-09-15T18:46:49Z</time>
      </trkpt>
      <trkpt lat="-24.6080900" lon="-53.7454150">
        <ele>428.0</ele>
        <time>2018-09-15T18:46:50Z</time>
      </trkpt>
      <trkpt lat="-24.6081030" lon="-53.7454160">
        <ele>428.2</ele>
        <time>2018-09-15T18:46:51Z</time>
      </trkpt>
      <trkpt lat="-24.6081130" lon="-53.7454160">
        <ele>428.3</ele>
        <time>2018-09-15T18:46:52Z</time>
      </trkpt>
      <trkpt lat="-24.6081270" lon="-53.7454140">
        <ele>428.6</ele>
        <time>2018-09-15T18:46:53Z</time>
      </trkpt>
      <trkpt lat="-24.6081400" lon="-53.7454120">
        <ele>428.8</ele>
        <time>2018-09-15T18:46:54Z</time>
      </trkpt>
      <trkpt lat="-24.6081490" lon="-53.7454110">
        <ele>428.9</ele>
        <time>2018-09-15T18:46:55Z</time>
      </trkpt>
      <trkpt lat="-24.6081570" lon="-53.7454120">
        <ele>429.0</ele>
        <time>2018-09-15T18:46:56Z</time>
      </trkpt>
      <trkpt lat="-24.6081650" lon="-53.7454090">
        <ele>429.2</ele>
        <time>2018-09-15T18:46:57Z</time>
      </trkpt>
      <trkpt lat="-24.6081750" lon="-53.7454070">
        <ele>429.3</ele>
        <time>2018-09-15T18:46:58Z</time>
      </trkpt>
      <trkpt lat="-24.6081860" lon="-53.7454030">
        <ele>429.5</ele>
        <time>2018-09-15T18:46:59Z</time>
      </trkpt>
      <trkpt lat="-24.6081970" lon="-53.7454040">
        <ele>429.6</ele>
        <time>2018-09-15T18:47:00Z</time>
      </trkpt>
      <trkpt lat="-24.6082100" lon="-53.7454040">
        <ele>429.8</ele>
        <time>2018-09-15T18:47:01Z</time>
      </trkpt>
      <trkpt lat="-24.6082230" lon="-53.7454030">
        <ele>429.9</ele>
        <time>2018-09-15T18:47:02Z</time>
      </trkpt>
      <trkpt lat="-24.6082300" lon="-53.7454000">
        <ele>430.0</ele>
        <time>2018-09-15T18:47:03Z</time>
      </trkpt>
      <trkpt lat="-24.6082400" lon="-53.7453920">
        <ele>430.1</ele>
        <time>2018-09-15T18:47:04Z</time>
      </trkpt>
      <trkpt lat="-24.6082550" lon="-53.7453880">
        <ele>430.2</ele>
        <time>2018-09-15T18:47:05Z</time>
      </trkpt>
      <trkpt lat="-24.6082710" lon="-53.7453890">
        <ele>430.3</ele>
        <time>2018-09-15T18:47:06Z</time>
      </trkpt>
      <trkpt lat="-24.6082840" lon="-53.7453880">
        <ele>430.4</ele>
        <time>2018-09-15T18:47:07Z</time>
      </trkpt>
      <trkpt lat="-24.6082920" lon="-53.7453820">
        <ele>430.5</ele>
        <time>2018-09-15T18:47:08Z</time>
      </trkpt>
      <trkpt lat="-24.6083020" lon="-53.7453780">
        <ele>430.6</ele>
        <time>2018-09-15T18:47:09Z</time>
      </trkpt>
      <trkpt lat="-24.6083130" lon="-53.7453700">
        <ele>430.7</ele>
        <time>2018-09-15T18:47:10Z</time>
      </trkpt>
      <trkpt lat="-24.6083270" lon="-53.7453670">
        <ele>430.8</ele>
        <time>2018-09-15T18:47:11Z</time>
      </trkpt>
      <trkpt lat="-24.6083380" lon="-53.7453650">
        <ele>430.9</ele>
        <time>2018-09-15T18:47:12Z</time>
      </trkpt>
      <trkpt lat="-24.6083510" lon="-53.7453630">
        <ele>431.1</ele>
        <time>2018-09-15T18:47:13Z</time>
      </trkpt>
      <trkpt lat="-24.6083630" lon="-53.7453600">
        <ele>431.3</ele>
        <time>2018-09-15T18:47:14Z</time>
      </trkpt>
      <trkpt lat="-24.6083770" lon="-53.7453570">
        <ele>431.6</ele>
        <time>2018-09-15T18:47:15Z</time>
      </trkpt>
      <trkpt lat="-24.6083900" lon="-53.7453540">
        <ele>431.8</ele>
        <time>2018-09-15T18:47:16Z</time>
      </trkpt>
      <trkpt lat="-24.6084020" lon="-53.7453510">
        <ele>432.0</ele>
        <time>2018-09-15T18:47:17Z</time>
      </trkpt>
      <trkpt lat="-24.6084120" lon="-53.7453440">
        <ele>432.2</ele>
        <time>2018-09-15T18:47:18Z</time>
      </trkpt>
      <trkpt lat="-24.6084230" lon="-53.7453360">
        <ele>432.4</ele>
        <time>2018-09-15T18:47:19Z</time>
      </trkpt>
      <trkpt lat="-24.6084360" lon="-53.7453330">
        <ele>432.5</ele>
        <time>2018-09-15T18:47:20Z</time>
      </trkpt>
      <trkpt lat="-24.6084520" lon="-53.7453290">
        <ele>432.6</ele>
        <time>2018-09-15T18:47:21Z</time>
      </trkpt>
      <trkpt lat="-24.6084630" lon="-53.7453240">
        <ele>432.8</ele>
        <time>2018-09-15T18:47:22Z</time>
      </trkpt>
      <trkpt lat="-24.6084750" lon="-53.7453170">
        <ele>432.9</ele>
        <time>2018-09-15T18:47:23Z</time>
      </trkpt>
      <trkpt lat="-24.6084870" lon="-53.7453100">
        <ele>433.0</ele>
        <time>2018-09-15T18:47:24Z</time>
      </trkpt>
      <trkpt lat="-24.6084980" lon="-53.7453030">
        <ele>433.2</ele>
        <time>2018-09-15T18:47:25Z</time>
      </trkpt>
      <trkpt lat="-24.6085110" lon="-53.7452970">
        <ele>433.5</ele>
        <time>2018-09-15T18:47:26Z</time>
      </trkpt>
      <trkpt lat="-24.6085240" lon="-53.7452910">
        <ele>433.7</ele>
        <time>2018-09-15T18:47:27Z</time>
      </trkpt>
      <trkpt lat="-24.6085450" lon="-53.7452750">
        <ele>434.2</ele>
        <time>2018-09-15T18:47:28Z</time>
      </trkpt>
      <trkpt lat="-24.6085550" lon="-53.7452680">
        <ele>434.5</ele>
        <time>2018-09-15T18:47:29Z</time>
      </trkpt>
      <trkpt lat="-24.6085650" lon="-53.7452620">
        <ele>434.7</ele>
        <time>2018-09-15T18:47:30Z</time>
      </trkpt>
      <trkpt lat="-24.6085750" lon="-53.7452550">
        <ele>434.8</ele>
        <time>2018-09-15T18:47:31Z</time>
      </trkpt>
      <trkpt lat="-24.6085850" lon="-53.7452490">
        <ele>434.9</ele>
        <time>2018-09-15T18:47:32Z</time>
      </trkpt>
      <trkpt lat="-24.6085960" lon="-53.7452440">
        <ele>435.0</ele>
        <time>2018-09-15T18:47:33Z</time>
      </trkpt>
      <trkpt lat="-24.6086070" lon="-53.7452380">
        <ele>435.2</ele>
        <time>2018-09-15T18:47:34Z</time>
      </trkpt>
      <trkpt lat="-24.6086150" lon="-53.7452290">
        <ele>435.3</ele>
        <time>2018-09-15T18:47:35Z</time>
      </trkpt>
      <trkpt lat="-24.6086230" lon="-53.7452200">
        <ele>435.4</ele>
        <time>2018-09-15T18:47:36Z</time>
      </trkpt>
      <trkpt lat="-24.6086310" lon="-53.7452130">
        <ele>435.6</ele>
        <time>2018-09-15T18:47:37Z</time>
      </trkpt>
      <trkpt lat="-24.6086390" lon="-53.7452070">
        <ele>435.8</ele>
        <time>2018-09-15T18:47:38Z</time>
      </trkpt>
      <trkpt lat="-24.6086590" lon="-53.7451900">
        <ele>436.4</ele>
        <time>2018-09-15T18:47:40Z</time>
      </trkpt>
      <trkpt lat="-24.6086690" lon="-53.7451820">
        <ele>436.6</ele>
        <time>2018-09-15T18:47:41Z</time>
      </trkpt>
      <trkpt lat="-24.6086790" lon="-53.7451740">
        <ele>436.9</ele>
        <time>2018-09-15T18:47:42Z</time>
      </trkpt>
      <trkpt lat="-24.6086910" lon="-53.7451640">
        <ele>437.1</ele>
        <time>2018-09-15T18:47:43Z</time>
      </trkpt>
      <trkpt lat="-24.6087030" lon="-53.7451540">
        <ele>437.3</ele>
        <time>2018-09-15T18:47:44Z</time>
      </trkpt>
      <trkpt lat="-24.6087170" lon="-53.7451460">
        <ele>437.5</ele>
        <time>2018-09-15T18:47:45Z</time>
      </trkpt>
      <trkpt lat="-24.6087280" lon="-53.7451370">
        <ele>437.7</ele>
        <time>2018-09-15T18:47:46Z</time>
      </trkpt>
      <trkpt lat="-24.6087400" lon="-53.7451290">
        <ele>437.8</ele>
        <time>2018-09-15T18:47:47Z</time>
      </trkpt>
      <trkpt lat="-24.6087510" lon="-53.7451210">
        <ele>438.0</ele>
        <time>2018-09-15T18:47:48Z</time>
      </trkpt>
      <trkpt lat="-24.6087640" lon="-53.7451130">
        <ele>438.1</ele>
        <time>2018-09-15T18:47:49Z</time>
      </trkpt>
      <trkpt lat="-24.6087760" lon="-53.7451060">
        <ele>438.3</ele>
        <time>2018-09-15T18:47:50Z</time>
      </trkpt>
      <trkpt lat="-24.6087870" lon="-53.7451000">
        <ele>438.5</ele>
        <time>2018-09-15T18:47:51Z</time>
      </trkpt>
      <trkpt lat="-24.6087980" lon="-53.7450940">
        <ele>438.7</ele>
        <time>2018-09-15T18:47:52Z</time>
      </trkpt>
      <trkpt lat="-24.6088090" lon="-53.7450860">
        <ele>438.9</ele>
        <time>2018-09-15T18:47:53Z</time>
      </trkpt>
      <trkpt lat="-24.6088200" lon="-53.7450800">
        <ele>439.1</ele>
        <time>2018-09-15T18:47:54Z</time>
      </trkpt>
      <trkpt lat="-24.6088310" lon="-53.7450750">
        <ele>439.3</ele>
        <time>2018-09-15T18:47:55Z</time>
      </trkpt>
      <trkpt lat="-24.6088410" lon="-53.7450690">
        <ele>439.4</ele>
        <time>2018-09-15T18:47:56Z</time>
      </trkpt>
      <trkpt lat="-24.6088520" lon="-53.7450630">
        <ele>439.5</ele>
        <time>2018-09-15T18:47:57Z</time>
      </trkpt>
      <trkpt lat="-24.6088640" lon="-53.7450570">
        <ele>439.6</ele>
        <time>2018-09-15T18:47:58Z</time>
      </trkpt>
      <trkpt lat="-24.6088760" lon="-53.7450520">
        <ele>439.7</ele>
        <time>2018-09-15T18:47:59Z</time>
      </trkpt>
      <trkpt lat="-24.6088890" lon="-53.7450470">
        <ele>439.8</ele>
        <time>2018-09-15T18:48:00Z</time>
      </trkpt>
      <trkpt lat="-24.6089010" lon="-53.7450430">
        <ele>439.9</ele>
        <time>2018-09-15T18:48:01Z</time>
      </trkpt>
      <trkpt lat="-24.6089140" lon="-53.7450390">
        <ele>440.0</ele>
        <time>2018-09-15T18:48:02Z</time>
      </trkpt>
      <trkpt lat="-24.6089260" lon="-53.7450360">
        <ele>440.1</ele>
        <time>2018-09-15T18:48:03Z</time>
      </trkpt>
      <trkpt lat="-24.6089400" lon="-53.7450320">
        <ele>440.3</ele>
        <time>2018-09-15T18:48:04Z</time>
      </trkpt>
      <trkpt lat="-24.6089530" lon="-53.7450280">
        <ele>440.4</ele>
        <time>2018-09-15T18:48:05Z</time>
      </trkpt>
      <trkpt lat="-24.6089660" lon="-53.7450230">
        <ele>440.5</ele>
        <time>2018-09-15T18:48:06Z</time>
      </trkpt>
      <trkpt lat="-24.6089780" lon="-53.7450200">
        <ele>440.6</ele>
        <time>2018-09-15T18:48:07Z</time>
      </trkpt>
      <trkpt lat="-24.6089900" lon="-53.7450170">
        <ele>440.8</ele>
        <time>2018-09-15T18:48:08Z</time>
      </trkpt>
      <trkpt lat="-24.6090030" lon="-53.7450160">
        <ele>441.0</ele>
        <time>2018-09-15T18:48:09Z</time>
      </trkpt>
      <trkpt lat="-24.6090160" lon="-53.7450140">
        <ele>441.2</ele>
        <time>2018-09-15T18:48:10Z</time>
      </trkpt>
      <trkpt lat="-24.6090160" lon="-53.7450140">
        <ele>441.2</ele>
        <time>2018-09-15T18:48:11Z</time>
      </trkpt>
      <trkpt lat="-24.6090290" lon="-53.7450100">
        <ele>441.4</ele>
        <time>2018-09-15T18:48:12Z</time>
      </trkpt>
      <trkpt lat="-24.6090550" lon="-53.7450020">
        <ele>441.8</ele>
        <time>2018-09-15T18:48:13Z</time>
      </trkpt>
      <trkpt lat="-24.6090680" lon="-53.7450010">
        <ele>441.9</ele>
        <time>2018-09-15T18:48:14Z</time>
      </trkpt>
      <trkpt lat="-24.6090810" lon="-53.7449990">
        <ele>442.0</ele>
        <time>2018-09-15T18:48:15Z</time>
      </trkpt>
      <trkpt lat="-24.6090810" lon="-53.7449990">
        <ele>442.0</ele>
        <time>2018-09-15T18:48:16Z</time>
      </trkpt>
      <trkpt lat="-24.6090940" lon="-53.7449970">
        <ele>442.1</ele>
        <time>2018-09-15T18:48:17Z</time>
      </trkpt>
      <trkpt lat="-24.6091080" lon="-53.7449960">
        <ele>442.2</ele>
        <time>2018-09-15T18:48:18Z</time>
      </trkpt>
      <trkpt lat="-24.6091230" lon="-53.7449950">
        <ele>442.3</ele>
        <time>2018-09-15T18:48:19Z</time>
      </trkpt>
      <trkpt lat="-24.6091380" lon="-53.7449940">
        <ele>442.4</ele>
        <time>2018-09-15T18:48:20Z</time>
      </trkpt>
      <trkpt lat="-24.6091520" lon="-53.7449950">
        <ele>442.4</ele>
        <time>2018-09-15T18:48:21Z</time>
      </trkpt>
      <trkpt lat="-24.6091660" lon="-53.7449950">
        <ele>442.5</ele>
        <time>2018-09-15T18:48:22Z</time>
      </trkpt>
      <trkpt lat="-24.6091800" lon="-53.7449950">
        <ele>442.6</ele>
        <time>2018-09-15T18:48:23Z</time>
      </trkpt>
      <trkpt lat="-24.6091960" lon="-53.7449950">
        <ele>442.6</ele>
        <time>2018-09-15T18:48:24Z</time>
      </trkpt>
      <trkpt lat="-24.6092110" lon="-53.7449930">
        <ele>442.7</ele>
        <time>2018-09-15T18:48:25Z</time>
      </trkpt>
      <trkpt lat="-24.6092270" lon="-53.7449930">
        <ele>442.8</ele>
        <time>2018-09-15T18:48:26Z</time>
      </trkpt>
      <trkpt lat="-24.6092430" lon="-53.7449920">
        <ele>442.8</ele>
        <time>2018-09-15T18:48:27Z</time>
      </trkpt>
      <trkpt lat="-24.6092610" lon="-53.7449910">
        <ele>442.9</ele>
        <time>2018-09-15T18:48:28Z</time>
      </trkpt>
      <trkpt lat="-24.6092780" lon="-53.7449910">
        <ele>443.0</ele>
        <time>2018-09-15T18:48:29Z</time>
      </trkpt>
      <trkpt lat="-24.6092970" lon="-53.7449940">
        <ele>443.2</ele>
        <time>2018-09-15T18:48:30Z</time>
      </trkpt>
      <trkpt lat="-24.6093200" lon="-53.7449970">
        <ele>443.4</ele>
        <time>2018-09-15T18:48:31Z</time>
      </trkpt>
      <trkpt lat="-24.6093430" lon="-53.7449990">
        <ele>443.6</ele>
        <time>2018-09-15T18:48:32Z</time>
      </trkpt>
      <trkpt lat="-24.6093670" lon="-53.7450000">
        <ele>443.8</ele>
        <time>2018-09-15T18:48:33Z</time>
      </trkpt>
      <trkpt lat="-24.6093910" lon="-53.7450020">
        <ele>444.0</ele>
        <time>2018-09-15T18:48:34Z</time>
      </trkpt>
      <trkpt lat="-24.6094150" lon="-53.7450040">
        <ele>444.1</ele>
        <time>2018-09-15T18:48:35Z</time>
      </trkpt>
      <trkpt lat="-24.6094390" lon="-53.7450070">
        <ele>444.2</ele>
        <time>2018-09-15T18:48:36Z</time>
      </trkpt>
      <trkpt lat="-24.6094630" lon="-53.7450110">
        <ele>444.3</ele>
        <time>2018-09-15T18:48:37Z</time>
      </trkpt>
      <trkpt lat="-24.6094870" lon="-53.7450140">
        <ele>444.4</ele>
        <time>2018-09-15T18:48:38Z</time>
      </trkpt>
      <trkpt lat="-24.6095110" lon="-53.7450170">
        <ele>444.4</ele>
        <time>2018-09-15T18:48:39Z</time>
      </trkpt>
      <trkpt lat="-24.6095350" lon="-53.7450190">
        <ele>444.5</ele>
        <time>2018-09-15T18:48:40Z</time>
      </trkpt>
      <trkpt lat="-24.6095590" lon="-53.7450230">
        <ele>444.5</ele>
        <time>2018-09-15T18:48:41Z</time>
      </trkpt>
      <trkpt lat="-24.6095840" lon="-53.7450270">
        <ele>444.6</ele>
        <time>2018-09-15T18:48:42Z</time>
      </trkpt>
      <trkpt lat="-24.6096080" lon="-53.7450290">
        <ele>444.6</ele>
        <time>2018-09-15T18:48:43Z</time>
      </trkpt>
      <trkpt lat="-24.6096320" lon="-53.7450320">
        <ele>444.7</ele>
        <time>2018-09-15T18:48:44Z</time>
      </trkpt>
      <trkpt lat="-24.6096570" lon="-53.7450360">
        <ele>444.7</ele>
        <time>2018-09-15T18:48:45Z</time>
      </trkpt>
      <trkpt lat="-24.6096820" lon="-53.7450380">
        <ele>444.8</ele>
        <time>2018-09-15T18:48:46Z</time>
      </trkpt>
      <trkpt lat="-24.6097070" lon="-53.7450410">
        <ele>444.8</ele>
        <time>2018-09-15T18:48:47Z</time>
      </trkpt>
      <trkpt lat="-24.6097320" lon="-53.7450440">
        <ele>444.9</ele>
        <time>2018-09-15T18:48:48Z</time>
      </trkpt>
      <trkpt lat="-24.6097580" lon="-53.7450470">
        <ele>444.9</ele>
        <time>2018-09-15T18:48:49Z</time>
      </trkpt>
      <trkpt lat="-24.6097830" lon="-53.7450500">
        <ele>445.0</ele>
        <time>2018-09-15T18:48:50Z</time>
      </trkpt>
      <trkpt lat="-24.6098080" lon="-53.7450530">
        <ele>445.0</ele>
        <time>2018-09-15T18:48:51Z</time>
      </trkpt>
      <trkpt lat="-24.6098330" lon="-53.7450550">
        <ele>445.1</ele>
        <time>2018-09-15T18:48:52Z</time>
      </trkpt>
      <trkpt lat="-24.6098570" lon="-53.7450580">
        <ele>445.2</ele>
        <time>2018-09-15T18:48:53Z</time>
      </trkpt>
      <trkpt lat="-24.6098830" lon="-53.7450610">
        <ele>445.2</ele>
        <time>2018-09-15T18:48:54Z</time>
      </trkpt>
      <trkpt lat="-24.6099080" lon="-53.7450640">
        <ele>445.3</ele>
        <time>2018-09-15T18:48:55Z</time>
      </trkpt>
      <trkpt lat="-24.6099320" lon="-53.7450660">
        <ele>445.3</ele>
        <time>2018-09-15T18:48:56Z</time>
      </trkpt>
      <trkpt lat="-24.6099560" lon="-53.7450680">
        <ele>445.4</ele>
        <time>2018-09-15T18:48:57Z</time>
      </trkpt>
      <trkpt lat="-24.6099810" lon="-53.7450720">
        <ele>445.6</ele>
        <time>2018-09-15T18:48:58Z</time>
      </trkpt>
      <trkpt lat="-24.6100070" lon="-53.7450750">
        <ele>445.7</ele>
        <time>2018-09-15T18:48:59Z</time>
      </trkpt>
      <trkpt lat="-24.6100340" lon="-53.7450780">
        <ele>446.0</ele>
        <time>2018-09-15T18:49:00Z</time>
      </trkpt>
      <trkpt lat="-24.6100610" lon="-53.7450800">
        <ele>446.0</ele>
        <time>2018-09-15T18:49:01Z</time>
      </trkpt>
      <trkpt lat="-24.6100890" lon="-53.7450820">
        <ele>446.1</ele>
        <time>2018-09-15T18:49:02Z</time>
      </trkpt>
      <trkpt lat="-24.6101170" lon="-53.7450860">
        <ele>446.1</ele>
        <time>2018-09-15T18:49:03Z</time>
      </trkpt>
      <trkpt lat="-24.6101450" lon="-53.7450890">
        <ele>446.2</ele>
        <time>2018-09-15T18:49:04Z</time>
      </trkpt>
      <trkpt lat="-24.6101710" lon="-53.7450940">
        <ele>446.3</ele>
        <time>2018-09-15T18:49:05Z</time>
      </trkpt>
      <trkpt lat="-24.6101970" lon="-53.7450970">
        <ele>446.3</ele>
        <time>2018-09-15T18:49:06Z</time>
      </trkpt>
      <trkpt lat="-24.6102230" lon="-53.7450970">
        <ele>446.4</ele>
        <time>2018-09-15T18:49:07Z</time>
      </trkpt>
      <trkpt lat="-24.6102490" lon="-53.7450980">
        <ele>446.4</ele>
        <time>2018-09-15T18:49:08Z</time>
      </trkpt>
      <trkpt lat="-24.6102740" lon="-53.7451010">
        <ele>446.5</ele>
        <time>2018-09-15T18:49:09Z</time>
      </trkpt>
      <trkpt lat="-24.6103000" lon="-53.7451060">
        <ele>446.5</ele>
        <time>2018-09-15T18:49:10Z</time>
      </trkpt>
      <trkpt lat="-24.6103250" lon="-53.7451090">
        <ele>446.5</ele>
        <time>2018-09-15T18:49:11Z</time>
      </trkpt>
      <trkpt lat="-24.6103510" lon="-53.7451120">
        <ele>446.5</ele>
        <time>2018-09-15T18:49:12Z</time>
      </trkpt>
      <trkpt lat="-24.6103750" lon="-53.7451170">
        <ele>446.5</ele>
        <time>2018-09-15T18:49:13Z</time>
      </trkpt>
      <trkpt lat="-24.6103990" lon="-53.7451200">
        <ele>446.5</ele>
        <time>2018-09-15T18:49:14Z</time>
      </trkpt>
      <trkpt lat="-24.6104230" lon="-53.7451240">
        <ele>446.5</ele>
        <time>2018-09-15T18:49:15Z</time>
      </trkpt>
      <trkpt lat="-24.6104470" lon="-53.7451280">
        <ele>446.6</ele>
        <time>2018-09-15T18:49:16Z</time>
      </trkpt>
      <trkpt lat="-24.6104710" lon="-53.7451320">
        <ele>446.6</ele>
        <time>2018-09-15T18:49:17Z</time>
      </trkpt>
      <trkpt lat="-24.6104940" lon="-53.7451370">
        <ele>446.6</ele>
        <time>2018-09-15T18:49:18Z</time>
      </trkpt>
      <trkpt lat="-24.6105190" lon="-53.7451400">
        <ele>446.6</ele>
        <time>2018-09-15T18:49:19Z</time>
      </trkpt>
      <trkpt lat="-24.6105440" lon="-53.7451430">
        <ele>446.6</ele>
        <time>2018-09-15T18:49:20Z</time>
      </trkpt>
      <trkpt lat="-24.6105700" lon="-53.7451460">
        <ele>446.6</ele>
        <time>2018-09-15T18:49:21Z</time>
      </trkpt>
      <trkpt lat="-24.6105940" lon="-53.7451500">
        <ele>446.7</ele>
        <time>2018-09-15T18:49:22Z</time>
      </trkpt>
      <trkpt lat="-24.6106180" lon="-53.7451530">
        <ele>446.7</ele>
        <time>2018-09-15T18:49:23Z</time>
      </trkpt>
      <trkpt lat="-24.6106420" lon="-53.7451550">
        <ele>446.8</ele>
        <time>2018-09-15T18:49:24Z</time>
      </trkpt>
      <trkpt lat="-24.6106650" lon="-53.7451610">
        <ele>446.8</ele>
        <time>2018-09-15T18:49:25Z</time>
      </trkpt>
      <trkpt lat="-24.6106880" lon="-53.7451670">
        <ele>446.9</ele>
        <time>2018-09-15T18:49:26Z</time>
      </trkpt>
      <trkpt lat="-24.6107110" lon="-53.7451700">
        <ele>446.9</ele>
        <time>2018-09-15T18:49:27Z</time>
      </trkpt>
      <trkpt lat="-24.6107340" lon="-53.7451750">
        <ele>446.9</ele>
        <time>2018-09-15T18:49:28Z</time>
      </trkpt>
      <trkpt lat="-24.6107580" lon="-53.7451800">
        <ele>447.0</ele>
        <time>2018-09-15T18:49:29Z</time>
      </trkpt>
      <trkpt lat="-24.6107820" lon="-53.7451850">
        <ele>447.0</ele>
        <time>2018-09-15T18:49:30Z</time>
      </trkpt>
      <trkpt lat="-24.6108050" lon="-53.7451900">
        <ele>447.0</ele>
        <time>2018-09-15T18:49:31Z</time>
      </trkpt>
      <trkpt lat="-24.6108280" lon="-53.7451930">
        <ele>447.0</ele>
        <time>2018-09-15T18:49:32Z</time>
      </trkpt>
      <trkpt lat="-24.6108520" lon="-53.7451960">
        <ele>447.0</ele>
        <time>2018-09-15T18:49:33Z</time>
      </trkpt>
      <trkpt lat="-24.6108750" lon="-53.7451990">
        <ele>447.0</ele>
        <time>2018-09-15T18:49:34Z</time>
      </trkpt>
      <trkpt lat="-24.6109000" lon="-53.7452020">
        <ele>447.0</ele>
        <time>2018-09-15T18:49:35Z</time>
      </trkpt>
      <trkpt lat="-24.6109260" lon="-53.7452060">
        <ele>447.0</ele>
        <time>2018-09-15T18:49:36Z</time>
      </trkpt>
      <trkpt lat="-24.6109520" lon="-53.7452110">
        <ele>447.0</ele>
        <time>2018-09-15T18:49:37Z</time>
      </trkpt>
      <trkpt lat="-24.6109780" lon="-53.7452160">
        <ele>447.0</ele>
        <time>2018-09-15T18:49:38Z</time>
      </trkpt>
      <trkpt lat="-24.6110040" lon="-53.7452210">
        <ele>447.0</ele>
        <time>2018-09-15T18:49:39Z</time>
      </trkpt>
      <trkpt lat="-24.6110280" lon="-53.7452240">
        <ele>447.0</ele>
        <time>2018-09-15T18:49:40Z</time>
      </trkpt>
      <trkpt lat="-24.6110530" lon="-53.7452270">
        <ele>447.0</ele>
        <time>2018-09-15T18:49:41Z</time>
      </trkpt>
      <trkpt lat="-24.6110770" lon="-53.7452300">
        <ele>447.0</ele>
        <time>2018-09-15T18:49:42Z</time>
      </trkpt>
      <trkpt lat="-24.6111020" lon="-53.7452350">
        <ele>447.0</ele>
        <time>2018-09-15T18:49:43Z</time>
      </trkpt>
      <trkpt lat="-24.6111270" lon="-53.7452400">
        <ele>447.0</ele>
        <time>2018-09-15T18:49:44Z</time>
      </trkpt>
      <trkpt lat="-24.6111510" lon="-53.7452440">
        <ele>447.0</ele>
        <time>2018-09-15T18:49:45Z</time>
      </trkpt>
      <trkpt lat="-24.6111740" lon="-53.7452480">
        <ele>447.0</ele>
        <time>2018-09-15T18:49:46Z</time>
      </trkpt>
      <trkpt lat="-24.6111980" lon="-53.7452500">
        <ele>447.0</ele>
        <time>2018-09-15T18:49:47Z</time>
      </trkpt>
      <trkpt lat="-24.6112220" lon="-53.7452530">
        <ele>447.0</ele>
        <time>2018-09-15T18:49:48Z</time>
      </trkpt>
      <trkpt lat="-24.6112450" lon="-53.7452560">
        <ele>447.0</ele>
        <time>2018-09-15T18:49:49Z</time>
      </trkpt>
      <trkpt lat="-24.6112690" lon="-53.7452590">
        <ele>447.0</ele>
        <time>2018-09-15T18:49:50Z</time>
      </trkpt>
      <trkpt lat="-24.6112930" lon="-53.7452620">
        <ele>447.0</ele>
        <time>2018-09-15T18:49:51Z</time>
      </trkpt>
      <trkpt lat="-24.6113170" lon="-53.7452660">
        <ele>446.9</ele>
        <time>2018-09-15T18:49:52Z</time>
      </trkpt>
      <trkpt lat="-24.6113420" lon="-53.7452690">
        <ele>446.7</ele>
        <time>2018-09-15T18:49:53Z</time>
      </trkpt>
      <trkpt lat="-24.6113670" lon="-53.7452730">
        <ele>446.4</ele>
        <time>2018-09-15T18:49:54Z</time>
      </trkpt>
      <trkpt lat="-24.6113910" lon="-53.7452750">
        <ele>446.2</ele>
        <time>2018-09-15T18:49:55Z</time>
      </trkpt>
      <trkpt lat="-24.6114150" lon="-53.7452770">
        <ele>446.0</ele>
        <time>2018-09-15T18:49:56Z</time>
      </trkpt>
      <trkpt lat="-24.6114390" lon="-53.7452790">
        <ele>445.8</ele>
        <time>2018-09-15T18:49:57Z</time>
      </trkpt>
      <trkpt lat="-24.6114640" lon="-53.7452800">
        <ele>445.5</ele>
        <time>2018-09-15T18:49:58Z</time>
      </trkpt>
      <trkpt lat="-24.6114890" lon="-53.7452830">
        <ele>445.2</ele>
        <time>2018-09-15T18:49:59Z</time>
      </trkpt>
      <trkpt lat="-24.6115140" lon="-53.7452860">
        <ele>445.0</ele>
        <time>2018-09-15T18:50:00Z</time>
      </trkpt>
      <trkpt lat="-24.6115370" lon="-53.7452870">
        <ele>444.8</ele>
        <time>2018-09-15T18:50:01Z</time>
      </trkpt>
      <trkpt lat="-24.6115580" lon="-53.7452860">
        <ele>444.7</ele>
        <time>2018-09-15T18:50:02Z</time>
      </trkpt>
      <trkpt lat="-24.6115820" lon="-53.7452870">
        <ele>444.5</ele>
        <time>2018-09-15T18:50:03Z</time>
      </trkpt>
      <trkpt lat="-24.6116050" lon="-53.7452910">
        <ele>444.3</ele>
        <time>2018-09-15T18:50:04Z</time>
      </trkpt>
      <trkpt lat="-24.6116280" lon="-53.7452940">
        <ele>444.1</ele>
        <time>2018-09-15T18:50:05Z</time>
      </trkpt>
      <trkpt lat="-24.6116510" lon="-53.7452960">
        <ele>444.0</ele>
        <time>2018-09-15T18:50:06Z</time>
      </trkpt>
      <trkpt lat="-24.6116740" lon="-53.7452990">
        <ele>443.8</ele>
        <time>2018-09-15T18:50:07Z</time>
      </trkpt>
      <trkpt lat="-24.6116980" lon="-53.7453050">
        <ele>443.7</ele>
        <time>2018-09-15T18:50:08Z</time>
      </trkpt>
      <trkpt lat="-24.6117230" lon="-53.7453130">
        <ele>443.5</ele>
        <time>2018-09-15T18:50:09Z</time>
      </trkpt>
      <trkpt lat="-24.6117490" lon="-53.7453230">
        <ele>443.3</ele>
        <time>2018-09-15T18:50:10Z</time>
      </trkpt>
      <trkpt lat="-24.6117750" lon="-53.7453330">
        <ele>443.2</ele>
        <time>2018-09-15T18:50:11Z</time>
      </trkpt>
      <trkpt lat="-24.6117990" lon="-53.7453460">
        <ele>443.0</ele>
        <time>2018-09-15T18:50:12Z</time>
      </trkpt>
      <trkpt lat="-24.6118200" lon="-53.7453620">
        <ele>443.1</ele>
        <time>2018-09-15T18:50:13Z</time>
      </trkpt>
      <trkpt lat="-24.6118360" lon="-53.7453830">
        <ele>443.3</ele>
        <time>2018-09-15T18:50:14Z</time>
      </trkpt>
      <trkpt lat="-24.6118520" lon="-53.7454060">
        <ele>443.6</ele>
        <time>2018-09-15T18:50:15Z</time>
      </trkpt>
      <trkpt lat="-24.6118610" lon="-53.7454300">
        <ele>443.7</ele>
        <time>2018-09-15T18:50:16Z</time>
      </trkpt>
      <trkpt lat="-24.6118670" lon="-53.7454570">
        <ele>443.9</ele>
        <time>2018-09-15T18:50:17Z</time>
      </trkpt>
      <trkpt lat="-24.6118690" lon="-53.7454830">
        <ele>444.0</ele>
        <time>2018-09-15T18:50:18Z</time>
      </trkpt>
      <trkpt lat="-24.6118690" lon="-53.7455090">
        <ele>444.2</ele>
        <time>2018-09-15T18:50:19Z</time>
      </trkpt>
      <trkpt lat="-24.6118690" lon="-53.7455340">
        <ele>444.3</ele>
        <time>2018-09-15T18:50:20Z</time>
      </trkpt>
      <trkpt lat="-24.6118700" lon="-53.7455590">
        <ele>444.6</ele>
        <time>2018-09-15T18:50:21Z</time>
      </trkpt>
      <trkpt lat="-24.6118690" lon="-53.7455840">
        <ele>444.8</ele>
        <time>2018-09-15T18:50:22Z</time>
      </trkpt>
      <trkpt lat="-24.6118680" lon="-53.7456100">
        <ele>445.1</ele>
        <time>2018-09-15T18:50:23Z</time>
      </trkpt>
      <trkpt lat="-24.6118660" lon="-53.7456360">
        <ele>445.4</ele>
        <time>2018-09-15T18:50:24Z</time>
      </trkpt>
      <trkpt lat="-24.6118650" lon="-53.7456640">
        <ele>445.7</ele>
        <time>2018-09-15T18:50:25Z</time>
      </trkpt>
      <trkpt lat="-24.6118650" lon="-53.7456910">
        <ele>446.0</ele>
        <time>2018-09-15T18:50:26Z</time>
      </trkpt>
      <trkpt lat="-24.6118640" lon="-53.7457190">
        <ele>446.3</ele>
        <time>2018-09-15T18:50:27Z</time>
      </trkpt>
      <trkpt lat="-24.6118640" lon="-53.7457460">
        <ele>446.5</ele>
        <time>2018-09-15T18:50:28Z</time>
      </trkpt>
      <trkpt lat="-24.6118630" lon="-53.7457730">
        <ele>446.6</ele>
        <time>2018-09-15T18:50:29Z</time>
      </trkpt>
      <trkpt lat="-24.6118620" lon="-53.7458020">
        <ele>446.7</ele>
        <time>2018-09-15T18:50:30Z</time>
      </trkpt>
      <trkpt lat="-24.6118620" lon="-53.7458290">
        <ele>446.8</ele>
        <time>2018-09-15T18:50:31Z</time>
      </trkpt>
      <trkpt lat="-24.6118620" lon="-53.7458560">
        <ele>447.0</ele>
        <time>2018-09-15T18:50:32Z</time>
      </trkpt>
      <trkpt lat="-24.6118620" lon="-53.7458830">
        <ele>447.1</ele>
        <time>2018-09-15T18:50:33Z</time>
      </trkpt>
      <trkpt lat="-24.6118620" lon="-53.7459110">
        <ele>447.2</ele>
        <time>2018-09-15T18:50:34Z</time>
      </trkpt>
      <trkpt lat="-24.6118620" lon="-53.7459390">
        <ele>447.3</ele>
        <time>2018-09-15T18:50:35Z</time>
      </trkpt>
      <trkpt lat="-24.6118630" lon="-53.7459660">
        <ele>447.4</ele>
        <time>2018-09-15T18:50:36Z</time>
      </trkpt>
      <trkpt lat="-24.6118630" lon="-53.7459920">
        <ele>447.5</ele>
        <time>2018-09-15T18:50:37Z</time>
      </trkpt>
      <trkpt lat="-24.6118630" lon="-53.7460190">
        <ele>447.7</ele>
        <time>2018-09-15T18:50:38Z</time>
      </trkpt>
      <trkpt lat="-24.6118630" lon="-53.7460450">
        <ele>448.0</ele>
        <time>2018-09-15T18:50:39Z</time>
      </trkpt>
      <trkpt lat="-24.6118620" lon="-53.7460710">
        <ele>448.3</ele>
        <time>2018-09-15T18:50:40Z</time>
      </trkpt>
      <trkpt lat="-24.6118630" lon="-53.7460940">
        <ele>448.5</ele>
        <time>2018-09-15T18:50:41Z</time>
      </trkpt>
      <trkpt lat="-24.6118620" lon="-53.7461160">
        <ele>448.7</ele>
        <time>2018-09-15T18:50:42Z</time>
      </trkpt>
      <trkpt lat="-24.6118620" lon="-53.7461370">
        <ele>448.9</ele>
        <time>2018-09-15T18:50:43Z</time>
      </trkpt>
      <trkpt lat="-24.6118640" lon="-53.7461600">
        <ele>449.1</ele>
        <time>2018-09-15T18:50:44Z</time>
      </trkpt>
      <trkpt lat="-24.6118640" lon="-53.7461860">
        <ele>449.3</ele>
        <time>2018-09-15T18:50:45Z</time>
      </trkpt>
      <trkpt lat="-24.6118640" lon="-53.7462130">
        <ele>449.5</ele>
        <time>2018-09-15T18:50:46Z</time>
      </trkpt>
      <trkpt lat="-24.6118640" lon="-53.7462390">
        <ele>449.5</ele>
        <time>2018-09-15T18:50:47Z</time>
      </trkpt>
      <trkpt lat="-24.6118650" lon="-53.7462660">
        <ele>449.6</ele>
        <time>2018-09-15T18:50:48Z</time>
      </trkpt>
      <trkpt lat="-24.6118660" lon="-53.7462930">
        <ele>449.7</ele>
        <time>2018-09-15T18:50:49Z</time>
      </trkpt>
      <trkpt lat="-24.6118660" lon="-53.7463200">
        <ele>449.8</ele>
        <time>2018-09-15T18:50:50Z</time>
      </trkpt>
      <trkpt lat="-24.6118660" lon="-53.7463460">
        <ele>449.9</ele>
        <time>2018-09-15T18:50:51Z</time>
      </trkpt>
      <trkpt lat="-24.6118660" lon="-53.7463730">
        <ele>449.9</ele>
        <time>2018-09-15T18:50:52Z</time>
      </trkpt>
      <trkpt lat="-24.6118660" lon="-53.7463990">
        <ele>450.0</ele>
        <time>2018-09-15T18:50:53Z</time>
      </trkpt>
      <trkpt lat="-24.6118660" lon="-53.7464250">
        <ele>450.1</ele>
        <time>2018-09-15T18:50:54Z</time>
      </trkpt>
      <trkpt lat="-24.6118670" lon="-53.7464510">
        <ele>450.1</ele>
        <time>2018-09-15T18:50:55Z</time>
      </trkpt>
      <trkpt lat="-24.6118670" lon="-53.7464770">
        <ele>450.2</ele>
        <time>2018-09-15T18:50:56Z</time>
      </trkpt>
      <trkpt lat="-24.6118660" lon="-53.7465030">
        <ele>450.3</ele>
        <time>2018-09-15T18:50:57Z</time>
      </trkpt>
      <trkpt lat="-24.6118660" lon="-53.7465290">
        <ele>450.4</ele>
        <time>2018-09-15T18:50:58Z</time>
      </trkpt>
      <trkpt lat="-24.6118670" lon="-53.7465800">
        <ele>450.5</ele>
        <time>2018-09-15T18:50:59Z</time>
      </trkpt>
      <trkpt lat="-24.6118670" lon="-53.7466060">
        <ele>450.7</ele>
        <time>2018-09-15T18:51:01Z</time>
      </trkpt>
      <trkpt lat="-24.6118650" lon="-53.7466310">
        <ele>450.8</ele>
        <time>2018-09-15T18:51:02Z</time>
      </trkpt>
      <trkpt lat="-24.6118650" lon="-53.7466570">
        <ele>451.0</ele>
        <time>2018-09-15T18:51:03Z</time>
      </trkpt>
      <trkpt lat="-24.6118650" lon="-53.7466820">
        <ele>451.2</ele>
        <time>2018-09-15T18:51:04Z</time>
      </trkpt>
      <trkpt lat="-24.6118650" lon="-53.7467080">
        <ele>451.4</ele>
        <time>2018-09-15T18:51:05Z</time>
      </trkpt>
      <trkpt lat="-24.6118660" lon="-53.7467330">
        <ele>451.7</ele>
        <time>2018-09-15T18:51:06Z</time>
      </trkpt>
      <trkpt lat="-24.6118660" lon="-53.7467570">
        <ele>451.9</ele>
        <time>2018-09-15T18:51:07Z</time>
      </trkpt>
      <trkpt lat="-24.6118660" lon="-53.7467820">
        <ele>452.2</ele>
        <time>2018-09-15T18:51:08Z</time>
      </trkpt>
      <trkpt lat="-24.6118670" lon="-53.7468070">
        <ele>452.5</ele>
        <time>2018-09-15T18:51:09Z</time>
      </trkpt>
      <trkpt lat="-24.6118660" lon="-53.7468320">
        <ele>452.7</ele>
        <time>2018-09-15T18:51:10Z</time>
      </trkpt>
      <trkpt lat="-24.6118640" lon="-53.7468570">
        <ele>452.9</ele>
        <time>2018-09-15T18:51:11Z</time>
      </trkpt>
      <trkpt lat="-24.6118640" lon="-53.7469090">
        <ele>453.1</ele>
        <time>2018-09-15T18:51:12Z</time>
      </trkpt>
      <trkpt lat="-24.6118640" lon="-53.7469350">
        <ele>453.3</ele>
        <time>2018-09-15T18:51:13Z</time>
      </trkpt>
      <trkpt lat="-24.6118640" lon="-53.7469600">
        <ele>453.4</ele>
        <time>2018-09-15T18:51:14Z</time>
      </trkpt>
      <trkpt lat="-24.6118620" lon="-53.7470100">
        <ele>453.6</ele>
        <time>2018-09-15T18:51:16Z</time>
      </trkpt>
      <trkpt lat="-24.6118620" lon="-53.7470350">
        <ele>453.7</ele>
        <time>2018-09-15T18:51:17Z</time>
      </trkpt>
      <trkpt lat="-24.6118620" lon="-53.7470600">
        <ele>453.7</ele>
        <time>2018-09-15T18:51:18Z</time>
      </trkpt>
      <trkpt lat="-24.6118620" lon="-53.7470870">
        <ele>453.8</ele>
        <time>2018-09-15T18:51:19Z</time>
      </trkpt>
      <trkpt lat="-24.6118610" lon="-53.7471140">
        <ele>453.9</ele>
        <time>2018-09-15T18:51:20Z</time>
      </trkpt>
      <trkpt lat="-24.6118600" lon="-53.7471420">
        <ele>453.9</ele>
        <time>2018-09-15T18:51:21Z</time>
      </trkpt>
      <trkpt lat="-24.6118580" lon="-53.7471680">
        <ele>454.0</ele>
        <time>2018-09-15T18:51:22Z</time>
      </trkpt>
      <trkpt lat="-24.6118570" lon="-53.7471950">
        <ele>454.1</ele>
        <time>2018-09-15T18:51:23Z</time>
      </trkpt>
      <trkpt lat="-24.6118580" lon="-53.7472210">
        <ele>454.2</ele>
        <time>2018-09-15T18:51:24Z</time>
      </trkpt>
      <trkpt lat="-24.6118580" lon="-53.7472480">
        <ele>454.2</ele>
        <time>2018-09-15T18:51:25Z</time>
      </trkpt>
      <trkpt lat="-24.6118590" lon="-53.7472740">
        <ele>454.3</ele>
        <time>2018-09-15T18:51:26Z</time>
      </trkpt>
      <trkpt lat="-24.6118590" lon="-53.7473010">
        <ele>454.4</ele>
        <time>2018-09-15T18:51:27Z</time>
      </trkpt>
      <trkpt lat="-24.6118600" lon="-53.7473270">
        <ele>454.4</ele>
        <time>2018-09-15T18:51:28Z</time>
      </trkpt>
      <trkpt lat="-24.6118610" lon="-53.7473530">
        <ele>454.5</ele>
        <time>2018-09-15T18:51:29Z</time>
      </trkpt>
      <trkpt lat="-24.6118610" lon="-53.7473790">
        <ele>454.6</ele>
        <time>2018-09-15T18:51:30Z</time>
      </trkpt>
      <trkpt lat="-24.6118610" lon="-53.7474050">
        <ele>454.6</ele>
        <time>2018-09-15T18:51:31Z</time>
      </trkpt>
      <trkpt lat="-24.6118630" lon="-53.7474310">
        <ele>454.7</ele>
        <time>2018-09-15T18:51:32Z</time>
      </trkpt>
      <trkpt lat="-24.6118640" lon="-53.7474570">
        <ele>454.9</ele>
        <time>2018-09-15T18:51:33Z</time>
      </trkpt>
      <trkpt lat="-24.6118650" lon="-53.7474830">
        <ele>455.1</ele>
        <time>2018-09-15T18:51:34Z</time>
      </trkpt>
      <trkpt lat="-24.6118640" lon="-53.7475090">
        <ele>455.4</ele>
        <time>2018-09-15T18:51:35Z</time>
      </trkpt>
      <trkpt lat="-24.6118630" lon="-53.7475350">
        <ele>455.6</ele>
        <time>2018-09-15T18:51:36Z</time>
      </trkpt>
      <trkpt lat="-24.6118620" lon="-53.7475630">
        <ele>455.8</ele>
        <time>2018-09-15T18:51:37Z</time>
      </trkpt>
      <trkpt lat="-24.6118610" lon="-53.7475910">
        <ele>456.1</ele>
        <time>2018-09-15T18:51:38Z</time>
      </trkpt>
      <trkpt lat="-24.6118610" lon="-53.7476190">
        <ele>456.3</ele>
        <time>2018-09-15T18:51:39Z</time>
      </trkpt>
      <trkpt lat="-24.6118620" lon="-53.7476470">
        <ele>456.4</ele>
        <time>2018-09-15T18:51:40Z</time>
      </trkpt>
      <trkpt lat="-24.6118640" lon="-53.7476750">
        <ele>456.5</ele>
        <time>2018-09-15T18:51:41Z</time>
      </trkpt>
      <trkpt lat="-24.6118640" lon="-53.7477020">
        <ele>456.6</ele>
        <time>2018-09-15T18:51:42Z</time>
      </trkpt>
      <trkpt lat="-24.6118640" lon="-53.7477280">
        <ele>456.6</ele>
        <time>2018-09-15T18:51:43Z</time>
      </trkpt>
      <trkpt lat="-24.6118640" lon="-53.7477540">
        <ele>456.7</ele>
        <time>2018-09-15T18:51:44Z</time>
      </trkpt>
      <trkpt lat="-24.6118640" lon="-53.7477790">
        <ele>456.8</ele>
        <time>2018-09-15T18:51:45Z</time>
      </trkpt>
      <trkpt lat="-24.6118630" lon="-53.7478030">
        <ele>456.9</ele>
        <time>2018-09-15T18:51:46Z</time>
      </trkpt>
      <trkpt lat="-24.6118630" lon="-53.7478290">
        <ele>457.0</ele>
        <time>2018-09-15T18:51:47Z</time>
      </trkpt>
      <trkpt lat="-24.6118630" lon="-53.7478560">
        <ele>457.0</ele>
        <time>2018-09-15T18:51:48Z</time>
      </trkpt>
      <trkpt lat="-24.6118630" lon="-53.7478860">
        <ele>457.1</ele>
        <time>2018-09-15T18:51:49Z</time>
      </trkpt>
      <trkpt lat="-24.6118630" lon="-53.7479170">
        <ele>457.2</ele>
        <time>2018-09-15T18:51:50Z</time>
      </trkpt>
      <trkpt lat="-24.6118630" lon="-53.7479480">
        <ele>457.2</ele>
        <time>2018-09-15T18:51:51Z</time>
      </trkpt>
      <trkpt lat="-24.6118630" lon="-53.7479800">
        <ele>457.3</ele>
        <time>2018-09-15T18:51:52Z</time>
      </trkpt>
      <trkpt lat="-24.6118630" lon="-53.7480100">
        <ele>457.4</ele>
        <time>2018-09-15T18:51:53Z</time>
      </trkpt>
      <trkpt lat="-24.6118630" lon="-53.7480100">
        <ele>457.4</ele>
        <time>2018-09-15T18:51:54Z</time>
      </trkpt>
      <trkpt lat="-24.6118630" lon="-53.7480400">
        <ele>457.4</ele>
        <time>2018-09-15T18:51:55Z</time>
      </trkpt>
      <trkpt lat="-24.6118640" lon="-53.7480700">
        <ele>457.5</ele>
        <time>2018-09-15T18:51:56Z</time>
      </trkpt>
      <trkpt lat="-24.6118650" lon="-53.7481000">
        <ele>457.5</ele>
        <time>2018-09-15T18:51:57Z</time>
      </trkpt>
      <trkpt lat="-24.6118650" lon="-53.7481610">
        <ele>457.7</ele>
        <time>2018-09-15T18:51:58Z</time>
      </trkpt>
      <trkpt lat="-24.6118650" lon="-53.7481910">
        <ele>457.7</ele>
        <time>2018-09-15T18:51:59Z</time>
      </trkpt>
      <trkpt lat="-24.6118650" lon="-53.7481910">
        <ele>457.7</ele>
        <time>2018-09-15T18:52:00Z</time>
      </trkpt>
      <trkpt lat="-24.6118650" lon="-53.7482220">
        <ele>457.8</ele>
        <time>2018-09-15T18:52:01Z</time>
      </trkpt>
      <trkpt lat="-24.6118620" lon="-53.7482540">
        <ele>457.9</ele>
        <time>2018-09-15T18:52:02Z</time>
      </trkpt>
      <trkpt lat="-24.6118630" lon="-53.7482860">
        <ele>457.9</ele>
        <time>2018-09-15T18:52:03Z</time>
      </trkpt>
      <trkpt lat="-24.6118630" lon="-53.7483180">
        <ele>458.0</ele>
        <time>2018-09-15T18:52:04Z</time>
      </trkpt>
      <trkpt lat="-24.6118620" lon="-53.7483510">
        <ele>458.1</ele>
        <time>2018-09-15T18:52:05Z</time>
      </trkpt>
      <trkpt lat="-24.6118620" lon="-53.7483830">
        <ele>458.2</ele>
        <time>2018-09-15T18:52:06Z</time>
      </trkpt>
      <trkpt lat="-24.6118620" lon="-53.7484160">
        <ele>458.5</ele>
        <time>2018-09-15T18:52:07Z</time>
      </trkpt>
      <trkpt lat="-24.6118620" lon="-53.7484490">
        <ele>458.7</ele>
        <time>2018-09-15T18:52:08Z</time>
      </trkpt>
      <trkpt lat="-24.6118630" lon="-53.7484810">
        <ele>459.0</ele>
        <time>2018-09-15T18:52:09Z</time>
      </trkpt>
      <trkpt lat="-24.6118650" lon="-53.7485140">
        <ele>459.2</ele>
        <time>2018-09-15T18:52:10Z</time>
      </trkpt>
      <trkpt lat="-24.6118670" lon="-53.7485470">
        <ele>459.5</ele>
        <time>2018-09-15T18:52:11Z</time>
      </trkpt>
      <trkpt lat="-24.6118670" lon="-53.7485800">
        <ele>459.6</ele>
        <time>2018-09-15T18:52:12Z</time>
      </trkpt>
      <trkpt lat="-24.6118680" lon="-53.7486120">
        <ele>459.7</ele>
        <time>2018-09-15T18:52:13Z</time>
      </trkpt>
      <trkpt lat="-24.6118700" lon="-53.7486430">
        <ele>459.7</ele>
        <time>2018-09-15T18:52:14Z</time>
      </trkpt>
      <trkpt lat="-24.6118720" lon="-53.7486750">
        <ele>459.8</ele>
        <time>2018-09-15T18:52:15Z</time>
      </trkpt>
      <trkpt lat="-24.6118730" lon="-53.7487060">
        <ele>459.9</ele>
        <time>2018-09-15T18:52:16Z</time>
      </trkpt>
      <trkpt lat="-24.6118740" lon="-53.7487370">
        <ele>459.9</ele>
        <time>2018-09-15T18:52:17Z</time>
      </trkpt>
      <trkpt lat="-24.6118760" lon="-53.7487680">
        <ele>460.0</ele>
        <time>2018-09-15T18:52:18Z</time>
      </trkpt>
      <trkpt lat="-24.6118780" lon="-53.7487990">
        <ele>460.0</ele>
        <time>2018-09-15T18:52:19Z</time>
      </trkpt>
      <trkpt lat="-24.6118800" lon="-53.7488300">
        <ele>460.1</ele>
        <time>2018-09-15T18:52:20Z</time>
      </trkpt>
      <trkpt lat="-24.6118820" lon="-53.7488600">
        <ele>460.2</ele>
        <time>2018-09-15T18:52:21Z</time>
      </trkpt>
      <trkpt lat="-24.6118830" lon="-53.7488890">
        <ele>460.2</ele>
        <time>2018-09-15T18:52:22Z</time>
      </trkpt>
      <trkpt lat="-24.6118830" lon="-53.7489170">
        <ele>460.3</ele>
        <time>2018-09-15T18:52:23Z</time>
      </trkpt>
      <trkpt lat="-24.6118830" lon="-53.7489460">
        <ele>460.3</ele>
        <time>2018-09-15T18:52:24Z</time>
      </trkpt>
      <trkpt lat="-24.6118830" lon="-53.7489760">
        <ele>460.4</ele>
        <time>2018-09-15T18:52:25Z</time>
      </trkpt>
      <trkpt lat="-24.6118810" lon="-53.7490080">
        <ele>460.4</ele>
        <time>2018-09-15T18:52:26Z</time>
      </trkpt>
      <trkpt lat="-24.6118800" lon="-53.7490430">
        <ele>460.5</ele>
        <time>2018-09-15T18:52:27Z</time>
      </trkpt>
      <trkpt lat="-24.6118800" lon="-53.7490790">
        <ele>460.5</ele>
        <time>2018-09-15T18:52:28Z</time>
      </trkpt>
      <trkpt lat="-24.6118800" lon="-53.7491170">
        <ele>460.6</ele>
        <time>2018-09-15T18:52:29Z</time>
      </trkpt>
      <trkpt lat="-24.6118790" lon="-53.7491550">
        <ele>460.6</ele>
        <time>2018-09-15T18:52:30Z</time>
      </trkpt>
      <trkpt lat="-24.6118770" lon="-53.7491910">
        <ele>460.7</ele>
        <time>2018-09-15T18:52:31Z</time>
      </trkpt>
      <trkpt lat="-24.6118760" lon="-53.7492270">
        <ele>460.7</ele>
        <time>2018-09-15T18:52:32Z</time>
      </trkpt>
      <trkpt lat="-24.6118740" lon="-53.7492620">
        <ele>460.8</ele>
        <time>2018-09-15T18:52:33Z</time>
      </trkpt>
      <trkpt lat="-24.6118730" lon="-53.7492980">
        <ele>460.8</ele>
        <time>2018-09-15T18:52:34Z</time>
      </trkpt>
      <trkpt lat="-24.6118720" lon="-53.7493320">
        <ele>460.9</ele>
        <time>2018-09-15T18:52:35Z</time>
      </trkpt>
      <trkpt lat="-24.6118720" lon="-53.7493670">
        <ele>460.9</ele>
        <time>2018-09-15T18:52:36Z</time>
      </trkpt>
      <trkpt lat="-24.6118700" lon="-53.7494040">
        <ele>461.0</ele>
        <time>2018-09-15T18:52:37Z</time>
      </trkpt>
      <trkpt lat="-24.6118680" lon="-53.7494390">
        <ele>461.1</ele>
        <time>2018-09-15T18:52:38Z</time>
      </trkpt>
      <trkpt lat="-24.6118660" lon="-53.7494750">
        <ele>461.2</ele>
        <time>2018-09-15T18:52:39Z</time>
      </trkpt>
      <trkpt lat="-24.6118660" lon="-53.7495110">
        <ele>461.3</ele>
        <time>2018-09-15T18:52:40Z</time>
      </trkpt>
      <trkpt lat="-24.6118650" lon="-53.7495460">
        <ele>461.4</ele>
        <time>2018-09-15T18:52:41Z</time>
      </trkpt>
      <trkpt lat="-24.6118620" lon="-53.7495810">
        <ele>461.4</ele>
        <time>2018-09-15T18:52:42Z</time>
      </trkpt>
      <trkpt lat="-24.6118600" lon="-53.7496170">
        <ele>461.5</ele>
        <time>2018-09-15T18:52:43Z</time>
      </trkpt>
      <trkpt lat="-24.6118590" lon="-53.7496530">
        <ele>461.6</ele>
        <time>2018-09-15T18:52:44Z</time>
      </trkpt>
      <trkpt lat="-24.6118580" lon="-53.7496890">
        <ele>461.7</ele>
        <time>2018-09-15T18:52:45Z</time>
      </trkpt>
      <trkpt lat="-24.6118560" lon="-53.7497260">
        <ele>461.9</ele>
        <time>2018-09-15T18:52:46Z</time>
      </trkpt>
      <trkpt lat="-24.6118550" lon="-53.7497620">
        <ele>462.2</ele>
        <time>2018-09-15T18:52:47Z</time>
      </trkpt>
      <trkpt lat="-24.6118540" lon="-53.7497980">
        <ele>462.5</ele>
        <time>2018-09-15T18:52:48Z</time>
      </trkpt>
      <trkpt lat="-24.6118520" lon="-53.7498330">
        <ele>462.8</ele>
        <time>2018-09-15T18:52:49Z</time>
      </trkpt>
      <trkpt lat="-24.6118520" lon="-53.7498690">
        <ele>463.1</ele>
        <time>2018-09-15T18:52:50Z</time>
      </trkpt>
      <trkpt lat="-24.6118500" lon="-53.7499040">
        <ele>463.3</ele>
        <time>2018-09-15T18:52:51Z</time>
      </trkpt>
      <trkpt lat="-24.6118480" lon="-53.7499380">
        <ele>463.5</ele>
        <time>2018-09-15T18:52:52Z</time>
      </trkpt>
      <trkpt lat="-24.6118460" lon="-53.7499720">
        <ele>463.6</ele>
        <time>2018-09-15T18:52:53Z</time>
      </trkpt>
      <trkpt lat="-24.6118450" lon="-53.7500060">
        <ele>463.7</ele>
        <time>2018-09-15T18:52:54Z</time>
      </trkpt>
      <trkpt lat="-24.6118430" lon="-53.7500400">
        <ele>463.8</ele>
        <time>2018-09-15T18:52:55Z</time>
      </trkpt>
      <trkpt lat="-24.6118410" lon="-53.7500740">
        <ele>463.9</ele>
        <time>2018-09-15T18:52:56Z</time>
      </trkpt>
      <trkpt lat="-24.6118390" lon="-53.7501070">
        <ele>464.0</ele>
        <time>2018-09-15T18:52:57Z</time>
      </trkpt>
      <trkpt lat="-24.6118370" lon="-53.7501390">
        <ele>464.1</ele>
        <time>2018-09-15T18:52:58Z</time>
      </trkpt>
      <trkpt lat="-24.6118370" lon="-53.7501700">
        <ele>464.1</ele>
        <time>2018-09-15T18:52:59Z</time>
      </trkpt>
      <trkpt lat="-24.6118360" lon="-53.7502010">
        <ele>464.1</ele>
        <time>2018-09-15T18:53:00Z</time>
      </trkpt>
      <trkpt lat="-24.6118360" lon="-53.7502330">
        <ele>464.2</ele>
        <time>2018-09-15T18:53:01Z</time>
      </trkpt>
      <trkpt lat="-24.6118350" lon="-53.7502640">
        <ele>464.2</ele>
        <time>2018-09-15T18:53:02Z</time>
      </trkpt>
      <trkpt lat="-24.6118350" lon="-53.7502970">
        <ele>464.3</ele>
        <time>2018-09-15T18:53:03Z</time>
      </trkpt>
      <trkpt lat="-24.6118350" lon="-53.7503300">
        <ele>464.3</ele>
        <time>2018-09-15T18:53:04Z</time>
      </trkpt>
      <trkpt lat="-24.6118330" lon="-53.7503620">
        <ele>464.3</ele>
        <time>2018-09-15T18:53:05Z</time>
      </trkpt>
      <trkpt lat="-24.6118330" lon="-53.7503940">
        <ele>464.4</ele>
        <time>2018-09-15T18:53:06Z</time>
      </trkpt>
      <trkpt lat="-24.6118330" lon="-53.7504260">
        <ele>464.4</ele>
        <time>2018-09-15T18:53:07Z</time>
      </trkpt>
      <trkpt lat="-24.6118320" lon="-53.7504580">
        <ele>464.4</ele>
        <time>2018-09-15T18:53:08Z</time>
      </trkpt>
      <trkpt lat="-24.6118320" lon="-53.7504910">
        <ele>464.5</ele>
        <time>2018-09-15T18:53:09Z</time>
      </trkpt>
      <trkpt lat="-24.6118350" lon="-53.7505240">
        <ele>464.5</ele>
        <time>2018-09-15T18:53:10Z</time>
      </trkpt>
      <trkpt lat="-24.6118390" lon="-53.7505570">
        <ele>464.6</ele>
        <time>2018-09-15T18:53:11Z</time>
      </trkpt>
      <trkpt lat="-24.6118440" lon="-53.7505890">
        <ele>464.6</ele>
        <time>2018-09-15T18:53:12Z</time>
      </trkpt>
      <trkpt lat="-24.6118490" lon="-53.7506230">
        <ele>464.7</ele>
        <time>2018-09-15T18:53:13Z</time>
      </trkpt>
      <trkpt lat="-24.6118580" lon="-53.7506560">
        <ele>464.8</ele>
        <time>2018-09-15T18:53:14Z</time>
      </trkpt>
      <trkpt lat="-24.6118680" lon="-53.7506880">
        <ele>464.8</ele>
        <time>2018-09-15T18:53:15Z</time>
      </trkpt>
      <trkpt lat="-24.6118810" lon="-53.7507190">
        <ele>464.9</ele>
        <time>2018-09-15T18:53:16Z</time>
      </trkpt>
      <trkpt lat="-24.6118980" lon="-53.7507470">
        <ele>464.9</ele>
        <time>2018-09-15T18:53:17Z</time>
      </trkpt>
      <trkpt lat="-24.6119180" lon="-53.7507720">
        <ele>465.2</ele>
        <time>2018-09-15T18:53:18Z</time>
      </trkpt>
      <trkpt lat="-24.6119400" lon="-53.7507930">
        <ele>465.5</ele>
        <time>2018-09-15T18:53:19Z</time>
      </trkpt>
      <trkpt lat="-24.6119620" lon="-53.7508090">
        <ele>465.8</ele>
        <time>2018-09-15T18:53:20Z</time>
      </trkpt>
      <trkpt lat="-24.6119830" lon="-53.7508220">
        <ele>466.0</ele>
        <time>2018-09-15T18:53:21Z</time>
      </trkpt>
      <trkpt lat="-24.6120000" lon="-53.7508330">
        <ele>466.2</ele>
        <time>2018-09-15T18:53:22Z</time>
      </trkpt>
      <trkpt lat="-24.6120170" lon="-53.7508420">
        <ele>466.3</ele>
        <time>2018-09-15T18:53:23Z</time>
      </trkpt>
      <trkpt lat="-24.6120330" lon="-53.7508500">
        <ele>466.5</ele>
        <time>2018-09-15T18:53:24Z</time>
      </trkpt>
      <trkpt lat="-24.6120480" lon="-53.7508570">
        <ele>466.6</ele>
        <time>2018-09-15T18:53:25Z</time>
      </trkpt>
      <trkpt lat="-24.6120620" lon="-53.7508630">
        <ele>466.8</ele>
        <time>2018-09-15T18:53:26Z</time>
      </trkpt>
      <trkpt lat="-24.6120760" lon="-53.7508680">
        <ele>467.1</ele>
        <time>2018-09-15T18:53:27Z</time>
      </trkpt>
      <trkpt lat="-24.6120910" lon="-53.7508700">
        <ele>467.2</ele>
        <time>2018-09-15T18:53:28Z</time>
      </trkpt>
      <trkpt lat="-24.6121060" lon="-53.7508720">
        <ele>467.3</ele>
        <time>2018-09-15T18:53:29Z</time>
      </trkpt>
      <trkpt lat="-24.6121210" lon="-53.7508760">
        <ele>467.5</ele>
        <time>2018-09-15T18:53:30Z</time>
      </trkpt>
      <trkpt lat="-24.6121350" lon="-53.7508800">
        <ele>467.6</ele>
        <time>2018-09-15T18:53:31Z</time>
      </trkpt>
      <trkpt lat="-24.6121500" lon="-53.7508830">
        <ele>467.7</ele>
        <time>2018-09-15T18:53:32Z</time>
      </trkpt>
      <trkpt lat="-24.6121660" lon="-53.7508850">
        <ele>467.8</ele>
        <time>2018-09-15T18:53:33Z</time>
      </trkpt>
      <trkpt lat="-24.6121820" lon="-53.7508850">
        <ele>467.9</ele>
        <time>2018-09-15T18:53:34Z</time>
      </trkpt>
      <trkpt lat="-24.6121970" lon="-53.7508870">
        <ele>468.1</ele>
        <time>2018-09-15T18:53:35Z</time>
      </trkpt>
      <trkpt lat="-24.6122130" lon="-53.7508900">
        <ele>468.2</ele>
        <time>2018-09-15T18:53:36Z</time>
      </trkpt>
      <trkpt lat="-24.6122290" lon="-53.7508920">
        <ele>468.3</ele>
        <time>2018-09-15T18:53:37Z</time>
      </trkpt>
      <trkpt lat="-24.6122450" lon="-53.7508950">
        <ele>468.4</ele>
        <time>2018-09-15T18:53:38Z</time>
      </trkpt>
      <trkpt lat="-24.6122590" lon="-53.7508980">
        <ele>468.5</ele>
        <time>2018-09-15T18:53:39Z</time>
      </trkpt>
      <trkpt lat="-24.6122740" lon="-53.7509000">
        <ele>468.6</ele>
        <time>2018-09-15T18:53:40Z</time>
      </trkpt>
      <trkpt lat="-24.6122890" lon="-53.7509030">
        <ele>468.7</ele>
        <time>2018-09-15T18:53:41Z</time>
      </trkpt>
      <trkpt lat="-24.6123030" lon="-53.7509080">
        <ele>468.8</ele>
        <time>2018-09-15T18:53:42Z</time>
      </trkpt>
      <trkpt lat="-24.6123180" lon="-53.7509120">
        <ele>468.9</ele>
        <time>2018-09-15T18:53:43Z</time>
      </trkpt>
      <trkpt lat="-24.6123320" lon="-53.7509170">
        <ele>468.9</ele>
        <time>2018-09-15T18:53:44Z</time>
      </trkpt>
      <trkpt lat="-24.6123460" lon="-53.7509210">
        <ele>469.0</ele>
        <time>2018-09-15T18:53:45Z</time>
      </trkpt>
      <trkpt lat="-24.6123590" lon="-53.7509240">
        <ele>469.1</ele>
        <time>2018-09-15T18:53:46Z</time>
      </trkpt>
      <trkpt lat="-24.6123720" lon="-53.7509300">
        <ele>469.2</ele>
        <time>2018-09-15T18:53:47Z</time>
      </trkpt>
      <trkpt lat="-24.6123860" lon="-53.7509360">
        <ele>469.3</ele>
        <time>2018-09-15T18:53:48Z</time>
      </trkpt>
      <trkpt lat="-24.6123990" lon="-53.7509410">
        <ele>469.3</ele>
        <time>2018-09-15T18:53:49Z</time>
      </trkpt>
      <trkpt lat="-24.6124120" lon="-53.7509460">
        <ele>469.5</ele>
        <time>2018-09-15T18:53:50Z</time>
      </trkpt>
      <trkpt lat="-24.6124250" lon="-53.7509520">
        <ele>469.6</ele>
        <time>2018-09-15T18:53:51Z</time>
      </trkpt>
      <trkpt lat="-24.6124370" lon="-53.7509570">
        <ele>469.7</ele>
        <time>2018-09-15T18:53:52Z</time>
      </trkpt>
      <trkpt lat="-24.6124500" lon="-53.7509650">
        <ele>469.8</ele>
        <time>2018-09-15T18:53:53Z</time>
      </trkpt>
      <trkpt lat="-24.6124620" lon="-53.7509740">
        <ele>469.9</ele>
        <time>2018-09-15T18:53:54Z</time>
      </trkpt>
      <trkpt lat="-24.6124730" lon="-53.7509820">
        <ele>469.9</ele>
        <time>2018-09-15T18:53:55Z</time>
      </trkpt>
      <trkpt lat="-24.6124860" lon="-53.7509900">
        <ele>470.0</ele>
        <time>2018-09-15T18:53:56Z</time>
      </trkpt>
      <trkpt lat="-24.6124980" lon="-53.7509990">
        <ele>470.1</ele>
        <time>2018-09-15T18:53:57Z</time>
      </trkpt>
      <trkpt lat="-24.6125100" lon="-53.7510070">
        <ele>470.1</ele>
        <time>2018-09-15T18:53:58Z</time>
      </trkpt>
      <trkpt lat="-24.6125220" lon="-53.7510160">
        <ele>470.2</ele>
        <time>2018-09-15T18:53:59Z</time>
      </trkpt>
      <trkpt lat="-24.6125330" lon="-53.7510240">
        <ele>470.3</ele>
        <time>2018-09-15T18:54:00Z</time>
      </trkpt>
      <trkpt lat="-24.6125430" lon="-53.7510350">
        <ele>470.4</ele>
        <time>2018-09-15T18:54:01Z</time>
      </trkpt>
      <trkpt lat="-24.6125520" lon="-53.7510470">
        <ele>470.4</ele>
        <time>2018-09-15T18:54:02Z</time>
      </trkpt>
      <trkpt lat="-24.6125620" lon="-53.7510570">
        <ele>470.5</ele>
        <time>2018-09-15T18:54:03Z</time>
      </trkpt>
      <trkpt lat="-24.6125710" lon="-53.7510690">
        <ele>470.6</ele>
        <time>2018-09-15T18:54:04Z</time>
      </trkpt>
      <trkpt lat="-24.6125810" lon="-53.7510790">
        <ele>470.6</ele>
        <time>2018-09-15T18:54:05Z</time>
      </trkpt>
      <trkpt lat="-24.6125910" lon="-53.7510880">
        <ele>470.7</ele>
        <time>2018-09-15T18:54:06Z</time>
      </trkpt>
      <trkpt lat="-24.6126000" lon="-53.7511000">
        <ele>470.8</ele>
        <time>2018-09-15T18:54:07Z</time>
      </trkpt>
      <trkpt lat="-24.6126090" lon="-53.7511110">
        <ele>470.9</ele>
        <time>2018-09-15T18:54:08Z</time>
      </trkpt>
      <trkpt lat="-24.6126180" lon="-53.7511230">
        <ele>471.0</ele>
        <time>2018-09-15T18:54:09Z</time>
      </trkpt>
      <trkpt lat="-24.6126270" lon="-53.7511360">
        <ele>471.0</ele>
        <time>2018-09-15T18:54:10Z</time>
      </trkpt>
      <trkpt lat="-24.6126350" lon="-53.7511490">
        <ele>471.1</ele>
        <time>2018-09-15T18:54:11Z</time>
      </trkpt>
      <trkpt lat="-24.6126440" lon="-53.7511630">
        <ele>471.2</ele>
        <time>2018-09-15T18:54:12Z</time>
      </trkpt>
      <trkpt lat="-24.6126510" lon="-53.7511750">
        <ele>471.3</ele>
        <time>2018-09-15T18:54:13Z</time>
      </trkpt>
      <trkpt lat="-24.6126590" lon="-53.7511880">
        <ele>471.4</ele>
        <time>2018-09-15T18:54:14Z</time>
      </trkpt>
      <trkpt lat="-24.6126640" lon="-53.7512030">
        <ele>471.4</ele>
        <time>2018-09-15T18:54:15Z</time>
      </trkpt>
      <trkpt lat="-24.6126710" lon="-53.7512180">
        <ele>471.5</ele>
        <time>2018-09-15T18:54:16Z</time>
      </trkpt>
      <trkpt lat="-24.6126780" lon="-53.7512330">
        <ele>471.6</ele>
        <time>2018-09-15T18:54:17Z</time>
      </trkpt>
      <trkpt lat="-24.6126840" lon="-53.7512480">
        <ele>471.7</ele>
        <time>2018-09-15T18:54:18Z</time>
      </trkpt>
      <trkpt lat="-24.6126900" lon="-53.7512640">
        <ele>471.8</ele>
        <time>2018-09-15T18:54:19Z</time>
      </trkpt>
      <trkpt lat="-24.6126950" lon="-53.7512810">
        <ele>471.9</ele>
        <time>2018-09-15T18:54:20Z</time>
      </trkpt>
      <trkpt lat="-24.6127000" lon="-53.7512970">
        <ele>471.9</ele>
        <time>2018-09-15T18:54:21Z</time>
      </trkpt>
      <trkpt lat="-24.6127060" lon="-53.7513120">
        <ele>472.0</ele>
        <time>2018-09-15T18:54:22Z</time>
      </trkpt>
      <trkpt lat="-24.6127120" lon="-53.7513280">
        <ele>472.1</ele>
        <time>2018-09-15T18:54:23Z</time>
      </trkpt>
      <trkpt lat="-24.6127160" lon="-53.7513430">
        <ele>472.2</ele>
        <time>2018-09-15T18:54:24Z</time>
      </trkpt>
      <trkpt lat="-24.6127220" lon="-53.7513590">
        <ele>472.3</ele>
        <time>2018-09-15T18:54:25Z</time>
      </trkpt>
      <trkpt lat="-24.6127270" lon="-53.7513750">
        <ele>472.3</ele>
        <time>2018-09-15T18:54:26Z</time>
      </trkpt>
      <trkpt lat="-24.6127320" lon="-53.7513910">
        <ele>472.4</ele>
        <time>2018-09-15T18:54:27Z</time>
      </trkpt>
      <trkpt lat="-24.6127380" lon="-53.7514060">
        <ele>472.5</ele>
        <time>2018-09-15T18:54:28Z</time>
      </trkpt>
      <trkpt lat="-24.6127430" lon="-53.7514210">
        <ele>472.6</ele>
        <time>2018-09-15T18:54:29Z</time>
      </trkpt>
      <trkpt lat="-24.6127480" lon="-53.7514360">
        <ele>472.6</ele>
        <time>2018-09-15T18:54:30Z</time>
      </trkpt>
      <trkpt lat="-24.6127530" lon="-53.7514510">
        <ele>472.7</ele>
        <time>2018-09-15T18:54:31Z</time>
      </trkpt>
      <trkpt lat="-24.6127570" lon="-53.7514650">
        <ele>472.8</ele>
        <time>2018-09-15T18:54:32Z</time>
      </trkpt>
      <trkpt lat="-24.6127630" lon="-53.7514790">
        <ele>472.9</ele>
        <time>2018-09-15T18:54:33Z</time>
      </trkpt>
      <trkpt lat="-24.6127680" lon="-53.7514930">
        <ele>472.9</ele>
        <time>2018-09-15T18:54:34Z</time>
      </trkpt>
      <trkpt lat="-24.6127730" lon="-53.7515090">
        <ele>473.0</ele>
        <time>2018-09-15T18:54:35Z</time>
      </trkpt>
      <trkpt lat="-24.6127780" lon="-53.7515240">
        <ele>473.1</ele>
        <time>2018-09-15T18:54:36Z</time>
      </trkpt>
      <trkpt lat="-24.6127820" lon="-53.7515390">
        <ele>473.2</ele>
        <time>2018-09-15T18:54:37Z</time>
      </trkpt>
      <trkpt lat="-24.6127880" lon="-53.7515550">
        <ele>473.2</ele>
        <time>2018-09-15T18:54:38Z</time>
      </trkpt>
      <trkpt lat="-24.6127930" lon="-53.7515710">
        <ele>473.3</ele>
        <time>2018-09-15T18:54:39Z</time>
      </trkpt>
      <trkpt lat="-24.6127970" lon="-53.7515870">
        <ele>473.4</ele>
        <time>2018-09-15T18:54:40Z</time>
      </trkpt>
      <trkpt lat="-24.6128010" lon="-53.7516030">
        <ele>473.5</ele>
        <time>2018-09-15T18:54:41Z</time>
      </trkpt>
      <trkpt lat="-24.6128050" lon="-53.7516200">
        <ele>473.7</ele>
        <time>2018-09-15T18:54:42Z</time>
      </trkpt>
      <trkpt lat="-24.6128090" lon="-53.7516360">
        <ele>473.8</ele>
        <time>2018-09-15T18:54:43Z</time>
      </trkpt>
      <trkpt lat="-24.6128130" lon="-53.7516520">
        <ele>473.9</ele>
        <time>2018-09-15T18:54:44Z</time>
      </trkpt>
      <trkpt lat="-24.6128180" lon="-53.7516670">
        <ele>473.9</ele>
        <time>2018-09-15T18:54:45Z</time>
      </trkpt>
      <trkpt lat="-24.6128220" lon="-53.7516830">
        <ele>474.0</ele>
        <time>2018-09-15T18:54:46Z</time>
      </trkpt>
      <trkpt lat="-24.6128250" lon="-53.7516990">
        <ele>474.1</ele>
        <time>2018-09-15T18:54:47Z</time>
      </trkpt>
      <trkpt lat="-24.6128300" lon="-53.7517130">
        <ele>474.1</ele>
        <time>2018-09-15T18:54:48Z</time>
      </trkpt>
      <trkpt lat="-24.6128340" lon="-53.7517290">
        <ele>474.2</ele>
        <time>2018-09-15T18:54:49Z</time>
      </trkpt>
      <trkpt lat="-24.6128390" lon="-53.7517440">
        <ele>474.3</ele>
        <time>2018-09-15T18:54:50Z</time>
      </trkpt>
      <trkpt lat="-24.6128450" lon="-53.7517590">
        <ele>474.3</ele>
        <time>2018-09-15T18:54:51Z</time>
      </trkpt>
      <trkpt lat="-24.6128500" lon="-53.7517730">
        <ele>474.4</ele>
        <time>2018-09-15T18:54:52Z</time>
      </trkpt>
      <trkpt lat="-24.6128530" lon="-53.7517890">
        <ele>474.5</ele>
        <time>2018-09-15T18:54:53Z</time>
      </trkpt>
      <trkpt lat="-24.6128570" lon="-53.7518050">
        <ele>474.6</ele>
        <time>2018-09-15T18:54:54Z</time>
      </trkpt>
      <trkpt lat="-24.6128650" lon="-53.7518370">
        <ele>474.8</ele>
        <time>2018-09-15T18:54:55Z</time>
      </trkpt>
      <trkpt lat="-24.6128690" lon="-53.7518540">
        <ele>474.9</ele>
        <time>2018-09-15T18:54:56Z</time>
      </trkpt>
      <trkpt lat="-24.6128730" lon="-53.7518720">
        <ele>474.9</ele>
        <time>2018-09-15T18:54:57Z</time>
      </trkpt>
      <trkpt lat="-24.6128750" lon="-53.7518910">
        <ele>475.0</ele>
        <time>2018-09-15T18:54:58Z</time>
      </trkpt>
      <trkpt lat="-24.6128800" lon="-53.7519090">
        <ele>475.1</ele>
        <time>2018-09-15T18:54:59Z</time>
      </trkpt>
      <trkpt lat="-24.6128840" lon="-53.7519290">
        <ele>475.2</ele>
        <time>2018-09-15T18:55:00Z</time>
      </trkpt>
      <trkpt lat="-24.6128880" lon="-53.7519470">
        <ele>475.3</ele>
        <time>2018-09-15T18:55:01Z</time>
      </trkpt>
      <trkpt lat="-24.6128940" lon="-53.7519670">
        <ele>475.4</ele>
        <time>2018-09-15T18:55:02Z</time>
      </trkpt>
      <trkpt lat="-24.6128990" lon="-53.7519850">
        <ele>475.4</ele>
        <time>2018-09-15T18:55:03Z</time>
      </trkpt>
      <trkpt lat="-24.6129030" lon="-53.7520020">
        <ele>475.5</ele>
        <time>2018-09-15T18:55:04Z</time>
      </trkpt>
      <trkpt lat="-24.6129080" lon="-53.7520180">
        <ele>475.6</ele>
        <time>2018-09-15T18:55:05Z</time>
      </trkpt>
      <trkpt lat="-24.6129110" lon="-53.7520370">
        <ele>475.7</ele>
        <time>2018-09-15T18:55:06Z</time>
      </trkpt>
      <trkpt lat="-24.6129150" lon="-53.7520540">
        <ele>475.8</ele>
        <time>2018-09-15T18:55:07Z</time>
      </trkpt>
      <trkpt lat="-24.6129190" lon="-53.7520730">
        <ele>475.8</ele>
        <time>2018-09-15T18:55:08Z</time>
      </trkpt>
      <trkpt lat="-24.6129220" lon="-53.7520920">
        <ele>475.9</ele>
        <time>2018-09-15T18:55:09Z</time>
      </trkpt>
      <trkpt lat="-24.6129320" lon="-53.7521260">
        <ele>476.1</ele>
        <time>2018-09-15T18:55:11Z</time>
      </trkpt>
      <trkpt lat="-24.6129360" lon="-53.7521450">
        <ele>476.2</ele>
        <time>2018-09-15T18:55:12Z</time>
      </trkpt>
      <trkpt lat="-24.6129410" lon="-53.7521610">
        <ele>476.4</ele>
        <time>2018-09-15T18:55:13Z</time>
      </trkpt>
      <trkpt lat="-24.6129450" lon="-53.7521780">
        <ele>476.5</ele>
        <time>2018-09-15T18:55:14Z</time>
      </trkpt>
      <trkpt lat="-24.6129480" lon="-53.7521950">
        <ele>476.6</ele>
        <time>2018-09-15T18:55:15Z</time>
      </trkpt>
      <trkpt lat="-24.6129520" lon="-53.7522110">
        <ele>476.7</ele>
        <time>2018-09-15T18:55:16Z</time>
      </trkpt>
      <trkpt lat="-24.6129560" lon="-53.7522260">
        <ele>476.8</ele>
        <time>2018-09-15T18:55:17Z</time>
      </trkpt>
      <trkpt lat="-24.6129610" lon="-53.7522410">
        <ele>476.9</ele>
        <time>2018-09-15T18:55:18Z</time>
      </trkpt>
      <trkpt lat="-24.6129650" lon="-53.7522560">
        <ele>477.0</ele>
        <time>2018-09-15T18:55:19Z</time>
      </trkpt>
      <trkpt lat="-24.6129680" lon="-53.7522720">
        <ele>477.1</ele>
        <time>2018-09-15T18:55:20Z</time>
      </trkpt>
      <trkpt lat="-24.6129720" lon="-53.7522870">
        <ele>477.2</ele>
        <time>2018-09-15T18:55:21Z</time>
      </trkpt>
      <trkpt lat="-24.6129750" lon="-53.7523020">
        <ele>477.3</ele>
        <time>2018-09-15T18:55:22Z</time>
      </trkpt>
      <trkpt lat="-24.6129800" lon="-53.7523150">
        <ele>477.4</ele>
        <time>2018-09-15T18:55:23Z</time>
      </trkpt>
      <trkpt lat="-24.6129850" lon="-53.7523300">
        <ele>477.5</ele>
        <time>2018-09-15T18:55:24Z</time>
      </trkpt>
      <trkpt lat="-24.6129910" lon="-53.7523450">
        <ele>477.6</ele>
        <time>2018-09-15T18:55:25Z</time>
      </trkpt>
      <trkpt lat="-24.6129960" lon="-53.7523590">
        <ele>477.7</ele>
        <time>2018-09-15T18:55:26Z</time>
      </trkpt>
      <trkpt lat="-24.6130010" lon="-53.7523740">
        <ele>477.8</ele>
        <time>2018-09-15T18:55:27Z</time>
      </trkpt>
      <trkpt lat="-24.6130060" lon="-53.7523880">
        <ele>477.9</ele>
        <time>2018-09-15T18:55:28Z</time>
      </trkpt>
      <trkpt lat="-24.6130100" lon="-53.7524030">
        <ele>478.0</ele>
        <time>2018-09-15T18:55:29Z</time>
      </trkpt>
      <trkpt lat="-24.6130150" lon="-53.7524170">
        <ele>478.1</ele>
        <time>2018-09-15T18:55:30Z</time>
      </trkpt>
      <trkpt lat="-24.6130210" lon="-53.7524310">
        <ele>478.2</ele>
        <time>2018-09-15T18:55:31Z</time>
      </trkpt>
      <trkpt lat="-24.6130270" lon="-53.7524450">
        <ele>478.3</ele>
        <time>2018-09-15T18:55:32Z</time>
      </trkpt>
      <trkpt lat="-24.6130330" lon="-53.7524590">
        <ele>478.4</ele>
        <time>2018-09-15T18:55:33Z</time>
      </trkpt>
      <trkpt lat="-24.6130380" lon="-53.7524740">
        <ele>478.5</ele>
        <time>2018-09-15T18:55:34Z</time>
      </trkpt>
      <trkpt lat="-24.6130430" lon="-53.7524900">
        <ele>478.6</ele>
        <time>2018-09-15T18:55:35Z</time>
      </trkpt>
      <trkpt lat="-24.6130480" lon="-53.7525060">
        <ele>478.7</ele>
        <time>2018-09-15T18:55:36Z</time>
      </trkpt>
      <trkpt lat="-24.6130520" lon="-53.7525230">
        <ele>478.9</ele>
        <time>2018-09-15T18:55:37Z</time>
      </trkpt>
      <trkpt lat="-24.6130520" lon="-53.7525230">
        <ele>478.9</ele>
        <time>2018-09-15T18:55:38Z</time>
      </trkpt>
      <trkpt lat="-24.6130580" lon="-53.7525410">
        <ele>479.0</ele>
        <time>2018-09-15T18:55:39Z</time>
      </trkpt>
      <trkpt lat="-24.6130650" lon="-53.7525580">
        <ele>479.1</ele>
        <time>2018-09-15T18:55:40Z</time>
      </trkpt>
      <trkpt lat="-24.6130720" lon="-53.7525750">
        <ele>479.2</ele>
        <time>2018-09-15T18:55:41Z</time>
      </trkpt>
      <trkpt lat="-24.6130790" lon="-53.7525920">
        <ele>479.3</ele>
        <time>2018-09-15T18:55:42Z</time>
      </trkpt>
      <trkpt lat="-24.6130870" lon="-53.7526100">
        <ele>479.4</ele>
        <time>2018-09-15T18:55:43Z</time>
      </trkpt>
      <trkpt lat="-24.6130950" lon="-53.7526270">
        <ele>479.4</ele>
        <time>2018-09-15T18:55:44Z</time>
      </trkpt>
      <trkpt lat="-24.6131020" lon="-53.7526450">
        <ele>479.5</ele>
        <time>2018-09-15T18:55:45Z</time>
      </trkpt>
      <trkpt lat="-24.6131090" lon="-53.7526620">
        <ele>479.6</ele>
        <time>2018-09-15T18:55:46Z</time>
      </trkpt>
      <trkpt lat="-24.6131180" lon="-53.7526780">
        <ele>479.7</ele>
        <time>2018-09-15T18:55:47Z</time>
      </trkpt>
      <trkpt lat="-24.6131270" lon="-53.7526930">
        <ele>479.8</ele>
        <time>2018-09-15T18:55:48Z</time>
      </trkpt>
      <trkpt lat="-24.6131350" lon="-53.7527100">
        <ele>479.9</ele>
        <time>2018-09-15T18:55:49Z</time>
      </trkpt>
      <trkpt lat="-24.6131420" lon="-53.7527280">
        <ele>480.1</ele>
        <time>2018-09-15T18:55:50Z</time>
      </trkpt>
      <trkpt lat="-24.6131500" lon="-53.7527450">
        <ele>480.2</ele>
        <time>2018-09-15T18:55:51Z</time>
      </trkpt>
      <trkpt lat="-24.6131580" lon="-53.7527630">
        <ele>480.3</ele>
        <time>2018-09-15T18:55:52Z</time>
      </trkpt>
      <trkpt lat="-24.6131660" lon="-53.7527800">
        <ele>480.4</ele>
        <time>2018-09-15T18:55:53Z</time>
      </trkpt>
      <trkpt lat="-24.6131740" lon="-53.7527970">
        <ele>480.5</ele>
        <time>2018-09-15T18:55:54Z</time>
      </trkpt>
      <trkpt lat="-24.6131820" lon="-53.7528150">
        <ele>480.7</ele>
        <time>2018-09-15T18:55:55Z</time>
      </trkpt>
      <trkpt lat="-24.6131880" lon="-53.7528330">
        <ele>480.8</ele>
        <time>2018-09-15T18:55:56Z</time>
      </trkpt>
      <trkpt lat="-24.6131950" lon="-53.7528510">
        <ele>480.8</ele>
        <time>2018-09-15T18:55:57Z</time>
      </trkpt>
      <trkpt lat="-24.6132030" lon="-53.7528690">
        <ele>480.9</ele>
        <time>2018-09-15T18:55:58Z</time>
      </trkpt>
      <trkpt lat="-24.6132120" lon="-53.7528860">
        <ele>481.0</ele>
        <time>2018-09-15T18:55:59Z</time>
      </trkpt>
      <trkpt lat="-24.6132180" lon="-53.7529040">
        <ele>481.1</ele>
        <time>2018-09-15T18:56:00Z</time>
      </trkpt>
      <trkpt lat="-24.6132250" lon="-53.7529230">
        <ele>481.2</ele>
        <time>2018-09-15T18:56:01Z</time>
      </trkpt>
      <trkpt lat="-24.6132320" lon="-53.7529420">
        <ele>481.3</ele>
        <time>2018-09-15T18:56:02Z</time>
      </trkpt>
      <trkpt lat="-24.6132410" lon="-53.7529600">
        <ele>481.3</ele>
        <time>2018-09-15T18:56:03Z</time>
      </trkpt>
      <trkpt lat="-24.6132500" lon="-53.7529780">
        <ele>481.4</ele>
        <time>2018-09-15T18:56:04Z</time>
      </trkpt>
      <trkpt lat="-24.6132570" lon="-53.7529950">
        <ele>481.5</ele>
        <time>2018-09-15T18:56:05Z</time>
      </trkpt>
      <trkpt lat="-24.6132650" lon="-53.7530120">
        <ele>481.6</ele>
        <time>2018-09-15T18:56:06Z</time>
      </trkpt>
      <trkpt lat="-24.6132740" lon="-53.7530270">
        <ele>481.7</ele>
        <time>2018-09-15T18:56:07Z</time>
      </trkpt>
      <trkpt lat="-24.6132820" lon="-53.7530440">
        <ele>481.9</ele>
        <time>2018-09-15T18:56:08Z</time>
      </trkpt>
      <trkpt lat="-24.6132900" lon="-53.7530600">
        <ele>482.0</ele>
        <time>2018-09-15T18:56:09Z</time>
      </trkpt>
      <trkpt lat="-24.6132980" lon="-53.7530780">
        <ele>482.1</ele>
        <time>2018-09-15T18:56:10Z</time>
      </trkpt>
      <trkpt lat="-24.6133040" lon="-53.7530950">
        <ele>482.3</ele>
        <time>2018-09-15T18:56:11Z</time>
      </trkpt>
      <trkpt lat="-24.6133090" lon="-53.7531140">
        <ele>482.4</ele>
        <time>2018-09-15T18:56:12Z</time>
      </trkpt>
      <trkpt lat="-24.6133150" lon="-53.7531320">
        <ele>482.5</ele>
        <time>2018-09-15T18:56:13Z</time>
      </trkpt>
      <trkpt lat="-24.6133240" lon="-53.7531490">
        <ele>482.6</ele>
        <time>2018-09-15T18:56:14Z</time>
      </trkpt>
      <trkpt lat="-24.6133320" lon="-53.7531660">
        <ele>482.6</ele>
        <time>2018-09-15T18:56:15Z</time>
      </trkpt>
      <trkpt lat="-24.6133390" lon="-53.7531830">
        <ele>482.7</ele>
        <time>2018-09-15T18:56:16Z</time>
      </trkpt>
      <trkpt lat="-24.6133440" lon="-53.7531990">
        <ele>482.8</ele>
        <time>2018-09-15T18:56:17Z</time>
      </trkpt>
      <trkpt lat="-24.6133510" lon="-53.7532140">
        <ele>482.8</ele>
        <time>2018-09-15T18:56:18Z</time>
      </trkpt>
      <trkpt lat="-24.6133580" lon="-53.7532290">
        <ele>482.9</ele>
        <time>2018-09-15T18:56:19Z</time>
      </trkpt>
      <trkpt lat="-24.6133660" lon="-53.7532450">
        <ele>483.0</ele>
        <time>2018-09-15T18:56:20Z</time>
      </trkpt>
      <trkpt lat="-24.6133740" lon="-53.7532610">
        <ele>483.0</ele>
        <time>2018-09-15T18:56:21Z</time>
      </trkpt>
      <trkpt lat="-24.6133810" lon="-53.7532750">
        <ele>483.1</ele>
        <time>2018-09-15T18:56:22Z</time>
      </trkpt>
      <trkpt lat="-24.6133890" lon="-53.7532910">
        <ele>483.2</ele>
        <time>2018-09-15T18:56:23Z</time>
      </trkpt>
      <trkpt lat="-24.6133980" lon="-53.7533060">
        <ele>483.2</ele>
        <time>2018-09-15T18:56:24Z</time>
      </trkpt>
      <trkpt lat="-24.6134080" lon="-53.7533180">
        <ele>483.3</ele>
        <time>2018-09-15T18:56:25Z</time>
      </trkpt>
      <trkpt lat="-24.6134190" lon="-53.7533310">
        <ele>483.4</ele>
        <time>2018-09-15T18:56:26Z</time>
      </trkpt>
      <trkpt lat="-24.6134270" lon="-53.7533460">
        <ele>483.5</ele>
        <time>2018-09-15T18:56:27Z</time>
      </trkpt>
      <trkpt lat="-24.6134340" lon="-53.7533630">
        <ele>483.6</ele>
        <time>2018-09-15T18:56:28Z</time>
      </trkpt>
      <trkpt lat="-24.6134420" lon="-53.7533810">
        <ele>483.7</ele>
        <time>2018-09-15T18:56:29Z</time>
      </trkpt>
      <trkpt lat="-24.6134520" lon="-53.7533970">
        <ele>483.8</ele>
        <time>2018-09-15T18:56:30Z</time>
      </trkpt>
      <trkpt lat="-24.6134590" lon="-53.7534140">
        <ele>483.9</ele>
        <time>2018-09-15T18:56:31Z</time>
      </trkpt>
      <trkpt lat="-24.6134680" lon="-53.7534310">
        <ele>484.0</ele>
        <time>2018-09-15T18:56:32Z</time>
      </trkpt>
      <trkpt lat="-24.6134780" lon="-53.7534490">
        <ele>484.1</ele>
        <time>2018-09-15T18:56:33Z</time>
      </trkpt>
      <trkpt lat="-24.6134870" lon="-53.7534650">
        <ele>484.2</ele>
        <time>2018-09-15T18:56:34Z</time>
      </trkpt>
      <trkpt lat="-24.6134960" lon="-53.7534800">
        <ele>484.3</ele>
        <time>2018-09-15T18:56:35Z</time>
      </trkpt>
      <trkpt lat="-24.6135050" lon="-53.7534960">
        <ele>484.4</ele>
        <time>2018-09-15T18:56:36Z</time>
      </trkpt>
      <trkpt lat="-24.6135120" lon="-53.7535110">
        <ele>484.4</ele>
        <time>2018-09-15T18:56:37Z</time>
      </trkpt>
      <trkpt lat="-24.6135200" lon="-53.7535270">
        <ele>484.5</ele>
        <time>2018-09-15T18:56:38Z</time>
      </trkpt>
      <trkpt lat="-24.6135270" lon="-53.7535430">
        <ele>484.5</ele>
        <time>2018-09-15T18:56:39Z</time>
      </trkpt>
      <trkpt lat="-24.6135350" lon="-53.7535590">
        <ele>484.6</ele>
        <time>2018-09-15T18:56:40Z</time>
      </trkpt>
      <trkpt lat="-24.6135430" lon="-53.7535760">
        <ele>484.7</ele>
        <time>2018-09-15T18:56:41Z</time>
      </trkpt>
      <trkpt lat="-24.6135510" lon="-53.7535920">
        <ele>484.8</ele>
        <time>2018-09-15T18:56:42Z</time>
      </trkpt>
      <trkpt lat="-24.6135560" lon="-53.7536100">
        <ele>484.8</ele>
        <time>2018-09-15T18:56:43Z</time>
      </trkpt>
      <trkpt lat="-24.6135610" lon="-53.7536290">
        <ele>484.9</ele>
        <time>2018-09-15T18:56:44Z</time>
      </trkpt>
      <trkpt lat="-24.6135660" lon="-53.7536460">
        <ele>485.0</ele>
        <time>2018-09-15T18:56:45Z</time>
      </trkpt>
      <trkpt lat="-24.6135710" lon="-53.7536620">
        <ele>485.1</ele>
        <time>2018-09-15T18:56:46Z</time>
      </trkpt>
      <trkpt lat="-24.6135760" lon="-53.7536790">
        <ele>485.1</ele>
        <time>2018-09-15T18:56:47Z</time>
      </trkpt>
      <trkpt lat="-24.6135830" lon="-53.7536960">
        <ele>485.2</ele>
        <time>2018-09-15T18:56:48Z</time>
      </trkpt>
      <trkpt lat="-24.6135900" lon="-53.7537140">
        <ele>485.3</ele>
        <time>2018-09-15T18:56:49Z</time>
      </trkpt>
      <trkpt lat="-24.6135970" lon="-53.7537310">
        <ele>485.4</ele>
        <time>2018-09-15T18:56:50Z</time>
      </trkpt>
      <trkpt lat="-24.6136010" lon="-53.7537500">
        <ele>485.4</ele>
        <time>2018-09-15T18:56:51Z</time>
      </trkpt>
      <trkpt lat="-24.6136060" lon="-53.7537690">
        <ele>485.5</ele>
        <time>2018-09-15T18:56:52Z</time>
      </trkpt>
      <trkpt lat="-24.6136100" lon="-53.7537890">
        <ele>485.6</ele>
        <time>2018-09-15T18:56:53Z</time>
      </trkpt>
      <trkpt lat="-24.6136140" lon="-53.7538080">
        <ele>485.7</ele>
        <time>2018-09-15T18:56:54Z</time>
      </trkpt>
      <trkpt lat="-24.6136190" lon="-53.7538270">
        <ele>485.8</ele>
        <time>2018-09-15T18:56:55Z</time>
      </trkpt>
      <trkpt lat="-24.6136240" lon="-53.7538470">
        <ele>486.0</ele>
        <time>2018-09-15T18:56:56Z</time>
      </trkpt>
      <trkpt lat="-24.6136290" lon="-53.7538670">
        <ele>486.1</ele>
        <time>2018-09-15T18:56:57Z</time>
      </trkpt>
      <trkpt lat="-24.6136320" lon="-53.7538880">
        <ele>486.2</ele>
        <time>2018-09-15T18:56:58Z</time>
      </trkpt>
      <trkpt lat="-24.6136350" lon="-53.7539100">
        <ele>486.2</ele>
        <time>2018-09-15T18:56:59Z</time>
      </trkpt>
      <trkpt lat="-24.6136370" lon="-53.7539310">
        <ele>486.3</ele>
        <time>2018-09-15T18:57:00Z</time>
      </trkpt>
      <trkpt lat="-24.6136390" lon="-53.7539520">
        <ele>486.4</ele>
        <time>2018-09-15T18:57:01Z</time>
      </trkpt>
      <trkpt lat="-24.6136410" lon="-53.7539730">
        <ele>486.5</ele>
        <time>2018-09-15T18:57:02Z</time>
      </trkpt>
      <trkpt lat="-24.6136410" lon="-53.7539950">
        <ele>486.5</ele>
        <time>2018-09-15T18:57:03Z</time>
      </trkpt>
      <trkpt lat="-24.6136410" lon="-53.7540150">
        <ele>486.7</ele>
        <time>2018-09-15T18:57:04Z</time>
      </trkpt>
      <trkpt lat="-24.6136400" lon="-53.7540340">
        <ele>486.8</ele>
        <time>2018-09-15T18:57:05Z</time>
      </trkpt>
      <trkpt lat="-24.6136380" lon="-53.7540550">
        <ele>486.9</ele>
        <time>2018-09-15T18:57:06Z</time>
      </trkpt>
      <trkpt lat="-24.6136380" lon="-53.7540750">
        <ele>486.9</ele>
        <time>2018-09-15T18:57:07Z</time>
      </trkpt>
      <trkpt lat="-24.6136360" lon="-53.7540950">
        <ele>487.0</ele>
        <time>2018-09-15T18:57:08Z</time>
      </trkpt>
      <trkpt lat="-24.6136330" lon="-53.7541160">
        <ele>487.0</ele>
        <time>2018-09-15T18:57:09Z</time>
      </trkpt>
      <trkpt lat="-24.6136320" lon="-53.7541380">
        <ele>487.1</ele>
        <time>2018-09-15T18:57:10Z</time>
      </trkpt>
      <trkpt lat="-24.6136310" lon="-53.7541620">
        <ele>487.1</ele>
        <time>2018-09-15T18:57:11Z</time>
      </trkpt>
      <trkpt lat="-24.6136300" lon="-53.7541890">
        <ele>487.2</ele>
        <time>2018-09-15T18:57:12Z</time>
      </trkpt>
      <trkpt lat="-24.6136280" lon="-53.7542170">
        <ele>487.3</ele>
        <time>2018-09-15T18:57:13Z</time>
      </trkpt>
      <trkpt lat="-24.6136260" lon="-53.7542450">
        <ele>487.3</ele>
        <time>2018-09-15T18:57:14Z</time>
      </trkpt>
      <trkpt lat="-24.6136230" lon="-53.7542740">
        <ele>487.4</ele>
        <time>2018-09-15T18:57:15Z</time>
      </trkpt>
      <trkpt lat="-24.6136220" lon="-53.7543030">
        <ele>487.5</ele>
        <time>2018-09-15T18:57:16Z</time>
      </trkpt>
      <trkpt lat="-24.6136190" lon="-53.7543320">
        <ele>487.6</ele>
        <time>2018-09-15T18:57:17Z</time>
      </trkpt>
      <trkpt lat="-24.6136170" lon="-53.7543600">
        <ele>487.6</ele>
        <time>2018-09-15T18:57:18Z</time>
      </trkpt>
      <trkpt lat="-24.6136160" lon="-53.7543880">
        <ele>487.7</ele>
        <time>2018-09-15T18:57:19Z</time>
      </trkpt>
      <trkpt lat="-24.6136150" lon="-53.7544150">
        <ele>487.8</ele>
        <time>2018-09-15T18:57:20Z</time>
      </trkpt>
      <trkpt lat="-24.6136140" lon="-53.7544420">
        <ele>487.8</ele>
        <time>2018-09-15T18:57:21Z</time>
      </trkpt>
      <trkpt lat="-24.6136120" lon="-53.7544690">
        <ele>487.9</ele>
        <time>2018-09-15T18:57:22Z</time>
      </trkpt>
      <trkpt lat="-24.6136110" lon="-53.7544950">
        <ele>487.9</ele>
        <time>2018-09-15T18:57:23Z</time>
      </trkpt>
      <trkpt lat="-24.6136100" lon="-53.7545220">
        <ele>488.0</ele>
        <time>2018-09-15T18:57:24Z</time>
      </trkpt>
      <trkpt lat="-24.6136090" lon="-53.7545500">
        <ele>488.1</ele>
        <time>2018-09-15T18:57:25Z</time>
      </trkpt>
      <trkpt lat="-24.6136070" lon="-53.7545770">
        <ele>488.1</ele>
        <time>2018-09-15T18:57:26Z</time>
      </trkpt>
      <trkpt lat="-24.6136060" lon="-53.7546040">
        <ele>488.3</ele>
        <time>2018-09-15T18:57:27Z</time>
      </trkpt>
      <trkpt lat="-24.6136050" lon="-53.7546310">
        <ele>488.4</ele>
        <time>2018-09-15T18:57:28Z</time>
      </trkpt>
      <trkpt lat="-24.6136040" lon="-53.7546590">
        <ele>488.5</ele>
        <time>2018-09-15T18:57:29Z</time>
      </trkpt>
      <trkpt lat="-24.6136040" lon="-53.7546860">
        <ele>488.5</ele>
        <time>2018-09-15T18:57:30Z</time>
      </trkpt>
      <trkpt lat="-24.6136040" lon="-53.7547130">
        <ele>488.6</ele>
        <time>2018-09-15T18:57:31Z</time>
      </trkpt>
      <trkpt lat="-24.6136050" lon="-53.7547410">
        <ele>488.6</ele>
        <time>2018-09-15T18:57:32Z</time>
      </trkpt>
      <trkpt lat="-24.6136050" lon="-53.7547690">
        <ele>488.7</ele>
        <time>2018-09-15T18:57:33Z</time>
      </trkpt>
      <trkpt lat="-24.6136040" lon="-53.7547960">
        <ele>488.8</ele>
        <time>2018-09-15T18:57:34Z</time>
      </trkpt>
      <trkpt lat="-24.6136040" lon="-53.7548240">
        <ele>488.8</ele>
        <time>2018-09-15T18:57:35Z</time>
      </trkpt>
      <trkpt lat="-24.6136030" lon="-53.7548510">
        <ele>488.9</ele>
        <time>2018-09-15T18:57:36Z</time>
      </trkpt>
      <trkpt lat="-24.6136020" lon="-53.7548790">
        <ele>489.0</ele>
        <time>2018-09-15T18:57:37Z</time>
      </trkpt>
      <trkpt lat="-24.6136020" lon="-53.7549060">
        <ele>489.0</ele>
        <time>2018-09-15T18:57:38Z</time>
      </trkpt>
      <trkpt lat="-24.6136020" lon="-53.7549330">
        <ele>489.1</ele>
        <time>2018-09-15T18:57:39Z</time>
      </trkpt>
      <trkpt lat="-24.6136000" lon="-53.7549590">
        <ele>489.1</ele>
        <time>2018-09-15T18:57:40Z</time>
      </trkpt>
      <trkpt lat="-24.6135990" lon="-53.7549870">
        <ele>489.2</ele>
        <time>2018-09-15T18:57:41Z</time>
      </trkpt>
      <trkpt lat="-24.6135990" lon="-53.7550140">
        <ele>489.3</ele>
        <time>2018-09-15T18:57:42Z</time>
      </trkpt>
      <trkpt lat="-24.6135990" lon="-53.7550410">
        <ele>489.3</ele>
        <time>2018-09-15T18:57:43Z</time>
      </trkpt>
      <trkpt lat="-24.6135970" lon="-53.7550680">
        <ele>489.4</ele>
        <time>2018-09-15T18:57:44Z</time>
      </trkpt>
      <trkpt lat="-24.6135950" lon="-53.7550950">
        <ele>489.4</ele>
        <time>2018-09-15T18:57:45Z</time>
      </trkpt>
      <trkpt lat="-24.6135930" lon="-53.7551220">
        <ele>489.5</ele>
        <time>2018-09-15T18:57:46Z</time>
      </trkpt>
      <trkpt lat="-24.6135930" lon="-53.7551510">
        <ele>489.5</ele>
        <time>2018-09-15T18:57:47Z</time>
      </trkpt>
      <trkpt lat="-24.6135920" lon="-53.7551800">
        <ele>489.6</ele>
        <time>2018-09-15T18:57:48Z</time>
      </trkpt>
      <trkpt lat="-24.6135920" lon="-53.7552090">
        <ele>489.6</ele>
        <time>2018-09-15T18:57:49Z</time>
      </trkpt>
      <trkpt lat="-24.6135930" lon="-53.7552380">
        <ele>489.7</ele>
        <time>2018-09-15T18:57:50Z</time>
      </trkpt>
      <trkpt lat="-24.6135920" lon="-53.7552680">
        <ele>489.7</ele>
        <time>2018-09-15T18:57:51Z</time>
      </trkpt>
      <trkpt lat="-24.6135920" lon="-53.7552960">
        <ele>489.8</ele>
        <time>2018-09-15T18:57:52Z</time>
      </trkpt>
      <trkpt lat="-24.6135920" lon="-53.7553240">
        <ele>489.8</ele>
        <time>2018-09-15T18:57:53Z</time>
      </trkpt>
      <trkpt lat="-24.6135920" lon="-53.7553510">
        <ele>489.8</ele>
        <time>2018-09-15T18:57:54Z</time>
      </trkpt>
      <trkpt lat="-24.6135920" lon="-53.7553770">
        <ele>489.9</ele>
        <time>2018-09-15T18:57:55Z</time>
      </trkpt>
      <trkpt lat="-24.6135920" lon="-53.7554020">
        <ele>489.9</ele>
        <time>2018-09-15T18:57:56Z</time>
      </trkpt>
      <trkpt lat="-24.6135920" lon="-53.7554260">
        <ele>489.9</ele>
        <time>2018-09-15T18:57:57Z</time>
      </trkpt>
      <trkpt lat="-24.6135920" lon="-53.7554510">
        <ele>490.0</ele>
        <time>2018-09-15T18:57:58Z</time>
      </trkpt>
      <trkpt lat="-24.6135950" lon="-53.7554750">
        <ele>490.0</ele>
        <time>2018-09-15T18:57:59Z</time>
      </trkpt>
      <trkpt lat="-24.6135980" lon="-53.7555000">
        <ele>490.1</ele>
        <time>2018-09-15T18:58:00Z</time>
      </trkpt>
      <trkpt lat="-24.6135990" lon="-53.7555280">
        <ele>490.1</ele>
        <time>2018-09-15T18:58:01Z</time>
      </trkpt>
      <trkpt lat="-24.6135980" lon="-53.7555560">
        <ele>490.1</ele>
        <time>2018-09-15T18:58:02Z</time>
      </trkpt>
      <trkpt lat="-24.6135950" lon="-53.7555840">
        <ele>490.2</ele>
        <time>2018-09-15T18:58:03Z</time>
      </trkpt>
      <trkpt lat="-24.6135920" lon="-53.7556140">
        <ele>490.2</ele>
        <time>2018-09-15T18:58:04Z</time>
      </trkpt>
      <trkpt lat="-24.6135880" lon="-53.7556440">
        <ele>490.3</ele>
        <time>2018-09-15T18:58:05Z</time>
      </trkpt>
      <trkpt lat="-24.6135840" lon="-53.7556740">
        <ele>490.3</ele>
        <time>2018-09-15T18:58:06Z</time>
      </trkpt>
      <trkpt lat="-24.6135830" lon="-53.7557030">
        <ele>490.4</ele>
        <time>2018-09-15T18:58:07Z</time>
      </trkpt>
      <trkpt lat="-24.6135830" lon="-53.7557320">
        <ele>490.4</ele>
        <time>2018-09-15T18:58:08Z</time>
      </trkpt>
      <trkpt lat="-24.6135830" lon="-53.7557590">
        <ele>490.5</ele>
        <time>2018-09-15T18:58:09Z</time>
      </trkpt>
      <trkpt lat="-24.6135820" lon="-53.7557880">
        <ele>490.5</ele>
        <time>2018-09-15T18:58:10Z</time>
      </trkpt>
      <trkpt lat="-24.6135810" lon="-53.7558160">
        <ele>490.5</ele>
        <time>2018-09-15T18:58:11Z</time>
      </trkpt>
      <trkpt lat="-24.6135800" lon="-53.7558440">
        <ele>490.6</ele>
        <time>2018-09-15T18:58:12Z</time>
      </trkpt>
      <trkpt lat="-24.6135800" lon="-53.7558710">
        <ele>490.6</ele>
        <time>2018-09-15T18:58:13Z</time>
      </trkpt>
      <trkpt lat="-24.6135800" lon="-53.7558980">
        <ele>490.7</ele>
        <time>2018-09-15T18:58:14Z</time>
      </trkpt>
      <trkpt lat="-24.6135820" lon="-53.7559250">
        <ele>490.7</ele>
        <time>2018-09-15T18:58:15Z</time>
      </trkpt>
      <trkpt lat="-24.6135820" lon="-53.7559530">
        <ele>490.8</ele>
        <time>2018-09-15T18:58:16Z</time>
      </trkpt>
      <trkpt lat="-24.6135820" lon="-53.7559820">
        <ele>490.8</ele>
        <time>2018-09-15T18:58:17Z</time>
      </trkpt>
      <trkpt lat="-24.6135820" lon="-53.7560100">
        <ele>490.9</ele>
        <time>2018-09-15T18:58:18Z</time>
      </trkpt>
      <trkpt lat="-24.6135820" lon="-53.7560400">
        <ele>490.9</ele>
        <time>2018-09-15T18:58:19Z</time>
      </trkpt>
      <trkpt lat="-24.6135820" lon="-53.7560690">
        <ele>491.1</ele>
        <time>2018-09-15T18:58:20Z</time>
      </trkpt>
      <trkpt lat="-24.6135820" lon="-53.7560970">
        <ele>491.2</ele>
        <time>2018-09-15T18:58:21Z</time>
      </trkpt>
      <trkpt lat="-24.6135820" lon="-53.7561240">
        <ele>491.2</ele>
        <time>2018-09-15T18:58:22Z</time>
      </trkpt>
      <trkpt lat="-24.6135820" lon="-53.7561510">
        <ele>491.3</ele>
        <time>2018-09-15T18:58:23Z</time>
      </trkpt>
      <trkpt lat="-24.6135830" lon="-53.7561790">
        <ele>491.3</ele>
        <time>2018-09-15T18:58:24Z</time>
      </trkpt>
      <trkpt lat="-24.6135840" lon="-53.7562060">
        <ele>491.4</ele>
        <time>2018-09-15T18:58:25Z</time>
      </trkpt>
      <trkpt lat="-24.6135840" lon="-53.7562330">
        <ele>491.5</ele>
        <time>2018-09-15T18:58:26Z</time>
      </trkpt>
      <trkpt lat="-24.6135840" lon="-53.7562600">
        <ele>491.5</ele>
        <time>2018-09-15T18:58:27Z</time>
      </trkpt>
      <trkpt lat="-24.6135840" lon="-53.7562870">
        <ele>491.6</ele>
        <time>2018-09-15T18:58:28Z</time>
      </trkpt>
      <trkpt lat="-24.6135830" lon="-53.7563140">
        <ele>491.7</ele>
        <time>2018-09-15T18:58:29Z</time>
      </trkpt>
      <trkpt lat="-24.6135830" lon="-53.7563410">
        <ele>491.7</ele>
        <time>2018-09-15T18:58:30Z</time>
      </trkpt>
      <trkpt lat="-24.6135840" lon="-53.7563690">
        <ele>491.8</ele>
        <time>2018-09-15T18:58:31Z</time>
      </trkpt>
      <trkpt lat="-24.6135850" lon="-53.7563970">
        <ele>491.9</ele>
        <time>2018-09-15T18:58:32Z</time>
      </trkpt>
      <trkpt lat="-24.6135870" lon="-53.7564260">
        <ele>492.0</ele>
        <time>2018-09-15T18:58:33Z</time>
      </trkpt>
      <trkpt lat="-24.6135860" lon="-53.7564530">
        <ele>492.0</ele>
        <time>2018-09-15T18:58:34Z</time>
      </trkpt>
      <trkpt lat="-24.6135850" lon="-53.7564820">
        <ele>492.1</ele>
        <time>2018-09-15T18:58:35Z</time>
      </trkpt>
      <trkpt lat="-24.6135840" lon="-53.7565100">
        <ele>492.2</ele>
        <time>2018-09-15T18:58:36Z</time>
      </trkpt>
      <trkpt lat="-24.6135850" lon="-53.7565370">
        <ele>492.3</ele>
        <time>2018-09-15T18:58:37Z</time>
      </trkpt>
      <trkpt lat="-24.6135850" lon="-53.7565630">
        <ele>492.4</ele>
        <time>2018-09-15T18:58:38Z</time>
      </trkpt>
      <trkpt lat="-24.6135860" lon="-53.7565890">
        <ele>492.6</ele>
        <time>2018-09-15T18:58:39Z</time>
      </trkpt>
      <trkpt lat="-24.6135860" lon="-53.7566140">
        <ele>492.6</ele>
        <time>2018-09-15T18:58:40Z</time>
      </trkpt>
      <trkpt lat="-24.6135870" lon="-53.7566650">
        <ele>492.8</ele>
        <time>2018-09-15T18:58:41Z</time>
      </trkpt>
      <trkpt lat="-24.6135870" lon="-53.7566910">
        <ele>492.8</ele>
        <time>2018-09-15T18:58:42Z</time>
      </trkpt>
      <trkpt lat="-24.6135870" lon="-53.7567170">
        <ele>492.9</ele>
        <time>2018-09-15T18:58:43Z</time>
      </trkpt>
      <trkpt lat="-24.6135860" lon="-53.7567430">
        <ele>493.0</ele>
        <time>2018-09-15T18:58:44Z</time>
      </trkpt>
      <trkpt lat="-24.6135860" lon="-53.7567700">
        <ele>493.1</ele>
        <time>2018-09-15T18:58:45Z</time>
      </trkpt>
      <trkpt lat="-24.6135850" lon="-53.7568230">
        <ele>493.2</ele>
        <time>2018-09-15T18:58:47Z</time>
      </trkpt>
      <trkpt lat="-24.6135850" lon="-53.7568490">
        <ele>493.3</ele>
        <time>2018-09-15T18:58:48Z</time>
      </trkpt>
      <trkpt lat="-24.6135850" lon="-53.7568750">
        <ele>493.3</ele>
        <time>2018-09-15T18:58:49Z</time>
      </trkpt>
      <trkpt lat="-24.6135850" lon="-53.7569010">
        <ele>493.4</ele>
        <time>2018-09-15T18:58:50Z</time>
      </trkpt>
      <trkpt lat="-24.6135850" lon="-53.7569270">
        <ele>493.5</ele>
        <time>2018-09-15T18:58:51Z</time>
      </trkpt>
      <trkpt lat="-24.6135840" lon="-53.7569530">
        <ele>493.6</ele>
        <time>2018-09-15T18:58:52Z</time>
      </trkpt>
      <trkpt lat="-24.6135840" lon="-53.7569790">
        <ele>493.7</ele>
        <time>2018-09-15T18:58:53Z</time>
      </trkpt>
      <trkpt lat="-24.6135850" lon="-53.7570060">
        <ele>493.8</ele>
        <time>2018-09-15T18:58:54Z</time>
      </trkpt>
      <trkpt lat="-24.6135840" lon="-53.7570330">
        <ele>493.9</ele>
        <time>2018-09-15T18:58:55Z</time>
      </trkpt>
      <trkpt lat="-24.6135840" lon="-53.7570610">
        <ele>494.1</ele>
        <time>2018-09-15T18:58:56Z</time>
      </trkpt>
      <trkpt lat="-24.6135840" lon="-53.7570880">
        <ele>494.2</ele>
        <time>2018-09-15T18:58:57Z</time>
      </trkpt>
      <trkpt lat="-24.6135830" lon="-53.7571150">
        <ele>494.2</ele>
        <time>2018-09-15T18:58:58Z</time>
      </trkpt>
      <trkpt lat="-24.6135830" lon="-53.7571420">
        <ele>494.3</ele>
        <time>2018-09-15T18:58:59Z</time>
      </trkpt>
      <trkpt lat="-24.6135840" lon="-53.7571690">
        <ele>494.4</ele>
        <time>2018-09-15T18:59:00Z</time>
      </trkpt>
      <trkpt lat="-24.6135860" lon="-53.7571970">
        <ele>494.5</ele>
        <time>2018-09-15T18:59:01Z</time>
      </trkpt>
      <trkpt lat="-24.6135850" lon="-53.7572240">
        <ele>494.6</ele>
        <time>2018-09-15T18:59:02Z</time>
      </trkpt>
      <trkpt lat="-24.6135850" lon="-53.7572520">
        <ele>494.7</ele>
        <time>2018-09-15T18:59:03Z</time>
      </trkpt>
      <trkpt lat="-24.6135840" lon="-53.7572790">
        <ele>494.7</ele>
        <time>2018-09-15T18:59:04Z</time>
      </trkpt>
      <trkpt lat="-24.6135840" lon="-53.7573040">
        <ele>494.8</ele>
        <time>2018-09-15T18:59:05Z</time>
      </trkpt>
      <trkpt lat="-24.6135850" lon="-53.7573290">
        <ele>494.9</ele>
        <time>2018-09-15T18:59:06Z</time>
      </trkpt>
      <trkpt lat="-24.6135850" lon="-53.7573530">
        <ele>495.0</ele>
        <time>2018-09-15T18:59:07Z</time>
      </trkpt>
      <trkpt lat="-24.6135840" lon="-53.7573770">
        <ele>495.1</ele>
        <time>2018-09-15T18:59:08Z</time>
      </trkpt>
      <trkpt lat="-24.6135850" lon="-53.7574000">
        <ele>495.1</ele>
        <time>2018-09-15T18:59:09Z</time>
      </trkpt>
      <trkpt lat="-24.6135860" lon="-53.7574230">
        <ele>495.2</ele>
        <time>2018-09-15T18:59:10Z</time>
      </trkpt>
      <trkpt lat="-24.6135860" lon="-53.7574470">
        <ele>495.3</ele>
        <time>2018-09-15T18:59:11Z</time>
      </trkpt>
      <trkpt lat="-24.6135860" lon="-53.7574700">
        <ele>495.3</ele>
        <time>2018-09-15T18:59:12Z</time>
      </trkpt>
      <trkpt lat="-24.6135840" lon="-53.7574930">
        <ele>495.4</ele>
        <time>2018-09-15T18:59:13Z</time>
      </trkpt>
      <trkpt lat="-24.6135840" lon="-53.7575160">
        <ele>495.5</ele>
        <time>2018-09-15T18:59:14Z</time>
      </trkpt>
      <trkpt lat="-24.6135850" lon="-53.7575400">
        <ele>495.5</ele>
        <time>2018-09-15T18:59:15Z</time>
      </trkpt>
      <trkpt lat="-24.6135840" lon="-53.7575630">
        <ele>495.6</ele>
        <time>2018-09-15T18:59:16Z</time>
      </trkpt>
      <trkpt lat="-24.6135830" lon="-53.7575870">
        <ele>495.7</ele>
        <time>2018-09-15T18:59:17Z</time>
      </trkpt>
      <trkpt lat="-24.6135830" lon="-53.7576110">
        <ele>495.8</ele>
        <time>2018-09-15T18:59:18Z</time>
      </trkpt>
      <trkpt lat="-24.6135840" lon="-53.7576350">
        <ele>495.9</ele>
        <time>2018-09-15T18:59:19Z</time>
      </trkpt>
      <trkpt lat="-24.6135850" lon="-53.7576600">
        <ele>496.1</ele>
        <time>2018-09-15T18:59:20Z</time>
      </trkpt>
      <trkpt lat="-24.6135850" lon="-53.7576600">
        <ele>496.1</ele>
        <time>2018-09-15T18:59:21Z</time>
      </trkpt>
      <trkpt lat="-24.6135850" lon="-53.7576840">
        <ele>496.2</ele>
        <time>2018-09-15T18:59:22Z</time>
      </trkpt>
      <trkpt lat="-24.6135840" lon="-53.7577090">
        <ele>496.3</ele>
        <time>2018-09-15T18:59:23Z</time>
      </trkpt>
      <trkpt lat="-24.6135830" lon="-53.7577330">
        <ele>496.3</ele>
        <time>2018-09-15T18:59:24Z</time>
      </trkpt>
      <trkpt lat="-24.6135830" lon="-53.7577570">
        <ele>496.4</ele>
        <time>2018-09-15T18:59:25Z</time>
      </trkpt>
      <trkpt lat="-24.6135840" lon="-53.7577820">
        <ele>496.5</ele>
        <time>2018-09-15T18:59:26Z</time>
      </trkpt>
      <trkpt lat="-24.6135850" lon="-53.7578070">
        <ele>496.6</ele>
        <time>2018-09-15T18:59:27Z</time>
      </trkpt>
      <trkpt lat="-24.6135840" lon="-53.7578310">
        <ele>496.6</ele>
        <time>2018-09-15T18:59:28Z</time>
      </trkpt>
      <trkpt lat="-24.6135840" lon="-53.7578530">
        <ele>496.7</ele>
        <time>2018-09-15T18:59:29Z</time>
      </trkpt>
      <trkpt lat="-24.6135840" lon="-53.7578750">
        <ele>496.8</ele>
        <time>2018-09-15T18:59:30Z</time>
      </trkpt>
      <trkpt lat="-24.6135820" lon="-53.7578990">
        <ele>496.9</ele>
        <time>2018-09-15T18:59:31Z</time>
      </trkpt>
      <trkpt lat="-24.6135810" lon="-53.7579210">
        <ele>496.9</ele>
        <time>2018-09-15T18:59:32Z</time>
      </trkpt>
      <trkpt lat="-24.6135820" lon="-53.7579440">
        <ele>497.0</ele>
        <time>2018-09-15T18:59:33Z</time>
      </trkpt>
      <trkpt lat="-24.6135850" lon="-53.7579660">
        <ele>497.1</ele>
        <time>2018-09-15T18:59:34Z</time>
      </trkpt>
      <trkpt lat="-24.6135850" lon="-53.7579890">
        <ele>497.2</ele>
        <time>2018-09-15T18:59:35Z</time>
      </trkpt>
      <trkpt lat="-24.6135850" lon="-53.7580130">
        <ele>497.2</ele>
        <time>2018-09-15T18:59:36Z</time>
      </trkpt>
      <trkpt lat="-24.6135850" lon="-53.7580370">
        <ele>497.3</ele>
        <time>2018-09-15T18:59:37Z</time>
      </trkpt>
      <trkpt lat="-24.6135840" lon="-53.7580610">
        <ele>497.4</ele>
        <time>2018-09-15T18:59:38Z</time>
      </trkpt>
      <trkpt lat="-24.6135840" lon="-53.7580850">
        <ele>497.5</ele>
        <time>2018-09-15T18:59:39Z</time>
      </trkpt>
      <trkpt lat="-24.6135840" lon="-53.7581080">
        <ele>497.6</ele>
        <time>2018-09-15T18:59:40Z</time>
      </trkpt>
      <trkpt lat="-24.6135840" lon="-53.7581320">
        <ele>497.7</ele>
        <time>2018-09-15T18:59:41Z</time>
      </trkpt>
      <trkpt lat="-24.6135840" lon="-53.7581550">
        <ele>497.7</ele>
        <time>2018-09-15T18:59:42Z</time>
      </trkpt>
      <trkpt lat="-24.6135850" lon="-53.7581780">
        <ele>497.8</ele>
        <time>2018-09-15T18:59:43Z</time>
      </trkpt>
      <trkpt lat="-24.6135850" lon="-53.7582000">
        <ele>497.9</ele>
        <time>2018-09-15T18:59:44Z</time>
      </trkpt>
      <trkpt lat="-24.6135850" lon="-53.7582230">
        <ele>497.9</ele>
        <time>2018-09-15T18:59:45Z</time>
      </trkpt>
      <trkpt lat="-24.6135860" lon="-53.7582470">
        <ele>498.0</ele>
        <time>2018-09-15T18:59:46Z</time>
      </trkpt>
      <trkpt lat="-24.6135870" lon="-53.7582720">
        <ele>498.1</ele>
        <time>2018-09-15T18:59:47Z</time>
      </trkpt>
      <trkpt lat="-24.6135860" lon="-53.7582950">
        <ele>498.1</ele>
        <time>2018-09-15T18:59:48Z</time>
      </trkpt>
      <trkpt lat="-24.6135870" lon="-53.7583180">
        <ele>498.2</ele>
        <time>2018-09-15T18:59:49Z</time>
      </trkpt>
      <trkpt lat="-24.6135880" lon="-53.7583420">
        <ele>498.3</ele>
        <time>2018-09-15T18:59:50Z</time>
      </trkpt>
      <trkpt lat="-24.6135880" lon="-53.7583650">
        <ele>498.4</ele>
        <time>2018-09-15T18:59:51Z</time>
      </trkpt>
      <trkpt lat="-24.6135880" lon="-53.7583870">
        <ele>498.4</ele>
        <time>2018-09-15T18:59:52Z</time>
      </trkpt>
      <trkpt lat="-24.6135880" lon="-53.7584090">
        <ele>498.5</ele>
        <time>2018-09-15T18:59:53Z</time>
      </trkpt>
      <trkpt lat="-24.6135870" lon="-53.7584320">
        <ele>498.6</ele>
        <time>2018-09-15T18:59:54Z</time>
      </trkpt>
      <trkpt lat="-24.6135870" lon="-53.7584550">
        <ele>498.6</ele>
        <time>2018-09-15T18:59:55Z</time>
      </trkpt>
      <trkpt lat="-24.6135870" lon="-53.7584770">
        <ele>498.7</ele>
        <time>2018-09-15T18:59:56Z</time>
      </trkpt>
      <trkpt lat="-24.6135870" lon="-53.7584980">
        <ele>498.8</ele>
        <time>2018-09-15T18:59:57Z</time>
      </trkpt>
      <trkpt lat="-24.6135870" lon="-53.7585190">
        <ele>498.9</ele>
        <time>2018-09-15T18:59:58Z</time>
      </trkpt>
      <trkpt lat="-24.6135860" lon="-53.7585410">
        <ele>499.0</ele>
        <time>2018-09-15T18:59:59Z</time>
      </trkpt>
      <trkpt lat="-24.6135860" lon="-53.7585620">
        <ele>499.0</ele>
        <time>2018-09-15T19:00:00Z</time>
      </trkpt>
      <trkpt lat="-24.6135870" lon="-53.7585830">
        <ele>499.1</ele>
        <time>2018-09-15T19:00:01Z</time>
      </trkpt>
      <trkpt lat="-24.6135860" lon="-53.7586050">
        <ele>499.2</ele>
        <time>2018-09-15T19:00:02Z</time>
      </trkpt>
      <trkpt lat="-24.6135850" lon="-53.7586260">
        <ele>499.3</ele>
        <time>2018-09-15T19:00:03Z</time>
      </trkpt>
      <trkpt lat="-24.6135850" lon="-53.7586470">
        <ele>499.4</ele>
        <time>2018-09-15T19:00:04Z</time>
      </trkpt>
      <trkpt lat="-24.6135850" lon="-53.7586700">
        <ele>499.5</ele>
        <time>2018-09-15T19:00:05Z</time>
      </trkpt>
      <trkpt lat="-24.6135860" lon="-53.7586930">
        <ele>499.6</ele>
        <time>2018-09-15T19:00:06Z</time>
      </trkpt>
      <trkpt lat="-24.6135860" lon="-53.7587160">
        <ele>499.6</ele>
        <time>2018-09-15T19:00:07Z</time>
      </trkpt>
      <trkpt lat="-24.6135870" lon="-53.7587390">
        <ele>499.7</ele>
        <time>2018-09-15T19:00:08Z</time>
      </trkpt>
      <trkpt lat="-24.6135870" lon="-53.7587610">
        <ele>499.8</ele>
        <time>2018-09-15T19:00:09Z</time>
      </trkpt>
      <trkpt lat="-24.6135880" lon="-53.7587820">
        <ele>499.9</ele>
        <time>2018-09-15T19:00:10Z</time>
      </trkpt>
      <trkpt lat="-24.6135910" lon="-53.7588040">
        <ele>499.9</ele>
        <time>2018-09-15T19:00:11Z</time>
      </trkpt>
      <trkpt lat="-24.6135910" lon="-53.7588260">
        <ele>500.0</ele>
        <time>2018-09-15T19:00:12Z</time>
      </trkpt>
      <trkpt lat="-24.6135920" lon="-53.7588460">
        <ele>500.1</ele>
        <time>2018-09-15T19:00:13Z</time>
      </trkpt>
      <trkpt lat="-24.6135930" lon="-53.7588660">
        <ele>500.1</ele>
        <time>2018-09-15T19:00:14Z</time>
      </trkpt>
      <trkpt lat="-24.6135950" lon="-53.7588860">
        <ele>500.2</ele>
        <time>2018-09-15T19:00:15Z</time>
      </trkpt>
      <trkpt lat="-24.6135960" lon="-53.7589060">
        <ele>500.3</ele>
        <time>2018-09-15T19:00:16Z</time>
      </trkpt>
      <trkpt lat="-24.6135950" lon="-53.7589270">
        <ele>500.3</ele>
        <time>2018-09-15T19:00:17Z</time>
      </trkpt>
      <trkpt lat="-24.6135960" lon="-53.7589490">
        <ele>500.4</ele>
        <time>2018-09-15T19:00:18Z</time>
      </trkpt>
      <trkpt lat="-24.6135960" lon="-53.7589710">
        <ele>500.4</ele>
        <time>2018-09-15T19:00:19Z</time>
      </trkpt>
      <trkpt lat="-24.6135990" lon="-53.7589910">
        <ele>500.5</ele>
        <time>2018-09-15T19:00:20Z</time>
      </trkpt>
      <trkpt lat="-24.6135990" lon="-53.7590130">
        <ele>500.5</ele>
        <time>2018-09-15T19:00:21Z</time>
      </trkpt>
      <trkpt lat="-24.6136000" lon="-53.7590350">
        <ele>500.6</ele>
        <time>2018-09-15T19:00:22Z</time>
      </trkpt>
      <trkpt lat="-24.6136000" lon="-53.7590580">
        <ele>500.6</ele>
        <time>2018-09-15T19:00:23Z</time>
      </trkpt>
      <trkpt lat="-24.6136010" lon="-53.7590810">
        <ele>500.7</ele>
        <time>2018-09-15T19:00:24Z</time>
      </trkpt>
      <trkpt lat="-24.6136010" lon="-53.7591030">
        <ele>500.7</ele>
        <time>2018-09-15T19:00:25Z</time>
      </trkpt>
      <trkpt lat="-24.6136000" lon="-53.7591240">
        <ele>500.8</ele>
        <time>2018-09-15T19:00:26Z</time>
      </trkpt>
      <trkpt lat="-24.6136000" lon="-53.7591460">
        <ele>500.9</ele>
        <time>2018-09-15T19:00:27Z</time>
      </trkpt>
      <trkpt lat="-24.6136010" lon="-53.7591670">
        <ele>500.9</ele>
        <time>2018-09-15T19:00:28Z</time>
      </trkpt>
      <trkpt lat="-24.6136010" lon="-53.7591880">
        <ele>501.0</ele>
        <time>2018-09-15T19:00:29Z</time>
      </trkpt>
      <trkpt lat="-24.6136010" lon="-53.7592080">
        <ele>501.1</ele>
        <time>2018-09-15T19:00:30Z</time>
      </trkpt>
      <trkpt lat="-24.6136020" lon="-53.7592280">
        <ele>501.1</ele>
        <time>2018-09-15T19:00:31Z</time>
      </trkpt>
      <trkpt lat="-24.6136030" lon="-53.7592480">
        <ele>501.2</ele>
        <time>2018-09-15T19:00:32Z</time>
      </trkpt>
      <trkpt lat="-24.6136040" lon="-53.7592690">
        <ele>501.2</ele>
        <time>2018-09-15T19:00:33Z</time>
      </trkpt>
      <trkpt lat="-24.6136020" lon="-53.7592910">
        <ele>501.3</ele>
        <time>2018-09-15T19:00:34Z</time>
      </trkpt>
      <trkpt lat="-24.6136020" lon="-53.7593100">
        <ele>501.3</ele>
        <time>2018-09-15T19:00:35Z</time>
      </trkpt>
      <trkpt lat="-24.6136020" lon="-53.7593290">
        <ele>501.3</ele>
        <time>2018-09-15T19:00:36Z</time>
      </trkpt>
      <trkpt lat="-24.6136010" lon="-53.7593490">
        <ele>501.4</ele>
        <time>2018-09-15T19:00:37Z</time>
      </trkpt>
      <trkpt lat="-24.6136020" lon="-53.7593690">
        <ele>501.4</ele>
        <time>2018-09-15T19:00:38Z</time>
      </trkpt>
      <trkpt lat="-24.6136030" lon="-53.7593890">
        <ele>501.5</ele>
        <time>2018-09-15T19:00:39Z</time>
      </trkpt>
      <trkpt lat="-24.6136030" lon="-53.7594090">
        <ele>501.5</ele>
        <time>2018-09-15T19:00:40Z</time>
      </trkpt>
      <trkpt lat="-24.6136030" lon="-53.7594300">
        <ele>501.6</ele>
        <time>2018-09-15T19:00:41Z</time>
      </trkpt>
      <trkpt lat="-24.6136050" lon="-53.7594510">
        <ele>501.7</ele>
        <time>2018-09-15T19:00:42Z</time>
      </trkpt>
      <trkpt lat="-24.6136070" lon="-53.7594720">
        <ele>501.7</ele>
        <time>2018-09-15T19:00:43Z</time>
      </trkpt>
      <trkpt lat="-24.6136070" lon="-53.7594930">
        <ele>501.8</ele>
        <time>2018-09-15T19:00:44Z</time>
      </trkpt>
      <trkpt lat="-24.6136070" lon="-53.7595150">
        <ele>501.8</ele>
        <time>2018-09-15T19:00:45Z</time>
      </trkpt>
      <trkpt lat="-24.6136080" lon="-53.7595380">
        <ele>501.9</ele>
        <time>2018-09-15T19:00:46Z</time>
      </trkpt>
      <trkpt lat="-24.6136090" lon="-53.7595590">
        <ele>501.9</ele>
        <time>2018-09-15T19:00:47Z</time>
      </trkpt>
      <trkpt lat="-24.6136100" lon="-53.7595800">
        <ele>502.0</ele>
        <time>2018-09-15T19:00:48Z</time>
      </trkpt>
      <trkpt lat="-24.6136110" lon="-53.7596010">
        <ele>502.1</ele>
        <time>2018-09-15T19:00:49Z</time>
      </trkpt>
      <trkpt lat="-24.6136110" lon="-53.7596220">
        <ele>502.2</ele>
        <time>2018-09-15T19:00:50Z</time>
      </trkpt>
      <trkpt lat="-24.6136110" lon="-53.7596420">
        <ele>502.3</ele>
        <time>2018-09-15T19:00:51Z</time>
      </trkpt>
      <trkpt lat="-24.6136110" lon="-53.7596640">
        <ele>502.3</ele>
        <time>2018-09-15T19:00:52Z</time>
      </trkpt>
      <trkpt lat="-24.6136120" lon="-53.7596860">
        <ele>502.4</ele>
        <time>2018-09-15T19:00:53Z</time>
      </trkpt>
      <trkpt lat="-24.6136120" lon="-53.7597090">
        <ele>502.5</ele>
        <time>2018-09-15T19:00:54Z</time>
      </trkpt>
      <trkpt lat="-24.6136130" lon="-53.7597330">
        <ele>502.5</ele>
        <time>2018-09-15T19:00:55Z</time>
      </trkpt>
      <trkpt lat="-24.6136140" lon="-53.7597570">
        <ele>502.6</ele>
        <time>2018-09-15T19:00:56Z</time>
      </trkpt>
      <trkpt lat="-24.6136140" lon="-53.7597810">
        <ele>502.6</ele>
        <time>2018-09-15T19:00:57Z</time>
      </trkpt>
      <trkpt lat="-24.6136140" lon="-53.7598050">
        <ele>502.7</ele>
        <time>2018-09-15T19:00:58Z</time>
      </trkpt>
      <trkpt lat="-24.6136140" lon="-53.7598290">
        <ele>502.8</ele>
        <time>2018-09-15T19:00:59Z</time>
      </trkpt>
      <trkpt lat="-24.6136150" lon="-53.7598520">
        <ele>502.8</ele>
        <time>2018-09-15T19:01:00Z</time>
      </trkpt>
      <trkpt lat="-24.6136150" lon="-53.7598750">
        <ele>502.9</ele>
        <time>2018-09-15T19:01:01Z</time>
      </trkpt>
      <trkpt lat="-24.6136140" lon="-53.7598990">
        <ele>502.9</ele>
        <time>2018-09-15T19:01:02Z</time>
      </trkpt>
      <trkpt lat="-24.6136140" lon="-53.7599220">
        <ele>503.0</ele>
        <time>2018-09-15T19:01:03Z</time>
      </trkpt>
      <trkpt lat="-24.6136140" lon="-53.7599440">
        <ele>503.0</ele>
        <time>2018-09-15T19:01:04Z</time>
      </trkpt>
      <trkpt lat="-24.6136150" lon="-53.7599660">
        <ele>503.1</ele>
        <time>2018-09-15T19:01:05Z</time>
      </trkpt>
      <trkpt lat="-24.6136150" lon="-53.7599860">
        <ele>503.1</ele>
        <time>2018-09-15T19:01:06Z</time>
      </trkpt>
      <trkpt lat="-24.6136160" lon="-53.7600070">
        <ele>503.2</ele>
        <time>2018-09-15T19:01:07Z</time>
      </trkpt>
      <trkpt lat="-24.6136140" lon="-53.7600290">
        <ele>503.2</ele>
        <time>2018-09-15T19:01:08Z</time>
      </trkpt>
      <trkpt lat="-24.6136140" lon="-53.7600500">
        <ele>503.3</ele>
        <time>2018-09-15T19:01:09Z</time>
      </trkpt>
      <trkpt lat="-24.6136140" lon="-53.7600720">
        <ele>503.3</ele>
        <time>2018-09-15T19:01:10Z</time>
      </trkpt>
      <trkpt lat="-24.6136140" lon="-53.7600940">
        <ele>503.3</ele>
        <time>2018-09-15T19:01:11Z</time>
      </trkpt>
      <trkpt lat="-24.6136150" lon="-53.7601170">
        <ele>503.4</ele>
        <time>2018-09-15T19:01:12Z</time>
      </trkpt>
      <trkpt lat="-24.6136150" lon="-53.7601400">
        <ele>503.4</ele>
        <time>2018-09-15T19:01:13Z</time>
      </trkpt>
      <trkpt lat="-24.6136170" lon="-53.7601610">
        <ele>503.5</ele>
        <time>2018-09-15T19:01:14Z</time>
      </trkpt>
      <trkpt lat="-24.6136190" lon="-53.7601830">
        <ele>503.5</ele>
        <time>2018-09-15T19:01:15Z</time>
      </trkpt>
      <trkpt lat="-24.6136200" lon="-53.7602060">
        <ele>503.6</ele>
        <time>2018-09-15T19:01:16Z</time>
      </trkpt>
      <trkpt lat="-24.6136210" lon="-53.7602280">
        <ele>503.6</ele>
        <time>2018-09-15T19:01:17Z</time>
      </trkpt>
      <trkpt lat="-24.6136220" lon="-53.7602510">
        <ele>503.7</ele>
        <time>2018-09-15T19:01:18Z</time>
      </trkpt>
      <trkpt lat="-24.6136200" lon="-53.7602750">
        <ele>503.8</ele>
        <time>2018-09-15T19:01:19Z</time>
      </trkpt>
      <trkpt lat="-24.6136160" lon="-53.7602970">
        <ele>503.8</ele>
        <time>2018-09-15T19:01:20Z</time>
      </trkpt>
      <trkpt lat="-24.6136160" lon="-53.7603190">
        <ele>503.9</ele>
        <time>2018-09-15T19:01:21Z</time>
      </trkpt>
      <trkpt lat="-24.6136150" lon="-53.7603420">
        <ele>503.9</ele>
        <time>2018-09-15T19:01:22Z</time>
      </trkpt>
      <trkpt lat="-24.6136150" lon="-53.7603640">
        <ele>504.0</ele>
        <time>2018-09-15T19:01:23Z</time>
      </trkpt>
      <trkpt lat="-24.6136140" lon="-53.7603850">
        <ele>504.0</ele>
        <time>2018-09-15T19:01:24Z</time>
      </trkpt>
      <trkpt lat="-24.6136130" lon="-53.7604070">
        <ele>504.1</ele>
        <time>2018-09-15T19:01:25Z</time>
      </trkpt>
      <trkpt lat="-24.6136120" lon="-53.7604300">
        <ele>504.1</ele>
        <time>2018-09-15T19:01:26Z</time>
      </trkpt>
      <trkpt lat="-24.6136120" lon="-53.7604540">
        <ele>504.2</ele>
        <time>2018-09-15T19:01:27Z</time>
      </trkpt>
      <trkpt lat="-24.6136120" lon="-53.7604780">
        <ele>504.2</ele>
        <time>2018-09-15T19:01:28Z</time>
      </trkpt>
      <trkpt lat="-24.6136110" lon="-53.7605000">
        <ele>504.3</ele>
        <time>2018-09-15T19:01:29Z</time>
      </trkpt>
      <trkpt lat="-24.6136120" lon="-53.7605220">
        <ele>504.3</ele>
        <time>2018-09-15T19:01:30Z</time>
      </trkpt>
      <trkpt lat="-24.6136130" lon="-53.7605430">
        <ele>504.4</ele>
        <time>2018-09-15T19:01:31Z</time>
      </trkpt>
      <trkpt lat="-24.6136130" lon="-53.7605640">
        <ele>504.5</ele>
        <time>2018-09-15T19:01:32Z</time>
      </trkpt>
      <trkpt lat="-24.6136120" lon="-53.7605820">
        <ele>504.5</ele>
        <time>2018-09-15T19:01:33Z</time>
      </trkpt>
      <trkpt lat="-24.6136090" lon="-53.7606010">
        <ele>504.6</ele>
        <time>2018-09-15T19:01:34Z</time>
      </trkpt>
      <trkpt lat="-24.6136080" lon="-53.7606210">
        <ele>504.7</ele>
        <time>2018-09-15T19:01:35Z</time>
      </trkpt>
      <trkpt lat="-24.6136080" lon="-53.7606430">
        <ele>504.7</ele>
        <time>2018-09-15T19:01:36Z</time>
      </trkpt>
      <trkpt lat="-24.6136070" lon="-53.7606660">
        <ele>504.8</ele>
        <time>2018-09-15T19:01:37Z</time>
      </trkpt>
      <trkpt lat="-24.6136050" lon="-53.7606920">
        <ele>504.8</ele>
        <time>2018-09-15T19:01:38Z</time>
      </trkpt>
      <trkpt lat="-24.6136030" lon="-53.7607200">
        <ele>504.9</ele>
        <time>2018-09-15T19:01:39Z</time>
      </trkpt>
      <trkpt lat="-24.6136020" lon="-53.7607470">
        <ele>504.9</ele>
        <time>2018-09-15T19:01:40Z</time>
      </trkpt>
      <trkpt lat="-24.6136010" lon="-53.7607730">
        <ele>505.0</ele>
        <time>2018-09-15T19:01:41Z</time>
      </trkpt>
      <trkpt lat="-24.6136010" lon="-53.7607990">
        <ele>505.0</ele>
        <time>2018-09-15T19:01:42Z</time>
      </trkpt>
      <trkpt lat="-24.6136000" lon="-53.7608250">
        <ele>505.1</ele>
        <time>2018-09-15T19:01:43Z</time>
      </trkpt>
      <trkpt lat="-24.6135980" lon="-53.7608510">
        <ele>505.2</ele>
        <time>2018-09-15T19:01:44Z</time>
      </trkpt>
      <trkpt lat="-24.6135960" lon="-53.7608760">
        <ele>505.3</ele>
        <time>2018-09-15T19:01:45Z</time>
      </trkpt>
      <trkpt lat="-24.6135940" lon="-53.7609010">
        <ele>505.4</ele>
        <time>2018-09-15T19:01:46Z</time>
      </trkpt>
      <trkpt lat="-24.6135930" lon="-53.7609260">
        <ele>505.4</ele>
        <time>2018-09-15T19:01:47Z</time>
      </trkpt>
      <trkpt lat="-24.6135910" lon="-53.7609510">
        <ele>505.5</ele>
        <time>2018-09-15T19:01:48Z</time>
      </trkpt>
      <trkpt lat="-24.6135890" lon="-53.7609760">
        <ele>505.5</ele>
        <time>2018-09-15T19:01:49Z</time>
      </trkpt>
      <trkpt lat="-24.6135880" lon="-53.7610010">
        <ele>505.6</ele>
        <time>2018-09-15T19:01:50Z</time>
      </trkpt>
      <trkpt lat="-24.6135870" lon="-53.7610250">
        <ele>505.6</ele>
        <time>2018-09-15T19:01:51Z</time>
      </trkpt>
      <trkpt lat="-24.6135860" lon="-53.7610510">
        <ele>505.7</ele>
        <time>2018-09-15T19:01:52Z</time>
      </trkpt>
      <trkpt lat="-24.6135860" lon="-53.7610760">
        <ele>505.7</ele>
        <time>2018-09-15T19:01:53Z</time>
      </trkpt>
      <trkpt lat="-24.6135870" lon="-53.7611020">
        <ele>505.8</ele>
        <time>2018-09-15T19:01:54Z</time>
      </trkpt>
      <trkpt lat="-24.6135870" lon="-53.7611280">
        <ele>505.8</ele>
        <time>2018-09-15T19:01:55Z</time>
      </trkpt>
      <trkpt lat="-24.6135850" lon="-53.7611550">
        <ele>505.9</ele>
        <time>2018-09-15T19:01:56Z</time>
      </trkpt>
      <trkpt lat="-24.6135840" lon="-53.7611810">
        <ele>505.9</ele>
        <time>2018-09-15T19:01:57Z</time>
      </trkpt>
      <trkpt lat="-24.6135840" lon="-53.7612080">
        <ele>506.0</ele>
        <time>2018-09-15T19:01:58Z</time>
      </trkpt>
      <trkpt lat="-24.6135830" lon="-53.7612360">
        <ele>506.0</ele>
        <time>2018-09-15T19:01:59Z</time>
      </trkpt>
      <trkpt lat="-24.6135840" lon="-53.7612650">
        <ele>506.1</ele>
        <time>2018-09-15T19:02:00Z</time>
      </trkpt>
      <trkpt lat="-24.6135820" lon="-53.7612930">
        <ele>506.2</ele>
        <time>2018-09-15T19:02:01Z</time>
      </trkpt>
      <trkpt lat="-24.6135830" lon="-53.7613210">
        <ele>506.2</ele>
        <time>2018-09-15T19:02:02Z</time>
      </trkpt>
      <trkpt lat="-24.6135830" lon="-53.7613500">
        <ele>506.3</ele>
        <time>2018-09-15T19:02:03Z</time>
      </trkpt>
      <trkpt lat="-24.6135810" lon="-53.7613780">
        <ele>506.3</ele>
        <time>2018-09-15T19:02:04Z</time>
      </trkpt>
      <trkpt lat="-24.6135800" lon="-53.7614060">
        <ele>506.4</ele>
        <time>2018-09-15T19:02:05Z</time>
      </trkpt>
      <trkpt lat="-24.6135780" lon="-53.7614350">
        <ele>506.4</ele>
        <time>2018-09-15T19:02:06Z</time>
      </trkpt>
      <trkpt lat="-24.6135770" lon="-53.7614640">
        <ele>506.5</ele>
        <time>2018-09-15T19:02:07Z</time>
      </trkpt>
      <trkpt lat="-24.6135750" lon="-53.7614930">
        <ele>506.5</ele>
        <time>2018-09-15T19:02:08Z</time>
      </trkpt>
      <trkpt lat="-24.6135730" lon="-53.7615210">
        <ele>506.6</ele>
        <time>2018-09-15T19:02:09Z</time>
      </trkpt>
      <trkpt lat="-24.6135720" lon="-53.7615500">
        <ele>506.7</ele>
        <time>2018-09-15T19:02:10Z</time>
      </trkpt>
      <trkpt lat="-24.6135710" lon="-53.7615780">
        <ele>506.7</ele>
        <time>2018-09-15T19:02:11Z</time>
      </trkpt>
      <trkpt lat="-24.6135700" lon="-53.7616060">
        <ele>506.8</ele>
        <time>2018-09-15T19:02:12Z</time>
      </trkpt>
      <trkpt lat="-24.6135700" lon="-53.7616340">
        <ele>506.9</ele>
        <time>2018-09-15T19:02:13Z</time>
      </trkpt>
      <trkpt lat="-24.6135690" lon="-53.7616610">
        <ele>506.9</ele>
        <time>2018-09-15T19:02:14Z</time>
      </trkpt>
      <trkpt lat="-24.6135690" lon="-53.7616890">
        <ele>507.0</ele>
        <time>2018-09-15T19:02:15Z</time>
      </trkpt>
      <trkpt lat="-24.6135670" lon="-53.7617160">
        <ele>507.0</ele>
        <time>2018-09-15T19:02:16Z</time>
      </trkpt>
      <trkpt lat="-24.6135650" lon="-53.7617440">
        <ele>507.1</ele>
        <time>2018-09-15T19:02:17Z</time>
      </trkpt>
      <trkpt lat="-24.6135650" lon="-53.7617720">
        <ele>507.2</ele>
        <time>2018-09-15T19:02:18Z</time>
      </trkpt>
      <trkpt lat="-24.6135660" lon="-53.7618020">
        <ele>507.3</ele>
        <time>2018-09-15T19:02:19Z</time>
      </trkpt>
      <trkpt lat="-24.6135650" lon="-53.7618330">
        <ele>507.4</ele>
        <time>2018-09-15T19:02:20Z</time>
      </trkpt>
      <trkpt lat="-24.6135630" lon="-53.7618640">
        <ele>507.4</ele>
        <time>2018-09-15T19:02:21Z</time>
      </trkpt>
      <trkpt lat="-24.6135620" lon="-53.7618960">
        <ele>507.5</ele>
        <time>2018-09-15T19:02:22Z</time>
      </trkpt>
      <trkpt lat="-24.6135610" lon="-53.7619290">
        <ele>507.6</ele>
        <time>2018-09-15T19:02:23Z</time>
      </trkpt>
      <trkpt lat="-24.6135590" lon="-53.7619620">
        <ele>507.7</ele>
        <time>2018-09-15T19:02:24Z</time>
      </trkpt>
      <trkpt lat="-24.6135580" lon="-53.7619930">
        <ele>507.8</ele>
        <time>2018-09-15T19:02:25Z</time>
      </trkpt>
      <trkpt lat="-24.6135590" lon="-53.7620220">
        <ele>507.8</ele>
        <time>2018-09-15T19:02:26Z</time>
      </trkpt>
      <trkpt lat="-24.6135590" lon="-53.7620520">
        <ele>507.9</ele>
        <time>2018-09-15T19:02:27Z</time>
      </trkpt>
      <trkpt lat="-24.6135580" lon="-53.7621170">
        <ele>508.1</ele>
        <time>2018-09-15T19:02:28Z</time>
      </trkpt>
      <trkpt lat="-24.6135580" lon="-53.7621530">
        <ele>508.2</ele>
        <time>2018-09-15T19:02:29Z</time>
      </trkpt>
      <trkpt lat="-24.6135550" lon="-53.7621900">
        <ele>508.4</ele>
        <time>2018-09-15T19:02:30Z</time>
      </trkpt>
      <trkpt lat="-24.6135530" lon="-53.7622250">
        <ele>508.5</ele>
        <time>2018-09-15T19:02:31Z</time>
      </trkpt>
      <trkpt lat="-24.6135510" lon="-53.7622590">
        <ele>508.7</ele>
        <time>2018-09-15T19:02:32Z</time>
      </trkpt>
      <trkpt lat="-24.6135530" lon="-53.7622910">
        <ele>508.8</ele>
        <time>2018-09-15T19:02:33Z</time>
      </trkpt>
      <trkpt lat="-24.6135540" lon="-53.7623210">
        <ele>508.9</ele>
        <time>2018-09-15T19:02:34Z</time>
      </trkpt>
      <trkpt lat="-24.6135560" lon="-53.7623510">
        <ele>509.0</ele>
        <time>2018-09-15T19:02:35Z</time>
      </trkpt>
      <trkpt lat="-24.6135580" lon="-53.7623830">
        <ele>509.2</ele>
        <time>2018-09-15T19:02:36Z</time>
      </trkpt>
      <trkpt lat="-24.6135590" lon="-53.7624190">
        <ele>509.5</ele>
        <time>2018-09-15T19:02:37Z</time>
      </trkpt>
      <trkpt lat="-24.6135580" lon="-53.7624580">
        <ele>509.7</ele>
        <time>2018-09-15T19:02:38Z</time>
      </trkpt>
      <trkpt lat="-24.6135590" lon="-53.7625000">
        <ele>509.9</ele>
        <time>2018-09-15T19:02:39Z</time>
      </trkpt>
      <trkpt lat="-24.6135610" lon="-53.7625440">
        <ele>510.1</ele>
        <time>2018-09-15T19:02:40Z</time>
      </trkpt>
      <trkpt lat="-24.6135790" lon="-53.7626340">
        <ele>510.6</ele>
        <time>2018-09-15T19:02:42Z</time>
      </trkpt>
      <trkpt lat="-24.6135990" lon="-53.7626750">
        <ele>511.0</ele>
        <time>2018-09-15T19:02:43Z</time>
      </trkpt>
      <trkpt lat="-24.6136270" lon="-53.7627090">
        <ele>511.5</ele>
        <time>2018-09-15T19:02:44Z</time>
      </trkpt>
      <trkpt lat="-24.6136600" lon="-53.7627320">
        <ele>511.2</ele>
        <time>2018-09-15T19:02:45Z</time>
      </trkpt>
      <trkpt lat="-24.6136970" lon="-53.7627400">
        <ele>511.0</ele>
        <time>2018-09-15T19:02:46Z</time>
      </trkpt>
      <trkpt lat="-24.6137350" lon="-53.7627370">
        <ele>510.8</ele>
        <time>2018-09-15T19:02:47Z</time>
      </trkpt>
      <trkpt lat="-24.6137710" lon="-53.7627260">
        <ele>510.6</ele>
        <time>2018-09-15T19:02:48Z</time>
      </trkpt>
      <trkpt lat="-24.6138080" lon="-53.7627150">
        <ele>510.3</ele>
        <time>2018-09-15T19:02:49Z</time>
      </trkpt>
      <trkpt lat="-24.6138460" lon="-53.7627040">
        <ele>510.1</ele>
        <time>2018-09-15T19:02:50Z</time>
      </trkpt>
      <trkpt lat="-24.6138840" lon="-53.7626930">
        <ele>509.9</ele>
        <time>2018-09-15T19:02:51Z</time>
      </trkpt>
      <trkpt lat="-24.6139230" lon="-53.7626810">
        <ele>509.6</ele>
        <time>2018-09-15T19:02:52Z</time>
      </trkpt>
      <trkpt lat="-24.6139610" lon="-53.7626680">
        <ele>509.4</ele>
        <time>2018-09-15T19:02:53Z</time>
      </trkpt>
      <trkpt lat="-24.6139990" lon="-53.7626560">
        <ele>509.1</ele>
        <time>2018-09-15T19:02:54Z</time>
      </trkpt>
      <trkpt lat="-24.6140380" lon="-53.7626450">
        <ele>508.9</ele>
        <time>2018-09-15T19:02:55Z</time>
      </trkpt>
      <trkpt lat="-24.6140750" lon="-53.7626330">
        <ele>508.6</ele>
        <time>2018-09-15T19:02:56Z</time>
      </trkpt>
      <trkpt lat="-24.6141140" lon="-53.7626190">
        <ele>508.3</ele>
        <time>2018-09-15T19:02:57Z</time>
      </trkpt>
      <trkpt lat="-24.6141530" lon="-53.7626040">
        <ele>508.0</ele>
        <time>2018-09-15T19:02:58Z</time>
      </trkpt>
      <trkpt lat="-24.6141920" lon="-53.7625890">
        <ele>507.8</ele>
        <time>2018-09-15T19:02:59Z</time>
      </trkpt>
      <trkpt lat="-24.6142320" lon="-53.7625760">
        <ele>507.5</ele>
        <time>2018-09-15T19:03:00Z</time>
      </trkpt>
      <trkpt lat="-24.6143160" lon="-53.7625500">
        <ele>506.9</ele>
        <time>2018-09-15T19:03:02Z</time>
      </trkpt>
      <trkpt lat="-24.6143590" lon="-53.7625370">
        <ele>506.6</ele>
        <time>2018-09-15T19:03:03Z</time>
      </trkpt>
      <trkpt lat="-24.6144040" lon="-53.7625230">
        <ele>506.3</ele>
        <time>2018-09-15T19:03:04Z</time>
      </trkpt>
      <trkpt lat="-24.6144490" lon="-53.7625080">
        <ele>506.0</ele>
        <time>2018-09-15T19:03:05Z</time>
      </trkpt>
      <trkpt lat="-24.6144940" lon="-53.7624920">
        <ele>505.7</ele>
        <time>2018-09-15T19:03:06Z</time>
      </trkpt>
      <trkpt lat="-24.6145400" lon="-53.7624770">
        <ele>505.3</ele>
        <time>2018-09-15T19:03:07Z</time>
      </trkpt>
      <trkpt lat="-24.6145860" lon="-53.7624610">
        <ele>505.0</ele>
        <time>2018-09-15T19:03:08Z</time>
      </trkpt>
      <trkpt lat="-24.6146320" lon="-53.7624440">
        <ele>504.7</ele>
        <time>2018-09-15T19:03:09Z</time>
      </trkpt>
      <trkpt lat="-24.6146790" lon="-53.7624280">
        <ele>504.4</ele>
        <time>2018-09-15T19:03:10Z</time>
      </trkpt>
      <trkpt lat="-24.6147260" lon="-53.7624110">
        <ele>504.0</ele>
        <time>2018-09-15T19:03:11Z</time>
      </trkpt>
      <trkpt lat="-24.6147260" lon="-53.7624110">
        <ele>504.0</ele>
        <time>2018-09-15T19:03:12Z</time>
      </trkpt>
      <trkpt lat="-24.6148200" lon="-53.7623810">
        <ele>503.4</ele>
        <time>2018-09-15T19:03:13Z</time>
      </trkpt>
      <trkpt lat="-24.6148670" lon="-53.7623680">
        <ele>503.1</ele>
        <time>2018-09-15T19:03:14Z</time>
      </trkpt>
      <trkpt lat="-24.6148670" lon="-53.7623680">
        <ele>503.1</ele>
        <time>2018-09-15T19:03:15Z</time>
      </trkpt>
      <trkpt lat="-24.6149140" lon="-53.7623550">
        <ele>502.7</ele>
        <time>2018-09-15T19:03:16Z</time>
      </trkpt>
      <trkpt lat="-24.6149610" lon="-53.7623370">
        <ele>502.4</ele>
        <time>2018-09-15T19:03:17Z</time>
      </trkpt>
      <trkpt lat="-24.6150070" lon="-53.7623170">
        <ele>502.1</ele>
        <time>2018-09-15T19:03:18Z</time>
      </trkpt>
      <trkpt lat="-24.6150540" lon="-53.7622990">
        <ele>501.9</ele>
        <time>2018-09-15T19:03:19Z</time>
      </trkpt>
      <trkpt lat="-24.6151030" lon="-53.7622840">
        <ele>501.8</ele>
        <time>2018-09-15T19:03:20Z</time>
      </trkpt>
      <trkpt lat="-24.6151520" lon="-53.7622700">
        <ele>501.6</ele>
        <time>2018-09-15T19:03:21Z</time>
      </trkpt>
      <trkpt lat="-24.6152010" lon="-53.7622560">
        <ele>501.5</ele>
        <time>2018-09-15T19:03:22Z</time>
      </trkpt>
      <trkpt lat="-24.6152510" lon="-53.7622410">
        <ele>501.4</ele>
        <time>2018-09-15T19:03:23Z</time>
      </trkpt>
      <trkpt lat="-24.6153010" lon="-53.7622260">
        <ele>501.3</ele>
        <time>2018-09-15T19:03:24Z</time>
      </trkpt>
      <trkpt lat="-24.6153500" lon="-53.7622090">
        <ele>501.2</ele>
        <time>2018-09-15T19:03:25Z</time>
      </trkpt>
      <trkpt lat="-24.6154000" lon="-53.7621920">
        <ele>501.1</ele>
        <time>2018-09-15T19:03:26Z</time>
      </trkpt>
      <trkpt lat="-24.6154500" lon="-53.7621750">
        <ele>501.1</ele>
        <time>2018-09-15T19:03:27Z</time>
      </trkpt>
      <trkpt lat="-24.6155000" lon="-53.7621590">
        <ele>501.1</ele>
        <time>2018-09-15T19:03:28Z</time>
      </trkpt>
      <trkpt lat="-24.6155510" lon="-53.7621420">
        <ele>501.0</ele>
        <time>2018-09-15T19:03:29Z</time>
      </trkpt>
      <trkpt lat="-24.6156010" lon="-53.7621260">
        <ele>501.0</ele>
        <time>2018-09-15T19:03:30Z</time>
      </trkpt>
      <trkpt lat="-24.6156500" lon="-53.7621100">
        <ele>501.0</ele>
        <time>2018-09-15T19:03:31Z</time>
      </trkpt>
      <trkpt lat="-24.6157000" lon="-53.7620940">
        <ele>500.9</ele>
        <time>2018-09-15T19:03:32Z</time>
      </trkpt>
      <trkpt lat="-24.6157510" lon="-53.7620780">
        <ele>500.9</ele>
        <time>2018-09-15T19:03:33Z</time>
      </trkpt>
      <trkpt lat="-24.6158010" lon="-53.7620610">
        <ele>500.9</ele>
        <time>2018-09-15T19:03:34Z</time>
      </trkpt>
      <trkpt lat="-24.6158510" lon="-53.7620460">
        <ele>500.9</ele>
        <time>2018-09-15T19:03:35Z</time>
      </trkpt>
      <trkpt lat="-24.6159010" lon="-53.7620300">
        <ele>500.9</ele>
        <time>2018-09-15T19:03:36Z</time>
      </trkpt>
      <trkpt lat="-24.6159510" lon="-53.7620140">
        <ele>500.9</ele>
        <time>2018-09-15T19:03:37Z</time>
      </trkpt>
      <trkpt lat="-24.6160010" lon="-53.7619980">
        <ele>500.9</ele>
        <time>2018-09-15T19:03:38Z</time>
      </trkpt>
      <trkpt lat="-24.6160500" lon="-53.7619820">
        <ele>500.9</ele>
        <time>2018-09-15T19:03:39Z</time>
      </trkpt>
      <trkpt lat="-24.6160990" lon="-53.7619660">
        <ele>500.9</ele>
        <time>2018-09-15T19:03:40Z</time>
      </trkpt>
      <trkpt lat="-24.6161480" lon="-53.7619510">
        <ele>500.9</ele>
        <time>2018-09-15T19:03:41Z</time>
      </trkpt>
      <trkpt lat="-24.6161970" lon="-53.7619360">
        <ele>500.9</ele>
        <time>2018-09-15T19:03:42Z</time>
      </trkpt>
      <trkpt lat="-24.6162450" lon="-53.7619190">
        <ele>500.9</ele>
        <time>2018-09-15T19:03:43Z</time>
      </trkpt>
      <trkpt lat="-24.6162940" lon="-53.7619010">
        <ele>500.9</ele>
        <time>2018-09-15T19:03:44Z</time>
      </trkpt>
      <trkpt lat="-24.6163420" lon="-53.7618860">
        <ele>501.0</ele>
        <time>2018-09-15T19:03:45Z</time>
      </trkpt>
      <trkpt lat="-24.6163920" lon="-53.7618700">
        <ele>501.0</ele>
        <time>2018-09-15T19:03:46Z</time>
      </trkpt>
      <trkpt lat="-24.6164420" lon="-53.7618550">
        <ele>501.0</ele>
        <time>2018-09-15T19:03:47Z</time>
      </trkpt>
      <trkpt lat="-24.6164900" lon="-53.7618410">
        <ele>501.0</ele>
        <time>2018-09-15T19:03:48Z</time>
      </trkpt>
      <trkpt lat="-24.6165380" lon="-53.7618250">
        <ele>501.0</ele>
        <time>2018-09-15T19:03:49Z</time>
      </trkpt>
      <trkpt lat="-24.6165860" lon="-53.7618090">
        <ele>501.0</ele>
        <time>2018-09-15T19:03:50Z</time>
      </trkpt>
      <trkpt lat="-24.6166320" lon="-53.7617920">
        <ele>501.0</ele>
        <time>2018-09-15T19:03:51Z</time>
      </trkpt>
      <trkpt lat="-24.6166790" lon="-53.7617780">
        <ele>501.1</ele>
        <time>2018-09-15T19:03:52Z</time>
      </trkpt>
      <trkpt lat="-24.6167280" lon="-53.7617620">
        <ele>501.1</ele>
        <time>2018-09-15T19:03:53Z</time>
      </trkpt>
      <trkpt lat="-24.6167760" lon="-53.7617460">
        <ele>501.1</ele>
        <time>2018-09-15T19:03:54Z</time>
      </trkpt>
      <trkpt lat="-24.6168240" lon="-53.7617310">
        <ele>501.2</ele>
        <time>2018-09-15T19:03:55Z</time>
      </trkpt>
      <trkpt lat="-24.6168720" lon="-53.7617160">
        <ele>501.2</ele>
        <time>2018-09-15T19:03:56Z</time>
      </trkpt>
      <trkpt lat="-24.6169200" lon="-53.7617020">
        <ele>501.3</ele>
        <time>2018-09-15T19:03:57Z</time>
      </trkpt>
      <trkpt lat="-24.6169680" lon="-53.7616860">
        <ele>501.3</ele>
        <time>2018-09-15T19:03:58Z</time>
      </trkpt>
      <trkpt lat="-24.6170150" lon="-53.7616710">
        <ele>501.3</ele>
        <time>2018-09-15T19:03:59Z</time>
      </trkpt>
      <trkpt lat="-24.6170620" lon="-53.7616560">
        <ele>501.4</ele>
        <time>2018-09-15T19:04:00Z</time>
      </trkpt>
      <trkpt lat="-24.6171080" lon="-53.7616400">
        <ele>501.4</ele>
        <time>2018-09-15T19:04:01Z</time>
      </trkpt>
      <trkpt lat="-24.6171550" lon="-53.7616250">
        <ele>501.5</ele>
        <time>2018-09-15T19:04:02Z</time>
      </trkpt>
      <trkpt lat="-24.6172020" lon="-53.7616110">
        <ele>501.7</ele>
        <time>2018-09-15T19:04:03Z</time>
      </trkpt>
      <trkpt lat="-24.6172470" lon="-53.7615960">
        <ele>501.8</ele>
        <time>2018-09-15T19:04:04Z</time>
      </trkpt>
      <trkpt lat="-24.6172930" lon="-53.7615800">
        <ele>501.9</ele>
        <time>2018-09-15T19:04:05Z</time>
      </trkpt>
      <trkpt lat="-24.6173380" lon="-53.7615660">
        <ele>502.1</ele>
        <time>2018-09-15T19:04:06Z</time>
      </trkpt>
      <trkpt lat="-24.6173830" lon="-53.7615530">
        <ele>502.2</ele>
        <time>2018-09-15T19:04:07Z</time>
      </trkpt>
      <trkpt lat="-24.6174270" lon="-53.7615400">
        <ele>502.4</ele>
        <time>2018-09-15T19:04:08Z</time>
      </trkpt>
      <trkpt lat="-24.6174710" lon="-53.7615260">
        <ele>502.5</ele>
        <time>2018-09-15T19:04:09Z</time>
      </trkpt>
      <trkpt lat="-24.6175140" lon="-53.7615110">
        <ele>502.7</ele>
        <time>2018-09-15T19:04:10Z</time>
      </trkpt>
      <trkpt lat="-24.6175560" lon="-53.7614970">
        <ele>502.8</ele>
        <time>2018-09-15T19:04:11Z</time>
      </trkpt>
      <trkpt lat="-24.6175990" lon="-53.7614830">
        <ele>503.0</ele>
        <time>2018-09-15T19:04:12Z</time>
      </trkpt>
      <trkpt lat="-24.6176420" lon="-53.7614710">
        <ele>503.2</ele>
        <time>2018-09-15T19:04:13Z</time>
      </trkpt>
      <trkpt lat="-24.6176840" lon="-53.7614570">
        <ele>503.3</ele>
        <time>2018-09-15T19:04:14Z</time>
      </trkpt>
      <trkpt lat="-24.6177240" lon="-53.7614410">
        <ele>503.4</ele>
        <time>2018-09-15T19:04:15Z</time>
      </trkpt>
      <trkpt lat="-24.6177640" lon="-53.7614270">
        <ele>503.5</ele>
        <time>2018-09-15T19:04:16Z</time>
      </trkpt>
      <trkpt lat="-24.6178060" lon="-53.7614150">
        <ele>503.7</ele>
        <time>2018-09-15T19:04:17Z</time>
      </trkpt>
      <trkpt lat="-24.6178480" lon="-53.7614030">
        <ele>503.8</ele>
        <time>2018-09-15T19:04:18Z</time>
      </trkpt>
      <trkpt lat="-24.6178890" lon="-53.7613890">
        <ele>503.9</ele>
        <time>2018-09-15T19:04:19Z</time>
      </trkpt>
      <trkpt lat="-24.6179300" lon="-53.7613750">
        <ele>504.0</ele>
        <time>2018-09-15T19:04:20Z</time>
      </trkpt>
      <trkpt lat="-24.6179700" lon="-53.7613610">
        <ele>504.1</ele>
        <time>2018-09-15T19:04:21Z</time>
      </trkpt>
      <trkpt lat="-24.6180090" lon="-53.7613490">
        <ele>504.3</ele>
        <time>2018-09-15T19:04:22Z</time>
      </trkpt>
      <trkpt lat="-24.6180490" lon="-53.7613370">
        <ele>504.5</ele>
        <time>2018-09-15T19:04:23Z</time>
      </trkpt>
      <trkpt lat="-24.6180890" lon="-53.7613250">
        <ele>504.7</ele>
        <time>2018-09-15T19:04:24Z</time>
      </trkpt>
      <trkpt lat="-24.6181270" lon="-53.7613120">
        <ele>504.8</ele>
        <time>2018-09-15T19:04:25Z</time>
      </trkpt>
      <trkpt lat="-24.6181660" lon="-53.7612980">
        <ele>505.0</ele>
        <time>2018-09-15T19:04:26Z</time>
      </trkpt>
      <trkpt lat="-24.6182040" lon="-53.7612850">
        <ele>505.2</ele>
        <time>2018-09-15T19:04:27Z</time>
      </trkpt>
      <trkpt lat="-24.6182430" lon="-53.7612740">
        <ele>505.4</ele>
        <time>2018-09-15T19:04:28Z</time>
      </trkpt>
      <trkpt lat="-24.6182810" lon="-53.7612610">
        <ele>505.6</ele>
        <time>2018-09-15T19:04:29Z</time>
      </trkpt>
      <trkpt lat="-24.6183180" lon="-53.7612470">
        <ele>505.8</ele>
        <time>2018-09-15T19:04:30Z</time>
      </trkpt>
      <trkpt lat="-24.6183550" lon="-53.7612350">
        <ele>506.0</ele>
        <time>2018-09-15T19:04:31Z</time>
      </trkpt>
      <trkpt lat="-24.6183930" lon="-53.7612220">
        <ele>506.2</ele>
        <time>2018-09-15T19:04:32Z</time>
      </trkpt>
      <trkpt lat="-24.6184310" lon="-53.7612110">
        <ele>506.4</ele>
        <time>2018-09-15T19:04:33Z</time>
      </trkpt>
      <trkpt lat="-24.6184660" lon="-53.7612000">
        <ele>506.5</ele>
        <time>2018-09-15T19:04:34Z</time>
      </trkpt>
      <trkpt lat="-24.6185010" lon="-53.7611900">
        <ele>506.7</ele>
        <time>2018-09-15T19:04:35Z</time>
      </trkpt>
      <trkpt lat="-24.6185350" lon="-53.7611790">
        <ele>506.9</ele>
        <time>2018-09-15T19:04:36Z</time>
      </trkpt>
      <trkpt lat="-24.6185700" lon="-53.7611670">
        <ele>507.1</ele>
        <time>2018-09-15T19:04:37Z</time>
      </trkpt>
      <trkpt lat="-24.6186030" lon="-53.7611550">
        <ele>507.2</ele>
        <time>2018-09-15T19:04:38Z</time>
      </trkpt>
      <trkpt lat="-24.6186380" lon="-53.7611440">
        <ele>507.4</ele>
        <time>2018-09-15T19:04:39Z</time>
      </trkpt>
      <trkpt lat="-24.6186710" lon="-53.7611330">
        <ele>507.6</ele>
        <time>2018-09-15T19:04:40Z</time>
      </trkpt>
      <trkpt lat="-24.6187040" lon="-53.7611220">
        <ele>507.8</ele>
        <time>2018-09-15T19:04:41Z</time>
      </trkpt>
      <trkpt lat="-24.6187370" lon="-53.7611100">
        <ele>508.0</ele>
        <time>2018-09-15T19:04:42Z</time>
      </trkpt>
      <trkpt lat="-24.6187700" lon="-53.7611000">
        <ele>508.2</ele>
        <time>2018-09-15T19:04:43Z</time>
      </trkpt>
      <trkpt lat="-24.6188020" lon="-53.7610890">
        <ele>508.3</ele>
        <time>2018-09-15T19:04:44Z</time>
      </trkpt>
      <trkpt lat="-24.6188340" lon="-53.7610790">
        <ele>508.5</ele>
        <time>2018-09-15T19:04:45Z</time>
      </trkpt>
      <trkpt lat="-24.6188660" lon="-53.7610680">
        <ele>508.7</ele>
        <time>2018-09-15T19:04:46Z</time>
      </trkpt>
      <trkpt lat="-24.6188980" lon="-53.7610570">
        <ele>508.9</ele>
        <time>2018-09-15T19:04:47Z</time>
      </trkpt>
      <trkpt lat="-24.6189300" lon="-53.7610460">
        <ele>509.1</ele>
        <time>2018-09-15T19:04:48Z</time>
      </trkpt>
      <trkpt lat="-24.6189620" lon="-53.7610350">
        <ele>509.3</ele>
        <time>2018-09-15T19:04:49Z</time>
      </trkpt>
      <trkpt lat="-24.6189940" lon="-53.7610240">
        <ele>509.5</ele>
        <time>2018-09-15T19:04:50Z</time>
      </trkpt>
      <trkpt lat="-24.6190260" lon="-53.7610150">
        <ele>509.7</ele>
        <time>2018-09-15T19:04:51Z</time>
      </trkpt>
      <trkpt lat="-24.6190570" lon="-53.7610050">
        <ele>509.9</ele>
        <time>2018-09-15T19:04:52Z</time>
      </trkpt>
      <trkpt lat="-24.6190880" lon="-53.7609930">
        <ele>510.1</ele>
        <time>2018-09-15T19:04:53Z</time>
      </trkpt>
      <trkpt lat="-24.6191180" lon="-53.7609830">
        <ele>510.3</ele>
        <time>2018-09-15T19:04:54Z</time>
      </trkpt>
      <trkpt lat="-24.6191500" lon="-53.7609730">
        <ele>510.6</ele>
        <time>2018-09-15T19:04:55Z</time>
      </trkpt>
      <trkpt lat="-24.6191810" lon="-53.7609630">
        <ele>510.8</ele>
        <time>2018-09-15T19:04:56Z</time>
      </trkpt>
      <trkpt lat="-24.6192120" lon="-53.7609540">
        <ele>511.0</ele>
        <time>2018-09-15T19:04:57Z</time>
      </trkpt>
      <trkpt lat="-24.6192430" lon="-53.7609450">
        <ele>511.2</ele>
        <time>2018-09-15T19:04:58Z</time>
      </trkpt>
      <trkpt lat="-24.6192730" lon="-53.7609350">
        <ele>511.4</ele>
        <time>2018-09-15T19:04:59Z</time>
      </trkpt>
      <trkpt lat="-24.6193040" lon="-53.7609250">
        <ele>511.6</ele>
        <time>2018-09-15T19:05:00Z</time>
      </trkpt>
      <trkpt lat="-24.6193340" lon="-53.7609140">
        <ele>511.8</ele>
        <time>2018-09-15T19:05:01Z</time>
      </trkpt>
      <trkpt lat="-24.6193630" lon="-53.7609050">
        <ele>512.0</ele>
        <time>2018-09-15T19:05:02Z</time>
      </trkpt>
      <trkpt lat="-24.6193950" lon="-53.7608970">
        <ele>512.3</ele>
        <time>2018-09-15T19:05:03Z</time>
      </trkpt>
      <trkpt lat="-24.6194260" lon="-53.7608870">
        <ele>512.5</ele>
        <time>2018-09-15T19:05:04Z</time>
      </trkpt>
      <trkpt lat="-24.6194570" lon="-53.7608760">
        <ele>512.6</ele>
        <time>2018-09-15T19:05:05Z</time>
      </trkpt>
      <trkpt lat="-24.6194870" lon="-53.7608650">
        <ele>512.8</ele>
        <time>2018-09-15T19:05:06Z</time>
      </trkpt>
      <trkpt lat="-24.6195170" lon="-53.7608550">
        <ele>513.0</ele>
        <time>2018-09-15T19:05:07Z</time>
      </trkpt>
      <trkpt lat="-24.6195480" lon="-53.7608460">
        <ele>513.2</ele>
        <time>2018-09-15T19:05:08Z</time>
      </trkpt>
      <trkpt lat="-24.6195780" lon="-53.7608360">
        <ele>513.4</ele>
        <time>2018-09-15T19:05:09Z</time>
      </trkpt>
      <trkpt lat="-24.6196070" lon="-53.7608250">
        <ele>513.5</ele>
        <time>2018-09-15T19:05:10Z</time>
      </trkpt>
      <trkpt lat="-24.6196360" lon="-53.7608160">
        <ele>513.7</ele>
        <time>2018-09-15T19:05:11Z</time>
      </trkpt>
      <trkpt lat="-24.6196650" lon="-53.7608070">
        <ele>513.8</ele>
        <time>2018-09-15T19:05:12Z</time>
      </trkpt>
      <trkpt lat="-24.6196940" lon="-53.7607980">
        <ele>514.0</ele>
        <time>2018-09-15T19:05:13Z</time>
      </trkpt>
      <trkpt lat="-24.6197220" lon="-53.7607890">
        <ele>514.1</ele>
        <time>2018-09-15T19:05:14Z</time>
      </trkpt>
      <trkpt lat="-24.6197500" lon="-53.7607810">
        <ele>514.2</ele>
        <time>2018-09-15T19:05:15Z</time>
      </trkpt>
      <trkpt lat="-24.6197770" lon="-53.7607730">
        <ele>514.4</ele>
        <time>2018-09-15T19:05:16Z</time>
      </trkpt>
      <trkpt lat="-24.6198040" lon="-53.7607640">
        <ele>514.5</ele>
        <time>2018-09-15T19:05:17Z</time>
      </trkpt>
      <trkpt lat="-24.6198310" lon="-53.7607550">
        <ele>514.6</ele>
        <time>2018-09-15T19:05:18Z</time>
      </trkpt>
      <trkpt lat="-24.6198580" lon="-53.7607470">
        <ele>514.7</ele>
        <time>2018-09-15T19:05:19Z</time>
      </trkpt>
      <trkpt lat="-24.6198860" lon="-53.7607380">
        <ele>514.8</ele>
        <time>2018-09-15T19:05:20Z</time>
      </trkpt>
      <trkpt lat="-24.6199140" lon="-53.7607280">
        <ele>514.8</ele>
        <time>2018-09-15T19:05:21Z</time>
      </trkpt>
      <trkpt lat="-24.6199410" lon="-53.7607190">
        <ele>514.9</ele>
        <time>2018-09-15T19:05:22Z</time>
      </trkpt>
      <trkpt lat="-24.6199680" lon="-53.7607110">
        <ele>515.0</ele>
        <time>2018-09-15T19:05:23Z</time>
      </trkpt>
      <trkpt lat="-24.6199950" lon="-53.7607020">
        <ele>515.1</ele>
        <time>2018-09-15T19:05:24Z</time>
      </trkpt>
      <trkpt lat="-24.6200210" lon="-53.7606930">
        <ele>515.1</ele>
        <time>2018-09-15T19:05:25Z</time>
      </trkpt>
      <trkpt lat="-24.6200470" lon="-53.7606840">
        <ele>515.2</ele>
        <time>2018-09-15T19:05:26Z</time>
      </trkpt>
      <trkpt lat="-24.6200730" lon="-53.7606760">
        <ele>515.3</ele>
        <time>2018-09-15T19:05:27Z</time>
      </trkpt>
      <trkpt lat="-24.6201000" lon="-53.7606690">
        <ele>515.4</ele>
        <time>2018-09-15T19:05:28Z</time>
      </trkpt>
      <trkpt lat="-24.6201260" lon="-53.7606590">
        <ele>515.5</ele>
        <time>2018-09-15T19:05:29Z</time>
      </trkpt>
      <trkpt lat="-24.6201520" lon="-53.7606500">
        <ele>515.5</ele>
        <time>2018-09-15T19:05:30Z</time>
      </trkpt>
      <trkpt lat="-24.6201780" lon="-53.7606410">
        <ele>515.6</ele>
        <time>2018-09-15T19:05:31Z</time>
      </trkpt>
      <trkpt lat="-24.6202050" lon="-53.7606320">
        <ele>515.8</ele>
        <time>2018-09-15T19:05:32Z</time>
      </trkpt>
      <trkpt lat="-24.6202310" lon="-53.7606230">
        <ele>515.9</ele>
        <time>2018-09-15T19:05:33Z</time>
      </trkpt>
      <trkpt lat="-24.6202570" lon="-53.7606140">
        <ele>516.0</ele>
        <time>2018-09-15T19:05:34Z</time>
      </trkpt>
      <trkpt lat="-24.6202840" lon="-53.7606060">
        <ele>516.1</ele>
        <time>2018-09-15T19:05:35Z</time>
      </trkpt>
      <trkpt lat="-24.6203100" lon="-53.7605980">
        <ele>516.2</ele>
        <time>2018-09-15T19:05:36Z</time>
      </trkpt>
      <trkpt lat="-24.6203380" lon="-53.7605890">
        <ele>516.3</ele>
        <time>2018-09-15T19:05:37Z</time>
      </trkpt>
      <trkpt lat="-24.6203650" lon="-53.7605780">
        <ele>516.4</ele>
        <time>2018-09-15T19:05:38Z</time>
      </trkpt>
      <trkpt lat="-24.6203920" lon="-53.7605670">
        <ele>516.5</ele>
        <time>2018-09-15T19:05:39Z</time>
      </trkpt>
      <trkpt lat="-24.6204190" lon="-53.7605580">
        <ele>516.6</ele>
        <time>2018-09-15T19:05:40Z</time>
      </trkpt>
      <trkpt lat="-24.6204460" lon="-53.7605510">
        <ele>516.7</ele>
        <time>2018-09-15T19:05:41Z</time>
      </trkpt>
      <trkpt lat="-24.6204730" lon="-53.7605440">
        <ele>516.8</ele>
        <time>2018-09-15T19:05:42Z</time>
      </trkpt>
      <trkpt lat="-24.6205000" lon="-53.7605360">
        <ele>516.9</ele>
        <time>2018-09-15T19:05:43Z</time>
      </trkpt>
      <trkpt lat="-24.6205270" lon="-53.7605270">
        <ele>517.0</ele>
        <time>2018-09-15T19:05:44Z</time>
      </trkpt>
      <trkpt lat="-24.6205530" lon="-53.7605180">
        <ele>517.1</ele>
        <time>2018-09-15T19:05:45Z</time>
      </trkpt>
      <trkpt lat="-24.6205790" lon="-53.7605080">
        <ele>517.2</ele>
        <time>2018-09-15T19:05:46Z</time>
      </trkpt>
      <trkpt lat="-24.6206060" lon="-53.7604990">
        <ele>517.3</ele>
        <time>2018-09-15T19:05:47Z</time>
      </trkpt>
      <trkpt lat="-24.6206340" lon="-53.7604900">
        <ele>517.4</ele>
        <time>2018-09-15T19:05:48Z</time>
      </trkpt>
      <trkpt lat="-24.6206620" lon="-53.7604810">
        <ele>517.5</ele>
        <time>2018-09-15T19:05:49Z</time>
      </trkpt>
      <trkpt lat="-24.6206900" lon="-53.7604720">
        <ele>517.7</ele>
        <time>2018-09-15T19:05:50Z</time>
      </trkpt>
      <trkpt lat="-24.6207170" lon="-53.7604630">
        <ele>517.8</ele>
        <time>2018-09-15T19:05:51Z</time>
      </trkpt>
      <trkpt lat="-24.6207430" lon="-53.7604540">
        <ele>517.9</ele>
        <time>2018-09-15T19:05:52Z</time>
      </trkpt>
      <trkpt lat="-24.6207690" lon="-53.7604450">
        <ele>518.0</ele>
        <time>2018-09-15T19:05:53Z</time>
      </trkpt>
      <trkpt lat="-24.6207950" lon="-53.7604350">
        <ele>518.1</ele>
        <time>2018-09-15T19:05:54Z</time>
      </trkpt>
      <trkpt lat="-24.6208220" lon="-53.7604280">
        <ele>518.3</ele>
        <time>2018-09-15T19:05:55Z</time>
      </trkpt>
      <trkpt lat="-24.6208500" lon="-53.7604190">
        <ele>518.4</ele>
        <time>2018-09-15T19:05:56Z</time>
      </trkpt>
      <trkpt lat="-24.6208780" lon="-53.7604110">
        <ele>518.5</ele>
        <time>2018-09-15T19:05:57Z</time>
      </trkpt>
      <trkpt lat="-24.6209050" lon="-53.7604040">
        <ele>518.6</ele>
        <time>2018-09-15T19:05:58Z</time>
      </trkpt>
      <trkpt lat="-24.6209580" lon="-53.7603860">
        <ele>518.9</ele>
        <time>2018-09-15T19:05:59Z</time>
      </trkpt>
      <trkpt lat="-24.6209840" lon="-53.7603770">
        <ele>519.0</ele>
        <time>2018-09-15T19:06:01Z</time>
      </trkpt>
      <trkpt lat="-24.6210120" lon="-53.7603680">
        <ele>519.2</ele>
        <time>2018-09-15T19:06:02Z</time>
      </trkpt>
      <trkpt lat="-24.6210390" lon="-53.7603580">
        <ele>519.3</ele>
        <time>2018-09-15T19:06:03Z</time>
      </trkpt>
      <trkpt lat="-24.6210680" lon="-53.7603490">
        <ele>519.4</ele>
        <time>2018-09-15T19:06:04Z</time>
      </trkpt>
      <trkpt lat="-24.6210950" lon="-53.7603370">
        <ele>519.6</ele>
        <time>2018-09-15T19:06:05Z</time>
      </trkpt>
      <trkpt lat="-24.6211230" lon="-53.7603270">
        <ele>519.7</ele>
        <time>2018-09-15T19:06:06Z</time>
      </trkpt>
      <trkpt lat="-24.6211520" lon="-53.7603190">
        <ele>519.9</ele>
        <time>2018-09-15T19:06:07Z</time>
      </trkpt>
      <trkpt lat="-24.6211790" lon="-53.7603100">
        <ele>520.0</ele>
        <time>2018-09-15T19:06:08Z</time>
      </trkpt>
      <trkpt lat="-24.6212060" lon="-53.7603000">
        <ele>520.1</ele>
        <time>2018-09-15T19:06:09Z</time>
      </trkpt>
      <trkpt lat="-24.6212320" lon="-53.7602900">
        <ele>520.1</ele>
        <time>2018-09-15T19:06:10Z</time>
      </trkpt>
      <trkpt lat="-24.6212580" lon="-53.7602820">
        <ele>520.1</ele>
        <time>2018-09-15T19:06:11Z</time>
      </trkpt>
      <trkpt lat="-24.6212850" lon="-53.7602730">
        <ele>520.2</ele>
        <time>2018-09-15T19:06:12Z</time>
      </trkpt>
      <trkpt lat="-24.6213120" lon="-53.7602670">
        <ele>520.2</ele>
        <time>2018-09-15T19:06:13Z</time>
      </trkpt>
      <trkpt lat="-24.6213400" lon="-53.7602600">
        <ele>520.3</ele>
        <time>2018-09-15T19:06:14Z</time>
      </trkpt>
      <trkpt lat="-24.6213950" lon="-53.7602400">
        <ele>520.4</ele>
        <time>2018-09-15T19:06:15Z</time>
      </trkpt>
      <trkpt lat="-24.6214210" lon="-53.7602320">
        <ele>520.4</ele>
        <time>2018-09-15T19:06:16Z</time>
      </trkpt>
      <trkpt lat="-24.6214760" lon="-53.7602130">
        <ele>520.5</ele>
        <time>2018-09-15T19:06:18Z</time>
      </trkpt>
      <trkpt lat="-24.6215020" lon="-53.7602040">
        <ele>520.5</ele>
        <time>2018-09-15T19:06:19Z</time>
      </trkpt>
      <trkpt lat="-24.6215300" lon="-53.7601960">
        <ele>520.6</ele>
        <time>2018-09-15T19:06:20Z</time>
      </trkpt>
      <trkpt lat="-24.6215590" lon="-53.7601860">
        <ele>520.6</ele>
        <time>2018-09-15T19:06:21Z</time>
      </trkpt>
      <trkpt lat="-24.6215870" lon="-53.7601760">
        <ele>520.7</ele>
        <time>2018-09-15T19:06:22Z</time>
      </trkpt>
      <trkpt lat="-24.6216140" lon="-53.7601660">
        <ele>520.7</ele>
        <time>2018-09-15T19:06:23Z</time>
      </trkpt>
      <trkpt lat="-24.6216440" lon="-53.7601570">
        <ele>520.8</ele>
        <time>2018-09-15T19:06:24Z</time>
      </trkpt>
      <trkpt lat="-24.6216740" lon="-53.7601470">
        <ele>520.8</ele>
        <time>2018-09-15T19:06:25Z</time>
      </trkpt>
      <trkpt lat="-24.6217040" lon="-53.7601370">
        <ele>520.9</ele>
        <time>2018-09-15T19:06:26Z</time>
      </trkpt>
      <trkpt lat="-24.6217350" lon="-53.7601270">
        <ele>521.0</ele>
        <time>2018-09-15T19:06:27Z</time>
      </trkpt>
      <trkpt lat="-24.6217660" lon="-53.7601170">
        <ele>521.0</ele>
        <time>2018-09-15T19:06:28Z</time>
      </trkpt>
      <trkpt lat="-24.6217960" lon="-53.7601070">
        <ele>521.1</ele>
        <time>2018-09-15T19:06:29Z</time>
      </trkpt>
      <trkpt lat="-24.6218250" lon="-53.7600970">
        <ele>521.1</ele>
        <time>2018-09-15T19:06:30Z</time>
      </trkpt>
      <trkpt lat="-24.6218550" lon="-53.7600860">
        <ele>521.2</ele>
        <time>2018-09-15T19:06:31Z</time>
      </trkpt>
      <trkpt lat="-24.6218850" lon="-53.7600770">
        <ele>521.2</ele>
        <time>2018-09-15T19:06:32Z</time>
      </trkpt>
      <trkpt lat="-24.6219150" lon="-53.7600690">
        <ele>521.4</ele>
        <time>2018-09-15T19:06:33Z</time>
      </trkpt>
      <trkpt lat="-24.6219450" lon="-53.7600590">
        <ele>521.5</ele>
        <time>2018-09-15T19:06:34Z</time>
      </trkpt>
      <trkpt lat="-24.6219730" lon="-53.7600510">
        <ele>521.6</ele>
        <time>2018-09-15T19:06:35Z</time>
      </trkpt>
      <trkpt lat="-24.6220040" lon="-53.7600420">
        <ele>521.7</ele>
        <time>2018-09-15T19:06:36Z</time>
      </trkpt>
      <trkpt lat="-24.6220610" lon="-53.7600240">
        <ele>521.9</ele>
        <time>2018-09-15T19:06:38Z</time>
      </trkpt>
      <trkpt lat="-24.6220920" lon="-53.7600150">
        <ele>522.0</ele>
        <time>2018-09-15T19:06:39Z</time>
      </trkpt>
      <trkpt lat="-24.6221230" lon="-53.7600040">
        <ele>522.1</ele>
        <time>2018-09-15T19:06:40Z</time>
      </trkpt>
      <trkpt lat="-24.6221520" lon="-53.7599930">
        <ele>522.2</ele>
        <time>2018-09-15T19:06:41Z</time>
      </trkpt>
      <trkpt lat="-24.6221810" lon="-53.7599820">
        <ele>522.3</ele>
        <time>2018-09-15T19:06:42Z</time>
      </trkpt>
      <trkpt lat="-24.6222090" lon="-53.7599720">
        <ele>522.4</ele>
        <time>2018-09-15T19:06:43Z</time>
      </trkpt>
      <trkpt lat="-24.6222340" lon="-53.7599610">
        <ele>522.5</ele>
        <time>2018-09-15T19:06:44Z</time>
      </trkpt>
      <trkpt lat="-24.6222650" lon="-53.7599540">
        <ele>522.6</ele>
        <time>2018-09-15T19:06:45Z</time>
      </trkpt>
      <trkpt lat="-24.6222950" lon="-53.7599430">
        <ele>522.7</ele>
        <time>2018-09-15T19:06:46Z</time>
      </trkpt>
      <trkpt lat="-24.6223250" lon="-53.7599310">
        <ele>522.8</ele>
        <time>2018-09-15T19:06:47Z</time>
      </trkpt>
      <trkpt lat="-24.6223500" lon="-53.7599190">
        <ele>522.8</ele>
        <time>2018-09-15T19:06:48Z</time>
      </trkpt>
      <trkpt lat="-24.6223790" lon="-53.7599110">
        <ele>522.9</ele>
        <time>2018-09-15T19:06:49Z</time>
      </trkpt>
      <trkpt lat="-24.6224110" lon="-53.7599010">
        <ele>523.0</ele>
        <time>2018-09-15T19:06:50Z</time>
      </trkpt>
      <trkpt lat="-24.6224380" lon="-53.7598910">
        <ele>523.1</ele>
        <time>2018-09-15T19:06:51Z</time>
      </trkpt>
      <trkpt lat="-24.6224660" lon="-53.7598790">
        <ele>523.2</ele>
        <time>2018-09-15T19:06:52Z</time>
      </trkpt>
      <trkpt lat="-24.6224950" lon="-53.7598700">
        <ele>523.2</ele>
        <time>2018-09-15T19:06:53Z</time>
      </trkpt>
      <trkpt lat="-24.6225250" lon="-53.7598650">
        <ele>523.3</ele>
        <time>2018-09-15T19:06:54Z</time>
      </trkpt>
      <trkpt lat="-24.6225550" lon="-53.7598540">
        <ele>523.3</ele>
        <time>2018-09-15T19:06:55Z</time>
      </trkpt>
      <trkpt lat="-24.6225860" lon="-53.7598430">
        <ele>523.4</ele>
        <time>2018-09-15T19:06:56Z</time>
      </trkpt>
      <trkpt lat="-24.6225860" lon="-53.7598430">
        <ele>523.4</ele>
        <time>2018-09-15T19:06:57Z</time>
      </trkpt>
      <trkpt lat="-24.6226160" lon="-53.7598320">
        <ele>523.4</ele>
        <time>2018-09-15T19:06:58Z</time>
      </trkpt>
      <trkpt lat="-24.6226420" lon="-53.7598220">
        <ele>523.5</ele>
        <time>2018-09-15T19:06:59Z</time>
      </trkpt>
      <trkpt lat="-24.6226720" lon="-53.7598110">
        <ele>523.5</ele>
        <time>2018-09-15T19:07:00Z</time>
      </trkpt>
      <trkpt lat="-24.6227020" lon="-53.7598020">
        <ele>523.6</ele>
        <time>2018-09-15T19:07:01Z</time>
      </trkpt>
      <trkpt lat="-24.6227320" lon="-53.7597930">
        <ele>523.6</ele>
        <time>2018-09-15T19:07:02Z</time>
      </trkpt>
      <trkpt lat="-24.6227600" lon="-53.7597830">
        <ele>523.6</ele>
        <time>2018-09-15T19:07:03Z</time>
      </trkpt>
      <trkpt lat="-24.6227920" lon="-53.7597740">
        <ele>523.7</ele>
        <time>2018-09-15T19:07:04Z</time>
      </trkpt>
      <trkpt lat="-24.6228230" lon="-53.7597640">
        <ele>523.7</ele>
        <time>2018-09-15T19:07:05Z</time>
      </trkpt>
      <trkpt lat="-24.6228560" lon="-53.7597520">
        <ele>523.8</ele>
        <time>2018-09-15T19:07:06Z</time>
      </trkpt>
      <trkpt lat="-24.6228910" lon="-53.7597410">
        <ele>523.8</ele>
        <time>2018-09-15T19:07:07Z</time>
      </trkpt>
      <trkpt lat="-24.6229270" lon="-53.7597310">
        <ele>523.9</ele>
        <time>2018-09-15T19:07:08Z</time>
      </trkpt>
      <trkpt lat="-24.6229600" lon="-53.7597220">
        <ele>523.9</ele>
        <time>2018-09-15T19:07:09Z</time>
      </trkpt>
      <trkpt lat="-24.6229950" lon="-53.7597120">
        <ele>524.0</ele>
        <time>2018-09-15T19:07:10Z</time>
      </trkpt>
      <trkpt lat="-24.6230290" lon="-53.7597040">
        <ele>524.1</ele>
        <time>2018-09-15T19:07:11Z</time>
      </trkpt>
      <trkpt lat="-24.6230630" lon="-53.7596940">
        <ele>524.2</ele>
        <time>2018-09-15T19:07:12Z</time>
      </trkpt>
      <trkpt lat="-24.6230960" lon="-53.7596850">
        <ele>524.3</ele>
        <time>2018-09-15T19:07:13Z</time>
      </trkpt>
      <trkpt lat="-24.6231310" lon="-53.7596750">
        <ele>524.4</ele>
        <time>2018-09-15T19:07:14Z</time>
      </trkpt>
      <trkpt lat="-24.6231660" lon="-53.7596640">
        <ele>524.5</ele>
        <time>2018-09-15T19:07:15Z</time>
      </trkpt>
      <trkpt lat="-24.6232030" lon="-53.7596530">
        <ele>524.7</ele>
        <time>2018-09-15T19:07:16Z</time>
      </trkpt>
      <trkpt lat="-24.6232400" lon="-53.7596390">
        <ele>524.8</ele>
        <time>2018-09-15T19:07:17Z</time>
      </trkpt>
      <trkpt lat="-24.6232750" lon="-53.7596300">
        <ele>524.9</ele>
        <time>2018-09-15T19:07:18Z</time>
      </trkpt>
      <trkpt lat="-24.6233120" lon="-53.7596200">
        <ele>525.0</ele>
        <time>2018-09-15T19:07:19Z</time>
      </trkpt>
      <trkpt lat="-24.6233490" lon="-53.7596080">
        <ele>525.1</ele>
        <time>2018-09-15T19:07:20Z</time>
      </trkpt>
      <trkpt lat="-24.6233860" lon="-53.7595970">
        <ele>525.2</ele>
        <time>2018-09-15T19:07:21Z</time>
      </trkpt>
      <trkpt lat="-24.6234230" lon="-53.7595870">
        <ele>525.4</ele>
        <time>2018-09-15T19:07:22Z</time>
      </trkpt>
      <trkpt lat="-24.6234610" lon="-53.7595740">
        <ele>525.5</ele>
        <time>2018-09-15T19:07:23Z</time>
      </trkpt>
      <trkpt lat="-24.6235000" lon="-53.7595620">
        <ele>525.6</ele>
        <time>2018-09-15T19:07:24Z</time>
      </trkpt>
      <trkpt lat="-24.6235390" lon="-53.7595520">
        <ele>525.7</ele>
        <time>2018-09-15T19:07:25Z</time>
      </trkpt>
      <trkpt lat="-24.6235790" lon="-53.7595390">
        <ele>525.8</ele>
        <time>2018-09-15T19:07:26Z</time>
      </trkpt>
      <trkpt lat="-24.6236170" lon="-53.7595300">
        <ele>525.9</ele>
        <time>2018-09-15T19:07:27Z</time>
      </trkpt>
      <trkpt lat="-24.6236540" lon="-53.7595190">
        <ele>526.0</ele>
        <time>2018-09-15T19:07:28Z</time>
      </trkpt>
      <trkpt lat="-24.6236910" lon="-53.7595050">
        <ele>526.1</ele>
        <time>2018-09-15T19:07:29Z</time>
      </trkpt>
      <trkpt lat="-24.6237280" lon="-53.7594920">
        <ele>526.2</ele>
        <time>2018-09-15T19:07:30Z</time>
      </trkpt>
      <trkpt lat="-24.6237650" lon="-53.7594800">
        <ele>526.2</ele>
        <time>2018-09-15T19:07:31Z</time>
      </trkpt>
      <trkpt lat="-24.6238030" lon="-53.7594680">
        <ele>526.3</ele>
        <time>2018-09-15T19:07:32Z</time>
      </trkpt>
      <trkpt lat="-24.6238400" lon="-53.7594550">
        <ele>526.4</ele>
        <time>2018-09-15T19:07:33Z</time>
      </trkpt>
      <trkpt lat="-24.6238790" lon="-53.7594430">
        <ele>526.5</ele>
        <time>2018-09-15T19:07:34Z</time>
      </trkpt>
      <trkpt lat="-24.6239170" lon="-53.7594300">
        <ele>526.6</ele>
        <time>2018-09-15T19:07:35Z</time>
      </trkpt>
      <trkpt lat="-24.6239560" lon="-53.7594170">
        <ele>526.7</ele>
        <time>2018-09-15T19:07:36Z</time>
      </trkpt>
      <trkpt lat="-24.6239950" lon="-53.7594060">
        <ele>526.8</ele>
        <time>2018-09-15T19:07:37Z</time>
      </trkpt>
      <trkpt lat="-24.6240360" lon="-53.7593940">
        <ele>526.9</ele>
        <time>2018-09-15T19:07:38Z</time>
      </trkpt>
      <trkpt lat="-24.6240760" lon="-53.7593810">
        <ele>527.0</ele>
        <time>2018-09-15T19:07:39Z</time>
      </trkpt>
      <trkpt lat="-24.6241160" lon="-53.7593680">
        <ele>527.1</ele>
        <time>2018-09-15T19:07:40Z</time>
      </trkpt>
      <trkpt lat="-24.6241550" lon="-53.7593540">
        <ele>527.2</ele>
        <time>2018-09-15T19:07:41Z</time>
      </trkpt>
      <trkpt lat="-24.6241950" lon="-53.7593390">
        <ele>527.3</ele>
        <time>2018-09-15T19:07:42Z</time>
      </trkpt>
      <trkpt lat="-24.6242390" lon="-53.7593250">
        <ele>527.5</ele>
        <time>2018-09-15T19:07:43Z</time>
      </trkpt>
      <trkpt lat="-24.6242810" lon="-53.7593110">
        <ele>527.6</ele>
        <time>2018-09-15T19:07:44Z</time>
      </trkpt>
      <trkpt lat="-24.6243230" lon="-53.7592970">
        <ele>527.7</ele>
        <time>2018-09-15T19:07:45Z</time>
      </trkpt>
      <trkpt lat="-24.6243660" lon="-53.7592830">
        <ele>527.8</ele>
        <time>2018-09-15T19:07:46Z</time>
      </trkpt>
      <trkpt lat="-24.6244080" lon="-53.7592700">
        <ele>528.0</ele>
        <time>2018-09-15T19:07:47Z</time>
      </trkpt>
      <trkpt lat="-24.6244480" lon="-53.7592560">
        <ele>528.0</ele>
        <time>2018-09-15T19:07:48Z</time>
      </trkpt>
      <trkpt lat="-24.6244880" lon="-53.7592410">
        <ele>528.0</ele>
        <time>2018-09-15T19:07:49Z</time>
      </trkpt>
      <trkpt lat="-24.6245280" lon="-53.7592260">
        <ele>528.0</ele>
        <time>2018-09-15T19:07:50Z</time>
      </trkpt>
      <trkpt lat="-24.6245670" lon="-53.7592100">
        <ele>528.0</ele>
        <time>2018-09-15T19:07:51Z</time>
      </trkpt>
      <trkpt lat="-24.6246060" lon="-53.7591970">
        <ele>528.0</ele>
        <time>2018-09-15T19:07:52Z</time>
      </trkpt>
      <trkpt lat="-24.6246430" lon="-53.7591850">
        <ele>528.1</ele>
        <time>2018-09-15T19:07:53Z</time>
      </trkpt>
      <trkpt lat="-24.6246810" lon="-53.7591720">
        <ele>528.1</ele>
        <time>2018-09-15T19:07:54Z</time>
      </trkpt>
      <trkpt lat="-24.6247190" lon="-53.7591640">
        <ele>528.1</ele>
        <time>2018-09-15T19:07:55Z</time>
      </trkpt>
      <trkpt lat="-24.6247560" lon="-53.7591530">
        <ele>528.1</ele>
        <time>2018-09-15T19:07:56Z</time>
      </trkpt>
      <trkpt lat="-24.6247930" lon="-53.7591390">
        <ele>528.1</ele>
        <time>2018-09-15T19:07:57Z</time>
      </trkpt>
      <trkpt lat="-24.6248270" lon="-53.7591240">
        <ele>528.1</ele>
        <time>2018-09-15T19:07:58Z</time>
      </trkpt>
      <trkpt lat="-24.6248610" lon="-53.7591110">
        <ele>528.1</ele>
        <time>2018-09-15T19:07:59Z</time>
      </trkpt>
      <trkpt lat="-24.6248920" lon="-53.7590950">
        <ele>528.1</ele>
        <time>2018-09-15T19:08:00Z</time>
      </trkpt>
      <trkpt lat="-24.6249190" lon="-53.7590800">
        <ele>528.1</ele>
        <time>2018-09-15T19:08:01Z</time>
      </trkpt>
      <trkpt lat="-24.6249450" lon="-53.7590630">
        <ele>528.1</ele>
        <time>2018-09-15T19:08:02Z</time>
      </trkpt>
      <trkpt lat="-24.6249680" lon="-53.7590470">
        <ele>528.1</ele>
        <time>2018-09-15T19:08:03Z</time>
      </trkpt>
      <trkpt lat="-24.6249860" lon="-53.7590270">
        <ele>528.1</ele>
        <time>2018-09-15T19:08:04Z</time>
      </trkpt>
      <trkpt lat="-24.6249950" lon="-53.7590030">
        <ele>528.1</ele>
        <time>2018-09-15T19:08:05Z</time>
      </trkpt>
      <trkpt lat="-24.6249970" lon="-53.7589740">
        <ele>528.1</ele>
        <time>2018-09-15T19:08:06Z</time>
      </trkpt>
      <trkpt lat="-24.6249950" lon="-53.7589460">
        <ele>528.1</ele>
        <time>2018-09-15T19:08:07Z</time>
      </trkpt>
      <trkpt lat="-24.6249910" lon="-53.7589220">
        <ele>528.1</ele>
        <time>2018-09-15T19:08:08Z</time>
      </trkpt>
      <trkpt lat="-24.6249900" lon="-53.7589070">
        <ele>528.1</ele>
        <time>2018-09-15T19:08:09Z</time>
      </trkpt>
      <trkpt lat="-24.6249880" lon="-53.7589040">
        <ele>528.1</ele>
        <time>2018-09-15T19:08:10Z</time>
      </trkpt>
      <trkpt lat="-24.6249880" lon="-53.7589060">
        <ele>528.1</ele>
        <time>2018-09-15T19:08:11Z</time>
      </trkpt>
      <trkpt lat="-24.6249950" lon="-53.7588930">
        <ele>527.6</ele>
        <time>2018-09-15T19:08:43Z</time>
      </trkpt>
      <trkpt lat="-24.6249920" lon="-53.7588920">
        <ele>527.6</ele>
        <time>2018-09-15T19:08:44Z</time>
      </trkpt>
      <trkpt lat="-24.6249920" lon="-53.7588900">
        <ele>527.6</ele>
        <time>2018-09-15T19:08:45Z</time>
      </trkpt>
      <trkpt lat="-24.6249760" lon="-53.7589000">
        <ele>527.7</ele>
        <time>2018-09-15T19:25:04Z</time>
      </trkpt>
      <trkpt lat="-24.6249790" lon="-53.7589010">
        <ele>528.1</ele>
        <time>2018-09-15T19:25:05Z</time>
      </trkpt>
      <trkpt lat="-24.6249810" lon="-53.7589070">
        <ele>528.1</ele>
        <time>2018-09-15T19:25:06Z</time>
      </trkpt>
      <trkpt lat="-24.6249810" lon="-53.7589120">
        <ele>528.1</ele>
        <time>2018-09-15T19:25:07Z</time>
      </trkpt>
      <trkpt lat="-24.6249800" lon="-53.7589170">
        <ele>528.1</ele>
        <time>2018-09-15T19:25:08Z</time>
      </trkpt>
      <trkpt lat="-24.6249810" lon="-53.7589230">
        <ele>528.1</ele>
        <time>2018-09-15T19:25:09Z</time>
      </trkpt>
      <trkpt lat="-24.6249810" lon="-53.7589260">
        <ele>528.1</ele>
        <time>2018-09-15T19:25:10Z</time>
      </trkpt>
      <trkpt lat="-24.6249830" lon="-53.7589290">
        <ele>528.1</ele>
        <time>2018-09-15T19:25:11Z</time>
      </trkpt>
      <trkpt lat="-24.6249850" lon="-53.7589350">
        <ele>528.1</ele>
        <time>2018-09-15T19:25:12Z</time>
      </trkpt>
      <trkpt lat="-24.6249880" lon="-53.7589400">
        <ele>528.1</ele>
        <time>2018-09-15T19:25:13Z</time>
      </trkpt>
      <trkpt lat="-24.6249910" lon="-53.7589450">
        <ele>528.1</ele>
        <time>2018-09-15T19:25:14Z</time>
      </trkpt>
      <trkpt lat="-24.6249960" lon="-53.7589500">
        <ele>528.1</ele>
        <time>2018-09-15T19:25:15Z</time>
      </trkpt>
      <trkpt lat="-24.6250010" lon="-53.7589560">
        <ele>528.1</ele>
        <time>2018-09-15T19:25:16Z</time>
      </trkpt>
      <trkpt lat="-24.6250090" lon="-53.7589640">
        <ele>528.1</ele>
        <time>2018-09-15T19:25:17Z</time>
      </trkpt>
      <trkpt lat="-24.6250190" lon="-53.7589660">
        <ele>528.1</ele>
        <time>2018-09-15T19:25:18Z</time>
      </trkpt>
      <trkpt lat="-24.6250290" lon="-53.7589650">
        <ele>528.1</ele>
        <time>2018-09-15T19:25:19Z</time>
      </trkpt>
      <trkpt lat="-24.6250370" lon="-53.7589620">
        <ele>528.1</ele>
        <time>2018-09-15T19:25:20Z</time>
      </trkpt>
      <trkpt lat="-24.6250430" lon="-53.7589580">
        <ele>528.1</ele>
        <time>2018-09-15T19:25:21Z</time>
      </trkpt>
      <trkpt lat="-24.6250460" lon="-53.7589560">
        <ele>528.1</ele>
        <time>2018-09-15T19:25:22Z</time>
      </trkpt>
      <trkpt lat="-24.6250470" lon="-53.7589540">
        <ele>528.1</ele>
        <time>2018-09-15T19:25:23Z</time>
      </trkpt>
      <trkpt lat="-24.6250470" lon="-53.7589550">
        <ele>528.1</ele>
        <time>2018-09-15T19:25:25Z</time>
      </trkpt>
      <trkpt lat="-24.6250640" lon="-53.7589430">
        <ele>528.0</ele>
        <time>2018-09-15T19:27:16Z</time>
      </trkpt>
      <trkpt lat="-24.6250710" lon="-53.7589430">
        <ele>528.0</ele>
        <time>2018-09-15T19:27:17Z</time>
      </trkpt>
      <trkpt lat="-24.6250790" lon="-53.7589410">
        <ele>528.0</ele>
        <time>2018-09-15T19:27:18Z</time>
      </trkpt>
      <trkpt lat="-24.6250890" lon="-53.7589380">
        <ele>528.0</ele>
        <time>2018-09-15T19:27:19Z</time>
      </trkpt>
      <trkpt lat="-24.6250920" lon="-53.7589370">
        <ele>528.0</ele>
        <time>2018-09-15T19:27:20Z</time>
      </trkpt>
      <trkpt lat="-24.6250940" lon="-53.7589370">
        <ele>528.0</ele>
        <time>2018-09-15T19:27:21Z</time>
      </trkpt>
      <trkpt lat="-24.6251100" lon="-53.7589380">
        <ele>528.0</ele>
        <time>2018-09-15T19:29:59Z</time>
      </trkpt>
      <trkpt lat="-24.6251110" lon="-53.7589380">
        <ele>528.0</ele>
        <time>2018-09-15T19:30:00Z</time>
      </trkpt>
      <trkpt lat="-24.6251100" lon="-53.7589390">
        <ele>528.0</ele>
        <time>2018-09-15T19:30:01Z</time>
      </trkpt>
      <trkpt lat="-24.6251010" lon="-53.7589750">
        <ele>528.0</ele>
        <time>2018-09-15T19:32:05Z</time>
      </trkpt>
      <trkpt lat="-24.6251100" lon="-53.7589750">
        <ele>528.0</ele>
        <time>2018-09-15T19:32:06Z</time>
      </trkpt>
      <trkpt lat="-24.6251190" lon="-53.7589750">
        <ele>528.0</ele>
        <time>2018-09-15T19:32:07Z</time>
      </trkpt>
      <trkpt lat="-24.6251320" lon="-53.7589710">
        <ele>528.0</ele>
        <time>2018-09-15T19:32:08Z</time>
      </trkpt>
      <trkpt lat="-24.6251480" lon="-53.7589660">
        <ele>528.0</ele>
        <time>2018-09-15T19:32:09Z</time>
      </trkpt>
      <trkpt lat="-24.6251630" lon="-53.7589570">
        <ele>528.0</ele>
        <time>2018-09-15T19:32:10Z</time>
      </trkpt>
      <trkpt lat="-24.6251820" lon="-53.7589490">
        <ele>528.0</ele>
        <time>2018-09-15T19:32:11Z</time>
      </trkpt>
      <trkpt lat="-24.6252050" lon="-53.7589430">
        <ele>528.0</ele>
        <time>2018-09-15T19:32:12Z</time>
      </trkpt>
      <trkpt lat="-24.6252270" lon="-53.7589460">
        <ele>528.0</ele>
        <time>2018-09-15T19:32:13Z</time>
      </trkpt>
      <trkpt lat="-24.6252500" lon="-53.7589520">
        <ele>528.0</ele>
        <time>2018-09-15T19:32:14Z</time>
      </trkpt>
      <trkpt lat="-24.6252720" lon="-53.7589590">
        <ele>528.0</ele>
        <time>2018-09-15T19:32:15Z</time>
      </trkpt>
      <trkpt lat="-24.6252980" lon="-53.7589630">
        <ele>528.0</ele>
        <time>2018-09-15T19:32:16Z</time>
      </trkpt>
      <trkpt lat="-24.6253230" lon="-53.7589610">
        <ele>528.0</ele>
        <time>2018-09-15T19:32:17Z</time>
      </trkpt>
      <trkpt lat="-24.6253490" lon="-53.7589560">
        <ele>528.0</ele>
        <time>2018-09-15T19:32:18Z</time>
      </trkpt>
      <trkpt lat="-24.6253760" lon="-53.7589480">
        <ele>528.0</ele>
        <time>2018-09-15T19:32:19Z</time>
      </trkpt>
      <trkpt lat="-24.6254030" lon="-53.7589420">
        <ele>528.0</ele>
        <time>2018-09-15T19:32:20Z</time>
      </trkpt>
      <trkpt lat="-24.6254320" lon="-53.7589360">
        <ele>528.0</ele>
        <time>2018-09-15T19:32:21Z</time>
      </trkpt>
      <trkpt lat="-24.6254580" lon="-53.7589300">
        <ele>528.0</ele>
        <time>2018-09-15T19:32:22Z</time>
      </trkpt>
      <trkpt lat="-24.6254850" lon="-53.7589220">
        <ele>528.0</ele>
        <time>2018-09-15T19:32:23Z</time>
      </trkpt>
      <trkpt lat="-24.6255150" lon="-53.7589120">
        <ele>528.0</ele>
        <time>2018-09-15T19:32:24Z</time>
      </trkpt>
      <trkpt lat="-24.6255440" lon="-53.7589020">
        <ele>528.0</ele>
        <time>2018-09-15T19:32:25Z</time>
      </trkpt>
      <trkpt lat="-24.6255740" lon="-53.7588920">
        <ele>528.1</ele>
        <time>2018-09-15T19:32:26Z</time>
      </trkpt>
      <trkpt lat="-24.6256020" lon="-53.7588820">
        <ele>528.1</ele>
        <time>2018-09-15T19:32:27Z</time>
      </trkpt>
      <trkpt lat="-24.6256310" lon="-53.7588720">
        <ele>528.2</ele>
        <time>2018-09-15T19:32:28Z</time>
      </trkpt>
      <trkpt lat="-24.6256610" lon="-53.7588610">
        <ele>528.2</ele>
        <time>2018-09-15T19:32:29Z</time>
      </trkpt>
      <trkpt lat="-24.6256900" lon="-53.7588500">
        <ele>528.3</ele>
        <time>2018-09-15T19:32:30Z</time>
      </trkpt>
      <trkpt lat="-24.6257190" lon="-53.7588380">
        <ele>528.3</ele>
        <time>2018-09-15T19:32:31Z</time>
      </trkpt>
      <trkpt lat="-24.6257480" lon="-53.7588270">
        <ele>528.4</ele>
        <time>2018-09-15T19:32:32Z</time>
      </trkpt>
      <trkpt lat="-24.6257770" lon="-53.7588180">
        <ele>528.5</ele>
        <time>2018-09-15T19:32:33Z</time>
      </trkpt>
      <trkpt lat="-24.6258060" lon="-53.7588080">
        <ele>528.6</ele>
        <time>2018-09-15T19:32:34Z</time>
      </trkpt>
      <trkpt lat="-24.6258340" lon="-53.7587980">
        <ele>528.6</ele>
        <time>2018-09-15T19:32:35Z</time>
      </trkpt>
      <trkpt lat="-24.6258620" lon="-53.7587880">
        <ele>528.7</ele>
        <time>2018-09-15T19:32:36Z</time>
      </trkpt>
      <trkpt lat="-24.6258900" lon="-53.7587780">
        <ele>528.8</ele>
        <time>2018-09-15T19:32:37Z</time>
      </trkpt>
      <trkpt lat="-24.6259170" lon="-53.7587690">
        <ele>528.9</ele>
        <time>2018-09-15T19:32:38Z</time>
      </trkpt>
      <trkpt lat="-24.6259440" lon="-53.7587600">
        <ele>529.0</ele>
        <time>2018-09-15T19:32:39Z</time>
      </trkpt>
      <trkpt lat="-24.6259700" lon="-53.7587500">
        <ele>529.0</ele>
        <time>2018-09-15T19:32:40Z</time>
      </trkpt>
      <trkpt lat="-24.6259970" lon="-53.7587410">
        <ele>529.1</ele>
        <time>2018-09-15T19:32:41Z</time>
      </trkpt>
      <trkpt lat="-24.6260240" lon="-53.7587320">
        <ele>529.2</ele>
        <time>2018-09-15T19:32:42Z</time>
      </trkpt>
      <trkpt lat="-24.6260810" lon="-53.7587100">
        <ele>529.3</ele>
        <time>2018-09-15T19:32:43Z</time>
      </trkpt>
      <trkpt lat="-24.6261110" lon="-53.7587010">
        <ele>529.4</ele>
        <time>2018-09-15T19:32:44Z</time>
      </trkpt>
      <trkpt lat="-24.6261400" lon="-53.7586930">
        <ele>529.5</ele>
        <time>2018-09-15T19:32:45Z</time>
      </trkpt>
      <trkpt lat="-24.6261680" lon="-53.7586830">
        <ele>529.6</ele>
        <time>2018-09-15T19:32:46Z</time>
      </trkpt>
      <trkpt lat="-24.6261970" lon="-53.7586750">
        <ele>529.6</ele>
        <time>2018-09-15T19:32:47Z</time>
      </trkpt>
      <trkpt lat="-24.6262190" lon="-53.7586660">
        <ele>529.7</ele>
        <time>2018-09-15T19:32:48Z</time>
      </trkpt>
      <trkpt lat="-24.6262470" lon="-53.7586550">
        <ele>529.7</ele>
        <time>2018-09-15T19:32:49Z</time>
      </trkpt>
      <trkpt lat="-24.6262770" lon="-53.7586470">
        <ele>529.7</ele>
        <time>2018-09-15T19:32:50Z</time>
      </trkpt>
      <trkpt lat="-24.6263070" lon="-53.7586350">
        <ele>529.8</ele>
        <time>2018-09-15T19:32:51Z</time>
      </trkpt>
      <trkpt lat="-24.6263370" lon="-53.7586240">
        <ele>529.8</ele>
        <time>2018-09-15T19:32:52Z</time>
      </trkpt>
      <trkpt lat="-24.6264000" lon="-53.7586010">
        <ele>529.8</ele>
        <time>2018-09-15T19:32:54Z</time>
      </trkpt>
      <trkpt lat="-24.6264340" lon="-53.7585920">
        <ele>529.9</ele>
        <time>2018-09-15T19:32:55Z</time>
      </trkpt>
      <trkpt lat="-24.6264680" lon="-53.7585840">
        <ele>529.9</ele>
        <time>2018-09-15T19:32:56Z</time>
      </trkpt>
      <trkpt lat="-24.6265010" lon="-53.7585750">
        <ele>529.9</ele>
        <time>2018-09-15T19:32:57Z</time>
      </trkpt>
      <trkpt lat="-24.6265330" lon="-53.7585650">
        <ele>529.9</ele>
        <time>2018-09-15T19:32:58Z</time>
      </trkpt>
      <trkpt lat="-24.6265660" lon="-53.7585560">
        <ele>530.0</ele>
        <time>2018-09-15T19:32:59Z</time>
      </trkpt>
      <trkpt lat="-24.6265990" lon="-53.7585470">
        <ele>530.0</ele>
        <time>2018-09-15T19:33:00Z</time>
      </trkpt>
      <trkpt lat="-24.6266290" lon="-53.7585410">
        <ele>530.0</ele>
        <time>2018-09-15T19:33:01Z</time>
      </trkpt>
      <trkpt lat="-24.6266600" lon="-53.7585310">
        <ele>530.1</ele>
        <time>2018-09-15T19:33:02Z</time>
      </trkpt>
      <trkpt lat="-24.6266950" lon="-53.7585190">
        <ele>530.1</ele>
        <time>2018-09-15T19:33:03Z</time>
      </trkpt>
      <trkpt lat="-24.6267290" lon="-53.7585070">
        <ele>530.2</ele>
        <time>2018-09-15T19:33:04Z</time>
      </trkpt>
      <trkpt lat="-24.6267600" lon="-53.7584970">
        <ele>530.2</ele>
        <time>2018-09-15T19:33:05Z</time>
      </trkpt>
      <trkpt lat="-24.6267930" lon="-53.7584870">
        <ele>530.2</ele>
        <time>2018-09-15T19:33:06Z</time>
      </trkpt>
      <trkpt lat="-24.6268270" lon="-53.7584780">
        <ele>530.3</ele>
        <time>2018-09-15T19:33:07Z</time>
      </trkpt>
      <trkpt lat="-24.6268600" lon="-53.7584690">
        <ele>530.3</ele>
        <time>2018-09-15T19:33:08Z</time>
      </trkpt>
      <trkpt lat="-24.6268950" lon="-53.7584580">
        <ele>530.3</ele>
        <time>2018-09-15T19:33:09Z</time>
      </trkpt>
      <trkpt lat="-24.6269290" lon="-53.7584460">
        <ele>530.4</ele>
        <time>2018-09-15T19:33:10Z</time>
      </trkpt>
      <trkpt lat="-24.6269630" lon="-53.7584370">
        <ele>530.4</ele>
        <time>2018-09-15T19:33:11Z</time>
      </trkpt>
      <trkpt lat="-24.6269960" lon="-53.7584280">
        <ele>530.5</ele>
        <time>2018-09-15T19:33:12Z</time>
      </trkpt>
      <trkpt lat="-24.6270310" lon="-53.7584200">
        <ele>530.5</ele>
        <time>2018-09-15T19:33:13Z</time>
      </trkpt>
      <trkpt lat="-24.6270640" lon="-53.7584090">
        <ele>530.5</ele>
        <time>2018-09-15T19:33:14Z</time>
      </trkpt>
      <trkpt lat="-24.6270980" lon="-53.7583950">
        <ele>530.6</ele>
        <time>2018-09-15T19:33:15Z</time>
      </trkpt>
      <trkpt lat="-24.6271330" lon="-53.7583810">
        <ele>530.6</ele>
        <time>2018-09-15T19:33:16Z</time>
      </trkpt>
      <trkpt lat="-24.6271650" lon="-53.7583670">
        <ele>530.7</ele>
        <time>2018-09-15T19:33:17Z</time>
      </trkpt>
      <trkpt lat="-24.6271980" lon="-53.7583530">
        <ele>530.7</ele>
        <time>2018-09-15T19:33:18Z</time>
      </trkpt>
      <trkpt lat="-24.6272320" lon="-53.7583410">
        <ele>530.8</ele>
        <time>2018-09-15T19:33:19Z</time>
      </trkpt>
      <trkpt lat="-24.6272660" lon="-53.7583270">
        <ele>530.8</ele>
        <time>2018-09-15T19:33:20Z</time>
      </trkpt>
      <trkpt lat="-24.6272660" lon="-53.7583270">
        <ele>530.8</ele>
        <time>2018-09-15T19:33:21Z</time>
      </trkpt>
      <trkpt lat="-24.6272990" lon="-53.7583150">
        <ele>530.9</ele>
        <time>2018-09-15T19:33:22Z</time>
      </trkpt>
      <trkpt lat="-24.6273270" lon="-53.7583090">
        <ele>531.0</ele>
        <time>2018-09-15T19:33:23Z</time>
      </trkpt>
      <trkpt lat="-24.6273590" lon="-53.7583030">
        <ele>531.1</ele>
        <time>2018-09-15T19:33:24Z</time>
      </trkpt>
      <trkpt lat="-24.6273940" lon="-53.7582940">
        <ele>531.2</ele>
        <time>2018-09-15T19:33:25Z</time>
      </trkpt>
      <trkpt lat="-24.6274290" lon="-53.7582830">
        <ele>531.3</ele>
        <time>2018-09-15T19:33:26Z</time>
      </trkpt>
      <trkpt lat="-24.6274640" lon="-53.7582710">
        <ele>531.4</ele>
        <time>2018-09-15T19:33:27Z</time>
      </trkpt>
      <trkpt lat="-24.6274980" lon="-53.7582590">
        <ele>531.5</ele>
        <time>2018-09-15T19:33:28Z</time>
      </trkpt>
      <trkpt lat="-24.6275330" lon="-53.7582480">
        <ele>531.7</ele>
        <time>2018-09-15T19:33:29Z</time>
      </trkpt>
      <trkpt lat="-24.6275670" lon="-53.7582340">
        <ele>531.8</ele>
        <time>2018-09-15T19:33:30Z</time>
      </trkpt>
      <trkpt lat="-24.6275990" lon="-53.7582210">
        <ele>532.0</ele>
        <time>2018-09-15T19:33:31Z</time>
      </trkpt>
      <trkpt lat="-24.6276300" lon="-53.7582070">
        <ele>532.2</ele>
        <time>2018-09-15T19:33:32Z</time>
      </trkpt>
      <trkpt lat="-24.6276610" lon="-53.7581930">
        <ele>532.4</ele>
        <time>2018-09-15T19:33:33Z</time>
      </trkpt>
      <trkpt lat="-24.6276920" lon="-53.7581820">
        <ele>532.5</ele>
        <time>2018-09-15T19:33:34Z</time>
      </trkpt>
      <trkpt lat="-24.6277220" lon="-53.7581720">
        <ele>532.7</ele>
        <time>2018-09-15T19:33:35Z</time>
      </trkpt>
      <trkpt lat="-24.6277520" lon="-53.7581620">
        <ele>532.9</ele>
        <time>2018-09-15T19:33:36Z</time>
      </trkpt>
      <trkpt lat="-24.6277820" lon="-53.7581480">
        <ele>533.1</ele>
        <time>2018-09-15T19:33:37Z</time>
      </trkpt>
      <trkpt lat="-24.6278110" lon="-53.7581390">
        <ele>533.3</ele>
        <time>2018-09-15T19:33:38Z</time>
      </trkpt>
      <trkpt lat="-24.6278430" lon="-53.7581290">
        <ele>533.5</ele>
        <time>2018-09-15T19:33:39Z</time>
      </trkpt>
      <trkpt lat="-24.6278740" lon="-53.7581200">
        <ele>533.7</ele>
        <time>2018-09-15T19:33:40Z</time>
      </trkpt>
      <trkpt lat="-24.6279070" lon="-53.7581090">
        <ele>533.9</ele>
        <time>2018-09-15T19:33:41Z</time>
      </trkpt>
      <trkpt lat="-24.6279390" lon="-53.7580960">
        <ele>534.1</ele>
        <time>2018-09-15T19:33:42Z</time>
      </trkpt>
      <trkpt lat="-24.6279690" lon="-53.7580850">
        <ele>534.3</ele>
        <time>2018-09-15T19:33:43Z</time>
      </trkpt>
      <trkpt lat="-24.6279980" lon="-53.7580740">
        <ele>534.5</ele>
        <time>2018-09-15T19:33:44Z</time>
      </trkpt>
      <trkpt lat="-24.6280290" lon="-53.7580610">
        <ele>534.6</ele>
        <time>2018-09-15T19:33:45Z</time>
      </trkpt>
      <trkpt lat="-24.6280600" lon="-53.7580470">
        <ele>534.7</ele>
        <time>2018-09-15T19:33:46Z</time>
      </trkpt>
      <trkpt lat="-24.6280910" lon="-53.7580330">
        <ele>534.9</ele>
        <time>2018-09-15T19:33:47Z</time>
      </trkpt>
      <trkpt lat="-24.6281230" lon="-53.7580200">
        <ele>535.0</ele>
        <time>2018-09-15T19:33:48Z</time>
      </trkpt>
      <trkpt lat="-24.6281580" lon="-53.7580100">
        <ele>535.1</ele>
        <time>2018-09-15T19:33:49Z</time>
      </trkpt>
      <trkpt lat="-24.6281910" lon="-53.7580000">
        <ele>535.2</ele>
        <time>2018-09-15T19:33:50Z</time>
      </trkpt>
      <trkpt lat="-24.6282240" lon="-53.7579920">
        <ele>535.4</ele>
        <time>2018-09-15T19:33:51Z</time>
      </trkpt>
      <trkpt lat="-24.6282600" lon="-53.7579820">
        <ele>535.5</ele>
        <time>2018-09-15T19:33:52Z</time>
      </trkpt>
      <trkpt lat="-24.6282950" lon="-53.7579730">
        <ele>535.6</ele>
        <time>2018-09-15T19:33:53Z</time>
      </trkpt>
      <trkpt lat="-24.6283280" lon="-53.7579660">
        <ele>535.7</ele>
        <time>2018-09-15T19:33:54Z</time>
      </trkpt>
      <trkpt lat="-24.6283590" lon="-53.7579590">
        <ele>535.8</ele>
        <time>2018-09-15T19:33:55Z</time>
      </trkpt>
      <trkpt lat="-24.6283930" lon="-53.7579510">
        <ele>536.0</ele>
        <time>2018-09-15T19:33:56Z</time>
      </trkpt>
      <trkpt lat="-24.6284290" lon="-53.7579430">
        <ele>536.0</ele>
        <time>2018-09-15T19:33:57Z</time>
      </trkpt>
      <trkpt lat="-24.6284650" lon="-53.7579340">
        <ele>536.0</ele>
        <time>2018-09-15T19:33:58Z</time>
      </trkpt>
      <trkpt lat="-24.6284990" lon="-53.7579250">
        <ele>536.0</ele>
        <time>2018-09-15T19:33:59Z</time>
      </trkpt>
      <trkpt lat="-24.6285360" lon="-53.7579170">
        <ele>536.0</ele>
        <time>2018-09-15T19:34:00Z</time>
      </trkpt>
      <trkpt lat="-24.6285710" lon="-53.7579070">
        <ele>536.0</ele>
        <time>2018-09-15T19:34:01Z</time>
      </trkpt>
      <trkpt lat="-24.6286060" lon="-53.7578940">
        <ele>536.0</ele>
        <time>2018-09-15T19:34:02Z</time>
      </trkpt>
      <trkpt lat="-24.6286400" lon="-53.7578820">
        <ele>536.0</ele>
        <time>2018-09-15T19:34:03Z</time>
      </trkpt>
      <trkpt lat="-24.6286750" lon="-53.7578720">
        <ele>535.9</ele>
        <time>2018-09-15T19:34:04Z</time>
      </trkpt>
      <trkpt lat="-24.6287100" lon="-53.7578610">
        <ele>535.9</ele>
        <time>2018-09-15T19:34:05Z</time>
      </trkpt>
      <trkpt lat="-24.6287440" lon="-53.7578500">
        <ele>535.9</ele>
        <time>2018-09-15T19:34:06Z</time>
      </trkpt>
      <trkpt lat="-24.6287770" lon="-53.7578400">
        <ele>535.9</ele>
        <time>2018-09-15T19:34:07Z</time>
      </trkpt>
      <trkpt lat="-24.6288120" lon="-53.7578320">
        <ele>535.9</ele>
        <time>2018-09-15T19:34:08Z</time>
      </trkpt>
      <trkpt lat="-24.6288460" lon="-53.7578240">
        <ele>535.9</ele>
        <time>2018-09-15T19:34:09Z</time>
      </trkpt>
      <trkpt lat="-24.6288790" lon="-53.7578140">
        <ele>535.9</ele>
        <time>2018-09-15T19:34:10Z</time>
      </trkpt>
      <trkpt lat="-24.6289110" lon="-53.7578010">
        <ele>535.9</ele>
        <time>2018-09-15T19:34:11Z</time>
      </trkpt>
      <trkpt lat="-24.6289420" lon="-53.7577880">
        <ele>535.9</ele>
        <time>2018-09-15T19:34:12Z</time>
      </trkpt>
      <trkpt lat="-24.6289740" lon="-53.7577750">
        <ele>535.9</ele>
        <time>2018-09-15T19:34:13Z</time>
      </trkpt>
      <trkpt lat="-24.6290070" lon="-53.7577640">
        <ele>535.9</ele>
        <time>2018-09-15T19:34:14Z</time>
      </trkpt>
      <trkpt lat="-24.6290400" lon="-53.7577530">
        <ele>535.9</ele>
        <time>2018-09-15T19:34:15Z</time>
      </trkpt>
      <trkpt lat="-24.6290720" lon="-53.7577420">
        <ele>535.9</ele>
        <time>2018-09-15T19:34:16Z</time>
      </trkpt>
      <trkpt lat="-24.6291040" lon="-53.7577320">
        <ele>535.9</ele>
        <time>2018-09-15T19:34:17Z</time>
      </trkpt>
      <trkpt lat="-24.6291350" lon="-53.7577200">
        <ele>535.9</ele>
        <time>2018-09-15T19:34:18Z</time>
      </trkpt>
      <trkpt lat="-24.6291670" lon="-53.7577090">
        <ele>535.9</ele>
        <time>2018-09-15T19:34:19Z</time>
      </trkpt>
      <trkpt lat="-24.6292000" lon="-53.7577000">
        <ele>535.9</ele>
        <time>2018-09-15T19:34:20Z</time>
      </trkpt>
      <trkpt lat="-24.6292340" lon="-53.7576890">
        <ele>535.9</ele>
        <time>2018-09-15T19:34:21Z</time>
      </trkpt>
      <trkpt lat="-24.6292660" lon="-53.7576780">
        <ele>535.9</ele>
        <time>2018-09-15T19:34:22Z</time>
      </trkpt>
      <trkpt lat="-24.6292970" lon="-53.7576650">
        <ele>535.9</ele>
        <time>2018-09-15T19:34:23Z</time>
      </trkpt>
      <trkpt lat="-24.6293300" lon="-53.7576530">
        <ele>535.9</ele>
        <time>2018-09-15T19:34:24Z</time>
      </trkpt>
      <trkpt lat="-24.6293630" lon="-53.7576410">
        <ele>535.9</ele>
        <time>2018-09-15T19:34:25Z</time>
      </trkpt>
      <trkpt lat="-24.6293970" lon="-53.7576300">
        <ele>535.9</ele>
        <time>2018-09-15T19:34:26Z</time>
      </trkpt>
      <trkpt lat="-24.6294290" lon="-53.7576190">
        <ele>535.9</ele>
        <time>2018-09-15T19:34:27Z</time>
      </trkpt>
      <trkpt lat="-24.6294620" lon="-53.7576080">
        <ele>535.9</ele>
        <time>2018-09-15T19:34:28Z</time>
      </trkpt>
      <trkpt lat="-24.6294950" lon="-53.7575980">
        <ele>535.9</ele>
        <time>2018-09-15T19:34:29Z</time>
      </trkpt>
      <trkpt lat="-24.6295290" lon="-53.7575890">
        <ele>535.9</ele>
        <time>2018-09-15T19:34:30Z</time>
      </trkpt>
      <trkpt lat="-24.6295630" lon="-53.7575810">
        <ele>535.9</ele>
        <time>2018-09-15T19:34:31Z</time>
      </trkpt>
      <trkpt lat="-24.6295960" lon="-53.7575700">
        <ele>535.9</ele>
        <time>2018-09-15T19:34:32Z</time>
      </trkpt>
      <trkpt lat="-24.6296290" lon="-53.7575580">
        <ele>535.9</ele>
        <time>2018-09-15T19:34:33Z</time>
      </trkpt>
      <trkpt lat="-24.6296630" lon="-53.7575480">
        <ele>535.9</ele>
        <time>2018-09-15T19:34:34Z</time>
      </trkpt>
      <trkpt lat="-24.6296970" lon="-53.7575370">
        <ele>535.9</ele>
        <time>2018-09-15T19:34:35Z</time>
      </trkpt>
      <trkpt lat="-24.6297310" lon="-53.7575270">
        <ele>536.0</ele>
        <time>2018-09-15T19:34:36Z</time>
      </trkpt>
      <trkpt lat="-24.6297640" lon="-53.7575170">
        <ele>536.0</ele>
        <time>2018-09-15T19:34:37Z</time>
      </trkpt>
      <trkpt lat="-24.6297970" lon="-53.7575060">
        <ele>536.1</ele>
        <time>2018-09-15T19:34:38Z</time>
      </trkpt>
      <trkpt lat="-24.6298300" lon="-53.7574960">
        <ele>536.1</ele>
        <time>2018-09-15T19:34:39Z</time>
      </trkpt>
      <trkpt lat="-24.6298630" lon="-53.7574850">
        <ele>536.2</ele>
        <time>2018-09-15T19:34:40Z</time>
      </trkpt>
      <trkpt lat="-24.6298970" lon="-53.7574730">
        <ele>536.3</ele>
        <time>2018-09-15T19:34:41Z</time>
      </trkpt>
      <trkpt lat="-24.6299300" lon="-53.7574590">
        <ele>536.3</ele>
        <time>2018-09-15T19:34:42Z</time>
      </trkpt>
      <trkpt lat="-24.6299640" lon="-53.7574460">
        <ele>536.4</ele>
        <time>2018-09-15T19:34:43Z</time>
      </trkpt>
      <trkpt lat="-24.6299980" lon="-53.7574340">
        <ele>536.5</ele>
        <time>2018-09-15T19:34:44Z</time>
      </trkpt>
      <trkpt lat="-24.6300320" lon="-53.7574240">
        <ele>536.6</ele>
        <time>2018-09-15T19:34:45Z</time>
      </trkpt>
      <trkpt lat="-24.6300650" lon="-53.7574120">
        <ele>536.7</ele>
        <time>2018-09-15T19:34:46Z</time>
      </trkpt>
      <trkpt lat="-24.6300980" lon="-53.7574000">
        <ele>536.7</ele>
        <time>2018-09-15T19:34:47Z</time>
      </trkpt>
      <trkpt lat="-24.6301320" lon="-53.7573900">
        <ele>536.8</ele>
        <time>2018-09-15T19:34:48Z</time>
      </trkpt>
      <trkpt lat="-24.6301650" lon="-53.7573800">
        <ele>536.9</ele>
        <time>2018-09-15T19:34:49Z</time>
      </trkpt>
      <trkpt lat="-24.6301980" lon="-53.7573680">
        <ele>536.9</ele>
        <time>2018-09-15T19:34:50Z</time>
      </trkpt>
      <trkpt lat="-24.6302320" lon="-53.7573580">
        <ele>537.0</ele>
        <time>2018-09-15T19:34:51Z</time>
      </trkpt>
      <trkpt lat="-24.6302650" lon="-53.7573470">
        <ele>537.0</ele>
        <time>2018-09-15T19:34:52Z</time>
      </trkpt>
      <trkpt lat="-24.6302980" lon="-53.7573360">
        <ele>537.0</ele>
        <time>2018-09-15T19:34:53Z</time>
      </trkpt>
      <trkpt lat="-24.6303300" lon="-53.7573230">
        <ele>537.1</ele>
        <time>2018-09-15T19:34:54Z</time>
      </trkpt>
      <trkpt lat="-24.6303620" lon="-53.7573130">
        <ele>537.1</ele>
        <time>2018-09-15T19:34:55Z</time>
      </trkpt>
      <trkpt lat="-24.6303960" lon="-53.7573030">
        <ele>537.2</ele>
        <time>2018-09-15T19:34:56Z</time>
      </trkpt>
      <trkpt lat="-24.6304280" lon="-53.7572930">
        <ele>537.2</ele>
        <time>2018-09-15T19:34:57Z</time>
      </trkpt>
      <trkpt lat="-24.6304620" lon="-53.7572820">
        <ele>537.3</ele>
        <time>2018-09-15T19:34:58Z</time>
      </trkpt>
      <trkpt lat="-24.6304950" lon="-53.7572720">
        <ele>537.3</ele>
        <time>2018-09-15T19:34:59Z</time>
      </trkpt>
      <trkpt lat="-24.6305280" lon="-53.7572610">
        <ele>537.3</ele>
        <time>2018-09-15T19:35:00Z</time>
      </trkpt>
      <trkpt lat="-24.6305610" lon="-53.7572500">
        <ele>537.4</ele>
        <time>2018-09-15T19:35:01Z</time>
      </trkpt>
      <trkpt lat="-24.6305940" lon="-53.7572390">
        <ele>537.4</ele>
        <time>2018-09-15T19:35:02Z</time>
      </trkpt>
      <trkpt lat="-24.6306260" lon="-53.7572280">
        <ele>537.4</ele>
        <time>2018-09-15T19:35:03Z</time>
      </trkpt>
      <trkpt lat="-24.6306580" lon="-53.7572180">
        <ele>537.5</ele>
        <time>2018-09-15T19:35:04Z</time>
      </trkpt>
      <trkpt lat="-24.6306880" lon="-53.7572090">
        <ele>537.5</ele>
        <time>2018-09-15T19:35:05Z</time>
      </trkpt>
      <trkpt lat="-24.6307200" lon="-53.7571990">
        <ele>537.5</ele>
        <time>2018-09-15T19:35:06Z</time>
      </trkpt>
      <trkpt lat="-24.6307520" lon="-53.7571900">
        <ele>537.6</ele>
        <time>2018-09-15T19:35:07Z</time>
      </trkpt>
      <trkpt lat="-24.6307840" lon="-53.7571790">
        <ele>537.6</ele>
        <time>2018-09-15T19:35:08Z</time>
      </trkpt>
      <trkpt lat="-24.6308160" lon="-53.7571690">
        <ele>537.7</ele>
        <time>2018-09-15T19:35:09Z</time>
      </trkpt>
      <trkpt lat="-24.6308470" lon="-53.7571580">
        <ele>537.8</ele>
        <time>2018-09-15T19:35:10Z</time>
      </trkpt>
      <trkpt lat="-24.6308800" lon="-53.7571480">
        <ele>538.0</ele>
        <time>2018-09-15T19:35:11Z</time>
      </trkpt>
      <trkpt lat="-24.6309110" lon="-53.7571380">
        <ele>538.1</ele>
        <time>2018-09-15T19:35:12Z</time>
      </trkpt>
      <trkpt lat="-24.6309420" lon="-53.7571280">
        <ele>538.2</ele>
        <time>2018-09-15T19:35:13Z</time>
      </trkpt>
      <trkpt lat="-24.6309720" lon="-53.7571170">
        <ele>538.3</ele>
        <time>2018-09-15T19:35:14Z</time>
      </trkpt>
      <trkpt lat="-24.6310040" lon="-53.7571080">
        <ele>538.5</ele>
        <time>2018-09-15T19:35:15Z</time>
      </trkpt>
      <trkpt lat="-24.6310340" lon="-53.7570990">
        <ele>538.6</ele>
        <time>2018-09-15T19:35:16Z</time>
      </trkpt>
      <trkpt lat="-24.6310620" lon="-53.7570880">
        <ele>538.8</ele>
        <time>2018-09-15T19:35:17Z</time>
      </trkpt>
      <trkpt lat="-24.6310890" lon="-53.7570790">
        <ele>538.9</ele>
        <time>2018-09-15T19:35:18Z</time>
      </trkpt>
      <trkpt lat="-24.6311180" lon="-53.7570700">
        <ele>539.1</ele>
        <time>2018-09-15T19:35:19Z</time>
      </trkpt>
      <trkpt lat="-24.6311470" lon="-53.7570600">
        <ele>539.2</ele>
        <time>2018-09-15T19:35:20Z</time>
      </trkpt>
      <trkpt lat="-24.6311740" lon="-53.7570510">
        <ele>539.4</ele>
        <time>2018-09-15T19:35:21Z</time>
      </trkpt>
      <trkpt lat="-24.6312040" lon="-53.7570420">
        <ele>539.5</ele>
        <time>2018-09-15T19:35:22Z</time>
      </trkpt>
      <trkpt lat="-24.6312340" lon="-53.7570310">
        <ele>539.7</ele>
        <time>2018-09-15T19:35:23Z</time>
      </trkpt>
      <trkpt lat="-24.6312650" lon="-53.7570190">
        <ele>539.9</ele>
        <time>2018-09-15T19:35:24Z</time>
      </trkpt>
      <trkpt lat="-24.6312980" lon="-53.7570090">
        <ele>540.0</ele>
        <time>2018-09-15T19:35:25Z</time>
      </trkpt>
      <trkpt lat="-24.6313270" lon="-53.7569980">
        <ele>540.1</ele>
        <time>2018-09-15T19:35:26Z</time>
      </trkpt>
      <trkpt lat="-24.6313580" lon="-53.7569880">
        <ele>540.3</ele>
        <time>2018-09-15T19:35:27Z</time>
      </trkpt>
      <trkpt lat="-24.6313880" lon="-53.7569790">
        <ele>540.3</ele>
        <time>2018-09-15T19:35:28Z</time>
      </trkpt>
      <trkpt lat="-24.6314180" lon="-53.7569680">
        <ele>540.4</ele>
        <time>2018-09-15T19:35:29Z</time>
      </trkpt>
      <trkpt lat="-24.6314470" lon="-53.7569570">
        <ele>540.4</ele>
        <time>2018-09-15T19:35:30Z</time>
      </trkpt>
      <trkpt lat="-24.6314780" lon="-53.7569470">
        <ele>540.5</ele>
        <time>2018-09-15T19:35:31Z</time>
      </trkpt>
      <trkpt lat="-24.6315100" lon="-53.7569370">
        <ele>540.5</ele>
        <time>2018-09-15T19:35:32Z</time>
      </trkpt>
      <trkpt lat="-24.6315390" lon="-53.7569260">
        <ele>540.6</ele>
        <time>2018-09-15T19:35:33Z</time>
      </trkpt>
      <trkpt lat="-24.6315690" lon="-53.7569150">
        <ele>540.6</ele>
        <time>2018-09-15T19:35:34Z</time>
      </trkpt>
      <trkpt lat="-24.6316010" lon="-53.7569060">
        <ele>540.6</ele>
        <time>2018-09-15T19:35:35Z</time>
      </trkpt>
      <trkpt lat="-24.6316340" lon="-53.7568960">
        <ele>540.7</ele>
        <time>2018-09-15T19:35:36Z</time>
      </trkpt>
      <trkpt lat="-24.6316650" lon="-53.7568860">
        <ele>540.7</ele>
        <time>2018-09-15T19:35:37Z</time>
      </trkpt>
      <trkpt lat="-24.6316970" lon="-53.7568760">
        <ele>540.8</ele>
        <time>2018-09-15T19:35:38Z</time>
      </trkpt>
      <trkpt lat="-24.6317290" lon="-53.7568640">
        <ele>540.8</ele>
        <time>2018-09-15T19:35:39Z</time>
      </trkpt>
      <trkpt lat="-24.6317610" lon="-53.7568530">
        <ele>540.8</ele>
        <time>2018-09-15T19:35:40Z</time>
      </trkpt>
      <trkpt lat="-24.6317920" lon="-53.7568420">
        <ele>540.9</ele>
        <time>2018-09-15T19:35:41Z</time>
      </trkpt>
      <trkpt lat="-24.6318230" lon="-53.7568310">
        <ele>540.9</ele>
        <time>2018-09-15T19:35:42Z</time>
      </trkpt>
      <trkpt lat="-24.6318550" lon="-53.7568200">
        <ele>540.9</ele>
        <time>2018-09-15T19:35:43Z</time>
      </trkpt>
      <trkpt lat="-24.6318880" lon="-53.7568100">
        <ele>540.9</ele>
        <time>2018-09-15T19:35:44Z</time>
      </trkpt>
      <trkpt lat="-24.6319190" lon="-53.7568000">
        <ele>541.0</ele>
        <time>2018-09-15T19:35:45Z</time>
      </trkpt>
      <trkpt lat="-24.6319500" lon="-53.7567910">
        <ele>541.0</ele>
        <time>2018-09-15T19:35:46Z</time>
      </trkpt>
      <trkpt lat="-24.6319820" lon="-53.7567790">
        <ele>541.0</ele>
        <time>2018-09-15T19:35:47Z</time>
      </trkpt>
      <trkpt lat="-24.6320150" lon="-53.7567680">
        <ele>541.0</ele>
        <time>2018-09-15T19:35:48Z</time>
      </trkpt>
      <trkpt lat="-24.6320470" lon="-53.7567560">
        <ele>541.0</ele>
        <time>2018-09-15T19:35:49Z</time>
      </trkpt>
      <trkpt lat="-24.6320800" lon="-53.7567470">
        <ele>541.0</ele>
        <time>2018-09-15T19:35:50Z</time>
      </trkpt>
      <trkpt lat="-24.6321130" lon="-53.7567370">
        <ele>541.0</ele>
        <time>2018-09-15T19:35:51Z</time>
      </trkpt>
      <trkpt lat="-24.6321440" lon="-53.7567260">
        <ele>541.0</ele>
        <time>2018-09-15T19:35:52Z</time>
      </trkpt>
      <trkpt lat="-24.6321760" lon="-53.7567140">
        <ele>541.0</ele>
        <time>2018-09-15T19:35:53Z</time>
      </trkpt>
      <trkpt lat="-24.6322080" lon="-53.7567050">
        <ele>541.1</ele>
        <time>2018-09-15T19:35:54Z</time>
      </trkpt>
      <trkpt lat="-24.6322400" lon="-53.7566980">
        <ele>541.1</ele>
        <time>2018-09-15T19:35:55Z</time>
      </trkpt>
      <trkpt lat="-24.6322720" lon="-53.7566890">
        <ele>541.1</ele>
        <time>2018-09-15T19:35:56Z</time>
      </trkpt>
      <trkpt lat="-24.6323030" lon="-53.7566760">
        <ele>541.1</ele>
        <time>2018-09-15T19:35:57Z</time>
      </trkpt>
      <trkpt lat="-24.6323350" lon="-53.7566630">
        <ele>541.1</ele>
        <time>2018-09-15T19:35:58Z</time>
      </trkpt>
      <trkpt lat="-24.6323670" lon="-53.7566520">
        <ele>541.1</ele>
        <time>2018-09-15T19:35:59Z</time>
      </trkpt>
      <trkpt lat="-24.6324000" lon="-53.7566390">
        <ele>541.1</ele>
        <time>2018-09-15T19:36:00Z</time>
      </trkpt>
      <trkpt lat="-24.6324330" lon="-53.7566280">
        <ele>541.1</ele>
        <time>2018-09-15T19:36:01Z</time>
      </trkpt>
      <trkpt lat="-24.6324660" lon="-53.7566170">
        <ele>541.1</ele>
        <time>2018-09-15T19:36:02Z</time>
      </trkpt>
      <trkpt lat="-24.6325000" lon="-53.7566050">
        <ele>541.1</ele>
        <time>2018-09-15T19:36:03Z</time>
      </trkpt>
      <trkpt lat="-24.6325340" lon="-53.7565950">
        <ele>541.2</ele>
        <time>2018-09-15T19:36:04Z</time>
      </trkpt>
      <trkpt lat="-24.6325670" lon="-53.7565850">
        <ele>541.2</ele>
        <time>2018-09-15T19:36:05Z</time>
      </trkpt>
      <trkpt lat="-24.6326000" lon="-53.7565740">
        <ele>541.2</ele>
        <time>2018-09-15T19:36:06Z</time>
      </trkpt>
      <trkpt lat="-24.6326340" lon="-53.7565640">
        <ele>541.2</ele>
        <time>2018-09-15T19:36:07Z</time>
      </trkpt>
      <trkpt lat="-24.6326670" lon="-53.7565530">
        <ele>541.3</ele>
        <time>2018-09-15T19:36:08Z</time>
      </trkpt>
      <trkpt lat="-24.6327000" lon="-53.7565430">
        <ele>541.3</ele>
        <time>2018-09-15T19:36:09Z</time>
      </trkpt>
      <trkpt lat="-24.6327340" lon="-53.7565320">
        <ele>541.3</ele>
        <time>2018-09-15T19:36:10Z</time>
      </trkpt>
      <trkpt lat="-24.6327680" lon="-53.7565220">
        <ele>541.4</ele>
        <time>2018-09-15T19:36:11Z</time>
      </trkpt>
      <trkpt lat="-24.6328000" lon="-53.7565110">
        <ele>541.4</ele>
        <time>2018-09-15T19:36:12Z</time>
      </trkpt>
      <trkpt lat="-24.6328320" lon="-53.7565000">
        <ele>541.4</ele>
        <time>2018-09-15T19:36:13Z</time>
      </trkpt>
      <trkpt lat="-24.6328660" lon="-53.7564890">
        <ele>541.5</ele>
        <time>2018-09-15T19:36:14Z</time>
      </trkpt>
      <trkpt lat="-24.6328990" lon="-53.7564790">
        <ele>541.5</ele>
        <time>2018-09-15T19:36:15Z</time>
      </trkpt>
      <trkpt lat="-24.6329330" lon="-53.7564680">
        <ele>541.6</ele>
        <time>2018-09-15T19:36:16Z</time>
      </trkpt>
      <trkpt lat="-24.6329670" lon="-53.7564550">
        <ele>541.7</ele>
        <time>2018-09-15T19:36:17Z</time>
      </trkpt>
      <trkpt lat="-24.6330000" lon="-53.7564430">
        <ele>541.8</ele>
        <time>2018-09-15T19:36:18Z</time>
      </trkpt>
      <trkpt lat="-24.6330340" lon="-53.7564310">
        <ele>541.9</ele>
        <time>2018-09-15T19:36:19Z</time>
      </trkpt>
      <trkpt lat="-24.6330660" lon="-53.7564180">
        <ele>542.1</ele>
        <time>2018-09-15T19:36:20Z</time>
      </trkpt>
      <trkpt lat="-24.6330980" lon="-53.7564070">
        <ele>542.2</ele>
        <time>2018-09-15T19:36:21Z</time>
      </trkpt>
      <trkpt lat="-24.6331310" lon="-53.7563970">
        <ele>542.4</ele>
        <time>2018-09-15T19:36:22Z</time>
      </trkpt>
      <trkpt lat="-24.6331610" lon="-53.7563870">
        <ele>542.6</ele>
        <time>2018-09-15T19:36:23Z</time>
      </trkpt>
      <trkpt lat="-24.6331930" lon="-53.7563790">
        <ele>542.7</ele>
        <time>2018-09-15T19:36:24Z</time>
      </trkpt>
      <trkpt lat="-24.6332270" lon="-53.7563700">
        <ele>542.9</ele>
        <time>2018-09-15T19:36:25Z</time>
      </trkpt>
      <trkpt lat="-24.6332600" lon="-53.7563580">
        <ele>543.1</ele>
        <time>2018-09-15T19:36:26Z</time>
      </trkpt>
      <trkpt lat="-24.6332930" lon="-53.7563490">
        <ele>543.2</ele>
        <time>2018-09-15T19:36:27Z</time>
      </trkpt>
      <trkpt lat="-24.6333270" lon="-53.7563410">
        <ele>543.4</ele>
        <time>2018-09-15T19:36:28Z</time>
      </trkpt>
      <trkpt lat="-24.6333600" lon="-53.7563290">
        <ele>543.6</ele>
        <time>2018-09-15T19:36:29Z</time>
      </trkpt>
      <trkpt lat="-24.6334240" lon="-53.7563060">
        <ele>543.9</ele>
        <time>2018-09-15T19:36:30Z</time>
      </trkpt>
      <trkpt lat="-24.6334570" lon="-53.7562960">
        <ele>544.1</ele>
        <time>2018-09-15T19:36:31Z</time>
      </trkpt>
      <trkpt lat="-24.6334900" lon="-53.7562870">
        <ele>544.2</ele>
        <time>2018-09-15T19:36:32Z</time>
      </trkpt>
      <trkpt lat="-24.6335240" lon="-53.7562760">
        <ele>544.4</ele>
        <time>2018-09-15T19:36:33Z</time>
      </trkpt>
      <trkpt lat="-24.6335560" lon="-53.7562640">
        <ele>544.5</ele>
        <time>2018-09-15T19:36:34Z</time>
      </trkpt>
      <trkpt lat="-24.6335890" lon="-53.7562550">
        <ele>544.6</ele>
        <time>2018-09-15T19:36:35Z</time>
      </trkpt>
      <trkpt lat="-24.6336220" lon="-53.7562450">
        <ele>544.7</ele>
        <time>2018-09-15T19:36:36Z</time>
      </trkpt>
      <trkpt lat="-24.6336550" lon="-53.7562330">
        <ele>544.8</ele>
        <time>2018-09-15T19:36:37Z</time>
      </trkpt>
      <trkpt lat="-24.6336880" lon="-53.7562200">
        <ele>544.8</ele>
        <time>2018-09-15T19:36:38Z</time>
      </trkpt>
      <trkpt lat="-24.6337220" lon="-53.7562090">
        <ele>544.9</ele>
        <time>2018-09-15T19:36:39Z</time>
      </trkpt>
      <trkpt lat="-24.6337550" lon="-53.7561980">
        <ele>544.9</ele>
        <time>2018-09-15T19:36:40Z</time>
      </trkpt>
      <trkpt lat="-24.6337880" lon="-53.7561880">
        <ele>545.0</ele>
        <time>2018-09-15T19:36:41Z</time>
      </trkpt>
      <trkpt lat="-24.6338220" lon="-53.7561780">
        <ele>545.0</ele>
        <time>2018-09-15T19:36:42Z</time>
      </trkpt>
      <trkpt lat="-24.6338560" lon="-53.7561670">
        <ele>545.1</ele>
        <time>2018-09-15T19:36:43Z</time>
      </trkpt>
      <trkpt lat="-24.6338880" lon="-53.7561550">
        <ele>545.1</ele>
        <time>2018-09-15T19:36:44Z</time>
      </trkpt>
      <trkpt lat="-24.6339210" lon="-53.7561430">
        <ele>545.1</ele>
        <time>2018-09-15T19:36:45Z</time>
      </trkpt>
      <trkpt lat="-24.6339530" lon="-53.7561320">
        <ele>545.2</ele>
        <time>2018-09-15T19:36:46Z</time>
      </trkpt>
      <trkpt lat="-24.6339840" lon="-53.7561220">
        <ele>545.2</ele>
        <time>2018-09-15T19:36:47Z</time>
      </trkpt>
      <trkpt lat="-24.6340460" lon="-53.7561000">
        <ele>545.3</ele>
        <time>2018-09-15T19:36:49Z</time>
      </trkpt>
      <trkpt lat="-24.6340770" lon="-53.7560880">
        <ele>545.3</ele>
        <time>2018-09-15T19:36:50Z</time>
      </trkpt>
      <trkpt lat="-24.6341090" lon="-53.7560780">
        <ele>545.4</ele>
        <time>2018-09-15T19:36:51Z</time>
      </trkpt>
      <trkpt lat="-24.6341400" lon="-53.7560680">
        <ele>545.4</ele>
        <time>2018-09-15T19:36:52Z</time>
      </trkpt>
      <trkpt lat="-24.6341720" lon="-53.7560580">
        <ele>545.4</ele>
        <time>2018-09-15T19:36:53Z</time>
      </trkpt>
      <trkpt lat="-24.6342040" lon="-53.7560470">
        <ele>545.5</ele>
        <time>2018-09-15T19:36:54Z</time>
      </trkpt>
      <trkpt lat="-24.6342370" lon="-53.7560360">
        <ele>545.5</ele>
        <time>2018-09-15T19:36:55Z</time>
      </trkpt>
      <trkpt lat="-24.6342700" lon="-53.7560250">
        <ele>545.5</ele>
        <time>2018-09-15T19:36:56Z</time>
      </trkpt>
      <trkpt lat="-24.6343020" lon="-53.7560150">
        <ele>545.5</ele>
        <time>2018-09-15T19:36:57Z</time>
      </trkpt>
      <trkpt lat="-24.6343340" lon="-53.7560040">
        <ele>545.6</ele>
        <time>2018-09-15T19:36:58Z</time>
      </trkpt>
      <trkpt lat="-24.6343660" lon="-53.7559930">
        <ele>545.6</ele>
        <time>2018-09-15T19:36:59Z</time>
      </trkpt>
      <trkpt lat="-24.6343990" lon="-53.7559820">
        <ele>545.6</ele>
        <time>2018-09-15T19:37:00Z</time>
      </trkpt>
      <trkpt lat="-24.6344320" lon="-53.7559700">
        <ele>545.7</ele>
        <time>2018-09-15T19:37:01Z</time>
      </trkpt>
      <trkpt lat="-24.6344650" lon="-53.7559580">
        <ele>545.7</ele>
        <time>2018-09-15T19:37:02Z</time>
      </trkpt>
      <trkpt lat="-24.6344990" lon="-53.7559470">
        <ele>545.7</ele>
        <time>2018-09-15T19:37:03Z</time>
      </trkpt>
      <trkpt lat="-24.6345320" lon="-53.7559360">
        <ele>545.7</ele>
        <time>2018-09-15T19:37:04Z</time>
      </trkpt>
      <trkpt lat="-24.6345650" lon="-53.7559260">
        <ele>545.8</ele>
        <time>2018-09-15T19:37:05Z</time>
      </trkpt>
      <trkpt lat="-24.6345980" lon="-53.7559150">
        <ele>545.8</ele>
        <time>2018-09-15T19:37:06Z</time>
      </trkpt>
      <trkpt lat="-24.6346310" lon="-53.7559040">
        <ele>545.8</ele>
        <time>2018-09-15T19:37:07Z</time>
      </trkpt>
      <trkpt lat="-24.6346640" lon="-53.7558940">
        <ele>545.9</ele>
        <time>2018-09-15T19:37:08Z</time>
      </trkpt>
      <trkpt lat="-24.6346640" lon="-53.7558940">
        <ele>545.9</ele>
        <time>2018-09-15T19:37:09Z</time>
      </trkpt>
      <trkpt lat="-24.6346980" lon="-53.7558840">
        <ele>545.9</ele>
        <time>2018-09-15T19:37:10Z</time>
      </trkpt>
      <trkpt lat="-24.6347310" lon="-53.7558740">
        <ele>546.0</ele>
        <time>2018-09-15T19:37:11Z</time>
      </trkpt>
      <trkpt lat="-24.6347640" lon="-53.7558650">
        <ele>546.1</ele>
        <time>2018-09-15T19:37:12Z</time>
      </trkpt>
      <trkpt lat="-24.6347960" lon="-53.7558560">
        <ele>546.2</ele>
        <time>2018-09-15T19:37:13Z</time>
      </trkpt>
      <trkpt lat="-24.6348270" lon="-53.7558450">
        <ele>546.3</ele>
        <time>2018-09-15T19:37:14Z</time>
      </trkpt>
      <trkpt lat="-24.6348600" lon="-53.7558330">
        <ele>546.4</ele>
        <time>2018-09-15T19:37:15Z</time>
      </trkpt>
      <trkpt lat="-24.6348930" lon="-53.7558220">
        <ele>546.5</ele>
        <time>2018-09-15T19:37:16Z</time>
      </trkpt>
      <trkpt lat="-24.6349260" lon="-53.7558120">
        <ele>546.6</ele>
        <time>2018-09-15T19:37:17Z</time>
      </trkpt>
      <trkpt lat="-24.6349580" lon="-53.7558030">
        <ele>546.7</ele>
        <time>2018-09-15T19:37:18Z</time>
      </trkpt>
      <trkpt lat="-24.6349910" lon="-53.7557920">
        <ele>546.8</ele>
        <time>2018-09-15T19:37:19Z</time>
      </trkpt>
      <trkpt lat="-24.6350240" lon="-53.7557810">
        <ele>546.9</ele>
        <time>2018-09-15T19:37:20Z</time>
      </trkpt>
      <trkpt lat="-24.6350570" lon="-53.7557700">
        <ele>547.0</ele>
        <time>2018-09-15T19:37:21Z</time>
      </trkpt>
      <trkpt lat="-24.6350910" lon="-53.7557580">
        <ele>547.1</ele>
        <time>2018-09-15T19:37:22Z</time>
      </trkpt>
      <trkpt lat="-24.6351230" lon="-53.7557460">
        <ele>547.2</ele>
        <time>2018-09-15T19:37:23Z</time>
      </trkpt>
      <trkpt lat="-24.6351560" lon="-53.7557350">
        <ele>547.2</ele>
        <time>2018-09-15T19:37:24Z</time>
      </trkpt>
      <trkpt lat="-24.6351890" lon="-53.7557250">
        <ele>547.2</ele>
        <time>2018-09-15T19:37:25Z</time>
      </trkpt>
      <trkpt lat="-24.6352230" lon="-53.7557140">
        <ele>547.3</ele>
        <time>2018-09-15T19:37:26Z</time>
      </trkpt>
      <trkpt lat="-24.6352560" lon="-53.7557030">
        <ele>547.3</ele>
        <time>2018-09-15T19:37:27Z</time>
      </trkpt>
      <trkpt lat="-24.6352900" lon="-53.7556910">
        <ele>547.3</ele>
        <time>2018-09-15T19:37:28Z</time>
      </trkpt>
      <trkpt lat="-24.6353240" lon="-53.7556790">
        <ele>547.2</ele>
        <time>2018-09-15T19:37:29Z</time>
      </trkpt>
      <trkpt lat="-24.6353560" lon="-53.7556670">
        <ele>547.2</ele>
        <time>2018-09-15T19:37:30Z</time>
      </trkpt>
      <trkpt lat="-24.6353880" lon="-53.7556550">
        <ele>547.2</ele>
        <time>2018-09-15T19:37:31Z</time>
      </trkpt>
      <trkpt lat="-24.6354200" lon="-53.7556440">
        <ele>547.1</ele>
        <time>2018-09-15T19:37:32Z</time>
      </trkpt>
      <trkpt lat="-24.6354530" lon="-53.7556330">
        <ele>547.1</ele>
        <time>2018-09-15T19:37:33Z</time>
      </trkpt>
      <trkpt lat="-24.6354850" lon="-53.7556220">
        <ele>547.0</ele>
        <time>2018-09-15T19:37:34Z</time>
      </trkpt>
      <trkpt lat="-24.6355170" lon="-53.7556120">
        <ele>546.9</ele>
        <time>2018-09-15T19:37:35Z</time>
      </trkpt>
      <trkpt lat="-24.6355500" lon="-53.7556010">
        <ele>546.9</ele>
        <time>2018-09-15T19:37:36Z</time>
      </trkpt>
      <trkpt lat="-24.6355840" lon="-53.7555900">
        <ele>546.8</ele>
        <time>2018-09-15T19:37:37Z</time>
      </trkpt>
      <trkpt lat="-24.6356180" lon="-53.7555810">
        <ele>546.7</ele>
        <time>2018-09-15T19:37:38Z</time>
      </trkpt>
      <trkpt lat="-24.6356550" lon="-53.7555720">
        <ele>546.7</ele>
        <time>2018-09-15T19:37:39Z</time>
      </trkpt>
      <trkpt lat="-24.6356900" lon="-53.7555620">
        <ele>546.6</ele>
        <time>2018-09-15T19:37:40Z</time>
      </trkpt>
      <trkpt lat="-24.6357260" lon="-53.7555510">
        <ele>546.6</ele>
        <time>2018-09-15T19:37:41Z</time>
      </trkpt>
      <trkpt lat="-24.6357600" lon="-53.7555400">
        <ele>546.6</ele>
        <time>2018-09-15T19:37:42Z</time>
      </trkpt>
      <trkpt lat="-24.6357950" lon="-53.7555280">
        <ele>546.6</ele>
        <time>2018-09-15T19:37:43Z</time>
      </trkpt>
      <trkpt lat="-24.6358290" lon="-53.7555160">
        <ele>546.6</ele>
        <time>2018-09-15T19:37:44Z</time>
      </trkpt>
      <trkpt lat="-24.6358640" lon="-53.7555050">
        <ele>546.7</ele>
        <time>2018-09-15T19:37:45Z</time>
      </trkpt>
      <trkpt lat="-24.6358980" lon="-53.7554920">
        <ele>546.7</ele>
        <time>2018-09-15T19:37:46Z</time>
      </trkpt>
      <trkpt lat="-24.6359330" lon="-53.7554810">
        <ele>546.8</ele>
        <time>2018-09-15T19:37:47Z</time>
      </trkpt>
      <trkpt lat="-24.6359670" lon="-53.7554710">
        <ele>546.8</ele>
        <time>2018-09-15T19:37:48Z</time>
      </trkpt>
      <trkpt lat="-24.6360020" lon="-53.7554600">
        <ele>546.9</ele>
        <time>2018-09-15T19:37:49Z</time>
      </trkpt>
      <trkpt lat="-24.6360370" lon="-53.7554490">
        <ele>547.0</ele>
        <time>2018-09-15T19:37:50Z</time>
      </trkpt>
      <trkpt lat="-24.6360710" lon="-53.7554370">
        <ele>547.0</ele>
        <time>2018-09-15T19:37:51Z</time>
      </trkpt>
      <trkpt lat="-24.6361050" lon="-53.7554250">
        <ele>547.1</ele>
        <time>2018-09-15T19:37:52Z</time>
      </trkpt>
      <trkpt lat="-24.6361390" lon="-53.7554130">
        <ele>547.2</ele>
        <time>2018-09-15T19:37:53Z</time>
      </trkpt>
      <trkpt lat="-24.6361720" lon="-53.7554010">
        <ele>547.2</ele>
        <time>2018-09-15T19:37:54Z</time>
      </trkpt>
      <trkpt lat="-24.6362060" lon="-53.7553900">
        <ele>547.3</ele>
        <time>2018-09-15T19:37:55Z</time>
      </trkpt>
      <trkpt lat="-24.6362400" lon="-53.7553790">
        <ele>547.3</ele>
        <time>2018-09-15T19:37:56Z</time>
      </trkpt>
      <trkpt lat="-24.6362730" lon="-53.7553700">
        <ele>547.4</ele>
        <time>2018-09-15T19:37:57Z</time>
      </trkpt>
      <trkpt lat="-24.6363070" lon="-53.7553600">
        <ele>547.4</ele>
        <time>2018-09-15T19:37:58Z</time>
      </trkpt>
      <trkpt lat="-24.6363400" lon="-53.7553500">
        <ele>547.4</ele>
        <time>2018-09-15T19:37:59Z</time>
      </trkpt>
      <trkpt lat="-24.6363730" lon="-53.7553380">
        <ele>547.4</ele>
        <time>2018-09-15T19:38:00Z</time>
      </trkpt>
      <trkpt lat="-24.6364050" lon="-53.7553260">
        <ele>547.4</ele>
        <time>2018-09-15T19:38:01Z</time>
      </trkpt>
      <trkpt lat="-24.6364380" lon="-53.7553160">
        <ele>547.4</ele>
        <time>2018-09-15T19:38:02Z</time>
      </trkpt>
      <trkpt lat="-24.6364710" lon="-53.7553040">
        <ele>547.4</ele>
        <time>2018-09-15T19:38:03Z</time>
      </trkpt>
      <trkpt lat="-24.6365030" lon="-53.7552920">
        <ele>547.4</ele>
        <time>2018-09-15T19:38:04Z</time>
      </trkpt>
      <trkpt lat="-24.6365350" lon="-53.7552800">
        <ele>547.4</ele>
        <time>2018-09-15T19:38:05Z</time>
      </trkpt>
      <trkpt lat="-24.6365670" lon="-53.7552690">
        <ele>547.4</ele>
        <time>2018-09-15T19:38:06Z</time>
      </trkpt>
      <trkpt lat="-24.6366000" lon="-53.7552590">
        <ele>547.4</ele>
        <time>2018-09-15T19:38:07Z</time>
      </trkpt>
      <trkpt lat="-24.6366330" lon="-53.7552490">
        <ele>547.4</ele>
        <time>2018-09-15T19:38:08Z</time>
      </trkpt>
      <trkpt lat="-24.6366650" lon="-53.7552390">
        <ele>547.4</ele>
        <time>2018-09-15T19:38:09Z</time>
      </trkpt>
      <trkpt lat="-24.6366960" lon="-53.7552270">
        <ele>547.4</ele>
        <time>2018-09-15T19:38:10Z</time>
      </trkpt>
      <trkpt lat="-24.6367300" lon="-53.7552160">
        <ele>547.4</ele>
        <time>2018-09-15T19:38:11Z</time>
      </trkpt>
      <trkpt lat="-24.6367640" lon="-53.7552060">
        <ele>547.4</ele>
        <time>2018-09-15T19:38:12Z</time>
      </trkpt>
      <trkpt lat="-24.6367990" lon="-53.7551970">
        <ele>547.4</ele>
        <time>2018-09-15T19:38:13Z</time>
      </trkpt>
      <trkpt lat="-24.6368340" lon="-53.7551860">
        <ele>547.4</ele>
        <time>2018-09-15T19:38:14Z</time>
      </trkpt>
      <trkpt lat="-24.6368690" lon="-53.7551750">
        <ele>547.4</ele>
        <time>2018-09-15T19:38:15Z</time>
      </trkpt>
      <trkpt lat="-24.6369020" lon="-53.7551610">
        <ele>547.4</ele>
        <time>2018-09-15T19:38:16Z</time>
      </trkpt>
      <trkpt lat="-24.6369360" lon="-53.7551490">
        <ele>547.4</ele>
        <time>2018-09-15T19:38:17Z</time>
      </trkpt>
      <trkpt lat="-24.6369700" lon="-53.7551380">
        <ele>547.4</ele>
        <time>2018-09-15T19:38:18Z</time>
      </trkpt>
      <trkpt lat="-24.6370040" lon="-53.7551260">
        <ele>547.4</ele>
        <time>2018-09-15T19:38:19Z</time>
      </trkpt>
      <trkpt lat="-24.6370380" lon="-53.7551150">
        <ele>547.4</ele>
        <time>2018-09-15T19:38:20Z</time>
      </trkpt>
      <trkpt lat="-24.6370720" lon="-53.7551030">
        <ele>547.4</ele>
        <time>2018-09-15T19:38:21Z</time>
      </trkpt>
      <trkpt lat="-24.6371060" lon="-53.7550930">
        <ele>547.4</ele>
        <time>2018-09-15T19:38:22Z</time>
      </trkpt>
      <trkpt lat="-24.6371400" lon="-53.7550820">
        <ele>547.4</ele>
        <time>2018-09-15T19:38:23Z</time>
      </trkpt>
      <trkpt lat="-24.6371740" lon="-53.7550710">
        <ele>547.4</ele>
        <time>2018-09-15T19:38:24Z</time>
      </trkpt>
      <trkpt lat="-24.6372090" lon="-53.7550600">
        <ele>547.4</ele>
        <time>2018-09-15T19:38:25Z</time>
      </trkpt>
      <trkpt lat="-24.6372440" lon="-53.7550500">
        <ele>547.3</ele>
        <time>2018-09-15T19:38:26Z</time>
      </trkpt>
      <trkpt lat="-24.6372800" lon="-53.7550400">
        <ele>547.3</ele>
        <time>2018-09-15T19:38:27Z</time>
      </trkpt>
      <trkpt lat="-24.6373160" lon="-53.7550290">
        <ele>547.3</ele>
        <time>2018-09-15T19:38:28Z</time>
      </trkpt>
      <trkpt lat="-24.6373530" lon="-53.7550190">
        <ele>547.3</ele>
        <time>2018-09-15T19:38:29Z</time>
      </trkpt>
      <trkpt lat="-24.6373890" lon="-53.7550090">
        <ele>547.3</ele>
        <time>2018-09-15T19:38:30Z</time>
      </trkpt>
      <trkpt lat="-24.6374250" lon="-53.7549970">
        <ele>547.3</ele>
        <time>2018-09-15T19:38:31Z</time>
      </trkpt>
      <trkpt lat="-24.6374620" lon="-53.7549850">
        <ele>547.3</ele>
        <time>2018-09-15T19:38:32Z</time>
      </trkpt>
      <trkpt lat="-24.6374990" lon="-53.7549740">
        <ele>547.3</ele>
        <time>2018-09-15T19:38:33Z</time>
      </trkpt>
      <trkpt lat="-24.6375370" lon="-53.7549600">
        <ele>547.3</ele>
        <time>2018-09-15T19:38:34Z</time>
      </trkpt>
      <trkpt lat="-24.6375740" lon="-53.7549470">
        <ele>547.3</ele>
        <time>2018-09-15T19:38:35Z</time>
      </trkpt>
      <trkpt lat="-24.6376100" lon="-53.7549350">
        <ele>547.3</ele>
        <time>2018-09-15T19:38:36Z</time>
      </trkpt>
      <trkpt lat="-24.6376470" lon="-53.7549230">
        <ele>547.3</ele>
        <time>2018-09-15T19:38:37Z</time>
      </trkpt>
      <trkpt lat="-24.6376840" lon="-53.7549120">
        <ele>547.3</ele>
        <time>2018-09-15T19:38:38Z</time>
      </trkpt>
      <trkpt lat="-24.6377220" lon="-53.7548990">
        <ele>547.3</ele>
        <time>2018-09-15T19:38:39Z</time>
      </trkpt>
      <trkpt lat="-24.6377590" lon="-53.7548870">
        <ele>547.2</ele>
        <time>2018-09-15T19:38:40Z</time>
      </trkpt>
      <trkpt lat="-24.6377950" lon="-53.7548730">
        <ele>547.2</ele>
        <time>2018-09-15T19:38:41Z</time>
      </trkpt>
      <trkpt lat="-24.6378320" lon="-53.7548600">
        <ele>547.2</ele>
        <time>2018-09-15T19:38:42Z</time>
      </trkpt>
      <trkpt lat="-24.6378700" lon="-53.7548470">
        <ele>547.2</ele>
        <time>2018-09-15T19:38:43Z</time>
      </trkpt>
      <trkpt lat="-24.6379080" lon="-53.7548370">
        <ele>547.2</ele>
        <time>2018-09-15T19:38:44Z</time>
      </trkpt>
      <trkpt lat="-24.6379450" lon="-53.7548240">
        <ele>547.2</ele>
        <time>2018-09-15T19:38:45Z</time>
      </trkpt>
      <trkpt lat="-24.6379830" lon="-53.7548110">
        <ele>547.2</ele>
        <time>2018-09-15T19:38:46Z</time>
      </trkpt>
      <trkpt lat="-24.6380220" lon="-53.7548000">
        <ele>547.1</ele>
        <time>2018-09-15T19:38:47Z</time>
      </trkpt>
      <trkpt lat="-24.6380610" lon="-53.7547890">
        <ele>547.1</ele>
        <time>2018-09-15T19:38:48Z</time>
      </trkpt>
      <trkpt lat="-24.6381000" lon="-53.7547780">
        <ele>547.1</ele>
        <time>2018-09-15T19:38:49Z</time>
      </trkpt>
      <trkpt lat="-24.6381370" lon="-53.7547650">
        <ele>547.1</ele>
        <time>2018-09-15T19:38:50Z</time>
      </trkpt>
      <trkpt lat="-24.6381750" lon="-53.7547530">
        <ele>547.1</ele>
        <time>2018-09-15T19:38:51Z</time>
      </trkpt>
      <trkpt lat="-24.6382130" lon="-53.7547410">
        <ele>547.1</ele>
        <time>2018-09-15T19:38:52Z</time>
      </trkpt>
      <trkpt lat="-24.6382510" lon="-53.7547270">
        <ele>547.1</ele>
        <time>2018-09-15T19:38:53Z</time>
      </trkpt>
      <trkpt lat="-24.6382900" lon="-53.7547130">
        <ele>547.1</ele>
        <time>2018-09-15T19:38:54Z</time>
      </trkpt>
      <trkpt lat="-24.6383280" lon="-53.7546990">
        <ele>547.1</ele>
        <time>2018-09-15T19:38:55Z</time>
      </trkpt>
      <trkpt lat="-24.6383670" lon="-53.7546860">
        <ele>547.0</ele>
        <time>2018-09-15T19:38:56Z</time>
      </trkpt>
      <trkpt lat="-24.6384050" lon="-53.7546730">
        <ele>547.0</ele>
        <time>2018-09-15T19:38:57Z</time>
      </trkpt>
      <trkpt lat="-24.6384430" lon="-53.7546580">
        <ele>547.0</ele>
        <time>2018-09-15T19:38:58Z</time>
      </trkpt>
      <trkpt lat="-24.6384810" lon="-53.7546430">
        <ele>547.0</ele>
        <time>2018-09-15T19:38:59Z</time>
      </trkpt>
      <trkpt lat="-24.6385190" lon="-53.7546280">
        <ele>547.1</ele>
        <time>2018-09-15T19:39:00Z</time>
      </trkpt>
      <trkpt lat="-24.6385590" lon="-53.7546170">
        <ele>547.4</ele>
        <time>2018-09-15T19:39:01Z</time>
      </trkpt>
      <trkpt lat="-24.6385990" lon="-53.7546060">
        <ele>547.6</ele>
        <time>2018-09-15T19:39:02Z</time>
      </trkpt>
      <trkpt lat="-24.6386380" lon="-53.7545930">
        <ele>547.7</ele>
        <time>2018-09-15T19:39:03Z</time>
      </trkpt>
      <trkpt lat="-24.6386770" lon="-53.7545790">
        <ele>547.8</ele>
        <time>2018-09-15T19:39:04Z</time>
      </trkpt>
      <trkpt lat="-24.6387150" lon="-53.7545670">
        <ele>547.5</ele>
        <time>2018-09-15T19:39:05Z</time>
      </trkpt>
      <trkpt lat="-24.6387540" lon="-53.7545560">
        <ele>547.3</ele>
        <time>2018-09-15T19:39:06Z</time>
      </trkpt>
      <trkpt lat="-24.6387930" lon="-53.7545460">
        <ele>547.3</ele>
        <time>2018-09-15T19:39:07Z</time>
      </trkpt>
      <trkpt lat="-24.6388310" lon="-53.7545340">
        <ele>547.4</ele>
        <time>2018-09-15T19:39:08Z</time>
      </trkpt>
      <trkpt lat="-24.6388690" lon="-53.7545230">
        <ele>547.4</ele>
        <time>2018-09-15T19:39:09Z</time>
      </trkpt>
      <trkpt lat="-24.6389050" lon="-53.7545110">
        <ele>547.5</ele>
        <time>2018-09-15T19:39:10Z</time>
      </trkpt>
      <trkpt lat="-24.6389410" lon="-53.7544990">
        <ele>547.4</ele>
        <time>2018-09-15T19:39:11Z</time>
      </trkpt>
      <trkpt lat="-24.6389780" lon="-53.7544880">
        <ele>547.3</ele>
        <time>2018-09-15T19:39:12Z</time>
      </trkpt>
      <trkpt lat="-24.6390160" lon="-53.7544760">
        <ele>547.0</ele>
        <time>2018-09-15T19:39:13Z</time>
      </trkpt>
      <trkpt lat="-24.6390520" lon="-53.7544640">
        <ele>546.7</ele>
        <time>2018-09-15T19:39:14Z</time>
      </trkpt>
      <trkpt lat="-24.6390900" lon="-53.7544510">
        <ele>546.3</ele>
        <time>2018-09-15T19:39:15Z</time>
      </trkpt>
      <trkpt lat="-24.6391280" lon="-53.7544380">
        <ele>546.1</ele>
        <time>2018-09-15T19:39:16Z</time>
      </trkpt>
      <trkpt lat="-24.6391660" lon="-53.7544250">
        <ele>546.0</ele>
        <time>2018-09-15T19:39:17Z</time>
      </trkpt>
      <trkpt lat="-24.6392030" lon="-53.7544120">
        <ele>545.9</ele>
        <time>2018-09-15T19:39:18Z</time>
      </trkpt>
      <trkpt lat="-24.6392410" lon="-53.7544000">
        <ele>545.7</ele>
        <time>2018-09-15T19:39:19Z</time>
      </trkpt>
      <trkpt lat="-24.6392790" lon="-53.7543870">
        <ele>545.8</ele>
        <time>2018-09-15T19:39:20Z</time>
      </trkpt>
      <trkpt lat="-24.6393180" lon="-53.7543740">
        <ele>545.9</ele>
        <time>2018-09-15T19:39:21Z</time>
      </trkpt>
      <trkpt lat="-24.6393560" lon="-53.7543620">
        <ele>546.1</ele>
        <time>2018-09-15T19:39:22Z</time>
      </trkpt>
      <trkpt lat="-24.6393950" lon="-53.7543490">
        <ele>546.3</ele>
        <time>2018-09-15T19:39:23Z</time>
      </trkpt>
      <trkpt lat="-24.6394340" lon="-53.7543360">
        <ele>546.5</ele>
        <time>2018-09-15T19:39:24Z</time>
      </trkpt>
      <trkpt lat="-24.6394720" lon="-53.7543230">
        <ele>546.7</ele>
        <time>2018-09-15T19:39:25Z</time>
      </trkpt>
      <trkpt lat="-24.6395110" lon="-53.7543100">
        <ele>546.8</ele>
        <time>2018-09-15T19:39:26Z</time>
      </trkpt>
      <trkpt lat="-24.6395490" lon="-53.7542980">
        <ele>546.8</ele>
        <time>2018-09-15T19:39:27Z</time>
      </trkpt>
      <trkpt lat="-24.6395870" lon="-53.7542850">
        <ele>546.7</ele>
        <time>2018-09-15T19:39:28Z</time>
      </trkpt>
      <trkpt lat="-24.6396250" lon="-53.7542730">
        <ele>546.6</ele>
        <time>2018-09-15T19:39:29Z</time>
      </trkpt>
      <trkpt lat="-24.6396640" lon="-53.7542600">
        <ele>546.5</ele>
        <time>2018-09-15T19:39:30Z</time>
      </trkpt>
      <trkpt lat="-24.6397030" lon="-53.7542470">
        <ele>546.4</ele>
        <time>2018-09-15T19:39:31Z</time>
      </trkpt>
      <trkpt lat="-24.6397430" lon="-53.7542340">
        <ele>546.3</ele>
        <time>2018-09-15T19:39:32Z</time>
      </trkpt>
      <trkpt lat="-24.6397840" lon="-53.7542220">
        <ele>546.5</ele>
        <time>2018-09-15T19:39:33Z</time>
      </trkpt>
      <trkpt lat="-24.6398240" lon="-53.7542090">
        <ele>546.6</ele>
        <time>2018-09-15T19:39:34Z</time>
      </trkpt>
      <trkpt lat="-24.6398650" lon="-53.7541970">
        <ele>546.8</ele>
        <time>2018-09-15T19:39:35Z</time>
      </trkpt>
      <trkpt lat="-24.6399070" lon="-53.7541840">
        <ele>547.0</ele>
        <time>2018-09-15T19:39:36Z</time>
      </trkpt>
      <trkpt lat="-24.6399480" lon="-53.7541700">
        <ele>547.0</ele>
        <time>2018-09-15T19:39:37Z</time>
      </trkpt>
      <trkpt lat="-24.6399890" lon="-53.7541570">
        <ele>547.0</ele>
        <time>2018-09-15T19:39:38Z</time>
      </trkpt>
      <trkpt lat="-24.6400310" lon="-53.7541430">
        <ele>547.0</ele>
        <time>2018-09-15T19:39:39Z</time>
      </trkpt>
      <trkpt lat="-24.6400730" lon="-53.7541290">
        <ele>547.0</ele>
        <time>2018-09-15T19:39:40Z</time>
      </trkpt>
      <trkpt lat="-24.6401150" lon="-53.7541150">
        <ele>547.0</ele>
        <time>2018-09-15T19:39:41Z</time>
      </trkpt>
      <trkpt lat="-24.6401580" lon="-53.7541000">
        <ele>547.0</ele>
        <time>2018-09-15T19:39:42Z</time>
      </trkpt>
      <trkpt lat="-24.6402000" lon="-53.7540860">
        <ele>546.8</ele>
        <time>2018-09-15T19:39:43Z</time>
      </trkpt>
      <trkpt lat="-24.6402430" lon="-53.7540710">
        <ele>546.7</ele>
        <time>2018-09-15T19:39:44Z</time>
      </trkpt>
      <trkpt lat="-24.6402860" lon="-53.7540560">
        <ele>546.5</ele>
        <time>2018-09-15T19:39:45Z</time>
      </trkpt>
      <trkpt lat="-24.6403310" lon="-53.7540410">
        <ele>546.3</ele>
        <time>2018-09-15T19:39:46Z</time>
      </trkpt>
      <trkpt lat="-24.6403760" lon="-53.7540270">
        <ele>546.2</ele>
        <time>2018-09-15T19:39:47Z</time>
      </trkpt>
      <trkpt lat="-24.6404220" lon="-53.7540130">
        <ele>546.0</ele>
        <time>2018-09-15T19:39:48Z</time>
      </trkpt>
      <trkpt lat="-24.6404680" lon="-53.7539980">
        <ele>545.9</ele>
        <time>2018-09-15T19:39:49Z</time>
      </trkpt>
      <trkpt lat="-24.6405150" lon="-53.7539840">
        <ele>545.8</ele>
        <time>2018-09-15T19:39:50Z</time>
      </trkpt>
      <trkpt lat="-24.6405630" lon="-53.7539690">
        <ele>545.7</ele>
        <time>2018-09-15T19:39:51Z</time>
      </trkpt>
      <trkpt lat="-24.6406100" lon="-53.7539540">
        <ele>545.7</ele>
        <time>2018-09-15T19:39:52Z</time>
      </trkpt>
      <trkpt lat="-24.6406560" lon="-53.7539390">
        <ele>545.6</ele>
        <time>2018-09-15T19:39:53Z</time>
      </trkpt>
      <trkpt lat="-24.6407020" lon="-53.7539220">
        <ele>545.5</ele>
        <time>2018-09-15T19:39:54Z</time>
      </trkpt>
      <trkpt lat="-24.6407480" lon="-53.7539070">
        <ele>545.5</ele>
        <time>2018-09-15T19:39:55Z</time>
      </trkpt>
      <trkpt lat="-24.6407940" lon="-53.7538920">
        <ele>545.4</ele>
        <time>2018-09-15T19:39:56Z</time>
      </trkpt>
      <trkpt lat="-24.6408410" lon="-53.7538770">
        <ele>545.3</ele>
        <time>2018-09-15T19:39:57Z</time>
      </trkpt>
      <trkpt lat="-24.6408890" lon="-53.7538620">
        <ele>545.3</ele>
        <time>2018-09-15T19:39:58Z</time>
      </trkpt>
      <trkpt lat="-24.6409850" lon="-53.7538300">
        <ele>545.2</ele>
        <time>2018-09-15T19:39:59Z</time>
      </trkpt>
      <trkpt lat="-24.6410340" lon="-53.7538140">
        <ele>545.2</ele>
        <time>2018-09-15T19:40:01Z</time>
      </trkpt>
      <trkpt lat="-24.6410820" lon="-53.7537990">
        <ele>545.1</ele>
        <time>2018-09-15T19:40:02Z</time>
      </trkpt>
      <trkpt lat="-24.6411300" lon="-53.7537860">
        <ele>545.1</ele>
        <time>2018-09-15T19:40:03Z</time>
      </trkpt>
      <trkpt lat="-24.6411770" lon="-53.7537710">
        <ele>545.1</ele>
        <time>2018-09-15T19:40:04Z</time>
      </trkpt>
      <trkpt lat="-24.6412240" lon="-53.7537550">
        <ele>545.1</ele>
        <time>2018-09-15T19:40:05Z</time>
      </trkpt>
      <trkpt lat="-24.6412720" lon="-53.7537390">
        <ele>545.0</ele>
        <time>2018-09-15T19:40:06Z</time>
      </trkpt>
      <trkpt lat="-24.6413190" lon="-53.7537230">
        <ele>545.0</ele>
        <time>2018-09-15T19:40:07Z</time>
      </trkpt>
      <trkpt lat="-24.6413680" lon="-53.7537070">
        <ele>545.0</ele>
        <time>2018-09-15T19:40:08Z</time>
      </trkpt>
      <trkpt lat="-24.6414150" lon="-53.7536910">
        <ele>545.0</ele>
        <time>2018-09-15T19:40:09Z</time>
      </trkpt>
      <trkpt lat="-24.6414630" lon="-53.7536760">
        <ele>545.0</ele>
        <time>2018-09-15T19:40:10Z</time>
      </trkpt>
      <trkpt lat="-24.6415110" lon="-53.7536600">
        <ele>544.9</ele>
        <time>2018-09-15T19:40:11Z</time>
      </trkpt>
      <trkpt lat="-24.6415580" lon="-53.7536440">
        <ele>544.9</ele>
        <time>2018-09-15T19:40:12Z</time>
      </trkpt>
      <trkpt lat="-24.6416060" lon="-53.7536280">
        <ele>544.9</ele>
        <time>2018-09-15T19:40:13Z</time>
      </trkpt>
      <trkpt lat="-24.6416540" lon="-53.7536110">
        <ele>544.9</ele>
        <time>2018-09-15T19:40:14Z</time>
      </trkpt>
      <trkpt lat="-24.6417050" lon="-53.7535940">
        <ele>544.8</ele>
        <time>2018-09-15T19:40:15Z</time>
      </trkpt>
      <trkpt lat="-24.6417570" lon="-53.7535780">
        <ele>544.7</ele>
        <time>2018-09-15T19:40:16Z</time>
      </trkpt>
      <trkpt lat="-24.6418100" lon="-53.7535610">
        <ele>544.6</ele>
        <time>2018-09-15T19:40:17Z</time>
      </trkpt>
      <trkpt lat="-24.6418630" lon="-53.7535430">
        <ele>544.5</ele>
        <time>2018-09-15T19:40:18Z</time>
      </trkpt>
      <trkpt lat="-24.6419170" lon="-53.7535250">
        <ele>544.4</ele>
        <time>2018-09-15T19:40:19Z</time>
      </trkpt>
      <trkpt lat="-24.6420250" lon="-53.7534890">
        <ele>544.0</ele>
        <time>2018-09-15T19:40:20Z</time>
      </trkpt>
      <trkpt lat="-24.6420790" lon="-53.7534710">
        <ele>543.7</ele>
        <time>2018-09-15T19:40:21Z</time>
      </trkpt>
      <trkpt lat="-24.6421340" lon="-53.7534540">
        <ele>543.5</ele>
        <time>2018-09-15T19:40:22Z</time>
      </trkpt>
      <trkpt lat="-24.6421870" lon="-53.7534340">
        <ele>543.3</ele>
        <time>2018-09-15T19:40:23Z</time>
      </trkpt>
      <trkpt lat="-24.6422920" lon="-53.7533990">
        <ele>543.0</ele>
        <time>2018-09-15T19:40:25Z</time>
      </trkpt>
      <trkpt lat="-24.6423450" lon="-53.7533820">
        <ele>542.9</ele>
        <time>2018-09-15T19:40:26Z</time>
      </trkpt>
      <trkpt lat="-24.6423970" lon="-53.7533660">
        <ele>542.8</ele>
        <time>2018-09-15T19:40:27Z</time>
      </trkpt>
      <trkpt lat="-24.6424500" lon="-53.7533490">
        <ele>542.8</ele>
        <time>2018-09-15T19:40:28Z</time>
      </trkpt>
      <trkpt lat="-24.6425030" lon="-53.7533320">
        <ele>542.8</ele>
        <time>2018-09-15T19:40:29Z</time>
      </trkpt>
      <trkpt lat="-24.6425550" lon="-53.7533140">
        <ele>542.7</ele>
        <time>2018-09-15T19:40:30Z</time>
      </trkpt>
      <trkpt lat="-24.6426080" lon="-53.7532970">
        <ele>542.7</ele>
        <time>2018-09-15T19:40:31Z</time>
      </trkpt>
      <trkpt lat="-24.6426600" lon="-53.7532790">
        <ele>542.7</ele>
        <time>2018-09-15T19:40:32Z</time>
      </trkpt>
      <trkpt lat="-24.6427130" lon="-53.7532620">
        <ele>542.6</ele>
        <time>2018-09-15T19:40:33Z</time>
      </trkpt>
      <trkpt lat="-24.6427650" lon="-53.7532450">
        <ele>542.6</ele>
        <time>2018-09-15T19:40:34Z</time>
      </trkpt>
      <trkpt lat="-24.6428170" lon="-53.7532260">
        <ele>542.6</ele>
        <time>2018-09-15T19:40:35Z</time>
      </trkpt>
      <trkpt lat="-24.6428690" lon="-53.7532080">
        <ele>542.6</ele>
        <time>2018-09-15T19:40:36Z</time>
      </trkpt>
      <trkpt lat="-24.6429220" lon="-53.7531910">
        <ele>542.5</ele>
        <time>2018-09-15T19:40:37Z</time>
      </trkpt>
      <trkpt lat="-24.6429740" lon="-53.7531740">
        <ele>542.5</ele>
        <time>2018-09-15T19:40:38Z</time>
      </trkpt>
      <trkpt lat="-24.6430270" lon="-53.7531570">
        <ele>542.4</ele>
        <time>2018-09-15T19:40:39Z</time>
      </trkpt>
      <trkpt lat="-24.6430790" lon="-53.7531390">
        <ele>542.3</ele>
        <time>2018-09-15T19:40:40Z</time>
      </trkpt>
      <trkpt lat="-24.6431320" lon="-53.7531210">
        <ele>542.3</ele>
        <time>2018-09-15T19:40:41Z</time>
      </trkpt>
      <trkpt lat="-24.6431840" lon="-53.7531040">
        <ele>542.2</ele>
        <time>2018-09-15T19:40:42Z</time>
      </trkpt>
      <trkpt lat="-24.6432890" lon="-53.7530700">
        <ele>541.9</ele>
        <time>2018-09-15T19:40:44Z</time>
      </trkpt>
      <trkpt lat="-24.6433420" lon="-53.7530530">
        <ele>541.7</ele>
        <time>2018-09-15T19:40:45Z</time>
      </trkpt>
      <trkpt lat="-24.6433950" lon="-53.7530360">
        <ele>541.5</ele>
        <time>2018-09-15T19:40:46Z</time>
      </trkpt>
      <trkpt lat="-24.6434470" lon="-53.7530190">
        <ele>541.3</ele>
        <time>2018-09-15T19:40:47Z</time>
      </trkpt>
      <trkpt lat="-24.6434990" lon="-53.7530010">
        <ele>541.1</ele>
        <time>2018-09-15T19:40:48Z</time>
      </trkpt>
      <trkpt lat="-24.6435520" lon="-53.7529850">
        <ele>541.0</ele>
        <time>2018-09-15T19:40:49Z</time>
      </trkpt>
      <trkpt lat="-24.6436030" lon="-53.7529690">
        <ele>540.8</ele>
        <time>2018-09-15T19:40:50Z</time>
      </trkpt>
      <trkpt lat="-24.6436540" lon="-53.7529520">
        <ele>540.8</ele>
        <time>2018-09-15T19:40:51Z</time>
      </trkpt>
      <trkpt lat="-24.6437050" lon="-53.7529370">
        <ele>540.7</ele>
        <time>2018-09-15T19:40:52Z</time>
      </trkpt>
      <trkpt lat="-24.6437530" lon="-53.7529210">
        <ele>540.6</ele>
        <time>2018-09-15T19:40:53Z</time>
      </trkpt>
      <trkpt lat="-24.6437990" lon="-53.7529050">
        <ele>540.6</ele>
        <time>2018-09-15T19:40:54Z</time>
      </trkpt>
      <trkpt lat="-24.6438450" lon="-53.7528890">
        <ele>540.5</ele>
        <time>2018-09-15T19:40:55Z</time>
      </trkpt>
      <trkpt lat="-24.6438900" lon="-53.7528750">
        <ele>540.4</ele>
        <time>2018-09-15T19:40:56Z</time>
      </trkpt>
      <trkpt lat="-24.6439340" lon="-53.7528610">
        <ele>540.4</ele>
        <time>2018-09-15T19:40:57Z</time>
      </trkpt>
      <trkpt lat="-24.6439780" lon="-53.7528470">
        <ele>540.4</ele>
        <time>2018-09-15T19:40:58Z</time>
      </trkpt>
      <trkpt lat="-24.6440220" lon="-53.7528320">
        <ele>540.4</ele>
        <time>2018-09-15T19:40:59Z</time>
      </trkpt>
      <trkpt lat="-24.6440660" lon="-53.7528200">
        <ele>540.3</ele>
        <time>2018-09-15T19:41:00Z</time>
      </trkpt>
      <trkpt lat="-24.6440660" lon="-53.7528200">
        <ele>540.3</ele>
        <time>2018-09-15T19:41:01Z</time>
      </trkpt>
      <trkpt lat="-24.6441120" lon="-53.7528060">
        <ele>540.3</ele>
        <time>2018-09-15T19:41:02Z</time>
      </trkpt>
      <trkpt lat="-24.6441590" lon="-53.7527920">
        <ele>540.3</ele>
        <time>2018-09-15T19:41:03Z</time>
      </trkpt>
      <trkpt lat="-24.6442060" lon="-53.7527760">
        <ele>540.3</ele>
        <time>2018-09-15T19:41:04Z</time>
      </trkpt>
      <trkpt lat="-24.6442540" lon="-53.7527610">
        <ele>540.3</ele>
        <time>2018-09-15T19:41:05Z</time>
      </trkpt>
      <trkpt lat="-24.6443010" lon="-53.7527440">
        <ele>540.2</ele>
        <time>2018-09-15T19:41:06Z</time>
      </trkpt>
      <trkpt lat="-24.6443480" lon="-53.7527280">
        <ele>540.2</ele>
        <time>2018-09-15T19:41:07Z</time>
      </trkpt>
      <trkpt lat="-24.6443950" lon="-53.7527120">
        <ele>540.2</ele>
        <time>2018-09-15T19:41:08Z</time>
      </trkpt>
      <trkpt lat="-24.6444430" lon="-53.7526970">
        <ele>540.2</ele>
        <time>2018-09-15T19:41:09Z</time>
      </trkpt>
      <trkpt lat="-24.6444910" lon="-53.7526820">
        <ele>540.1</ele>
        <time>2018-09-15T19:41:10Z</time>
      </trkpt>
      <trkpt lat="-24.6445380" lon="-53.7526670">
        <ele>540.1</ele>
        <time>2018-09-15T19:41:11Z</time>
      </trkpt>
      <trkpt lat="-24.6445850" lon="-53.7526500">
        <ele>540.1</ele>
        <time>2018-09-15T19:41:12Z</time>
      </trkpt>
      <trkpt lat="-24.6446310" lon="-53.7526320">
        <ele>540.1</ele>
        <time>2018-09-15T19:41:13Z</time>
      </trkpt>
      <trkpt lat="-24.6446760" lon="-53.7526140">
        <ele>540.1</ele>
        <time>2018-09-15T19:41:14Z</time>
      </trkpt>
      <trkpt lat="-24.6447210" lon="-53.7525980">
        <ele>540.1</ele>
        <time>2018-09-15T19:41:15Z</time>
      </trkpt>
      <trkpt lat="-24.6447660" lon="-53.7525850">
        <ele>540.0</ele>
        <time>2018-09-15T19:41:16Z</time>
      </trkpt>
      <trkpt lat="-24.6448120" lon="-53.7525720">
        <ele>540.0</ele>
        <time>2018-09-15T19:41:17Z</time>
      </trkpt>
      <trkpt lat="-24.6448570" lon="-53.7525580">
        <ele>540.0</ele>
        <time>2018-09-15T19:41:18Z</time>
      </trkpt>
      <trkpt lat="-24.6449030" lon="-53.7525440">
        <ele>540.0</ele>
        <time>2018-09-15T19:41:19Z</time>
      </trkpt>
      <trkpt lat="-24.6449490" lon="-53.7525300">
        <ele>540.0</ele>
        <time>2018-09-15T19:41:20Z</time>
      </trkpt>
      <trkpt lat="-24.6449940" lon="-53.7525160">
        <ele>540.0</ele>
        <time>2018-09-15T19:41:21Z</time>
      </trkpt>
      <trkpt lat="-24.6450400" lon="-53.7525020">
        <ele>539.9</ele>
        <time>2018-09-15T19:41:22Z</time>
      </trkpt>
      <trkpt lat="-24.6450870" lon="-53.7524880">
        <ele>539.9</ele>
        <time>2018-09-15T19:41:23Z</time>
      </trkpt>
      <trkpt lat="-24.6451350" lon="-53.7524720">
        <ele>539.9</ele>
        <time>2018-09-15T19:41:24Z</time>
      </trkpt>
      <trkpt lat="-24.6451830" lon="-53.7524570">
        <ele>539.9</ele>
        <time>2018-09-15T19:41:25Z</time>
      </trkpt>
      <trkpt lat="-24.6452300" lon="-53.7524420">
        <ele>539.8</ele>
        <time>2018-09-15T19:41:26Z</time>
      </trkpt>
      <trkpt lat="-24.6452780" lon="-53.7524270">
        <ele>539.8</ele>
        <time>2018-09-15T19:41:27Z</time>
      </trkpt>
      <trkpt lat="-24.6453260" lon="-53.7524100">
        <ele>539.8</ele>
        <time>2018-09-15T19:41:28Z</time>
      </trkpt>
      <trkpt lat="-24.6453750" lon="-53.7523940">
        <ele>539.7</ele>
        <time>2018-09-15T19:41:29Z</time>
      </trkpt>
      <trkpt lat="-24.6454220" lon="-53.7523760">
        <ele>539.7</ele>
        <time>2018-09-15T19:41:30Z</time>
      </trkpt>
      <trkpt lat="-24.6454700" lon="-53.7523590">
        <ele>539.7</ele>
        <time>2018-09-15T19:41:31Z</time>
      </trkpt>
      <trkpt lat="-24.6455180" lon="-53.7523430">
        <ele>539.6</ele>
        <time>2018-09-15T19:41:32Z</time>
      </trkpt>
      <trkpt lat="-24.6455660" lon="-53.7523260">
        <ele>539.6</ele>
        <time>2018-09-15T19:41:33Z</time>
      </trkpt>
      <trkpt lat="-24.6456140" lon="-53.7523100">
        <ele>539.6</ele>
        <time>2018-09-15T19:41:34Z</time>
      </trkpt>
      <trkpt lat="-24.6456610" lon="-53.7522940">
        <ele>539.5</ele>
        <time>2018-09-15T19:41:35Z</time>
      </trkpt>
      <trkpt lat="-24.6457100" lon="-53.7522800">
        <ele>539.5</ele>
        <time>2018-09-15T19:41:36Z</time>
      </trkpt>
      <trkpt lat="-24.6457580" lon="-53.7522640">
        <ele>539.5</ele>
        <time>2018-09-15T19:41:37Z</time>
      </trkpt>
      <trkpt lat="-24.6458050" lon="-53.7522490">
        <ele>539.4</ele>
        <time>2018-09-15T19:41:38Z</time>
      </trkpt>
      <trkpt lat="-24.6458520" lon="-53.7522330">
        <ele>539.4</ele>
        <time>2018-09-15T19:41:39Z</time>
      </trkpt>
      <trkpt lat="-24.6458990" lon="-53.7522180">
        <ele>539.4</ele>
        <time>2018-09-15T19:41:40Z</time>
      </trkpt>
      <trkpt lat="-24.6459450" lon="-53.7522030">
        <ele>539.4</ele>
        <time>2018-09-15T19:41:41Z</time>
      </trkpt>
      <trkpt lat="-24.6459910" lon="-53.7521880">
        <ele>539.3</ele>
        <time>2018-09-15T19:41:42Z</time>
      </trkpt>
      <trkpt lat="-24.6460360" lon="-53.7521740">
        <ele>539.3</ele>
        <time>2018-09-15T19:41:43Z</time>
      </trkpt>
      <trkpt lat="-24.6460810" lon="-53.7521590">
        <ele>539.3</ele>
        <time>2018-09-15T19:41:44Z</time>
      </trkpt>
      <trkpt lat="-24.6461260" lon="-53.7521450">
        <ele>539.3</ele>
        <time>2018-09-15T19:41:45Z</time>
      </trkpt>
      <trkpt lat="-24.6461710" lon="-53.7521300">
        <ele>539.3</ele>
        <time>2018-09-15T19:41:46Z</time>
      </trkpt>
      <trkpt lat="-24.6462160" lon="-53.7521160">
        <ele>539.2</ele>
        <time>2018-09-15T19:41:47Z</time>
      </trkpt>
      <trkpt lat="-24.6462610" lon="-53.7521020">
        <ele>539.2</ele>
        <time>2018-09-15T19:41:48Z</time>
      </trkpt>
      <trkpt lat="-24.6463070" lon="-53.7520890">
        <ele>539.2</ele>
        <time>2018-09-15T19:41:49Z</time>
      </trkpt>
      <trkpt lat="-24.6463530" lon="-53.7520770">
        <ele>539.2</ele>
        <time>2018-09-15T19:41:50Z</time>
      </trkpt>
      <trkpt lat="-24.6463990" lon="-53.7520640">
        <ele>539.1</ele>
        <time>2018-09-15T19:41:51Z</time>
      </trkpt>
      <trkpt lat="-24.6464450" lon="-53.7520520">
        <ele>539.1</ele>
        <time>2018-09-15T19:41:52Z</time>
      </trkpt>
      <trkpt lat="-24.6464910" lon="-53.7520400">
        <ele>539.1</ele>
        <time>2018-09-15T19:41:53Z</time>
      </trkpt>
      <trkpt lat="-24.6465370" lon="-53.7520280">
        <ele>539.1</ele>
        <time>2018-09-15T19:41:54Z</time>
      </trkpt>
      <trkpt lat="-24.6465830" lon="-53.7520170">
        <ele>539.0</ele>
        <time>2018-09-15T19:41:55Z</time>
      </trkpt>
      <trkpt lat="-24.6466290" lon="-53.7520050">
        <ele>539.0</ele>
        <time>2018-09-15T19:41:56Z</time>
      </trkpt>
      <trkpt lat="-24.6466750" lon="-53.7519940">
        <ele>539.0</ele>
        <time>2018-09-15T19:41:57Z</time>
      </trkpt>
      <trkpt lat="-24.6467220" lon="-53.7519830">
        <ele>539.0</ele>
        <time>2018-09-15T19:41:58Z</time>
      </trkpt>
      <trkpt lat="-24.6467680" lon="-53.7519730">
        <ele>538.9</ele>
        <time>2018-09-15T19:41:59Z</time>
      </trkpt>
      <trkpt lat="-24.6468140" lon="-53.7519620">
        <ele>538.9</ele>
        <time>2018-09-15T19:42:00Z</time>
      </trkpt>
      <trkpt lat="-24.6468610" lon="-53.7519510">
        <ele>538.9</ele>
        <time>2018-09-15T19:42:01Z</time>
      </trkpt>
      <trkpt lat="-24.6469060" lon="-53.7519410">
        <ele>538.9</ele>
        <time>2018-09-15T19:42:02Z</time>
      </trkpt>
      <trkpt lat="-24.6469520" lon="-53.7519310">
        <ele>538.8</ele>
        <time>2018-09-15T19:42:03Z</time>
      </trkpt>
      <trkpt lat="-24.6469970" lon="-53.7519200">
        <ele>538.8</ele>
        <time>2018-09-15T19:42:04Z</time>
      </trkpt>
      <trkpt lat="-24.6470410" lon="-53.7519100">
        <ele>538.8</ele>
        <time>2018-09-15T19:42:05Z</time>
      </trkpt>
      <trkpt lat="-24.6470850" lon="-53.7519010">
        <ele>538.7</ele>
        <time>2018-09-15T19:42:06Z</time>
      </trkpt>
      <trkpt lat="-24.6471290" lon="-53.7518920">
        <ele>538.7</ele>
        <time>2018-09-15T19:42:07Z</time>
      </trkpt>
      <trkpt lat="-24.6471740" lon="-53.7518840">
        <ele>538.7</ele>
        <time>2018-09-15T19:42:08Z</time>
      </trkpt>
      <trkpt lat="-24.6472180" lon="-53.7518760">
        <ele>538.7</ele>
        <time>2018-09-15T19:42:09Z</time>
      </trkpt>
      <trkpt lat="-24.6472620" lon="-53.7518670">
        <ele>538.6</ele>
        <time>2018-09-15T19:42:10Z</time>
      </trkpt>
      <trkpt lat="-24.6473060" lon="-53.7518590">
        <ele>538.6</ele>
        <time>2018-09-15T19:42:11Z</time>
      </trkpt>
      <trkpt lat="-24.6473500" lon="-53.7518510">
        <ele>538.5</ele>
        <time>2018-09-15T19:42:12Z</time>
      </trkpt>
      <trkpt lat="-24.6473960" lon="-53.7518420">
        <ele>538.5</ele>
        <time>2018-09-15T19:42:13Z</time>
      </trkpt>
      <trkpt lat="-24.6474410" lon="-53.7518340">
        <ele>538.4</ele>
        <time>2018-09-15T19:42:14Z</time>
      </trkpt>
      <trkpt lat="-24.6474870" lon="-53.7518260">
        <ele>538.4</ele>
        <time>2018-09-15T19:42:15Z</time>
      </trkpt>
      <trkpt lat="-24.6475330" lon="-53.7518180">
        <ele>538.4</ele>
        <time>2018-09-15T19:42:16Z</time>
      </trkpt>
      <trkpt lat="-24.6475790" lon="-53.7518110">
        <ele>538.3</ele>
        <time>2018-09-15T19:42:17Z</time>
      </trkpt>
      <trkpt lat="-24.6476260" lon="-53.7518040">
        <ele>538.3</ele>
        <time>2018-09-15T19:42:18Z</time>
      </trkpt>
      <trkpt lat="-24.6476730" lon="-53.7517970">
        <ele>538.3</ele>
        <time>2018-09-15T19:42:19Z</time>
      </trkpt>
      <trkpt lat="-24.6477200" lon="-53.7517900">
        <ele>538.2</ele>
        <time>2018-09-15T19:42:20Z</time>
      </trkpt>
      <trkpt lat="-24.6477680" lon="-53.7517840">
        <ele>538.2</ele>
        <time>2018-09-15T19:42:21Z</time>
      </trkpt>
      <trkpt lat="-24.6478160" lon="-53.7517790">
        <ele>538.2</ele>
        <time>2018-09-15T19:42:22Z</time>
      </trkpt>
      <trkpt lat="-24.6478630" lon="-53.7517740">
        <ele>538.1</ele>
        <time>2018-09-15T19:42:23Z</time>
      </trkpt>
      <trkpt lat="-24.6479100" lon="-53.7517690">
        <ele>538.1</ele>
        <time>2018-09-15T19:42:24Z</time>
      </trkpt>
      <trkpt lat="-24.6479580" lon="-53.7517630">
        <ele>538.1</ele>
        <time>2018-09-15T19:42:25Z</time>
      </trkpt>
      <trkpt lat="-24.6480050" lon="-53.7517590">
        <ele>538.0</ele>
        <time>2018-09-15T19:42:26Z</time>
      </trkpt>
      <trkpt lat="-24.6480540" lon="-53.7517550">
        <ele>538.0</ele>
        <time>2018-09-15T19:42:27Z</time>
      </trkpt>
      <trkpt lat="-24.6481030" lon="-53.7517500">
        <ele>538.0</ele>
        <time>2018-09-15T19:42:28Z</time>
      </trkpt>
      <trkpt lat="-24.6481510" lon="-53.7517460">
        <ele>537.9</ele>
        <time>2018-09-15T19:42:29Z</time>
      </trkpt>
      <trkpt lat="-24.6481980" lon="-53.7517430">
        <ele>537.9</ele>
        <time>2018-09-15T19:42:30Z</time>
      </trkpt>
      <trkpt lat="-24.6482450" lon="-53.7517400">
        <ele>537.8</ele>
        <time>2018-09-15T19:42:31Z</time>
      </trkpt>
      <trkpt lat="-24.6482910" lon="-53.7517360">
        <ele>537.8</ele>
        <time>2018-09-15T19:42:32Z</time>
      </trkpt>
      <trkpt lat="-24.6483360" lon="-53.7517330">
        <ele>537.8</ele>
        <time>2018-09-15T19:42:33Z</time>
      </trkpt>
      <trkpt lat="-24.6483800" lon="-53.7517310">
        <ele>537.7</ele>
        <time>2018-09-15T19:42:34Z</time>
      </trkpt>
      <trkpt lat="-24.6484250" lon="-53.7517280">
        <ele>537.7</ele>
        <time>2018-09-15T19:42:35Z</time>
      </trkpt>
      <trkpt lat="-24.6484720" lon="-53.7517250">
        <ele>537.6</ele>
        <time>2018-09-15T19:42:36Z</time>
      </trkpt>
      <trkpt lat="-24.6485180" lon="-53.7517230">
        <ele>537.6</ele>
        <time>2018-09-15T19:42:37Z</time>
      </trkpt>
      <trkpt lat="-24.6485630" lon="-53.7517200">
        <ele>537.5</ele>
        <time>2018-09-15T19:42:38Z</time>
      </trkpt>
      <trkpt lat="-24.6486050" lon="-53.7517110">
        <ele>537.4</ele>
        <time>2018-09-15T19:42:39Z</time>
      </trkpt>
      <trkpt lat="-24.6486450" lon="-53.7516970">
        <ele>537.3</ele>
        <time>2018-09-15T19:42:40Z</time>
      </trkpt>
      <trkpt lat="-24.6486840" lon="-53.7516870">
        <ele>537.2</ele>
        <time>2018-09-15T19:42:41Z</time>
      </trkpt>
      <trkpt lat="-24.6487220" lon="-53.7516810">
        <ele>537.1</ele>
        <time>2018-09-15T19:42:42Z</time>
      </trkpt>
      <trkpt lat="-24.6487590" lon="-53.7516780">
        <ele>537.0</ele>
        <time>2018-09-15T19:42:43Z</time>
      </trkpt>
      <trkpt lat="-24.6487940" lon="-53.7516760">
        <ele>536.8</ele>
        <time>2018-09-15T19:42:44Z</time>
      </trkpt>
      <trkpt lat="-24.6488280" lon="-53.7516730">
        <ele>536.7</ele>
        <time>2018-09-15T19:42:45Z</time>
      </trkpt>
      <trkpt lat="-24.6488630" lon="-53.7516730">
        <ele>536.5</ele>
        <time>2018-09-15T19:42:46Z</time>
      </trkpt>
      <trkpt lat="-24.6488950" lon="-53.7516690">
        <ele>536.3</ele>
        <time>2018-09-15T19:42:47Z</time>
      </trkpt>
      <trkpt lat="-24.6489260" lon="-53.7516560">
        <ele>536.0</ele>
        <time>2018-09-15T19:42:48Z</time>
      </trkpt>
      <trkpt lat="-24.6489470" lon="-53.7516370">
        <ele>536.0</ele>
        <time>2018-09-15T19:42:49Z</time>
      </trkpt>
      <trkpt lat="-24.6489570" lon="-53.7516160">
        <ele>536.0</ele>
        <time>2018-09-15T19:42:50Z</time>
      </trkpt>
      <trkpt lat="-24.6489610" lon="-53.7516020">
        <ele>536.0</ele>
        <time>2018-09-15T19:42:51Z</time>
      </trkpt>
      <trkpt lat="-24.6489590" lon="-53.7515960">
        <ele>536.0</ele>
        <time>2018-09-15T19:42:52Z</time>
      </trkpt>
      <trkpt lat="-24.6489580" lon="-53.7515960">
        <ele>536.0</ele>
        <time>2018-09-15T19:42:53Z</time>
      </trkpt>
      <trkpt lat="-24.6489580" lon="-53.7515960">
        <ele>536.0</ele>
        <time>2018-09-15T19:42:54Z</time>
      </trkpt>
      <trkpt lat="-24.6489580" lon="-53.7515950">
        <ele>536.0</ele>
        <time>2018-09-15T19:42:59Z</time>
      </trkpt>
      <trkpt lat="-24.6489590" lon="-53.7515940">
        <ele>536.0</ele>
        <time>2018-09-15T19:43:00Z</time>
      </trkpt>
      <trkpt lat="-24.6489590" lon="-53.7515940">
        <ele>536.0</ele>
        <time>2018-09-15T19:43:01Z</time>
      </trkpt>
      <trkpt lat="-24.6489600" lon="-53.7515940">
        <ele>536.0</ele>
        <time>2018-09-15T19:43:25Z</time>
      </trkpt>
      <trkpt lat="-24.6489690" lon="-53.7515950">
        <ele>536.0</ele>
        <time>2018-09-15T19:43:26Z</time>
      </trkpt>
      <trkpt lat="-24.6489840" lon="-53.7516010">
        <ele>536.0</ele>
        <time>2018-09-15T19:43:27Z</time>
      </trkpt>
      <trkpt lat="-24.6490040" lon="-53.7516120">
        <ele>536.0</ele>
        <time>2018-09-15T19:43:28Z</time>
      </trkpt>
      <trkpt lat="-24.6490270" lon="-53.7516260">
        <ele>536.0</ele>
        <time>2018-09-15T19:43:29Z</time>
      </trkpt>
      <trkpt lat="-24.6490510" lon="-53.7516400">
        <ele>535.8</ele>
        <time>2018-09-15T19:43:30Z</time>
      </trkpt>
      <trkpt lat="-24.6490760" lon="-53.7516540">
        <ele>535.7</ele>
        <time>2018-09-15T19:43:31Z</time>
      </trkpt>
      <trkpt lat="-24.6491020" lon="-53.7516640">
        <ele>535.7</ele>
        <time>2018-09-15T19:43:32Z</time>
      </trkpt>
      <trkpt lat="-24.6491310" lon="-53.7516740">
        <ele>535.6</ele>
        <time>2018-09-15T19:43:33Z</time>
      </trkpt>
      <trkpt lat="-24.6491630" lon="-53.7516850">
        <ele>535.5</ele>
        <time>2018-09-15T19:43:34Z</time>
      </trkpt>
      <trkpt lat="-24.6491960" lon="-53.7516910">
        <ele>535.5</ele>
        <time>2018-09-15T19:43:35Z</time>
      </trkpt>
      <trkpt lat="-24.6492330" lon="-53.7516980">
        <ele>535.4</ele>
        <time>2018-09-15T19:43:36Z</time>
      </trkpt>
      <trkpt lat="-24.6492720" lon="-53.7517060">
        <ele>535.4</ele>
        <time>2018-09-15T19:43:37Z</time>
      </trkpt>
      <trkpt lat="-24.6493130" lon="-53.7517110">
        <ele>535.4</ele>
        <time>2018-09-15T19:43:38Z</time>
      </trkpt>
      <trkpt lat="-24.6493540" lon="-53.7517140">
        <ele>535.4</ele>
        <time>2018-09-15T19:43:39Z</time>
      </trkpt>
      <trkpt lat="-24.6493950" lon="-53.7517150">
        <ele>535.3</ele>
        <time>2018-09-15T19:43:40Z</time>
      </trkpt>
      <trkpt lat="-24.6494380" lon="-53.7517170">
        <ele>535.3</ele>
        <time>2018-09-15T19:43:41Z</time>
      </trkpt>
      <trkpt lat="-24.6494800" lon="-53.7517180">
        <ele>535.3</ele>
        <time>2018-09-15T19:43:42Z</time>
      </trkpt>
      <trkpt lat="-24.6495240" lon="-53.7517180">
        <ele>535.2</ele>
        <time>2018-09-15T19:43:43Z</time>
      </trkpt>
      <trkpt lat="-24.6495680" lon="-53.7517190">
        <ele>535.2</ele>
        <time>2018-09-15T19:43:44Z</time>
      </trkpt>
      <trkpt lat="-24.6496120" lon="-53.7517220">
        <ele>535.2</ele>
        <time>2018-09-15T19:43:45Z</time>
      </trkpt>
      <trkpt lat="-24.6496580" lon="-53.7517240">
        <ele>535.2</ele>
        <time>2018-09-15T19:43:46Z</time>
      </trkpt>
      <trkpt lat="-24.6497030" lon="-53.7517270">
        <ele>535.1</ele>
        <time>2018-09-15T19:43:47Z</time>
      </trkpt>
      <trkpt lat="-24.6497490" lon="-53.7517270">
        <ele>535.1</ele>
        <time>2018-09-15T19:43:48Z</time>
      </trkpt>
      <trkpt lat="-24.6497950" lon="-53.7517280">
        <ele>535.1</ele>
        <time>2018-09-15T19:43:49Z</time>
      </trkpt>
      <trkpt lat="-24.6498400" lon="-53.7517320">
        <ele>535.0</ele>
        <time>2018-09-15T19:43:50Z</time>
      </trkpt>
      <trkpt lat="-24.6498850" lon="-53.7517380">
        <ele>535.0</ele>
        <time>2018-09-15T19:43:51Z</time>
      </trkpt>
      <trkpt lat="-24.6499310" lon="-53.7517440">
        <ele>534.9</ele>
        <time>2018-09-15T19:43:52Z</time>
      </trkpt>
      <trkpt lat="-24.6499760" lon="-53.7517510">
        <ele>534.8</ele>
        <time>2018-09-15T19:43:53Z</time>
      </trkpt>
      <trkpt lat="-24.6500210" lon="-53.7517590">
        <ele>534.7</ele>
        <time>2018-09-15T19:43:54Z</time>
      </trkpt>
      <trkpt lat="-24.6500680" lon="-53.7517660">
        <ele>534.6</ele>
        <time>2018-09-15T19:43:55Z</time>
      </trkpt>
      <trkpt lat="-24.6501150" lon="-53.7517740">
        <ele>534.6</ele>
        <time>2018-09-15T19:43:56Z</time>
      </trkpt>
      <trkpt lat="-24.6501630" lon="-53.7517820">
        <ele>534.5</ele>
        <time>2018-09-15T19:43:57Z</time>
      </trkpt>
      <trkpt lat="-24.6502130" lon="-53.7517900">
        <ele>534.5</ele>
        <time>2018-09-15T19:43:58Z</time>
      </trkpt>
      <trkpt lat="-24.6503130" lon="-53.7518060">
        <ele>534.4</ele>
        <time>2018-09-15T19:43:59Z</time>
      </trkpt>
      <trkpt lat="-24.6503630" lon="-53.7518160">
        <ele>534.4</ele>
        <time>2018-09-15T19:44:01Z</time>
      </trkpt>
      <trkpt lat="-24.6504130" lon="-53.7518260">
        <ele>534.4</ele>
        <time>2018-09-15T19:44:02Z</time>
      </trkpt>
      <trkpt lat="-24.6504630" lon="-53.7518370">
        <ele>534.5</ele>
        <time>2018-09-15T19:44:03Z</time>
      </trkpt>
      <trkpt lat="-24.6505120" lon="-53.7518490">
        <ele>534.5</ele>
        <time>2018-09-15T19:44:04Z</time>
      </trkpt>
      <trkpt lat="-24.6505610" lon="-53.7518610">
        <ele>534.6</ele>
        <time>2018-09-15T19:44:05Z</time>
      </trkpt>
      <trkpt lat="-24.6506100" lon="-53.7518730">
        <ele>534.7</ele>
        <time>2018-09-15T19:44:06Z</time>
      </trkpt>
      <trkpt lat="-24.6506570" lon="-53.7518870">
        <ele>534.8</ele>
        <time>2018-09-15T19:44:07Z</time>
      </trkpt>
      <trkpt lat="-24.6507050" lon="-53.7519000">
        <ele>534.8</ele>
        <time>2018-09-15T19:44:08Z</time>
      </trkpt>
      <trkpt lat="-24.6507530" lon="-53.7519120">
        <ele>534.9</ele>
        <time>2018-09-15T19:44:09Z</time>
      </trkpt>
      <trkpt lat="-24.6508000" lon="-53.7519260">
        <ele>534.9</ele>
        <time>2018-09-15T19:44:10Z</time>
      </trkpt>
      <trkpt lat="-24.6508930" lon="-53.7519550">
        <ele>535.0</ele>
        <time>2018-09-15T19:44:11Z</time>
      </trkpt>
      <trkpt lat="-24.6509400" lon="-53.7519700">
        <ele>535.0</ele>
        <time>2018-09-15T19:44:12Z</time>
      </trkpt>
      <trkpt lat="-24.6509860" lon="-53.7519860">
        <ele>535.0</ele>
        <time>2018-09-15T19:44:13Z</time>
      </trkpt>
      <trkpt lat="-24.6510310" lon="-53.7520030">
        <ele>535.0</ele>
        <time>2018-09-15T19:44:14Z</time>
      </trkpt>
      <trkpt lat="-24.6510750" lon="-53.7520200">
        <ele>535.0</ele>
        <time>2018-09-15T19:44:15Z</time>
      </trkpt>
      <trkpt lat="-24.6511180" lon="-53.7520360">
        <ele>535.0</ele>
        <time>2018-09-15T19:44:16Z</time>
      </trkpt>
      <trkpt lat="-24.6511610" lon="-53.7520530">
        <ele>535.1</ele>
        <time>2018-09-15T19:44:17Z</time>
      </trkpt>
      <trkpt lat="-24.6512050" lon="-53.7520700">
        <ele>535.1</ele>
        <time>2018-09-15T19:44:18Z</time>
      </trkpt>
      <trkpt lat="-24.6512490" lon="-53.7520870">
        <ele>535.1</ele>
        <time>2018-09-15T19:44:19Z</time>
      </trkpt>
      <trkpt lat="-24.6512930" lon="-53.7521030">
        <ele>535.1</ele>
        <time>2018-09-15T19:44:20Z</time>
      </trkpt>
      <trkpt lat="-24.6513380" lon="-53.7521200">
        <ele>535.1</ele>
        <time>2018-09-15T19:44:21Z</time>
      </trkpt>
      <trkpt lat="-24.6513830" lon="-53.7521370">
        <ele>535.1</ele>
        <time>2018-09-15T19:44:22Z</time>
      </trkpt>
      <trkpt lat="-24.6514290" lon="-53.7521540">
        <ele>535.1</ele>
        <time>2018-09-15T19:44:23Z</time>
      </trkpt>
      <trkpt lat="-24.6514740" lon="-53.7521710">
        <ele>535.1</ele>
        <time>2018-09-15T19:44:24Z</time>
      </trkpt>
      <trkpt lat="-24.6515200" lon="-53.7521880">
        <ele>535.1</ele>
        <time>2018-09-15T19:44:25Z</time>
      </trkpt>
      <trkpt lat="-24.6516120" lon="-53.7522240">
        <ele>535.1</ele>
        <time>2018-09-15T19:44:27Z</time>
      </trkpt>
      <trkpt lat="-24.6516570" lon="-53.7522430">
        <ele>535.1</ele>
        <time>2018-09-15T19:44:28Z</time>
      </trkpt>
      <trkpt lat="-24.6517030" lon="-53.7522610">
        <ele>535.1</ele>
        <time>2018-09-15T19:44:29Z</time>
      </trkpt>
      <trkpt lat="-24.6517480" lon="-53.7522780">
        <ele>535.1</ele>
        <time>2018-09-15T19:44:30Z</time>
      </trkpt>
      <trkpt lat="-24.6517930" lon="-53.7522950">
        <ele>535.1</ele>
        <time>2018-09-15T19:44:31Z</time>
      </trkpt>
      <trkpt lat="-24.6518390" lon="-53.7523120">
        <ele>535.1</ele>
        <time>2018-09-15T19:44:32Z</time>
      </trkpt>
      <trkpt lat="-24.6518850" lon="-53.7523280">
        <ele>535.1</ele>
        <time>2018-09-15T19:44:33Z</time>
      </trkpt>
      <trkpt lat="-24.6519310" lon="-53.7523450">
        <ele>535.1</ele>
        <time>2018-09-15T19:44:34Z</time>
      </trkpt>
      <trkpt lat="-24.6519760" lon="-53.7523620">
        <ele>535.1</ele>
        <time>2018-09-15T19:44:35Z</time>
      </trkpt>
      <trkpt lat="-24.6520220" lon="-53.7523800">
        <ele>535.1</ele>
        <time>2018-09-15T19:44:36Z</time>
      </trkpt>
      <trkpt lat="-24.6520680" lon="-53.7523970">
        <ele>535.1</ele>
        <time>2018-09-15T19:44:37Z</time>
      </trkpt>
      <trkpt lat="-24.6521140" lon="-53.7524140">
        <ele>535.1</ele>
        <time>2018-09-15T19:44:38Z</time>
      </trkpt>
      <trkpt lat="-24.6521590" lon="-53.7524320">
        <ele>535.1</ele>
        <time>2018-09-15T19:44:39Z</time>
      </trkpt>
      <trkpt lat="-24.6522040" lon="-53.7524490">
        <ele>535.1</ele>
        <time>2018-09-15T19:44:40Z</time>
      </trkpt>
      <trkpt lat="-24.6522500" lon="-53.7524660">
        <ele>535.1</ele>
        <time>2018-09-15T19:44:41Z</time>
      </trkpt>
      <trkpt lat="-24.6522950" lon="-53.7524820">
        <ele>535.1</ele>
        <time>2018-09-15T19:44:42Z</time>
      </trkpt>
      <trkpt lat="-24.6523410" lon="-53.7524980">
        <ele>535.1</ele>
        <time>2018-09-15T19:44:43Z</time>
      </trkpt>
      <trkpt lat="-24.6523860" lon="-53.7525140">
        <ele>535.1</ele>
        <time>2018-09-15T19:44:44Z</time>
      </trkpt>
      <trkpt lat="-24.6524310" lon="-53.7525310">
        <ele>535.1</ele>
        <time>2018-09-15T19:44:45Z</time>
      </trkpt>
      <trkpt lat="-24.6524760" lon="-53.7525480">
        <ele>535.1</ele>
        <time>2018-09-15T19:44:46Z</time>
      </trkpt>
      <trkpt lat="-24.6525220" lon="-53.7525670">
        <ele>535.1</ele>
        <time>2018-09-15T19:44:47Z</time>
      </trkpt>
      <trkpt lat="-24.6525680" lon="-53.7525840">
        <ele>535.1</ele>
        <time>2018-09-15T19:44:48Z</time>
      </trkpt>
      <trkpt lat="-24.6526140" lon="-53.7526010">
        <ele>535.1</ele>
        <time>2018-09-15T19:44:49Z</time>
      </trkpt>
      <trkpt lat="-24.6526600" lon="-53.7526170">
        <ele>535.1</ele>
        <time>2018-09-15T19:44:50Z</time>
      </trkpt>
      <trkpt lat="-24.6527050" lon="-53.7526350">
        <ele>535.1</ele>
        <time>2018-09-15T19:44:51Z</time>
      </trkpt>
      <trkpt lat="-24.6527050" lon="-53.7526350">
        <ele>535.1</ele>
        <time>2018-09-15T19:44:52Z</time>
      </trkpt>
      <trkpt lat="-24.6527510" lon="-53.7526520">
        <ele>535.1</ele>
        <time>2018-09-15T19:44:53Z</time>
      </trkpt>
      <trkpt lat="-24.6527970" lon="-53.7526680">
        <ele>535.1</ele>
        <time>2018-09-15T19:44:54Z</time>
      </trkpt>
      <trkpt lat="-24.6528420" lon="-53.7526850">
        <ele>535.1</ele>
        <time>2018-09-15T19:44:55Z</time>
      </trkpt>
      <trkpt lat="-24.6528870" lon="-53.7527030">
        <ele>535.1</ele>
        <time>2018-09-15T19:44:56Z</time>
      </trkpt>
      <trkpt lat="-24.6529330" lon="-53.7527190">
        <ele>535.1</ele>
        <time>2018-09-15T19:44:57Z</time>
      </trkpt>
      <trkpt lat="-24.6529790" lon="-53.7527370">
        <ele>535.1</ele>
        <time>2018-09-15T19:44:58Z</time>
      </trkpt>
      <trkpt lat="-24.6530250" lon="-53.7527540">
        <ele>535.1</ele>
        <time>2018-09-15T19:44:59Z</time>
      </trkpt>
      <trkpt lat="-24.6530710" lon="-53.7527720">
        <ele>535.1</ele>
        <time>2018-09-15T19:45:00Z</time>
      </trkpt>
      <trkpt lat="-24.6531170" lon="-53.7527880">
        <ele>535.1</ele>
        <time>2018-09-15T19:45:01Z</time>
      </trkpt>
      <trkpt lat="-24.6531620" lon="-53.7528060">
        <ele>535.1</ele>
        <time>2018-09-15T19:45:02Z</time>
      </trkpt>
      <trkpt lat="-24.6532080" lon="-53.7528230">
        <ele>535.1</ele>
        <time>2018-09-15T19:45:03Z</time>
      </trkpt>
      <trkpt lat="-24.6532540" lon="-53.7528400">
        <ele>535.1</ele>
        <time>2018-09-15T19:45:04Z</time>
      </trkpt>
      <trkpt lat="-24.6533000" lon="-53.7528560">
        <ele>535.0</ele>
        <time>2018-09-15T19:45:05Z</time>
      </trkpt>
      <trkpt lat="-24.6533450" lon="-53.7528730">
        <ele>535.0</ele>
        <time>2018-09-15T19:45:06Z</time>
      </trkpt>
      <trkpt lat="-24.6533890" lon="-53.7528900">
        <ele>535.0</ele>
        <time>2018-09-15T19:45:07Z</time>
      </trkpt>
      <trkpt lat="-24.6534340" lon="-53.7529070">
        <ele>535.0</ele>
        <time>2018-09-15T19:45:08Z</time>
      </trkpt>
      <trkpt lat="-24.6534780" lon="-53.7529240">
        <ele>535.0</ele>
        <time>2018-09-15T19:45:09Z</time>
      </trkpt>
      <trkpt lat="-24.6535230" lon="-53.7529410">
        <ele>535.0</ele>
        <time>2018-09-15T19:45:10Z</time>
      </trkpt>
      <trkpt lat="-24.6535670" lon="-53.7529580">
        <ele>535.0</ele>
        <time>2018-09-15T19:45:11Z</time>
      </trkpt>
      <trkpt lat="-24.6536110" lon="-53.7529760">
        <ele>535.0</ele>
        <time>2018-09-15T19:45:12Z</time>
      </trkpt>
      <trkpt lat="-24.6536540" lon="-53.7529930">
        <ele>535.0</ele>
        <time>2018-09-15T19:45:13Z</time>
      </trkpt>
      <trkpt lat="-24.6536980" lon="-53.7530080">
        <ele>535.0</ele>
        <time>2018-09-15T19:45:14Z</time>
      </trkpt>
      <trkpt lat="-24.6537420" lon="-53.7530230">
        <ele>535.0</ele>
        <time>2018-09-15T19:45:15Z</time>
      </trkpt>
      <trkpt lat="-24.6537850" lon="-53.7530390">
        <ele>535.0</ele>
        <time>2018-09-15T19:45:16Z</time>
      </trkpt>
      <trkpt lat="-24.6538280" lon="-53.7530550">
        <ele>535.0</ele>
        <time>2018-09-15T19:45:17Z</time>
      </trkpt>
      <trkpt lat="-24.6538710" lon="-53.7530720">
        <ele>535.0</ele>
        <time>2018-09-15T19:45:18Z</time>
      </trkpt>
      <trkpt lat="-24.6539140" lon="-53.7530870">
        <ele>535.0</ele>
        <time>2018-09-15T19:45:19Z</time>
      </trkpt>
      <trkpt lat="-24.6539570" lon="-53.7531030">
        <ele>535.0</ele>
        <time>2018-09-15T19:45:20Z</time>
      </trkpt>
      <trkpt lat="-24.6540010" lon="-53.7531190">
        <ele>535.1</ele>
        <time>2018-09-15T19:45:21Z</time>
      </trkpt>
      <trkpt lat="-24.6540440" lon="-53.7531340">
        <ele>535.1</ele>
        <time>2018-09-15T19:45:22Z</time>
      </trkpt>
      <trkpt lat="-24.6540880" lon="-53.7531500">
        <ele>535.1</ele>
        <time>2018-09-15T19:45:23Z</time>
      </trkpt>
      <trkpt lat="-24.6541310" lon="-53.7531640">
        <ele>535.1</ele>
        <time>2018-09-15T19:45:24Z</time>
      </trkpt>
      <trkpt lat="-24.6541740" lon="-53.7531790">
        <ele>535.1</ele>
        <time>2018-09-15T19:45:25Z</time>
      </trkpt>
      <trkpt lat="-24.6542150" lon="-53.7531970">
        <ele>535.1</ele>
        <time>2018-09-15T19:45:26Z</time>
      </trkpt>
      <trkpt lat="-24.6542570" lon="-53.7532150">
        <ele>535.1</ele>
        <time>2018-09-15T19:45:27Z</time>
      </trkpt>
      <trkpt lat="-24.6543000" lon="-53.7532320">
        <ele>535.1</ele>
        <time>2018-09-15T19:45:28Z</time>
      </trkpt>
      <trkpt lat="-24.6543420" lon="-53.7532490">
        <ele>535.2</ele>
        <time>2018-09-15T19:45:29Z</time>
      </trkpt>
      <trkpt lat="-24.6543840" lon="-53.7532660">
        <ele>535.2</ele>
        <time>2018-09-15T19:45:30Z</time>
      </trkpt>
      <trkpt lat="-24.6544270" lon="-53.7532830">
        <ele>535.3</ele>
        <time>2018-09-15T19:45:31Z</time>
      </trkpt>
      <trkpt lat="-24.6544710" lon="-53.7532990">
        <ele>535.4</ele>
        <time>2018-09-15T19:45:32Z</time>
      </trkpt>
      <trkpt lat="-24.6545140" lon="-53.7533150">
        <ele>535.4</ele>
        <time>2018-09-15T19:45:33Z</time>
      </trkpt>
      <trkpt lat="-24.6545580" lon="-53.7533310">
        <ele>535.5</ele>
        <time>2018-09-15T19:45:34Z</time>
      </trkpt>
      <trkpt lat="-24.6546020" lon="-53.7533460">
        <ele>535.6</ele>
        <time>2018-09-15T19:45:35Z</time>
      </trkpt>
      <trkpt lat="-24.6546450" lon="-53.7533610">
        <ele>535.7</ele>
        <time>2018-09-15T19:45:36Z</time>
      </trkpt>
      <trkpt lat="-24.6546880" lon="-53.7533760">
        <ele>535.8</ele>
        <time>2018-09-15T19:45:37Z</time>
      </trkpt>
      <trkpt lat="-24.6547300" lon="-53.7533920">
        <ele>535.9</ele>
        <time>2018-09-15T19:45:38Z</time>
      </trkpt>
      <trkpt lat="-24.6547710" lon="-53.7534080">
        <ele>536.0</ele>
        <time>2018-09-15T19:45:39Z</time>
      </trkpt>
      <trkpt lat="-24.6548130" lon="-53.7534230">
        <ele>536.1</ele>
        <time>2018-09-15T19:45:40Z</time>
      </trkpt>
      <trkpt lat="-24.6548540" lon="-53.7534380">
        <ele>536.1</ele>
        <time>2018-09-15T19:45:41Z</time>
      </trkpt>
      <trkpt lat="-24.6548940" lon="-53.7534530">
        <ele>536.2</ele>
        <time>2018-09-15T19:45:42Z</time>
      </trkpt>
      <trkpt lat="-24.6549340" lon="-53.7534690">
        <ele>536.3</ele>
        <time>2018-09-15T19:45:43Z</time>
      </trkpt>
      <trkpt lat="-24.6549750" lon="-53.7534830">
        <ele>536.3</ele>
        <time>2018-09-15T19:45:44Z</time>
      </trkpt>
      <trkpt lat="-24.6550150" lon="-53.7534980">
        <ele>536.4</ele>
        <time>2018-09-15T19:45:45Z</time>
      </trkpt>
      <trkpt lat="-24.6550550" lon="-53.7535130">
        <ele>536.4</ele>
        <time>2018-09-15T19:45:46Z</time>
      </trkpt>
      <trkpt lat="-24.6550950" lon="-53.7535290">
        <ele>536.5</ele>
        <time>2018-09-15T19:45:47Z</time>
      </trkpt>
      <trkpt lat="-24.6551350" lon="-53.7535440">
        <ele>536.5</ele>
        <time>2018-09-15T19:45:48Z</time>
      </trkpt>
      <trkpt lat="-24.6551740" lon="-53.7535590">
        <ele>536.5</ele>
        <time>2018-09-15T19:45:49Z</time>
      </trkpt>
      <trkpt lat="-24.6552130" lon="-53.7535720">
        <ele>536.6</ele>
        <time>2018-09-15T19:45:50Z</time>
      </trkpt>
      <trkpt lat="-24.6552530" lon="-53.7535860">
        <ele>536.6</ele>
        <time>2018-09-15T19:45:51Z</time>
      </trkpt>
      <trkpt lat="-24.6552930" lon="-53.7536000">
        <ele>536.6</ele>
        <time>2018-09-15T19:45:52Z</time>
      </trkpt>
      <trkpt lat="-24.6553330" lon="-53.7536150">
        <ele>536.6</ele>
        <time>2018-09-15T19:45:53Z</time>
      </trkpt>
      <trkpt lat="-24.6553730" lon="-53.7536320">
        <ele>536.6</ele>
        <time>2018-09-15T19:45:54Z</time>
      </trkpt>
      <trkpt lat="-24.6554130" lon="-53.7536470">
        <ele>536.6</ele>
        <time>2018-09-15T19:45:55Z</time>
      </trkpt>
      <trkpt lat="-24.6554530" lon="-53.7536620">
        <ele>536.6</ele>
        <time>2018-09-15T19:45:56Z</time>
      </trkpt>
      <trkpt lat="-24.6554930" lon="-53.7536770">
        <ele>536.6</ele>
        <time>2018-09-15T19:45:57Z</time>
      </trkpt>
      <trkpt lat="-24.6555320" lon="-53.7536930">
        <ele>536.6</ele>
        <time>2018-09-15T19:45:58Z</time>
      </trkpt>
      <trkpt lat="-24.6555720" lon="-53.7537070">
        <ele>536.6</ele>
        <time>2018-09-15T19:45:59Z</time>
      </trkpt>
      <trkpt lat="-24.6556110" lon="-53.7537220">
        <ele>536.6</ele>
        <time>2018-09-15T19:46:00Z</time>
      </trkpt>
      <trkpt lat="-24.6556510" lon="-53.7537360">
        <ele>536.6</ele>
        <time>2018-09-15T19:46:01Z</time>
      </trkpt>
      <trkpt lat="-24.6556900" lon="-53.7537510">
        <ele>536.6</ele>
        <time>2018-09-15T19:46:02Z</time>
      </trkpt>
      <trkpt lat="-24.6557300" lon="-53.7537650">
        <ele>536.6</ele>
        <time>2018-09-15T19:46:03Z</time>
      </trkpt>
      <trkpt lat="-24.6557700" lon="-53.7537800">
        <ele>536.6</ele>
        <time>2018-09-15T19:46:04Z</time>
      </trkpt>
      <trkpt lat="-24.6558100" lon="-53.7537930">
        <ele>536.5</ele>
        <time>2018-09-15T19:46:05Z</time>
      </trkpt>
      <trkpt lat="-24.6558500" lon="-53.7538080">
        <ele>536.5</ele>
        <time>2018-09-15T19:46:06Z</time>
      </trkpt>
      <trkpt lat="-24.6558900" lon="-53.7538230">
        <ele>536.5</ele>
        <time>2018-09-15T19:46:07Z</time>
      </trkpt>
      <trkpt lat="-24.6558900" lon="-53.7538230">
        <ele>536.5</ele>
        <time>2018-09-15T19:46:08Z</time>
      </trkpt>
      <trkpt lat="-24.6559700" lon="-53.7538550">
        <ele>536.5</ele>
        <time>2018-09-15T19:46:09Z</time>
      </trkpt>
      <trkpt lat="-24.6560090" lon="-53.7538700">
        <ele>536.5</ele>
        <time>2018-09-15T19:46:10Z</time>
      </trkpt>
      <trkpt lat="-24.6560500" lon="-53.7538850">
        <ele>536.4</ele>
        <time>2018-09-15T19:46:11Z</time>
      </trkpt>
      <trkpt lat="-24.6560900" lon="-53.7538990">
        <ele>536.4</ele>
        <time>2018-09-15T19:46:12Z</time>
      </trkpt>
      <trkpt lat="-24.6561300" lon="-53.7539140">
        <ele>536.3</ele>
        <time>2018-09-15T19:46:13Z</time>
      </trkpt>
      <trkpt lat="-24.6561700" lon="-53.7539290">
        <ele>536.2</ele>
        <time>2018-09-15T19:46:14Z</time>
      </trkpt>
      <trkpt lat="-24.6562100" lon="-53.7539450">
        <ele>536.1</ele>
        <time>2018-09-15T19:46:15Z</time>
      </trkpt>
      <trkpt lat="-24.6562500" lon="-53.7539600">
        <ele>536.0</ele>
        <time>2018-09-15T19:46:16Z</time>
      </trkpt>
      <trkpt lat="-24.6562890" lon="-53.7539760">
        <ele>536.0</ele>
        <time>2018-09-15T19:46:17Z</time>
      </trkpt>
      <trkpt lat="-24.6563290" lon="-53.7539900">
        <ele>535.9</ele>
        <time>2018-09-15T19:46:18Z</time>
      </trkpt>
      <trkpt lat="-24.6563700" lon="-53.7540050">
        <ele>535.8</ele>
        <time>2018-09-15T19:46:19Z</time>
      </trkpt>
      <trkpt lat="-24.6564110" lon="-53.7540190">
        <ele>535.7</ele>
        <time>2018-09-15T19:46:20Z</time>
      </trkpt>
      <trkpt lat="-24.6564530" lon="-53.7540350">
        <ele>535.6</ele>
        <time>2018-09-15T19:46:21Z</time>
      </trkpt>
      <trkpt lat="-24.6564950" lon="-53.7540510">
        <ele>535.5</ele>
        <time>2018-09-15T19:46:22Z</time>
      </trkpt>
      <trkpt lat="-24.6565380" lon="-53.7540660">
        <ele>535.4</ele>
        <time>2018-09-15T19:46:23Z</time>
      </trkpt>
      <trkpt lat="-24.6565800" lon="-53.7540820">
        <ele>535.3</ele>
        <time>2018-09-15T19:46:24Z</time>
      </trkpt>
      <trkpt lat="-24.6566230" lon="-53.7540990">
        <ele>535.2</ele>
        <time>2018-09-15T19:46:25Z</time>
      </trkpt>
      <trkpt lat="-24.6566670" lon="-53.7541150">
        <ele>535.1</ele>
        <time>2018-09-15T19:46:26Z</time>
      </trkpt>
      <trkpt lat="-24.6567100" lon="-53.7541310">
        <ele>535.1</ele>
        <time>2018-09-15T19:46:27Z</time>
      </trkpt>
      <trkpt lat="-24.6567530" lon="-53.7541480">
        <ele>535.0</ele>
        <time>2018-09-15T19:46:28Z</time>
      </trkpt>
      <trkpt lat="-24.6567970" lon="-53.7541650">
        <ele>535.0</ele>
        <time>2018-09-15T19:46:29Z</time>
      </trkpt>
      <trkpt lat="-24.6568400" lon="-53.7541810">
        <ele>535.0</ele>
        <time>2018-09-15T19:46:30Z</time>
      </trkpt>
      <trkpt lat="-24.6568840" lon="-53.7541980">
        <ele>535.0</ele>
        <time>2018-09-15T19:46:31Z</time>
      </trkpt>
      <trkpt lat="-24.6569280" lon="-53.7542140">
        <ele>535.0</ele>
        <time>2018-09-15T19:46:32Z</time>
      </trkpt>
      <trkpt lat="-24.6569720" lon="-53.7542290">
        <ele>535.0</ele>
        <time>2018-09-15T19:46:33Z</time>
      </trkpt>
      <trkpt lat="-24.6570160" lon="-53.7542450">
        <ele>535.0</ele>
        <time>2018-09-15T19:46:34Z</time>
      </trkpt>
      <trkpt lat="-24.6570600" lon="-53.7542610">
        <ele>534.9</ele>
        <time>2018-09-15T19:46:35Z</time>
      </trkpt>
      <trkpt lat="-24.6571050" lon="-53.7542780">
        <ele>534.9</ele>
        <time>2018-09-15T19:46:36Z</time>
      </trkpt>
      <trkpt lat="-24.6571500" lon="-53.7542950">
        <ele>534.9</ele>
        <time>2018-09-15T19:46:37Z</time>
      </trkpt>
      <trkpt lat="-24.6571950" lon="-53.7543120">
        <ele>534.9</ele>
        <time>2018-09-15T19:46:38Z</time>
      </trkpt>
      <trkpt lat="-24.6572410" lon="-53.7543300">
        <ele>534.9</ele>
        <time>2018-09-15T19:46:39Z</time>
      </trkpt>
      <trkpt lat="-24.6572870" lon="-53.7543460">
        <ele>534.9</ele>
        <time>2018-09-15T19:46:40Z</time>
      </trkpt>
      <trkpt lat="-24.6573330" lon="-53.7543640">
        <ele>534.9</ele>
        <time>2018-09-15T19:46:41Z</time>
      </trkpt>
      <trkpt lat="-24.6573800" lon="-53.7543820">
        <ele>534.9</ele>
        <time>2018-09-15T19:46:42Z</time>
      </trkpt>
      <trkpt lat="-24.6574270" lon="-53.7543990">
        <ele>534.9</ele>
        <time>2018-09-15T19:46:43Z</time>
      </trkpt>
      <trkpt lat="-24.6574750" lon="-53.7544180">
        <ele>535.0</ele>
        <time>2018-09-15T19:46:44Z</time>
      </trkpt>
      <trkpt lat="-24.6575220" lon="-53.7544360">
        <ele>535.0</ele>
        <time>2018-09-15T19:46:45Z</time>
      </trkpt>
      <trkpt lat="-24.6575700" lon="-53.7544530">
        <ele>535.0</ele>
        <time>2018-09-15T19:46:46Z</time>
      </trkpt>
      <trkpt lat="-24.6576160" lon="-53.7544700">
        <ele>535.0</ele>
        <time>2018-09-15T19:46:47Z</time>
      </trkpt>
      <trkpt lat="-24.6576620" lon="-53.7544880">
        <ele>535.0</ele>
        <time>2018-09-15T19:46:48Z</time>
      </trkpt>
      <trkpt lat="-24.6577100" lon="-53.7545060">
        <ele>535.1</ele>
        <time>2018-09-15T19:46:49Z</time>
      </trkpt>
      <trkpt lat="-24.6577570" lon="-53.7545230">
        <ele>535.2</ele>
        <time>2018-09-15T19:46:50Z</time>
      </trkpt>
      <trkpt lat="-24.6578050" lon="-53.7545400">
        <ele>535.2</ele>
        <time>2018-09-15T19:46:51Z</time>
      </trkpt>
      <trkpt lat="-24.6578520" lon="-53.7545580">
        <ele>535.3</ele>
        <time>2018-09-15T19:46:52Z</time>
      </trkpt>
      <trkpt lat="-24.6578990" lon="-53.7545760">
        <ele>535.5</ele>
        <time>2018-09-15T19:46:53Z</time>
      </trkpt>
      <trkpt lat="-24.6579470" lon="-53.7545940">
        <ele>535.6</ele>
        <time>2018-09-15T19:46:54Z</time>
      </trkpt>
      <trkpt lat="-24.6579940" lon="-53.7546130">
        <ele>535.7</ele>
        <time>2018-09-15T19:46:55Z</time>
      </trkpt>
      <trkpt lat="-24.6580420" lon="-53.7546320">
        <ele>535.8</ele>
        <time>2018-09-15T19:46:56Z</time>
      </trkpt>
      <trkpt lat="-24.6580900" lon="-53.7546490">
        <ele>536.0</ele>
        <time>2018-09-15T19:46:57Z</time>
      </trkpt>
      <trkpt lat="-24.6581380" lon="-53.7546670">
        <ele>536.1</ele>
        <time>2018-09-15T19:46:58Z</time>
      </trkpt>
      <trkpt lat="-24.6581850" lon="-53.7546850">
        <ele>536.2</ele>
        <time>2018-09-15T19:46:59Z</time>
      </trkpt>
      <trkpt lat="-24.6582320" lon="-53.7547030">
        <ele>536.3</ele>
        <time>2018-09-15T19:47:00Z</time>
      </trkpt>
      <trkpt lat="-24.6582800" lon="-53.7547210">
        <ele>536.4</ele>
        <time>2018-09-15T19:47:01Z</time>
      </trkpt>
      <trkpt lat="-24.6583270" lon="-53.7547390">
        <ele>536.4</ele>
        <time>2018-09-15T19:47:02Z</time>
      </trkpt>
      <trkpt lat="-24.6583750" lon="-53.7547580">
        <ele>536.5</ele>
        <time>2018-09-15T19:47:03Z</time>
      </trkpt>
      <trkpt lat="-24.6584230" lon="-53.7547760">
        <ele>536.5</ele>
        <time>2018-09-15T19:47:04Z</time>
      </trkpt>
      <trkpt lat="-24.6584710" lon="-53.7547940">
        <ele>536.5</ele>
        <time>2018-09-15T19:47:05Z</time>
      </trkpt>
      <trkpt lat="-24.6585200" lon="-53.7548120">
        <ele>536.6</ele>
        <time>2018-09-15T19:47:06Z</time>
      </trkpt>
      <trkpt lat="-24.6585670" lon="-53.7548300">
        <ele>536.6</ele>
        <time>2018-09-15T19:47:07Z</time>
      </trkpt>
      <trkpt lat="-24.6586150" lon="-53.7548490">
        <ele>536.7</ele>
        <time>2018-09-15T19:47:08Z</time>
      </trkpt>
      <trkpt lat="-24.6586630" lon="-53.7548660">
        <ele>536.7</ele>
        <time>2018-09-15T19:47:09Z</time>
      </trkpt>
      <trkpt lat="-24.6587110" lon="-53.7548840">
        <ele>536.8</ele>
        <time>2018-09-15T19:47:10Z</time>
      </trkpt>
      <trkpt lat="-24.6587580" lon="-53.7549020">
        <ele>536.8</ele>
        <time>2018-09-15T19:47:11Z</time>
      </trkpt>
      <trkpt lat="-24.6588050" lon="-53.7549220">
        <ele>536.8</ele>
        <time>2018-09-15T19:47:12Z</time>
      </trkpt>
      <trkpt lat="-24.6588520" lon="-53.7549410">
        <ele>536.9</ele>
        <time>2018-09-15T19:47:13Z</time>
      </trkpt>
      <trkpt lat="-24.6588980" lon="-53.7549600">
        <ele>536.9</ele>
        <time>2018-09-15T19:47:14Z</time>
      </trkpt>
      <trkpt lat="-24.6589450" lon="-53.7549780">
        <ele>536.9</ele>
        <time>2018-09-15T19:47:15Z</time>
      </trkpt>
      <trkpt lat="-24.6589920" lon="-53.7549960">
        <ele>536.9</ele>
        <time>2018-09-15T19:47:16Z</time>
      </trkpt>
      <trkpt lat="-24.6590390" lon="-53.7550130">
        <ele>536.9</ele>
        <time>2018-09-15T19:47:17Z</time>
      </trkpt>
      <trkpt lat="-24.6590860" lon="-53.7550300">
        <ele>536.9</ele>
        <time>2018-09-15T19:47:18Z</time>
      </trkpt>
      <trkpt lat="-24.6591330" lon="-53.7550470">
        <ele>537.0</ele>
        <time>2018-09-15T19:47:19Z</time>
      </trkpt>
      <trkpt lat="-24.6591790" lon="-53.7550650">
        <ele>537.0</ele>
        <time>2018-09-15T19:47:20Z</time>
      </trkpt>
      <trkpt lat="-24.6592260" lon="-53.7550810">
        <ele>537.0</ele>
        <time>2018-09-15T19:47:21Z</time>
      </trkpt>
      <trkpt lat="-24.6592730" lon="-53.7550970">
        <ele>537.0</ele>
        <time>2018-09-15T19:47:22Z</time>
      </trkpt>
      <trkpt lat="-24.6593190" lon="-53.7551150">
        <ele>537.0</ele>
        <time>2018-09-15T19:47:23Z</time>
      </trkpt>
      <trkpt lat="-24.6593660" lon="-53.7551320">
        <ele>537.0</ele>
        <time>2018-09-15T19:47:24Z</time>
      </trkpt>
      <trkpt lat="-24.6594120" lon="-53.7551490">
        <ele>537.1</ele>
        <time>2018-09-15T19:47:25Z</time>
      </trkpt>
      <trkpt lat="-24.6594590" lon="-53.7551660">
        <ele>537.1</ele>
        <time>2018-09-15T19:47:26Z</time>
      </trkpt>
      <trkpt lat="-24.6595060" lon="-53.7551830">
        <ele>537.1</ele>
        <time>2018-09-15T19:47:27Z</time>
      </trkpt>
      <trkpt lat="-24.6595510" lon="-53.7552010">
        <ele>537.1</ele>
        <time>2018-09-15T19:47:28Z</time>
      </trkpt>
      <trkpt lat="-24.6595960" lon="-53.7552180">
        <ele>537.1</ele>
        <time>2018-09-15T19:47:29Z</time>
      </trkpt>
      <trkpt lat="-24.6596420" lon="-53.7552340">
        <ele>537.1</ele>
        <time>2018-09-15T19:47:30Z</time>
      </trkpt>
      <trkpt lat="-24.6596860" lon="-53.7552510">
        <ele>537.1</ele>
        <time>2018-09-15T19:47:31Z</time>
      </trkpt>
      <trkpt lat="-24.6597300" lon="-53.7552690">
        <ele>537.1</ele>
        <time>2018-09-15T19:47:32Z</time>
      </trkpt>
      <trkpt lat="-24.6597740" lon="-53.7552870">
        <ele>537.1</ele>
        <time>2018-09-15T19:47:33Z</time>
      </trkpt>
      <trkpt lat="-24.6598180" lon="-53.7553040">
        <ele>537.1</ele>
        <time>2018-09-15T19:47:34Z</time>
      </trkpt>
      <trkpt lat="-24.6598610" lon="-53.7553210">
        <ele>537.1</ele>
        <time>2018-09-15T19:47:35Z</time>
      </trkpt>
      <trkpt lat="-24.6599040" lon="-53.7553360">
        <ele>537.1</ele>
        <time>2018-09-15T19:47:36Z</time>
      </trkpt>
      <trkpt lat="-24.6599470" lon="-53.7553520">
        <ele>537.1</ele>
        <time>2018-09-15T19:47:37Z</time>
      </trkpt>
      <trkpt lat="-24.6599900" lon="-53.7553660">
        <ele>537.1</ele>
        <time>2018-09-15T19:47:38Z</time>
      </trkpt>
      <trkpt lat="-24.6600320" lon="-53.7553820">
        <ele>537.1</ele>
        <time>2018-09-15T19:47:39Z</time>
      </trkpt>
      <trkpt lat="-24.6600750" lon="-53.7553980">
        <ele>537.1</ele>
        <time>2018-09-15T19:47:40Z</time>
      </trkpt>
      <trkpt lat="-24.6601170" lon="-53.7554130">
        <ele>537.1</ele>
        <time>2018-09-15T19:47:41Z</time>
      </trkpt>
      <trkpt lat="-24.6601600" lon="-53.7554290">
        <ele>537.1</ele>
        <time>2018-09-15T19:47:42Z</time>
      </trkpt>
      <trkpt lat="-24.6602030" lon="-53.7554450">
        <ele>537.1</ele>
        <time>2018-09-15T19:47:43Z</time>
      </trkpt>
      <trkpt lat="-24.6602460" lon="-53.7554620">
        <ele>537.1</ele>
        <time>2018-09-15T19:47:44Z</time>
      </trkpt>
      <trkpt lat="-24.6602880" lon="-53.7554780">
        <ele>537.1</ele>
        <time>2018-09-15T19:47:45Z</time>
      </trkpt>
      <trkpt lat="-24.6603320" lon="-53.7554930">
        <ele>537.1</ele>
        <time>2018-09-15T19:47:46Z</time>
      </trkpt>
      <trkpt lat="-24.6603750" lon="-53.7555090">
        <ele>537.1</ele>
        <time>2018-09-15T19:47:47Z</time>
      </trkpt>
      <trkpt lat="-24.6604180" lon="-53.7555260">
        <ele>537.1</ele>
        <time>2018-09-15T19:47:48Z</time>
      </trkpt>
      <trkpt lat="-24.6604620" lon="-53.7555430">
        <ele>537.1</ele>
        <time>2018-09-15T19:47:49Z</time>
      </trkpt>
      <trkpt lat="-24.6605050" lon="-53.7555590">
        <ele>537.1</ele>
        <time>2018-09-15T19:47:50Z</time>
      </trkpt>
      <trkpt lat="-24.6605480" lon="-53.7555750">
        <ele>537.1</ele>
        <time>2018-09-15T19:47:51Z</time>
      </trkpt>
      <trkpt lat="-24.6605910" lon="-53.7555920">
        <ele>537.1</ele>
        <time>2018-09-15T19:47:52Z</time>
      </trkpt>
      <trkpt lat="-24.6606340" lon="-53.7556090">
        <ele>537.1</ele>
        <time>2018-09-15T19:47:53Z</time>
      </trkpt>
      <trkpt lat="-24.6606770" lon="-53.7556250">
        <ele>537.1</ele>
        <time>2018-09-15T19:47:54Z</time>
      </trkpt>
      <trkpt lat="-24.6607210" lon="-53.7556410">
        <ele>537.1</ele>
        <time>2018-09-15T19:47:55Z</time>
      </trkpt>
      <trkpt lat="-24.6607660" lon="-53.7556570">
        <ele>537.1</ele>
        <time>2018-09-15T19:47:56Z</time>
      </trkpt>
      <trkpt lat="-24.6608100" lon="-53.7556730">
        <ele>537.1</ele>
        <time>2018-09-15T19:47:57Z</time>
      </trkpt>
      <trkpt lat="-24.6608540" lon="-53.7556880">
        <ele>537.1</ele>
        <time>2018-09-15T19:47:58Z</time>
      </trkpt>
      <trkpt lat="-24.6609420" lon="-53.7557200">
        <ele>537.1</ele>
        <time>2018-09-15T19:47:59Z</time>
      </trkpt>
      <trkpt lat="-24.6609860" lon="-53.7557350">
        <ele>537.1</ele>
        <time>2018-09-15T19:48:01Z</time>
      </trkpt>
      <trkpt lat="-24.6610300" lon="-53.7557520">
        <ele>537.1</ele>
        <time>2018-09-15T19:48:02Z</time>
      </trkpt>
      <trkpt lat="-24.6610730" lon="-53.7557680">
        <ele>537.1</ele>
        <time>2018-09-15T19:48:03Z</time>
      </trkpt>
      <trkpt lat="-24.6611160" lon="-53.7557850">
        <ele>537.1</ele>
        <time>2018-09-15T19:48:04Z</time>
      </trkpt>
      <trkpt lat="-24.6612030" lon="-53.7558170">
        <ele>537.0</ele>
        <time>2018-09-15T19:48:05Z</time>
      </trkpt>
      <trkpt lat="-24.6612460" lon="-53.7558330">
        <ele>537.0</ele>
        <time>2018-09-15T19:48:06Z</time>
      </trkpt>
      <trkpt lat="-24.6612890" lon="-53.7558500">
        <ele>537.0</ele>
        <time>2018-09-15T19:48:07Z</time>
      </trkpt>
      <trkpt lat="-24.6613320" lon="-53.7558650">
        <ele>537.0</ele>
        <time>2018-09-15T19:48:08Z</time>
      </trkpt>
      <trkpt lat="-24.6613750" lon="-53.7558820">
        <ele>537.0</ele>
        <time>2018-09-15T19:48:09Z</time>
      </trkpt>
      <trkpt lat="-24.6614180" lon="-53.7558980">
        <ele>537.0</ele>
        <time>2018-09-15T19:48:10Z</time>
      </trkpt>
      <trkpt lat="-24.6614620" lon="-53.7559130">
        <ele>537.0</ele>
        <time>2018-09-15T19:48:11Z</time>
      </trkpt>
      <trkpt lat="-24.6615060" lon="-53.7559290">
        <ele>537.0</ele>
        <time>2018-09-15T19:48:12Z</time>
      </trkpt>
      <trkpt lat="-24.6615490" lon="-53.7559460">
        <ele>537.0</ele>
        <time>2018-09-15T19:48:13Z</time>
      </trkpt>
      <trkpt lat="-24.6615930" lon="-53.7559630">
        <ele>537.0</ele>
        <time>2018-09-15T19:48:14Z</time>
      </trkpt>
      <trkpt lat="-24.6616360" lon="-53.7559790">
        <ele>537.0</ele>
        <time>2018-09-15T19:48:15Z</time>
      </trkpt>
      <trkpt lat="-24.6616790" lon="-53.7559960">
        <ele>537.0</ele>
        <time>2018-09-15T19:48:16Z</time>
      </trkpt>
      <trkpt lat="-24.6617230" lon="-53.7560130">
        <ele>537.0</ele>
        <time>2018-09-15T19:48:17Z</time>
      </trkpt>
      <trkpt lat="-24.6617670" lon="-53.7560300">
        <ele>537.0</ele>
        <time>2018-09-15T19:48:18Z</time>
      </trkpt>
      <trkpt lat="-24.6618110" lon="-53.7560470">
        <ele>537.0</ele>
        <time>2018-09-15T19:48:19Z</time>
      </trkpt>
      <trkpt lat="-24.6618540" lon="-53.7560640">
        <ele>537.0</ele>
        <time>2018-09-15T19:48:20Z</time>
      </trkpt>
      <trkpt lat="-24.6618980" lon="-53.7560810">
        <ele>537.0</ele>
        <time>2018-09-15T19:48:21Z</time>
      </trkpt>
      <trkpt lat="-24.6619860" lon="-53.7561130">
        <ele>537.0</ele>
        <time>2018-09-15T19:48:23Z</time>
      </trkpt>
      <trkpt lat="-24.6620290" lon="-53.7561290">
        <ele>537.0</ele>
        <time>2018-09-15T19:48:24Z</time>
      </trkpt>
      <trkpt lat="-24.6620720" lon="-53.7561450">
        <ele>537.0</ele>
        <time>2018-09-15T19:48:25Z</time>
      </trkpt>
      <trkpt lat="-24.6621150" lon="-53.7561610">
        <ele>537.0</ele>
        <time>2018-09-15T19:48:26Z</time>
      </trkpt>
      <trkpt lat="-24.6621580" lon="-53.7561760">
        <ele>537.0</ele>
        <time>2018-09-15T19:48:27Z</time>
      </trkpt>
      <trkpt lat="-24.6622000" lon="-53.7561920">
        <ele>537.0</ele>
        <time>2018-09-15T19:48:28Z</time>
      </trkpt>
      <trkpt lat="-24.6622420" lon="-53.7562090">
        <ele>536.7</ele>
        <time>2018-09-15T19:48:29Z</time>
      </trkpt>
      <trkpt lat="-24.6622830" lon="-53.7562270">
        <ele>536.3</ele>
        <time>2018-09-15T19:48:30Z</time>
      </trkpt>
      <trkpt lat="-24.6623250" lon="-53.7562430">
        <ele>536.0</ele>
        <time>2018-09-15T19:48:31Z</time>
      </trkpt>
      <trkpt lat="-24.6623670" lon="-53.7562590">
        <ele>535.7</ele>
        <time>2018-09-15T19:48:32Z</time>
      </trkpt>
      <trkpt lat="-24.6624100" lon="-53.7562750">
        <ele>535.4</ele>
        <time>2018-09-15T19:48:33Z</time>
      </trkpt>
      <trkpt lat="-24.6624540" lon="-53.7562910">
        <ele>535.1</ele>
        <time>2018-09-15T19:48:34Z</time>
      </trkpt>
      <trkpt lat="-24.6624980" lon="-53.7563080">
        <ele>534.8</ele>
        <time>2018-09-15T19:48:35Z</time>
      </trkpt>
      <trkpt lat="-24.6625440" lon="-53.7563240">
        <ele>534.5</ele>
        <time>2018-09-15T19:48:36Z</time>
      </trkpt>
      <trkpt lat="-24.6625910" lon="-53.7563410">
        <ele>534.1</ele>
        <time>2018-09-15T19:48:37Z</time>
      </trkpt>
      <trkpt lat="-24.6626390" lon="-53.7563590">
        <ele>534.0</ele>
        <time>2018-09-15T19:48:38Z</time>
      </trkpt>
      <trkpt lat="-24.6626880" lon="-53.7563770">
        <ele>534.1</ele>
        <time>2018-09-15T19:48:39Z</time>
      </trkpt>
      <trkpt lat="-24.6627400" lon="-53.7563960">
        <ele>534.2</ele>
        <time>2018-09-15T19:48:40Z</time>
      </trkpt>
      <trkpt lat="-24.6627920" lon="-53.7564160">
        <ele>534.3</ele>
        <time>2018-09-15T19:48:41Z</time>
      </trkpt>
      <trkpt lat="-24.6627920" lon="-53.7564160">
        <ele>534.3</ele>
        <time>2018-09-15T19:48:42Z</time>
      </trkpt>
      <trkpt lat="-24.6628430" lon="-53.7564360">
        <ele>534.4</ele>
        <time>2018-09-15T19:48:43Z</time>
      </trkpt>
      <trkpt lat="-24.6628950" lon="-53.7564560">
        <ele>534.5</ele>
        <time>2018-09-15T19:48:44Z</time>
      </trkpt>
      <trkpt lat="-24.6630000" lon="-53.7564950">
        <ele>534.6</ele>
        <time>2018-09-15T19:48:45Z</time>
      </trkpt>
      <trkpt lat="-24.6630520" lon="-53.7565160">
        <ele>534.7</ele>
        <time>2018-09-15T19:48:46Z</time>
      </trkpt>
      <trkpt lat="-24.6630520" lon="-53.7565160">
        <ele>534.7</ele>
        <time>2018-09-15T19:48:47Z</time>
      </trkpt>
      <trkpt lat="-24.6631040" lon="-53.7565360">
        <ele>534.7</ele>
        <time>2018-09-15T19:48:48Z</time>
      </trkpt>
      <trkpt lat="-24.6631580" lon="-53.7565560">
        <ele>534.8</ele>
        <time>2018-09-15T19:48:49Z</time>
      </trkpt>
      <trkpt lat="-24.6632110" lon="-53.7565770">
        <ele>534.8</ele>
        <time>2018-09-15T19:48:50Z</time>
      </trkpt>
      <trkpt lat="-24.6632660" lon="-53.7565980">
        <ele>534.9</ele>
        <time>2018-09-15T19:48:51Z</time>
      </trkpt>
      <trkpt lat="-24.6633200" lon="-53.7566190">
        <ele>535.0</ele>
        <time>2018-09-15T19:48:52Z</time>
      </trkpt>
      <trkpt lat="-24.6633740" lon="-53.7566400">
        <ele>535.0</ele>
        <time>2018-09-15T19:48:53Z</time>
      </trkpt>
      <trkpt lat="-24.6634290" lon="-53.7566610">
        <ele>535.1</ele>
        <time>2018-09-15T19:48:54Z</time>
      </trkpt>
      <trkpt lat="-24.6634850" lon="-53.7566820">
        <ele>535.2</ele>
        <time>2018-09-15T19:48:55Z</time>
      </trkpt>
      <trkpt lat="-24.6635410" lon="-53.7567040">
        <ele>535.3</ele>
        <time>2018-09-15T19:48:56Z</time>
      </trkpt>
      <trkpt lat="-24.6635950" lon="-53.7567250">
        <ele>535.3</ele>
        <time>2018-09-15T19:48:57Z</time>
      </trkpt>
      <trkpt lat="-24.6636500" lon="-53.7567450">
        <ele>535.4</ele>
        <time>2018-09-15T19:48:58Z</time>
      </trkpt>
      <trkpt lat="-24.6637050" lon="-53.7567650">
        <ele>535.5</ele>
        <time>2018-09-15T19:48:59Z</time>
      </trkpt>
      <trkpt lat="-24.6637600" lon="-53.7567850">
        <ele>535.6</ele>
        <time>2018-09-15T19:49:00Z</time>
      </trkpt>
      <trkpt lat="-24.6638140" lon="-53.7568060">
        <ele>535.7</ele>
        <time>2018-09-15T19:49:01Z</time>
      </trkpt>
      <trkpt lat="-24.6638680" lon="-53.7568260">
        <ele>535.7</ele>
        <time>2018-09-15T19:49:02Z</time>
      </trkpt>
      <trkpt lat="-24.6639220" lon="-53.7568460">
        <ele>535.8</ele>
        <time>2018-09-15T19:49:03Z</time>
      </trkpt>
      <trkpt lat="-24.6639770" lon="-53.7568650">
        <ele>535.9</ele>
        <time>2018-09-15T19:49:04Z</time>
      </trkpt>
      <trkpt lat="-24.6640330" lon="-53.7568830">
        <ele>536.0</ele>
        <time>2018-09-15T19:49:05Z</time>
      </trkpt>
      <trkpt lat="-24.6640890" lon="-53.7569030">
        <ele>535.9</ele>
        <time>2018-09-15T19:49:06Z</time>
      </trkpt>
      <trkpt lat="-24.6641460" lon="-53.7569270">
        <ele>535.6</ele>
        <time>2018-09-15T19:49:07Z</time>
      </trkpt>
      <trkpt lat="-24.6642020" lon="-53.7569510">
        <ele>535.4</ele>
        <time>2018-09-15T19:49:08Z</time>
      </trkpt>
      <trkpt lat="-24.6642590" lon="-53.7569740">
        <ele>535.1</ele>
        <time>2018-09-15T19:49:09Z</time>
      </trkpt>
      <trkpt lat="-24.6643180" lon="-53.7569970">
        <ele>534.9</ele>
        <time>2018-09-15T19:49:10Z</time>
      </trkpt>
      <trkpt lat="-24.6643770" lon="-53.7570190">
        <ele>534.7</ele>
        <time>2018-09-15T19:49:11Z</time>
      </trkpt>
      <trkpt lat="-24.6644360" lon="-53.7570410">
        <ele>534.5</ele>
        <time>2018-09-15T19:49:12Z</time>
      </trkpt>
      <trkpt lat="-24.6644940" lon="-53.7570630">
        <ele>534.3</ele>
        <time>2018-09-15T19:49:13Z</time>
      </trkpt>
      <trkpt lat="-24.6645530" lon="-53.7570850">
        <ele>534.1</ele>
        <time>2018-09-15T19:49:14Z</time>
      </trkpt>
      <trkpt lat="-24.6646120" lon="-53.7571080">
        <ele>534.1</ele>
        <time>2018-09-15T19:49:15Z</time>
      </trkpt>
      <trkpt lat="-24.6646720" lon="-53.7571310">
        <ele>534.0</ele>
        <time>2018-09-15T19:49:16Z</time>
      </trkpt>
      <trkpt lat="-24.6647320" lon="-53.7571540">
        <ele>534.0</ele>
        <time>2018-09-15T19:49:17Z</time>
      </trkpt>
      <trkpt lat="-24.6647920" lon="-53.7571770">
        <ele>534.0</ele>
        <time>2018-09-15T19:49:18Z</time>
      </trkpt>
      <trkpt lat="-24.6648510" lon="-53.7572000">
        <ele>534.0</ele>
        <time>2018-09-15T19:49:19Z</time>
      </trkpt>
      <trkpt lat="-24.6649110" lon="-53.7572220">
        <ele>534.1</ele>
        <time>2018-09-15T19:49:20Z</time>
      </trkpt>
      <trkpt lat="-24.6649700" lon="-53.7572450">
        <ele>534.2</ele>
        <time>2018-09-15T19:49:21Z</time>
      </trkpt>
      <trkpt lat="-24.6650300" lon="-53.7572680">
        <ele>534.4</ele>
        <time>2018-09-15T19:49:22Z</time>
      </trkpt>
      <trkpt lat="-24.6650900" lon="-53.7572900">
        <ele>534.5</ele>
        <time>2018-09-15T19:49:23Z</time>
      </trkpt>
      <trkpt lat="-24.6651500" lon="-53.7573130">
        <ele>534.7</ele>
        <time>2018-09-15T19:49:24Z</time>
      </trkpt>
      <trkpt lat="-24.6652090" lon="-53.7573370">
        <ele>534.9</ele>
        <time>2018-09-15T19:49:25Z</time>
      </trkpt>
      <trkpt lat="-24.6652680" lon="-53.7573590">
        <ele>535.0</ele>
        <time>2018-09-15T19:49:26Z</time>
      </trkpt>
      <trkpt lat="-24.6653260" lon="-53.7573810">
        <ele>535.2</ele>
        <time>2018-09-15T19:49:27Z</time>
      </trkpt>
      <trkpt lat="-24.6653850" lon="-53.7574020">
        <ele>535.4</ele>
        <time>2018-09-15T19:49:28Z</time>
      </trkpt>
      <trkpt lat="-24.6654430" lon="-53.7574240">
        <ele>535.5</ele>
        <time>2018-09-15T19:49:29Z</time>
      </trkpt>
      <trkpt lat="-24.6655020" lon="-53.7574460">
        <ele>535.7</ele>
        <time>2018-09-15T19:49:30Z</time>
      </trkpt>
      <trkpt lat="-24.6655610" lon="-53.7574690">
        <ele>535.9</ele>
        <time>2018-09-15T19:49:31Z</time>
      </trkpt>
      <trkpt lat="-24.6656180" lon="-53.7574900">
        <ele>536.0</ele>
        <time>2018-09-15T19:49:32Z</time>
      </trkpt>
      <trkpt lat="-24.6656730" lon="-53.7575110">
        <ele>536.1</ele>
        <time>2018-09-15T19:49:33Z</time>
      </trkpt>
      <trkpt lat="-24.6657270" lon="-53.7575320">
        <ele>536.2</ele>
        <time>2018-09-15T19:49:34Z</time>
      </trkpt>
      <trkpt lat="-24.6657800" lon="-53.7575510">
        <ele>536.3</ele>
        <time>2018-09-15T19:49:35Z</time>
      </trkpt>
      <trkpt lat="-24.6658310" lon="-53.7575710">
        <ele>536.4</ele>
        <time>2018-09-15T19:49:36Z</time>
      </trkpt>
      <trkpt lat="-24.6658820" lon="-53.7575890">
        <ele>536.5</ele>
        <time>2018-09-15T19:49:37Z</time>
      </trkpt>
      <trkpt lat="-24.6659330" lon="-53.7576050">
        <ele>536.6</ele>
        <time>2018-09-15T19:49:38Z</time>
      </trkpt>
      <trkpt lat="-24.6659830" lon="-53.7576210">
        <ele>536.7</ele>
        <time>2018-09-15T19:49:39Z</time>
      </trkpt>
      <trkpt lat="-24.6660300" lon="-53.7576420">
        <ele>536.8</ele>
        <time>2018-09-15T19:49:40Z</time>
      </trkpt>
      <trkpt lat="-24.6660780" lon="-53.7576640">
        <ele>536.8</ele>
        <time>2018-09-15T19:49:41Z</time>
      </trkpt>
      <trkpt lat="-24.6661250" lon="-53.7576840">
        <ele>536.9</ele>
        <time>2018-09-15T19:49:42Z</time>
      </trkpt>
      <trkpt lat="-24.6661720" lon="-53.7577020">
        <ele>537.0</ele>
        <time>2018-09-15T19:49:43Z</time>
      </trkpt>
      <trkpt lat="-24.6662190" lon="-53.7577190">
        <ele>537.0</ele>
        <time>2018-09-15T19:49:44Z</time>
      </trkpt>
      <trkpt lat="-24.6662650" lon="-53.7577370">
        <ele>537.1</ele>
        <time>2018-09-15T19:49:45Z</time>
      </trkpt>
      <trkpt lat="-24.6663110" lon="-53.7577540">
        <ele>537.2</ele>
        <time>2018-09-15T19:49:46Z</time>
      </trkpt>
      <trkpt lat="-24.6663550" lon="-53.7577700">
        <ele>537.3</ele>
        <time>2018-09-15T19:49:47Z</time>
      </trkpt>
      <trkpt lat="-24.6663980" lon="-53.7577850">
        <ele>537.4</ele>
        <time>2018-09-15T19:49:48Z</time>
      </trkpt>
      <trkpt lat="-24.6664410" lon="-53.7578010">
        <ele>537.5</ele>
        <time>2018-09-15T19:49:49Z</time>
      </trkpt>
      <trkpt lat="-24.6664820" lon="-53.7578170">
        <ele>537.7</ele>
        <time>2018-09-15T19:49:50Z</time>
      </trkpt>
      <trkpt lat="-24.6665230" lon="-53.7578320">
        <ele>537.8</ele>
        <time>2018-09-15T19:49:51Z</time>
      </trkpt>
      <trkpt lat="-24.6665640" lon="-53.7578470">
        <ele>537.9</ele>
        <time>2018-09-15T19:49:52Z</time>
      </trkpt>
      <trkpt lat="-24.6666040" lon="-53.7578610">
        <ele>538.0</ele>
        <time>2018-09-15T19:49:53Z</time>
      </trkpt>
      <trkpt lat="-24.6666450" lon="-53.7578770">
        <ele>538.1</ele>
        <time>2018-09-15T19:49:54Z</time>
      </trkpt>
      <trkpt lat="-24.6666860" lon="-53.7578920">
        <ele>538.2</ele>
        <time>2018-09-15T19:49:55Z</time>
      </trkpt>
      <trkpt lat="-24.6667250" lon="-53.7579080">
        <ele>538.3</ele>
        <time>2018-09-15T19:49:56Z</time>
      </trkpt>
      <trkpt lat="-24.6667650" lon="-53.7579230">
        <ele>538.5</ele>
        <time>2018-09-15T19:49:57Z</time>
      </trkpt>
      <trkpt lat="-24.6668040" lon="-53.7579380">
        <ele>538.6</ele>
        <time>2018-09-15T19:49:58Z</time>
      </trkpt>
      <trkpt lat="-24.6668430" lon="-53.7579530">
        <ele>538.7</ele>
        <time>2018-09-15T19:49:59Z</time>
      </trkpt>
      <trkpt lat="-24.6668830" lon="-53.7579660">
        <ele>538.8</ele>
        <time>2018-09-15T19:50:00Z</time>
      </trkpt>
      <trkpt lat="-24.6669220" lon="-53.7579790">
        <ele>538.9</ele>
        <time>2018-09-15T19:50:01Z</time>
      </trkpt>
      <trkpt lat="-24.6669590" lon="-53.7579940">
        <ele>539.1</ele>
        <time>2018-09-15T19:50:02Z</time>
      </trkpt>
      <trkpt lat="-24.6669950" lon="-53.7580070">
        <ele>539.2</ele>
        <time>2018-09-15T19:50:03Z</time>
      </trkpt>
      <trkpt lat="-24.6670310" lon="-53.7580200">
        <ele>539.3</ele>
        <time>2018-09-15T19:50:04Z</time>
      </trkpt>
      <trkpt lat="-24.6670660" lon="-53.7580330">
        <ele>539.5</ele>
        <time>2018-09-15T19:50:05Z</time>
      </trkpt>
      <trkpt lat="-24.6671000" lon="-53.7580450">
        <ele>539.6</ele>
        <time>2018-09-15T19:50:06Z</time>
      </trkpt>
      <trkpt lat="-24.6671340" lon="-53.7580580">
        <ele>539.7</ele>
        <time>2018-09-15T19:50:07Z</time>
      </trkpt>
      <trkpt lat="-24.6671680" lon="-53.7580710">
        <ele>539.8</ele>
        <time>2018-09-15T19:50:08Z</time>
      </trkpt>
      <trkpt lat="-24.6672020" lon="-53.7580830">
        <ele>540.0</ele>
        <time>2018-09-15T19:50:09Z</time>
      </trkpt>
      <trkpt lat="-24.6672370" lon="-53.7580950">
        <ele>540.1</ele>
        <time>2018-09-15T19:50:10Z</time>
      </trkpt>
      <trkpt lat="-24.6672700" lon="-53.7581070">
        <ele>540.2</ele>
        <time>2018-09-15T19:50:11Z</time>
      </trkpt>
      <trkpt lat="-24.6673040" lon="-53.7581210">
        <ele>540.3</ele>
        <time>2018-09-15T19:50:12Z</time>
      </trkpt>
      <trkpt lat="-24.6673380" lon="-53.7581360">
        <ele>540.4</ele>
        <time>2018-09-15T19:50:13Z</time>
      </trkpt>
      <trkpt lat="-24.6673720" lon="-53.7581500">
        <ele>540.5</ele>
        <time>2018-09-15T19:50:14Z</time>
      </trkpt>
      <trkpt lat="-24.6674080" lon="-53.7581650">
        <ele>540.6</ele>
        <time>2018-09-15T19:50:15Z</time>
      </trkpt>
      <trkpt lat="-24.6674440" lon="-53.7581790">
        <ele>540.7</ele>
        <time>2018-09-15T19:50:16Z</time>
      </trkpt>
      <trkpt lat="-24.6674790" lon="-53.7581910">
        <ele>540.9</ele>
        <time>2018-09-15T19:50:17Z</time>
      </trkpt>
      <trkpt lat="-24.6675140" lon="-53.7582040">
        <ele>541.1</ele>
        <time>2018-09-15T19:50:18Z</time>
      </trkpt>
      <trkpt lat="-24.6675480" lon="-53.7582190">
        <ele>541.2</ele>
        <time>2018-09-15T19:50:19Z</time>
      </trkpt>
      <trkpt lat="-24.6675820" lon="-53.7582320">
        <ele>541.4</ele>
        <time>2018-09-15T19:50:20Z</time>
      </trkpt>
      <trkpt lat="-24.6676170" lon="-53.7582450">
        <ele>541.6</ele>
        <time>2018-09-15T19:50:21Z</time>
      </trkpt>
      <trkpt lat="-24.6676510" lon="-53.7582580">
        <ele>541.7</ele>
        <time>2018-09-15T19:50:22Z</time>
      </trkpt>
      <trkpt lat="-24.6676850" lon="-53.7582710">
        <ele>541.9</ele>
        <time>2018-09-15T19:50:23Z</time>
      </trkpt>
      <trkpt lat="-24.6677200" lon="-53.7582850">
        <ele>542.0</ele>
        <time>2018-09-15T19:50:24Z</time>
      </trkpt>
      <trkpt lat="-24.6677560" lon="-53.7582980">
        <ele>542.2</ele>
        <time>2018-09-15T19:50:25Z</time>
      </trkpt>
      <trkpt lat="-24.6677910" lon="-53.7583100">
        <ele>542.3</ele>
        <time>2018-09-15T19:50:26Z</time>
      </trkpt>
      <trkpt lat="-24.6678260" lon="-53.7583240">
        <ele>542.5</ele>
        <time>2018-09-15T19:50:27Z</time>
      </trkpt>
      <trkpt lat="-24.6678600" lon="-53.7583380">
        <ele>542.6</ele>
        <time>2018-09-15T19:50:28Z</time>
      </trkpt>
      <trkpt lat="-24.6678950" lon="-53.7583510">
        <ele>542.8</ele>
        <time>2018-09-15T19:50:29Z</time>
      </trkpt>
      <trkpt lat="-24.6679300" lon="-53.7583640">
        <ele>542.9</ele>
        <time>2018-09-15T19:50:30Z</time>
      </trkpt>
      <trkpt lat="-24.6679650" lon="-53.7583770">
        <ele>543.1</ele>
        <time>2018-09-15T19:50:31Z</time>
      </trkpt>
      <trkpt lat="-24.6680000" lon="-53.7583900">
        <ele>543.3</ele>
        <time>2018-09-15T19:50:32Z</time>
      </trkpt>
      <trkpt lat="-24.6680350" lon="-53.7584030">
        <ele>543.4</ele>
        <time>2018-09-15T19:50:33Z</time>
      </trkpt>
      <trkpt lat="-24.6680710" lon="-53.7584170">
        <ele>543.6</ele>
        <time>2018-09-15T19:50:34Z</time>
      </trkpt>
      <trkpt lat="-24.6681070" lon="-53.7584300">
        <ele>543.7</ele>
        <time>2018-09-15T19:50:35Z</time>
      </trkpt>
      <trkpt lat="-24.6681430" lon="-53.7584420">
        <ele>543.9</ele>
        <time>2018-09-15T19:50:36Z</time>
      </trkpt>
      <trkpt lat="-24.6681780" lon="-53.7584540">
        <ele>544.0</ele>
        <time>2018-09-15T19:50:37Z</time>
      </trkpt>
      <trkpt lat="-24.6682130" lon="-53.7584680">
        <ele>544.2</ele>
        <time>2018-09-15T19:50:38Z</time>
      </trkpt>
      <trkpt lat="-24.6682470" lon="-53.7584810">
        <ele>544.3</ele>
        <time>2018-09-15T19:50:39Z</time>
      </trkpt>
      <trkpt lat="-24.6682810" lon="-53.7584940">
        <ele>544.4</ele>
        <time>2018-09-15T19:50:40Z</time>
      </trkpt>
      <trkpt lat="-24.6683140" lon="-53.7585070">
        <ele>544.6</ele>
        <time>2018-09-15T19:50:41Z</time>
      </trkpt>
      <trkpt lat="-24.6683450" lon="-53.7585210">
        <ele>544.7</ele>
        <time>2018-09-15T19:50:42Z</time>
      </trkpt>
      <trkpt lat="-24.6683770" lon="-53.7585330">
        <ele>544.8</ele>
        <time>2018-09-15T19:50:43Z</time>
      </trkpt>
      <trkpt lat="-24.6684090" lon="-53.7585460">
        <ele>545.0</ele>
        <time>2018-09-15T19:50:44Z</time>
      </trkpt>
      <trkpt lat="-24.6684410" lon="-53.7585590">
        <ele>545.1</ele>
        <time>2018-09-15T19:50:45Z</time>
      </trkpt>
      <trkpt lat="-24.6684730" lon="-53.7585710">
        <ele>545.2</ele>
        <time>2018-09-15T19:50:46Z</time>
      </trkpt>
      <trkpt lat="-24.6685050" lon="-53.7585840">
        <ele>545.3</ele>
        <time>2018-09-15T19:50:47Z</time>
      </trkpt>
      <trkpt lat="-24.6685400" lon="-53.7585960">
        <ele>545.4</ele>
        <time>2018-09-15T19:50:48Z</time>
      </trkpt>
      <trkpt lat="-24.6685740" lon="-53.7586070">
        <ele>545.5</ele>
        <time>2018-09-15T19:50:49Z</time>
      </trkpt>
      <trkpt lat="-24.6686080" lon="-53.7586190">
        <ele>545.6</ele>
        <time>2018-09-15T19:50:50Z</time>
      </trkpt>
      <trkpt lat="-24.6686400" lon="-53.7586300">
        <ele>545.7</ele>
        <time>2018-09-15T19:50:51Z</time>
      </trkpt>
      <trkpt lat="-24.6686730" lon="-53.7586430">
        <ele>545.8</ele>
        <time>2018-09-15T19:50:52Z</time>
      </trkpt>
      <trkpt lat="-24.6687060" lon="-53.7586550">
        <ele>545.9</ele>
        <time>2018-09-15T19:50:53Z</time>
      </trkpt>
      <trkpt lat="-24.6687380" lon="-53.7586650">
        <ele>546.0</ele>
        <time>2018-09-15T19:50:54Z</time>
      </trkpt>
      <trkpt lat="-24.6687710" lon="-53.7586770">
        <ele>546.0</ele>
        <time>2018-09-15T19:50:55Z</time>
      </trkpt>
      <trkpt lat="-24.6688030" lon="-53.7586890">
        <ele>546.0</ele>
        <time>2018-09-15T19:50:56Z</time>
      </trkpt>
      <trkpt lat="-24.6688350" lon="-53.7587010">
        <ele>546.1</ele>
        <time>2018-09-15T19:50:57Z</time>
      </trkpt>
      <trkpt lat="-24.6688680" lon="-53.7587140">
        <ele>546.1</ele>
        <time>2018-09-15T19:50:58Z</time>
      </trkpt>
      <trkpt lat="-24.6689020" lon="-53.7587270">
        <ele>546.2</ele>
        <time>2018-09-15T19:50:59Z</time>
      </trkpt>
      <trkpt lat="-24.6689370" lon="-53.7587400">
        <ele>546.2</ele>
        <time>2018-09-15T19:51:00Z</time>
      </trkpt>
      <trkpt lat="-24.6689710" lon="-53.7587530">
        <ele>546.3</ele>
        <time>2018-09-15T19:51:01Z</time>
      </trkpt>
      <trkpt lat="-24.6690050" lon="-53.7587660">
        <ele>546.3</ele>
        <time>2018-09-15T19:51:02Z</time>
      </trkpt>
      <trkpt lat="-24.6690400" lon="-53.7587790">
        <ele>546.4</ele>
        <time>2018-09-15T19:51:03Z</time>
      </trkpt>
      <trkpt lat="-24.6690750" lon="-53.7587920">
        <ele>546.4</ele>
        <time>2018-09-15T19:51:04Z</time>
      </trkpt>
      <trkpt lat="-24.6691100" lon="-53.7588040">
        <ele>546.5</ele>
        <time>2018-09-15T19:51:05Z</time>
      </trkpt>
      <trkpt lat="-24.6691450" lon="-53.7588170">
        <ele>546.5</ele>
        <time>2018-09-15T19:51:06Z</time>
      </trkpt>
      <trkpt lat="-24.6691810" lon="-53.7588300">
        <ele>546.6</ele>
        <time>2018-09-15T19:51:07Z</time>
      </trkpt>
      <trkpt lat="-24.6692170" lon="-53.7588440">
        <ele>546.7</ele>
        <time>2018-09-15T19:51:08Z</time>
      </trkpt>
      <trkpt lat="-24.6692530" lon="-53.7588590">
        <ele>546.8</ele>
        <time>2018-09-15T19:51:09Z</time>
      </trkpt>
      <trkpt lat="-24.6692880" lon="-53.7588740">
        <ele>546.9</ele>
        <time>2018-09-15T19:51:10Z</time>
      </trkpt>
      <trkpt lat="-24.6693230" lon="-53.7588890">
        <ele>547.0</ele>
        <time>2018-09-15T19:51:11Z</time>
      </trkpt>
      <trkpt lat="-24.6693570" lon="-53.7589030">
        <ele>547.1</ele>
        <time>2018-09-15T19:51:12Z</time>
      </trkpt>
      <trkpt lat="-24.6693910" lon="-53.7589150">
        <ele>547.2</ele>
        <time>2018-09-15T19:51:13Z</time>
      </trkpt>
      <trkpt lat="-24.6694240" lon="-53.7589270">
        <ele>547.3</ele>
        <time>2018-09-15T19:51:14Z</time>
      </trkpt>
      <trkpt lat="-24.6694570" lon="-53.7589400">
        <ele>547.4</ele>
        <time>2018-09-15T19:51:15Z</time>
      </trkpt>
      <trkpt lat="-24.6694910" lon="-53.7589520">
        <ele>547.5</ele>
        <time>2018-09-15T19:51:16Z</time>
      </trkpt>
      <trkpt lat="-24.6695260" lon="-53.7589630">
        <ele>547.6</ele>
        <time>2018-09-15T19:51:17Z</time>
      </trkpt>
      <trkpt lat="-24.6695600" lon="-53.7589750">
        <ele>547.7</ele>
        <time>2018-09-15T19:51:18Z</time>
      </trkpt>
      <trkpt lat="-24.6695930" lon="-53.7589860">
        <ele>547.8</ele>
        <time>2018-09-15T19:51:19Z</time>
      </trkpt>
      <trkpt lat="-24.6696250" lon="-53.7589990">
        <ele>547.9</ele>
        <time>2018-09-15T19:51:20Z</time>
      </trkpt>
      <trkpt lat="-24.6696580" lon="-53.7590120">
        <ele>548.0</ele>
        <time>2018-09-15T19:51:21Z</time>
      </trkpt>
      <trkpt lat="-24.6696910" lon="-53.7590240">
        <ele>548.1</ele>
        <time>2018-09-15T19:51:22Z</time>
      </trkpt>
      <trkpt lat="-24.6697240" lon="-53.7590360">
        <ele>548.2</ele>
        <time>2018-09-15T19:51:23Z</time>
      </trkpt>
      <trkpt lat="-24.6697570" lon="-53.7590490">
        <ele>548.3</ele>
        <time>2018-09-15T19:51:24Z</time>
      </trkpt>
      <trkpt lat="-24.6697910" lon="-53.7590620">
        <ele>548.4</ele>
        <time>2018-09-15T19:51:25Z</time>
      </trkpt>
      <trkpt lat="-24.6698240" lon="-53.7590740">
        <ele>548.5</ele>
        <time>2018-09-15T19:51:26Z</time>
      </trkpt>
      <trkpt lat="-24.6698570" lon="-53.7590860">
        <ele>548.6</ele>
        <time>2018-09-15T19:51:27Z</time>
      </trkpt>
      <trkpt lat="-24.6698900" lon="-53.7590980">
        <ele>548.6</ele>
        <time>2018-09-15T19:51:28Z</time>
      </trkpt>
      <trkpt lat="-24.6699230" lon="-53.7591100">
        <ele>548.7</ele>
        <time>2018-09-15T19:51:29Z</time>
      </trkpt>
      <trkpt lat="-24.6699570" lon="-53.7591240">
        <ele>548.8</ele>
        <time>2018-09-15T19:51:30Z</time>
      </trkpt>
      <trkpt lat="-24.6699900" lon="-53.7591390">
        <ele>548.8</ele>
        <time>2018-09-15T19:51:31Z</time>
      </trkpt>
      <trkpt lat="-24.6700250" lon="-53.7591530">
        <ele>548.8</ele>
        <time>2018-09-15T19:51:32Z</time>
      </trkpt>
      <trkpt lat="-24.6700600" lon="-53.7591670">
        <ele>548.9</ele>
        <time>2018-09-15T19:51:33Z</time>
      </trkpt>
      <trkpt lat="-24.6700950" lon="-53.7591800">
        <ele>548.9</ele>
        <time>2018-09-15T19:51:34Z</time>
      </trkpt>
      <trkpt lat="-24.6701300" lon="-53.7591930">
        <ele>548.9</ele>
        <time>2018-09-15T19:51:35Z</time>
      </trkpt>
      <trkpt lat="-24.6701640" lon="-53.7592050">
        <ele>549.0</ele>
        <time>2018-09-15T19:51:36Z</time>
      </trkpt>
      <trkpt lat="-24.6701990" lon="-53.7592190">
        <ele>549.0</ele>
        <time>2018-09-15T19:51:37Z</time>
      </trkpt>
      <trkpt lat="-24.6702340" lon="-53.7592320">
        <ele>549.1</ele>
        <time>2018-09-15T19:51:38Z</time>
      </trkpt>
      <trkpt lat="-24.6702700" lon="-53.7592460">
        <ele>549.1</ele>
        <time>2018-09-15T19:51:39Z</time>
      </trkpt>
      <trkpt lat="-24.6703060" lon="-53.7592590">
        <ele>549.1</ele>
        <time>2018-09-15T19:51:40Z</time>
      </trkpt>
      <trkpt lat="-24.6703410" lon="-53.7592720">
        <ele>549.2</ele>
        <time>2018-09-15T19:51:41Z</time>
      </trkpt>
      <trkpt lat="-24.6703770" lon="-53.7592860">
        <ele>549.2</ele>
        <time>2018-09-15T19:51:42Z</time>
      </trkpt>
      <trkpt lat="-24.6704120" lon="-53.7592990">
        <ele>549.3</ele>
        <time>2018-09-15T19:51:43Z</time>
      </trkpt>
      <trkpt lat="-24.6704470" lon="-53.7593120">
        <ele>549.3</ele>
        <time>2018-09-15T19:51:44Z</time>
      </trkpt>
      <trkpt lat="-24.6704830" lon="-53.7593250">
        <ele>549.3</ele>
        <time>2018-09-15T19:51:45Z</time>
      </trkpt>
      <trkpt lat="-24.6705170" lon="-53.7593390">
        <ele>549.4</ele>
        <time>2018-09-15T19:51:46Z</time>
      </trkpt>
      <trkpt lat="-24.6705510" lon="-53.7593520">
        <ele>549.4</ele>
        <time>2018-09-15T19:51:47Z</time>
      </trkpt>
      <trkpt lat="-24.6705850" lon="-53.7593640">
        <ele>549.5</ele>
        <time>2018-09-15T19:51:48Z</time>
      </trkpt>
      <trkpt lat="-24.6706180" lon="-53.7593770">
        <ele>549.6</ele>
        <time>2018-09-15T19:51:49Z</time>
      </trkpt>
      <trkpt lat="-24.6706500" lon="-53.7593900">
        <ele>549.7</ele>
        <time>2018-09-15T19:51:50Z</time>
      </trkpt>
      <trkpt lat="-24.6706830" lon="-53.7594030">
        <ele>549.8</ele>
        <time>2018-09-15T19:51:51Z</time>
      </trkpt>
      <trkpt lat="-24.6707150" lon="-53.7594160">
        <ele>549.9</ele>
        <time>2018-09-15T19:51:52Z</time>
      </trkpt>
      <trkpt lat="-24.6707480" lon="-53.7594280">
        <ele>550.0</ele>
        <time>2018-09-15T19:51:53Z</time>
      </trkpt>
      <trkpt lat="-24.6707800" lon="-53.7594420">
        <ele>550.1</ele>
        <time>2018-09-15T19:51:54Z</time>
      </trkpt>
      <trkpt lat="-24.6708460" lon="-53.7594680">
        <ele>550.3</ele>
        <time>2018-09-15T19:51:55Z</time>
      </trkpt>
      <trkpt lat="-24.6708790" lon="-53.7594810">
        <ele>550.4</ele>
        <time>2018-09-15T19:51:56Z</time>
      </trkpt>
      <trkpt lat="-24.6709490" lon="-53.7595060">
        <ele>550.6</ele>
        <time>2018-09-15T19:51:58Z</time>
      </trkpt>
      <trkpt lat="-24.6709840" lon="-53.7595180">
        <ele>550.7</ele>
        <time>2018-09-15T19:51:59Z</time>
      </trkpt>
      <trkpt lat="-24.6710180" lon="-53.7595300">
        <ele>550.8</ele>
        <time>2018-09-15T19:52:00Z</time>
      </trkpt>
      <trkpt lat="-24.6710520" lon="-53.7595430">
        <ele>550.9</ele>
        <time>2018-09-15T19:52:01Z</time>
      </trkpt>
      <trkpt lat="-24.6710870" lon="-53.7595570">
        <ele>551.0</ele>
        <time>2018-09-15T19:52:02Z</time>
      </trkpt>
      <trkpt lat="-24.6711210" lon="-53.7595700">
        <ele>551.1</ele>
        <time>2018-09-15T19:52:03Z</time>
      </trkpt>
      <trkpt lat="-24.6711540" lon="-53.7595830">
        <ele>551.2</ele>
        <time>2018-09-15T19:52:04Z</time>
      </trkpt>
      <trkpt lat="-24.6711880" lon="-53.7595980">
        <ele>551.2</ele>
        <time>2018-09-15T19:52:05Z</time>
      </trkpt>
      <trkpt lat="-24.6712230" lon="-53.7596120">
        <ele>551.3</ele>
        <time>2018-09-15T19:52:06Z</time>
      </trkpt>
      <trkpt lat="-24.6712590" lon="-53.7596250">
        <ele>551.4</ele>
        <time>2018-09-15T19:52:07Z</time>
      </trkpt>
      <trkpt lat="-24.6712940" lon="-53.7596380">
        <ele>551.4</ele>
        <time>2018-09-15T19:52:08Z</time>
      </trkpt>
      <trkpt lat="-24.6713290" lon="-53.7596520">
        <ele>551.5</ele>
        <time>2018-09-15T19:52:09Z</time>
      </trkpt>
      <trkpt lat="-24.6713640" lon="-53.7596650">
        <ele>551.5</ele>
        <time>2018-09-15T19:52:10Z</time>
      </trkpt>
      <trkpt lat="-24.6714000" lon="-53.7596780">
        <ele>551.5</ele>
        <time>2018-09-15T19:52:11Z</time>
      </trkpt>
      <trkpt lat="-24.6714370" lon="-53.7596920">
        <ele>551.5</ele>
        <time>2018-09-15T19:52:12Z</time>
      </trkpt>
      <trkpt lat="-24.6714730" lon="-53.7597070">
        <ele>551.6</ele>
        <time>2018-09-15T19:52:13Z</time>
      </trkpt>
      <trkpt lat="-24.6715100" lon="-53.7597210">
        <ele>551.6</ele>
        <time>2018-09-15T19:52:14Z</time>
      </trkpt>
      <trkpt lat="-24.6715450" lon="-53.7597340">
        <ele>551.6</ele>
        <time>2018-09-15T19:52:15Z</time>
      </trkpt>
      <trkpt lat="-24.6715810" lon="-53.7597490">
        <ele>551.6</ele>
        <time>2018-09-15T19:52:16Z</time>
      </trkpt>
      <trkpt lat="-24.6716540" lon="-53.7597760">
        <ele>551.7</ele>
        <time>2018-09-15T19:52:18Z</time>
      </trkpt>
      <trkpt lat="-24.6716900" lon="-53.7597880">
        <ele>551.7</ele>
        <time>2018-09-15T19:52:19Z</time>
      </trkpt>
      <trkpt lat="-24.6717260" lon="-53.7598010">
        <ele>551.7</ele>
        <time>2018-09-15T19:52:20Z</time>
      </trkpt>
      <trkpt lat="-24.6717600" lon="-53.7598150">
        <ele>551.8</ele>
        <time>2018-09-15T19:52:21Z</time>
      </trkpt>
      <trkpt lat="-24.6717950" lon="-53.7598280">
        <ele>551.8</ele>
        <time>2018-09-15T19:52:22Z</time>
      </trkpt>
      <trkpt lat="-24.6718310" lon="-53.7598420">
        <ele>551.8</ele>
        <time>2018-09-15T19:52:23Z</time>
      </trkpt>
      <trkpt lat="-24.6718660" lon="-53.7598570">
        <ele>551.9</ele>
        <time>2018-09-15T19:52:24Z</time>
      </trkpt>
      <trkpt lat="-24.6719020" lon="-53.7598730">
        <ele>551.9</ele>
        <time>2018-09-15T19:52:25Z</time>
      </trkpt>
      <trkpt lat="-24.6719390" lon="-53.7598870">
        <ele>551.9</ele>
        <time>2018-09-15T19:52:26Z</time>
      </trkpt>
      <trkpt lat="-24.6719750" lon="-53.7599030">
        <ele>552.0</ele>
        <time>2018-09-15T19:52:27Z</time>
      </trkpt>
      <trkpt lat="-24.6720120" lon="-53.7599170">
        <ele>552.0</ele>
        <time>2018-09-15T19:52:28Z</time>
      </trkpt>
      <trkpt lat="-24.6720500" lon="-53.7599310">
        <ele>552.0</ele>
        <time>2018-09-15T19:52:29Z</time>
      </trkpt>
      <trkpt lat="-24.6720860" lon="-53.7599450">
        <ele>552.0</ele>
        <time>2018-09-15T19:52:30Z</time>
      </trkpt>
      <trkpt lat="-24.6721230" lon="-53.7599600">
        <ele>552.1</ele>
        <time>2018-09-15T19:52:31Z</time>
      </trkpt>
      <trkpt lat="-24.6721600" lon="-53.7599740">
        <ele>552.1</ele>
        <time>2018-09-15T19:52:32Z</time>
      </trkpt>
      <trkpt lat="-24.6721600" lon="-53.7599740">
        <ele>552.1</ele>
        <time>2018-09-15T19:52:33Z</time>
      </trkpt>
      <trkpt lat="-24.6721950" lon="-53.7599880">
        <ele>552.1</ele>
        <time>2018-09-15T19:52:34Z</time>
      </trkpt>
      <trkpt lat="-24.6722300" lon="-53.7600010">
        <ele>552.1</ele>
        <time>2018-09-15T19:52:35Z</time>
      </trkpt>
      <trkpt lat="-24.6722640" lon="-53.7600150">
        <ele>552.1</ele>
        <time>2018-09-15T19:52:36Z</time>
      </trkpt>
      <trkpt lat="-24.6722980" lon="-53.7600270">
        <ele>552.2</ele>
        <time>2018-09-15T19:52:37Z</time>
      </trkpt>
      <trkpt lat="-24.6723330" lon="-53.7600390">
        <ele>552.2</ele>
        <time>2018-09-15T19:52:38Z</time>
      </trkpt>
      <trkpt lat="-24.6723680" lon="-53.7600530">
        <ele>552.2</ele>
        <time>2018-09-15T19:52:39Z</time>
      </trkpt>
      <trkpt lat="-24.6724030" lon="-53.7600660">
        <ele>552.2</ele>
        <time>2018-09-15T19:52:40Z</time>
      </trkpt>
      <trkpt lat="-24.6724390" lon="-53.7600800">
        <ele>552.2</ele>
        <time>2018-09-15T19:52:41Z</time>
      </trkpt>
      <trkpt lat="-24.6724740" lon="-53.7600940">
        <ele>552.3</ele>
        <time>2018-09-15T19:52:42Z</time>
      </trkpt>
      <trkpt lat="-24.6725090" lon="-53.7601080">
        <ele>552.3</ele>
        <time>2018-09-15T19:52:43Z</time>
      </trkpt>
      <trkpt lat="-24.6725460" lon="-53.7601230">
        <ele>552.4</ele>
        <time>2018-09-15T19:52:44Z</time>
      </trkpt>
      <trkpt lat="-24.6725820" lon="-53.7601380">
        <ele>552.5</ele>
        <time>2018-09-15T19:52:45Z</time>
      </trkpt>
      <trkpt lat="-24.6726190" lon="-53.7601530">
        <ele>552.5</ele>
        <time>2018-09-15T19:52:46Z</time>
      </trkpt>
      <trkpt lat="-24.6726560" lon="-53.7601670">
        <ele>552.6</ele>
        <time>2018-09-15T19:52:47Z</time>
      </trkpt>
      <trkpt lat="-24.6726930" lon="-53.7601800">
        <ele>552.8</ele>
        <time>2018-09-15T19:52:48Z</time>
      </trkpt>
      <trkpt lat="-24.6727290" lon="-53.7601940">
        <ele>552.9</ele>
        <time>2018-09-15T19:52:49Z</time>
      </trkpt>
      <trkpt lat="-24.6727660" lon="-53.7602080">
        <ele>553.0</ele>
        <time>2018-09-15T19:52:50Z</time>
      </trkpt>
      <trkpt lat="-24.6728030" lon="-53.7602230">
        <ele>553.1</ele>
        <time>2018-09-15T19:52:51Z</time>
      </trkpt>
      <trkpt lat="-24.6728400" lon="-53.7602370">
        <ele>553.3</ele>
        <time>2018-09-15T19:52:52Z</time>
      </trkpt>
      <trkpt lat="-24.6728760" lon="-53.7602510">
        <ele>553.4</ele>
        <time>2018-09-15T19:52:53Z</time>
      </trkpt>
      <trkpt lat="-24.6729120" lon="-53.7602640">
        <ele>553.5</ele>
        <time>2018-09-15T19:52:54Z</time>
      </trkpt>
      <trkpt lat="-24.6729490" lon="-53.7602770">
        <ele>553.7</ele>
        <time>2018-09-15T19:52:55Z</time>
      </trkpt>
      <trkpt lat="-24.6729850" lon="-53.7602910">
        <ele>553.8</ele>
        <time>2018-09-15T19:52:56Z</time>
      </trkpt>
      <trkpt lat="-24.6730200" lon="-53.7603060">
        <ele>553.9</ele>
        <time>2018-09-15T19:52:57Z</time>
      </trkpt>
      <trkpt lat="-24.6730550" lon="-53.7603200">
        <ele>554.1</ele>
        <time>2018-09-15T19:52:58Z</time>
      </trkpt>
      <trkpt lat="-24.6730920" lon="-53.7603330">
        <ele>554.2</ele>
        <time>2018-09-15T19:52:59Z</time>
      </trkpt>
      <trkpt lat="-24.6731270" lon="-53.7603430">
        <ele>554.3</ele>
        <time>2018-09-15T19:53:00Z</time>
      </trkpt>
      <trkpt lat="-24.6731630" lon="-53.7603540">
        <ele>554.4</ele>
        <time>2018-09-15T19:53:01Z</time>
      </trkpt>
      <trkpt lat="-24.6731970" lon="-53.7603710">
        <ele>554.5</ele>
        <time>2018-09-15T19:53:02Z</time>
      </trkpt>
      <trkpt lat="-24.6732320" lon="-53.7603860">
        <ele>554.6</ele>
        <time>2018-09-15T19:53:03Z</time>
      </trkpt>
      <trkpt lat="-24.6732690" lon="-53.7604010">
        <ele>554.7</ele>
        <time>2018-09-15T19:53:04Z</time>
      </trkpt>
      <trkpt lat="-24.6733070" lon="-53.7604150">
        <ele>554.8</ele>
        <time>2018-09-15T19:53:05Z</time>
      </trkpt>
      <trkpt lat="-24.6733430" lon="-53.7604300">
        <ele>554.8</ele>
        <time>2018-09-15T19:53:06Z</time>
      </trkpt>
      <trkpt lat="-24.6733800" lon="-53.7604430">
        <ele>554.9</ele>
        <time>2018-09-15T19:53:07Z</time>
      </trkpt>
      <trkpt lat="-24.6734170" lon="-53.7604570">
        <ele>554.9</ele>
        <time>2018-09-15T19:53:08Z</time>
      </trkpt>
      <trkpt lat="-24.6734530" lon="-53.7604700">
        <ele>555.0</ele>
        <time>2018-09-15T19:53:09Z</time>
      </trkpt>
      <trkpt lat="-24.6734890" lon="-53.7604850">
        <ele>555.0</ele>
        <time>2018-09-15T19:53:10Z</time>
      </trkpt>
      <trkpt lat="-24.6735250" lon="-53.7604990">
        <ele>555.0</ele>
        <time>2018-09-15T19:53:11Z</time>
      </trkpt>
      <trkpt lat="-24.6735620" lon="-53.7605130">
        <ele>555.1</ele>
        <time>2018-09-15T19:53:12Z</time>
      </trkpt>
      <trkpt lat="-24.6735980" lon="-53.7605260">
        <ele>555.1</ele>
        <time>2018-09-15T19:53:13Z</time>
      </trkpt>
      <trkpt lat="-24.6736350" lon="-53.7605410">
        <ele>555.1</ele>
        <time>2018-09-15T19:53:14Z</time>
      </trkpt>
      <trkpt lat="-24.6736720" lon="-53.7605550">
        <ele>555.1</ele>
        <time>2018-09-15T19:53:15Z</time>
      </trkpt>
      <trkpt lat="-24.6737100" lon="-53.7605700">
        <ele>555.1</ele>
        <time>2018-09-15T19:53:16Z</time>
      </trkpt>
      <trkpt lat="-24.6737480" lon="-53.7605840">
        <ele>555.2</ele>
        <time>2018-09-15T19:53:17Z</time>
      </trkpt>
      <trkpt lat="-24.6737850" lon="-53.7605990">
        <ele>555.2</ele>
        <time>2018-09-15T19:53:18Z</time>
      </trkpt>
      <trkpt lat="-24.6738230" lon="-53.7606140">
        <ele>555.2</ele>
        <time>2018-09-15T19:53:19Z</time>
      </trkpt>
      <trkpt lat="-24.6738610" lon="-53.7606290">
        <ele>555.2</ele>
        <time>2018-09-15T19:53:20Z</time>
      </trkpt>
      <trkpt lat="-24.6738990" lon="-53.7606420">
        <ele>555.3</ele>
        <time>2018-09-15T19:53:21Z</time>
      </trkpt>
      <trkpt lat="-24.6739360" lon="-53.7606550">
        <ele>555.3</ele>
        <time>2018-09-15T19:53:22Z</time>
      </trkpt>
      <trkpt lat="-24.6739740" lon="-53.7606690">
        <ele>555.3</ele>
        <time>2018-09-15T19:53:23Z</time>
      </trkpt>
      <trkpt lat="-24.6740120" lon="-53.7606830">
        <ele>555.3</ele>
        <time>2018-09-15T19:53:24Z</time>
      </trkpt>
      <trkpt lat="-24.6740500" lon="-53.7606980">
        <ele>555.3</ele>
        <time>2018-09-15T19:53:25Z</time>
      </trkpt>
      <trkpt lat="-24.6740870" lon="-53.7607140">
        <ele>555.4</ele>
        <time>2018-09-15T19:53:26Z</time>
      </trkpt>
      <trkpt lat="-24.6741240" lon="-53.7607280">
        <ele>555.4</ele>
        <time>2018-09-15T19:53:27Z</time>
      </trkpt>
      <trkpt lat="-24.6741620" lon="-53.7607430">
        <ele>555.4</ele>
        <time>2018-09-15T19:53:28Z</time>
      </trkpt>
      <trkpt lat="-24.6741980" lon="-53.7607560">
        <ele>555.5</ele>
        <time>2018-09-15T19:53:29Z</time>
      </trkpt>
      <trkpt lat="-24.6742340" lon="-53.7607690">
        <ele>555.5</ele>
        <time>2018-09-15T19:53:30Z</time>
      </trkpt>
      <trkpt lat="-24.6742710" lon="-53.7607840">
        <ele>555.5</ele>
        <time>2018-09-15T19:53:31Z</time>
      </trkpt>
      <trkpt lat="-24.6743080" lon="-53.7607980">
        <ele>555.6</ele>
        <time>2018-09-15T19:53:32Z</time>
      </trkpt>
      <trkpt lat="-24.6743450" lon="-53.7608130">
        <ele>555.6</ele>
        <time>2018-09-15T19:53:33Z</time>
      </trkpt>
      <trkpt lat="-24.6743820" lon="-53.7608280">
        <ele>555.6</ele>
        <time>2018-09-15T19:53:34Z</time>
      </trkpt>
      <trkpt lat="-24.6744190" lon="-53.7608420">
        <ele>555.7</ele>
        <time>2018-09-15T19:53:35Z</time>
      </trkpt>
      <trkpt lat="-24.6744560" lon="-53.7608570">
        <ele>555.7</ele>
        <time>2018-09-15T19:53:36Z</time>
      </trkpt>
      <trkpt lat="-24.6744930" lon="-53.7608710">
        <ele>555.7</ele>
        <time>2018-09-15T19:53:37Z</time>
      </trkpt>
      <trkpt lat="-24.6745310" lon="-53.7608850">
        <ele>555.8</ele>
        <time>2018-09-15T19:53:38Z</time>
      </trkpt>
      <trkpt lat="-24.6745680" lon="-53.7608990">
        <ele>555.8</ele>
        <time>2018-09-15T19:53:39Z</time>
      </trkpt>
      <trkpt lat="-24.6746050" lon="-53.7609130">
        <ele>555.9</ele>
        <time>2018-09-15T19:53:40Z</time>
      </trkpt>
      <trkpt lat="-24.6746420" lon="-53.7609270">
        <ele>556.0</ele>
        <time>2018-09-15T19:53:41Z</time>
      </trkpt>
      <trkpt lat="-24.6746810" lon="-53.7609420">
        <ele>556.1</ele>
        <time>2018-09-15T19:53:42Z</time>
      </trkpt>
      <trkpt lat="-24.6747180" lon="-53.7609560">
        <ele>556.2</ele>
        <time>2018-09-15T19:53:43Z</time>
      </trkpt>
      <trkpt lat="-24.6747550" lon="-53.7609710">
        <ele>556.3</ele>
        <time>2018-09-15T19:53:44Z</time>
      </trkpt>
      <trkpt lat="-24.6747920" lon="-53.7609860">
        <ele>556.4</ele>
        <time>2018-09-15T19:53:45Z</time>
      </trkpt>
      <trkpt lat="-24.6748290" lon="-53.7610010">
        <ele>556.5</ele>
        <time>2018-09-15T19:53:46Z</time>
      </trkpt>
      <trkpt lat="-24.6748660" lon="-53.7610160">
        <ele>556.7</ele>
        <time>2018-09-15T19:53:47Z</time>
      </trkpt>
      <trkpt lat="-24.6749030" lon="-53.7610310">
        <ele>556.8</ele>
        <time>2018-09-15T19:53:48Z</time>
      </trkpt>
      <trkpt lat="-24.6749410" lon="-53.7610460">
        <ele>556.9</ele>
        <time>2018-09-15T19:53:49Z</time>
      </trkpt>
      <trkpt lat="-24.6749790" lon="-53.7610610">
        <ele>557.0</ele>
        <time>2018-09-15T19:53:50Z</time>
      </trkpt>
      <trkpt lat="-24.6750160" lon="-53.7610760">
        <ele>557.2</ele>
        <time>2018-09-15T19:53:51Z</time>
      </trkpt>
      <trkpt lat="-24.6750530" lon="-53.7610900">
        <ele>557.3</ele>
        <time>2018-09-15T19:53:52Z</time>
      </trkpt>
      <trkpt lat="-24.6750910" lon="-53.7611040">
        <ele>557.3</ele>
        <time>2018-09-15T19:53:53Z</time>
      </trkpt>
      <trkpt lat="-24.6751290" lon="-53.7611180">
        <ele>557.4</ele>
        <time>2018-09-15T19:53:54Z</time>
      </trkpt>
      <trkpt lat="-24.6751650" lon="-53.7611310">
        <ele>557.4</ele>
        <time>2018-09-15T19:53:55Z</time>
      </trkpt>
      <trkpt lat="-24.6752020" lon="-53.7611450">
        <ele>557.4</ele>
        <time>2018-09-15T19:53:56Z</time>
      </trkpt>
      <trkpt lat="-24.6752390" lon="-53.7611590">
        <ele>557.5</ele>
        <time>2018-09-15T19:53:57Z</time>
      </trkpt>
      <trkpt lat="-24.6752750" lon="-53.7611720">
        <ele>557.5</ele>
        <time>2018-09-15T19:53:58Z</time>
      </trkpt>
      <trkpt lat="-24.6753110" lon="-53.7611870">
        <ele>557.6</ele>
        <time>2018-09-15T19:53:59Z</time>
      </trkpt>
      <trkpt lat="-24.6753480" lon="-53.7612020">
        <ele>557.6</ele>
        <time>2018-09-15T19:54:00Z</time>
      </trkpt>
      <trkpt lat="-24.6753860" lon="-53.7612170">
        <ele>557.7</ele>
        <time>2018-09-15T19:54:01Z</time>
      </trkpt>
      <trkpt lat="-24.6754230" lon="-53.7612310">
        <ele>557.7</ele>
        <time>2018-09-15T19:54:02Z</time>
      </trkpt>
      <trkpt lat="-24.6754620" lon="-53.7612460">
        <ele>557.7</ele>
        <time>2018-09-15T19:54:03Z</time>
      </trkpt>
      <trkpt lat="-24.6755010" lon="-53.7612620">
        <ele>557.7</ele>
        <time>2018-09-15T19:54:04Z</time>
      </trkpt>
      <trkpt lat="-24.6755390" lon="-53.7612760">
        <ele>557.7</ele>
        <time>2018-09-15T19:54:05Z</time>
      </trkpt>
      <trkpt lat="-24.6755780" lon="-53.7612910">
        <ele>557.7</ele>
        <time>2018-09-15T19:54:06Z</time>
      </trkpt>
      <trkpt lat="-24.6756170" lon="-53.7613070">
        <ele>557.7</ele>
        <time>2018-09-15T19:54:07Z</time>
      </trkpt>
      <trkpt lat="-24.6756560" lon="-53.7613210">
        <ele>557.8</ele>
        <time>2018-09-15T19:54:08Z</time>
      </trkpt>
      <trkpt lat="-24.6756940" lon="-53.7613350">
        <ele>557.8</ele>
        <time>2018-09-15T19:54:09Z</time>
      </trkpt>
      <trkpt lat="-24.6757310" lon="-53.7613490">
        <ele>557.8</ele>
        <time>2018-09-15T19:54:10Z</time>
      </trkpt>
      <trkpt lat="-24.6757670" lon="-53.7613640">
        <ele>557.8</ele>
        <time>2018-09-15T19:54:11Z</time>
      </trkpt>
      <trkpt lat="-24.6758040" lon="-53.7613790">
        <ele>557.8</ele>
        <time>2018-09-15T19:54:12Z</time>
      </trkpt>
      <trkpt lat="-24.6758420" lon="-53.7613940">
        <ele>557.8</ele>
        <time>2018-09-15T19:54:13Z</time>
      </trkpt>
      <trkpt lat="-24.6758810" lon="-53.7614080">
        <ele>557.8</ele>
        <time>2018-09-15T19:54:14Z</time>
      </trkpt>
      <trkpt lat="-24.6759200" lon="-53.7614220">
        <ele>557.8</ele>
        <time>2018-09-15T19:54:15Z</time>
      </trkpt>
      <trkpt lat="-24.6759580" lon="-53.7614370">
        <ele>557.8</ele>
        <time>2018-09-15T19:54:16Z</time>
      </trkpt>
      <trkpt lat="-24.6759970" lon="-53.7614520">
        <ele>557.8</ele>
        <time>2018-09-15T19:54:17Z</time>
      </trkpt>
      <trkpt lat="-24.6760360" lon="-53.7614660">
        <ele>557.8</ele>
        <time>2018-09-15T19:54:18Z</time>
      </trkpt>
      <trkpt lat="-24.6760740" lon="-53.7614820">
        <ele>557.8</ele>
        <time>2018-09-15T19:54:19Z</time>
      </trkpt>
      <trkpt lat="-24.6761120" lon="-53.7614960">
        <ele>557.7</ele>
        <time>2018-09-15T19:54:20Z</time>
      </trkpt>
      <trkpt lat="-24.6761500" lon="-53.7615100">
        <ele>557.6</ele>
        <time>2018-09-15T19:54:21Z</time>
      </trkpt>
      <trkpt lat="-24.6761870" lon="-53.7615240">
        <ele>557.6</ele>
        <time>2018-09-15T19:54:22Z</time>
      </trkpt>
      <trkpt lat="-24.6762240" lon="-53.7615380">
        <ele>557.5</ele>
        <time>2018-09-15T19:54:23Z</time>
      </trkpt>
      <trkpt lat="-24.6762620" lon="-53.7615510">
        <ele>557.5</ele>
        <time>2018-09-15T19:54:24Z</time>
      </trkpt>
      <trkpt lat="-24.6763000" lon="-53.7615640">
        <ele>557.4</ele>
        <time>2018-09-15T19:54:25Z</time>
      </trkpt>
      <trkpt lat="-24.6763380" lon="-53.7615790">
        <ele>557.4</ele>
        <time>2018-09-15T19:54:26Z</time>
      </trkpt>
      <trkpt lat="-24.6763770" lon="-53.7615940">
        <ele>557.3</ele>
        <time>2018-09-15T19:54:27Z</time>
      </trkpt>
      <trkpt lat="-24.6764160" lon="-53.7616080">
        <ele>557.2</ele>
        <time>2018-09-15T19:54:28Z</time>
      </trkpt>
      <trkpt lat="-24.6764560" lon="-53.7616240">
        <ele>557.2</ele>
        <time>2018-09-15T19:54:29Z</time>
      </trkpt>
      <trkpt lat="-24.6764960" lon="-53.7616380">
        <ele>557.2</ele>
        <time>2018-09-15T19:54:30Z</time>
      </trkpt>
      <trkpt lat="-24.6765360" lon="-53.7616550">
        <ele>557.2</ele>
        <time>2018-09-15T19:54:31Z</time>
      </trkpt>
      <trkpt lat="-24.6765770" lon="-53.7616700">
        <ele>557.1</ele>
        <time>2018-09-15T19:54:32Z</time>
      </trkpt>
      <trkpt lat="-24.6766170" lon="-53.7616860">
        <ele>557.1</ele>
        <time>2018-09-15T19:54:33Z</time>
      </trkpt>
      <trkpt lat="-24.6766580" lon="-53.7617010">
        <ele>557.1</ele>
        <time>2018-09-15T19:54:34Z</time>
      </trkpt>
      <trkpt lat="-24.6767000" lon="-53.7617140">
        <ele>557.1</ele>
        <time>2018-09-15T19:54:35Z</time>
      </trkpt>
      <trkpt lat="-24.6767390" lon="-53.7617310">
        <ele>557.1</ele>
        <time>2018-09-15T19:54:36Z</time>
      </trkpt>
      <trkpt lat="-24.6767790" lon="-53.7617470">
        <ele>557.0</ele>
        <time>2018-09-15T19:54:37Z</time>
      </trkpt>
      <trkpt lat="-24.6768180" lon="-53.7617620">
        <ele>557.0</ele>
        <time>2018-09-15T19:54:38Z</time>
      </trkpt>
      <trkpt lat="-24.6768570" lon="-53.7617770">
        <ele>557.0</ele>
        <time>2018-09-15T19:54:39Z</time>
      </trkpt>
      <trkpt lat="-24.6768960" lon="-53.7617930">
        <ele>557.0</ele>
        <time>2018-09-15T19:54:40Z</time>
      </trkpt>
      <trkpt lat="-24.6769350" lon="-53.7618090">
        <ele>557.0</ele>
        <time>2018-09-15T19:54:41Z</time>
      </trkpt>
      <trkpt lat="-24.6769740" lon="-53.7618220">
        <ele>557.0</ele>
        <time>2018-09-15T19:54:42Z</time>
      </trkpt>
      <trkpt lat="-24.6770140" lon="-53.7618380">
        <ele>557.0</ele>
        <time>2018-09-15T19:54:43Z</time>
      </trkpt>
      <trkpt lat="-24.6770550" lon="-53.7618530">
        <ele>557.0</ele>
        <time>2018-09-15T19:54:44Z</time>
      </trkpt>
      <trkpt lat="-24.6770950" lon="-53.7618680">
        <ele>557.0</ele>
        <time>2018-09-15T19:54:45Z</time>
      </trkpt>
      <trkpt lat="-24.6771360" lon="-53.7618830">
        <ele>557.0</ele>
        <time>2018-09-15T19:54:46Z</time>
      </trkpt>
      <trkpt lat="-24.6771770" lon="-53.7618980">
        <ele>557.0</ele>
        <time>2018-09-15T19:54:47Z</time>
      </trkpt>
      <trkpt lat="-24.6772180" lon="-53.7619140">
        <ele>557.0</ele>
        <time>2018-09-15T19:54:48Z</time>
      </trkpt>
      <trkpt lat="-24.6772580" lon="-53.7619300">
        <ele>557.0</ele>
        <time>2018-09-15T19:54:49Z</time>
      </trkpt>
      <trkpt lat="-24.6772990" lon="-53.7619450">
        <ele>557.0</ele>
        <time>2018-09-15T19:54:50Z</time>
      </trkpt>
      <trkpt lat="-24.6773380" lon="-53.7619610">
        <ele>557.0</ele>
        <time>2018-09-15T19:54:51Z</time>
      </trkpt>
      <trkpt lat="-24.6773780" lon="-53.7619760">
        <ele>557.0</ele>
        <time>2018-09-15T19:54:52Z</time>
      </trkpt>
      <trkpt lat="-24.6774170" lon="-53.7619910">
        <ele>557.0</ele>
        <time>2018-09-15T19:54:53Z</time>
      </trkpt>
      <trkpt lat="-24.6774570" lon="-53.7620070">
        <ele>557.0</ele>
        <time>2018-09-15T19:54:54Z</time>
      </trkpt>
      <trkpt lat="-24.6774980" lon="-53.7620220">
        <ele>557.0</ele>
        <time>2018-09-15T19:54:55Z</time>
      </trkpt>
      <trkpt lat="-24.6775370" lon="-53.7620380">
        <ele>557.0</ele>
        <time>2018-09-15T19:54:56Z</time>
      </trkpt>
      <trkpt lat="-24.6775760" lon="-53.7620530">
        <ele>557.0</ele>
        <time>2018-09-15T19:54:57Z</time>
      </trkpt>
      <trkpt lat="-24.6776160" lon="-53.7620680">
        <ele>557.0</ele>
        <time>2018-09-15T19:54:58Z</time>
      </trkpt>
      <trkpt lat="-24.6776540" lon="-53.7620840">
        <ele>557.0</ele>
        <time>2018-09-15T19:54:59Z</time>
      </trkpt>
      <trkpt lat="-24.6776940" lon="-53.7620990">
        <ele>557.0</ele>
        <time>2018-09-15T19:55:00Z</time>
      </trkpt>
      <trkpt lat="-24.6777350" lon="-53.7621140">
        <ele>557.0</ele>
        <time>2018-09-15T19:55:01Z</time>
      </trkpt>
      <trkpt lat="-24.6777770" lon="-53.7621290">
        <ele>557.0</ele>
        <time>2018-09-15T19:55:02Z</time>
      </trkpt>
      <trkpt lat="-24.6778190" lon="-53.7621460">
        <ele>557.0</ele>
        <time>2018-09-15T19:55:03Z</time>
      </trkpt>
      <trkpt lat="-24.6778640" lon="-53.7621630">
        <ele>557.0</ele>
        <time>2018-09-15T19:55:04Z</time>
      </trkpt>
      <trkpt lat="-24.6779090" lon="-53.7621800">
        <ele>557.0</ele>
        <time>2018-09-15T19:55:05Z</time>
      </trkpt>
      <trkpt lat="-24.6779550" lon="-53.7621980">
        <ele>556.9</ele>
        <time>2018-09-15T19:55:06Z</time>
      </trkpt>
      <trkpt lat="-24.6780010" lon="-53.7622150">
        <ele>556.9</ele>
        <time>2018-09-15T19:55:07Z</time>
      </trkpt>
      <trkpt lat="-24.6780460" lon="-53.7622310">
        <ele>556.9</ele>
        <time>2018-09-15T19:55:08Z</time>
      </trkpt>
      <trkpt lat="-24.6780910" lon="-53.7622470">
        <ele>556.9</ele>
        <time>2018-09-15T19:55:09Z</time>
      </trkpt>
      <trkpt lat="-24.6781350" lon="-53.7622640">
        <ele>556.8</ele>
        <time>2018-09-15T19:55:10Z</time>
      </trkpt>
      <trkpt lat="-24.6781790" lon="-53.7622800">
        <ele>556.8</ele>
        <time>2018-09-15T19:55:11Z</time>
      </trkpt>
      <trkpt lat="-24.6782230" lon="-53.7622960">
        <ele>556.7</ele>
        <time>2018-09-15T19:55:12Z</time>
      </trkpt>
      <trkpt lat="-24.6782670" lon="-53.7623130">
        <ele>556.6</ele>
        <time>2018-09-15T19:55:13Z</time>
      </trkpt>
      <trkpt lat="-24.6783110" lon="-53.7623300">
        <ele>556.5</ele>
        <time>2018-09-15T19:55:14Z</time>
      </trkpt>
      <trkpt lat="-24.6783560" lon="-53.7623480">
        <ele>556.4</ele>
        <time>2018-09-15T19:55:15Z</time>
      </trkpt>
      <trkpt lat="-24.6784000" lon="-53.7623650">
        <ele>556.3</ele>
        <time>2018-09-15T19:55:16Z</time>
      </trkpt>
      <trkpt lat="-24.6784460" lon="-53.7623800">
        <ele>556.2</ele>
        <time>2018-09-15T19:55:17Z</time>
      </trkpt>
      <trkpt lat="-24.6784910" lon="-53.7623960">
        <ele>556.1</ele>
        <time>2018-09-15T19:55:18Z</time>
      </trkpt>
      <trkpt lat="-24.6785390" lon="-53.7624130">
        <ele>556.0</ele>
        <time>2018-09-15T19:55:19Z</time>
      </trkpt>
      <trkpt lat="-24.6785900" lon="-53.7624320">
        <ele>556.0</ele>
        <time>2018-09-15T19:55:20Z</time>
      </trkpt>
      <trkpt lat="-24.6786410" lon="-53.7624510">
        <ele>555.9</ele>
        <time>2018-09-15T19:55:21Z</time>
      </trkpt>
      <trkpt lat="-24.6786950" lon="-53.7624700">
        <ele>555.9</ele>
        <time>2018-09-15T19:55:22Z</time>
      </trkpt>
      <trkpt lat="-24.6787500" lon="-53.7624890">
        <ele>555.8</ele>
        <time>2018-09-15T19:55:23Z</time>
      </trkpt>
      <trkpt lat="-24.6788030" lon="-53.7625090">
        <ele>555.8</ele>
        <time>2018-09-15T19:55:24Z</time>
      </trkpt>
      <trkpt lat="-24.6788500" lon="-53.7625340">
        <ele>555.7</ele>
        <time>2018-09-15T19:55:25Z</time>
      </trkpt>
      <trkpt lat="-24.6789000" lon="-53.7625530">
        <ele>555.7</ele>
        <time>2018-09-15T19:55:26Z</time>
      </trkpt>
      <trkpt lat="-24.6789550" lon="-53.7625760">
        <ele>555.6</ele>
        <time>2018-09-15T19:55:27Z</time>
      </trkpt>
      <trkpt lat="-24.6790030" lon="-53.7626030">
        <ele>555.6</ele>
        <time>2018-09-15T19:55:28Z</time>
      </trkpt>
      <trkpt lat="-24.6790520" lon="-53.7626260">
        <ele>555.5</ele>
        <time>2018-09-15T19:55:29Z</time>
      </trkpt>
      <trkpt lat="-24.6791120" lon="-53.7626440">
        <ele>555.4</ele>
        <time>2018-09-15T19:55:30Z</time>
      </trkpt>
      <trkpt lat="-24.6791650" lon="-53.7626650">
        <ele>555.4</ele>
        <time>2018-09-15T19:55:31Z</time>
      </trkpt>
      <trkpt lat="-24.6792230" lon="-53.7626870">
        <ele>555.3</ele>
        <time>2018-09-15T19:55:32Z</time>
      </trkpt>
      <trkpt lat="-24.6792860" lon="-53.7627120">
        <ele>555.2</ele>
        <time>2018-09-15T19:55:33Z</time>
      </trkpt>
      <trkpt lat="-24.6793440" lon="-53.7627340">
        <ele>555.0</ele>
        <time>2018-09-15T19:55:34Z</time>
      </trkpt>
      <trkpt lat="-24.6794050" lon="-53.7627570">
        <ele>554.8</ele>
        <time>2018-09-15T19:55:35Z</time>
      </trkpt>
      <trkpt lat="-24.6794620" lon="-53.7627800">
        <ele>554.6</ele>
        <time>2018-09-15T19:55:36Z</time>
      </trkpt>
      <trkpt lat="-24.6795200" lon="-53.7628020">
        <ele>554.4</ele>
        <time>2018-09-15T19:55:37Z</time>
      </trkpt>
      <trkpt lat="-24.6795840" lon="-53.7628170">
        <ele>554.1</ele>
        <time>2018-09-15T19:55:38Z</time>
      </trkpt>
      <trkpt lat="-24.6796450" lon="-53.7628370">
        <ele>553.9</ele>
        <time>2018-09-15T19:55:39Z</time>
      </trkpt>
      <trkpt lat="-24.6797090" lon="-53.7628620">
        <ele>553.7</ele>
        <time>2018-09-15T19:55:40Z</time>
      </trkpt>
      <trkpt lat="-24.6797690" lon="-53.7628910">
        <ele>553.6</ele>
        <time>2018-09-15T19:55:41Z</time>
      </trkpt>
      <trkpt lat="-24.6798260" lon="-53.7629160">
        <ele>553.5</ele>
        <time>2018-09-15T19:55:42Z</time>
      </trkpt>
      <trkpt lat="-24.6798870" lon="-53.7629370">
        <ele>553.5</ele>
        <time>2018-09-15T19:55:43Z</time>
      </trkpt>
      <trkpt lat="-24.6800170" lon="-53.7629770">
        <ele>553.3</ele>
        <time>2018-09-15T19:55:44Z</time>
      </trkpt>
      <trkpt lat="-24.6800790" lon="-53.7629980">
        <ele>553.3</ele>
        <time>2018-09-15T19:55:45Z</time>
      </trkpt>
      <trkpt lat="-24.6801410" lon="-53.7630220">
        <ele>553.2</ele>
        <time>2018-09-15T19:55:46Z</time>
      </trkpt>
      <trkpt lat="-24.6802000" lon="-53.7630460">
        <ele>553.1</ele>
        <time>2018-09-15T19:55:47Z</time>
      </trkpt>
      <trkpt lat="-24.6802600" lon="-53.7630670">
        <ele>553.0</ele>
        <time>2018-09-15T19:55:48Z</time>
      </trkpt>
      <trkpt lat="-24.6803190" lon="-53.7630900">
        <ele>553.0</ele>
        <time>2018-09-15T19:55:49Z</time>
      </trkpt>
      <trkpt lat="-24.6803780" lon="-53.7631130">
        <ele>552.9</ele>
        <time>2018-09-15T19:55:50Z</time>
      </trkpt>
      <trkpt lat="-24.6804350" lon="-53.7631350">
        <ele>552.8</ele>
        <time>2018-09-15T19:55:51Z</time>
      </trkpt>
      <trkpt lat="-24.6804910" lon="-53.7631600">
        <ele>552.7</ele>
        <time>2018-09-15T19:55:52Z</time>
      </trkpt>
      <trkpt lat="-24.6806110" lon="-53.7632040">
        <ele>552.4</ele>
        <time>2018-09-15T19:55:54Z</time>
      </trkpt>
      <trkpt lat="-24.6806740" lon="-53.7632280">
        <ele>552.2</ele>
        <time>2018-09-15T19:55:55Z</time>
      </trkpt>
      <trkpt lat="-24.6807390" lon="-53.7632510">
        <ele>552.0</ele>
        <time>2018-09-15T19:55:56Z</time>
      </trkpt>
      <trkpt lat="-24.6808030" lon="-53.7632760">
        <ele>551.7</ele>
        <time>2018-09-15T19:55:57Z</time>
      </trkpt>
      <trkpt lat="-24.6808650" lon="-53.7633020">
        <ele>551.5</ele>
        <time>2018-09-15T19:55:58Z</time>
      </trkpt>
      <trkpt lat="-24.6809300" lon="-53.7633240">
        <ele>551.2</ele>
        <time>2018-09-15T19:55:59Z</time>
      </trkpt>
      <trkpt lat="-24.6809980" lon="-53.7633470">
        <ele>550.9</ele>
        <time>2018-09-15T19:56:00Z</time>
      </trkpt>
      <trkpt lat="-24.6810680" lon="-53.7633710">
        <ele>550.6</ele>
        <time>2018-09-15T19:56:01Z</time>
      </trkpt>
      <trkpt lat="-24.6811360" lon="-53.7633970">
        <ele>550.3</ele>
        <time>2018-09-15T19:56:02Z</time>
      </trkpt>
      <trkpt lat="-24.6812040" lon="-53.7634240">
        <ele>550.0</ele>
        <time>2018-09-15T19:56:03Z</time>
      </trkpt>
      <trkpt lat="-24.6812710" lon="-53.7634490">
        <ele>549.8</ele>
        <time>2018-09-15T19:56:04Z</time>
      </trkpt>
      <trkpt lat="-24.6813370" lon="-53.7634760">
        <ele>549.5</ele>
        <time>2018-09-15T19:56:05Z</time>
      </trkpt>
      <trkpt lat="-24.6814050" lon="-53.7635030">
        <ele>549.3</ele>
        <time>2018-09-15T19:56:06Z</time>
      </trkpt>
      <trkpt lat="-24.6814740" lon="-53.7635320">
        <ele>549.1</ele>
        <time>2018-09-15T19:56:07Z</time>
      </trkpt>
      <trkpt lat="-24.6815450" lon="-53.7635590">
        <ele>548.9</ele>
        <time>2018-09-15T19:56:08Z</time>
      </trkpt>
      <trkpt lat="-24.6816170" lon="-53.7635840">
        <ele>548.8</ele>
        <time>2018-09-15T19:56:09Z</time>
      </trkpt>
      <trkpt lat="-24.6816890" lon="-53.7636100">
        <ele>548.7</ele>
        <time>2018-09-15T19:56:10Z</time>
      </trkpt>
      <trkpt lat="-24.6817620" lon="-53.7636390">
        <ele>548.7</ele>
        <time>2018-09-15T19:56:11Z</time>
      </trkpt>
      <trkpt lat="-24.6818360" lon="-53.7636680">
        <ele>548.6</ele>
        <time>2018-09-15T19:56:12Z</time>
      </trkpt>
      <trkpt lat="-24.6819090" lon="-53.7636970">
        <ele>548.6</ele>
        <time>2018-09-15T19:56:13Z</time>
      </trkpt>
      <trkpt lat="-24.6819820" lon="-53.7637250">
        <ele>548.6</ele>
        <time>2018-09-15T19:56:14Z</time>
      </trkpt>
      <trkpt lat="-24.6820560" lon="-53.7637530">
        <ele>548.6</ele>
        <time>2018-09-15T19:56:15Z</time>
      </trkpt>
      <trkpt lat="-24.6821300" lon="-53.7637800">
        <ele>548.6</ele>
        <time>2018-09-15T19:56:16Z</time>
      </trkpt>
      <trkpt lat="-24.6822020" lon="-53.7638060">
        <ele>548.6</ele>
        <time>2018-09-15T19:56:17Z</time>
      </trkpt>
      <trkpt lat="-24.6822730" lon="-53.7638310">
        <ele>548.6</ele>
        <time>2018-09-15T19:56:18Z</time>
      </trkpt>
      <trkpt lat="-24.6823450" lon="-53.7638560">
        <ele>548.6</ele>
        <time>2018-09-15T19:56:19Z</time>
      </trkpt>
      <trkpt lat="-24.6824160" lon="-53.7638810">
        <ele>548.7</ele>
        <time>2018-09-15T19:56:20Z</time>
      </trkpt>
      <trkpt lat="-24.6824850" lon="-53.7639030">
        <ele>548.8</ele>
        <time>2018-09-15T19:56:21Z</time>
      </trkpt>
      <trkpt lat="-24.6825530" lon="-53.7639250">
        <ele>548.8</ele>
        <time>2018-09-15T19:56:22Z</time>
      </trkpt>
      <trkpt lat="-24.6826200" lon="-53.7639460">
        <ele>548.9</ele>
        <time>2018-09-15T19:56:23Z</time>
      </trkpt>
      <trkpt lat="-24.6826200" lon="-53.7639460">
        <ele>548.9</ele>
        <time>2018-09-15T19:56:24Z</time>
      </trkpt>
      <trkpt lat="-24.6826840" lon="-53.7639650">
        <ele>549.0</ele>
        <time>2018-09-15T19:56:25Z</time>
      </trkpt>
      <trkpt lat="-24.6827470" lon="-53.7639830">
        <ele>549.2</ele>
        <time>2018-09-15T19:56:26Z</time>
      </trkpt>
      <trkpt lat="-24.6828040" lon="-53.7640100">
        <ele>549.4</ele>
        <time>2018-09-15T19:56:27Z</time>
      </trkpt>
      <trkpt lat="-24.6828670" lon="-53.7640290">
        <ele>549.6</ele>
        <time>2018-09-15T19:56:28Z</time>
      </trkpt>
      <trkpt lat="-24.6829200" lon="-53.7640550">
        <ele>549.8</ele>
        <time>2018-09-15T19:56:29Z</time>
      </trkpt>
      <trkpt lat="-24.6829890" lon="-53.7640740">
        <ele>550.1</ele>
        <time>2018-09-15T19:56:30Z</time>
      </trkpt>
      <trkpt lat="-24.6830490" lon="-53.7640910">
        <ele>550.3</ele>
        <time>2018-09-15T19:56:31Z</time>
      </trkpt>
      <trkpt lat="-24.6831200" lon="-53.7641050">
        <ele>550.5</ele>
        <time>2018-09-15T19:56:32Z</time>
      </trkpt>
      <trkpt lat="-24.6831900" lon="-53.7641230">
        <ele>550.7</ele>
        <time>2018-09-15T19:56:33Z</time>
      </trkpt>
      <trkpt lat="-24.6832590" lon="-53.7641370">
        <ele>550.9</ele>
        <time>2018-09-15T19:56:34Z</time>
      </trkpt>
      <trkpt lat="-24.6833290" lon="-53.7641490">
        <ele>551.1</ele>
        <time>2018-09-15T19:56:35Z</time>
      </trkpt>
      <trkpt lat="-24.6833950" lon="-53.7641640">
        <ele>551.2</ele>
        <time>2018-09-15T19:56:36Z</time>
      </trkpt>
      <trkpt lat="-24.6834570" lon="-53.7641780">
        <ele>551.2</ele>
        <time>2018-09-15T19:56:37Z</time>
      </trkpt>
      <trkpt lat="-24.6835150" lon="-53.7641940">
        <ele>551.3</ele>
        <time>2018-09-15T19:56:38Z</time>
      </trkpt>
      <trkpt lat="-24.6835750" lon="-53.7642070">
        <ele>551.3</ele>
        <time>2018-09-15T19:56:39Z</time>
      </trkpt>
      <trkpt lat="-24.6836320" lon="-53.7642220">
        <ele>551.3</ele>
        <time>2018-09-15T19:56:40Z</time>
      </trkpt>
      <trkpt lat="-24.6836900" lon="-53.7642380">
        <ele>551.3</ele>
        <time>2018-09-15T19:56:41Z</time>
      </trkpt>
      <trkpt lat="-24.6837460" lon="-53.7642540">
        <ele>551.3</ele>
        <time>2018-09-15T19:56:42Z</time>
      </trkpt>
      <trkpt lat="-24.6838020" lon="-53.7642660">
        <ele>551.3</ele>
        <time>2018-09-15T19:56:43Z</time>
      </trkpt>
      <trkpt lat="-24.6838570" lon="-53.7642800">
        <ele>551.3</ele>
        <time>2018-09-15T19:56:44Z</time>
      </trkpt>
      <trkpt lat="-24.6839100" lon="-53.7642950">
        <ele>551.3</ele>
        <time>2018-09-15T19:56:45Z</time>
      </trkpt>
      <trkpt lat="-24.6839640" lon="-53.7643090">
        <ele>551.4</ele>
        <time>2018-09-15T19:56:46Z</time>
      </trkpt>
      <trkpt lat="-24.6840160" lon="-53.7643210">
        <ele>551.4</ele>
        <time>2018-09-15T19:56:47Z</time>
      </trkpt>
      <trkpt lat="-24.6840680" lon="-53.7643360">
        <ele>551.4</ele>
        <time>2018-09-15T19:56:48Z</time>
      </trkpt>
      <trkpt lat="-24.6841180" lon="-53.7643500">
        <ele>551.4</ele>
        <time>2018-09-15T19:56:49Z</time>
      </trkpt>
      <trkpt lat="-24.6841690" lon="-53.7643640">
        <ele>551.4</ele>
        <time>2018-09-15T19:56:50Z</time>
      </trkpt>
      <trkpt lat="-24.6842200" lon="-53.7643760">
        <ele>551.4</ele>
        <time>2018-09-15T19:56:51Z</time>
      </trkpt>
      <trkpt lat="-24.6842700" lon="-53.7643870">
        <ele>551.4</ele>
        <time>2018-09-15T19:56:52Z</time>
      </trkpt>
      <trkpt lat="-24.6843170" lon="-53.7643990">
        <ele>551.4</ele>
        <time>2018-09-15T19:56:53Z</time>
      </trkpt>
      <trkpt lat="-24.6843640" lon="-53.7644110">
        <ele>551.4</ele>
        <time>2018-09-15T19:56:54Z</time>
      </trkpt>
      <trkpt lat="-24.6844030" lon="-53.7644270">
        <ele>551.4</ele>
        <time>2018-09-15T19:56:55Z</time>
      </trkpt>
      <trkpt lat="-24.6844460" lon="-53.7644410">
        <ele>551.4</ele>
        <time>2018-09-15T19:56:56Z</time>
      </trkpt>
      <trkpt lat="-24.6844860" lon="-53.7644560">
        <ele>551.4</ele>
        <time>2018-09-15T19:56:57Z</time>
      </trkpt>
      <trkpt lat="-24.6845270" lon="-53.7644690">
        <ele>551.4</ele>
        <time>2018-09-15T19:56:58Z</time>
      </trkpt>
      <trkpt lat="-24.6845670" lon="-53.7644830">
        <ele>551.4</ele>
        <time>2018-09-15T19:56:59Z</time>
      </trkpt>
      <trkpt lat="-24.6846110" lon="-53.7644960">
        <ele>551.4</ele>
        <time>2018-09-15T19:57:00Z</time>
      </trkpt>
      <trkpt lat="-24.6846510" lon="-53.7645070">
        <ele>551.4</ele>
        <time>2018-09-15T19:57:01Z</time>
      </trkpt>
      <trkpt lat="-24.6846920" lon="-53.7645170">
        <ele>551.4</ele>
        <time>2018-09-15T19:57:02Z</time>
      </trkpt>
      <trkpt lat="-24.6847320" lon="-53.7645260">
        <ele>551.4</ele>
        <time>2018-09-15T19:57:03Z</time>
      </trkpt>
      <trkpt lat="-24.6847680" lon="-53.7645370">
        <ele>551.4</ele>
        <time>2018-09-15T19:57:04Z</time>
      </trkpt>
      <trkpt lat="-24.6848040" lon="-53.7645470">
        <ele>551.4</ele>
        <time>2018-09-15T19:57:05Z</time>
      </trkpt>
      <trkpt lat="-24.6848400" lon="-53.7645570">
        <ele>551.4</ele>
        <time>2018-09-15T19:57:06Z</time>
      </trkpt>
      <trkpt lat="-24.6848820" lon="-53.7645650">
        <ele>551.4</ele>
        <time>2018-09-15T19:57:07Z</time>
      </trkpt>
      <trkpt lat="-24.6849180" lon="-53.7645750">
        <ele>551.4</ele>
        <time>2018-09-15T19:57:08Z</time>
      </trkpt>
      <trkpt lat="-24.6849560" lon="-53.7645840">
        <ele>551.4</ele>
        <time>2018-09-15T19:57:09Z</time>
      </trkpt>
      <trkpt lat="-24.6849960" lon="-53.7645930">
        <ele>551.4</ele>
        <time>2018-09-15T19:57:10Z</time>
      </trkpt>
      <trkpt lat="-24.6850350" lon="-53.7646010">
        <ele>551.4</ele>
        <time>2018-09-15T19:57:11Z</time>
      </trkpt>
      <trkpt lat="-24.6850720" lon="-53.7646110">
        <ele>551.4</ele>
        <time>2018-09-15T19:57:12Z</time>
      </trkpt>
      <trkpt lat="-24.6851100" lon="-53.7646220">
        <ele>551.4</ele>
        <time>2018-09-15T19:57:13Z</time>
      </trkpt>
      <trkpt lat="-24.6851480" lon="-53.7646310">
        <ele>551.4</ele>
        <time>2018-09-15T19:57:14Z</time>
      </trkpt>
      <trkpt lat="-24.6851830" lon="-53.7646400">
        <ele>551.4</ele>
        <time>2018-09-15T19:57:15Z</time>
      </trkpt>
      <trkpt lat="-24.6852200" lon="-53.7646490">
        <ele>551.4</ele>
        <time>2018-09-15T19:57:16Z</time>
      </trkpt>
      <trkpt lat="-24.6852560" lon="-53.7646570">
        <ele>551.4</ele>
        <time>2018-09-15T19:57:17Z</time>
      </trkpt>
      <trkpt lat="-24.6852910" lon="-53.7646640">
        <ele>551.4</ele>
        <time>2018-09-15T19:57:18Z</time>
      </trkpt>
      <trkpt lat="-24.6853270" lon="-53.7646750">
        <ele>551.4</ele>
        <time>2018-09-15T19:57:19Z</time>
      </trkpt>
      <trkpt lat="-24.6853640" lon="-53.7646840">
        <ele>551.4</ele>
        <time>2018-09-15T19:57:20Z</time>
      </trkpt>
      <trkpt lat="-24.6854000" lon="-53.7646930">
        <ele>551.4</ele>
        <time>2018-09-15T19:57:21Z</time>
      </trkpt>
      <trkpt lat="-24.6854360" lon="-53.7647020">
        <ele>551.4</ele>
        <time>2018-09-15T19:57:22Z</time>
      </trkpt>
      <trkpt lat="-24.6854710" lon="-53.7647110">
        <ele>551.3</ele>
        <time>2018-09-15T19:57:23Z</time>
      </trkpt>
      <trkpt lat="-24.6855020" lon="-53.7647250">
        <ele>551.3</ele>
        <time>2018-09-15T19:57:24Z</time>
      </trkpt>
      <trkpt lat="-24.6855340" lon="-53.7647360">
        <ele>551.3</ele>
        <time>2018-09-15T19:57:25Z</time>
      </trkpt>
      <trkpt lat="-24.6855680" lon="-53.7647460">
        <ele>551.3</ele>
        <time>2018-09-15T19:57:26Z</time>
      </trkpt>
      <trkpt lat="-24.6856040" lon="-53.7647550">
        <ele>551.3</ele>
        <time>2018-09-15T19:57:27Z</time>
      </trkpt>
      <trkpt lat="-24.6856400" lon="-53.7647640">
        <ele>551.3</ele>
        <time>2018-09-15T19:57:28Z</time>
      </trkpt>
      <trkpt lat="-24.6856780" lon="-53.7647720">
        <ele>551.3</ele>
        <time>2018-09-15T19:57:29Z</time>
      </trkpt>
      <trkpt lat="-24.6857150" lon="-53.7647820">
        <ele>551.3</ele>
        <time>2018-09-15T19:57:30Z</time>
      </trkpt>
      <trkpt lat="-24.6857490" lon="-53.7647930">
        <ele>551.3</ele>
        <time>2018-09-15T19:57:31Z</time>
      </trkpt>
      <trkpt lat="-24.6857850" lon="-53.7648030">
        <ele>551.3</ele>
        <time>2018-09-15T19:57:32Z</time>
      </trkpt>
      <trkpt lat="-24.6858210" lon="-53.7648130">
        <ele>551.3</ele>
        <time>2018-09-15T19:57:33Z</time>
      </trkpt>
      <trkpt lat="-24.6858550" lon="-53.7648200">
        <ele>551.3</ele>
        <time>2018-09-15T19:57:34Z</time>
      </trkpt>
      <trkpt lat="-24.6858900" lon="-53.7648270">
        <ele>551.3</ele>
        <time>2018-09-15T19:57:35Z</time>
      </trkpt>
      <trkpt lat="-24.6859280" lon="-53.7648370">
        <ele>551.3</ele>
        <time>2018-09-15T19:57:36Z</time>
      </trkpt>
      <trkpt lat="-24.6859610" lon="-53.7648480">
        <ele>551.3</ele>
        <time>2018-09-15T19:57:37Z</time>
      </trkpt>
      <trkpt lat="-24.6859960" lon="-53.7648590">
        <ele>551.3</ele>
        <time>2018-09-15T19:57:38Z</time>
      </trkpt>
      <trkpt lat="-24.6860270" lon="-53.7648680">
        <ele>551.3</ele>
        <time>2018-09-15T19:57:39Z</time>
      </trkpt>
      <trkpt lat="-24.6860650" lon="-53.7648770">
        <ele>551.3</ele>
        <time>2018-09-15T19:57:40Z</time>
      </trkpt>
      <trkpt lat="-24.6861020" lon="-53.7648850">
        <ele>551.3</ele>
        <time>2018-09-15T19:57:41Z</time>
      </trkpt>
      <trkpt lat="-24.6861430" lon="-53.7648940">
        <ele>551.3</ele>
        <time>2018-09-15T19:57:42Z</time>
      </trkpt>
      <trkpt lat="-24.6861840" lon="-53.7649040">
        <ele>551.3</ele>
        <time>2018-09-15T19:57:43Z</time>
      </trkpt>
      <trkpt lat="-24.6862250" lon="-53.7649150">
        <ele>551.3</ele>
        <time>2018-09-15T19:57:44Z</time>
      </trkpt>
      <trkpt lat="-24.6862650" lon="-53.7649250">
        <ele>551.3</ele>
        <time>2018-09-15T19:57:45Z</time>
      </trkpt>
      <trkpt lat="-24.6863070" lon="-53.7649360">
        <ele>551.3</ele>
        <time>2018-09-15T19:57:46Z</time>
      </trkpt>
      <trkpt lat="-24.6863480" lon="-53.7649450">
        <ele>551.3</ele>
        <time>2018-09-15T19:57:47Z</time>
      </trkpt>
      <trkpt lat="-24.6863890" lon="-53.7649540">
        <ele>551.3</ele>
        <time>2018-09-15T19:57:48Z</time>
      </trkpt>
      <trkpt lat="-24.6864290" lon="-53.7649640">
        <ele>551.3</ele>
        <time>2018-09-15T19:57:49Z</time>
      </trkpt>
      <trkpt lat="-24.6864700" lon="-53.7649760">
        <ele>551.3</ele>
        <time>2018-09-15T19:57:50Z</time>
      </trkpt>
      <trkpt lat="-24.6865120" lon="-53.7649860">
        <ele>551.3</ele>
        <time>2018-09-15T19:57:51Z</time>
      </trkpt>
      <trkpt lat="-24.6865540" lon="-53.7649970">
        <ele>551.3</ele>
        <time>2018-09-15T19:57:52Z</time>
      </trkpt>
      <trkpt lat="-24.6865950" lon="-53.7650090">
        <ele>551.2</ele>
        <time>2018-09-15T19:57:53Z</time>
      </trkpt>
      <trkpt lat="-24.6866380" lon="-53.7650210">
        <ele>551.2</ele>
        <time>2018-09-15T19:57:54Z</time>
      </trkpt>
      <trkpt lat="-24.6866800" lon="-53.7650320">
        <ele>551.2</ele>
        <time>2018-09-15T19:57:55Z</time>
      </trkpt>
      <trkpt lat="-24.6867250" lon="-53.7650430">
        <ele>551.2</ele>
        <time>2018-09-15T19:57:56Z</time>
      </trkpt>
      <trkpt lat="-24.6867710" lon="-53.7650570">
        <ele>551.2</ele>
        <time>2018-09-15T19:57:57Z</time>
      </trkpt>
      <trkpt lat="-24.6868170" lon="-53.7650690">
        <ele>551.2</ele>
        <time>2018-09-15T19:57:58Z</time>
      </trkpt>
      <trkpt lat="-24.6868650" lon="-53.7650830">
        <ele>551.2</ele>
        <time>2018-09-15T19:57:59Z</time>
      </trkpt>
      <trkpt lat="-24.6869130" lon="-53.7650970">
        <ele>551.2</ele>
        <time>2018-09-15T19:58:00Z</time>
      </trkpt>
      <trkpt lat="-24.6869620" lon="-53.7651090">
        <ele>551.1</ele>
        <time>2018-09-15T19:58:01Z</time>
      </trkpt>
      <trkpt lat="-24.6870110" lon="-53.7651220">
        <ele>551.1</ele>
        <time>2018-09-15T19:58:02Z</time>
      </trkpt>
      <trkpt lat="-24.6870610" lon="-53.7651360">
        <ele>551.1</ele>
        <time>2018-09-15T19:58:03Z</time>
      </trkpt>
      <trkpt lat="-24.6871120" lon="-53.7651460">
        <ele>551.1</ele>
        <time>2018-09-15T19:58:04Z</time>
      </trkpt>
      <trkpt lat="-24.6871650" lon="-53.7651590">
        <ele>551.0</ele>
        <time>2018-09-15T19:58:05Z</time>
      </trkpt>
      <trkpt lat="-24.6872160" lon="-53.7651750">
        <ele>550.9</ele>
        <time>2018-09-15T19:58:06Z</time>
      </trkpt>
      <trkpt lat="-24.6872680" lon="-53.7651890">
        <ele>550.8</ele>
        <time>2018-09-15T19:58:07Z</time>
      </trkpt>
      <trkpt lat="-24.6873210" lon="-53.7652030">
        <ele>550.7</ele>
        <time>2018-09-15T19:58:08Z</time>
      </trkpt>
      <trkpt lat="-24.6873720" lon="-53.7652160">
        <ele>550.5</ele>
        <time>2018-09-15T19:58:09Z</time>
      </trkpt>
      <trkpt lat="-24.6874220" lon="-53.7652290">
        <ele>550.4</ele>
        <time>2018-09-15T19:58:10Z</time>
      </trkpt>
      <trkpt lat="-24.6874720" lon="-53.7652440">
        <ele>550.2</ele>
        <time>2018-09-15T19:58:11Z</time>
      </trkpt>
      <trkpt lat="-24.6875200" lon="-53.7652560">
        <ele>550.0</ele>
        <time>2018-09-15T19:58:12Z</time>
      </trkpt>
      <trkpt lat="-24.6875680" lon="-53.7652680">
        <ele>549.9</ele>
        <time>2018-09-15T19:58:13Z</time>
      </trkpt>
      <trkpt lat="-24.6876190" lon="-53.7652790">
        <ele>549.7</ele>
        <time>2018-09-15T19:58:14Z</time>
      </trkpt>
      <trkpt lat="-24.6876670" lon="-53.7652900">
        <ele>549.5</ele>
        <time>2018-09-15T19:58:15Z</time>
      </trkpt>
      <trkpt lat="-24.6877160" lon="-53.7653050">
        <ele>549.4</ele>
        <time>2018-09-15T19:58:16Z</time>
      </trkpt>
      <trkpt lat="-24.6877660" lon="-53.7653180">
        <ele>549.3</ele>
        <time>2018-09-15T19:58:17Z</time>
      </trkpt>
      <trkpt lat="-24.6878140" lon="-53.7653300">
        <ele>549.2</ele>
        <time>2018-09-15T19:58:18Z</time>
      </trkpt>
      <trkpt lat="-24.6878620" lon="-53.7653410">
        <ele>549.2</ele>
        <time>2018-09-15T19:58:19Z</time>
      </trkpt>
      <trkpt lat="-24.6879100" lon="-53.7653520">
        <ele>549.1</ele>
        <time>2018-09-15T19:58:20Z</time>
      </trkpt>
      <trkpt lat="-24.6879580" lon="-53.7653660">
        <ele>549.1</ele>
        <time>2018-09-15T19:58:21Z</time>
      </trkpt>
      <trkpt lat="-24.6880060" lon="-53.7653790">
        <ele>549.0</ele>
        <time>2018-09-15T19:58:22Z</time>
      </trkpt>
      <trkpt lat="-24.6880530" lon="-53.7653930">
        <ele>549.0</ele>
        <time>2018-09-15T19:58:23Z</time>
      </trkpt>
      <trkpt lat="-24.6880990" lon="-53.7654070">
        <ele>548.9</ele>
        <time>2018-09-15T19:58:24Z</time>
      </trkpt>
      <trkpt lat="-24.6881460" lon="-53.7654220">
        <ele>548.8</ele>
        <time>2018-09-15T19:58:25Z</time>
      </trkpt>
      <trkpt lat="-24.6881920" lon="-53.7654360">
        <ele>548.8</ele>
        <time>2018-09-15T19:58:26Z</time>
      </trkpt>
      <trkpt lat="-24.6882380" lon="-53.7654490">
        <ele>548.7</ele>
        <time>2018-09-15T19:58:27Z</time>
      </trkpt>
      <trkpt lat="-24.6882850" lon="-53.7654610">
        <ele>548.5</ele>
        <time>2018-09-15T19:58:28Z</time>
      </trkpt>
      <trkpt lat="-24.6883300" lon="-53.7654720">
        <ele>548.3</ele>
        <time>2018-09-15T19:58:29Z</time>
      </trkpt>
      <trkpt lat="-24.6883750" lon="-53.7654860">
        <ele>548.1</ele>
        <time>2018-09-15T19:58:30Z</time>
      </trkpt>
      <trkpt lat="-24.6884210" lon="-53.7654990">
        <ele>547.8</ele>
        <time>2018-09-15T19:58:31Z</time>
      </trkpt>
      <trkpt lat="-24.6884680" lon="-53.7655110">
        <ele>547.5</ele>
        <time>2018-09-15T19:58:32Z</time>
      </trkpt>
      <trkpt lat="-24.6885150" lon="-53.7655230">
        <ele>547.2</ele>
        <time>2018-09-15T19:58:33Z</time>
      </trkpt>
      <trkpt lat="-24.6885640" lon="-53.7655360">
        <ele>546.9</ele>
        <time>2018-09-15T19:58:34Z</time>
      </trkpt>
      <trkpt lat="-24.6886140" lon="-53.7655490">
        <ele>546.6</ele>
        <time>2018-09-15T19:58:35Z</time>
      </trkpt>
      <trkpt lat="-24.6886650" lon="-53.7655610">
        <ele>546.3</ele>
        <time>2018-09-15T19:58:36Z</time>
      </trkpt>
      <trkpt lat="-24.6887180" lon="-53.7655730">
        <ele>545.9</ele>
        <time>2018-09-15T19:58:37Z</time>
      </trkpt>
      <trkpt lat="-24.6887730" lon="-53.7655870">
        <ele>545.6</ele>
        <time>2018-09-15T19:58:38Z</time>
      </trkpt>
      <trkpt lat="-24.6888300" lon="-53.7656030">
        <ele>545.3</ele>
        <time>2018-09-15T19:58:39Z</time>
      </trkpt>
      <trkpt lat="-24.6888890" lon="-53.7656160">
        <ele>544.9</ele>
        <time>2018-09-15T19:58:40Z</time>
      </trkpt>
      <trkpt lat="-24.6889490" lon="-53.7656320">
        <ele>544.6</ele>
        <time>2018-09-15T19:58:41Z</time>
      </trkpt>
      <trkpt lat="-24.6890120" lon="-53.7656490">
        <ele>544.2</ele>
        <time>2018-09-15T19:58:42Z</time>
      </trkpt>
      <trkpt lat="-24.6890760" lon="-53.7656670">
        <ele>543.9</ele>
        <time>2018-09-15T19:58:43Z</time>
      </trkpt>
      <trkpt lat="-24.6891410" lon="-53.7656840">
        <ele>543.5</ele>
        <time>2018-09-15T19:58:44Z</time>
      </trkpt>
      <trkpt lat="-24.6892080" lon="-53.7656990">
        <ele>543.2</ele>
        <time>2018-09-15T19:58:45Z</time>
      </trkpt>
      <trkpt lat="-24.6892770" lon="-53.7657140">
        <ele>542.8</ele>
        <time>2018-09-15T19:58:46Z</time>
      </trkpt>
      <trkpt lat="-24.6893470" lon="-53.7657300">
        <ele>542.5</ele>
        <time>2018-09-15T19:58:47Z</time>
      </trkpt>
      <trkpt lat="-24.6894180" lon="-53.7657480">
        <ele>542.3</ele>
        <time>2018-09-15T19:58:48Z</time>
      </trkpt>
      <trkpt lat="-24.6894880" lon="-53.7657660">
        <ele>542.0</ele>
        <time>2018-09-15T19:58:49Z</time>
      </trkpt>
      <trkpt lat="-24.6895550" lon="-53.7657770">
        <ele>542.0</ele>
        <time>2018-09-15T19:58:50Z</time>
      </trkpt>
      <trkpt lat="-24.6896200" lon="-53.7657800">
        <ele>542.1</ele>
        <time>2018-09-15T19:58:51Z</time>
      </trkpt>
      <trkpt lat="-24.6896790" lon="-53.7657780">
        <ele>542.1</ele>
        <time>2018-09-15T19:58:52Z</time>
      </trkpt>
      <trkpt lat="-24.6897360" lon="-53.7657730">
        <ele>542.1</ele>
        <time>2018-09-15T19:58:53Z</time>
      </trkpt>
      <trkpt lat="-24.6897890" lon="-53.7657480">
        <ele>542.1</ele>
        <time>2018-09-15T19:58:54Z</time>
      </trkpt>
      <trkpt lat="-24.6898340" lon="-53.7657040">
        <ele>542.1</ele>
        <time>2018-09-15T19:58:55Z</time>
      </trkpt>
      <trkpt lat="-24.6898690" lon="-53.7656490">
        <ele>542.0</ele>
        <time>2018-09-15T19:58:56Z</time>
      </trkpt>
      <trkpt lat="-24.6898970" lon="-53.7655900">
        <ele>542.0</ele>
        <time>2018-09-15T19:58:57Z</time>
      </trkpt>
      <trkpt lat="-24.6899190" lon="-53.7655300">
        <ele>542.0</ele>
        <time>2018-09-15T19:58:58Z</time>
      </trkpt>
      <trkpt lat="-24.6899370" lon="-53.7654740">
        <ele>541.8</ele>
        <time>2018-09-15T19:58:59Z</time>
      </trkpt>
      <trkpt lat="-24.6899550" lon="-53.7654220">
        <ele>541.5</ele>
        <time>2018-09-15T19:59:00Z</time>
      </trkpt>
      <trkpt lat="-24.6899730" lon="-53.7653720">
        <ele>541.5</ele>
        <time>2018-09-15T19:59:01Z</time>
      </trkpt>
      <trkpt lat="-24.6899890" lon="-53.7653240">
        <ele>541.5</ele>
        <time>2018-09-15T19:59:02Z</time>
      </trkpt>
      <trkpt lat="-24.6900030" lon="-53.7652780">
        <ele>541.5</ele>
        <time>2018-09-15T19:59:03Z</time>
      </trkpt>
      <trkpt lat="-24.6900130" lon="-53.7652300">
        <ele>541.7</ele>
        <time>2018-09-15T19:59:04Z</time>
      </trkpt>
      <trkpt lat="-24.6900230" lon="-53.7651840">
        <ele>541.8</ele>
        <time>2018-09-15T19:59:05Z</time>
      </trkpt>
      <trkpt lat="-24.6900330" lon="-53.7651400">
        <ele>542.2</ele>
        <time>2018-09-15T19:59:06Z</time>
      </trkpt>
      <trkpt lat="-24.6900420" lon="-53.7651000">
        <ele>542.5</ele>
        <time>2018-09-15T19:59:07Z</time>
      </trkpt>
      <trkpt lat="-24.6900460" lon="-53.7650600">
        <ele>542.9</ele>
        <time>2018-09-15T19:59:08Z</time>
      </trkpt>
      <trkpt lat="-24.6900490" lon="-53.7650180">
        <ele>543.2</ele>
        <time>2018-09-15T19:59:09Z</time>
      </trkpt>
      <trkpt lat="-24.6900530" lon="-53.7649740">
        <ele>543.5</ele>
        <time>2018-09-15T19:59:10Z</time>
      </trkpt>
      <trkpt lat="-24.6900550" lon="-53.7649270">
        <ele>543.8</ele>
        <time>2018-09-15T19:59:11Z</time>
      </trkpt>
      <trkpt lat="-24.6900570" lon="-53.7648770">
        <ele>544.1</ele>
        <time>2018-09-15T19:59:12Z</time>
      </trkpt>
      <trkpt lat="-24.6900590" lon="-53.7648250">
        <ele>544.4</ele>
        <time>2018-09-15T19:59:13Z</time>
      </trkpt>
      <trkpt lat="-24.6900610" lon="-53.7647710">
        <ele>544.8</ele>
        <time>2018-09-15T19:59:14Z</time>
      </trkpt>
      <trkpt lat="-24.6900620" lon="-53.7647130">
        <ele>545.1</ele>
        <time>2018-09-15T19:59:15Z</time>
      </trkpt>
      <trkpt lat="-24.6900610" lon="-53.7646550">
        <ele>545.3</ele>
        <time>2018-09-15T19:59:16Z</time>
      </trkpt>
      <trkpt lat="-24.6900600" lon="-53.7645940">
        <ele>545.6</ele>
        <time>2018-09-15T19:59:17Z</time>
      </trkpt>
      <trkpt lat="-24.6900560" lon="-53.7645310">
        <ele>545.8</ele>
        <time>2018-09-15T19:59:18Z</time>
      </trkpt>
      <trkpt lat="-24.6900550" lon="-53.7644670">
        <ele>546.1</ele>
        <time>2018-09-15T19:59:19Z</time>
      </trkpt>
      <trkpt lat="-24.6900510" lon="-53.7644010">
        <ele>546.3</ele>
        <time>2018-09-15T19:59:20Z</time>
      </trkpt>
      <trkpt lat="-24.6900470" lon="-53.7643340">
        <ele>546.5</ele>
        <time>2018-09-15T19:59:21Z</time>
      </trkpt>
      <trkpt lat="-24.6900410" lon="-53.7642660">
        <ele>547.0</ele>
        <time>2018-09-15T19:59:22Z</time>
      </trkpt>
      <trkpt lat="-24.6900360" lon="-53.7641970">
        <ele>547.1</ele>
        <time>2018-09-15T19:59:23Z</time>
      </trkpt>
      <trkpt lat="-24.6900300" lon="-53.7641270">
        <ele>546.7</ele>
        <time>2018-09-15T19:59:24Z</time>
      </trkpt>
      <trkpt lat="-24.6900240" lon="-53.7640560">
        <ele>545.6</ele>
        <time>2018-09-15T19:59:25Z</time>
      </trkpt>
      <trkpt lat="-24.6900180" lon="-53.7639840">
        <ele>544.7</ele>
        <time>2018-09-15T19:59:26Z</time>
      </trkpt>
      <trkpt lat="-24.6900130" lon="-53.7639110">
        <ele>543.9</ele>
        <time>2018-09-15T19:59:27Z</time>
      </trkpt>
      <trkpt lat="-24.6900040" lon="-53.7638370">
        <ele>543.4</ele>
        <time>2018-09-15T19:59:28Z</time>
      </trkpt>
      <trkpt lat="-24.6899980" lon="-53.7637620">
        <ele>543.1</ele>
        <time>2018-09-15T19:59:29Z</time>
      </trkpt>
      <trkpt lat="-24.6899820" lon="-53.7636080">
        <ele>543.6</ele>
        <time>2018-09-15T19:59:30Z</time>
      </trkpt>
      <trkpt lat="-24.6899740" lon="-53.7635300">
        <ele>543.3</ele>
        <time>2018-09-15T19:59:31Z</time>
      </trkpt>
      <trkpt lat="-24.6899650" lon="-53.7634500">
        <ele>542.8</ele>
        <time>2018-09-15T19:59:32Z</time>
      </trkpt>
      <trkpt lat="-24.6899580" lon="-53.7633700">
        <ele>542.5</ele>
        <time>2018-09-15T19:59:33Z</time>
      </trkpt>
      <trkpt lat="-24.6899550" lon="-53.7632900">
        <ele>542.6</ele>
        <time>2018-09-15T19:59:34Z</time>
      </trkpt>
      <trkpt lat="-24.6899520" lon="-53.7632080">
        <ele>542.1</ele>
        <time>2018-09-15T19:59:35Z</time>
      </trkpt>
      <trkpt lat="-24.6899440" lon="-53.7631270">
        <ele>541.6</ele>
        <time>2018-09-15T19:59:36Z</time>
      </trkpt>
      <trkpt lat="-24.6899370" lon="-53.7630460">
        <ele>540.8</ele>
        <time>2018-09-15T19:59:37Z</time>
      </trkpt>
      <trkpt lat="-24.6899310" lon="-53.7629660">
        <ele>539.5</ele>
        <time>2018-09-15T19:59:38Z</time>
      </trkpt>
      <trkpt lat="-24.6899350" lon="-53.7628850">
        <ele>538.1</ele>
        <time>2018-09-15T19:59:39Z</time>
      </trkpt>
      <trkpt lat="-24.6899330" lon="-53.7628040">
        <ele>536.0</ele>
        <time>2018-09-15T19:59:40Z</time>
      </trkpt>
      <trkpt lat="-24.6899330" lon="-53.7627230">
        <ele>534.8</ele>
        <time>2018-09-15T19:59:41Z</time>
      </trkpt>
      <trkpt lat="-24.6899220" lon="-53.7626430">
        <ele>534.1</ele>
        <time>2018-09-15T19:59:42Z</time>
      </trkpt>
      <trkpt lat="-24.6899120" lon="-53.7625640">
        <ele>533.7</ele>
        <time>2018-09-15T19:59:43Z</time>
      </trkpt>
      <trkpt lat="-24.6899040" lon="-53.7624850">
        <ele>533.5</ele>
        <time>2018-09-15T19:59:44Z</time>
      </trkpt>
      <trkpt lat="-24.6898980" lon="-53.7624060">
        <ele>533.6</ele>
        <time>2018-09-15T19:59:45Z</time>
      </trkpt>
      <trkpt lat="-24.6898940" lon="-53.7623280">
        <ele>533.3</ele>
        <time>2018-09-15T19:59:46Z</time>
      </trkpt>
      <trkpt lat="-24.6898890" lon="-53.7622520">
        <ele>533.0</ele>
        <time>2018-09-15T19:59:47Z</time>
      </trkpt>
      <trkpt lat="-24.6898840" lon="-53.7620990">
        <ele>532.0</ele>
        <time>2018-09-15T19:59:49Z</time>
      </trkpt>
      <trkpt lat="-24.6898820" lon="-53.7620240">
        <ele>531.3</ele>
        <time>2018-09-15T19:59:50Z</time>
      </trkpt>
      <trkpt lat="-24.6898790" lon="-53.7619500">
        <ele>530.8</ele>
        <time>2018-09-15T19:59:51Z</time>
      </trkpt>
      <trkpt lat="-24.6898780" lon="-53.7618770">
        <ele>530.5</ele>
        <time>2018-09-15T19:59:52Z</time>
      </trkpt>
      <trkpt lat="-24.6898770" lon="-53.7618050">
        <ele>530.2</ele>
        <time>2018-09-15T19:59:53Z</time>
      </trkpt>
      <trkpt lat="-24.6898760" lon="-53.7617340">
        <ele>530.2</ele>
        <time>2018-09-15T19:59:54Z</time>
      </trkpt>
      <trkpt lat="-24.6898750" lon="-53.7616650">
        <ele>530.4</ele>
        <time>2018-09-15T19:59:55Z</time>
      </trkpt>
      <trkpt lat="-24.6898740" lon="-53.7615950">
        <ele>530.7</ele>
        <time>2018-09-15T19:59:56Z</time>
      </trkpt>
      <trkpt lat="-24.6898740" lon="-53.7615260">
        <ele>531.1</ele>
        <time>2018-09-15T19:59:57Z</time>
      </trkpt>
      <trkpt lat="-24.6898700" lon="-53.7614600">
        <ele>531.8</ele>
        <time>2018-09-15T19:59:58Z</time>
      </trkpt>
      <trkpt lat="-24.6898650" lon="-53.7613940">
        <ele>532.5</ele>
        <time>2018-09-15T19:59:59Z</time>
      </trkpt>
      <trkpt lat="-24.6898600" lon="-53.7613310">
        <ele>533.0</ele>
        <time>2018-09-15T20:00:00Z</time>
      </trkpt>
      <trkpt lat="-24.6898510" lon="-53.7612690">
        <ele>533.2</ele>
        <time>2018-09-15T20:00:01Z</time>
      </trkpt>
      <trkpt lat="-24.6898460" lon="-53.7612080">
        <ele>533.3</ele>
        <time>2018-09-15T20:00:02Z</time>
      </trkpt>
      <trkpt lat="-24.6898420" lon="-53.7611490">
        <ele>533.4</ele>
        <time>2018-09-15T20:00:03Z</time>
      </trkpt>
      <trkpt lat="-24.6898410" lon="-53.7610900">
        <ele>533.5</ele>
        <time>2018-09-15T20:00:04Z</time>
      </trkpt>
      <trkpt lat="-24.6898420" lon="-53.7610300">
        <ele>533.6</ele>
        <time>2018-09-15T20:00:05Z</time>
      </trkpt>
      <trkpt lat="-24.6898410" lon="-53.7609700">
        <ele>533.6</ele>
        <time>2018-09-15T20:00:06Z</time>
      </trkpt>
      <trkpt lat="-24.6898390" lon="-53.7609090">
        <ele>533.7</ele>
        <time>2018-09-15T20:00:07Z</time>
      </trkpt>
      <trkpt lat="-24.6898340" lon="-53.7608490">
        <ele>533.7</ele>
        <time>2018-09-15T20:00:08Z</time>
      </trkpt>
      <trkpt lat="-24.6898290" lon="-53.7607900">
        <ele>533.8</ele>
        <time>2018-09-15T20:00:09Z</time>
      </trkpt>
      <trkpt lat="-24.6898250" lon="-53.7607290">
        <ele>533.8</ele>
        <time>2018-09-15T20:00:10Z</time>
      </trkpt>
      <trkpt lat="-24.6898200" lon="-53.7606690">
        <ele>533.8</ele>
        <time>2018-09-15T20:00:11Z</time>
      </trkpt>
      <trkpt lat="-24.6898200" lon="-53.7606690">
        <ele>533.8</ele>
        <time>2018-09-15T20:00:12Z</time>
      </trkpt>
      <trkpt lat="-24.6898170" lon="-53.7606110">
        <ele>533.9</ele>
        <time>2018-09-15T20:00:13Z</time>
      </trkpt>
      <trkpt lat="-24.6898130" lon="-53.7605530">
        <ele>533.9</ele>
        <time>2018-09-15T20:00:14Z</time>
      </trkpt>
      <trkpt lat="-24.6898090" lon="-53.7604970">
        <ele>533.9</ele>
        <time>2018-09-15T20:00:15Z</time>
      </trkpt>
      <trkpt lat="-24.6898060" lon="-53.7604410">
        <ele>534.0</ele>
        <time>2018-09-15T20:00:16Z</time>
      </trkpt>
      <trkpt lat="-24.6898050" lon="-53.7603860">
        <ele>534.0</ele>
        <time>2018-09-15T20:00:17Z</time>
      </trkpt>
      <trkpt lat="-24.6898000" lon="-53.7603310">
        <ele>534.0</ele>
        <time>2018-09-15T20:00:18Z</time>
      </trkpt>
      <trkpt lat="-24.6897940" lon="-53.7602770">
        <ele>534.0</ele>
        <time>2018-09-15T20:00:19Z</time>
      </trkpt>
      <trkpt lat="-24.6897870" lon="-53.7602240">
        <ele>534.0</ele>
        <time>2018-09-15T20:00:20Z</time>
      </trkpt>
      <trkpt lat="-24.6897800" lon="-53.7601720">
        <ele>534.1</ele>
        <time>2018-09-15T20:00:21Z</time>
      </trkpt>
      <trkpt lat="-24.6897740" lon="-53.7601200">
        <ele>534.1</ele>
        <time>2018-09-15T20:00:22Z</time>
      </trkpt>
      <trkpt lat="-24.6897690" lon="-53.7600690">
        <ele>534.1</ele>
        <time>2018-09-15T20:00:23Z</time>
      </trkpt>
      <trkpt lat="-24.6897630" lon="-53.7600190">
        <ele>534.1</ele>
        <time>2018-09-15T20:00:24Z</time>
      </trkpt>
      <trkpt lat="-24.6897580" lon="-53.7599670">
        <ele>534.2</ele>
        <time>2018-09-15T20:00:25Z</time>
      </trkpt>
      <trkpt lat="-24.6897540" lon="-53.7599160">
        <ele>534.2</ele>
        <time>2018-09-15T20:00:26Z</time>
      </trkpt>
      <trkpt lat="-24.6897500" lon="-53.7598660">
        <ele>534.2</ele>
        <time>2018-09-15T20:00:27Z</time>
      </trkpt>
      <trkpt lat="-24.6897450" lon="-53.7598160">
        <ele>534.2</ele>
        <time>2018-09-15T20:00:28Z</time>
      </trkpt>
      <trkpt lat="-24.6897400" lon="-53.7597660">
        <ele>534.3</ele>
        <time>2018-09-15T20:00:29Z</time>
      </trkpt>
      <trkpt lat="-24.6897350" lon="-53.7597170">
        <ele>534.4</ele>
        <time>2018-09-15T20:00:30Z</time>
      </trkpt>
      <trkpt lat="-24.6897300" lon="-53.7596680">
        <ele>534.4</ele>
        <time>2018-09-15T20:00:31Z</time>
      </trkpt>
      <trkpt lat="-24.6897260" lon="-53.7596190">
        <ele>534.5</ele>
        <time>2018-09-15T20:00:32Z</time>
      </trkpt>
      <trkpt lat="-24.6897200" lon="-53.7595710">
        <ele>534.5</ele>
        <time>2018-09-15T20:00:33Z</time>
      </trkpt>
      <trkpt lat="-24.6897150" lon="-53.7595230">
        <ele>534.6</ele>
        <time>2018-09-15T20:00:34Z</time>
      </trkpt>
      <trkpt lat="-24.6897100" lon="-53.7594780">
        <ele>534.6</ele>
        <time>2018-09-15T20:00:35Z</time>
      </trkpt>
      <trkpt lat="-24.6897060" lon="-53.7594340">
        <ele>534.6</ele>
        <time>2018-09-15T20:00:36Z</time>
      </trkpt>
      <trkpt lat="-24.6897030" lon="-53.7593910">
        <ele>534.7</ele>
        <time>2018-09-15T20:00:37Z</time>
      </trkpt>
      <trkpt lat="-24.6896980" lon="-53.7593500">
        <ele>534.7</ele>
        <time>2018-09-15T20:00:38Z</time>
      </trkpt>
      <trkpt lat="-24.6896940" lon="-53.7593100">
        <ele>534.8</ele>
        <time>2018-09-15T20:00:39Z</time>
      </trkpt>
      <trkpt lat="-24.6896880" lon="-53.7592710">
        <ele>534.8</ele>
        <time>2018-09-15T20:00:40Z</time>
      </trkpt>
      <trkpt lat="-24.6896830" lon="-53.7592310">
        <ele>534.8</ele>
        <time>2018-09-15T20:00:41Z</time>
      </trkpt>
      <trkpt lat="-24.6896800" lon="-53.7591920">
        <ele>534.9</ele>
        <time>2018-09-15T20:00:42Z</time>
      </trkpt>
      <trkpt lat="-24.6896740" lon="-53.7591530">
        <ele>534.9</ele>
        <time>2018-09-15T20:00:43Z</time>
      </trkpt>
      <trkpt lat="-24.6896690" lon="-53.7591140">
        <ele>534.9</ele>
        <time>2018-09-15T20:00:44Z</time>
      </trkpt>
      <trkpt lat="-24.6896650" lon="-53.7590760">
        <ele>535.0</ele>
        <time>2018-09-15T20:00:45Z</time>
      </trkpt>
      <trkpt lat="-24.6896600" lon="-53.7590380">
        <ele>535.1</ele>
        <time>2018-09-15T20:00:46Z</time>
      </trkpt>
      <trkpt lat="-24.6896540" lon="-53.7590020">
        <ele>535.1</ele>
        <time>2018-09-15T20:00:47Z</time>
      </trkpt>
      <trkpt lat="-24.6896520" lon="-53.7589660">
        <ele>535.1</ele>
        <time>2018-09-15T20:00:48Z</time>
      </trkpt>
      <trkpt lat="-24.6896510" lon="-53.7589300">
        <ele>535.1</ele>
        <time>2018-09-15T20:00:49Z</time>
      </trkpt>
      <trkpt lat="-24.6896510" lon="-53.7588940">
        <ele>535.2</ele>
        <time>2018-09-15T20:00:50Z</time>
      </trkpt>
      <trkpt lat="-24.6896490" lon="-53.7588580">
        <ele>535.2</ele>
        <time>2018-09-15T20:00:51Z</time>
      </trkpt>
      <trkpt lat="-24.6896460" lon="-53.7588230">
        <ele>535.2</ele>
        <time>2018-09-15T20:00:52Z</time>
      </trkpt>
      <trkpt lat="-24.6896410" lon="-53.7587880">
        <ele>535.3</ele>
        <time>2018-09-15T20:00:53Z</time>
      </trkpt>
      <trkpt lat="-24.6896360" lon="-53.7587530">
        <ele>535.3</ele>
        <time>2018-09-15T20:00:54Z</time>
      </trkpt>
      <trkpt lat="-24.6896330" lon="-53.7587190">
        <ele>535.3</ele>
        <time>2018-09-15T20:00:55Z</time>
      </trkpt>
      <trkpt lat="-24.6896290" lon="-53.7586840">
        <ele>535.3</ele>
        <time>2018-09-15T20:00:56Z</time>
      </trkpt>
      <trkpt lat="-24.6896250" lon="-53.7586490">
        <ele>535.4</ele>
        <time>2018-09-15T20:00:57Z</time>
      </trkpt>
      <trkpt lat="-24.6896230" lon="-53.7586140">
        <ele>535.4</ele>
        <time>2018-09-15T20:00:58Z</time>
      </trkpt>
      <trkpt lat="-24.6896220" lon="-53.7585800">
        <ele>535.5</ele>
        <time>2018-09-15T20:00:59Z</time>
      </trkpt>
      <trkpt lat="-24.6896200" lon="-53.7585470">
        <ele>535.5</ele>
        <time>2018-09-15T20:01:00Z</time>
      </trkpt>
      <trkpt lat="-24.6896190" lon="-53.7585120">
        <ele>535.6</ele>
        <time>2018-09-15T20:01:01Z</time>
      </trkpt>
      <trkpt lat="-24.6896180" lon="-53.7584800">
        <ele>535.6</ele>
        <time>2018-09-15T20:01:02Z</time>
      </trkpt>
      <trkpt lat="-24.6896170" lon="-53.7584470">
        <ele>535.7</ele>
        <time>2018-09-15T20:01:03Z</time>
      </trkpt>
      <trkpt lat="-24.6896140" lon="-53.7584140">
        <ele>535.7</ele>
        <time>2018-09-15T20:01:04Z</time>
      </trkpt>
      <trkpt lat="-24.6896100" lon="-53.7583810">
        <ele>535.7</ele>
        <time>2018-09-15T20:01:05Z</time>
      </trkpt>
      <trkpt lat="-24.6896080" lon="-53.7583490">
        <ele>535.8</ele>
        <time>2018-09-15T20:01:06Z</time>
      </trkpt>
      <trkpt lat="-24.6896050" lon="-53.7583160">
        <ele>535.9</ele>
        <time>2018-09-15T20:01:07Z</time>
      </trkpt>
      <trkpt lat="-24.6896010" lon="-53.7582830">
        <ele>535.9</ele>
        <time>2018-09-15T20:01:08Z</time>
      </trkpt>
      <trkpt lat="-24.6895990" lon="-53.7582510">
        <ele>536.0</ele>
        <time>2018-09-15T20:01:09Z</time>
      </trkpt>
      <trkpt lat="-24.6895980" lon="-53.7582190">
        <ele>536.0</ele>
        <time>2018-09-15T20:01:10Z</time>
      </trkpt>
      <trkpt lat="-24.6895970" lon="-53.7581870">
        <ele>536.0</ele>
        <time>2018-09-15T20:01:11Z</time>
      </trkpt>
      <trkpt lat="-24.6895940" lon="-53.7581550">
        <ele>536.0</ele>
        <time>2018-09-15T20:01:12Z</time>
      </trkpt>
      <trkpt lat="-24.6895910" lon="-53.7581220">
        <ele>536.1</ele>
        <time>2018-09-15T20:01:13Z</time>
      </trkpt>
      <trkpt lat="-24.6895880" lon="-53.7580900">
        <ele>536.1</ele>
        <time>2018-09-15T20:01:14Z</time>
      </trkpt>
      <trkpt lat="-24.6895850" lon="-53.7580580">
        <ele>536.1</ele>
        <time>2018-09-15T20:01:15Z</time>
      </trkpt>
      <trkpt lat="-24.6895820" lon="-53.7580260">
        <ele>536.1</ele>
        <time>2018-09-15T20:01:16Z</time>
      </trkpt>
      <trkpt lat="-24.6895810" lon="-53.7579920">
        <ele>536.2</ele>
        <time>2018-09-15T20:01:17Z</time>
      </trkpt>
      <trkpt lat="-24.6895790" lon="-53.7579580">
        <ele>536.2</ele>
        <time>2018-09-15T20:01:18Z</time>
      </trkpt>
      <trkpt lat="-24.6895760" lon="-53.7579230">
        <ele>536.2</ele>
        <time>2018-09-15T20:01:19Z</time>
      </trkpt>
      <trkpt lat="-24.6895720" lon="-53.7578890">
        <ele>536.2</ele>
        <time>2018-09-15T20:01:20Z</time>
      </trkpt>
      <trkpt lat="-24.6895690" lon="-53.7578550">
        <ele>536.3</ele>
        <time>2018-09-15T20:01:21Z</time>
      </trkpt>
      <trkpt lat="-24.6895670" lon="-53.7578220">
        <ele>536.3</ele>
        <time>2018-09-15T20:01:22Z</time>
      </trkpt>
      <trkpt lat="-24.6895670" lon="-53.7577890">
        <ele>536.3</ele>
        <time>2018-09-15T20:01:23Z</time>
      </trkpt>
      <trkpt lat="-24.6895680" lon="-53.7577560">
        <ele>536.3</ele>
        <time>2018-09-15T20:01:24Z</time>
      </trkpt>
      <trkpt lat="-24.6895670" lon="-53.7577220">
        <ele>536.3</ele>
        <time>2018-09-15T20:01:25Z</time>
      </trkpt>
      <trkpt lat="-24.6895660" lon="-53.7576900">
        <ele>536.3</ele>
        <time>2018-09-15T20:01:26Z</time>
      </trkpt>
      <trkpt lat="-24.6895640" lon="-53.7576570">
        <ele>536.4</ele>
        <time>2018-09-15T20:01:27Z</time>
      </trkpt>
      <trkpt lat="-24.6895620" lon="-53.7576230">
        <ele>536.4</ele>
        <time>2018-09-15T20:01:28Z</time>
      </trkpt>
      <trkpt lat="-24.6895590" lon="-53.7575900">
        <ele>536.4</ele>
        <time>2018-09-15T20:01:29Z</time>
      </trkpt>
      <trkpt lat="-24.6895560" lon="-53.7575550">
        <ele>536.4</ele>
        <time>2018-09-15T20:01:30Z</time>
      </trkpt>
      <trkpt lat="-24.6895550" lon="-53.7575200">
        <ele>536.4</ele>
        <time>2018-09-15T20:01:31Z</time>
      </trkpt>
      <trkpt lat="-24.6895550" lon="-53.7574860">
        <ele>536.5</ele>
        <time>2018-09-15T20:01:32Z</time>
      </trkpt>
      <trkpt lat="-24.6895540" lon="-53.7574520">
        <ele>536.5</ele>
        <time>2018-09-15T20:01:33Z</time>
      </trkpt>
      <trkpt lat="-24.6895530" lon="-53.7574180">
        <ele>536.5</ele>
        <time>2018-09-15T20:01:34Z</time>
      </trkpt>
      <trkpt lat="-24.6895500" lon="-53.7573830">
        <ele>536.5</ele>
        <time>2018-09-15T20:01:35Z</time>
      </trkpt>
      <trkpt lat="-24.6895460" lon="-53.7573490">
        <ele>536.5</ele>
        <time>2018-09-15T20:01:36Z</time>
      </trkpt>
      <trkpt lat="-24.6895430" lon="-53.7573140">
        <ele>536.5</ele>
        <time>2018-09-15T20:01:37Z</time>
      </trkpt>
      <trkpt lat="-24.6895410" lon="-53.7572800">
        <ele>536.5</ele>
        <time>2018-09-15T20:01:38Z</time>
      </trkpt>
      <trkpt lat="-24.6895410" lon="-53.7572470">
        <ele>536.5</ele>
        <time>2018-09-15T20:01:39Z</time>
      </trkpt>
      <trkpt lat="-24.6895390" lon="-53.7572130">
        <ele>536.6</ele>
        <time>2018-09-15T20:01:40Z</time>
      </trkpt>
      <trkpt lat="-24.6895370" lon="-53.7571800">
        <ele>536.6</ele>
        <time>2018-09-15T20:01:41Z</time>
      </trkpt>
      <trkpt lat="-24.6895350" lon="-53.7571460">
        <ele>536.6</ele>
        <time>2018-09-15T20:01:42Z</time>
      </trkpt>
      <trkpt lat="-24.6895330" lon="-53.7571110">
        <ele>536.6</ele>
        <time>2018-09-15T20:01:43Z</time>
      </trkpt>
      <trkpt lat="-24.6895310" lon="-53.7570770">
        <ele>536.6</ele>
        <time>2018-09-15T20:01:44Z</time>
      </trkpt>
      <trkpt lat="-24.6895290" lon="-53.7570430">
        <ele>536.6</ele>
        <time>2018-09-15T20:01:45Z</time>
      </trkpt>
      <trkpt lat="-24.6895270" lon="-53.7570080">
        <ele>536.6</ele>
        <time>2018-09-15T20:01:46Z</time>
      </trkpt>
      <trkpt lat="-24.6895250" lon="-53.7569730">
        <ele>536.6</ele>
        <time>2018-09-15T20:01:47Z</time>
      </trkpt>
      <trkpt lat="-24.6895230" lon="-53.7569380">
        <ele>536.6</ele>
        <time>2018-09-15T20:01:48Z</time>
      </trkpt>
      <trkpt lat="-24.6895210" lon="-53.7569030">
        <ele>536.6</ele>
        <time>2018-09-15T20:01:49Z</time>
      </trkpt>
      <trkpt lat="-24.6895160" lon="-53.7568680">
        <ele>536.6</ele>
        <time>2018-09-15T20:01:50Z</time>
      </trkpt>
      <trkpt lat="-24.6895120" lon="-53.7568340">
        <ele>536.6</ele>
        <time>2018-09-15T20:01:51Z</time>
      </trkpt>
      <trkpt lat="-24.6895080" lon="-53.7568010">
        <ele>536.7</ele>
        <time>2018-09-15T20:01:52Z</time>
      </trkpt>
      <trkpt lat="-24.6895060" lon="-53.7567670">
        <ele>536.7</ele>
        <time>2018-09-15T20:01:53Z</time>
      </trkpt>
      <trkpt lat="-24.6895050" lon="-53.7567340">
        <ele>536.7</ele>
        <time>2018-09-15T20:01:54Z</time>
      </trkpt>
      <trkpt lat="-24.6895040" lon="-53.7567010">
        <ele>536.8</ele>
        <time>2018-09-15T20:01:55Z</time>
      </trkpt>
      <trkpt lat="-24.6895020" lon="-53.7566690">
        <ele>536.8</ele>
        <time>2018-09-15T20:01:56Z</time>
      </trkpt>
      <trkpt lat="-24.6894990" lon="-53.7566370">
        <ele>536.8</ele>
        <time>2018-09-15T20:01:57Z</time>
      </trkpt>
      <trkpt lat="-24.6894960" lon="-53.7566050">
        <ele>536.8</ele>
        <time>2018-09-15T20:01:58Z</time>
      </trkpt>
      <trkpt lat="-24.6894940" lon="-53.7565720">
        <ele>536.8</ele>
        <time>2018-09-15T20:01:59Z</time>
      </trkpt>
      <trkpt lat="-24.6894920" lon="-53.7565400">
        <ele>536.9</ele>
        <time>2018-09-15T20:02:00Z</time>
      </trkpt>
      <trkpt lat="-24.6894910" lon="-53.7565090">
        <ele>536.9</ele>
        <time>2018-09-15T20:02:01Z</time>
      </trkpt>
      <trkpt lat="-24.6894910" lon="-53.7564780">
        <ele>536.9</ele>
        <time>2018-09-15T20:02:02Z</time>
      </trkpt>
      <trkpt lat="-24.6894890" lon="-53.7564480">
        <ele>536.9</ele>
        <time>2018-09-15T20:02:03Z</time>
      </trkpt>
      <trkpt lat="-24.6894860" lon="-53.7564180">
        <ele>536.9</ele>
        <time>2018-09-15T20:02:04Z</time>
      </trkpt>
      <trkpt lat="-24.6894840" lon="-53.7563870">
        <ele>537.0</ele>
        <time>2018-09-15T20:02:05Z</time>
      </trkpt>
      <trkpt lat="-24.6894820" lon="-53.7563560">
        <ele>537.0</ele>
        <time>2018-09-15T20:02:06Z</time>
      </trkpt>
      <trkpt lat="-24.6894810" lon="-53.7563270">
        <ele>537.0</ele>
        <time>2018-09-15T20:02:07Z</time>
      </trkpt>
      <trkpt lat="-24.6894810" lon="-53.7562980">
        <ele>537.0</ele>
        <time>2018-09-15T20:02:08Z</time>
      </trkpt>
      <trkpt lat="-24.6894820" lon="-53.7562710">
        <ele>537.0</ele>
        <time>2018-09-15T20:02:09Z</time>
      </trkpt>
      <trkpt lat="-24.6894840" lon="-53.7562460">
        <ele>537.1</ele>
        <time>2018-09-15T20:02:10Z</time>
      </trkpt>
      <trkpt lat="-24.6894860" lon="-53.7562240">
        <ele>537.1</ele>
        <time>2018-09-15T20:02:11Z</time>
      </trkpt>
      <trkpt lat="-24.6894880" lon="-53.7562010">
        <ele>537.1</ele>
        <time>2018-09-15T20:02:12Z</time>
      </trkpt>
      <trkpt lat="-24.6894890" lon="-53.7561850">
        <ele>537.1</ele>
        <time>2018-09-15T20:02:13Z</time>
      </trkpt>
      <trkpt lat="-24.6894920" lon="-53.7561780">
        <ele>537.1</ele>
        <time>2018-09-15T20:02:14Z</time>
      </trkpt>
      <trkpt lat="-24.6894960" lon="-53.7561740">
        <ele>537.1</ele>
        <time>2018-09-15T20:02:15Z</time>
      </trkpt>
      <trkpt lat="-24.6895030" lon="-53.7561700">
        <ele>537.1</ele>
        <time>2018-09-15T20:02:16Z</time>
      </trkpt>
      <trkpt lat="-24.6895130" lon="-53.7561690">
        <ele>537.1</ele>
        <time>2018-09-15T20:02:17Z</time>
      </trkpt>
      <trkpt lat="-24.6895270" lon="-53.7561670">
        <ele>537.1</ele>
        <time>2018-09-15T20:02:18Z</time>
      </trkpt>
      <trkpt lat="-24.6895380" lon="-53.7561660">
        <ele>537.1</ele>
        <time>2018-09-15T20:02:19Z</time>
      </trkpt>
      <trkpt lat="-24.6895440" lon="-53.7561650">
        <ele>537.1</ele>
        <time>2018-09-15T20:02:20Z</time>
      </trkpt>
      <trkpt lat="-24.6895460" lon="-53.7561650">
        <ele>537.1</ele>
        <time>2018-09-15T20:02:21Z</time>
      </trkpt>
      <trkpt lat="-24.6895510" lon="-53.7561650">
        <ele>537.1</ele>
        <time>2018-09-15T20:02:22Z</time>
      </trkpt>
      <trkpt lat="-24.6895570" lon="-53.7561670">
        <ele>537.1</ele>
        <time>2018-09-15T20:02:23Z</time>
      </trkpt>
      <trkpt lat="-24.6895630" lon="-53.7561670">
        <ele>537.1</ele>
        <time>2018-09-15T20:02:24Z</time>
      </trkpt>
      <trkpt lat="-24.6895740" lon="-53.7561600">
        <ele>537.1</ele>
        <time>2018-09-15T20:02:25Z</time>
      </trkpt>
      <trkpt lat="-24.6895900" lon="-53.7561480">
        <ele>537.2</ele>
        <time>2018-09-15T20:02:26Z</time>
      </trkpt>
      <trkpt lat="-24.6896060" lon="-53.7561290">
        <ele>537.2</ele>
        <time>2018-09-15T20:02:27Z</time>
      </trkpt>
      <trkpt lat="-24.6896200" lon="-53.7561090">
        <ele>537.2</ele>
        <time>2018-09-15T20:02:28Z</time>
      </trkpt>
      <trkpt lat="-24.6896380" lon="-53.7560910">
        <ele>537.2</ele>
        <time>2018-09-15T20:02:29Z</time>
      </trkpt>
      <trkpt lat="-24.6896680" lon="-53.7560740">
        <ele>537.2</ele>
        <time>2018-09-15T20:02:30Z</time>
      </trkpt>
      <trkpt lat="-24.6897100" lon="-53.7560680">
        <ele>537.2</ele>
        <time>2018-09-15T20:02:31Z</time>
      </trkpt>
      <trkpt lat="-24.6897490" lon="-53.7560710">
        <ele>536.5</ele>
        <time>2018-09-15T20:02:32Z</time>
      </trkpt>
      <trkpt lat="-24.6897850" lon="-53.7560760">
        <ele>535.7</ele>
        <time>2018-09-15T20:02:33Z</time>
      </trkpt>
      <trkpt lat="-24.6898240" lon="-53.7560810">
        <ele>535.0</ele>
        <time>2018-09-15T20:02:34Z</time>
      </trkpt>
      <trkpt lat="-24.6898640" lon="-53.7560840">
        <ele>534.3</ele>
        <time>2018-09-15T20:02:35Z</time>
      </trkpt>
      <trkpt lat="-24.6899060" lon="-53.7560860">
        <ele>533.7</ele>
        <time>2018-09-15T20:02:36Z</time>
      </trkpt>
      <trkpt lat="-24.6899540" lon="-53.7560880">
        <ele>533.7</ele>
        <time>2018-09-15T20:02:37Z</time>
      </trkpt>
      <trkpt lat="-24.6900050" lon="-53.7560880">
        <ele>533.6</ele>
        <time>2018-09-15T20:02:38Z</time>
      </trkpt>
      <trkpt lat="-24.6900570" lon="-53.7560840">
        <ele>533.6</ele>
        <time>2018-09-15T20:02:39Z</time>
      </trkpt>
      <trkpt lat="-24.6901110" lon="-53.7560850">
        <ele>533.5</ele>
        <time>2018-09-15T20:02:40Z</time>
      </trkpt>
      <trkpt lat="-24.6901670" lon="-53.7560890">
        <ele>533.3</ele>
        <time>2018-09-15T20:02:41Z</time>
      </trkpt>
      <trkpt lat="-24.6902190" lon="-53.7560900">
        <ele>533.2</ele>
        <time>2018-09-15T20:02:42Z</time>
      </trkpt>
      <trkpt lat="-24.6902680" lon="-53.7560930">
        <ele>533.1</ele>
        <time>2018-09-15T20:02:43Z</time>
      </trkpt>
      <trkpt lat="-24.6903170" lon="-53.7560970">
        <ele>532.9</ele>
        <time>2018-09-15T20:02:44Z</time>
      </trkpt>
      <trkpt lat="-24.6903530" lon="-53.7560980">
        <ele>532.8</ele>
        <time>2018-09-15T20:02:45Z</time>
      </trkpt>
      <trkpt lat="-24.6903730" lon="-53.7560920">
        <ele>532.8</ele>
        <time>2018-09-15T20:02:46Z</time>
      </trkpt>
      <trkpt lat="-24.6903800" lon="-53.7560770">
        <ele>532.7</ele>
        <time>2018-09-15T20:02:47Z</time>
      </trkpt>
      <trkpt lat="-24.6903730" lon="-53.7560550">
        <ele>532.6</ele>
        <time>2018-09-15T20:02:48Z</time>
      </trkpt>
      <trkpt lat="-24.6903690" lon="-53.7560190">
        <ele>532.5</ele>
        <time>2018-09-15T20:02:49Z</time>
      </trkpt>
      <trkpt lat="-24.6903840" lon="-53.7559890">
        <ele>532.4</ele>
        <time>2018-09-15T20:02:50Z</time>
      </trkpt>
      <trkpt lat="-24.6904140" lon="-53.7559810">
        <ele>532.3</ele>
        <time>2018-09-15T20:02:51Z</time>
      </trkpt>
      <trkpt lat="-24.6904470" lon="-53.7559830">
        <ele>532.2</ele>
        <time>2018-09-15T20:02:52Z</time>
      </trkpt>
      <trkpt lat="-24.6904830" lon="-53.7559860">
        <ele>532.1</ele>
        <time>2018-09-15T20:02:53Z</time>
      </trkpt>
      <trkpt lat="-24.6905210" lon="-53.7559860">
        <ele>532.0</ele>
        <time>2018-09-15T20:02:54Z</time>
      </trkpt>
      <trkpt lat="-24.6905610" lon="-53.7559880">
        <ele>531.8</ele>
        <time>2018-09-15T20:02:55Z</time>
      </trkpt>
      <trkpt lat="-24.6906050" lon="-53.7559890">
        <ele>531.7</ele>
        <time>2018-09-15T20:02:56Z</time>
      </trkpt>
      <trkpt lat="-24.6906500" lon="-53.7559900">
        <ele>531.5</ele>
        <time>2018-09-15T20:02:57Z</time>
      </trkpt>
      <trkpt lat="-24.6906980" lon="-53.7559900">
        <ele>531.3</ele>
        <time>2018-09-15T20:02:58Z</time>
      </trkpt>
      <trkpt lat="-24.6907990" lon="-53.7559900">
        <ele>530.9</ele>
        <time>2018-09-15T20:02:59Z</time>
      </trkpt>
      <trkpt lat="-24.6908510" lon="-53.7559920">
        <ele>530.7</ele>
        <time>2018-09-15T20:03:01Z</time>
      </trkpt>
      <trkpt lat="-24.6909050" lon="-53.7559940">
        <ele>530.5</ele>
        <time>2018-09-15T20:03:02Z</time>
      </trkpt>
      <trkpt lat="-24.6909610" lon="-53.7559940">
        <ele>530.2</ele>
        <time>2018-09-15T20:03:03Z</time>
      </trkpt>
      <trkpt lat="-24.6910180" lon="-53.7559960">
        <ele>530.0</ele>
        <time>2018-09-15T20:03:04Z</time>
      </trkpt>
      <trkpt lat="-24.6910790" lon="-53.7559990">
        <ele>529.7</ele>
        <time>2018-09-15T20:03:05Z</time>
      </trkpt>
      <trkpt lat="-24.6911420" lon="-53.7560020">
        <ele>529.3</ele>
        <time>2018-09-15T20:03:06Z</time>
      </trkpt>
      <trkpt lat="-24.6912090" lon="-53.7560040">
        <ele>529.0</ele>
        <time>2018-09-15T20:03:07Z</time>
      </trkpt>
      <trkpt lat="-24.6912790" lon="-53.7560070">
        <ele>528.6</ele>
        <time>2018-09-15T20:03:08Z</time>
      </trkpt>
      <trkpt lat="-24.6913530" lon="-53.7560110">
        <ele>528.2</ele>
        <time>2018-09-15T20:03:09Z</time>
      </trkpt>
      <trkpt lat="-24.6914300" lon="-53.7560140">
        <ele>527.8</ele>
        <time>2018-09-15T20:03:10Z</time>
      </trkpt>
      <trkpt lat="-24.6915080" lon="-53.7560180">
        <ele>527.3</ele>
        <time>2018-09-15T20:03:11Z</time>
      </trkpt>
      <trkpt lat="-24.6915900" lon="-53.7560220">
        <ele>526.8</ele>
        <time>2018-09-15T20:03:12Z</time>
      </trkpt>
      <trkpt lat="-24.6916750" lon="-53.7560240">
        <ele>526.2</ele>
        <time>2018-09-15T20:03:13Z</time>
      </trkpt>
      <trkpt lat="-24.6917650" lon="-53.7560250">
        <ele>525.6</ele>
        <time>2018-09-15T20:03:14Z</time>
      </trkpt>
      <trkpt lat="-24.6918580" lon="-53.7560260">
        <ele>524.9</ele>
        <time>2018-09-15T20:03:15Z</time>
      </trkpt>
      <trkpt lat="-24.6919540" lon="-53.7560270">
        <ele>524.2</ele>
        <time>2018-09-15T20:03:16Z</time>
      </trkpt>
      <trkpt lat="-24.6920510" lon="-53.7560290">
        <ele>523.4</ele>
        <time>2018-09-15T20:03:17Z</time>
      </trkpt>
      <trkpt lat="-24.6921500" lon="-53.7560310">
        <ele>522.9</ele>
        <time>2018-09-15T20:03:18Z</time>
      </trkpt>
      <trkpt lat="-24.6922500" lon="-53.7560340">
        <ele>522.7</ele>
        <time>2018-09-15T20:03:19Z</time>
      </trkpt>
      <trkpt lat="-24.6924020" lon="-53.7560380">
        <ele>522.4</ele>
        <time>2018-09-15T20:03:20Z</time>
      </trkpt>
      <trkpt lat="-24.6925530" lon="-53.7560430">
        <ele>522.1</ele>
        <time>2018-09-15T20:03:21Z</time>
      </trkpt>
      <trkpt lat="-24.6926530" lon="-53.7560440">
        <ele>522.0</ele>
        <time>2018-09-15T20:03:22Z</time>
      </trkpt>
      <trkpt lat="-24.6928480" lon="-53.7560490">
        <ele>522.0</ele>
        <time>2018-09-15T20:03:24Z</time>
      </trkpt>
      <trkpt lat="-24.6929440" lon="-53.7560510">
        <ele>522.1</ele>
        <time>2018-09-15T20:03:25Z</time>
      </trkpt>
      <trkpt lat="-24.6930380" lon="-53.7560530">
        <ele>522.2</ele>
        <time>2018-09-15T20:03:26Z</time>
      </trkpt>
      <trkpt lat="-24.6931310" lon="-53.7560560">
        <ele>522.3</ele>
        <time>2018-09-15T20:03:27Z</time>
      </trkpt>
      <trkpt lat="-24.6932250" lon="-53.7560600">
        <ele>522.4</ele>
        <time>2018-09-15T20:03:28Z</time>
      </trkpt>
      <trkpt lat="-24.6933180" lon="-53.7560620">
        <ele>522.5</ele>
        <time>2018-09-15T20:03:29Z</time>
      </trkpt>
      <trkpt lat="-24.6934100" lon="-53.7560590">
        <ele>522.7</ele>
        <time>2018-09-15T20:03:30Z</time>
      </trkpt>
      <trkpt lat="-24.6935010" lon="-53.7560520">
        <ele>522.8</ele>
        <time>2018-09-15T20:03:31Z</time>
      </trkpt>
      <trkpt lat="-24.6935900" lon="-53.7560440">
        <ele>522.9</ele>
        <time>2018-09-15T20:03:32Z</time>
      </trkpt>
      <trkpt lat="-24.6936750" lon="-53.7560340">
        <ele>523.0</ele>
        <time>2018-09-15T20:03:33Z</time>
      </trkpt>
      <trkpt lat="-24.6937590" lon="-53.7560280">
        <ele>523.0</ele>
        <time>2018-09-15T20:03:34Z</time>
      </trkpt>
      <trkpt lat="-24.6938420" lon="-53.7560250">
        <ele>523.0</ele>
        <time>2018-09-15T20:03:35Z</time>
      </trkpt>
      <trkpt lat="-24.6939210" lon="-53.7560150">
        <ele>523.0</ele>
        <time>2018-09-15T20:03:36Z</time>
      </trkpt>
      <trkpt lat="-24.6939950" lon="-53.7559910">
        <ele>523.0</ele>
        <time>2018-09-15T20:03:37Z</time>
      </trkpt>
      <trkpt lat="-24.6940640" lon="-53.7559570">
        <ele>523.0</ele>
        <time>2018-09-15T20:03:38Z</time>
      </trkpt>
      <trkpt lat="-24.6941310" lon="-53.7559230">
        <ele>523.1</ele>
        <time>2018-09-15T20:03:39Z</time>
      </trkpt>
      <trkpt lat="-24.6941990" lon="-53.7558990">
        <ele>523.3</ele>
        <time>2018-09-15T20:03:40Z</time>
      </trkpt>
      <trkpt lat="-24.6942700" lon="-53.7558860">
        <ele>523.4</ele>
        <time>2018-09-15T20:03:41Z</time>
      </trkpt>
      <trkpt lat="-24.6943400" lon="-53.7558810">
        <ele>523.6</ele>
        <time>2018-09-15T20:03:42Z</time>
      </trkpt>
      <trkpt lat="-24.6944750" lon="-53.7558790">
        <ele>523.8</ele>
        <time>2018-09-15T20:03:44Z</time>
      </trkpt>
      <trkpt lat="-24.6945430" lon="-53.7558770">
        <ele>523.8</ele>
        <time>2018-09-15T20:03:45Z</time>
      </trkpt>
      <trkpt lat="-24.6946140" lon="-53.7558780">
        <ele>523.9</ele>
        <time>2018-09-15T20:03:46Z</time>
      </trkpt>
      <trkpt lat="-24.6946840" lon="-53.7558790">
        <ele>524.0</ele>
        <time>2018-09-15T20:03:47Z</time>
      </trkpt>
      <trkpt lat="-24.6947530" lon="-53.7558790">
        <ele>524.0</ele>
        <time>2018-09-15T20:03:48Z</time>
      </trkpt>
      <trkpt lat="-24.6948190" lon="-53.7558790">
        <ele>523.9</ele>
        <time>2018-09-15T20:03:49Z</time>
      </trkpt>
      <trkpt lat="-24.6948740" lon="-53.7558800">
        <ele>523.8</ele>
        <time>2018-09-15T20:03:50Z</time>
      </trkpt>
      <trkpt lat="-24.6949200" lon="-53.7558800">
        <ele>523.8</ele>
        <time>2018-09-15T20:03:51Z</time>
      </trkpt>
      <trkpt lat="-24.6949620" lon="-53.7558770">
        <ele>523.7</ele>
        <time>2018-09-15T20:03:52Z</time>
      </trkpt>
      <trkpt lat="-24.6950020" lon="-53.7558660">
        <ele>523.6</ele>
        <time>2018-09-15T20:03:53Z</time>
      </trkpt>
      <trkpt lat="-24.6950390" lon="-53.7558520">
        <ele>523.6</ele>
        <time>2018-09-15T20:03:54Z</time>
      </trkpt>
      <trkpt lat="-24.6950390" lon="-53.7558520">
        <ele>523.6</ele>
        <time>2018-09-15T20:03:55Z</time>
      </trkpt>
      <trkpt lat="-24.6950760" lon="-53.7558450">
        <ele>523.5</ele>
        <time>2018-09-15T20:03:56Z</time>
      </trkpt>
      <trkpt lat="-24.6951170" lon="-53.7558440">
        <ele>523.4</ele>
        <time>2018-09-15T20:03:57Z</time>
      </trkpt>
      <trkpt lat="-24.6952070" lon="-53.7558470">
        <ele>523.2</ele>
        <time>2018-09-15T20:03:58Z</time>
      </trkpt>
      <trkpt lat="-24.6952550" lon="-53.7558480">
        <ele>523.0</ele>
        <time>2018-09-15T20:03:59Z</time>
      </trkpt>
      <trkpt lat="-24.6952550" lon="-53.7558480">
        <ele>523.0</ele>
        <time>2018-09-15T20:04:00Z</time>
      </trkpt>
      <trkpt lat="-24.6953050" lon="-53.7558480">
        <ele>523.0</ele>
        <time>2018-09-15T20:04:01Z</time>
      </trkpt>
      <trkpt lat="-24.6953550" lon="-53.7558500">
        <ele>523.0</ele>
        <time>2018-09-15T20:04:02Z</time>
      </trkpt>
      <trkpt lat="-24.6954060" lon="-53.7558520">
        <ele>523.0</ele>
        <time>2018-09-15T20:04:03Z</time>
      </trkpt>
      <trkpt lat="-24.6954580" lon="-53.7558560">
        <ele>523.0</ele>
        <time>2018-09-15T20:04:04Z</time>
      </trkpt>
      <trkpt lat="-24.6955100" lon="-53.7558540">
        <ele>523.0</ele>
        <time>2018-09-15T20:04:05Z</time>
      </trkpt>
      <trkpt lat="-24.6955620" lon="-53.7558470">
        <ele>523.0</ele>
        <time>2018-09-15T20:04:06Z</time>
      </trkpt>
      <trkpt lat="-24.6956140" lon="-53.7558310">
        <ele>523.0</ele>
        <time>2018-09-15T20:04:07Z</time>
      </trkpt>
      <trkpt lat="-24.6956630" lon="-53.7558080">
        <ele>523.0</ele>
        <time>2018-09-15T20:04:08Z</time>
      </trkpt>
      <trkpt lat="-24.6957120" lon="-53.7557830">
        <ele>522.7</ele>
        <time>2018-09-15T20:04:09Z</time>
      </trkpt>
      <trkpt lat="-24.6957630" lon="-53.7557600">
        <ele>522.5</ele>
        <time>2018-09-15T20:04:10Z</time>
      </trkpt>
      <trkpt lat="-24.6958160" lon="-53.7557400">
        <ele>522.3</ele>
        <time>2018-09-15T20:04:11Z</time>
      </trkpt>
      <trkpt lat="-24.6958720" lon="-53.7557260">
        <ele>522.0</ele>
        <time>2018-09-15T20:04:12Z</time>
      </trkpt>
      <trkpt lat="-24.6959300" lon="-53.7557220">
        <ele>521.8</ele>
        <time>2018-09-15T20:04:13Z</time>
      </trkpt>
      <trkpt lat="-24.6959890" lon="-53.7557270">
        <ele>521.6</ele>
        <time>2018-09-15T20:04:14Z</time>
      </trkpt>
      <trkpt lat="-24.6960450" lon="-53.7557350">
        <ele>521.5</ele>
        <time>2018-09-15T20:04:15Z</time>
      </trkpt>
      <trkpt lat="-24.6961010" lon="-53.7557420">
        <ele>521.3</ele>
        <time>2018-09-15T20:04:16Z</time>
      </trkpt>
      <trkpt lat="-24.6961550" lon="-53.7557460">
        <ele>521.1</ele>
        <time>2018-09-15T20:04:17Z</time>
      </trkpt>
      <trkpt lat="-24.6962070" lon="-53.7557470">
        <ele>521.0</ele>
        <time>2018-09-15T20:04:18Z</time>
      </trkpt>
      <trkpt lat="-24.6962610" lon="-53.7557450">
        <ele>521.0</ele>
        <time>2018-09-15T20:04:19Z</time>
      </trkpt>
      <trkpt lat="-24.6963140" lon="-53.7557410">
        <ele>520.9</ele>
        <time>2018-09-15T20:04:20Z</time>
      </trkpt>
      <trkpt lat="-24.6963670" lon="-53.7557350">
        <ele>520.9</ele>
        <time>2018-09-15T20:04:21Z</time>
      </trkpt>
      <trkpt lat="-24.6964190" lon="-53.7557250">
        <ele>520.9</ele>
        <time>2018-09-15T20:04:22Z</time>
      </trkpt>
      <trkpt lat="-24.6964690" lon="-53.7557100">
        <ele>521.0</ele>
        <time>2018-09-15T20:04:23Z</time>
      </trkpt>
      <trkpt lat="-24.6965160" lon="-53.7556910">
        <ele>521.1</ele>
        <time>2018-09-15T20:04:24Z</time>
      </trkpt>
      <trkpt lat="-24.6965620" lon="-53.7556680">
        <ele>521.4</ele>
        <time>2018-09-15T20:04:25Z</time>
      </trkpt>
      <trkpt lat="-24.6966050" lon="-53.7556410">
        <ele>521.6</ele>
        <time>2018-09-15T20:04:26Z</time>
      </trkpt>
      <trkpt lat="-24.6966460" lon="-53.7556120">
        <ele>521.9</ele>
        <time>2018-09-15T20:04:27Z</time>
      </trkpt>
      <trkpt lat="-24.6966820" lon="-53.7555800">
        <ele>522.1</ele>
        <time>2018-09-15T20:04:28Z</time>
      </trkpt>
      <trkpt lat="-24.6967140" lon="-53.7555470">
        <ele>522.4</ele>
        <time>2018-09-15T20:04:29Z</time>
      </trkpt>
      <trkpt lat="-24.6967450" lon="-53.7555160">
        <ele>522.6</ele>
        <time>2018-09-15T20:04:30Z</time>
      </trkpt>
      <trkpt lat="-24.6967740" lon="-53.7554870">
        <ele>522.8</ele>
        <time>2018-09-15T20:04:31Z</time>
      </trkpt>
      <trkpt lat="-24.6968020" lon="-53.7554600">
        <ele>523.1</ele>
        <time>2018-09-15T20:04:32Z</time>
      </trkpt>
      <trkpt lat="-24.6968270" lon="-53.7554350">
        <ele>523.4</ele>
        <time>2018-09-15T20:04:33Z</time>
      </trkpt>
      <trkpt lat="-24.6968490" lon="-53.7554120">
        <ele>523.6</ele>
        <time>2018-09-15T20:04:34Z</time>
      </trkpt>
      <trkpt lat="-24.6968680" lon="-53.7553920">
        <ele>523.9</ele>
        <time>2018-09-15T20:04:35Z</time>
      </trkpt>
      <trkpt lat="-24.6968850" lon="-53.7553740">
        <ele>524.1</ele>
        <time>2018-09-15T20:04:36Z</time>
      </trkpt>
      <trkpt lat="-24.6969020" lon="-53.7553600">
        <ele>524.3</ele>
        <time>2018-09-15T20:04:37Z</time>
      </trkpt>
      <trkpt lat="-24.6969150" lon="-53.7553440">
        <ele>524.4</ele>
        <time>2018-09-15T20:04:38Z</time>
      </trkpt>
      <trkpt lat="-24.6969290" lon="-53.7553300">
        <ele>524.6</ele>
        <time>2018-09-15T20:04:39Z</time>
      </trkpt>
      <trkpt lat="-24.6969430" lon="-53.7553160">
        <ele>524.8</ele>
        <time>2018-09-15T20:04:40Z</time>
      </trkpt>
      <trkpt lat="-24.6969580" lon="-53.7553040">
        <ele>525.0</ele>
        <time>2018-09-15T20:04:41Z</time>
      </trkpt>
      <trkpt lat="-24.6969750" lon="-53.7552940">
        <ele>525.1</ele>
        <time>2018-09-15T20:04:42Z</time>
      </trkpt>
      <trkpt lat="-24.6969910" lon="-53.7552790">
        <ele>525.3</ele>
        <time>2018-09-15T20:04:43Z</time>
      </trkpt>
      <trkpt lat="-24.6970050" lon="-53.7552630">
        <ele>525.5</ele>
        <time>2018-09-15T20:04:44Z</time>
      </trkpt>
      <trkpt lat="-24.6970190" lon="-53.7552480">
        <ele>525.7</ele>
        <time>2018-09-15T20:04:45Z</time>
      </trkpt>
      <trkpt lat="-24.6970340" lon="-53.7552350">
        <ele>525.8</ele>
        <time>2018-09-15T20:04:46Z</time>
      </trkpt>
      <trkpt lat="-24.6970480" lon="-53.7552230">
        <ele>526.0</ele>
        <time>2018-09-15T20:04:47Z</time>
      </trkpt>
      <trkpt lat="-24.6970610" lon="-53.7552100">
        <ele>526.2</ele>
        <time>2018-09-15T20:04:48Z</time>
      </trkpt>
      <trkpt lat="-24.6970760" lon="-53.7551980">
        <ele>526.3</ele>
        <time>2018-09-15T20:04:49Z</time>
      </trkpt>
      <trkpt lat="-24.6970900" lon="-53.7551860">
        <ele>526.4</ele>
        <time>2018-09-15T20:04:50Z</time>
      </trkpt>
      <trkpt lat="-24.6971050" lon="-53.7551740">
        <ele>526.5</ele>
        <time>2018-09-15T20:04:51Z</time>
      </trkpt>
      <trkpt lat="-24.6971180" lon="-53.7551620">
        <ele>526.6</ele>
        <time>2018-09-15T20:04:52Z</time>
      </trkpt>
      <trkpt lat="-24.6971320" lon="-53.7551490">
        <ele>526.7</ele>
        <time>2018-09-15T20:04:53Z</time>
      </trkpt>
      <trkpt lat="-24.6971450" lon="-53.7551350">
        <ele>526.8</ele>
        <time>2018-09-15T20:04:54Z</time>
      </trkpt>
      <trkpt lat="-24.6971590" lon="-53.7551200">
        <ele>527.0</ele>
        <time>2018-09-15T20:04:55Z</time>
      </trkpt>
      <trkpt lat="-24.6971710" lon="-53.7551060">
        <ele>527.1</ele>
        <time>2018-09-15T20:04:56Z</time>
      </trkpt>
      <trkpt lat="-24.6971850" lon="-53.7550920">
        <ele>527.2</ele>
        <time>2018-09-15T20:04:57Z</time>
      </trkpt>
      <trkpt lat="-24.6971990" lon="-53.7550790">
        <ele>527.3</ele>
        <time>2018-09-15T20:04:58Z</time>
      </trkpt>
      <trkpt lat="-24.6972140" lon="-53.7550670">
        <ele>527.4</ele>
        <time>2018-09-15T20:04:59Z</time>
      </trkpt>
      <trkpt lat="-24.6972300" lon="-53.7550540">
        <ele>527.6</ele>
        <time>2018-09-15T20:05:00Z</time>
      </trkpt>
      <trkpt lat="-24.6972460" lon="-53.7550410">
        <ele>527.7</ele>
        <time>2018-09-15T20:05:01Z</time>
      </trkpt>
      <trkpt lat="-24.6972620" lon="-53.7550280">
        <ele>527.8</ele>
        <time>2018-09-15T20:05:02Z</time>
      </trkpt>
      <trkpt lat="-24.6972780" lon="-53.7550140">
        <ele>527.9</ele>
        <time>2018-09-15T20:05:03Z</time>
      </trkpt>
      <trkpt lat="-24.6972950" lon="-53.7550020">
        <ele>528.1</ele>
        <time>2018-09-15T20:05:04Z</time>
      </trkpt>
      <trkpt lat="-24.6973110" lon="-53.7549890">
        <ele>528.2</ele>
        <time>2018-09-15T20:05:05Z</time>
      </trkpt>
      <trkpt lat="-24.6973260" lon="-53.7549730">
        <ele>528.3</ele>
        <time>2018-09-15T20:05:06Z</time>
      </trkpt>
      <trkpt lat="-24.6973410" lon="-53.7549580">
        <ele>528.5</ele>
        <time>2018-09-15T20:05:07Z</time>
      </trkpt>
      <trkpt lat="-24.6973540" lon="-53.7549420">
        <ele>528.6</ele>
        <time>2018-09-15T20:05:08Z</time>
      </trkpt>
      <trkpt lat="-24.6973670" lon="-53.7549240">
        <ele>528.7</ele>
        <time>2018-09-15T20:05:09Z</time>
      </trkpt>
      <trkpt lat="-24.6973800" lon="-53.7549080">
        <ele>528.9</ele>
        <time>2018-09-15T20:05:10Z</time>
      </trkpt>
      <trkpt lat="-24.6973940" lon="-53.7548940">
        <ele>529.0</ele>
        <time>2018-09-15T20:05:11Z</time>
      </trkpt>
      <trkpt lat="-24.6974080" lon="-53.7548810">
        <ele>529.2</ele>
        <time>2018-09-15T20:05:12Z</time>
      </trkpt>
      <trkpt lat="-24.6974220" lon="-53.7548670">
        <ele>529.3</ele>
        <time>2018-09-15T20:05:13Z</time>
      </trkpt>
      <trkpt lat="-24.6974380" lon="-53.7548560">
        <ele>529.5</ele>
        <time>2018-09-15T20:05:14Z</time>
      </trkpt>
      <trkpt lat="-24.6974520" lon="-53.7548410">
        <ele>529.7</ele>
        <time>2018-09-15T20:05:15Z</time>
      </trkpt>
      <trkpt lat="-24.6974660" lon="-53.7548270">
        <ele>529.9</ele>
        <time>2018-09-15T20:05:16Z</time>
      </trkpt>
      <trkpt lat="-24.6974810" lon="-53.7548140">
        <ele>530.0</ele>
        <time>2018-09-15T20:05:17Z</time>
      </trkpt>
      <trkpt lat="-24.6974950" lon="-53.7548010">
        <ele>530.2</ele>
        <time>2018-09-15T20:05:18Z</time>
      </trkpt>
      <trkpt lat="-24.6975100" lon="-53.7547890">
        <ele>530.4</ele>
        <time>2018-09-15T20:05:19Z</time>
      </trkpt>
      <trkpt lat="-24.6975250" lon="-53.7547770">
        <ele>530.5</ele>
        <time>2018-09-15T20:05:20Z</time>
      </trkpt>
      <trkpt lat="-24.6975400" lon="-53.7547650">
        <ele>530.7</ele>
        <time>2018-09-15T20:05:21Z</time>
      </trkpt>
      <trkpt lat="-24.6975530" lon="-53.7547500">
        <ele>530.9</ele>
        <time>2018-09-15T20:05:22Z</time>
      </trkpt>
      <trkpt lat="-24.6975680" lon="-53.7547370">
        <ele>531.1</ele>
        <time>2018-09-15T20:05:23Z</time>
      </trkpt>
      <trkpt lat="-24.6975850" lon="-53.7547260">
        <ele>531.2</ele>
        <time>2018-09-15T20:05:24Z</time>
      </trkpt>
      <trkpt lat="-24.6976010" lon="-53.7547130">
        <ele>531.4</ele>
        <time>2018-09-15T20:05:25Z</time>
      </trkpt>
      <trkpt lat="-24.6976150" lon="-53.7546990">
        <ele>531.6</ele>
        <time>2018-09-15T20:05:26Z</time>
      </trkpt>
      <trkpt lat="-24.6976280" lon="-53.7546840">
        <ele>531.7</ele>
        <time>2018-09-15T20:05:27Z</time>
      </trkpt>
      <trkpt lat="-24.6976420" lon="-53.7546700">
        <ele>531.8</ele>
        <time>2018-09-15T20:05:28Z</time>
      </trkpt>
      <trkpt lat="-24.6976560" lon="-53.7546560">
        <ele>531.9</ele>
        <time>2018-09-15T20:05:29Z</time>
      </trkpt>
      <trkpt lat="-24.6976710" lon="-53.7546420">
        <ele>532.1</ele>
        <time>2018-09-15T20:05:30Z</time>
      </trkpt>
      <trkpt lat="-24.6976870" lon="-53.7546280">
        <ele>532.2</ele>
        <time>2018-09-15T20:05:31Z</time>
      </trkpt>
      <trkpt lat="-24.6977030" lon="-53.7546140">
        <ele>532.3</ele>
        <time>2018-09-15T20:05:32Z</time>
      </trkpt>
      <trkpt lat="-24.6977190" lon="-53.7545990">
        <ele>532.4</ele>
        <time>2018-09-15T20:05:33Z</time>
      </trkpt>
      <trkpt lat="-24.6977340" lon="-53.7545870">
        <ele>532.5</ele>
        <time>2018-09-15T20:05:34Z</time>
      </trkpt>
      <trkpt lat="-24.6977500" lon="-53.7545740">
        <ele>532.6</ele>
        <time>2018-09-15T20:05:35Z</time>
      </trkpt>
      <trkpt lat="-24.6977650" lon="-53.7545600">
        <ele>532.7</ele>
        <time>2018-09-15T20:05:36Z</time>
      </trkpt>
      <trkpt lat="-24.6977790" lon="-53.7545460">
        <ele>532.8</ele>
        <time>2018-09-15T20:05:37Z</time>
      </trkpt>
      <trkpt lat="-24.6977920" lon="-53.7545320">
        <ele>533.0</ele>
        <time>2018-09-15T20:05:38Z</time>
      </trkpt>
      <trkpt lat="-24.6978060" lon="-53.7545190">
        <ele>533.1</ele>
        <time>2018-09-15T20:05:39Z</time>
      </trkpt>
      <trkpt lat="-24.6978170" lon="-53.7545060">
        <ele>533.2</ele>
        <time>2018-09-15T20:05:40Z</time>
      </trkpt>
      <trkpt lat="-24.6978280" lon="-53.7544920">
        <ele>533.3</ele>
        <time>2018-09-15T20:05:41Z</time>
      </trkpt>
      <trkpt lat="-24.6978420" lon="-53.7544780">
        <ele>533.4</ele>
        <time>2018-09-15T20:05:42Z</time>
      </trkpt>
      <trkpt lat="-24.6978560" lon="-53.7544630">
        <ele>533.6</ele>
        <time>2018-09-15T20:05:43Z</time>
      </trkpt>
      <trkpt lat="-24.6978700" lon="-53.7544480">
        <ele>533.7</ele>
        <time>2018-09-15T20:05:44Z</time>
      </trkpt>
      <trkpt lat="-24.6978840" lon="-53.7544330">
        <ele>533.8</ele>
        <time>2018-09-15T20:05:45Z</time>
      </trkpt>
      <trkpt lat="-24.6978970" lon="-53.7544180">
        <ele>533.9</ele>
        <time>2018-09-15T20:05:46Z</time>
      </trkpt>
      <trkpt lat="-24.6979120" lon="-53.7544040">
        <ele>534.0</ele>
        <time>2018-09-15T20:05:47Z</time>
      </trkpt>
      <trkpt lat="-24.6979270" lon="-53.7543920">
        <ele>534.1</ele>
        <time>2018-09-15T20:05:48Z</time>
      </trkpt>
      <trkpt lat="-24.6979420" lon="-53.7543770">
        <ele>534.1</ele>
        <time>2018-09-15T20:05:49Z</time>
      </trkpt>
      <trkpt lat="-24.6979570" lon="-53.7543650">
        <ele>534.2</ele>
        <time>2018-09-15T20:05:50Z</time>
      </trkpt>
      <trkpt lat="-24.6979720" lon="-53.7543520">
        <ele>534.3</ele>
        <time>2018-09-15T20:05:51Z</time>
      </trkpt>
      <trkpt lat="-24.6979840" lon="-53.7543380">
        <ele>534.3</ele>
        <time>2018-09-15T20:05:52Z</time>
      </trkpt>
      <trkpt lat="-24.6979990" lon="-53.7543260">
        <ele>534.4</ele>
        <time>2018-09-15T20:05:53Z</time>
      </trkpt>
      <trkpt lat="-24.6980130" lon="-53.7543130">
        <ele>534.5</ele>
        <time>2018-09-15T20:05:54Z</time>
      </trkpt>
      <trkpt lat="-24.6980280" lon="-53.7542990">
        <ele>534.5</ele>
        <time>2018-09-15T20:05:55Z</time>
      </trkpt>
      <trkpt lat="-24.6980430" lon="-53.7542860">
        <ele>534.6</ele>
        <time>2018-09-15T20:05:56Z</time>
      </trkpt>
      <trkpt lat="-24.6980570" lon="-53.7542720">
        <ele>534.7</ele>
        <time>2018-09-15T20:05:57Z</time>
      </trkpt>
      <trkpt lat="-24.6980730" lon="-53.7542590">
        <ele>534.8</ele>
        <time>2018-09-15T20:05:58Z</time>
      </trkpt>
      <trkpt lat="-24.6980900" lon="-53.7542460">
        <ele>534.8</ele>
        <time>2018-09-15T20:05:59Z</time>
      </trkpt>
      <trkpt lat="-24.6981070" lon="-53.7542300">
        <ele>534.9</ele>
        <time>2018-09-15T20:06:00Z</time>
      </trkpt>
      <trkpt lat="-24.6981220" lon="-53.7542130">
        <ele>535.0</ele>
        <time>2018-09-15T20:06:01Z</time>
      </trkpt>
      <trkpt lat="-24.6981380" lon="-53.7541990">
        <ele>535.0</ele>
        <time>2018-09-15T20:06:02Z</time>
      </trkpt>
      <trkpt lat="-24.6981550" lon="-53.7541850">
        <ele>535.1</ele>
        <time>2018-09-15T20:06:03Z</time>
      </trkpt>
      <trkpt lat="-24.6981710" lon="-53.7541690">
        <ele>535.2</ele>
        <time>2018-09-15T20:06:04Z</time>
      </trkpt>
      <trkpt lat="-24.6981880" lon="-53.7541540">
        <ele>535.3</ele>
        <time>2018-09-15T20:06:05Z</time>
      </trkpt>
      <trkpt lat="-24.6982040" lon="-53.7541360">
        <ele>535.3</ele>
        <time>2018-09-15T20:06:06Z</time>
      </trkpt>
      <trkpt lat="-24.6982210" lon="-53.7541200">
        <ele>535.4</ele>
        <time>2018-09-15T20:06:07Z</time>
      </trkpt>
      <trkpt lat="-24.6982380" lon="-53.7541040">
        <ele>535.5</ele>
        <time>2018-09-15T20:06:08Z</time>
      </trkpt>
      <trkpt lat="-24.6982550" lon="-53.7540880">
        <ele>535.6</ele>
        <time>2018-09-15T20:06:09Z</time>
      </trkpt>
      <trkpt lat="-24.6982710" lon="-53.7540720">
        <ele>535.7</ele>
        <time>2018-09-15T20:06:10Z</time>
      </trkpt>
      <trkpt lat="-24.6982890" lon="-53.7540550">
        <ele>535.7</ele>
        <time>2018-09-15T20:06:11Z</time>
      </trkpt>
      <trkpt lat="-24.6983040" lon="-53.7540380">
        <ele>535.8</ele>
        <time>2018-09-15T20:06:12Z</time>
      </trkpt>
      <trkpt lat="-24.6983200" lon="-53.7540230">
        <ele>535.8</ele>
        <time>2018-09-15T20:06:13Z</time>
      </trkpt>
      <trkpt lat="-24.6983360" lon="-53.7540060">
        <ele>535.9</ele>
        <time>2018-09-15T20:06:14Z</time>
      </trkpt>
      <trkpt lat="-24.6983520" lon="-53.7539890">
        <ele>535.9</ele>
        <time>2018-09-15T20:06:15Z</time>
      </trkpt>
      <trkpt lat="-24.6983690" lon="-53.7539720">
        <ele>536.0</ele>
        <time>2018-09-15T20:06:16Z</time>
      </trkpt>
      <trkpt lat="-24.6983860" lon="-53.7539580">
        <ele>536.0</ele>
        <time>2018-09-15T20:06:17Z</time>
      </trkpt>
      <trkpt lat="-24.6984020" lon="-53.7539420">
        <ele>536.1</ele>
        <time>2018-09-15T20:06:18Z</time>
      </trkpt>
      <trkpt lat="-24.6984200" lon="-53.7539260">
        <ele>536.1</ele>
        <time>2018-09-15T20:06:19Z</time>
      </trkpt>
      <trkpt lat="-24.6984380" lon="-53.7539100">
        <ele>536.2</ele>
        <time>2018-09-15T20:06:20Z</time>
      </trkpt>
      <trkpt lat="-24.6984550" lon="-53.7538940">
        <ele>536.2</ele>
        <time>2018-09-15T20:06:21Z</time>
      </trkpt>
      <trkpt lat="-24.6984720" lon="-53.7538790">
        <ele>536.3</ele>
        <time>2018-09-15T20:06:22Z</time>
      </trkpt>
      <trkpt lat="-24.6984890" lon="-53.7538610">
        <ele>536.4</ele>
        <time>2018-09-15T20:06:23Z</time>
      </trkpt>
      <trkpt lat="-24.6985070" lon="-53.7538440">
        <ele>536.4</ele>
        <time>2018-09-15T20:06:24Z</time>
      </trkpt>
      <trkpt lat="-24.6985250" lon="-53.7538270">
        <ele>536.5</ele>
        <time>2018-09-15T20:06:25Z</time>
      </trkpt>
      <trkpt lat="-24.6985430" lon="-53.7538100">
        <ele>536.6</ele>
        <time>2018-09-15T20:06:26Z</time>
      </trkpt>
      <trkpt lat="-24.6985600" lon="-53.7537930">
        <ele>536.7</ele>
        <time>2018-09-15T20:06:27Z</time>
      </trkpt>
      <trkpt lat="-24.6985780" lon="-53.7537750">
        <ele>536.8</ele>
        <time>2018-09-15T20:06:28Z</time>
      </trkpt>
      <trkpt lat="-24.6985970" lon="-53.7537590">
        <ele>536.8</ele>
        <time>2018-09-15T20:06:29Z</time>
      </trkpt>
      <trkpt lat="-24.6986140" lon="-53.7537410">
        <ele>536.9</ele>
        <time>2018-09-15T20:06:30Z</time>
      </trkpt>
      <trkpt lat="-24.6986320" lon="-53.7537240">
        <ele>536.9</ele>
        <time>2018-09-15T20:06:31Z</time>
      </trkpt>
      <trkpt lat="-24.6986520" lon="-53.7537090">
        <ele>537.0</ele>
        <time>2018-09-15T20:06:32Z</time>
      </trkpt>
      <trkpt lat="-24.6986710" lon="-53.7536940">
        <ele>537.0</ele>
        <time>2018-09-15T20:06:33Z</time>
      </trkpt>
      <trkpt lat="-24.6986900" lon="-53.7536780">
        <ele>537.1</ele>
        <time>2018-09-15T20:06:34Z</time>
      </trkpt>
      <trkpt lat="-24.6987080" lon="-53.7536600">
        <ele>537.1</ele>
        <time>2018-09-15T20:06:35Z</time>
      </trkpt>
      <trkpt lat="-24.6987260" lon="-53.7536430">
        <ele>537.2</ele>
        <time>2018-09-15T20:06:36Z</time>
      </trkpt>
      <trkpt lat="-24.6987440" lon="-53.7536280">
        <ele>537.2</ele>
        <time>2018-09-15T20:06:37Z</time>
      </trkpt>
      <trkpt lat="-24.6987620" lon="-53.7536120">
        <ele>537.3</ele>
        <time>2018-09-15T20:06:38Z</time>
      </trkpt>
      <trkpt lat="-24.6987800" lon="-53.7535950">
        <ele>537.3</ele>
        <time>2018-09-15T20:06:39Z</time>
      </trkpt>
      <trkpt lat="-24.6987970" lon="-53.7535790">
        <ele>537.4</ele>
        <time>2018-09-15T20:06:40Z</time>
      </trkpt>
      <trkpt lat="-24.6988160" lon="-53.7535630">
        <ele>537.4</ele>
        <time>2018-09-15T20:06:41Z</time>
      </trkpt>
      <trkpt lat="-24.6988340" lon="-53.7535460">
        <ele>537.5</ele>
        <time>2018-09-15T20:06:42Z</time>
      </trkpt>
      <trkpt lat="-24.6988510" lon="-53.7535280">
        <ele>537.5</ele>
        <time>2018-09-15T20:06:43Z</time>
      </trkpt>
      <trkpt lat="-24.6988690" lon="-53.7535100">
        <ele>537.6</ele>
        <time>2018-09-15T20:06:44Z</time>
      </trkpt>
      <trkpt lat="-24.6988870" lon="-53.7534930">
        <ele>537.6</ele>
        <time>2018-09-15T20:06:45Z</time>
      </trkpt>
      <trkpt lat="-24.6989050" lon="-53.7534750">
        <ele>537.7</ele>
        <time>2018-09-15T20:06:46Z</time>
      </trkpt>
      <trkpt lat="-24.6989240" lon="-53.7534560">
        <ele>537.8</ele>
        <time>2018-09-15T20:06:47Z</time>
      </trkpt>
      <trkpt lat="-24.6989430" lon="-53.7534380">
        <ele>537.9</ele>
        <time>2018-09-15T20:06:48Z</time>
      </trkpt>
      <trkpt lat="-24.6989610" lon="-53.7534210">
        <ele>537.9</ele>
        <time>2018-09-15T20:06:49Z</time>
      </trkpt>
      <trkpt lat="-24.6989780" lon="-53.7534040">
        <ele>538.0</ele>
        <time>2018-09-15T20:06:50Z</time>
      </trkpt>
      <trkpt lat="-24.6989960" lon="-53.7533880">
        <ele>538.0</ele>
        <time>2018-09-15T20:06:51Z</time>
      </trkpt>
      <trkpt lat="-24.6990150" lon="-53.7533690">
        <ele>538.1</ele>
        <time>2018-09-15T20:06:52Z</time>
      </trkpt>
      <trkpt lat="-24.6990340" lon="-53.7533500">
        <ele>538.2</ele>
        <time>2018-09-15T20:06:53Z</time>
      </trkpt>
      <trkpt lat="-24.6990550" lon="-53.7533320">
        <ele>538.2</ele>
        <time>2018-09-15T20:06:54Z</time>
      </trkpt>
      <trkpt lat="-24.6990760" lon="-53.7533130">
        <ele>538.3</ele>
        <time>2018-09-15T20:06:55Z</time>
      </trkpt>
      <trkpt lat="-24.6990980" lon="-53.7532950">
        <ele>538.3</ele>
        <time>2018-09-15T20:06:56Z</time>
      </trkpt>
      <trkpt lat="-24.6991170" lon="-53.7532750">
        <ele>538.4</ele>
        <time>2018-09-15T20:06:57Z</time>
      </trkpt>
      <trkpt lat="-24.6991370" lon="-53.7532550">
        <ele>538.5</ele>
        <time>2018-09-15T20:06:58Z</time>
      </trkpt>
      <trkpt lat="-24.6991750" lon="-53.7532160">
        <ele>538.7</ele>
        <time>2018-09-15T20:06:59Z</time>
      </trkpt>
      <trkpt lat="-24.6991950" lon="-53.7531970">
        <ele>538.8</ele>
        <time>2018-09-15T20:07:01Z</time>
      </trkpt>
      <trkpt lat="-24.6992160" lon="-53.7531800">
        <ele>538.9</ele>
        <time>2018-09-15T20:07:02Z</time>
      </trkpt>
      <trkpt lat="-24.6992380" lon="-53.7531620">
        <ele>539.0</ele>
        <time>2018-09-15T20:07:03Z</time>
      </trkpt>
      <trkpt lat="-24.6992570" lon="-53.7531420">
        <ele>539.1</ele>
        <time>2018-09-15T20:07:04Z</time>
      </trkpt>
      <trkpt lat="-24.6992760" lon="-53.7531230">
        <ele>539.2</ele>
        <time>2018-09-15T20:07:05Z</time>
      </trkpt>
      <trkpt lat="-24.6992950" lon="-53.7531040">
        <ele>539.3</ele>
        <time>2018-09-15T20:07:06Z</time>
      </trkpt>
      <trkpt lat="-24.6993150" lon="-53.7530860">
        <ele>539.4</ele>
        <time>2018-09-15T20:07:07Z</time>
      </trkpt>
      <trkpt lat="-24.6993520" lon="-53.7530490">
        <ele>539.6</ele>
        <time>2018-09-15T20:07:08Z</time>
      </trkpt>
      <trkpt lat="-24.6993710" lon="-53.7530310">
        <ele>539.7</ele>
        <time>2018-09-15T20:07:09Z</time>
      </trkpt>
      <trkpt lat="-24.6993890" lon="-53.7530110">
        <ele>539.9</ele>
        <time>2018-09-15T20:07:10Z</time>
      </trkpt>
      <trkpt lat="-24.6994070" lon="-53.7529920">
        <ele>539.9</ele>
        <time>2018-09-15T20:07:11Z</time>
      </trkpt>
      <trkpt lat="-24.6994260" lon="-53.7529720">
        <ele>540.0</ele>
        <time>2018-09-15T20:07:12Z</time>
      </trkpt>
      <trkpt lat="-24.6994460" lon="-53.7529540">
        <ele>540.0</ele>
        <time>2018-09-15T20:07:13Z</time>
      </trkpt>
      <trkpt lat="-24.6994660" lon="-53.7529370">
        <ele>540.1</ele>
        <time>2018-09-15T20:07:14Z</time>
      </trkpt>
      <trkpt lat="-24.6994860" lon="-53.7529190">
        <ele>540.1</ele>
        <time>2018-09-15T20:07:15Z</time>
      </trkpt>
      <trkpt lat="-24.6995070" lon="-53.7529010">
        <ele>540.2</ele>
        <time>2018-09-15T20:07:16Z</time>
      </trkpt>
      <trkpt lat="-24.6995270" lon="-53.7528820">
        <ele>540.2</ele>
        <time>2018-09-15T20:07:17Z</time>
      </trkpt>
      <trkpt lat="-24.6995470" lon="-53.7528630">
        <ele>540.3</ele>
        <time>2018-09-15T20:07:18Z</time>
      </trkpt>
      <trkpt lat="-24.6995880" lon="-53.7528250">
        <ele>540.4</ele>
        <time>2018-09-15T20:07:20Z</time>
      </trkpt>
      <trkpt lat="-24.6996080" lon="-53.7528060">
        <ele>540.4</ele>
        <time>2018-09-15T20:07:21Z</time>
      </trkpt>
      <trkpt lat="-24.6996290" lon="-53.7527880">
        <ele>540.5</ele>
        <time>2018-09-15T20:07:22Z</time>
      </trkpt>
      <trkpt lat="-24.6996500" lon="-53.7527690">
        <ele>540.6</ele>
        <time>2018-09-15T20:07:23Z</time>
      </trkpt>
      <trkpt lat="-24.6996700" lon="-53.7527480">
        <ele>540.6</ele>
        <time>2018-09-15T20:07:24Z</time>
      </trkpt>
      <trkpt lat="-24.6996900" lon="-53.7527280">
        <ele>540.7</ele>
        <time>2018-09-15T20:07:25Z</time>
      </trkpt>
      <trkpt lat="-24.6997120" lon="-53.7527080">
        <ele>540.7</ele>
        <time>2018-09-15T20:07:26Z</time>
      </trkpt>
      <trkpt lat="-24.6997320" lon="-53.7526880">
        <ele>540.8</ele>
        <time>2018-09-15T20:07:27Z</time>
      </trkpt>
      <trkpt lat="-24.6997520" lon="-53.7526670">
        <ele>540.8</ele>
        <time>2018-09-15T20:07:28Z</time>
      </trkpt>
      <trkpt lat="-24.6997720" lon="-53.7526460">
        <ele>540.9</ele>
        <time>2018-09-15T20:07:29Z</time>
      </trkpt>
      <trkpt lat="-24.6997930" lon="-53.7526260">
        <ele>540.9</ele>
        <time>2018-09-15T20:07:30Z</time>
      </trkpt>
      <trkpt lat="-24.6998140" lon="-53.7526060">
        <ele>541.0</ele>
        <time>2018-09-15T20:07:31Z</time>
      </trkpt>
      <trkpt lat="-24.6998350" lon="-53.7525860">
        <ele>541.0</ele>
        <time>2018-09-15T20:07:32Z</time>
      </trkpt>
      <trkpt lat="-24.6998550" lon="-53.7525650">
        <ele>541.1</ele>
        <time>2018-09-15T20:07:33Z</time>
      </trkpt>
      <trkpt lat="-24.6998770" lon="-53.7525460">
        <ele>541.1</ele>
        <time>2018-09-15T20:07:34Z</time>
      </trkpt>
      <trkpt lat="-24.6999000" lon="-53.7525270">
        <ele>541.2</ele>
        <time>2018-09-15T20:07:35Z</time>
      </trkpt>
      <trkpt lat="-24.6999220" lon="-53.7525070">
        <ele>541.2</ele>
        <time>2018-09-15T20:07:36Z</time>
      </trkpt>
      <trkpt lat="-24.6999440" lon="-53.7524860">
        <ele>541.3</ele>
        <time>2018-09-15T20:07:37Z</time>
      </trkpt>
      <trkpt lat="-24.6999670" lon="-53.7524650">
        <ele>541.3</ele>
        <time>2018-09-15T20:07:38Z</time>
      </trkpt>
      <trkpt lat="-24.6999900" lon="-53.7524440">
        <ele>541.4</ele>
        <time>2018-09-15T20:07:39Z</time>
      </trkpt>
      <trkpt lat="-24.7000140" lon="-53.7524220">
        <ele>541.5</ele>
        <time>2018-09-15T20:07:40Z</time>
      </trkpt>
      <trkpt lat="-24.7000380" lon="-53.7524000">
        <ele>541.5</ele>
        <time>2018-09-15T20:07:41Z</time>
      </trkpt>
      <trkpt lat="-24.7000620" lon="-53.7523770">
        <ele>541.6</ele>
        <time>2018-09-15T20:07:42Z</time>
      </trkpt>
      <trkpt lat="-24.7000850" lon="-53.7523520">
        <ele>541.7</ele>
        <time>2018-09-15T20:07:43Z</time>
      </trkpt>
      <trkpt lat="-24.7000850" lon="-53.7523520">
        <ele>541.7</ele>
        <time>2018-09-15T20:07:44Z</time>
      </trkpt>
      <trkpt lat="-24.7001090" lon="-53.7523290">
        <ele>541.7</ele>
        <time>2018-09-15T20:07:45Z</time>
      </trkpt>
      <trkpt lat="-24.7001330" lon="-53.7523060">
        <ele>541.8</ele>
        <time>2018-09-15T20:07:46Z</time>
      </trkpt>
      <trkpt lat="-24.7001570" lon="-53.7522820">
        <ele>541.9</ele>
        <time>2018-09-15T20:07:47Z</time>
      </trkpt>
      <trkpt lat="-24.7001810" lon="-53.7522590">
        <ele>541.9</ele>
        <time>2018-09-15T20:07:48Z</time>
      </trkpt>
      <trkpt lat="-24.7002060" lon="-53.7522360">
        <ele>542.0</ele>
        <time>2018-09-15T20:07:49Z</time>
      </trkpt>
      <trkpt lat="-24.7002300" lon="-53.7522130">
        <ele>542.0</ele>
        <time>2018-09-15T20:07:50Z</time>
      </trkpt>
      <trkpt lat="-24.7002530" lon="-53.7521890">
        <ele>542.0</ele>
        <time>2018-09-15T20:07:51Z</time>
      </trkpt>
      <trkpt lat="-24.7002780" lon="-53.7521650">
        <ele>542.0</ele>
        <time>2018-09-15T20:07:52Z</time>
      </trkpt>
      <trkpt lat="-24.7003030" lon="-53.7521410">
        <ele>542.0</ele>
        <time>2018-09-15T20:07:53Z</time>
      </trkpt>
      <trkpt lat="-24.7003290" lon="-53.7521180">
        <ele>542.0</ele>
        <time>2018-09-15T20:07:54Z</time>
      </trkpt>
      <trkpt lat="-24.7003540" lon="-53.7520940">
        <ele>542.0</ele>
        <time>2018-09-15T20:07:55Z</time>
      </trkpt>
      <trkpt lat="-24.7003790" lon="-53.7520700">
        <ele>542.0</ele>
        <time>2018-09-15T20:07:56Z</time>
      </trkpt>
      <trkpt lat="-24.7004040" lon="-53.7520450">
        <ele>542.0</ele>
        <time>2018-09-15T20:07:57Z</time>
      </trkpt>
      <trkpt lat="-24.7004290" lon="-53.7520190">
        <ele>542.0</ele>
        <time>2018-09-15T20:07:58Z</time>
      </trkpt>
      <trkpt lat="-24.7004540" lon="-53.7519920">
        <ele>542.0</ele>
        <time>2018-09-15T20:07:59Z</time>
      </trkpt>
      <trkpt lat="-24.7004790" lon="-53.7519660">
        <ele>542.0</ele>
        <time>2018-09-15T20:08:00Z</time>
      </trkpt>
      <trkpt lat="-24.7005050" lon="-53.7519390">
        <ele>542.0</ele>
        <time>2018-09-15T20:08:01Z</time>
      </trkpt>
      <trkpt lat="-24.7005330" lon="-53.7519130">
        <ele>542.0</ele>
        <time>2018-09-15T20:08:02Z</time>
      </trkpt>
      <trkpt lat="-24.7005620" lon="-53.7518880">
        <ele>542.0</ele>
        <time>2018-09-15T20:08:03Z</time>
      </trkpt>
      <trkpt lat="-24.7005900" lon="-53.7518630">
        <ele>542.0</ele>
        <time>2018-09-15T20:08:04Z</time>
      </trkpt>
      <trkpt lat="-24.7006170" lon="-53.7518360">
        <ele>542.0</ele>
        <time>2018-09-15T20:08:05Z</time>
      </trkpt>
      <trkpt lat="-24.7006430" lon="-53.7518100">
        <ele>542.0</ele>
        <time>2018-09-15T20:08:06Z</time>
      </trkpt>
      <trkpt lat="-24.7006660" lon="-53.7517890">
        <ele>542.1</ele>
        <time>2018-09-15T20:08:07Z</time>
      </trkpt>
      <trkpt lat="-24.7006920" lon="-53.7517650">
        <ele>542.1</ele>
        <time>2018-09-15T20:08:08Z</time>
      </trkpt>
      <trkpt lat="-24.7007190" lon="-53.7517400">
        <ele>542.1</ele>
        <time>2018-09-15T20:08:09Z</time>
      </trkpt>
      <trkpt lat="-24.7007490" lon="-53.7517120">
        <ele>542.1</ele>
        <time>2018-09-15T20:08:10Z</time>
      </trkpt>
      <trkpt lat="-24.7007790" lon="-53.7516830">
        <ele>542.2</ele>
        <time>2018-09-15T20:08:11Z</time>
      </trkpt>
      <trkpt lat="-24.7008080" lon="-53.7516560">
        <ele>542.2</ele>
        <time>2018-09-15T20:08:12Z</time>
      </trkpt>
      <trkpt lat="-24.7008380" lon="-53.7516300">
        <ele>542.2</ele>
        <time>2018-09-15T20:08:13Z</time>
      </trkpt>
      <trkpt lat="-24.7008680" lon="-53.7516010">
        <ele>542.3</ele>
        <time>2018-09-15T20:08:14Z</time>
      </trkpt>
      <trkpt lat="-24.7008950" lon="-53.7515730">
        <ele>542.3</ele>
        <time>2018-09-15T20:08:15Z</time>
      </trkpt>
      <trkpt lat="-24.7009240" lon="-53.7515440">
        <ele>542.3</ele>
        <time>2018-09-15T20:08:16Z</time>
      </trkpt>
      <trkpt lat="-24.7009520" lon="-53.7515160">
        <ele>542.4</ele>
        <time>2018-09-15T20:08:17Z</time>
      </trkpt>
      <trkpt lat="-24.7009820" lon="-53.7514890">
        <ele>542.4</ele>
        <time>2018-09-15T20:08:18Z</time>
      </trkpt>
      <trkpt lat="-24.7010130" lon="-53.7514610">
        <ele>542.4</ele>
        <time>2018-09-15T20:08:19Z</time>
      </trkpt>
      <trkpt lat="-24.7010440" lon="-53.7514330">
        <ele>542.5</ele>
        <time>2018-09-15T20:08:20Z</time>
      </trkpt>
      <trkpt lat="-24.7010720" lon="-53.7514060">
        <ele>542.5</ele>
        <time>2018-09-15T20:08:21Z</time>
      </trkpt>
      <trkpt lat="-24.7011040" lon="-53.7513750">
        <ele>542.5</ele>
        <time>2018-09-15T20:08:22Z</time>
      </trkpt>
      <trkpt lat="-24.7011350" lon="-53.7513450">
        <ele>542.6</ele>
        <time>2018-09-15T20:08:23Z</time>
      </trkpt>
      <trkpt lat="-24.7011670" lon="-53.7513130">
        <ele>542.7</ele>
        <time>2018-09-15T20:08:24Z</time>
      </trkpt>
      <trkpt lat="-24.7012000" lon="-53.7512840">
        <ele>542.7</ele>
        <time>2018-09-15T20:08:25Z</time>
      </trkpt>
      <trkpt lat="-24.7012330" lon="-53.7512530">
        <ele>542.8</ele>
        <time>2018-09-15T20:08:26Z</time>
      </trkpt>
      <trkpt lat="-24.7012640" lon="-53.7512240">
        <ele>542.8</ele>
        <time>2018-09-15T20:08:27Z</time>
      </trkpt>
      <trkpt lat="-24.7012950" lon="-53.7511950">
        <ele>542.8</ele>
        <time>2018-09-15T20:08:28Z</time>
      </trkpt>
      <trkpt lat="-24.7013270" lon="-53.7511650">
        <ele>542.9</ele>
        <time>2018-09-15T20:08:29Z</time>
      </trkpt>
      <trkpt lat="-24.7013580" lon="-53.7511360">
        <ele>542.9</ele>
        <time>2018-09-15T20:08:30Z</time>
      </trkpt>
      <trkpt lat="-24.7013870" lon="-53.7511080">
        <ele>542.9</ele>
        <time>2018-09-15T20:08:31Z</time>
      </trkpt>
      <trkpt lat="-24.7014160" lon="-53.7510810">
        <ele>543.0</ele>
        <time>2018-09-15T20:08:32Z</time>
      </trkpt>
      <trkpt lat="-24.7014460" lon="-53.7510540">
        <ele>543.0</ele>
        <time>2018-09-15T20:08:33Z</time>
      </trkpt>
      <trkpt lat="-24.7014750" lon="-53.7510250">
        <ele>543.0</ele>
        <time>2018-09-15T20:08:34Z</time>
      </trkpt>
      <trkpt lat="-24.7015030" lon="-53.7509940">
        <ele>543.1</ele>
        <time>2018-09-15T20:08:35Z</time>
      </trkpt>
      <trkpt lat="-24.7015280" lon="-53.7509730">
        <ele>543.1</ele>
        <time>2018-09-15T20:08:36Z</time>
      </trkpt>
      <trkpt lat="-24.7015570" lon="-53.7509500">
        <ele>543.1</ele>
        <time>2018-09-15T20:08:37Z</time>
      </trkpt>
      <trkpt lat="-24.7015920" lon="-53.7509290">
        <ele>543.2</ele>
        <time>2018-09-15T20:08:38Z</time>
      </trkpt>
      <trkpt lat="-24.7016250" lon="-53.7509040">
        <ele>543.3</ele>
        <time>2018-09-15T20:08:39Z</time>
      </trkpt>
      <trkpt lat="-24.7016580" lon="-53.7508720">
        <ele>543.4</ele>
        <time>2018-09-15T20:08:40Z</time>
      </trkpt>
      <trkpt lat="-24.7016890" lon="-53.7508420">
        <ele>543.5</ele>
        <time>2018-09-15T20:08:41Z</time>
      </trkpt>
      <trkpt lat="-24.7017200" lon="-53.7508080">
        <ele>543.6</ele>
        <time>2018-09-15T20:08:42Z</time>
      </trkpt>
      <trkpt lat="-24.7017500" lon="-53.7507760">
        <ele>543.6</ele>
        <time>2018-09-15T20:08:43Z</time>
      </trkpt>
      <trkpt lat="-24.7017780" lon="-53.7507420">
        <ele>543.7</ele>
        <time>2018-09-15T20:08:44Z</time>
      </trkpt>
      <trkpt lat="-24.7018070" lon="-53.7507090">
        <ele>543.8</ele>
        <time>2018-09-15T20:08:45Z</time>
      </trkpt>
      <trkpt lat="-24.7018390" lon="-53.7506800">
        <ele>543.9</ele>
        <time>2018-09-15T20:08:46Z</time>
      </trkpt>
      <trkpt lat="-24.7018740" lon="-53.7506530">
        <ele>544.0</ele>
        <time>2018-09-15T20:08:47Z</time>
      </trkpt>
      <trkpt lat="-24.7019090" lon="-53.7506250">
        <ele>544.0</ele>
        <time>2018-09-15T20:08:48Z</time>
      </trkpt>
      <trkpt lat="-24.7019420" lon="-53.7505930">
        <ele>543.9</ele>
        <time>2018-09-15T20:08:49Z</time>
      </trkpt>
      <trkpt lat="-24.7019760" lon="-53.7505620">
        <ele>543.9</ele>
        <time>2018-09-15T20:08:50Z</time>
      </trkpt>
      <trkpt lat="-24.7020070" lon="-53.7505310">
        <ele>543.9</ele>
        <time>2018-09-15T20:08:51Z</time>
      </trkpt>
      <trkpt lat="-24.7020410" lon="-53.7505020">
        <ele>543.9</ele>
        <time>2018-09-15T20:08:52Z</time>
      </trkpt>
      <trkpt lat="-24.7020730" lon="-53.7504700">
        <ele>543.9</ele>
        <time>2018-09-15T20:08:53Z</time>
      </trkpt>
      <trkpt lat="-24.7021060" lon="-53.7504400">
        <ele>543.9</ele>
        <time>2018-09-15T20:08:54Z</time>
      </trkpt>
      <trkpt lat="-24.7021380" lon="-53.7504080">
        <ele>544.0</ele>
        <time>2018-09-15T20:08:55Z</time>
      </trkpt>
      <trkpt lat="-24.7021700" lon="-53.7503760">
        <ele>544.0</ele>
        <time>2018-09-15T20:08:56Z</time>
      </trkpt>
      <trkpt lat="-24.7022030" lon="-53.7503420">
        <ele>544.0</ele>
        <time>2018-09-15T20:08:57Z</time>
      </trkpt>
      <trkpt lat="-24.7022350" lon="-53.7503100">
        <ele>544.0</ele>
        <time>2018-09-15T20:08:58Z</time>
      </trkpt>
      <trkpt lat="-24.7022680" lon="-53.7502760">
        <ele>544.0</ele>
        <time>2018-09-15T20:08:59Z</time>
      </trkpt>
      <trkpt lat="-24.7022990" lon="-53.7502430">
        <ele>544.1</ele>
        <time>2018-09-15T20:09:00Z</time>
      </trkpt>
      <trkpt lat="-24.7023290" lon="-53.7502140">
        <ele>544.2</ele>
        <time>2018-09-15T20:09:01Z</time>
      </trkpt>
      <trkpt lat="-24.7023610" lon="-53.7501850">
        <ele>544.3</ele>
        <time>2018-09-15T20:09:02Z</time>
      </trkpt>
      <trkpt lat="-24.7023920" lon="-53.7501570">
        <ele>544.3</ele>
        <time>2018-09-15T20:09:03Z</time>
      </trkpt>
      <trkpt lat="-24.7024240" lon="-53.7501300">
        <ele>544.4</ele>
        <time>2018-09-15T20:09:04Z</time>
      </trkpt>
      <trkpt lat="-24.7024560" lon="-53.7501010">
        <ele>544.5</ele>
        <time>2018-09-15T20:09:05Z</time>
      </trkpt>
      <trkpt lat="-24.7024870" lon="-53.7500720">
        <ele>544.6</ele>
        <time>2018-09-15T20:09:06Z</time>
      </trkpt>
      <trkpt lat="-24.7025190" lon="-53.7500440">
        <ele>544.7</ele>
        <time>2018-09-15T20:09:07Z</time>
      </trkpt>
      <trkpt lat="-24.7025490" lon="-53.7500170">
        <ele>544.8</ele>
        <time>2018-09-15T20:09:08Z</time>
      </trkpt>
      <trkpt lat="-24.7025790" lon="-53.7499900">
        <ele>544.9</ele>
        <time>2018-09-15T20:09:09Z</time>
      </trkpt>
      <trkpt lat="-24.7026130" lon="-53.7499650">
        <ele>545.1</ele>
        <time>2018-09-15T20:09:10Z</time>
      </trkpt>
      <trkpt lat="-24.7026500" lon="-53.7499480">
        <ele>545.2</ele>
        <time>2018-09-15T20:09:11Z</time>
      </trkpt>
      <trkpt lat="-24.7026900" lon="-53.7499360">
        <ele>545.3</ele>
        <time>2018-09-15T20:09:12Z</time>
      </trkpt>
      <trkpt lat="-24.7027320" lon="-53.7499240">
        <ele>545.4</ele>
        <time>2018-09-15T20:09:13Z</time>
      </trkpt>
      <trkpt lat="-24.7027750" lon="-53.7499140">
        <ele>545.5</ele>
        <time>2018-09-15T20:09:14Z</time>
      </trkpt>
      <trkpt lat="-24.7028180" lon="-53.7499040">
        <ele>545.5</ele>
        <time>2018-09-15T20:09:15Z</time>
      </trkpt>
      <trkpt lat="-24.7028610" lon="-53.7498940">
        <ele>545.6</ele>
        <time>2018-09-15T20:09:16Z</time>
      </trkpt>
      <trkpt lat="-24.7029060" lon="-53.7498840">
        <ele>545.6</ele>
        <time>2018-09-15T20:09:17Z</time>
      </trkpt>
      <trkpt lat="-24.7029510" lon="-53.7498740">
        <ele>545.7</ele>
        <time>2018-09-15T20:09:18Z</time>
      </trkpt>
      <trkpt lat="-24.7029960" lon="-53.7498640">
        <ele>545.7</ele>
        <time>2018-09-15T20:09:19Z</time>
      </trkpt>
      <trkpt lat="-24.7030430" lon="-53.7498530">
        <ele>545.8</ele>
        <time>2018-09-15T20:09:20Z</time>
      </trkpt>
      <trkpt lat="-24.7030880" lon="-53.7498430">
        <ele>545.8</ele>
        <time>2018-09-15T20:09:21Z</time>
      </trkpt>
      <trkpt lat="-24.7031320" lon="-53.7498330">
        <ele>545.9</ele>
        <time>2018-09-15T20:09:22Z</time>
      </trkpt>
      <trkpt lat="-24.7031780" lon="-53.7498240">
        <ele>545.9</ele>
        <time>2018-09-15T20:09:23Z</time>
      </trkpt>
      <trkpt lat="-24.7032230" lon="-53.7498160">
        <ele>546.0</ele>
        <time>2018-09-15T20:09:24Z</time>
      </trkpt>
      <trkpt lat="-24.7032680" lon="-53.7498080">
        <ele>546.0</ele>
        <time>2018-09-15T20:09:25Z</time>
      </trkpt>
      <trkpt lat="-24.7033130" lon="-53.7497990">
        <ele>545.9</ele>
        <time>2018-09-15T20:09:26Z</time>
      </trkpt>
      <trkpt lat="-24.7033580" lon="-53.7497910">
        <ele>545.8</ele>
        <time>2018-09-15T20:09:27Z</time>
      </trkpt>
      <trkpt lat="-24.7034030" lon="-53.7497830">
        <ele>545.7</ele>
        <time>2018-09-15T20:09:28Z</time>
      </trkpt>
      <trkpt lat="-24.7034500" lon="-53.7497760">
        <ele>545.6</ele>
        <time>2018-09-15T20:09:29Z</time>
      </trkpt>
      <trkpt lat="-24.7034970" lon="-53.7497680">
        <ele>545.5</ele>
        <time>2018-09-15T20:09:30Z</time>
      </trkpt>
      <trkpt lat="-24.7035450" lon="-53.7497570">
        <ele>545.5</ele>
        <time>2018-09-15T20:09:31Z</time>
      </trkpt>
      <trkpt lat="-24.7035920" lon="-53.7497480">
        <ele>545.4</ele>
        <time>2018-09-15T20:09:32Z</time>
      </trkpt>
      <trkpt lat="-24.7036360" lon="-53.7497410">
        <ele>545.3</ele>
        <time>2018-09-15T20:09:33Z</time>
      </trkpt>
      <trkpt lat="-24.7036840" lon="-53.7497310">
        <ele>545.3</ele>
        <time>2018-09-15T20:09:34Z</time>
      </trkpt>
      <trkpt lat="-24.7037310" lon="-53.7497210">
        <ele>545.2</ele>
        <time>2018-09-15T20:09:35Z</time>
      </trkpt>
      <trkpt lat="-24.7037760" lon="-53.7497120">
        <ele>545.2</ele>
        <time>2018-09-15T20:09:36Z</time>
      </trkpt>
      <trkpt lat="-24.7038220" lon="-53.7497030">
        <ele>545.1</ele>
        <time>2018-09-15T20:09:37Z</time>
      </trkpt>
      <trkpt lat="-24.7038710" lon="-53.7496920">
        <ele>545.1</ele>
        <time>2018-09-15T20:09:38Z</time>
      </trkpt>
      <trkpt lat="-24.7039190" lon="-53.7496820">
        <ele>545.1</ele>
        <time>2018-09-15T20:09:39Z</time>
      </trkpt>
      <trkpt lat="-24.7039690" lon="-53.7496690">
        <ele>545.0</ele>
        <time>2018-09-15T20:09:40Z</time>
      </trkpt>
      <trkpt lat="-24.7040160" lon="-53.7496590">
        <ele>544.9</ele>
        <time>2018-09-15T20:09:41Z</time>
      </trkpt>
      <trkpt lat="-24.7040610" lon="-53.7496510">
        <ele>544.9</ele>
        <time>2018-09-15T20:09:42Z</time>
      </trkpt>
      <trkpt lat="-24.7041050" lon="-53.7496430">
        <ele>544.8</ele>
        <time>2018-09-15T20:09:43Z</time>
      </trkpt>
      <trkpt lat="-24.7041520" lon="-53.7496320">
        <ele>544.8</ele>
        <time>2018-09-15T20:09:44Z</time>
      </trkpt>
      <trkpt lat="-24.7041980" lon="-53.7496220">
        <ele>544.7</ele>
        <time>2018-09-15T20:09:45Z</time>
      </trkpt>
      <trkpt lat="-24.7042480" lon="-53.7496090">
        <ele>544.6</ele>
        <time>2018-09-15T20:09:46Z</time>
      </trkpt>
      <trkpt lat="-24.7042990" lon="-53.7495950">
        <ele>544.5</ele>
        <time>2018-09-15T20:09:47Z</time>
      </trkpt>
      <trkpt lat="-24.7043480" lon="-53.7495830">
        <ele>544.4</ele>
        <time>2018-09-15T20:09:48Z</time>
      </trkpt>
      <trkpt lat="-24.7043960" lon="-53.7495720">
        <ele>544.4</ele>
        <time>2018-09-15T20:09:49Z</time>
      </trkpt>
      <trkpt lat="-24.7044450" lon="-53.7495610">
        <ele>544.3</ele>
        <time>2018-09-15T20:09:50Z</time>
      </trkpt>
      <trkpt lat="-24.7044930" lon="-53.7495490">
        <ele>544.2</ele>
        <time>2018-09-15T20:09:51Z</time>
      </trkpt>
      <trkpt lat="-24.7045420" lon="-53.7495390">
        <ele>544.2</ele>
        <time>2018-09-15T20:09:52Z</time>
      </trkpt>
      <trkpt lat="-24.7045940" lon="-53.7495300">
        <ele>544.1</ele>
        <time>2018-09-15T20:09:53Z</time>
      </trkpt>
      <trkpt lat="-24.7046460" lon="-53.7495210">
        <ele>544.1</ele>
        <time>2018-09-15T20:09:54Z</time>
      </trkpt>
      <trkpt lat="-24.7046970" lon="-53.7495090">
        <ele>544.0</ele>
        <time>2018-09-15T20:09:55Z</time>
      </trkpt>
      <trkpt lat="-24.7047480" lon="-53.7494960">
        <ele>544.0</ele>
        <time>2018-09-15T20:09:56Z</time>
      </trkpt>
      <trkpt lat="-24.7047990" lon="-53.7494830">
        <ele>544.2</ele>
        <time>2018-09-15T20:09:57Z</time>
      </trkpt>
      <trkpt lat="-24.7048470" lon="-53.7494730">
        <ele>544.4</ele>
        <time>2018-09-15T20:09:58Z</time>
      </trkpt>
      <trkpt lat="-24.7048930" lon="-53.7494650">
        <ele>544.5</ele>
        <time>2018-09-15T20:09:59Z</time>
      </trkpt>
      <trkpt lat="-24.7049390" lon="-53.7494560">
        <ele>544.4</ele>
        <time>2018-09-15T20:10:00Z</time>
      </trkpt>
      <trkpt lat="-24.7049820" lon="-53.7494480">
        <ele>544.3</ele>
        <time>2018-09-15T20:10:01Z</time>
      </trkpt>
      <trkpt lat="-24.7050250" lon="-53.7494390">
        <ele>544.2</ele>
        <time>2018-09-15T20:10:02Z</time>
      </trkpt>
      <trkpt lat="-24.7050690" lon="-53.7494290">
        <ele>544.1</ele>
        <time>2018-09-15T20:10:03Z</time>
      </trkpt>
      <trkpt lat="-24.7051140" lon="-53.7494220">
        <ele>544.0</ele>
        <time>2018-09-15T20:10:04Z</time>
      </trkpt>
      <trkpt lat="-24.7051550" lon="-53.7494190">
        <ele>544.0</ele>
        <time>2018-09-15T20:10:05Z</time>
      </trkpt>
      <trkpt lat="-24.7052010" lon="-53.7494140">
        <ele>544.0</ele>
        <time>2018-09-15T20:10:06Z</time>
      </trkpt>
      <trkpt lat="-24.7052450" lon="-53.7494070">
        <ele>544.1</ele>
        <time>2018-09-15T20:10:07Z</time>
      </trkpt>
      <trkpt lat="-24.7052890" lon="-53.7493990">
        <ele>544.3</ele>
        <time>2018-09-15T20:10:08Z</time>
      </trkpt>
      <trkpt lat="-24.7053340" lon="-53.7493910">
        <ele>544.4</ele>
        <time>2018-09-15T20:10:09Z</time>
      </trkpt>
      <trkpt lat="-24.7053800" lon="-53.7493810">
        <ele>544.5</ele>
        <time>2018-09-15T20:10:10Z</time>
      </trkpt>
      <trkpt lat="-24.7054240" lon="-53.7493720">
        <ele>544.6</ele>
        <time>2018-09-15T20:10:11Z</time>
      </trkpt>
      <trkpt lat="-24.7054690" lon="-53.7493630">
        <ele>544.7</ele>
        <time>2018-09-15T20:10:12Z</time>
      </trkpt>
      <trkpt lat="-24.7055140" lon="-53.7493530">
        <ele>544.8</ele>
        <time>2018-09-15T20:10:13Z</time>
      </trkpt>
      <trkpt lat="-24.7055580" lon="-53.7493450">
        <ele>544.9</ele>
        <time>2018-09-15T20:10:14Z</time>
      </trkpt>
      <trkpt lat="-24.7056020" lon="-53.7493350">
        <ele>545.0</ele>
        <time>2018-09-15T20:10:15Z</time>
      </trkpt>
      <trkpt lat="-24.7056470" lon="-53.7493260">
        <ele>545.1</ele>
        <time>2018-09-15T20:10:16Z</time>
      </trkpt>
      <trkpt lat="-24.7056900" lon="-53.7493170">
        <ele>545.1</ele>
        <time>2018-09-15T20:10:17Z</time>
      </trkpt>
      <trkpt lat="-24.7057340" lon="-53.7493090">
        <ele>545.2</ele>
        <time>2018-09-15T20:10:18Z</time>
      </trkpt>
      <trkpt lat="-24.7057780" lon="-53.7493000">
        <ele>545.2</ele>
        <time>2018-09-15T20:10:19Z</time>
      </trkpt>
      <trkpt lat="-24.7058210" lon="-53.7492900">
        <ele>545.2</ele>
        <time>2018-09-15T20:10:20Z</time>
      </trkpt>
      <trkpt lat="-24.7058630" lon="-53.7492800">
        <ele>545.3</ele>
        <time>2018-09-15T20:10:21Z</time>
      </trkpt>
      <trkpt lat="-24.7059040" lon="-53.7492700">
        <ele>545.3</ele>
        <time>2018-09-15T20:10:22Z</time>
      </trkpt>
      <trkpt lat="-24.7059470" lon="-53.7492610">
        <ele>545.3</ele>
        <time>2018-09-15T20:10:23Z</time>
      </trkpt>
      <trkpt lat="-24.7059900" lon="-53.7492510">
        <ele>545.4</ele>
        <time>2018-09-15T20:10:24Z</time>
      </trkpt>
      <trkpt lat="-24.7060300" lon="-53.7492410">
        <ele>545.4</ele>
        <time>2018-09-15T20:10:25Z</time>
      </trkpt>
      <trkpt lat="-24.7060690" lon="-53.7492300">
        <ele>545.5</ele>
        <time>2018-09-15T20:10:26Z</time>
      </trkpt>
      <trkpt lat="-24.7061080" lon="-53.7492210">
        <ele>545.5</ele>
        <time>2018-09-15T20:10:27Z</time>
      </trkpt>
      <trkpt lat="-24.7061480" lon="-53.7492130">
        <ele>545.5</ele>
        <time>2018-09-15T20:10:28Z</time>
      </trkpt>
      <trkpt lat="-24.7061860" lon="-53.7492040">
        <ele>545.6</ele>
        <time>2018-09-15T20:10:29Z</time>
      </trkpt>
      <trkpt lat="-24.7062260" lon="-53.7491960">
        <ele>545.6</ele>
        <time>2018-09-15T20:10:30Z</time>
      </trkpt>
      <trkpt lat="-24.7062660" lon="-53.7491870">
        <ele>545.7</ele>
        <time>2018-09-15T20:10:31Z</time>
      </trkpt>
      <trkpt lat="-24.7063080" lon="-53.7491780">
        <ele>545.7</ele>
        <time>2018-09-15T20:10:32Z</time>
      </trkpt>
      <trkpt lat="-24.7063490" lon="-53.7491690">
        <ele>545.8</ele>
        <time>2018-09-15T20:10:33Z</time>
      </trkpt>
      <trkpt lat="-24.7063910" lon="-53.7491590">
        <ele>545.8</ele>
        <time>2018-09-15T20:10:34Z</time>
      </trkpt>
      <trkpt lat="-24.7064330" lon="-53.7491520">
        <ele>545.9</ele>
        <time>2018-09-15T20:10:35Z</time>
      </trkpt>
      <trkpt lat="-24.7064750" lon="-53.7491450">
        <ele>545.9</ele>
        <time>2018-09-15T20:10:36Z</time>
      </trkpt>
      <trkpt lat="-24.7065160" lon="-53.7491400">
        <ele>546.0</ele>
        <time>2018-09-15T20:10:37Z</time>
      </trkpt>
      <trkpt lat="-24.7065550" lon="-53.7491350">
        <ele>546.1</ele>
        <time>2018-09-15T20:10:38Z</time>
      </trkpt>
      <trkpt lat="-24.7065920" lon="-53.7491300">
        <ele>546.4</ele>
        <time>2018-09-15T20:10:39Z</time>
      </trkpt>
      <trkpt lat="-24.7066280" lon="-53.7491230">
        <ele>546.7</ele>
        <time>2018-09-15T20:10:40Z</time>
      </trkpt>
      <trkpt lat="-24.7066660" lon="-53.7491150">
        <ele>547.0</ele>
        <time>2018-09-15T20:10:41Z</time>
      </trkpt>
      <trkpt lat="-24.7067040" lon="-53.7491070">
        <ele>547.3</ele>
        <time>2018-09-15T20:10:42Z</time>
      </trkpt>
      <trkpt lat="-24.7067430" lon="-53.7490980">
        <ele>547.6</ele>
        <time>2018-09-15T20:10:43Z</time>
      </trkpt>
      <trkpt lat="-24.7067810" lon="-53.7490890">
        <ele>547.9</ele>
        <time>2018-09-15T20:10:44Z</time>
      </trkpt>
      <trkpt lat="-24.7068190" lon="-53.7490820">
        <ele>548.1</ele>
        <time>2018-09-15T20:10:45Z</time>
      </trkpt>
      <trkpt lat="-24.7068580" lon="-53.7490750">
        <ele>548.3</ele>
        <time>2018-09-15T20:10:46Z</time>
      </trkpt>
      <trkpt lat="-24.7068960" lon="-53.7490690">
        <ele>548.5</ele>
        <time>2018-09-15T20:10:47Z</time>
      </trkpt>
      <trkpt lat="-24.7069350" lon="-53.7490620">
        <ele>548.7</ele>
        <time>2018-09-15T20:10:48Z</time>
      </trkpt>
      <trkpt lat="-24.7069730" lon="-53.7490530">
        <ele>548.9</ele>
        <time>2018-09-15T20:10:49Z</time>
      </trkpt>
      <trkpt lat="-24.7070110" lon="-53.7490460">
        <ele>549.1</ele>
        <time>2018-09-15T20:10:50Z</time>
      </trkpt>
      <trkpt lat="-24.7070490" lon="-53.7490370">
        <ele>549.3</ele>
        <time>2018-09-15T20:10:51Z</time>
      </trkpt>
      <trkpt lat="-24.7070870" lon="-53.7490270">
        <ele>549.5</ele>
        <time>2018-09-15T20:10:52Z</time>
      </trkpt>
      <trkpt lat="-24.7071250" lon="-53.7490170">
        <ele>549.8</ele>
        <time>2018-09-15T20:10:53Z</time>
      </trkpt>
      <trkpt lat="-24.7071630" lon="-53.7490100">
        <ele>550.0</ele>
        <time>2018-09-15T20:10:54Z</time>
      </trkpt>
      <trkpt lat="-24.7072380" lon="-53.7490030">
        <ele>550.0</ele>
        <time>2018-09-15T20:10:55Z</time>
      </trkpt>
      <trkpt lat="-24.7072740" lon="-53.7489990">
        <ele>550.0</ele>
        <time>2018-09-15T20:10:56Z</time>
      </trkpt>
      <trkpt lat="-24.7073110" lon="-53.7489910">
        <ele>550.0</ele>
        <time>2018-09-15T20:10:57Z</time>
      </trkpt>
      <trkpt lat="-24.7073520" lon="-53.7489770">
        <ele>550.0</ele>
        <time>2018-09-15T20:10:58Z</time>
      </trkpt>
      <trkpt lat="-24.7073890" lon="-53.7489690">
        <ele>550.0</ele>
        <time>2018-09-15T20:10:59Z</time>
      </trkpt>
      <trkpt lat="-24.7074270" lon="-53.7489610">
        <ele>549.9</ele>
        <time>2018-09-15T20:11:00Z</time>
      </trkpt>
      <trkpt lat="-24.7074640" lon="-53.7489550">
        <ele>549.9</ele>
        <time>2018-09-15T20:11:01Z</time>
      </trkpt>
      <trkpt lat="-24.7075010" lon="-53.7489460">
        <ele>549.9</ele>
        <time>2018-09-15T20:11:02Z</time>
      </trkpt>
      <trkpt lat="-24.7075380" lon="-53.7489360">
        <ele>550.0</ele>
        <time>2018-09-15T20:11:03Z</time>
      </trkpt>
      <trkpt lat="-24.7075750" lon="-53.7489280">
        <ele>550.0</ele>
        <time>2018-09-15T20:11:04Z</time>
      </trkpt>
      <trkpt lat="-24.7076130" lon="-53.7489190">
        <ele>550.0</ele>
        <time>2018-09-15T20:11:05Z</time>
      </trkpt>
      <trkpt lat="-24.7076510" lon="-53.7489100">
        <ele>550.0</ele>
        <time>2018-09-15T20:11:06Z</time>
      </trkpt>
      <trkpt lat="-24.7076890" lon="-53.7489010">
        <ele>550.0</ele>
        <time>2018-09-15T20:11:07Z</time>
      </trkpt>
      <trkpt lat="-24.7077270" lon="-53.7488900">
        <ele>550.0</ele>
        <time>2018-09-15T20:11:08Z</time>
      </trkpt>
      <trkpt lat="-24.7077630" lon="-53.7488810">
        <ele>550.0</ele>
        <time>2018-09-15T20:11:09Z</time>
      </trkpt>
      <trkpt lat="-24.7078020" lon="-53.7488740">
        <ele>550.0</ele>
        <time>2018-09-15T20:11:10Z</time>
      </trkpt>
      <trkpt lat="-24.7078400" lon="-53.7488670">
        <ele>550.0</ele>
        <time>2018-09-15T20:11:11Z</time>
      </trkpt>
      <trkpt lat="-24.7078790" lon="-53.7488610">
        <ele>550.0</ele>
        <time>2018-09-15T20:11:12Z</time>
      </trkpt>
      <trkpt lat="-24.7079160" lon="-53.7488560">
        <ele>550.0</ele>
        <time>2018-09-15T20:11:13Z</time>
      </trkpt>
      <trkpt lat="-24.7079930" lon="-53.7488470">
        <ele>550.0</ele>
        <time>2018-09-15T20:11:15Z</time>
      </trkpt>
      <trkpt lat="-24.7080320" lon="-53.7488410">
        <ele>550.0</ele>
        <time>2018-09-15T20:11:16Z</time>
      </trkpt>
      <trkpt lat="-24.7080710" lon="-53.7488310">
        <ele>550.0</ele>
        <time>2018-09-15T20:11:17Z</time>
      </trkpt>
      <trkpt lat="-24.7081080" lon="-53.7488230">
        <ele>550.0</ele>
        <time>2018-09-15T20:11:18Z</time>
      </trkpt>
      <trkpt lat="-24.7081450" lon="-53.7488140">
        <ele>550.0</ele>
        <time>2018-09-15T20:11:19Z</time>
      </trkpt>
      <trkpt lat="-24.7081800" lon="-53.7488080">
        <ele>550.0</ele>
        <time>2018-09-15T20:11:20Z</time>
      </trkpt>
      <trkpt lat="-24.7082150" lon="-53.7488000">
        <ele>549.8</ele>
        <time>2018-09-15T20:11:21Z</time>
      </trkpt>
      <trkpt lat="-24.7082510" lon="-53.7487910">
        <ele>549.6</ele>
        <time>2018-09-15T20:11:22Z</time>
      </trkpt>
      <trkpt lat="-24.7082880" lon="-53.7487810">
        <ele>549.4</ele>
        <time>2018-09-15T20:11:23Z</time>
      </trkpt>
      <trkpt lat="-24.7083230" lon="-53.7487710">
        <ele>549.1</ele>
        <time>2018-09-15T20:11:24Z</time>
      </trkpt>
      <trkpt lat="-24.7083560" lon="-53.7487630">
        <ele>548.9</ele>
        <time>2018-09-15T20:11:25Z</time>
      </trkpt>
      <trkpt lat="-24.7083890" lon="-53.7487550">
        <ele>548.7</ele>
        <time>2018-09-15T20:11:26Z</time>
      </trkpt>
      <trkpt lat="-24.7084250" lon="-53.7487470">
        <ele>548.5</ele>
        <time>2018-09-15T20:11:27Z</time>
      </trkpt>
      <trkpt lat="-24.7084590" lon="-53.7487410">
        <ele>548.3</ele>
        <time>2018-09-15T20:11:28Z</time>
      </trkpt>
      <trkpt lat="-24.7084590" lon="-53.7487410">
        <ele>548.3</ele>
        <time>2018-09-15T20:11:29Z</time>
      </trkpt>
      <trkpt lat="-24.7084940" lon="-53.7487390">
        <ele>548.1</ele>
        <time>2018-09-15T20:11:30Z</time>
      </trkpt>
      <trkpt lat="-24.7085290" lon="-53.7487430">
        <ele>548.0</ele>
        <time>2018-09-15T20:11:31Z</time>
      </trkpt>
      <trkpt lat="-24.7085950" lon="-53.7487410">
        <ele>548.0</ele>
        <time>2018-09-15T20:11:32Z</time>
      </trkpt>
      <trkpt lat="-24.7086300" lon="-53.7487340">
        <ele>547.9</ele>
        <time>2018-09-15T20:11:33Z</time>
      </trkpt>
      <trkpt lat="-24.7086300" lon="-53.7487340">
        <ele>547.9</ele>
        <time>2018-09-15T20:11:34Z</time>
      </trkpt>
      <trkpt lat="-24.7086630" lon="-53.7487270">
        <ele>547.8</ele>
        <time>2018-09-15T20:11:35Z</time>
      </trkpt>
      <trkpt lat="-24.7087000" lon="-53.7487160">
        <ele>547.7</ele>
        <time>2018-09-15T20:11:36Z</time>
      </trkpt>
      <trkpt lat="-24.7087370" lon="-53.7487090">
        <ele>547.7</ele>
        <time>2018-09-15T20:11:37Z</time>
      </trkpt>
      <trkpt lat="-24.7087750" lon="-53.7487000">
        <ele>547.6</ele>
        <time>2018-09-15T20:11:38Z</time>
      </trkpt>
      <trkpt lat="-24.7088100" lon="-53.7486930">
        <ele>547.5</ele>
        <time>2018-09-15T20:11:39Z</time>
      </trkpt>
      <trkpt lat="-24.7088460" lon="-53.7486840">
        <ele>547.5</ele>
        <time>2018-09-15T20:11:40Z</time>
      </trkpt>
      <trkpt lat="-24.7088810" lon="-53.7486800">
        <ele>547.4</ele>
        <time>2018-09-15T20:11:41Z</time>
      </trkpt>
      <trkpt lat="-24.7089150" lon="-53.7486820">
        <ele>547.2</ele>
        <time>2018-09-15T20:11:42Z</time>
      </trkpt>
      <trkpt lat="-24.7089460" lon="-53.7486820">
        <ele>547.1</ele>
        <time>2018-09-15T20:11:43Z</time>
      </trkpt>
      <trkpt lat="-24.7089840" lon="-53.7486750">
        <ele>547.0</ele>
        <time>2018-09-15T20:11:44Z</time>
      </trkpt>
      <trkpt lat="-24.7090250" lon="-53.7486650">
        <ele>546.9</ele>
        <time>2018-09-15T20:11:45Z</time>
      </trkpt>
      <trkpt lat="-24.7090680" lon="-53.7486570">
        <ele>546.7</ele>
        <time>2018-09-15T20:11:46Z</time>
      </trkpt>
      <trkpt lat="-24.7091070" lon="-53.7486500">
        <ele>546.6</ele>
        <time>2018-09-15T20:11:47Z</time>
      </trkpt>
      <trkpt lat="-24.7091510" lon="-53.7486360">
        <ele>546.5</ele>
        <time>2018-09-15T20:11:48Z</time>
      </trkpt>
      <trkpt lat="-24.7091970" lon="-53.7486210">
        <ele>546.3</ele>
        <time>2018-09-15T20:11:49Z</time>
      </trkpt>
      <trkpt lat="-24.7092410" lon="-53.7486080">
        <ele>546.2</ele>
        <time>2018-09-15T20:11:50Z</time>
      </trkpt>
      <trkpt lat="-24.7092850" lon="-53.7485980">
        <ele>546.1</ele>
        <time>2018-09-15T20:11:51Z</time>
      </trkpt>
      <trkpt lat="-24.7093310" lon="-53.7485790">
        <ele>545.9</ele>
        <time>2018-09-15T20:11:52Z</time>
      </trkpt>
      <trkpt lat="-24.7093720" lon="-53.7485680">
        <ele>545.7</ele>
        <time>2018-09-15T20:11:53Z</time>
      </trkpt>
      <trkpt lat="-24.7094160" lon="-53.7485580">
        <ele>545.5</ele>
        <time>2018-09-15T20:11:54Z</time>
      </trkpt>
      <trkpt lat="-24.7094620" lon="-53.7485450">
        <ele>545.3</ele>
        <time>2018-09-15T20:11:55Z</time>
      </trkpt>
      <trkpt lat="-24.7095060" lon="-53.7485350">
        <ele>545.1</ele>
        <time>2018-09-15T20:11:56Z</time>
      </trkpt>
      <trkpt lat="-24.7095490" lon="-53.7485290">
        <ele>545.1</ele>
        <time>2018-09-15T20:11:57Z</time>
      </trkpt>
      <trkpt lat="-24.7095900" lon="-53.7485220">
        <ele>545.2</ele>
        <time>2018-09-15T20:11:58Z</time>
      </trkpt>
      <trkpt lat="-24.7096320" lon="-53.7485150">
        <ele>545.4</ele>
        <time>2018-09-15T20:11:59Z</time>
      </trkpt>
      <trkpt lat="-24.7096730" lon="-53.7485070">
        <ele>545.6</ele>
        <time>2018-09-15T20:12:00Z</time>
      </trkpt>
      <trkpt lat="-24.7097140" lon="-53.7484960">
        <ele>545.7</ele>
        <time>2018-09-15T20:12:01Z</time>
      </trkpt>
      <trkpt lat="-24.7097560" lon="-53.7484860">
        <ele>545.9</ele>
        <time>2018-09-15T20:12:02Z</time>
      </trkpt>
      <trkpt lat="-24.7097960" lon="-53.7484780">
        <ele>546.1</ele>
        <time>2018-09-15T20:12:03Z</time>
      </trkpt>
      <trkpt lat="-24.7098370" lon="-53.7484680">
        <ele>546.2</ele>
        <time>2018-09-15T20:12:04Z</time>
      </trkpt>
      <trkpt lat="-24.7098760" lon="-53.7484610">
        <ele>546.4</ele>
        <time>2018-09-15T20:12:05Z</time>
      </trkpt>
      <trkpt lat="-24.7099160" lon="-53.7484530">
        <ele>546.6</ele>
        <time>2018-09-15T20:12:06Z</time>
      </trkpt>
      <trkpt lat="-24.7099570" lon="-53.7484430">
        <ele>546.7</ele>
        <time>2018-09-15T20:12:07Z</time>
      </trkpt>
      <trkpt lat="-24.7099980" lon="-53.7484310">
        <ele>546.9</ele>
        <time>2018-09-15T20:12:08Z</time>
      </trkpt>
      <trkpt lat="-24.7100360" lon="-53.7484220">
        <ele>547.3</ele>
        <time>2018-09-15T20:12:09Z</time>
      </trkpt>
      <trkpt lat="-24.7100740" lon="-53.7484130">
        <ele>547.6</ele>
        <time>2018-09-15T20:12:10Z</time>
      </trkpt>
      <trkpt lat="-24.7101140" lon="-53.7484030">
        <ele>547.9</ele>
        <time>2018-09-15T20:12:11Z</time>
      </trkpt>
      <trkpt lat="-24.7101500" lon="-53.7483970">
        <ele>548.3</ele>
        <time>2018-09-15T20:12:12Z</time>
      </trkpt>
      <trkpt lat="-24.7101890" lon="-53.7483940">
        <ele>548.6</ele>
        <time>2018-09-15T20:12:13Z</time>
      </trkpt>
      <trkpt lat="-24.7102310" lon="-53.7483900">
        <ele>549.0</ele>
        <time>2018-09-15T20:12:14Z</time>
      </trkpt>
      <trkpt lat="-24.7102740" lon="-53.7483850">
        <ele>549.4</ele>
        <time>2018-09-15T20:12:15Z</time>
      </trkpt>
      <trkpt lat="-24.7103210" lon="-53.7483760">
        <ele>549.8</ele>
        <time>2018-09-15T20:12:16Z</time>
      </trkpt>
      <trkpt lat="-24.7103640" lon="-53.7483670">
        <ele>550.3</ele>
        <time>2018-09-15T20:12:17Z</time>
      </trkpt>
      <trkpt lat="-24.7104080" lon="-53.7483600">
        <ele>550.8</ele>
        <time>2018-09-15T20:12:18Z</time>
      </trkpt>
      <trkpt lat="-24.7104510" lon="-53.7483490">
        <ele>551.3</ele>
        <time>2018-09-15T20:12:19Z</time>
      </trkpt>
      <trkpt lat="-24.7104920" lon="-53.7483410">
        <ele>551.8</ele>
        <time>2018-09-15T20:12:20Z</time>
      </trkpt>
      <trkpt lat="-24.7105340" lon="-53.7483300">
        <ele>552.7</ele>
        <time>2018-09-15T20:12:21Z</time>
      </trkpt>
      <trkpt lat="-24.7105750" lon="-53.7483200">
        <ele>553.0</ele>
        <time>2018-09-15T20:12:22Z</time>
      </trkpt>
      <trkpt lat="-24.7106160" lon="-53.7483090">
        <ele>553.0</ele>
        <time>2018-09-15T20:12:23Z</time>
      </trkpt>
      <trkpt lat="-24.7106570" lon="-53.7482990">
        <ele>553.0</ele>
        <time>2018-09-15T20:12:24Z</time>
      </trkpt>
      <trkpt lat="-24.7106980" lon="-53.7482890">
        <ele>552.9</ele>
        <time>2018-09-15T20:12:25Z</time>
      </trkpt>
      <trkpt lat="-24.7107370" lon="-53.7482780">
        <ele>552.9</ele>
        <time>2018-09-15T20:12:26Z</time>
      </trkpt>
      <trkpt lat="-24.7107760" lon="-53.7482700">
        <ele>552.9</ele>
        <time>2018-09-15T20:12:27Z</time>
      </trkpt>
      <trkpt lat="-24.7108140" lon="-53.7482610">
        <ele>552.9</ele>
        <time>2018-09-15T20:12:28Z</time>
      </trkpt>
      <trkpt lat="-24.7108510" lon="-53.7482530">
        <ele>552.9</ele>
        <time>2018-09-15T20:12:29Z</time>
      </trkpt>
      <trkpt lat="-24.7108870" lon="-53.7482450">
        <ele>552.8</ele>
        <time>2018-09-15T20:12:30Z</time>
      </trkpt>
      <trkpt lat="-24.7109210" lon="-53.7482360">
        <ele>552.8</ele>
        <time>2018-09-15T20:12:31Z</time>
      </trkpt>
      <trkpt lat="-24.7109540" lon="-53.7482270">
        <ele>552.8</ele>
        <time>2018-09-15T20:12:32Z</time>
      </trkpt>
      <trkpt lat="-24.7109890" lon="-53.7482190">
        <ele>552.8</ele>
        <time>2018-09-15T20:12:33Z</time>
      </trkpt>
      <trkpt lat="-24.7110260" lon="-53.7482110">
        <ele>552.8</ele>
        <time>2018-09-15T20:12:34Z</time>
      </trkpt>
      <trkpt lat="-24.7110620" lon="-53.7482010">
        <ele>552.7</ele>
        <time>2018-09-15T20:12:35Z</time>
      </trkpt>
      <trkpt lat="-24.7111000" lon="-53.7481910">
        <ele>552.7</ele>
        <time>2018-09-15T20:12:36Z</time>
      </trkpt>
      <trkpt lat="-24.7111380" lon="-53.7481810">
        <ele>552.7</ele>
        <time>2018-09-15T20:12:37Z</time>
      </trkpt>
      <trkpt lat="-24.7111760" lon="-53.7481710">
        <ele>552.7</ele>
        <time>2018-09-15T20:12:38Z</time>
      </trkpt>
      <trkpt lat="-24.7112160" lon="-53.7481630">
        <ele>552.6</ele>
        <time>2018-09-15T20:12:39Z</time>
      </trkpt>
      <trkpt lat="-24.7112550" lon="-53.7481550">
        <ele>552.6</ele>
        <time>2018-09-15T20:12:40Z</time>
      </trkpt>
      <trkpt lat="-24.7112930" lon="-53.7481510">
        <ele>552.6</ele>
        <time>2018-09-15T20:12:41Z</time>
      </trkpt>
      <trkpt lat="-24.7113330" lon="-53.7481460">
        <ele>552.5</ele>
        <time>2018-09-15T20:12:42Z</time>
      </trkpt>
      <trkpt lat="-24.7113720" lon="-53.7481400">
        <ele>552.5</ele>
        <time>2018-09-15T20:12:43Z</time>
      </trkpt>
      <trkpt lat="-24.7114080" lon="-53.7481360">
        <ele>552.4</ele>
        <time>2018-09-15T20:12:44Z</time>
      </trkpt>
      <trkpt lat="-24.7114490" lon="-53.7481290">
        <ele>552.3</ele>
        <time>2018-09-15T20:12:45Z</time>
      </trkpt>
      <trkpt lat="-24.7114870" lon="-53.7481240">
        <ele>552.3</ele>
        <time>2018-09-15T20:12:46Z</time>
      </trkpt>
      <trkpt lat="-24.7115250" lon="-53.7481190">
        <ele>552.2</ele>
        <time>2018-09-15T20:12:47Z</time>
      </trkpt>
      <trkpt lat="-24.7115620" lon="-53.7481120">
        <ele>552.2</ele>
        <time>2018-09-15T20:12:48Z</time>
      </trkpt>
      <trkpt lat="-24.7115990" lon="-53.7481030">
        <ele>552.1</ele>
        <time>2018-09-15T20:12:49Z</time>
      </trkpt>
      <trkpt lat="-24.7116360" lon="-53.7480950">
        <ele>552.1</ele>
        <time>2018-09-15T20:12:50Z</time>
      </trkpt>
      <trkpt lat="-24.7116720" lon="-53.7480910">
        <ele>552.0</ele>
        <time>2018-09-15T20:12:51Z</time>
      </trkpt>
      <trkpt lat="-24.7117100" lon="-53.7480850">
        <ele>552.0</ele>
        <time>2018-09-15T20:12:52Z</time>
      </trkpt>
      <trkpt lat="-24.7117450" lon="-53.7480790">
        <ele>552.0</ele>
        <time>2018-09-15T20:12:53Z</time>
      </trkpt>
      <trkpt lat="-24.7117810" lon="-53.7480740">
        <ele>552.0</ele>
        <time>2018-09-15T20:12:54Z</time>
      </trkpt>
      <trkpt lat="-24.7118160" lon="-53.7480690">
        <ele>552.0</ele>
        <time>2018-09-15T20:12:55Z</time>
      </trkpt>
      <trkpt lat="-24.7118520" lon="-53.7480620">
        <ele>552.0</ele>
        <time>2018-09-15T20:12:56Z</time>
      </trkpt>
      <trkpt lat="-24.7118860" lon="-53.7480550">
        <ele>552.0</ele>
        <time>2018-09-15T20:12:57Z</time>
      </trkpt>
      <trkpt lat="-24.7119230" lon="-53.7480460">
        <ele>552.0</ele>
        <time>2018-09-15T20:12:58Z</time>
      </trkpt>
      <trkpt lat="-24.7119610" lon="-53.7480350">
        <ele>552.0</ele>
        <time>2018-09-15T20:12:59Z</time>
      </trkpt>
      <trkpt lat="-24.7119950" lon="-53.7480280">
        <ele>552.0</ele>
        <time>2018-09-15T20:13:00Z</time>
      </trkpt>
      <trkpt lat="-24.7120320" lon="-53.7480170">
        <ele>552.0</ele>
        <time>2018-09-15T20:13:01Z</time>
      </trkpt>
      <trkpt lat="-24.7120700" lon="-53.7480050">
        <ele>552.0</ele>
        <time>2018-09-15T20:13:02Z</time>
      </trkpt>
      <trkpt lat="-24.7121070" lon="-53.7479980">
        <ele>552.0</ele>
        <time>2018-09-15T20:13:03Z</time>
      </trkpt>
      <trkpt lat="-24.7121430" lon="-53.7479920">
        <ele>552.0</ele>
        <time>2018-09-15T20:13:04Z</time>
      </trkpt>
      <trkpt lat="-24.7121800" lon="-53.7479890">
        <ele>552.0</ele>
        <time>2018-09-15T20:13:05Z</time>
      </trkpt>
      <trkpt lat="-24.7122170" lon="-53.7479830">
        <ele>552.0</ele>
        <time>2018-09-15T20:13:06Z</time>
      </trkpt>
      <trkpt lat="-24.7122570" lon="-53.7479750">
        <ele>552.0</ele>
        <time>2018-09-15T20:13:07Z</time>
      </trkpt>
      <trkpt lat="-24.7122950" lon="-53.7479680">
        <ele>552.0</ele>
        <time>2018-09-15T20:13:08Z</time>
      </trkpt>
      <trkpt lat="-24.7123330" lon="-53.7479600">
        <ele>551.9</ele>
        <time>2018-09-15T20:13:09Z</time>
      </trkpt>
      <trkpt lat="-24.7123730" lon="-53.7479510">
        <ele>551.9</ele>
        <time>2018-09-15T20:13:10Z</time>
      </trkpt>
      <trkpt lat="-24.7124110" lon="-53.7479450">
        <ele>551.9</ele>
        <time>2018-09-15T20:13:11Z</time>
      </trkpt>
      <trkpt lat="-24.7124480" lon="-53.7479380">
        <ele>551.9</ele>
        <time>2018-09-15T20:13:12Z</time>
      </trkpt>
      <trkpt lat="-24.7124860" lon="-53.7479300">
        <ele>551.9</ele>
        <time>2018-09-15T20:13:13Z</time>
      </trkpt>
      <trkpt lat="-24.7125210" lon="-53.7479220">
        <ele>551.9</ele>
        <time>2018-09-15T20:13:14Z</time>
      </trkpt>
      <trkpt lat="-24.7125560" lon="-53.7479140">
        <ele>551.8</ele>
        <time>2018-09-15T20:13:15Z</time>
      </trkpt>
      <trkpt lat="-24.7125930" lon="-53.7479050">
        <ele>551.8</ele>
        <time>2018-09-15T20:13:16Z</time>
      </trkpt>
      <trkpt lat="-24.7126310" lon="-53.7478950">
        <ele>551.8</ele>
        <time>2018-09-15T20:13:17Z</time>
      </trkpt>
      <trkpt lat="-24.7126710" lon="-53.7478840">
        <ele>551.8</ele>
        <time>2018-09-15T20:13:18Z</time>
      </trkpt>
      <trkpt lat="-24.7127080" lon="-53.7478750">
        <ele>551.7</ele>
        <time>2018-09-15T20:13:19Z</time>
      </trkpt>
      <trkpt lat="-24.7127460" lon="-53.7478650">
        <ele>551.7</ele>
        <time>2018-09-15T20:13:20Z</time>
      </trkpt>
      <trkpt lat="-24.7127830" lon="-53.7478570">
        <ele>551.6</ele>
        <time>2018-09-15T20:13:21Z</time>
      </trkpt>
      <trkpt lat="-24.7128200" lon="-53.7478490">
        <ele>551.6</ele>
        <time>2018-09-15T20:13:22Z</time>
      </trkpt>
      <trkpt lat="-24.7128530" lon="-53.7478410">
        <ele>551.6</ele>
        <time>2018-09-15T20:13:23Z</time>
      </trkpt>
      <trkpt lat="-24.7128870" lon="-53.7478310">
        <ele>551.6</ele>
        <time>2018-09-15T20:13:24Z</time>
      </trkpt>
      <trkpt lat="-24.7129210" lon="-53.7478220">
        <ele>551.5</ele>
        <time>2018-09-15T20:13:25Z</time>
      </trkpt>
      <trkpt lat="-24.7129510" lon="-53.7478180">
        <ele>551.5</ele>
        <time>2018-09-15T20:13:26Z</time>
      </trkpt>
      <trkpt lat="-24.7129880" lon="-53.7478130">
        <ele>551.5</ele>
        <time>2018-09-15T20:13:27Z</time>
      </trkpt>
      <trkpt lat="-24.7130250" lon="-53.7478090">
        <ele>551.4</ele>
        <time>2018-09-15T20:13:28Z</time>
      </trkpt>
      <trkpt lat="-24.7130630" lon="-53.7478050">
        <ele>551.4</ele>
        <time>2018-09-15T20:13:29Z</time>
      </trkpt>
      <trkpt lat="-24.7131010" lon="-53.7477990">
        <ele>551.4</ele>
        <time>2018-09-15T20:13:30Z</time>
      </trkpt>
      <trkpt lat="-24.7131410" lon="-53.7477920">
        <ele>551.4</ele>
        <time>2018-09-15T20:13:31Z</time>
      </trkpt>
      <trkpt lat="-24.7131780" lon="-53.7477850">
        <ele>551.3</ele>
        <time>2018-09-15T20:13:32Z</time>
      </trkpt>
      <trkpt lat="-24.7132150" lon="-53.7477790">
        <ele>551.3</ele>
        <time>2018-09-15T20:13:33Z</time>
      </trkpt>
      <trkpt lat="-24.7132500" lon="-53.7477720">
        <ele>551.3</ele>
        <time>2018-09-15T20:13:34Z</time>
      </trkpt>
      <trkpt lat="-24.7132830" lon="-53.7477640">
        <ele>551.2</ele>
        <time>2018-09-15T20:13:35Z</time>
      </trkpt>
      <trkpt lat="-24.7133140" lon="-53.7477650">
        <ele>551.1</ele>
        <time>2018-09-15T20:13:36Z</time>
      </trkpt>
      <trkpt lat="-24.7133430" lon="-53.7477810">
        <ele>550.4</ele>
        <time>2018-09-15T20:13:37Z</time>
      </trkpt>
      <trkpt lat="-24.7133600" lon="-53.7478170">
        <ele>550.1</ele>
        <time>2018-09-15T20:13:38Z</time>
      </trkpt>
      <trkpt lat="-24.7133650" lon="-53.7478630">
        <ele>549.8</ele>
        <time>2018-09-15T20:13:39Z</time>
      </trkpt>
      <trkpt lat="-24.7133670" lon="-53.7479170">
        <ele>549.4</ele>
        <time>2018-09-15T20:13:40Z</time>
      </trkpt>
      <trkpt lat="-24.7133690" lon="-53.7479790">
        <ele>549.2</ele>
        <time>2018-09-15T20:13:41Z</time>
      </trkpt>
      <trkpt lat="-24.7133720" lon="-53.7480460">
        <ele>548.9</ele>
        <time>2018-09-15T20:13:42Z</time>
      </trkpt>
      <trkpt lat="-24.7133750" lon="-53.7481210">
        <ele>548.6</ele>
        <time>2018-09-15T20:13:43Z</time>
      </trkpt>
      <trkpt lat="-24.7133780" lon="-53.7482010">
        <ele>548.3</ele>
        <time>2018-09-15T20:13:44Z</time>
      </trkpt>
      <trkpt lat="-24.7133820" lon="-53.7482880">
        <ele>547.9</ele>
        <time>2018-09-15T20:13:45Z</time>
      </trkpt>
      <trkpt lat="-24.7133850" lon="-53.7483790">
        <ele>547.6</ele>
        <time>2018-09-15T20:13:46Z</time>
      </trkpt>
      <trkpt lat="-24.7133890" lon="-53.7484730">
        <ele>547.1</ele>
        <time>2018-09-15T20:13:47Z</time>
      </trkpt>
      <trkpt lat="-24.7133910" lon="-53.7485680">
        <ele>546.0</ele>
        <time>2018-09-15T20:13:48Z</time>
      </trkpt>
      <trkpt lat="-24.7133920" lon="-53.7486700">
        <ele>545.8</ele>
        <time>2018-09-15T20:13:49Z</time>
      </trkpt>
      <trkpt lat="-24.7133950" lon="-53.7487780">
        <ele>545.4</ele>
        <time>2018-09-15T20:13:50Z</time>
      </trkpt>
      <trkpt lat="-24.7134010" lon="-53.7488840">
        <ele>545.1</ele>
        <time>2018-09-15T20:13:51Z</time>
      </trkpt>
      <trkpt lat="-24.7134060" lon="-53.7489960">
        <ele>544.7</ele>
        <time>2018-09-15T20:13:52Z</time>
      </trkpt>
      <trkpt lat="-24.7134080" lon="-53.7491080">
        <ele>544.2</ele>
        <time>2018-09-15T20:13:53Z</time>
      </trkpt>
      <trkpt lat="-24.7134080" lon="-53.7492200">
        <ele>543.5</ele>
        <time>2018-09-15T20:13:54Z</time>
      </trkpt>
      <trkpt lat="-24.7134100" lon="-53.7493340">
        <ele>542.8</ele>
        <time>2018-09-15T20:13:55Z</time>
      </trkpt>
      <trkpt lat="-24.7134140" lon="-53.7494390">
        <ele>542.2</ele>
        <time>2018-09-15T20:13:56Z</time>
      </trkpt>
      <trkpt lat="-24.7134190" lon="-53.7495380">
        <ele>541.8</ele>
        <time>2018-09-15T20:13:57Z</time>
      </trkpt>
      <trkpt lat="-24.7134210" lon="-53.7496330">
        <ele>541.4</ele>
        <time>2018-09-15T20:13:58Z</time>
      </trkpt>
      <trkpt lat="-24.7134250" lon="-53.7497200">
        <ele>541.1</ele>
        <time>2018-09-15T20:13:59Z</time>
      </trkpt>
      <trkpt lat="-24.7134270" lon="-53.7497990">
        <ele>540.9</ele>
        <time>2018-09-15T20:14:00Z</time>
      </trkpt>
      <trkpt lat="-24.7134280" lon="-53.7498640">
        <ele>540.7</ele>
        <time>2018-09-15T20:14:01Z</time>
      </trkpt>
      <trkpt lat="-24.7134310" lon="-53.7499210">
        <ele>540.7</ele>
        <time>2018-09-15T20:14:02Z</time>
      </trkpt>
      <trkpt lat="-24.7134310" lon="-53.7499720">
        <ele>540.6</ele>
        <time>2018-09-15T20:14:03Z</time>
      </trkpt>
      <trkpt lat="-24.7134340" lon="-53.7500210">
        <ele>540.5</ele>
        <time>2018-09-15T20:14:04Z</time>
      </trkpt>
      <trkpt lat="-24.7134370" lon="-53.7500680">
        <ele>540.4</ele>
        <time>2018-09-15T20:14:05Z</time>
      </trkpt>
      <trkpt lat="-24.7134380" lon="-53.7501200">
        <ele>540.4</ele>
        <time>2018-09-15T20:14:06Z</time>
      </trkpt>
      <trkpt lat="-24.7134400" lon="-53.7501730">
        <ele>540.3</ele>
        <time>2018-09-15T20:14:07Z</time>
      </trkpt>
      <trkpt lat="-24.7134380" lon="-53.7502270">
        <ele>540.2</ele>
        <time>2018-09-15T20:14:08Z</time>
      </trkpt>
      <trkpt lat="-24.7134380" lon="-53.7502870">
        <ele>540.1</ele>
        <time>2018-09-15T20:14:09Z</time>
      </trkpt>
      <trkpt lat="-24.7134380" lon="-53.7503440">
        <ele>540.0</ele>
        <time>2018-09-15T20:14:10Z</time>
      </trkpt>
      <trkpt lat="-24.7134360" lon="-53.7504040">
        <ele>539.9</ele>
        <time>2018-09-15T20:14:11Z</time>
      </trkpt>
      <trkpt lat="-24.7134320" lon="-53.7504620">
        <ele>539.8</ele>
        <time>2018-09-15T20:14:12Z</time>
      </trkpt>
      <trkpt lat="-24.7134300" lon="-53.7505190">
        <ele>539.6</ele>
        <time>2018-09-15T20:14:13Z</time>
      </trkpt>
      <trkpt lat="-24.7134280" lon="-53.7505730">
        <ele>539.6</ele>
        <time>2018-09-15T20:14:14Z</time>
      </trkpt>
      <trkpt lat="-24.7134260" lon="-53.7506260">
        <ele>539.5</ele>
        <time>2018-09-15T20:14:15Z</time>
      </trkpt>
      <trkpt lat="-24.7134250" lon="-53.7506770">
        <ele>539.3</ele>
        <time>2018-09-15T20:14:16Z</time>
      </trkpt>
      <trkpt lat="-24.7134240" lon="-53.7507260">
        <ele>539.2</ele>
        <time>2018-09-15T20:14:17Z</time>
      </trkpt>
      <trkpt lat="-24.7134250" lon="-53.7507730">
        <ele>539.2</ele>
        <time>2018-09-15T20:14:18Z</time>
      </trkpt>
      <trkpt lat="-24.7134260" lon="-53.7508180">
        <ele>539.1</ele>
        <time>2018-09-15T20:14:19Z</time>
      </trkpt>
      <trkpt lat="-24.7134250" lon="-53.7508580">
        <ele>539.1</ele>
        <time>2018-09-15T20:14:20Z</time>
      </trkpt>
      <trkpt lat="-24.7134230" lon="-53.7508930">
        <ele>539.0</ele>
        <time>2018-09-15T20:14:21Z</time>
      </trkpt>
      <trkpt lat="-24.7134220" lon="-53.7509250">
        <ele>539.0</ele>
        <time>2018-09-15T20:14:22Z</time>
      </trkpt>
      <trkpt lat="-24.7134200" lon="-53.7509510">
        <ele>539.0</ele>
        <time>2018-09-15T20:14:23Z</time>
      </trkpt>
      <trkpt lat="-24.7134170" lon="-53.7509720">
        <ele>539.1</ele>
        <time>2018-09-15T20:14:24Z</time>
      </trkpt>
      <trkpt lat="-24.7134150" lon="-53.7509900">
        <ele>539.1</ele>
        <time>2018-09-15T20:14:25Z</time>
      </trkpt>
      <trkpt lat="-24.7134230" lon="-53.7510060">
        <ele>539.1</ele>
        <time>2018-09-15T20:14:26Z</time>
      </trkpt>
      <trkpt lat="-24.7134400" lon="-53.7510100">
        <ele>539.1</ele>
        <time>2018-09-15T20:14:27Z</time>
      </trkpt>
      <trkpt lat="-24.7134540" lon="-53.7510090">
        <ele>539.2</ele>
        <time>2018-09-15T20:14:28Z</time>
      </trkpt>
      <trkpt lat="-24.7134640" lon="-53.7510070">
        <ele>539.2</ele>
        <time>2018-09-15T20:14:29Z</time>
      </trkpt>
      <trkpt lat="-24.7134710" lon="-53.7510060">
        <ele>539.2</ele>
        <time>2018-09-15T20:14:30Z</time>
      </trkpt>
      <trkpt lat="-24.7134800" lon="-53.7510050">
        <ele>539.2</ele>
        <time>2018-09-15T20:14:31Z</time>
      </trkpt>
      <trkpt lat="-24.7134960" lon="-53.7510040">
        <ele>539.2</ele>
        <time>2018-09-15T20:14:32Z</time>
      </trkpt>
      <trkpt lat="-24.7135170" lon="-53.7509990">
        <ele>539.3</ele>
        <time>2018-09-15T20:14:33Z</time>
      </trkpt>
      <trkpt lat="-24.7135430" lon="-53.7509950">
        <ele>539.3</ele>
        <time>2018-09-15T20:14:34Z</time>
      </trkpt>
      <trkpt lat="-24.7135700" lon="-53.7509980">
        <ele>539.3</ele>
        <time>2018-09-15T20:14:35Z</time>
      </trkpt>
      <trkpt lat="-24.7136010" lon="-53.7510030">
        <ele>539.3</ele>
        <time>2018-09-15T20:14:36Z</time>
      </trkpt>
      <trkpt lat="-24.7136350" lon="-53.7510100">
        <ele>539.3</ele>
        <time>2018-09-15T20:14:37Z</time>
      </trkpt>
      <trkpt lat="-24.7136720" lon="-53.7510190">
        <ele>539.3</ele>
        <time>2018-09-15T20:14:38Z</time>
      </trkpt>
      <trkpt lat="-24.7137120" lon="-53.7510280">
        <ele>539.4</ele>
        <time>2018-09-15T20:14:39Z</time>
      </trkpt>
      <trkpt lat="-24.7137540" lon="-53.7510370">
        <ele>539.4</ele>
        <time>2018-09-15T20:14:40Z</time>
      </trkpt>
      <trkpt lat="-24.7137980" lon="-53.7510460">
        <ele>539.4</ele>
        <time>2018-09-15T20:14:41Z</time>
      </trkpt>
      <trkpt lat="-24.7138400" lon="-53.7510540">
        <ele>539.4</ele>
        <time>2018-09-15T20:14:42Z</time>
      </trkpt>
      <trkpt lat="-24.7138820" lon="-53.7510620">
        <ele>539.4</ele>
        <time>2018-09-15T20:14:43Z</time>
      </trkpt>
      <trkpt lat="-24.7139240" lon="-53.7510710">
        <ele>539.5</ele>
        <time>2018-09-15T20:14:44Z</time>
      </trkpt>
      <trkpt lat="-24.7139650" lon="-53.7510790">
        <ele>539.5</ele>
        <time>2018-09-15T20:14:45Z</time>
      </trkpt>
      <trkpt lat="-24.7140440" lon="-53.7510960">
        <ele>539.5</ele>
        <time>2018-09-15T20:14:46Z</time>
      </trkpt>
      <trkpt lat="-24.7140590" lon="-53.7511230">
        <ele>539.5</ele>
        <time>2018-09-15T20:14:47Z</time>
      </trkpt>
      <trkpt lat="-24.7140890" lon="-53.7511380">
        <ele>539.6</ele>
        <time>2018-09-15T20:14:48Z</time>
      </trkpt>
      <trkpt lat="-24.7141300" lon="-53.7511480">
        <ele>539.6</ele>
        <time>2018-09-15T20:14:49Z</time>
      </trkpt>
      <trkpt lat="-24.7142070" lon="-53.7511710">
        <ele>539.7</ele>
        <time>2018-09-15T20:14:51Z</time>
      </trkpt>
      <trkpt lat="-24.7142540" lon="-53.7511770">
        <ele>539.7</ele>
        <time>2018-09-15T20:14:52Z</time>
      </trkpt>
      <trkpt lat="-24.7142950" lon="-53.7511830">
        <ele>539.8</ele>
        <time>2018-09-15T20:14:53Z</time>
      </trkpt>
      <trkpt lat="-24.7143360" lon="-53.7511900">
        <ele>539.8</ele>
        <time>2018-09-15T20:14:54Z</time>
      </trkpt>
      <trkpt lat="-24.7143770" lon="-53.7511980">
        <ele>539.8</ele>
        <time>2018-09-15T20:14:55Z</time>
      </trkpt>
      <trkpt lat="-24.7144220" lon="-53.7512020">
        <ele>539.9</ele>
        <time>2018-09-15T20:14:56Z</time>
      </trkpt>
      <trkpt lat="-24.7144660" lon="-53.7512040">
        <ele>539.9</ele>
        <time>2018-09-15T20:14:57Z</time>
      </trkpt>
      <trkpt lat="-24.7145080" lon="-53.7512080">
        <ele>540.0</ele>
        <time>2018-09-15T20:14:58Z</time>
      </trkpt>
      <trkpt lat="-24.7145490" lon="-53.7512160">
        <ele>540.0</ele>
        <time>2018-09-15T20:14:59Z</time>
      </trkpt>
      <trkpt lat="-24.7145920" lon="-53.7512220">
        <ele>540.1</ele>
        <time>2018-09-15T20:15:00Z</time>
      </trkpt>
      <trkpt lat="-24.7146330" lon="-53.7512280">
        <ele>540.2</ele>
        <time>2018-09-15T20:15:01Z</time>
      </trkpt>
      <trkpt lat="-24.7146740" lon="-53.7512340">
        <ele>540.2</ele>
        <time>2018-09-15T20:15:02Z</time>
      </trkpt>
      <trkpt lat="-24.7147180" lon="-53.7512380">
        <ele>540.3</ele>
        <time>2018-09-15T20:15:03Z</time>
      </trkpt>
      <trkpt lat="-24.7147620" lon="-53.7512450">
        <ele>540.3</ele>
        <time>2018-09-15T20:15:04Z</time>
      </trkpt>
      <trkpt lat="-24.7147990" lon="-53.7512560">
        <ele>540.3</ele>
        <time>2018-09-15T20:15:05Z</time>
      </trkpt>
      <trkpt lat="-24.7148370" lon="-53.7512660">
        <ele>540.4</ele>
        <time>2018-09-15T20:15:06Z</time>
      </trkpt>
      <trkpt lat="-24.7148740" lon="-53.7512750">
        <ele>540.4</ele>
        <time>2018-09-15T20:15:07Z</time>
      </trkpt>
      <trkpt lat="-24.7149120" lon="-53.7512820">
        <ele>540.5</ele>
        <time>2018-09-15T20:15:08Z</time>
      </trkpt>
      <trkpt lat="-24.7149730" lon="-53.7513040">
        <ele>540.5</ele>
        <time>2018-09-15T20:15:10Z</time>
      </trkpt>
      <trkpt lat="-24.7150040" lon="-53.7513100">
        <ele>540.6</ele>
        <time>2018-09-15T20:15:11Z</time>
      </trkpt>
      <trkpt lat="-24.7150390" lon="-53.7513200">
        <ele>540.6</ele>
        <time>2018-09-15T20:15:12Z</time>
      </trkpt>
      <trkpt lat="-24.7150740" lon="-53.7513300">
        <ele>540.6</ele>
        <time>2018-09-15T20:15:13Z</time>
      </trkpt>
      <trkpt lat="-24.7151130" lon="-53.7513340">
        <ele>540.7</ele>
        <time>2018-09-15T20:15:14Z</time>
      </trkpt>
      <trkpt lat="-24.7151550" lon="-53.7513370">
        <ele>540.7</ele>
        <time>2018-09-15T20:15:15Z</time>
      </trkpt>
      <trkpt lat="-24.7151940" lon="-53.7513430">
        <ele>540.8</ele>
        <time>2018-09-15T20:15:16Z</time>
      </trkpt>
      <trkpt lat="-24.7152330" lon="-53.7513480">
        <ele>540.9</ele>
        <time>2018-09-15T20:15:17Z</time>
      </trkpt>
      <trkpt lat="-24.7152730" lon="-53.7513540">
        <ele>541.0</ele>
        <time>2018-09-15T20:15:18Z</time>
      </trkpt>
      <trkpt lat="-24.7153160" lon="-53.7513610">
        <ele>541.1</ele>
        <time>2018-09-15T20:15:19Z</time>
      </trkpt>
      <trkpt lat="-24.7153550" lon="-53.7513670">
        <ele>541.2</ele>
        <time>2018-09-15T20:15:20Z</time>
      </trkpt>
      <trkpt lat="-24.7153940" lon="-53.7513730">
        <ele>541.3</ele>
        <time>2018-09-15T20:15:21Z</time>
      </trkpt>
      <trkpt lat="-24.7154370" lon="-53.7513780">
        <ele>541.4</ele>
        <time>2018-09-15T20:15:22Z</time>
      </trkpt>
      <trkpt lat="-24.7154780" lon="-53.7513840">
        <ele>541.6</ele>
        <time>2018-09-15T20:15:23Z</time>
      </trkpt>
      <trkpt lat="-24.7155180" lon="-53.7513890">
        <ele>541.8</ele>
        <time>2018-09-15T20:15:24Z</time>
      </trkpt>
      <trkpt lat="-24.7155570" lon="-53.7513970">
        <ele>542.0</ele>
        <time>2018-09-15T20:15:25Z</time>
      </trkpt>
      <trkpt lat="-24.7155570" lon="-53.7513970">
        <ele>542.0</ele>
        <time>2018-09-15T20:15:26Z</time>
      </trkpt>
      <trkpt lat="-24.7155970" lon="-53.7514040">
        <ele>542.3</ele>
        <time>2018-09-15T20:15:27Z</time>
      </trkpt>
      <trkpt lat="-24.7156350" lon="-53.7514100">
        <ele>542.5</ele>
        <time>2018-09-15T20:15:28Z</time>
      </trkpt>
      <trkpt lat="-24.7156740" lon="-53.7514190">
        <ele>542.7</ele>
        <time>2018-09-15T20:15:29Z</time>
      </trkpt>
      <trkpt lat="-24.7157140" lon="-53.7514270">
        <ele>543.0</ele>
        <time>2018-09-15T20:15:30Z</time>
      </trkpt>
      <trkpt lat="-24.7157530" lon="-53.7514350">
        <ele>543.1</ele>
        <time>2018-09-15T20:15:31Z</time>
      </trkpt>
      <trkpt lat="-24.7157900" lon="-53.7514430">
        <ele>543.3</ele>
        <time>2018-09-15T20:15:32Z</time>
      </trkpt>
      <trkpt lat="-24.7158280" lon="-53.7514500">
        <ele>543.3</ele>
        <time>2018-09-15T20:15:33Z</time>
      </trkpt>
      <trkpt lat="-24.7158670" lon="-53.7514560">
        <ele>543.4</ele>
        <time>2018-09-15T20:15:34Z</time>
      </trkpt>
      <trkpt lat="-24.7159020" lon="-53.7514620">
        <ele>543.5</ele>
        <time>2018-09-15T20:15:35Z</time>
      </trkpt>
      <trkpt lat="-24.7159400" lon="-53.7514680">
        <ele>543.6</ele>
        <time>2018-09-15T20:15:36Z</time>
      </trkpt>
      <trkpt lat="-24.7159740" lon="-53.7514720">
        <ele>543.6</ele>
        <time>2018-09-15T20:15:37Z</time>
      </trkpt>
      <trkpt lat="-24.7160090" lon="-53.7514730">
        <ele>543.7</ele>
        <time>2018-09-15T20:15:38Z</time>
      </trkpt>
      <trkpt lat="-24.7160430" lon="-53.7514710">
        <ele>543.8</ele>
        <time>2018-09-15T20:15:39Z</time>
      </trkpt>
      <trkpt lat="-24.7160760" lon="-53.7514630">
        <ele>543.8</ele>
        <time>2018-09-15T20:15:40Z</time>
      </trkpt>
      <trkpt lat="-24.7161060" lon="-53.7514520">
        <ele>543.9</ele>
        <time>2018-09-15T20:15:41Z</time>
      </trkpt>
      <trkpt lat="-24.7161350" lon="-53.7514380">
        <ele>544.0</ele>
        <time>2018-09-15T20:15:42Z</time>
      </trkpt>
      <trkpt lat="-24.7161650" lon="-53.7514240">
        <ele>544.2</ele>
        <time>2018-09-15T20:15:43Z</time>
      </trkpt>
      <trkpt lat="-24.7161980" lon="-53.7514100">
        <ele>544.4</ele>
        <time>2018-09-15T20:15:44Z</time>
      </trkpt>
      <trkpt lat="-24.7162300" lon="-53.7513970">
        <ele>544.6</ele>
        <time>2018-09-15T20:15:45Z</time>
      </trkpt>
      <trkpt lat="-24.7162620" lon="-53.7513820">
        <ele>544.8</ele>
        <time>2018-09-15T20:15:46Z</time>
      </trkpt>
      <trkpt lat="-24.7162930" lon="-53.7513660">
        <ele>545.0</ele>
        <time>2018-09-15T20:15:47Z</time>
      </trkpt>
      <trkpt lat="-24.7163230" lon="-53.7513490">
        <ele>545.3</ele>
        <time>2018-09-15T20:15:48Z</time>
      </trkpt>
      <trkpt lat="-24.7163520" lon="-53.7513370">
        <ele>545.5</ele>
        <time>2018-09-15T20:15:49Z</time>
      </trkpt>
      <trkpt lat="-24.7163800" lon="-53.7513230">
        <ele>545.8</ele>
        <time>2018-09-15T20:15:50Z</time>
      </trkpt>
      <trkpt lat="-24.7164060" lon="-53.7513110">
        <ele>546.0</ele>
        <time>2018-09-15T20:15:51Z</time>
      </trkpt>
      <trkpt lat="-24.7164340" lon="-53.7512950">
        <ele>546.3</ele>
        <time>2018-09-15T20:15:52Z</time>
      </trkpt>
      <trkpt lat="-24.7164610" lon="-53.7512810">
        <ele>546.5</ele>
        <time>2018-09-15T20:15:53Z</time>
      </trkpt>
      <trkpt lat="-24.7164880" lon="-53.7512650">
        <ele>546.7</ele>
        <time>2018-09-15T20:15:54Z</time>
      </trkpt>
      <trkpt lat="-24.7165170" lon="-53.7512520">
        <ele>546.8</ele>
        <time>2018-09-15T20:15:55Z</time>
      </trkpt>
      <trkpt lat="-24.7165450" lon="-53.7512390">
        <ele>546.9</ele>
        <time>2018-09-15T20:15:56Z</time>
      </trkpt>
      <trkpt lat="-24.7165730" lon="-53.7512250">
        <ele>547.0</ele>
        <time>2018-09-15T20:15:57Z</time>
      </trkpt>
      <trkpt lat="-24.7166010" lon="-53.7512100">
        <ele>547.1</ele>
        <time>2018-09-15T20:15:58Z</time>
      </trkpt>
      <trkpt lat="-24.7166290" lon="-53.7511940">
        <ele>547.2</ele>
        <time>2018-09-15T20:15:59Z</time>
      </trkpt>
      <trkpt lat="-24.7166560" lon="-53.7511800">
        <ele>547.2</ele>
        <time>2018-09-15T20:16:00Z</time>
      </trkpt>
      <trkpt lat="-24.7166840" lon="-53.7511700">
        <ele>547.3</ele>
        <time>2018-09-15T20:16:01Z</time>
      </trkpt>
      <trkpt lat="-24.7167100" lon="-53.7511550">
        <ele>547.4</ele>
        <time>2018-09-15T20:16:02Z</time>
      </trkpt>
      <trkpt lat="-24.7167370" lon="-53.7511390">
        <ele>547.5</ele>
        <time>2018-09-15T20:16:03Z</time>
      </trkpt>
      <trkpt lat="-24.7167620" lon="-53.7511250">
        <ele>547.5</ele>
        <time>2018-09-15T20:16:04Z</time>
      </trkpt>
      <trkpt lat="-24.7167870" lon="-53.7511130">
        <ele>547.6</ele>
        <time>2018-09-15T20:16:05Z</time>
      </trkpt>
      <trkpt lat="-24.7168130" lon="-53.7511000">
        <ele>547.7</ele>
        <time>2018-09-15T20:16:06Z</time>
      </trkpt>
      <trkpt lat="-24.7168390" lon="-53.7510880">
        <ele>547.7</ele>
        <time>2018-09-15T20:16:07Z</time>
      </trkpt>
      <trkpt lat="-24.7168630" lon="-53.7510780">
        <ele>547.8</ele>
        <time>2018-09-15T20:16:08Z</time>
      </trkpt>
      <trkpt lat="-24.7168860" lon="-53.7510670">
        <ele>547.9</ele>
        <time>2018-09-15T20:16:09Z</time>
      </trkpt>
      <trkpt lat="-24.7169090" lon="-53.7510560">
        <ele>547.9</ele>
        <time>2018-09-15T20:16:10Z</time>
      </trkpt>
      <trkpt lat="-24.7169320" lon="-53.7510440">
        <ele>548.0</ele>
        <time>2018-09-15T20:16:11Z</time>
      </trkpt>
      <trkpt lat="-24.7169560" lon="-53.7510330">
        <ele>548.2</ele>
        <time>2018-09-15T20:16:12Z</time>
      </trkpt>
      <trkpt lat="-24.7169790" lon="-53.7510220">
        <ele>548.4</ele>
        <time>2018-09-15T20:16:13Z</time>
      </trkpt>
      <trkpt lat="-24.7170010" lon="-53.7510090">
        <ele>548.7</ele>
        <time>2018-09-15T20:16:14Z</time>
      </trkpt>
      <trkpt lat="-24.7170230" lon="-53.7509970">
        <ele>548.9</ele>
        <time>2018-09-15T20:16:15Z</time>
      </trkpt>
      <trkpt lat="-24.7170450" lon="-53.7509870">
        <ele>549.1</ele>
        <time>2018-09-15T20:16:16Z</time>
      </trkpt>
      <trkpt lat="-24.7170670" lon="-53.7509780">
        <ele>549.3</ele>
        <time>2018-09-15T20:16:17Z</time>
      </trkpt>
      <trkpt lat="-24.7170900" lon="-53.7509650">
        <ele>549.5</ele>
        <time>2018-09-15T20:16:18Z</time>
      </trkpt>
      <trkpt lat="-24.7171140" lon="-53.7509540">
        <ele>549.7</ele>
        <time>2018-09-15T20:16:19Z</time>
      </trkpt>
      <trkpt lat="-24.7171390" lon="-53.7509460">
        <ele>549.9</ele>
        <time>2018-09-15T20:16:20Z</time>
      </trkpt>
      <trkpt lat="-24.7171630" lon="-53.7509360">
        <ele>550.1</ele>
        <time>2018-09-15T20:16:21Z</time>
      </trkpt>
      <trkpt lat="-24.7171860" lon="-53.7509240">
        <ele>550.2</ele>
        <time>2018-09-15T20:16:22Z</time>
      </trkpt>
      <trkpt lat="-24.7172100" lon="-53.7509130">
        <ele>550.4</ele>
        <time>2018-09-15T20:16:23Z</time>
      </trkpt>
      <trkpt lat="-24.7172330" lon="-53.7509020">
        <ele>550.5</ele>
        <time>2018-09-15T20:16:24Z</time>
      </trkpt>
      <trkpt lat="-24.7172560" lon="-53.7508900">
        <ele>550.6</ele>
        <time>2018-09-15T20:16:25Z</time>
      </trkpt>
      <trkpt lat="-24.7172780" lon="-53.7508790">
        <ele>550.7</ele>
        <time>2018-09-15T20:16:26Z</time>
      </trkpt>
      <trkpt lat="-24.7173020" lon="-53.7508670">
        <ele>550.8</ele>
        <time>2018-09-15T20:16:27Z</time>
      </trkpt>
      <trkpt lat="-24.7173240" lon="-53.7508560">
        <ele>550.9</ele>
        <time>2018-09-15T20:16:28Z</time>
      </trkpt>
      <trkpt lat="-24.7173460" lon="-53.7508450">
        <ele>551.0</ele>
        <time>2018-09-15T20:16:29Z</time>
      </trkpt>
      <trkpt lat="-24.7173680" lon="-53.7508350">
        <ele>551.1</ele>
        <time>2018-09-15T20:16:30Z</time>
      </trkpt>
      <trkpt lat="-24.7173900" lon="-53.7508250">
        <ele>551.2</ele>
        <time>2018-09-15T20:16:31Z</time>
      </trkpt>
      <trkpt lat="-24.7174120" lon="-53.7508150">
        <ele>551.5</ele>
        <time>2018-09-15T20:16:32Z</time>
      </trkpt>
      <trkpt lat="-24.7174340" lon="-53.7508060">
        <ele>551.7</ele>
        <time>2018-09-15T20:16:33Z</time>
      </trkpt>
      <trkpt lat="-24.7174560" lon="-53.7507940">
        <ele>551.9</ele>
        <time>2018-09-15T20:16:34Z</time>
      </trkpt>
      <trkpt lat="-24.7174790" lon="-53.7507820">
        <ele>552.2</ele>
        <time>2018-09-15T20:16:35Z</time>
      </trkpt>
      <trkpt lat="-24.7175030" lon="-53.7507730">
        <ele>552.4</ele>
        <time>2018-09-15T20:16:36Z</time>
      </trkpt>
      <trkpt lat="-24.7175250" lon="-53.7507610">
        <ele>552.6</ele>
        <time>2018-09-15T20:16:37Z</time>
      </trkpt>
      <trkpt lat="-24.7175450" lon="-53.7507510">
        <ele>552.8</ele>
        <time>2018-09-15T20:16:38Z</time>
      </trkpt>
      <trkpt lat="-24.7175660" lon="-53.7507400">
        <ele>553.0</ele>
        <time>2018-09-15T20:16:39Z</time>
      </trkpt>
      <trkpt lat="-24.7175840" lon="-53.7507290">
        <ele>553.1</ele>
        <time>2018-09-15T20:16:40Z</time>
      </trkpt>
      <trkpt lat="-24.7176020" lon="-53.7507170">
        <ele>553.2</ele>
        <time>2018-09-15T20:16:41Z</time>
      </trkpt>
      <trkpt lat="-24.7176210" lon="-53.7507050">
        <ele>553.3</ele>
        <time>2018-09-15T20:16:42Z</time>
      </trkpt>
      <trkpt lat="-24.7176400" lon="-53.7506950">
        <ele>553.4</ele>
        <time>2018-09-15T20:16:43Z</time>
      </trkpt>
      <trkpt lat="-24.7176610" lon="-53.7506840">
        <ele>553.4</ele>
        <time>2018-09-15T20:16:44Z</time>
      </trkpt>
      <trkpt lat="-24.7176790" lon="-53.7506760">
        <ele>553.5</ele>
        <time>2018-09-15T20:16:45Z</time>
      </trkpt>
      <trkpt lat="-24.7176990" lon="-53.7506650">
        <ele>553.6</ele>
        <time>2018-09-15T20:16:46Z</time>
      </trkpt>
      <trkpt lat="-24.7177170" lon="-53.7506570">
        <ele>553.7</ele>
        <time>2018-09-15T20:16:47Z</time>
      </trkpt>
      <trkpt lat="-24.7177390" lon="-53.7506530">
        <ele>553.8</ele>
        <time>2018-09-15T20:16:48Z</time>
      </trkpt>
      <trkpt lat="-24.7177610" lon="-53.7506450">
        <ele>553.8</ele>
        <time>2018-09-15T20:16:49Z</time>
      </trkpt>
      <trkpt lat="-24.7177850" lon="-53.7506330">
        <ele>553.9</ele>
        <time>2018-09-15T20:16:50Z</time>
      </trkpt>
      <trkpt lat="-24.7178090" lon="-53.7506190">
        <ele>554.1</ele>
        <time>2018-09-15T20:16:51Z</time>
      </trkpt>
      <trkpt lat="-24.7178320" lon="-53.7506060">
        <ele>554.3</ele>
        <time>2018-09-15T20:16:52Z</time>
      </trkpt>
      <trkpt lat="-24.7178550" lon="-53.7505930">
        <ele>554.4</ele>
        <time>2018-09-15T20:16:53Z</time>
      </trkpt>
      <trkpt lat="-24.7178790" lon="-53.7505800">
        <ele>554.6</ele>
        <time>2018-09-15T20:16:54Z</time>
      </trkpt>
      <trkpt lat="-24.7179020" lon="-53.7505670">
        <ele>554.7</ele>
        <time>2018-09-15T20:16:55Z</time>
      </trkpt>
      <trkpt lat="-24.7179250" lon="-53.7505550">
        <ele>554.9</ele>
        <time>2018-09-15T20:16:56Z</time>
      </trkpt>
      <trkpt lat="-24.7179470" lon="-53.7505470">
        <ele>555.0</ele>
        <time>2018-09-15T20:16:57Z</time>
      </trkpt>
      <trkpt lat="-24.7179710" lon="-53.7505380">
        <ele>555.1</ele>
        <time>2018-09-15T20:16:58Z</time>
      </trkpt>
      <trkpt lat="-24.7179930" lon="-53.7505250">
        <ele>555.3</ele>
        <time>2018-09-15T20:16:59Z</time>
      </trkpt>
      <trkpt lat="-24.7180160" lon="-53.7505120">
        <ele>555.3</ele>
        <time>2018-09-15T20:17:00Z</time>
      </trkpt>
      <trkpt lat="-24.7180400" lon="-53.7504990">
        <ele>555.4</ele>
        <time>2018-09-15T20:17:01Z</time>
      </trkpt>
      <trkpt lat="-24.7180640" lon="-53.7504880">
        <ele>555.4</ele>
        <time>2018-09-15T20:17:02Z</time>
      </trkpt>
      <trkpt lat="-24.7180890" lon="-53.7504770">
        <ele>555.5</ele>
        <time>2018-09-15T20:17:03Z</time>
      </trkpt>
      <trkpt lat="-24.7181150" lon="-53.7504640">
        <ele>555.5</ele>
        <time>2018-09-15T20:17:04Z</time>
      </trkpt>
      <trkpt lat="-24.7181390" lon="-53.7504530">
        <ele>555.5</ele>
        <time>2018-09-15T20:17:05Z</time>
      </trkpt>
      <trkpt lat="-24.7181630" lon="-53.7504410">
        <ele>555.6</ele>
        <time>2018-09-15T20:17:06Z</time>
      </trkpt>
      <trkpt lat="-24.7181870" lon="-53.7504300">
        <ele>555.6</ele>
        <time>2018-09-15T20:17:07Z</time>
      </trkpt>
      <trkpt lat="-24.7182100" lon="-53.7504180">
        <ele>555.7</ele>
        <time>2018-09-15T20:17:08Z</time>
      </trkpt>
      <trkpt lat="-24.7182340" lon="-53.7504050">
        <ele>555.7</ele>
        <time>2018-09-15T20:17:09Z</time>
      </trkpt>
      <trkpt lat="-24.7182580" lon="-53.7503920">
        <ele>555.7</ele>
        <time>2018-09-15T20:17:10Z</time>
      </trkpt>
      <trkpt lat="-24.7182810" lon="-53.7503790">
        <ele>555.8</ele>
        <time>2018-09-15T20:17:11Z</time>
      </trkpt>
      <trkpt lat="-24.7183040" lon="-53.7503670">
        <ele>555.8</ele>
        <time>2018-09-15T20:17:12Z</time>
      </trkpt>
      <trkpt lat="-24.7183280" lon="-53.7503570">
        <ele>555.9</ele>
        <time>2018-09-15T20:17:13Z</time>
      </trkpt>
      <trkpt lat="-24.7183500" lon="-53.7503470">
        <ele>555.9</ele>
        <time>2018-09-15T20:17:14Z</time>
      </trkpt>
      <trkpt lat="-24.7183730" lon="-53.7503370">
        <ele>555.9</ele>
        <time>2018-09-15T20:17:15Z</time>
      </trkpt>
      <trkpt lat="-24.7183930" lon="-53.7503250">
        <ele>556.0</ele>
        <time>2018-09-15T20:17:16Z</time>
      </trkpt>
      <trkpt lat="-24.7184160" lon="-53.7503130">
        <ele>556.0</ele>
        <time>2018-09-15T20:17:17Z</time>
      </trkpt>
      <trkpt lat="-24.7184410" lon="-53.7503010">
        <ele>556.1</ele>
        <time>2018-09-15T20:17:18Z</time>
      </trkpt>
      <trkpt lat="-24.7184660" lon="-53.7502900">
        <ele>556.3</ele>
        <time>2018-09-15T20:17:19Z</time>
      </trkpt>
      <trkpt lat="-24.7184920" lon="-53.7502800">
        <ele>556.4</ele>
        <time>2018-09-15T20:17:20Z</time>
      </trkpt>
      <trkpt lat="-24.7185170" lon="-53.7502670">
        <ele>556.5</ele>
        <time>2018-09-15T20:17:21Z</time>
      </trkpt>
      <trkpt lat="-24.7185410" lon="-53.7502530">
        <ele>556.7</ele>
        <time>2018-09-15T20:17:22Z</time>
      </trkpt>
      <trkpt lat="-24.7185650" lon="-53.7502410">
        <ele>556.8</ele>
        <time>2018-09-15T20:17:23Z</time>
      </trkpt>
      <trkpt lat="-24.7185880" lon="-53.7502290">
        <ele>556.9</ele>
        <time>2018-09-15T20:17:24Z</time>
      </trkpt>
      <trkpt lat="-24.7186130" lon="-53.7502180">
        <ele>557.0</ele>
        <time>2018-09-15T20:17:25Z</time>
      </trkpt>
      <trkpt lat="-24.7186370" lon="-53.7502060">
        <ele>557.0</ele>
        <time>2018-09-15T20:17:26Z</time>
      </trkpt>
      <trkpt lat="-24.7186600" lon="-53.7501930">
        <ele>557.1</ele>
        <time>2018-09-15T20:17:27Z</time>
      </trkpt>
      <trkpt lat="-24.7186820" lon="-53.7501820">
        <ele>557.1</ele>
        <time>2018-09-15T20:17:28Z</time>
      </trkpt>
      <trkpt lat="-24.7187060" lon="-53.7501710">
        <ele>557.1</ele>
        <time>2018-09-15T20:17:29Z</time>
      </trkpt>
      <trkpt lat="-24.7187300" lon="-53.7501590">
        <ele>557.2</ele>
        <time>2018-09-15T20:17:30Z</time>
      </trkpt>
      <trkpt lat="-24.7187520" lon="-53.7501490">
        <ele>557.2</ele>
        <time>2018-09-15T20:17:31Z</time>
      </trkpt>
      <trkpt lat="-24.7187760" lon="-53.7501370">
        <ele>557.2</ele>
        <time>2018-09-15T20:17:32Z</time>
      </trkpt>
      <trkpt lat="-24.7187990" lon="-53.7501240">
        <ele>557.3</ele>
        <time>2018-09-15T20:17:33Z</time>
      </trkpt>
      <trkpt lat="-24.7188220" lon="-53.7501130">
        <ele>557.3</ele>
        <time>2018-09-15T20:17:34Z</time>
      </trkpt>
      <trkpt lat="-24.7188450" lon="-53.7501020">
        <ele>557.3</ele>
        <time>2018-09-15T20:17:35Z</time>
      </trkpt>
      <trkpt lat="-24.7188670" lon="-53.7500910">
        <ele>557.4</ele>
        <time>2018-09-15T20:17:36Z</time>
      </trkpt>
      <trkpt lat="-24.7188900" lon="-53.7500790">
        <ele>557.4</ele>
        <time>2018-09-15T20:17:37Z</time>
      </trkpt>
      <trkpt lat="-24.7189130" lon="-53.7500680">
        <ele>557.4</ele>
        <time>2018-09-15T20:17:38Z</time>
      </trkpt>
      <trkpt lat="-24.7189330" lon="-53.7500610">
        <ele>557.5</ele>
        <time>2018-09-15T20:17:39Z</time>
      </trkpt>
      <trkpt lat="-24.7189580" lon="-53.7500490">
        <ele>557.5</ele>
        <time>2018-09-15T20:17:40Z</time>
      </trkpt>
      <trkpt lat="-24.7189790" lon="-53.7500360">
        <ele>557.5</ele>
        <time>2018-09-15T20:17:41Z</time>
      </trkpt>
      <trkpt lat="-24.7190030" lon="-53.7500240">
        <ele>557.6</ele>
        <time>2018-09-15T20:17:42Z</time>
      </trkpt>
      <trkpt lat="-24.7190270" lon="-53.7500120">
        <ele>557.6</ele>
        <time>2018-09-15T20:17:43Z</time>
      </trkpt>
      <trkpt lat="-24.7190510" lon="-53.7500010">
        <ele>557.6</ele>
        <time>2018-09-15T20:17:44Z</time>
      </trkpt>
      <trkpt lat="-24.7190770" lon="-53.7499900">
        <ele>557.7</ele>
        <time>2018-09-15T20:17:45Z</time>
      </trkpt>
      <trkpt lat="-24.7191000" lon="-53.7499790">
        <ele>557.7</ele>
        <time>2018-09-15T20:17:46Z</time>
      </trkpt>
      <trkpt lat="-24.7191250" lon="-53.7499670">
        <ele>557.7</ele>
        <time>2018-09-15T20:17:47Z</time>
      </trkpt>
      <trkpt lat="-24.7191500" lon="-53.7499540">
        <ele>557.8</ele>
        <time>2018-09-15T20:17:48Z</time>
      </trkpt>
      <trkpt lat="-24.7191720" lon="-53.7499390">
        <ele>557.8</ele>
        <time>2018-09-15T20:17:49Z</time>
      </trkpt>
      <trkpt lat="-24.7191980" lon="-53.7499260">
        <ele>557.8</ele>
        <time>2018-09-15T20:17:50Z</time>
      </trkpt>
      <trkpt lat="-24.7192240" lon="-53.7499150">
        <ele>557.9</ele>
        <time>2018-09-15T20:17:51Z</time>
      </trkpt>
      <trkpt lat="-24.7192500" lon="-53.7499040">
        <ele>557.9</ele>
        <time>2018-09-15T20:17:52Z</time>
      </trkpt>
      <trkpt lat="-24.7192750" lon="-53.7498910">
        <ele>557.9</ele>
        <time>2018-09-15T20:17:53Z</time>
      </trkpt>
      <trkpt lat="-24.7192980" lon="-53.7498780">
        <ele>558.0</ele>
        <time>2018-09-15T20:17:54Z</time>
      </trkpt>
      <trkpt lat="-24.7193210" lon="-53.7498660">
        <ele>558.0</ele>
        <time>2018-09-15T20:17:55Z</time>
      </trkpt>
      <trkpt lat="-24.7193440" lon="-53.7498540">
        <ele>558.0</ele>
        <time>2018-09-15T20:17:56Z</time>
      </trkpt>
      <trkpt lat="-24.7193730" lon="-53.7498400">
        <ele>558.1</ele>
        <time>2018-09-15T20:17:57Z</time>
      </trkpt>
      <trkpt lat="-24.7194020" lon="-53.7498250">
        <ele>558.1</ele>
        <time>2018-09-15T20:17:58Z</time>
      </trkpt>
      <trkpt lat="-24.7194280" lon="-53.7498120">
        <ele>558.2</ele>
        <time>2018-09-15T20:17:59Z</time>
      </trkpt>
      <trkpt lat="-24.7194540" lon="-53.7498010">
        <ele>558.2</ele>
        <time>2018-09-15T20:18:00Z</time>
      </trkpt>
      <trkpt lat="-24.7194800" lon="-53.7497920">
        <ele>558.3</ele>
        <time>2018-09-15T20:18:01Z</time>
      </trkpt>
      <trkpt lat="-24.7195070" lon="-53.7497800">
        <ele>558.4</ele>
        <time>2018-09-15T20:18:02Z</time>
      </trkpt>
      <trkpt lat="-24.7195350" lon="-53.7497650">
        <ele>558.5</ele>
        <time>2018-09-15T20:18:03Z</time>
      </trkpt>
      <trkpt lat="-24.7195630" lon="-53.7497500">
        <ele>558.6</ele>
        <time>2018-09-15T20:18:04Z</time>
      </trkpt>
      <trkpt lat="-24.7195900" lon="-53.7497380">
        <ele>558.7</ele>
        <time>2018-09-15T20:18:05Z</time>
      </trkpt>
      <trkpt lat="-24.7196160" lon="-53.7497240">
        <ele>558.8</ele>
        <time>2018-09-15T20:18:06Z</time>
      </trkpt>
      <trkpt lat="-24.7196420" lon="-53.7497130">
        <ele>558.8</ele>
        <time>2018-09-15T20:18:07Z</time>
      </trkpt>
      <trkpt lat="-24.7196670" lon="-53.7497040">
        <ele>558.8</ele>
        <time>2018-09-15T20:18:08Z</time>
      </trkpt>
      <trkpt lat="-24.7196920" lon="-53.7496980">
        <ele>558.9</ele>
        <time>2018-09-15T20:18:09Z</time>
      </trkpt>
      <trkpt lat="-24.7197150" lon="-53.7496970">
        <ele>558.9</ele>
        <time>2018-09-15T20:18:10Z</time>
      </trkpt>
      <trkpt lat="-24.7197350" lon="-53.7496980">
        <ele>558.9</ele>
        <time>2018-09-15T20:18:11Z</time>
      </trkpt>
      <trkpt lat="-24.7197520" lon="-53.7496960">
        <ele>559.0</ele>
        <time>2018-09-15T20:18:12Z</time>
      </trkpt>
      <trkpt lat="-24.7197640" lon="-53.7496930">
        <ele>559.0</ele>
        <time>2018-09-15T20:18:13Z</time>
      </trkpt>
      <trkpt lat="-24.7197760" lon="-53.7496870">
        <ele>559.0</ele>
        <time>2018-09-15T20:18:14Z</time>
      </trkpt>
      <trkpt lat="-24.7197920" lon="-53.7496820">
        <ele>559.0</ele>
        <time>2018-09-15T20:18:15Z</time>
      </trkpt>
      <trkpt lat="-24.7198110" lon="-53.7496780">
        <ele>559.0</ele>
        <time>2018-09-15T20:18:16Z</time>
      </trkpt>
      <trkpt lat="-24.7198320" lon="-53.7496720">
        <ele>559.0</ele>
        <time>2018-09-15T20:18:17Z</time>
      </trkpt>
      <trkpt lat="-24.7198540" lon="-53.7496650">
        <ele>559.0</ele>
        <time>2018-09-15T20:18:18Z</time>
      </trkpt>
      <trkpt lat="-24.7198790" lon="-53.7496580">
        <ele>559.0</ele>
        <time>2018-09-15T20:18:19Z</time>
      </trkpt>
      <trkpt lat="-24.7199070" lon="-53.7496550">
        <ele>559.0</ele>
        <time>2018-09-15T20:18:20Z</time>
      </trkpt>
      <trkpt lat="-24.7199380" lon="-53.7496550">
        <ele>559.0</ele>
        <time>2018-09-15T20:18:21Z</time>
      </trkpt>
      <trkpt lat="-24.7199710" lon="-53.7496530">
        <ele>559.2</ele>
        <time>2018-09-15T20:18:22Z</time>
      </trkpt>
      <trkpt lat="-24.7200060" lon="-53.7496530">
        <ele>559.4</ele>
        <time>2018-09-15T20:18:23Z</time>
      </trkpt>
      <trkpt lat="-24.7200440" lon="-53.7496500">
        <ele>559.7</ele>
        <time>2018-09-15T20:18:24Z</time>
      </trkpt>
      <trkpt lat="-24.7200790" lon="-53.7496470">
        <ele>559.9</ele>
        <time>2018-09-15T20:18:25Z</time>
      </trkpt>
      <trkpt lat="-24.7201100" lon="-53.7496450">
        <ele>560.7</ele>
        <time>2018-09-15T20:18:26Z</time>
      </trkpt>
      <trkpt lat="-24.7201390" lon="-53.7496430">
        <ele>561.0</ele>
        <time>2018-09-15T20:18:27Z</time>
      </trkpt>
      <trkpt lat="-24.7201660" lon="-53.7496410">
        <ele>561.3</ele>
        <time>2018-09-15T20:18:28Z</time>
      </trkpt>
      <trkpt lat="-24.7201920" lon="-53.7496400">
        <ele>561.6</ele>
        <time>2018-09-15T20:18:29Z</time>
      </trkpt>
      <trkpt lat="-24.7202160" lon="-53.7496390">
        <ele>561.9</ele>
        <time>2018-09-15T20:18:30Z</time>
      </trkpt>
      <trkpt lat="-24.7202380" lon="-53.7496400">
        <ele>562.1</ele>
        <time>2018-09-15T20:18:31Z</time>
      </trkpt>
      <trkpt lat="-24.7202620" lon="-53.7496410">
        <ele>562.4</ele>
        <time>2018-09-15T20:18:32Z</time>
      </trkpt>
      <trkpt lat="-24.7202850" lon="-53.7496460">
        <ele>562.6</ele>
        <time>2018-09-15T20:18:33Z</time>
      </trkpt>
      <trkpt lat="-24.7203110" lon="-53.7496510">
        <ele>562.8</ele>
        <time>2018-09-15T20:18:34Z</time>
      </trkpt>
      <trkpt lat="-24.7203380" lon="-53.7496540">
        <ele>563.1</ele>
        <time>2018-09-15T20:18:35Z</time>
      </trkpt>
      <trkpt lat="-24.7203640" lon="-53.7496560">
        <ele>563.3</ele>
        <time>2018-09-15T20:18:36Z</time>
      </trkpt>
      <trkpt lat="-24.7203910" lon="-53.7496560">
        <ele>563.5</ele>
        <time>2018-09-15T20:18:37Z</time>
      </trkpt>
      <trkpt lat="-24.7204140" lon="-53.7496670">
        <ele>563.7</ele>
        <time>2018-09-15T20:18:38Z</time>
      </trkpt>
      <trkpt lat="-24.7204400" lon="-53.7496720">
        <ele>563.9</ele>
        <time>2018-09-15T20:18:39Z</time>
      </trkpt>
      <trkpt lat="-24.7204690" lon="-53.7496720">
        <ele>564.1</ele>
        <time>2018-09-15T20:18:40Z</time>
      </trkpt>
      <trkpt lat="-24.7205240" lon="-53.7496760">
        <ele>564.4</ele>
        <time>2018-09-15T20:18:41Z</time>
      </trkpt>
      <trkpt lat="-24.7205510" lon="-53.7496770">
        <ele>564.5</ele>
        <time>2018-09-15T20:18:42Z</time>
      </trkpt>
      <trkpt lat="-24.7205790" lon="-53.7496790">
        <ele>564.6</ele>
        <time>2018-09-15T20:18:43Z</time>
      </trkpt>
      <trkpt lat="-24.7206060" lon="-53.7496800">
        <ele>564.7</ele>
        <time>2018-09-15T20:18:44Z</time>
      </trkpt>
      <trkpt lat="-24.7206570" lon="-53.7496810">
        <ele>564.8</ele>
        <time>2018-09-15T20:18:46Z</time>
      </trkpt>
      <trkpt lat="-24.7206820" lon="-53.7496820">
        <ele>564.9</ele>
        <time>2018-09-15T20:18:47Z</time>
      </trkpt>
      <trkpt lat="-24.7207070" lon="-53.7496820">
        <ele>565.0</ele>
        <time>2018-09-15T20:18:48Z</time>
      </trkpt>
      <trkpt lat="-24.7207320" lon="-53.7496800">
        <ele>565.1</ele>
        <time>2018-09-15T20:18:49Z</time>
      </trkpt>
      <trkpt lat="-24.7207540" lon="-53.7496800">
        <ele>565.1</ele>
        <time>2018-09-15T20:18:50Z</time>
      </trkpt>
      <trkpt lat="-24.7207780" lon="-53.7496780">
        <ele>565.2</ele>
        <time>2018-09-15T20:18:51Z</time>
      </trkpt>
      <trkpt lat="-24.7208020" lon="-53.7496790">
        <ele>565.4</ele>
        <time>2018-09-15T20:18:52Z</time>
      </trkpt>
      <trkpt lat="-24.7208270" lon="-53.7496810">
        <ele>565.5</ele>
        <time>2018-09-15T20:18:53Z</time>
      </trkpt>
      <trkpt lat="-24.7208510" lon="-53.7496860">
        <ele>565.7</ele>
        <time>2018-09-15T20:18:54Z</time>
      </trkpt>
      <trkpt lat="-24.7208780" lon="-53.7496860">
        <ele>565.9</ele>
        <time>2018-09-15T20:18:55Z</time>
      </trkpt>
      <trkpt lat="-24.7209060" lon="-53.7496860">
        <ele>566.0</ele>
        <time>2018-09-15T20:18:56Z</time>
      </trkpt>
      <trkpt lat="-24.7209310" lon="-53.7496850">
        <ele>566.2</ele>
        <time>2018-09-15T20:18:57Z</time>
      </trkpt>
      <trkpt lat="-24.7209560" lon="-53.7496850">
        <ele>566.4</ele>
        <time>2018-09-15T20:18:58Z</time>
      </trkpt>
      <trkpt lat="-24.7209790" lon="-53.7496840">
        <ele>566.5</ele>
        <time>2018-09-15T20:18:59Z</time>
      </trkpt>
      <trkpt lat="-24.7210040" lon="-53.7496820">
        <ele>566.7</ele>
        <time>2018-09-15T20:19:00Z</time>
      </trkpt>
      <trkpt lat="-24.7210290" lon="-53.7496780">
        <ele>566.9</ele>
        <time>2018-09-15T20:19:01Z</time>
      </trkpt>
      <trkpt lat="-24.7210540" lon="-53.7496740">
        <ele>567.0</ele>
        <time>2018-09-15T20:19:02Z</time>
      </trkpt>
      <trkpt lat="-24.7210800" lon="-53.7496700">
        <ele>567.2</ele>
        <time>2018-09-15T20:19:03Z</time>
      </trkpt>
      <trkpt lat="-24.7211040" lon="-53.7496700">
        <ele>567.2</ele>
        <time>2018-09-15T20:19:04Z</time>
      </trkpt>
      <trkpt lat="-24.7211480" lon="-53.7496670">
        <ele>567.4</ele>
        <time>2018-09-15T20:19:06Z</time>
      </trkpt>
      <trkpt lat="-24.7211710" lon="-53.7496660">
        <ele>567.4</ele>
        <time>2018-09-15T20:19:07Z</time>
      </trkpt>
      <trkpt lat="-24.7211930" lon="-53.7496650">
        <ele>567.5</ele>
        <time>2018-09-15T20:19:08Z</time>
      </trkpt>
      <trkpt lat="-24.7212150" lon="-53.7496650">
        <ele>567.6</ele>
        <time>2018-09-15T20:19:09Z</time>
      </trkpt>
      <trkpt lat="-24.7212390" lon="-53.7496640">
        <ele>567.6</ele>
        <time>2018-09-15T20:19:10Z</time>
      </trkpt>
      <trkpt lat="-24.7212630" lon="-53.7496660">
        <ele>567.7</ele>
        <time>2018-09-15T20:19:11Z</time>
      </trkpt>
      <trkpt lat="-24.7212870" lon="-53.7496700">
        <ele>567.8</ele>
        <time>2018-09-15T20:19:12Z</time>
      </trkpt>
      <trkpt lat="-24.7213120" lon="-53.7496720">
        <ele>567.9</ele>
        <time>2018-09-15T20:19:13Z</time>
      </trkpt>
      <trkpt lat="-24.7213370" lon="-53.7496730">
        <ele>567.9</ele>
        <time>2018-09-15T20:19:14Z</time>
      </trkpt>
      <trkpt lat="-24.7213610" lon="-53.7496770">
        <ele>568.0</ele>
        <time>2018-09-15T20:19:15Z</time>
      </trkpt>
      <trkpt lat="-24.7213860" lon="-53.7496750">
        <ele>568.2</ele>
        <time>2018-09-15T20:19:16Z</time>
      </trkpt>
      <trkpt lat="-24.7213860" lon="-53.7496750">
        <ele>568.2</ele>
        <time>2018-09-15T20:19:17Z</time>
      </trkpt>
      <trkpt lat="-24.7214090" lon="-53.7496750">
        <ele>568.4</ele>
        <time>2018-09-15T20:19:18Z</time>
      </trkpt>
      <trkpt lat="-24.7214330" lon="-53.7496770">
        <ele>568.6</ele>
        <time>2018-09-15T20:19:19Z</time>
      </trkpt>
      <trkpt lat="-24.7214870" lon="-53.7496740">
        <ele>568.9</ele>
        <time>2018-09-15T20:19:20Z</time>
      </trkpt>
      <trkpt lat="-24.7215110" lon="-53.7496750">
        <ele>569.1</ele>
        <time>2018-09-15T20:19:21Z</time>
      </trkpt>
      <trkpt lat="-24.7215110" lon="-53.7496750">
        <ele>569.1</ele>
        <time>2018-09-15T20:19:22Z</time>
      </trkpt>
      <trkpt lat="-24.7215360" lon="-53.7496740">
        <ele>569.3</ele>
        <time>2018-09-15T20:19:23Z</time>
      </trkpt>
      <trkpt lat="-24.7215630" lon="-53.7496730">
        <ele>569.5</ele>
        <time>2018-09-15T20:19:24Z</time>
      </trkpt>
      <trkpt lat="-24.7215890" lon="-53.7496720">
        <ele>569.6</ele>
        <time>2018-09-15T20:19:25Z</time>
      </trkpt>
      <trkpt lat="-24.7216140" lon="-53.7496720">
        <ele>569.7</ele>
        <time>2018-09-15T20:19:26Z</time>
      </trkpt>
      <trkpt lat="-24.7216370" lon="-53.7496740">
        <ele>569.8</ele>
        <time>2018-09-15T20:19:27Z</time>
      </trkpt>
      <trkpt lat="-24.7216600" lon="-53.7496770">
        <ele>569.9</ele>
        <time>2018-09-15T20:19:28Z</time>
      </trkpt>
      <trkpt lat="-24.7216840" lon="-53.7496780">
        <ele>569.9</ele>
        <time>2018-09-15T20:19:29Z</time>
      </trkpt>
      <trkpt lat="-24.7217070" lon="-53.7496810">
        <ele>570.0</ele>
        <time>2018-09-15T20:19:30Z</time>
      </trkpt>
      <trkpt lat="-24.7217330" lon="-53.7496820">
        <ele>570.1</ele>
        <time>2018-09-15T20:19:31Z</time>
      </trkpt>
      <trkpt lat="-24.7217570" lon="-53.7496840">
        <ele>570.2</ele>
        <time>2018-09-15T20:19:32Z</time>
      </trkpt>
      <trkpt lat="-24.7217830" lon="-53.7496840">
        <ele>570.3</ele>
        <time>2018-09-15T20:19:33Z</time>
      </trkpt>
      <trkpt lat="-24.7218090" lon="-53.7496840">
        <ele>570.4</ele>
        <time>2018-09-15T20:19:34Z</time>
      </trkpt>
      <trkpt lat="-24.7218350" lon="-53.7496830">
        <ele>570.5</ele>
        <time>2018-09-15T20:19:35Z</time>
      </trkpt>
      <trkpt lat="-24.7218600" lon="-53.7496820">
        <ele>570.5</ele>
        <time>2018-09-15T20:19:36Z</time>
      </trkpt>
      <trkpt lat="-24.7218850" lon="-53.7496790">
        <ele>570.6</ele>
        <time>2018-09-15T20:19:37Z</time>
      </trkpt>
      <trkpt lat="-24.7219120" lon="-53.7496740">
        <ele>570.7</ele>
        <time>2018-09-15T20:19:38Z</time>
      </trkpt>
      <trkpt lat="-24.7219370" lon="-53.7496720">
        <ele>570.8</ele>
        <time>2018-09-15T20:19:39Z</time>
      </trkpt>
      <trkpt lat="-24.7219620" lon="-53.7496700">
        <ele>570.9</ele>
        <time>2018-09-15T20:19:40Z</time>
      </trkpt>
      <trkpt lat="-24.7219860" lon="-53.7496730">
        <ele>570.9</ele>
        <time>2018-09-15T20:19:41Z</time>
      </trkpt>
      <trkpt lat="-24.7220120" lon="-53.7496760">
        <ele>571.0</ele>
        <time>2018-09-15T20:19:42Z</time>
      </trkpt>
      <trkpt lat="-24.7220380" lon="-53.7496770">
        <ele>571.1</ele>
        <time>2018-09-15T20:19:43Z</time>
      </trkpt>
      <trkpt lat="-24.7220660" lon="-53.7496780">
        <ele>571.2</ele>
        <time>2018-09-15T20:19:44Z</time>
      </trkpt>
      <trkpt lat="-24.7220940" lon="-53.7496780">
        <ele>571.2</ele>
        <time>2018-09-15T20:19:45Z</time>
      </trkpt>
      <trkpt lat="-24.7221220" lon="-53.7496780">
        <ele>571.3</ele>
        <time>2018-09-15T20:19:46Z</time>
      </trkpt>
      <trkpt lat="-24.7221500" lon="-53.7496800">
        <ele>571.4</ele>
        <time>2018-09-15T20:19:47Z</time>
      </trkpt>
      <trkpt lat="-24.7221790" lon="-53.7496810">
        <ele>571.5</ele>
        <time>2018-09-15T20:19:48Z</time>
      </trkpt>
      <trkpt lat="-24.7222070" lon="-53.7496830">
        <ele>571.5</ele>
        <time>2018-09-15T20:19:49Z</time>
      </trkpt>
      <trkpt lat="-24.7222340" lon="-53.7496840">
        <ele>571.6</ele>
        <time>2018-09-15T20:19:50Z</time>
      </trkpt>
      <trkpt lat="-24.7222610" lon="-53.7496840">
        <ele>571.7</ele>
        <time>2018-09-15T20:19:51Z</time>
      </trkpt>
      <trkpt lat="-24.7222890" lon="-53.7496830">
        <ele>571.8</ele>
        <time>2018-09-15T20:19:52Z</time>
      </trkpt>
      <trkpt lat="-24.7223160" lon="-53.7496810">
        <ele>571.8</ele>
        <time>2018-09-15T20:19:53Z</time>
      </trkpt>
      <trkpt lat="-24.7223450" lon="-53.7496840">
        <ele>571.9</ele>
        <time>2018-09-15T20:19:54Z</time>
      </trkpt>
      <trkpt lat="-24.7223740" lon="-53.7496870">
        <ele>572.0</ele>
        <time>2018-09-15T20:19:55Z</time>
      </trkpt>
      <trkpt lat="-24.7224030" lon="-53.7496900">
        <ele>572.1</ele>
        <time>2018-09-15T20:19:56Z</time>
      </trkpt>
      <trkpt lat="-24.7224300" lon="-53.7496930">
        <ele>572.2</ele>
        <time>2018-09-15T20:19:57Z</time>
      </trkpt>
      <trkpt lat="-24.7224590" lon="-53.7496930">
        <ele>572.2</ele>
        <time>2018-09-15T20:19:58Z</time>
      </trkpt>
      <trkpt lat="-24.7224870" lon="-53.7496920">
        <ele>572.3</ele>
        <time>2018-09-15T20:19:59Z</time>
      </trkpt>
      <trkpt lat="-24.7225140" lon="-53.7496920">
        <ele>572.4</ele>
        <time>2018-09-15T20:20:00Z</time>
      </trkpt>
      <trkpt lat="-24.7225420" lon="-53.7496920">
        <ele>572.4</ele>
        <time>2018-09-15T20:20:01Z</time>
      </trkpt>
      <trkpt lat="-24.7225710" lon="-53.7496910">
        <ele>572.5</ele>
        <time>2018-09-15T20:20:02Z</time>
      </trkpt>
      <trkpt lat="-24.7226000" lon="-53.7496900">
        <ele>572.6</ele>
        <time>2018-09-15T20:20:03Z</time>
      </trkpt>
      <trkpt lat="-24.7226290" lon="-53.7496920">
        <ele>572.7</ele>
        <time>2018-09-15T20:20:04Z</time>
      </trkpt>
      <trkpt lat="-24.7226570" lon="-53.7496970">
        <ele>572.7</ele>
        <time>2018-09-15T20:20:05Z</time>
      </trkpt>
      <trkpt lat="-24.7226850" lon="-53.7496990">
        <ele>572.8</ele>
        <time>2018-09-15T20:20:06Z</time>
      </trkpt>
      <trkpt lat="-24.7227120" lon="-53.7496970">
        <ele>572.9</ele>
        <time>2018-09-15T20:20:07Z</time>
      </trkpt>
      <trkpt lat="-24.7227400" lon="-53.7496960">
        <ele>573.0</ele>
        <time>2018-09-15T20:20:08Z</time>
      </trkpt>
      <trkpt lat="-24.7227660" lon="-53.7496950">
        <ele>573.0</ele>
        <time>2018-09-15T20:20:09Z</time>
      </trkpt>
      <trkpt lat="-24.7227940" lon="-53.7496950">
        <ele>573.1</ele>
        <time>2018-09-15T20:20:10Z</time>
      </trkpt>
      <trkpt lat="-24.7228220" lon="-53.7496940">
        <ele>573.3</ele>
        <time>2018-09-15T20:20:11Z</time>
      </trkpt>
      <trkpt lat="-24.7228500" lon="-53.7496950">
        <ele>573.4</ele>
        <time>2018-09-15T20:20:12Z</time>
      </trkpt>
      <trkpt lat="-24.7228780" lon="-53.7496960">
        <ele>573.6</ele>
        <time>2018-09-15T20:20:13Z</time>
      </trkpt>
      <trkpt lat="-24.7229060" lon="-53.7496980">
        <ele>573.7</ele>
        <time>2018-09-15T20:20:14Z</time>
      </trkpt>
      <trkpt lat="-24.7229340" lon="-53.7496980">
        <ele>573.9</ele>
        <time>2018-09-15T20:20:15Z</time>
      </trkpt>
      <trkpt lat="-24.7229630" lon="-53.7497000">
        <ele>574.1</ele>
        <time>2018-09-15T20:20:16Z</time>
      </trkpt>
      <trkpt lat="-24.7229920" lon="-53.7497010">
        <ele>574.2</ele>
        <time>2018-09-15T20:20:17Z</time>
      </trkpt>
      <trkpt lat="-24.7230200" lon="-53.7497020">
        <ele>574.4</ele>
        <time>2018-09-15T20:20:18Z</time>
      </trkpt>
      <trkpt lat="-24.7230490" lon="-53.7497010">
        <ele>574.5</ele>
        <time>2018-09-15T20:20:19Z</time>
      </trkpt>
      <trkpt lat="-24.7230780" lon="-53.7497010">
        <ele>574.7</ele>
        <time>2018-09-15T20:20:20Z</time>
      </trkpt>
      <trkpt lat="-24.7231070" lon="-53.7497010">
        <ele>574.8</ele>
        <time>2018-09-15T20:20:21Z</time>
      </trkpt>
      <trkpt lat="-24.7231370" lon="-53.7497000">
        <ele>575.0</ele>
        <time>2018-09-15T20:20:22Z</time>
      </trkpt>
      <trkpt lat="-24.7231650" lon="-53.7497010">
        <ele>575.0</ele>
        <time>2018-09-15T20:20:23Z</time>
      </trkpt>
      <trkpt lat="-24.7231940" lon="-53.7497010">
        <ele>575.0</ele>
        <time>2018-09-15T20:20:24Z</time>
      </trkpt>
      <trkpt lat="-24.7232220" lon="-53.7497010">
        <ele>575.0</ele>
        <time>2018-09-15T20:20:25Z</time>
      </trkpt>
      <trkpt lat="-24.7232510" lon="-53.7497020">
        <ele>575.0</ele>
        <time>2018-09-15T20:20:26Z</time>
      </trkpt>
      <trkpt lat="-24.7232810" lon="-53.7496990">
        <ele>574.9</ele>
        <time>2018-09-15T20:20:27Z</time>
      </trkpt>
      <trkpt lat="-24.7233100" lon="-53.7496980">
        <ele>574.9</ele>
        <time>2018-09-15T20:20:28Z</time>
      </trkpt>
      <trkpt lat="-24.7233390" lon="-53.7496960">
        <ele>574.9</ele>
        <time>2018-09-15T20:20:29Z</time>
      </trkpt>
      <trkpt lat="-24.7233670" lon="-53.7496970">
        <ele>574.9</ele>
        <time>2018-09-15T20:20:30Z</time>
      </trkpt>
      <trkpt lat="-24.7233960" lon="-53.7496950">
        <ele>574.9</ele>
        <time>2018-09-15T20:20:31Z</time>
      </trkpt>
      <trkpt lat="-24.7234240" lon="-53.7496920">
        <ele>574.9</ele>
        <time>2018-09-15T20:20:32Z</time>
      </trkpt>
      <trkpt lat="-24.7234530" lon="-53.7496880">
        <ele>574.9</ele>
        <time>2018-09-15T20:20:33Z</time>
      </trkpt>
      <trkpt lat="-24.7234810" lon="-53.7496890">
        <ele>574.9</ele>
        <time>2018-09-15T20:20:34Z</time>
      </trkpt>
      <trkpt lat="-24.7235100" lon="-53.7496920">
        <ele>574.8</ele>
        <time>2018-09-15T20:20:35Z</time>
      </trkpt>
      <trkpt lat="-24.7235390" lon="-53.7496970">
        <ele>574.8</ele>
        <time>2018-09-15T20:20:36Z</time>
      </trkpt>
      <trkpt lat="-24.7235680" lon="-53.7497020">
        <ele>574.8</ele>
        <time>2018-09-15T20:20:37Z</time>
      </trkpt>
      <trkpt lat="-24.7235990" lon="-53.7497030">
        <ele>574.8</ele>
        <time>2018-09-15T20:20:38Z</time>
      </trkpt>
      <trkpt lat="-24.7236280" lon="-53.7497020">
        <ele>574.8</ele>
        <time>2018-09-15T20:20:39Z</time>
      </trkpt>
      <trkpt lat="-24.7236550" lon="-53.7497030">
        <ele>574.8</ele>
        <time>2018-09-15T20:20:40Z</time>
      </trkpt>
      <trkpt lat="-24.7236850" lon="-53.7497050">
        <ele>574.8</ele>
        <time>2018-09-15T20:20:41Z</time>
      </trkpt>
      <trkpt lat="-24.7237150" lon="-53.7497060">
        <ele>574.8</ele>
        <time>2018-09-15T20:20:42Z</time>
      </trkpt>
      <trkpt lat="-24.7237430" lon="-53.7497050">
        <ele>574.8</ele>
        <time>2018-09-15T20:20:43Z</time>
      </trkpt>
      <trkpt lat="-24.7237720" lon="-53.7497050">
        <ele>574.7</ele>
        <time>2018-09-15T20:20:44Z</time>
      </trkpt>
      <trkpt lat="-24.7237990" lon="-53.7497030">
        <ele>574.7</ele>
        <time>2018-09-15T20:20:45Z</time>
      </trkpt>
      <trkpt lat="-24.7238270" lon="-53.7497030">
        <ele>574.7</ele>
        <time>2018-09-15T20:20:46Z</time>
      </trkpt>
      <trkpt lat="-24.7238540" lon="-53.7497000">
        <ele>574.8</ele>
        <time>2018-09-15T20:20:47Z</time>
      </trkpt>
      <trkpt lat="-24.7238820" lon="-53.7496950">
        <ele>574.8</ele>
        <time>2018-09-15T20:20:48Z</time>
      </trkpt>
      <trkpt lat="-24.7239110" lon="-53.7496920">
        <ele>574.8</ele>
        <time>2018-09-15T20:20:49Z</time>
      </trkpt>
      <trkpt lat="-24.7239400" lon="-53.7496910">
        <ele>574.8</ele>
        <time>2018-09-15T20:20:50Z</time>
      </trkpt>
      <trkpt lat="-24.7239680" lon="-53.7496930">
        <ele>574.8</ele>
        <time>2018-09-15T20:20:51Z</time>
      </trkpt>
      <trkpt lat="-24.7239980" lon="-53.7496960">
        <ele>574.9</ele>
        <time>2018-09-15T20:20:52Z</time>
      </trkpt>
      <trkpt lat="-24.7240280" lon="-53.7497010">
        <ele>574.9</ele>
        <time>2018-09-15T20:20:53Z</time>
      </trkpt>
      <trkpt lat="-24.7240580" lon="-53.7497070">
        <ele>574.9</ele>
        <time>2018-09-15T20:20:54Z</time>
      </trkpt>
      <trkpt lat="-24.7240890" lon="-53.7497100">
        <ele>574.9</ele>
        <time>2018-09-15T20:20:55Z</time>
      </trkpt>
      <trkpt lat="-24.7241200" lon="-53.7497130">
        <ele>575.0</ele>
        <time>2018-09-15T20:20:56Z</time>
      </trkpt>
      <trkpt lat="-24.7241500" lon="-53.7497160">
        <ele>575.0</ele>
        <time>2018-09-15T20:20:57Z</time>
      </trkpt>
      <trkpt lat="-24.7241800" lon="-53.7497160">
        <ele>575.0</ele>
        <time>2018-09-15T20:20:58Z</time>
      </trkpt>
      <trkpt lat="-24.7242110" lon="-53.7497150">
        <ele>575.0</ele>
        <time>2018-09-15T20:20:59Z</time>
      </trkpt>
      <trkpt lat="-24.7242390" lon="-53.7497160">
        <ele>575.0</ele>
        <time>2018-09-15T20:21:00Z</time>
      </trkpt>
      <trkpt lat="-24.7242670" lon="-53.7497180">
        <ele>575.0</ele>
        <time>2018-09-15T20:21:01Z</time>
      </trkpt>
      <trkpt lat="-24.7242940" lon="-53.7497190">
        <ele>575.0</ele>
        <time>2018-09-15T20:21:02Z</time>
      </trkpt>
      <trkpt lat="-24.7243220" lon="-53.7497210">
        <ele>575.0</ele>
        <time>2018-09-15T20:21:03Z</time>
      </trkpt>
      <trkpt lat="-24.7243500" lon="-53.7497210">
        <ele>575.0</ele>
        <time>2018-09-15T20:21:04Z</time>
      </trkpt>
      <trkpt lat="-24.7243770" lon="-53.7497210">
        <ele>575.0</ele>
        <time>2018-09-15T20:21:05Z</time>
      </trkpt>
      <trkpt lat="-24.7244050" lon="-53.7497200">
        <ele>575.0</ele>
        <time>2018-09-15T20:21:06Z</time>
      </trkpt>
      <trkpt lat="-24.7244340" lon="-53.7497190">
        <ele>575.0</ele>
        <time>2018-09-15T20:21:07Z</time>
      </trkpt>
      <trkpt lat="-24.7244640" lon="-53.7497190">
        <ele>575.0</ele>
        <time>2018-09-15T20:21:08Z</time>
      </trkpt>
      <trkpt lat="-24.7244930" lon="-53.7497180">
        <ele>575.1</ele>
        <time>2018-09-15T20:21:09Z</time>
      </trkpt>
      <trkpt lat="-24.7245220" lon="-53.7497180">
        <ele>575.1</ele>
        <time>2018-09-15T20:21:10Z</time>
      </trkpt>
      <trkpt lat="-24.7245520" lon="-53.7497180">
        <ele>575.1</ele>
        <time>2018-09-15T20:21:11Z</time>
      </trkpt>
      <trkpt lat="-24.7245810" lon="-53.7497190">
        <ele>575.1</ele>
        <time>2018-09-15T20:21:12Z</time>
      </trkpt>
      <trkpt lat="-24.7246120" lon="-53.7497180">
        <ele>575.1</ele>
        <time>2018-09-15T20:21:13Z</time>
      </trkpt>
      <trkpt lat="-24.7246420" lon="-53.7497170">
        <ele>575.1</ele>
        <time>2018-09-15T20:21:14Z</time>
      </trkpt>
      <trkpt lat="-24.7246730" lon="-53.7497160">
        <ele>575.1</ele>
        <time>2018-09-15T20:21:15Z</time>
      </trkpt>
      <trkpt lat="-24.7247040" lon="-53.7497130">
        <ele>575.2</ele>
        <time>2018-09-15T20:21:16Z</time>
      </trkpt>
      <trkpt lat="-24.7247340" lon="-53.7497110">
        <ele>575.2</ele>
        <time>2018-09-15T20:21:17Z</time>
      </trkpt>
      <trkpt lat="-24.7247630" lon="-53.7497070">
        <ele>575.3</ele>
        <time>2018-09-15T20:21:18Z</time>
      </trkpt>
      <trkpt lat="-24.7247930" lon="-53.7497050">
        <ele>575.3</ele>
        <time>2018-09-15T20:21:19Z</time>
      </trkpt>
      <trkpt lat="-24.7248230" lon="-53.7497050">
        <ele>575.3</ele>
        <time>2018-09-15T20:21:20Z</time>
      </trkpt>
      <trkpt lat="-24.7248540" lon="-53.7497050">
        <ele>575.4</ele>
        <time>2018-09-15T20:21:21Z</time>
      </trkpt>
      <trkpt lat="-24.7248850" lon="-53.7497060">
        <ele>575.4</ele>
        <time>2018-09-15T20:21:22Z</time>
      </trkpt>
      <trkpt lat="-24.7249160" lon="-53.7497060">
        <ele>575.4</ele>
        <time>2018-09-15T20:21:23Z</time>
      </trkpt>
      <trkpt lat="-24.7249470" lon="-53.7497070">
        <ele>575.5</ele>
        <time>2018-09-15T20:21:24Z</time>
      </trkpt>
      <trkpt lat="-24.7249770" lon="-53.7497060">
        <ele>575.5</ele>
        <time>2018-09-15T20:21:25Z</time>
      </trkpt>
      <trkpt lat="-24.7250080" lon="-53.7497070">
        <ele>575.6</ele>
        <time>2018-09-15T20:21:26Z</time>
      </trkpt>
      <trkpt lat="-24.7250390" lon="-53.7497090">
        <ele>575.8</ele>
        <time>2018-09-15T20:21:27Z</time>
      </trkpt>
      <trkpt lat="-24.7250710" lon="-53.7497090">
        <ele>576.0</ele>
        <time>2018-09-15T20:21:28Z</time>
      </trkpt>
      <trkpt lat="-24.7251020" lon="-53.7497080">
        <ele>576.2</ele>
        <time>2018-09-15T20:21:29Z</time>
      </trkpt>
      <trkpt lat="-24.7251330" lon="-53.7497080">
        <ele>576.4</ele>
        <time>2018-09-15T20:21:30Z</time>
      </trkpt>
      <trkpt lat="-24.7251620" lon="-53.7497090">
        <ele>576.6</ele>
        <time>2018-09-15T20:21:31Z</time>
      </trkpt>
      <trkpt lat="-24.7251930" lon="-53.7497090">
        <ele>576.9</ele>
        <time>2018-09-15T20:21:32Z</time>
      </trkpt>
      <trkpt lat="-24.7252230" lon="-53.7497080">
        <ele>577.1</ele>
        <time>2018-09-15T20:21:33Z</time>
      </trkpt>
      <trkpt lat="-24.7252490" lon="-53.7497100">
        <ele>577.2</ele>
        <time>2018-09-15T20:21:34Z</time>
      </trkpt>
      <trkpt lat="-24.7252780" lon="-53.7497090">
        <ele>577.3</ele>
        <time>2018-09-15T20:21:35Z</time>
      </trkpt>
      <trkpt lat="-24.7253060" lon="-53.7497100">
        <ele>577.4</ele>
        <time>2018-09-15T20:21:36Z</time>
      </trkpt>
      <trkpt lat="-24.7253370" lon="-53.7497120">
        <ele>577.5</ele>
        <time>2018-09-15T20:21:37Z</time>
      </trkpt>
      <trkpt lat="-24.7253660" lon="-53.7497180">
        <ele>577.7</ele>
        <time>2018-09-15T20:21:38Z</time>
      </trkpt>
      <trkpt lat="-24.7253960" lon="-53.7497190">
        <ele>577.8</ele>
        <time>2018-09-15T20:21:39Z</time>
      </trkpt>
      <trkpt lat="-24.7254250" lon="-53.7497210">
        <ele>577.9</ele>
        <time>2018-09-15T20:21:40Z</time>
      </trkpt>
      <trkpt lat="-24.7254540" lon="-53.7497260">
        <ele>578.0</ele>
        <time>2018-09-15T20:21:41Z</time>
      </trkpt>
      <trkpt lat="-24.7254830" lon="-53.7497320">
        <ele>578.0</ele>
        <time>2018-09-15T20:21:42Z</time>
      </trkpt>
      <trkpt lat="-24.7255120" lon="-53.7497350">
        <ele>578.0</ele>
        <time>2018-09-15T20:21:43Z</time>
      </trkpt>
      <trkpt lat="-24.7255430" lon="-53.7497350">
        <ele>578.0</ele>
        <time>2018-09-15T20:21:44Z</time>
      </trkpt>
      <trkpt lat="-24.7255770" lon="-53.7497340">
        <ele>578.0</ele>
        <time>2018-09-15T20:21:45Z</time>
      </trkpt>
      <trkpt lat="-24.7256090" lon="-53.7497310">
        <ele>577.9</ele>
        <time>2018-09-15T20:21:46Z</time>
      </trkpt>
      <trkpt lat="-24.7256420" lon="-53.7497290">
        <ele>577.9</ele>
        <time>2018-09-15T20:21:47Z</time>
      </trkpt>
      <trkpt lat="-24.7256760" lon="-53.7497280">
        <ele>577.9</ele>
        <time>2018-09-15T20:21:48Z</time>
      </trkpt>
      <trkpt lat="-24.7257090" lon="-53.7497280">
        <ele>577.9</ele>
        <time>2018-09-15T20:21:49Z</time>
      </trkpt>
      <trkpt lat="-24.7257420" lon="-53.7497270">
        <ele>577.9</ele>
        <time>2018-09-15T20:21:50Z</time>
      </trkpt>
      <trkpt lat="-24.7257740" lon="-53.7497270">
        <ele>577.9</ele>
        <time>2018-09-15T20:21:51Z</time>
      </trkpt>
      <trkpt lat="-24.7258080" lon="-53.7497260">
        <ele>577.8</ele>
        <time>2018-09-15T20:21:52Z</time>
      </trkpt>
      <trkpt lat="-24.7258420" lon="-53.7497260">
        <ele>577.8</ele>
        <time>2018-09-15T20:21:53Z</time>
      </trkpt>
      <trkpt lat="-24.7258760" lon="-53.7497260">
        <ele>577.8</ele>
        <time>2018-09-15T20:21:54Z</time>
      </trkpt>
      <trkpt lat="-24.7259110" lon="-53.7497250">
        <ele>577.8</ele>
        <time>2018-09-15T20:21:55Z</time>
      </trkpt>
      <trkpt lat="-24.7259450" lon="-53.7497260">
        <ele>577.8</ele>
        <time>2018-09-15T20:21:56Z</time>
      </trkpt>
      <trkpt lat="-24.7259780" lon="-53.7497280">
        <ele>577.7</ele>
        <time>2018-09-15T20:21:57Z</time>
      </trkpt>
      <trkpt lat="-24.7260110" lon="-53.7497300">
        <ele>577.7</ele>
        <time>2018-09-15T20:21:58Z</time>
      </trkpt>
      <trkpt lat="-24.7260430" lon="-53.7497320">
        <ele>577.7</ele>
        <time>2018-09-15T20:21:59Z</time>
      </trkpt>
      <trkpt lat="-24.7260730" lon="-53.7497340">
        <ele>577.7</ele>
        <time>2018-09-15T20:22:00Z</time>
      </trkpt>
      <trkpt lat="-24.7261060" lon="-53.7497340">
        <ele>577.6</ele>
        <time>2018-09-15T20:22:01Z</time>
      </trkpt>
      <trkpt lat="-24.7261390" lon="-53.7497310">
        <ele>577.6</ele>
        <time>2018-09-15T20:22:02Z</time>
      </trkpt>
      <trkpt lat="-24.7261720" lon="-53.7497300">
        <ele>577.6</ele>
        <time>2018-09-15T20:22:03Z</time>
      </trkpt>
      <trkpt lat="-24.7262040" lon="-53.7497320">
        <ele>577.6</ele>
        <time>2018-09-15T20:22:04Z</time>
      </trkpt>
      <trkpt lat="-24.7262360" lon="-53.7497350">
        <ele>577.5</ele>
        <time>2018-09-15T20:22:05Z</time>
      </trkpt>
      <trkpt lat="-24.7262690" lon="-53.7497390">
        <ele>577.5</ele>
        <time>2018-09-15T20:22:06Z</time>
      </trkpt>
      <trkpt lat="-24.7263030" lon="-53.7497410">
        <ele>577.5</ele>
        <time>2018-09-15T20:22:07Z</time>
      </trkpt>
      <trkpt lat="-24.7263380" lon="-53.7497430">
        <ele>577.4</ele>
        <time>2018-09-15T20:22:08Z</time>
      </trkpt>
      <trkpt lat="-24.7263720" lon="-53.7497460">
        <ele>577.4</ele>
        <time>2018-09-15T20:22:09Z</time>
      </trkpt>
      <trkpt lat="-24.7264070" lon="-53.7497440">
        <ele>577.3</ele>
        <time>2018-09-15T20:22:10Z</time>
      </trkpt>
      <trkpt lat="-24.7264390" lon="-53.7497430">
        <ele>577.3</ele>
        <time>2018-09-15T20:22:11Z</time>
      </trkpt>
      <trkpt lat="-24.7264700" lon="-53.7497440">
        <ele>577.2</ele>
        <time>2018-09-15T20:22:12Z</time>
      </trkpt>
      <trkpt lat="-24.7265010" lon="-53.7497440">
        <ele>577.2</ele>
        <time>2018-09-15T20:22:13Z</time>
      </trkpt>
      <trkpt lat="-24.7265300" lon="-53.7497430">
        <ele>577.1</ele>
        <time>2018-09-15T20:22:14Z</time>
      </trkpt>
      <trkpt lat="-24.7265590" lon="-53.7497440">
        <ele>577.1</ele>
        <time>2018-09-15T20:22:15Z</time>
      </trkpt>
      <trkpt lat="-24.7265880" lon="-53.7497480">
        <ele>577.0</ele>
        <time>2018-09-15T20:22:16Z</time>
      </trkpt>
      <trkpt lat="-24.7266170" lon="-53.7497500">
        <ele>577.0</ele>
        <time>2018-09-15T20:22:17Z</time>
      </trkpt>
      <trkpt lat="-24.7266450" lon="-53.7497490">
        <ele>577.2</ele>
        <time>2018-09-15T20:22:18Z</time>
      </trkpt>
      <trkpt lat="-24.7266740" lon="-53.7497430">
        <ele>577.3</ele>
        <time>2018-09-15T20:22:19Z</time>
      </trkpt>
      <trkpt lat="-24.7267050" lon="-53.7497360">
        <ele>577.5</ele>
        <time>2018-09-15T20:22:20Z</time>
      </trkpt>
      <trkpt lat="-24.7267390" lon="-53.7497310">
        <ele>577.7</ele>
        <time>2018-09-15T20:22:21Z</time>
      </trkpt>
      <trkpt lat="-24.7267710" lon="-53.7497260">
        <ele>577.9</ele>
        <time>2018-09-15T20:22:22Z</time>
      </trkpt>
      <trkpt lat="-24.7268030" lon="-53.7497230">
        <ele>578.1</ele>
        <time>2018-09-15T20:22:23Z</time>
      </trkpt>
      <trkpt lat="-24.7268340" lon="-53.7497240">
        <ele>578.2</ele>
        <time>2018-09-15T20:22:24Z</time>
      </trkpt>
      <trkpt lat="-24.7268690" lon="-53.7497240">
        <ele>578.4</ele>
        <time>2018-09-15T20:22:25Z</time>
      </trkpt>
      <trkpt lat="-24.7269060" lon="-53.7497250">
        <ele>578.6</ele>
        <time>2018-09-15T20:22:26Z</time>
      </trkpt>
      <trkpt lat="-24.7269430" lon="-53.7497250">
        <ele>578.9</ele>
        <time>2018-09-15T20:22:27Z</time>
      </trkpt>
      <trkpt lat="-24.7269810" lon="-53.7497270">
        <ele>579.1</ele>
        <time>2018-09-15T20:22:28Z</time>
      </trkpt>
      <trkpt lat="-24.7270190" lon="-53.7497280">
        <ele>579.3</ele>
        <time>2018-09-15T20:22:29Z</time>
      </trkpt>
      <trkpt lat="-24.7270570" lon="-53.7497280">
        <ele>579.5</ele>
        <time>2018-09-15T20:22:30Z</time>
      </trkpt>
      <trkpt lat="-24.7270960" lon="-53.7497280">
        <ele>579.7</ele>
        <time>2018-09-15T20:22:31Z</time>
      </trkpt>
      <trkpt lat="-24.7271350" lon="-53.7497270">
        <ele>579.9</ele>
        <time>2018-09-15T20:22:32Z</time>
      </trkpt>
      <trkpt lat="-24.7271730" lon="-53.7497260">
        <ele>580.1</ele>
        <time>2018-09-15T20:22:33Z</time>
      </trkpt>
      <trkpt lat="-24.7272120" lon="-53.7497270">
        <ele>580.4</ele>
        <time>2018-09-15T20:22:34Z</time>
      </trkpt>
      <trkpt lat="-24.7272500" lon="-53.7497290">
        <ele>580.6</ele>
        <time>2018-09-15T20:22:35Z</time>
      </trkpt>
      <trkpt lat="-24.7272880" lon="-53.7497310">
        <ele>580.8</ele>
        <time>2018-09-15T20:22:36Z</time>
      </trkpt>
      <trkpt lat="-24.7273260" lon="-53.7497320">
        <ele>581.0</ele>
        <time>2018-09-15T20:22:37Z</time>
      </trkpt>
      <trkpt lat="-24.7273640" lon="-53.7497310">
        <ele>581.2</ele>
        <time>2018-09-15T20:22:38Z</time>
      </trkpt>
      <trkpt lat="-24.7274390" lon="-53.7497340">
        <ele>581.7</ele>
        <time>2018-09-15T20:22:39Z</time>
      </trkpt>
      <trkpt lat="-24.7275150" lon="-53.7497440">
        <ele>582.0</ele>
        <time>2018-09-15T20:22:41Z</time>
      </trkpt>
      <trkpt lat="-24.7275530" lon="-53.7497460">
        <ele>581.9</ele>
        <time>2018-09-15T20:22:42Z</time>
      </trkpt>
      <trkpt lat="-24.7275910" lon="-53.7497480">
        <ele>581.8</ele>
        <time>2018-09-15T20:22:43Z</time>
      </trkpt>
      <trkpt lat="-24.7276300" lon="-53.7497480">
        <ele>581.7</ele>
        <time>2018-09-15T20:22:44Z</time>
      </trkpt>
      <trkpt lat="-24.7276690" lon="-53.7497490">
        <ele>581.7</ele>
        <time>2018-09-15T20:22:45Z</time>
      </trkpt>
      <trkpt lat="-24.7277080" lon="-53.7497500">
        <ele>581.6</ele>
        <time>2018-09-15T20:22:46Z</time>
      </trkpt>
      <trkpt lat="-24.7277490" lon="-53.7497500">
        <ele>581.6</ele>
        <time>2018-09-15T20:22:47Z</time>
      </trkpt>
      <trkpt lat="-24.7277890" lon="-53.7497510">
        <ele>581.5</ele>
        <time>2018-09-15T20:22:48Z</time>
      </trkpt>
      <trkpt lat="-24.7278280" lon="-53.7497540">
        <ele>581.5</ele>
        <time>2018-09-15T20:22:49Z</time>
      </trkpt>
      <trkpt lat="-24.7278670" lon="-53.7497550">
        <ele>581.4</ele>
        <time>2018-09-15T20:22:50Z</time>
      </trkpt>
      <trkpt lat="-24.7279050" lon="-53.7497550">
        <ele>581.4</ele>
        <time>2018-09-15T20:22:51Z</time>
      </trkpt>
      <trkpt lat="-24.7279440" lon="-53.7497560">
        <ele>581.4</ele>
        <time>2018-09-15T20:22:52Z</time>
      </trkpt>
      <trkpt lat="-24.7279840" lon="-53.7497570">
        <ele>581.3</ele>
        <time>2018-09-15T20:22:53Z</time>
      </trkpt>
      <trkpt lat="-24.7280240" lon="-53.7497580">
        <ele>581.3</ele>
        <time>2018-09-15T20:22:54Z</time>
      </trkpt>
      <trkpt lat="-24.7280640" lon="-53.7497590">
        <ele>581.2</ele>
        <time>2018-09-15T20:22:55Z</time>
      </trkpt>
      <trkpt lat="-24.7281050" lon="-53.7497590">
        <ele>581.2</ele>
        <time>2018-09-15T20:22:56Z</time>
      </trkpt>
      <trkpt lat="-24.7281460" lon="-53.7497560">
        <ele>581.2</ele>
        <time>2018-09-15T20:22:57Z</time>
      </trkpt>
      <trkpt lat="-24.7281850" lon="-53.7497550">
        <ele>581.1</ele>
        <time>2018-09-15T20:22:58Z</time>
      </trkpt>
      <trkpt lat="-24.7282230" lon="-53.7497560">
        <ele>581.1</ele>
        <time>2018-09-15T20:22:59Z</time>
      </trkpt>
      <trkpt lat="-24.7282990" lon="-53.7497580">
        <ele>581.0</ele>
        <time>2018-09-15T20:23:01Z</time>
      </trkpt>
      <trkpt lat="-24.7283400" lon="-53.7497600">
        <ele>580.7</ele>
        <time>2018-09-15T20:23:02Z</time>
      </trkpt>
      <trkpt lat="-24.7283810" lon="-53.7497640">
        <ele>580.3</ele>
        <time>2018-09-15T20:23:03Z</time>
      </trkpt>
      <trkpt lat="-24.7284250" lon="-53.7497650">
        <ele>579.9</ele>
        <time>2018-09-15T20:23:04Z</time>
      </trkpt>
      <trkpt lat="-24.7284690" lon="-53.7497650">
        <ele>579.5</ele>
        <time>2018-09-15T20:23:05Z</time>
      </trkpt>
      <trkpt lat="-24.7285130" lon="-53.7497650">
        <ele>579.1</ele>
        <time>2018-09-15T20:23:06Z</time>
      </trkpt>
      <trkpt lat="-24.7285550" lon="-53.7497660">
        <ele>578.7</ele>
        <time>2018-09-15T20:23:07Z</time>
      </trkpt>
      <trkpt lat="-24.7285980" lon="-53.7497670">
        <ele>578.3</ele>
        <time>2018-09-15T20:23:08Z</time>
      </trkpt>
      <trkpt lat="-24.7286390" lon="-53.7497680">
        <ele>578.0</ele>
        <time>2018-09-15T20:23:09Z</time>
      </trkpt>
      <trkpt lat="-24.7286810" lon="-53.7497700">
        <ele>577.6</ele>
        <time>2018-09-15T20:23:10Z</time>
      </trkpt>
      <trkpt lat="-24.7287220" lon="-53.7497740">
        <ele>577.2</ele>
        <time>2018-09-15T20:23:11Z</time>
      </trkpt>
      <trkpt lat="-24.7287640" lon="-53.7497760">
        <ele>577.0</ele>
        <time>2018-09-15T20:23:12Z</time>
      </trkpt>
      <trkpt lat="-24.7288070" lon="-53.7497760">
        <ele>577.0</ele>
        <time>2018-09-15T20:23:13Z</time>
      </trkpt>
      <trkpt lat="-24.7288520" lon="-53.7497730">
        <ele>577.1</ele>
        <time>2018-09-15T20:23:14Z</time>
      </trkpt>
      <trkpt lat="-24.7288950" lon="-53.7497710">
        <ele>577.1</ele>
        <time>2018-09-15T20:23:15Z</time>
      </trkpt>
      <trkpt lat="-24.7288950" lon="-53.7497710">
        <ele>577.1</ele>
        <time>2018-09-15T20:23:16Z</time>
      </trkpt>
      <trkpt lat="-24.7289380" lon="-53.7497740">
        <ele>577.2</ele>
        <time>2018-09-15T20:23:17Z</time>
      </trkpt>
      <trkpt lat="-24.7289810" lon="-53.7497780">
        <ele>577.2</ele>
        <time>2018-09-15T20:23:18Z</time>
      </trkpt>
      <trkpt lat="-24.7290260" lon="-53.7497760">
        <ele>577.3</ele>
        <time>2018-09-15T20:23:19Z</time>
      </trkpt>
      <trkpt lat="-24.7291090" lon="-53.7497770">
        <ele>577.3</ele>
        <time>2018-09-15T20:23:20Z</time>
      </trkpt>
      <trkpt lat="-24.7291090" lon="-53.7497770">
        <ele>577.3</ele>
        <time>2018-09-15T20:23:21Z</time>
      </trkpt>
      <trkpt lat="-24.7291500" lon="-53.7497750">
        <ele>577.4</ele>
        <time>2018-09-15T20:23:22Z</time>
      </trkpt>
      <trkpt lat="-24.7291930" lon="-53.7497750">
        <ele>577.4</ele>
        <time>2018-09-15T20:23:23Z</time>
      </trkpt>
      <trkpt lat="-24.7292320" lon="-53.7497730">
        <ele>577.4</ele>
        <time>2018-09-15T20:23:24Z</time>
      </trkpt>
      <trkpt lat="-24.7292740" lon="-53.7497720">
        <ele>577.5</ele>
        <time>2018-09-15T20:23:25Z</time>
      </trkpt>
      <trkpt lat="-24.7293170" lon="-53.7497730">
        <ele>577.5</ele>
        <time>2018-09-15T20:23:26Z</time>
      </trkpt>
      <trkpt lat="-24.7293600" lon="-53.7497750">
        <ele>577.6</ele>
        <time>2018-09-15T20:23:27Z</time>
      </trkpt>
      <trkpt lat="-24.7294010" lon="-53.7497770">
        <ele>577.6</ele>
        <time>2018-09-15T20:23:28Z</time>
      </trkpt>
      <trkpt lat="-24.7294440" lon="-53.7497770">
        <ele>577.7</ele>
        <time>2018-09-15T20:23:29Z</time>
      </trkpt>
      <trkpt lat="-24.7294860" lon="-53.7497780">
        <ele>577.7</ele>
        <time>2018-09-15T20:23:30Z</time>
      </trkpt>
      <trkpt lat="-24.7295280" lon="-53.7497780">
        <ele>577.8</ele>
        <time>2018-09-15T20:23:31Z</time>
      </trkpt>
      <trkpt lat="-24.7295700" lon="-53.7497780">
        <ele>577.8</ele>
        <time>2018-09-15T20:23:32Z</time>
      </trkpt>
      <trkpt lat="-24.7296100" lon="-53.7497760">
        <ele>577.8</ele>
        <time>2018-09-15T20:23:33Z</time>
      </trkpt>
      <trkpt lat="-24.7296410" lon="-53.7497730">
        <ele>577.9</ele>
        <time>2018-09-15T20:23:34Z</time>
      </trkpt>
      <trkpt lat="-24.7296800" lon="-53.7497750">
        <ele>577.9</ele>
        <time>2018-09-15T20:23:35Z</time>
      </trkpt>
      <trkpt lat="-24.7297160" lon="-53.7497770">
        <ele>577.9</ele>
        <time>2018-09-15T20:23:36Z</time>
      </trkpt>
      <trkpt lat="-24.7297500" lon="-53.7497840">
        <ele>578.0</ele>
        <time>2018-09-15T20:23:37Z</time>
      </trkpt>
      <trkpt lat="-24.7297800" lon="-53.7497880">
        <ele>578.0</ele>
        <time>2018-09-15T20:23:38Z</time>
      </trkpt>
      <trkpt lat="-24.7298050" lon="-53.7497940">
        <ele>578.0</ele>
        <time>2018-09-15T20:23:39Z</time>
      </trkpt>
      <trkpt lat="-24.7298300" lon="-53.7497980">
        <ele>578.0</ele>
        <time>2018-09-15T20:23:40Z</time>
      </trkpt>
      <trkpt lat="-24.7298530" lon="-53.7498010">
        <ele>578.0</ele>
        <time>2018-09-15T20:23:41Z</time>
      </trkpt>
      <trkpt lat="-24.7298770" lon="-53.7498010">
        <ele>577.8</ele>
        <time>2018-09-15T20:23:42Z</time>
      </trkpt>
      <trkpt lat="-24.7299040" lon="-53.7497970">
        <ele>577.6</ele>
        <time>2018-09-15T20:23:43Z</time>
      </trkpt>
      <trkpt lat="-24.7299350" lon="-53.7497940">
        <ele>577.4</ele>
        <time>2018-09-15T20:23:44Z</time>
      </trkpt>
      <trkpt lat="-24.7299670" lon="-53.7497900">
        <ele>577.3</ele>
        <time>2018-09-15T20:23:45Z</time>
      </trkpt>
      <trkpt lat="-24.7299980" lon="-53.7497870">
        <ele>577.1</ele>
        <time>2018-09-15T20:23:46Z</time>
      </trkpt>
      <trkpt lat="-24.7300290" lon="-53.7497880">
        <ele>577.0</ele>
        <time>2018-09-15T20:23:47Z</time>
      </trkpt>
      <trkpt lat="-24.7300620" lon="-53.7497890">
        <ele>576.9</ele>
        <time>2018-09-15T20:23:48Z</time>
      </trkpt>
      <trkpt lat="-24.7300980" lon="-53.7497900">
        <ele>576.7</ele>
        <time>2018-09-15T20:23:49Z</time>
      </trkpt>
      <trkpt lat="-24.7301350" lon="-53.7497900">
        <ele>576.6</ele>
        <time>2018-09-15T20:23:50Z</time>
      </trkpt>
      <trkpt lat="-24.7301740" lon="-53.7497890">
        <ele>576.4</ele>
        <time>2018-09-15T20:23:51Z</time>
      </trkpt>
      <trkpt lat="-24.7302130" lon="-53.7497910">
        <ele>576.3</ele>
        <time>2018-09-15T20:23:52Z</time>
      </trkpt>
      <trkpt lat="-24.7302560" lon="-53.7497900">
        <ele>576.2</ele>
        <time>2018-09-15T20:23:53Z</time>
      </trkpt>
      <trkpt lat="-24.7302970" lon="-53.7497870">
        <ele>576.1</ele>
        <time>2018-09-15T20:23:54Z</time>
      </trkpt>
      <trkpt lat="-24.7303360" lon="-53.7497880">
        <ele>575.9</ele>
        <time>2018-09-15T20:23:55Z</time>
      </trkpt>
      <trkpt lat="-24.7303760" lon="-53.7497830">
        <ele>575.8</ele>
        <time>2018-09-15T20:23:56Z</time>
      </trkpt>
      <trkpt lat="-24.7304180" lon="-53.7497800">
        <ele>575.7</ele>
        <time>2018-09-15T20:23:57Z</time>
      </trkpt>
      <trkpt lat="-24.7304600" lon="-53.7497810">
        <ele>575.6</ele>
        <time>2018-09-15T20:23:58Z</time>
      </trkpt>
      <trkpt lat="-24.7305020" lon="-53.7497820">
        <ele>575.4</ele>
        <time>2018-09-15T20:23:59Z</time>
      </trkpt>
      <trkpt lat="-24.7305460" lon="-53.7497850">
        <ele>575.2</ele>
        <time>2018-09-15T20:24:00Z</time>
      </trkpt>
      <trkpt lat="-24.7305900" lon="-53.7497870">
        <ele>574.9</ele>
        <time>2018-09-15T20:24:01Z</time>
      </trkpt>
      <trkpt lat="-24.7306320" lon="-53.7497890">
        <ele>574.8</ele>
        <time>2018-09-15T20:24:02Z</time>
      </trkpt>
      <trkpt lat="-24.7306730" lon="-53.7497900">
        <ele>574.6</ele>
        <time>2018-09-15T20:24:03Z</time>
      </trkpt>
      <trkpt lat="-24.7307130" lon="-53.7497910">
        <ele>574.5</ele>
        <time>2018-09-15T20:24:04Z</time>
      </trkpt>
      <trkpt lat="-24.7307500" lon="-53.7497890">
        <ele>574.4</ele>
        <time>2018-09-15T20:24:05Z</time>
      </trkpt>
      <trkpt lat="-24.7307880" lon="-53.7497900">
        <ele>574.2</ele>
        <time>2018-09-15T20:24:06Z</time>
      </trkpt>
      <trkpt lat="-24.7308250" lon="-53.7497980">
        <ele>574.1</ele>
        <time>2018-09-15T20:24:07Z</time>
      </trkpt>
      <trkpt lat="-24.7308600" lon="-53.7498100">
        <ele>574.0</ele>
        <time>2018-09-15T20:24:08Z</time>
      </trkpt>
      <trkpt lat="-24.7308930" lon="-53.7498230">
        <ele>574.0</ele>
        <time>2018-09-15T20:24:09Z</time>
      </trkpt>
      <trkpt lat="-24.7309250" lon="-53.7498360">
        <ele>574.0</ele>
        <time>2018-09-15T20:24:10Z</time>
      </trkpt>
      <trkpt lat="-24.7309520" lon="-53.7498540">
        <ele>574.0</ele>
        <time>2018-09-15T20:24:11Z</time>
      </trkpt>
      <trkpt lat="-24.7309720" lon="-53.7498790">
        <ele>574.0</ele>
        <time>2018-09-15T20:24:12Z</time>
      </trkpt>
      <trkpt lat="-24.7309850" lon="-53.7499040">
        <ele>574.0</ele>
        <time>2018-09-15T20:24:13Z</time>
      </trkpt>
      <trkpt lat="-24.7309870" lon="-53.7499300">
        <ele>574.0</ele>
        <time>2018-09-15T20:24:14Z</time>
      </trkpt>
      <trkpt lat="-24.7309730" lon="-53.7499400">
        <ele>574.0</ele>
        <time>2018-09-15T20:24:15Z</time>
      </trkpt>
      <trkpt lat="-24.7309650" lon="-53.7499270">
        <ele>574.0</ele>
        <time>2018-09-15T20:24:16Z</time>
      </trkpt>
      <trkpt lat="-24.7309660" lon="-53.7499060">
        <ele>574.0</ele>
        <time>2018-09-15T20:24:17Z</time>
      </trkpt>
      <trkpt lat="-24.7309780" lon="-53.7498850">
        <ele>574.0</ele>
        <time>2018-09-15T20:24:18Z</time>
      </trkpt>
      <trkpt lat="-24.7309900" lon="-53.7498670">
        <ele>574.0</ele>
        <time>2018-09-15T20:24:19Z</time>
      </trkpt>
      <trkpt lat="-24.7310000" lon="-53.7498510">
        <ele>574.0</ele>
        <time>2018-09-15T20:24:20Z</time>
      </trkpt>
      <trkpt lat="-24.7310030" lon="-53.7498370">
        <ele>574.0</ele>
        <time>2018-09-15T20:24:21Z</time>
      </trkpt>
      <trkpt lat="-24.7310060" lon="-53.7498230">
        <ele>574.0</ele>
        <time>2018-09-15T20:24:22Z</time>
      </trkpt>
      <trkpt lat="-24.7310050" lon="-53.7498160">
        <ele>574.0</ele>
        <time>2018-09-15T20:24:23Z</time>
      </trkpt>
      <trkpt lat="-24.7310020" lon="-53.7498140">
        <ele>574.0</ele>
        <time>2018-09-15T20:24:24Z</time>
      </trkpt>
      <trkpt lat="-24.7310040" lon="-53.7498110">
        <ele>574.0</ele>
        <time>2018-09-15T20:24:25Z</time>
      </trkpt>
      <trkpt lat="-24.7310030" lon="-53.7498080">
        <ele>574.0</ele>
        <time>2018-09-15T20:24:26Z</time>
      </trkpt>
      <trkpt lat="-24.7310020" lon="-53.7498060">
        <ele>574.0</ele>
        <time>2018-09-15T20:24:27Z</time>
      </trkpt>
      <trkpt lat="-24.7310120" lon="-53.7497930">
        <ele>574.0</ele>
        <time>2018-09-15T20:24:45Z</time>
      </trkpt>
      <trkpt lat="-24.7310110" lon="-53.7497840">
        <ele>574.0</ele>
        <time>2018-09-15T20:24:46Z</time>
      </trkpt>
      <trkpt lat="-24.7310010" lon="-53.7497700">
        <ele>574.0</ele>
        <time>2018-09-15T20:24:47Z</time>
      </trkpt>
      <trkpt lat="-24.7309810" lon="-53.7497670">
        <ele>574.0</ele>
        <time>2018-09-15T20:24:48Z</time>
      </trkpt>
      <trkpt lat="-24.7309690" lon="-53.7497830">
        <ele>574.0</ele>
        <time>2018-09-15T20:24:49Z</time>
      </trkpt>
      <trkpt lat="-24.7309700" lon="-53.7498040">
        <ele>574.0</ele>
        <time>2018-09-15T20:24:50Z</time>
      </trkpt>
      <trkpt lat="-24.7309770" lon="-53.7498320">
        <ele>574.0</ele>
        <time>2018-09-15T20:24:51Z</time>
      </trkpt>
      <trkpt lat="-24.7309840" lon="-53.7498670">
        <ele>574.0</ele>
        <time>2018-09-15T20:24:52Z</time>
      </trkpt>
      <trkpt lat="-24.7309880" lon="-53.7499090">
        <ele>574.0</ele>
        <time>2018-09-15T20:24:53Z</time>
      </trkpt>
      <trkpt lat="-24.7309950" lon="-53.7499580">
        <ele>574.0</ele>
        <time>2018-09-15T20:24:54Z</time>
      </trkpt>
      <trkpt lat="-24.7309990" lon="-53.7500060">
        <ele>574.0</ele>
        <time>2018-09-15T20:24:55Z</time>
      </trkpt>
      <trkpt lat="-24.7310020" lon="-53.7500480">
        <ele>574.0</ele>
        <time>2018-09-15T20:24:56Z</time>
      </trkpt>
      <trkpt lat="-24.7310040" lon="-53.7500890">
        <ele>574.0</ele>
        <time>2018-09-15T20:24:57Z</time>
      </trkpt>
      <trkpt lat="-24.7310060" lon="-53.7501280">
        <ele>574.0</ele>
        <time>2018-09-15T20:24:58Z</time>
      </trkpt>
      <trkpt lat="-24.7310090" lon="-53.7501660">
        <ele>574.1</ele>
        <time>2018-09-15T20:24:59Z</time>
      </trkpt>
      <trkpt lat="-24.7310090" lon="-53.7502050">
        <ele>574.1</ele>
        <time>2018-09-15T20:25:00Z</time>
      </trkpt>
      <trkpt lat="-24.7310090" lon="-53.7502440">
        <ele>574.1</ele>
        <time>2018-09-15T20:25:01Z</time>
      </trkpt>
      <trkpt lat="-24.7310110" lon="-53.7502800">
        <ele>574.1</ele>
        <time>2018-09-15T20:25:02Z</time>
      </trkpt>
      <trkpt lat="-24.7310120" lon="-53.7503130">
        <ele>574.1</ele>
        <time>2018-09-15T20:25:03Z</time>
      </trkpt>
      <trkpt lat="-24.7310110" lon="-53.7503420">
        <ele>574.1</ele>
        <time>2018-09-15T20:25:04Z</time>
      </trkpt>
      <trkpt lat="-24.7310150" lon="-53.7503730">
        <ele>574.1</ele>
        <time>2018-09-15T20:25:05Z</time>
      </trkpt>
      <trkpt lat="-24.7310230" lon="-53.7504000">
        <ele>574.0</ele>
        <time>2018-09-15T20:25:06Z</time>
      </trkpt>
      <trkpt lat="-24.7310390" lon="-53.7504190">
        <ele>574.0</ele>
        <time>2018-09-15T20:25:07Z</time>
      </trkpt>
      <trkpt lat="-24.7310560" lon="-53.7504300">
        <ele>574.0</ele>
        <time>2018-09-15T20:25:08Z</time>
      </trkpt>
      <trkpt lat="-24.7310600" lon="-53.7504330">
        <ele>574.0</ele>
        <time>2018-09-15T20:25:09Z</time>
      </trkpt>
      <trkpt lat="-24.7310600" lon="-53.7504330">
        <ele>574.0</ele>
        <time>2018-09-15T20:25:10Z</time>
      </trkpt>
      <trkpt lat="-24.7310580" lon="-53.7504350">
        <ele>574.0</ele>
        <time>2018-09-15T20:25:11Z</time>
      </trkpt>
      <trkpt lat="-24.7310590" lon="-53.7504370">
        <ele>574.0</ele>
        <time>2018-09-15T20:25:12Z</time>
      </trkpt>
      <trkpt lat="-24.7310590" lon="-53.7504370">
        <ele>574.0</ele>
        <time>2018-09-15T20:25:13Z</time>
      </trkpt>
      <trkpt lat="-24.7310590" lon="-53.7504360">
        <ele>574.0</ele>
        <time>2018-09-15T20:25:22Z</time>
      </trkpt>
      <trkpt lat="-24.7310590" lon="-53.7504380">
        <ele>574.0</ele>
        <time>2018-09-15T20:25:23Z</time>
      </trkpt>
      <trkpt lat="-24.7310560" lon="-53.7504370">
        <ele>574.0</ele>
        <time>2018-09-15T20:25:24Z</time>
      </trkpt>
      <trkpt lat="-24.7310590" lon="-53.7504400">
        <ele>573.7</ele>
        <time>2018-09-15T20:25:29Z</time>
      </trkpt>
      <trkpt lat="-24.7310600" lon="-53.7504360">
        <ele>574.0</ele>
        <time>2018-09-15T20:25:30Z</time>
      </trkpt>
      <trkpt lat="-24.7310600" lon="-53.7504320">
        <ele>574.0</ele>
        <time>2018-09-15T20:25:31Z</time>
      </trkpt>
      <trkpt lat="-24.7310650" lon="-53.7504340">
        <ele>574.0</ele>
        <time>2018-09-15T20:25:32Z</time>
      </trkpt>
      <trkpt lat="-24.7310700" lon="-53.7504330">
        <ele>574.0</ele>
        <time>2018-09-15T20:25:33Z</time>
      </trkpt>
      <trkpt lat="-24.7310680" lon="-53.7504350">
        <ele>574.0</ele>
        <time>2018-09-15T20:25:34Z</time>
      </trkpt>
      <trkpt lat="-24.7310650" lon="-53.7504370">
        <ele>574.0</ele>
        <time>2018-09-15T20:25:35Z</time>
      </trkpt>
      <trkpt lat="-24.7310680" lon="-53.7504340">
        <ele>574.0</ele>
        <time>2018-09-15T20:25:36Z</time>
      </trkpt>
      <trkpt lat="-24.7310700" lon="-53.7504320">
        <ele>574.0</ele>
        <time>2018-09-15T20:25:37Z</time>
      </trkpt>
      <trkpt lat="-24.7310690" lon="-53.7504260">
        <ele>574.0</ele>
        <time>2018-09-15T20:25:38Z</time>
      </trkpt>
      <trkpt lat="-24.7310720" lon="-53.7504250">
        <ele>574.0</ele>
        <time>2018-09-15T20:25:39Z</time>
      </trkpt>
      <trkpt lat="-24.7310710" lon="-53.7504250">
        <ele>574.0</ele>
        <time>2018-09-15T20:25:40Z</time>
      </trkpt>
      <trkpt lat="-24.7310660" lon="-53.7504230">
        <ele>574.0</ele>
        <time>2018-09-15T20:25:41Z</time>
      </trkpt>
      <trkpt lat="-24.7310570" lon="-53.7504260">
        <ele>574.0</ele>
        <time>2018-09-15T20:25:42Z</time>
      </trkpt>
      <trkpt lat="-24.7310600" lon="-53.7504340">
        <ele>574.0</ele>
        <time>2018-09-15T20:25:43Z</time>
      </trkpt>
      <trkpt lat="-24.7310620" lon="-53.7504440">
        <ele>574.0</ele>
        <time>2018-09-15T20:25:44Z</time>
      </trkpt>
      <trkpt lat="-24.7310700" lon="-53.7504530">
        <ele>574.0</ele>
        <time>2018-09-15T20:25:45Z</time>
      </trkpt>
      <trkpt lat="-24.7310750" lon="-53.7504550">
        <ele>574.0</ele>
        <time>2018-09-15T20:25:46Z</time>
      </trkpt>
      <trkpt lat="-24.7310960" lon="-53.7504630">
        <ele>574.0</ele>
        <time>2018-09-15T20:25:47Z</time>
      </trkpt>
      <trkpt lat="-24.7311000" lon="-53.7504700">
        <ele>574.0</ele>
        <time>2018-09-15T20:25:48Z</time>
      </trkpt>
      <trkpt lat="-24.7311020" lon="-53.7504750">
        <ele>574.0</ele>
        <time>2018-09-15T20:25:49Z</time>
      </trkpt>
      <trkpt lat="-24.7311000" lon="-53.7504820">
        <ele>574.0</ele>
        <time>2018-09-15T20:25:50Z</time>
      </trkpt>
      <trkpt lat="-24.7311010" lon="-53.7504950">
        <ele>574.0</ele>
        <time>2018-09-15T20:25:51Z</time>
      </trkpt>
      <trkpt lat="-24.7311030" lon="-53.7504930">
        <ele>574.0</ele>
        <time>2018-09-15T20:25:52Z</time>
      </trkpt>
      <trkpt lat="-24.7311050" lon="-53.7505010">
        <ele>574.0</ele>
        <time>2018-09-15T20:25:53Z</time>
      </trkpt>
      <trkpt lat="-24.7311030" lon="-53.7505050">
        <ele>574.0</ele>
        <time>2018-09-15T20:25:54Z</time>
      </trkpt>
      <trkpt lat="-24.7311050" lon="-53.7505130">
        <ele>574.0</ele>
        <time>2018-09-15T20:25:55Z</time>
      </trkpt>
      <trkpt lat="-24.7311080" lon="-53.7505240">
        <ele>574.0</ele>
        <time>2018-09-15T20:25:56Z</time>
      </trkpt>
      <trkpt lat="-24.7311050" lon="-53.7505350">
        <ele>574.0</ele>
        <time>2018-09-15T20:25:57Z</time>
      </trkpt>
      <trkpt lat="-24.7311020" lon="-53.7505420">
        <ele>574.0</ele>
        <time>2018-09-15T20:25:58Z</time>
      </trkpt>
      <trkpt lat="-24.7311040" lon="-53.7505450">
        <ele>574.0</ele>
        <time>2018-09-15T20:25:59Z</time>
      </trkpt>
      <trkpt lat="-24.7311100" lon="-53.7505550">
        <ele>572.2</ele>
        <time>2018-09-15T20:26:00Z</time>
      </trkpt>
      <trkpt lat="-24.7311190" lon="-53.7505660">
        <ele>572.1</ele>
        <time>2018-09-15T20:26:01Z</time>
      </trkpt>
      <trkpt lat="-24.7311210" lon="-53.7505660">
        <ele>572.1</ele>
        <time>2018-09-15T20:26:02Z</time>
      </trkpt>
      <trkpt lat="-24.7311220" lon="-53.7505730">
        <ele>572.1</ele>
        <time>2018-09-15T20:26:03Z</time>
      </trkpt>
      <trkpt lat="-24.7311260" lon="-53.7505840">
        <ele>572.0</ele>
        <time>2018-09-15T20:26:04Z</time>
      </trkpt>
      <trkpt lat="-24.7311300" lon="-53.7505920">
        <ele>571.9</ele>
        <time>2018-09-15T20:26:05Z</time>
      </trkpt>
      <trkpt lat="-24.7311360" lon="-53.7506020">
        <ele>571.8</ele>
        <time>2018-09-15T20:26:06Z</time>
      </trkpt>
      <trkpt lat="-24.7311370" lon="-53.7506020">
        <ele>571.8</ele>
        <time>2018-09-15T20:26:07Z</time>
      </trkpt>
      <trkpt lat="-24.7311370" lon="-53.7505950">
        <ele>571.8</ele>
        <time>2018-09-15T20:26:08Z</time>
      </trkpt>
      <trkpt lat="-24.7311530" lon="-53.7506040">
        <ele>571.6</ele>
        <time>2018-09-15T20:26:09Z</time>
      </trkpt>
    </trkseg>
  </trk>
</gpx>
